<?xml version="1.0" encoding="UTF-8" standalone="no" ?>
<gpx xmlns="http://www.topografix.com/GPX/1/1" xmlns:xsi="http://www.w3.org/2001/XMLSchema-instance" xsi:schemaLocation="http://www.topografix.com/GPX/1/1 http://www.topografix.com/GPX/1/1/gpx.xsd" version="1.1" creator="VisuGPX - https://www.visugpx.com">
  <metadata>
    <name>UltraTrail du hautGiffre 2022  UTLAC</name>
    <desc><![CDATA[Ultra Tour des Lacs aux Cimes
]]></desc>
  </metadata>
  <trk>
    <name><![CDATA[UltraTrail du hautGiffre 2022  UTLAC 127 km sur TraceDeTrail.fr]]></name>
    <trkseg>
      <trkpt lat="46.08347" lon="6.72695">
        <ele>703</ele>
        <time>2000-01-01T01:00:13.000Z</time>
      </trkpt>
      <trkpt lat="46.08344" lon="6.72709">
        <ele>703.7</ele>
        <time>2000-01-01T01:00:23.000Z</time>
      </trkpt>
      <trkpt lat="46.08341" lon="6.72722">
        <ele>703</ele>
        <time>2000-01-01T01:00:33.000Z</time>
      </trkpt>
      <trkpt lat="46.08342" lon="6.72722">
        <ele>704</ele>
        <time>2000-01-01T01:00:43.000Z</time>
      </trkpt>
      <trkpt lat="46.08341" lon="6.72726">
        <ele>704</ele>
        <time>2000-01-01T01:00:53.000Z</time>
      </trkpt>
      <trkpt lat="46.08358" lon="6.72732">
        <ele>703</ele>
        <time>2000-01-01T01:01:03.000Z</time>
      </trkpt>
      <trkpt lat="46.08372" lon="6.72737">
        <ele>704.6</ele>
        <time>2000-01-01T01:01:13.000Z</time>
      </trkpt>
      <trkpt lat="46.08375" lon="6.72738">
        <ele>704.7</ele>
        <time>2000-01-01T01:01:23.000Z</time>
      </trkpt>
      <trkpt lat="46.08382" lon="6.72739">
        <ele>705</ele>
        <time>2000-01-01T01:01:33.000Z</time>
      </trkpt>
      <trkpt lat="46.08387" lon="6.72738">
        <ele>705.3</ele>
        <time>2000-01-01T01:01:43.000Z</time>
      </trkpt>
      <trkpt lat="46.08387" lon="6.72768">
        <ele>705</ele>
        <time>2000-01-01T01:01:53.000Z</time>
      </trkpt>
      <trkpt lat="46.08388" lon="6.72784">
        <ele>705.9</ele>
        <time>2000-01-01T01:02:03.000Z</time>
      </trkpt>
      <trkpt lat="46.0839" lon="6.72791">
        <ele>706.1</ele>
        <time>2000-01-01T01:02:13.000Z</time>
      </trkpt>
      <trkpt lat="46.08392" lon="6.72793">
        <ele>706</ele>
        <time>2000-01-01T01:02:23.000Z</time>
      </trkpt>
      <trkpt lat="46.08402" lon="6.72792">
        <ele>707.6</ele>
        <time>2000-01-01T01:02:33.000Z</time>
      </trkpt>
      <trkpt lat="46.08413" lon="6.72793">
        <ele>708</ele>
        <time>2000-01-01T01:02:43.000Z</time>
      </trkpt>
      <trkpt lat="46.08413" lon="6.72792">
        <ele>709</ele>
        <time>2000-01-01T01:02:53.000Z</time>
      </trkpt>
      <trkpt lat="46.08413" lon="6.72781">
        <ele>709.4</ele>
        <time>2000-01-01T01:03:03.000Z</time>
      </trkpt>
      <trkpt lat="46.08413" lon="6.72777">
        <ele>709.5</ele>
        <time>2000-01-01T01:03:13.000Z</time>
      </trkpt>
      <trkpt lat="46.08415" lon="6.72775">
        <ele>709.8</ele>
        <time>2000-01-01T01:03:23.000Z</time>
      </trkpt>
      <trkpt lat="46.08421" lon="6.72775">
        <ele>710</ele>
        <time>2000-01-01T01:03:33.000Z</time>
      </trkpt>
      <trkpt lat="46.08422" lon="6.72774">
        <ele>711.9</ele>
        <time>2000-01-01T01:03:43.000Z</time>
      </trkpt>
      <trkpt lat="46.08423" lon="6.72772">
        <ele>712.4</ele>
        <time>2000-01-01T01:03:53.000Z</time>
      </trkpt>
      <trkpt lat="46.08423" lon="6.7277">
        <ele>712.5</ele>
        <time>2000-01-01T01:04:03.000Z</time>
      </trkpt>
      <trkpt lat="46.08423" lon="6.72765">
        <ele>712.8</ele>
        <time>2000-01-01T01:04:13.000Z</time>
      </trkpt>
      <trkpt lat="46.08423" lon="6.72761">
        <ele>713.1</ele>
        <time>2000-01-01T01:04:23.000Z</time>
      </trkpt>
      <trkpt lat="46.08424" lon="6.7276">
        <ele>713.5</ele>
        <time>2000-01-01T01:04:33.000Z</time>
      </trkpt>
      <trkpt lat="46.08426" lon="6.72759">
        <ele>714.4</ele>
        <time>2000-01-01T01:04:43.000Z</time>
      </trkpt>
      <trkpt lat="46.08428" lon="6.72759">
        <ele>715.2</ele>
        <time>2000-01-01T01:04:53.000Z</time>
      </trkpt>
      <trkpt lat="46.0843" lon="6.7276">
        <ele>715.9</ele>
        <time>2000-01-01T01:05:03.000Z</time>
      </trkpt>
      <trkpt lat="46.08434" lon="6.72764">
        <ele>715</ele>
        <time>2000-01-01T01:05:13.000Z</time>
      </trkpt>
      <trkpt lat="46.08438" lon="6.72766">
        <ele>718.3</ele>
        <time>2000-01-01T01:05:23.000Z</time>
      </trkpt>
      <trkpt lat="46.08454" lon="6.72778">
        <ele>722</ele>
        <time>2000-01-01T01:05:33.000Z</time>
      </trkpt>
      <trkpt lat="46.08459" lon="6.72779">
        <ele>724.6</ele>
        <time>2000-01-01T01:05:43.000Z</time>
      </trkpt>
      <trkpt lat="46.08464" lon="6.72778">
        <ele>726.7</ele>
        <time>2000-01-01T01:05:53.000Z</time>
      </trkpt>
      <trkpt lat="46.08468" lon="6.72778">
        <ele>728.3</ele>
        <time>2000-01-01T01:06:03.000Z</time>
      </trkpt>
      <trkpt lat="46.08474" lon="6.7278">
        <ele>730</ele>
        <time>2000-01-01T01:06:13.000Z</time>
      </trkpt>
      <trkpt lat="46.08479" lon="6.72782">
        <ele>731.7</ele>
        <time>2000-01-01T01:06:23.000Z</time>
      </trkpt>
      <trkpt lat="46.08482" lon="6.72783">
        <ele>732.6</ele>
        <time>2000-01-01T01:06:33.000Z</time>
      </trkpt>
      <trkpt lat="46.0849" lon="6.72789">
        <ele>734.5</ele>
        <time>2000-01-01T01:06:43.000Z</time>
      </trkpt>
      <trkpt lat="46.08495" lon="6.72794">
        <ele>733</ele>
        <time>2000-01-01T01:06:53.000Z</time>
      </trkpt>
      <trkpt lat="46.08499" lon="6.72795">
        <ele>736.8</ele>
        <time>2000-01-01T01:07:03.000Z</time>
      </trkpt>
      <trkpt lat="46.08502" lon="6.72795">
        <ele>737.9</ele>
        <time>2000-01-01T01:07:13.000Z</time>
      </trkpt>
      <trkpt lat="46.08504" lon="6.72793">
        <ele>738.9</ele>
        <time>2000-01-01T01:07:23.000Z</time>
      </trkpt>
      <trkpt lat="46.08506" lon="6.72789">
        <ele>740</ele>
        <time>2000-01-01T01:07:33.000Z</time>
      </trkpt>
      <trkpt lat="46.08506" lon="6.72775">
        <ele>740</ele>
        <time>2000-01-01T01:07:43.000Z</time>
      </trkpt>
      <trkpt lat="46.08507" lon="6.72749">
        <ele>745.4</ele>
        <time>2000-01-01T01:07:53.000Z</time>
      </trkpt>
      <trkpt lat="46.08507" lon="6.7273">
        <ele>746</ele>
        <time>2000-01-01T01:08:03.000Z</time>
      </trkpt>
      <trkpt lat="46.08511" lon="6.72726">
        <ele>750.5</ele>
        <time>2000-01-01T01:08:13.000Z</time>
      </trkpt>
      <trkpt lat="46.08518" lon="6.72726">
        <ele>752.6</ele>
        <time>2000-01-01T01:08:23.000Z</time>
      </trkpt>
      <trkpt lat="46.08526" lon="6.72733">
        <ele>752</ele>
        <time>2000-01-01T01:08:33.000Z</time>
      </trkpt>
      <trkpt lat="46.08533" lon="6.72738">
        <ele>755.2</ele>
        <time>2000-01-01T01:08:43.000Z</time>
      </trkpt>
      <trkpt lat="46.0854" lon="6.72742">
        <ele>756.5</ele>
        <time>2000-01-01T01:08:53.000Z</time>
      </trkpt>
      <trkpt lat="46.08555" lon="6.72746">
        <ele>759</ele>
        <time>2000-01-01T01:09:03.000Z</time>
      </trkpt>
      <trkpt lat="46.08571" lon="6.72748">
        <ele>764.1</ele>
        <time>2000-01-01T01:09:13.000Z</time>
      </trkpt>
      <trkpt lat="46.08583" lon="6.7275">
        <ele>766</ele>
        <time>2000-01-01T01:09:23.000Z</time>
      </trkpt>
      <trkpt lat="46.0859" lon="6.7275">
        <ele>768.7</ele>
        <time>2000-01-01T01:09:33.000Z</time>
      </trkpt>
      <trkpt lat="46.08596" lon="6.72751">
        <ele>770.2</ele>
        <time>2000-01-01T01:09:43.000Z</time>
      </trkpt>
      <trkpt lat="46.086" lon="6.72749">
        <ele>771.3</ele>
        <time>2000-01-01T01:09:53.000Z</time>
      </trkpt>
      <trkpt lat="46.08601" lon="6.72739">
        <ele>771</ele>
        <time>2000-01-01T01:10:03.000Z</time>
      </trkpt>
      <trkpt lat="46.08601" lon="6.72731">
        <ele>772.4</ele>
        <time>2000-01-01T01:10:13.000Z</time>
      </trkpt>
      <trkpt lat="46.08602" lon="6.72721">
        <ele>773</ele>
        <time>2000-01-01T01:10:23.000Z</time>
      </trkpt>
      <trkpt lat="46.08604" lon="6.72715">
        <ele>773.5</ele>
        <time>2000-01-01T01:10:33.000Z</time>
      </trkpt>
      <trkpt lat="46.08608" lon="6.7271">
        <ele>772</ele>
        <time>2000-01-01T01:10:43.000Z</time>
      </trkpt>
      <trkpt lat="46.08614" lon="6.72708">
        <ele>775.5</ele>
        <time>2000-01-01T01:10:53.000Z</time>
      </trkpt>
      <trkpt lat="46.08617" lon="6.72708">
        <ele>776.1</ele>
        <time>2000-01-01T01:11:03.000Z</time>
      </trkpt>
      <trkpt lat="46.08622" lon="6.7271">
        <ele>777</ele>
        <time>2000-01-01T01:11:13.000Z</time>
      </trkpt>
      <trkpt lat="46.08625" lon="6.72713">
        <ele>777.5</ele>
        <time>2000-01-01T01:11:23.000Z</time>
      </trkpt>
      <trkpt lat="46.08627" lon="6.72713">
        <ele>776</ele>
        <time>2000-01-01T01:11:33.000Z</time>
      </trkpt>
      <trkpt lat="46.08635" lon="6.72728">
        <ele>779.3</ele>
        <time>2000-01-01T01:11:43.000Z</time>
      </trkpt>
      <trkpt lat="46.08644" lon="6.72742">
        <ele>779</ele>
        <time>2000-01-01T01:11:53.000Z</time>
      </trkpt>
      <trkpt lat="46.0865" lon="6.72749">
        <ele>781.6</ele>
        <time>2000-01-01T01:12:03.000Z</time>
      </trkpt>
      <trkpt lat="46.08655" lon="6.7273">
        <ele>781</ele>
        <time>2000-01-01T01:12:13.000Z</time>
      </trkpt>
      <trkpt lat="46.08663" lon="6.72706">
        <ele>784</ele>
        <time>2000-01-01T01:12:23.000Z</time>
      </trkpt>
      <trkpt lat="46.08668" lon="6.72691">
        <ele>783</ele>
        <time>2000-01-01T01:12:33.000Z</time>
      </trkpt>
      <trkpt lat="46.0867" lon="6.72688">
        <ele>785.5</ele>
        <time>2000-01-01T01:12:43.000Z</time>
      </trkpt>
      <trkpt lat="46.08679" lon="6.72674">
        <ele>786.8</ele>
        <time>2000-01-01T01:12:53.000Z</time>
      </trkpt>
      <trkpt lat="46.08693" lon="6.7269">
        <ele>785</ele>
        <time>2000-01-01T01:13:03.000Z</time>
      </trkpt>
      <trkpt lat="46.08694" lon="6.72701">
        <ele>788.9</ele>
        <time>2000-01-01T01:13:13.000Z</time>
      </trkpt>
      <trkpt lat="46.08694" lon="6.72706">
        <ele>788.9</ele>
        <time>2000-01-01T01:13:23.000Z</time>
      </trkpt>
      <trkpt lat="46.08694" lon="6.72707">
        <ele>788.9</ele>
        <time>2000-01-01T01:13:33.000Z</time>
      </trkpt>
      <trkpt lat="46.08691" lon="6.72728">
        <ele>787</ele>
        <time>2000-01-01T01:13:43.000Z</time>
      </trkpt>
      <trkpt lat="46.0869" lon="6.7274">
        <ele>787.7</ele>
        <time>2000-01-01T01:13:53.000Z</time>
      </trkpt>
      <trkpt lat="46.08694" lon="6.72756">
        <ele>787</ele>
        <time>2000-01-01T01:14:03.000Z</time>
      </trkpt>
      <trkpt lat="46.08694" lon="6.72777">
        <ele>787.9</ele>
        <time>2000-01-01T01:14:13.000Z</time>
      </trkpt>
      <trkpt lat="46.0869" lon="6.72799">
        <ele>786</ele>
        <time>2000-01-01T01:14:23.000Z</time>
      </trkpt>
      <trkpt lat="46.08687" lon="6.72821">
        <ele>787.2</ele>
        <time>2000-01-01T01:14:33.000Z</time>
      </trkpt>
      <trkpt lat="46.08683" lon="6.72853">
        <ele>786</ele>
        <time>2000-01-01T01:14:43.000Z</time>
      </trkpt>
      <trkpt lat="46.08686" lon="6.72886">
        <ele>785</ele>
        <time>2000-01-01T01:14:53.000Z</time>
      </trkpt>
      <trkpt lat="46.08684" lon="6.72939">
        <ele>785</ele>
        <time>2000-01-01T01:15:03.000Z</time>
      </trkpt>
      <trkpt lat="46.08688" lon="6.72956">
        <ele>790.3</ele>
        <time>2000-01-01T01:15:13.000Z</time>
      </trkpt>
      <trkpt lat="46.08695" lon="6.72971">
        <ele>792</ele>
        <time>2000-01-01T01:15:23.000Z</time>
      </trkpt>
      <trkpt lat="46.08703" lon="6.72973">
        <ele>797.5</ele>
        <time>2000-01-01T01:15:33.000Z</time>
      </trkpt>
      <trkpt lat="46.08712" lon="6.72962">
        <ele>798</ele>
        <time>2000-01-01T01:15:43.000Z</time>
      </trkpt>
      <trkpt lat="46.08722" lon="6.72952">
        <ele>802</ele>
        <time>2000-01-01T01:15:53.000Z</time>
      </trkpt>
      <trkpt lat="46.08733" lon="6.72947">
        <ele>802</ele>
        <time>2000-01-01T01:16:03.000Z</time>
      </trkpt>
      <trkpt lat="46.08735" lon="6.72953">
        <ele>808</ele>
        <time>2000-01-01T01:16:13.000Z</time>
      </trkpt>
      <trkpt lat="46.08734" lon="6.72962">
        <ele>809.2</ele>
        <time>2000-01-01T01:16:23.000Z</time>
      </trkpt>
      <trkpt lat="46.0873" lon="6.72978">
        <ele>803</ele>
        <time>2000-01-01T01:16:33.000Z</time>
      </trkpt>
      <trkpt lat="46.08727" lon="6.72998">
        <ele>813</ele>
        <time>2000-01-01T01:16:43.000Z</time>
      </trkpt>
      <trkpt lat="46.0873" lon="6.73013">
        <ele>812</ele>
        <time>2000-01-01T01:16:53.000Z</time>
      </trkpt>
      <trkpt lat="46.08733" lon="6.73021">
        <ele>822</ele>
        <time>2000-01-01T01:17:03.000Z</time>
      </trkpt>
      <trkpt lat="46.08737" lon="6.73045">
        <ele>823</ele>
        <time>2000-01-01T01:17:13.000Z</time>
      </trkpt>
      <trkpt lat="46.08742" lon="6.73084">
        <ele>837</ele>
        <time>2000-01-01T01:17:23.000Z</time>
      </trkpt>
      <trkpt lat="46.08748" lon="6.73139">
        <ele>838</ele>
        <time>2000-01-01T01:17:33.000Z</time>
      </trkpt>
      <trkpt lat="46.08754" lon="6.7316">
        <ele>842.7</ele>
        <time>2000-01-01T01:17:43.000Z</time>
      </trkpt>
      <trkpt lat="46.08762" lon="6.73178">
        <ele>844</ele>
        <time>2000-01-01T01:17:53.000Z</time>
      </trkpt>
      <trkpt lat="46.08771" lon="6.73198">
        <ele>845.8</ele>
        <time>2000-01-01T01:18:03.000Z</time>
      </trkpt>
      <trkpt lat="46.08779" lon="6.73218">
        <ele>844</ele>
        <time>2000-01-01T01:18:13.000Z</time>
      </trkpt>
      <trkpt lat="46.08781" lon="6.73225">
        <ele>847.9</ele>
        <time>2000-01-01T01:18:23.000Z</time>
      </trkpt>
      <trkpt lat="46.08785" lon="6.73231">
        <ele>848.4</ele>
        <time>2000-01-01T01:18:33.000Z</time>
      </trkpt>
      <trkpt lat="46.08791" lon="6.73237">
        <ele>849.5</ele>
        <time>2000-01-01T01:18:43.000Z</time>
      </trkpt>
      <trkpt lat="46.088" lon="6.73244">
        <ele>848</ele>
        <time>2000-01-01T01:18:53.000Z</time>
      </trkpt>
      <trkpt lat="46.08803" lon="6.73248">
        <ele>851.6</ele>
        <time>2000-01-01T01:19:03.000Z</time>
      </trkpt>
      <trkpt lat="46.08805" lon="6.73252">
        <ele>851.4</ele>
        <time>2000-01-01T01:19:13.000Z</time>
      </trkpt>
      <trkpt lat="46.08807" lon="6.73256">
        <ele>851.5</ele>
        <time>2000-01-01T01:19:23.000Z</time>
      </trkpt>
      <trkpt lat="46.08817" lon="6.73271">
        <ele>849</ele>
        <time>2000-01-01T01:19:33.000Z</time>
      </trkpt>
      <trkpt lat="46.08822" lon="6.7328">
        <ele>853</ele>
        <time>2000-01-01T01:19:43.000Z</time>
      </trkpt>
      <trkpt lat="46.08824" lon="6.73286">
        <ele>852.4</ele>
        <time>2000-01-01T01:19:53.000Z</time>
      </trkpt>
      <trkpt lat="46.08827" lon="6.73293">
        <ele>852.1</ele>
        <time>2000-01-01T01:20:03.000Z</time>
      </trkpt>
      <trkpt lat="46.0883" lon="6.73297">
        <ele>855</ele>
        <time>2000-01-01T01:20:13.000Z</time>
      </trkpt>
      <trkpt lat="46.08838" lon="6.73304">
        <ele>854.2</ele>
        <time>2000-01-01T01:20:23.000Z</time>
      </trkpt>
      <trkpt lat="46.08856" lon="6.73319">
        <ele>856</ele>
        <time>2000-01-01T01:20:33.000Z</time>
      </trkpt>
      <trkpt lat="46.08867" lon="6.73328">
        <ele>859.5</ele>
        <time>2000-01-01T01:20:43.000Z</time>
      </trkpt>
      <trkpt lat="46.08875" lon="6.73337">
        <ele>860</ele>
        <time>2000-01-01T01:20:53.000Z</time>
      </trkpt>
      <trkpt lat="46.08888" lon="6.73347">
        <ele>863.6</ele>
        <time>2000-01-01T01:21:03.000Z</time>
      </trkpt>
      <trkpt lat="46.08892" lon="6.73348">
        <ele>867</ele>
        <time>2000-01-01T01:21:13.000Z</time>
      </trkpt>
      <trkpt lat="46.08895" lon="6.73349">
        <ele>866.7</ele>
        <time>2000-01-01T01:21:23.000Z</time>
      </trkpt>
      <trkpt lat="46.08896" lon="6.73348">
        <ele>867.6</ele>
        <time>2000-01-01T01:21:33.000Z</time>
      </trkpt>
      <trkpt lat="46.08896" lon="6.73343">
        <ele>869.4</ele>
        <time>2000-01-01T01:21:43.000Z</time>
      </trkpt>
      <trkpt lat="46.08894" lon="6.73338">
        <ele>870.1</ele>
        <time>2000-01-01T01:21:53.000Z</time>
      </trkpt>
      <trkpt lat="46.0889" lon="6.73327">
        <ele>869</ele>
        <time>2000-01-01T01:22:03.000Z</time>
      </trkpt>
      <trkpt lat="46.08885" lon="6.73313">
        <ele>872.9</ele>
        <time>2000-01-01T01:22:13.000Z</time>
      </trkpt>
      <trkpt lat="46.08882" lon="6.73306">
        <ele>873.4</ele>
        <time>2000-01-01T01:22:23.000Z</time>
      </trkpt>
      <trkpt lat="46.08879" lon="6.73293">
        <ele>871</ele>
        <time>2000-01-01T01:22:33.000Z</time>
      </trkpt>
      <trkpt lat="46.08875" lon="6.73281">
        <ele>876.6</ele>
        <time>2000-01-01T01:22:43.000Z</time>
      </trkpt>
      <trkpt lat="46.08871" lon="6.73266">
        <ele>874</ele>
        <time>2000-01-01T01:22:53.000Z</time>
      </trkpt>
      <trkpt lat="46.08859" lon="6.73223">
        <ele>877</ele>
        <time>2000-01-01T01:23:03.000Z</time>
      </trkpt>
      <trkpt lat="46.08856" lon="6.73213">
        <ele>881.1</ele>
        <time>2000-01-01T01:23:13.000Z</time>
      </trkpt>
      <trkpt lat="46.08855" lon="6.73201">
        <ele>882.4</ele>
        <time>2000-01-01T01:23:23.000Z</time>
      </trkpt>
      <trkpt lat="46.08857" lon="6.73193">
        <ele>881</ele>
        <time>2000-01-01T01:23:33.000Z</time>
      </trkpt>
      <trkpt lat="46.08862" lon="6.73192">
        <ele>886.4</ele>
        <time>2000-01-01T01:23:43.000Z</time>
      </trkpt>
      <trkpt lat="46.08866" lon="6.73194">
        <ele>888.1</ele>
        <time>2000-01-01T01:23:53.000Z</time>
      </trkpt>
      <trkpt lat="46.08872" lon="6.73196">
        <ele>890.5</ele>
        <time>2000-01-01T01:24:03.000Z</time>
      </trkpt>
      <trkpt lat="46.0888" lon="6.73205">
        <ele>893</ele>
        <time>2000-01-01T01:24:13.000Z</time>
      </trkpt>
      <trkpt lat="46.08891" lon="6.73218">
        <ele>898.1</ele>
        <time>2000-01-01T01:24:23.000Z</time>
      </trkpt>
      <trkpt lat="46.08905" lon="6.7323">
        <ele>902</ele>
        <time>2000-01-01T01:24:33.000Z</time>
      </trkpt>
      <trkpt lat="46.08913" lon="6.73238">
        <ele>906.4</ele>
        <time>2000-01-01T01:24:43.000Z</time>
      </trkpt>
      <trkpt lat="46.08926" lon="6.73247">
        <ele>910</ele>
        <time>2000-01-01T01:24:53.000Z</time>
      </trkpt>
      <trkpt lat="46.08937" lon="6.73264">
        <ele>913.9</ele>
        <time>2000-01-01T01:25:03.000Z</time>
      </trkpt>
      <trkpt lat="46.08949" lon="6.73278">
        <ele>914</ele>
        <time>2000-01-01T01:25:13.000Z</time>
      </trkpt>
      <trkpt lat="46.08957" lon="6.73287">
        <ele>917.9</ele>
        <time>2000-01-01T01:25:23.000Z</time>
      </trkpt>
      <trkpt lat="46.08966" lon="6.73294">
        <ele>919</ele>
        <time>2000-01-01T01:25:33.000Z</time>
      </trkpt>
      <trkpt lat="46.08976" lon="6.73296">
        <ele>924.1</ele>
        <time>2000-01-01T01:25:43.000Z</time>
      </trkpt>
      <trkpt lat="46.08985" lon="6.733">
        <ele>927</ele>
        <time>2000-01-01T01:25:53.000Z</time>
      </trkpt>
      <trkpt lat="46.09005" lon="6.73314">
        <ele>930</ele>
        <time>2000-01-01T01:26:03.000Z</time>
      </trkpt>
      <trkpt lat="46.09022" lon="6.7333">
        <ele>936</ele>
        <time>2000-01-01T01:26:13.000Z</time>
      </trkpt>
      <trkpt lat="46.09053" lon="6.73353">
        <ele>940</ele>
        <time>2000-01-01T01:26:23.000Z</time>
      </trkpt>
      <trkpt lat="46.09068" lon="6.7337">
        <ele>945</ele>
        <time>2000-01-01T01:26:33.000Z</time>
      </trkpt>
      <trkpt lat="46.09073" lon="6.73377">
        <ele>950.7</ele>
        <time>2000-01-01T01:26:43.000Z</time>
      </trkpt>
      <trkpt lat="46.09078" lon="6.73386">
        <ele>950.9</ele>
        <time>2000-01-01T01:26:53.000Z</time>
      </trkpt>
      <trkpt lat="46.09082" lon="6.73386">
        <ele>953</ele>
        <time>2000-01-01T01:27:03.000Z</time>
      </trkpt>
      <trkpt lat="46.09084" lon="6.73379">
        <ele>956</ele>
        <time>2000-01-01T01:27:13.000Z</time>
      </trkpt>
      <trkpt lat="46.09083" lon="6.73367">
        <ele>958.4</ele>
        <time>2000-01-01T01:27:23.000Z</time>
      </trkpt>
      <trkpt lat="46.09084" lon="6.73349">
        <ele>960</ele>
        <time>2000-01-01T01:27:33.000Z</time>
      </trkpt>
      <trkpt lat="46.09084" lon="6.73318">
        <ele>962</ele>
        <time>2000-01-01T01:27:43.000Z</time>
      </trkpt>
      <trkpt lat="46.09085" lon="6.73297">
        <ele>964.7</ele>
        <time>2000-01-01T01:27:53.000Z</time>
      </trkpt>
      <trkpt lat="46.09086" lon="6.73286">
        <ele>963</ele>
        <time>2000-01-01T01:28:03.000Z</time>
      </trkpt>
      <trkpt lat="46.09091" lon="6.73277">
        <ele>966.7</ele>
        <time>2000-01-01T01:28:13.000Z</time>
      </trkpt>
      <trkpt lat="46.09097" lon="6.73273">
        <ele>968.6</ele>
        <time>2000-01-01T01:28:23.000Z</time>
      </trkpt>
      <trkpt lat="46.09104" lon="6.73275">
        <ele>970</ele>
        <time>2000-01-01T01:28:33.000Z</time>
      </trkpt>
      <trkpt lat="46.09109" lon="6.73284">
        <ele>973.7</ele>
        <time>2000-01-01T01:28:43.000Z</time>
      </trkpt>
      <trkpt lat="46.09114" lon="6.73292">
        <ele>976.3</ele>
        <time>2000-01-01T01:28:53.000Z</time>
      </trkpt>
      <trkpt lat="46.09121" lon="6.73295">
        <ele>978</ele>
        <time>2000-01-01T01:29:03.000Z</time>
      </trkpt>
      <trkpt lat="46.09129" lon="6.73296">
        <ele>983.2</ele>
        <time>2000-01-01T01:29:13.000Z</time>
      </trkpt>
      <trkpt lat="46.09144" lon="6.7329">
        <ele>986</ele>
        <time>2000-01-01T01:29:23.000Z</time>
      </trkpt>
      <trkpt lat="46.09164" lon="6.7328">
        <ele>993</ele>
        <time>2000-01-01T01:29:33.000Z</time>
      </trkpt>
      <trkpt lat="46.09179" lon="6.7327">
        <ele>999.5</ele>
        <time>2000-01-01T01:29:43.000Z</time>
      </trkpt>
      <trkpt lat="46.09192" lon="6.73259">
        <ele>1000</ele>
        <time>2000-01-01T01:29:53.000Z</time>
      </trkpt>
      <trkpt lat="46.09199" lon="6.73249">
        <ele>1005.8</ele>
        <time>2000-01-01T01:30:03.000Z</time>
      </trkpt>
      <trkpt lat="46.09205" lon="6.73237">
        <ele>1002</ele>
        <time>2000-01-01T01:30:13.000Z</time>
      </trkpt>
      <trkpt lat="46.09208" lon="6.73226">
        <ele>1008.3</ele>
        <time>2000-01-01T01:30:23.000Z</time>
      </trkpt>
      <trkpt lat="46.09214" lon="6.73206">
        <ele>1005</ele>
        <time>2000-01-01T01:30:33.000Z</time>
      </trkpt>
      <trkpt lat="46.09216" lon="6.73192">
        <ele>1011.3</ele>
        <time>2000-01-01T01:30:43.000Z</time>
      </trkpt>
      <trkpt lat="46.09218" lon="6.73172">
        <ele>1005</ele>
        <time>2000-01-01T01:30:53.000Z</time>
      </trkpt>
      <trkpt lat="46.09223" lon="6.73124">
        <ele>1017</ele>
        <time>2000-01-01T01:31:03.000Z</time>
      </trkpt>
      <trkpt lat="46.09225" lon="6.73089">
        <ele>1019</ele>
        <time>2000-01-01T01:31:13.000Z</time>
      </trkpt>
      <trkpt lat="46.09227" lon="6.73053">
        <ele>1020</ele>
        <time>2000-01-01T01:31:23.000Z</time>
      </trkpt>
      <trkpt lat="46.09227" lon="6.73048">
        <ele>1026.1</ele>
        <time>2000-01-01T01:31:33.000Z</time>
      </trkpt>
      <trkpt lat="46.09228" lon="6.73035">
        <ele>1027.6</ele>
        <time>2000-01-01T01:31:43.000Z</time>
      </trkpt>
      <trkpt lat="46.09231" lon="6.73008">
        <ele>1024</ele>
        <time>2000-01-01T01:31:53.000Z</time>
      </trkpt>
      <trkpt lat="46.09231" lon="6.72988">
        <ele>1030.7</ele>
        <time>2000-01-01T01:32:03.000Z</time>
      </trkpt>
      <trkpt lat="46.09234" lon="6.72971">
        <ele>1029</ele>
        <time>2000-01-01T01:32:13.000Z</time>
      </trkpt>
      <trkpt lat="46.0924" lon="6.72958">
        <ele>1038.3</ele>
        <time>2000-01-01T01:32:23.000Z</time>
      </trkpt>
      <trkpt lat="46.09244" lon="6.72948">
        <ele>1041.2</ele>
        <time>2000-01-01T01:32:33.000Z</time>
      </trkpt>
      <trkpt lat="46.09243" lon="6.72937">
        <ele>1036</ele>
        <time>2000-01-01T01:32:43.000Z</time>
      </trkpt>
      <trkpt lat="46.09245" lon="6.72931">
        <ele>1041.1</ele>
        <time>2000-01-01T01:32:53.000Z</time>
      </trkpt>
      <trkpt lat="46.09249" lon="6.72916">
        <ele>1043.2</ele>
        <time>2000-01-01T01:33:03.000Z</time>
      </trkpt>
      <trkpt lat="46.09254" lon="6.72904">
        <ele>1044</ele>
        <time>2000-01-01T01:33:13.000Z</time>
      </trkpt>
      <trkpt lat="46.09255" lon="6.729">
        <ele>1046.2</ele>
        <time>2000-01-01T01:33:23.000Z</time>
      </trkpt>
      <trkpt lat="46.09259" lon="6.72887">
        <ele>1047.6</ele>
        <time>2000-01-01T01:33:33.000Z</time>
      </trkpt>
      <trkpt lat="46.09261" lon="6.72884">
        <ele>1048.5</ele>
        <time>2000-01-01T01:33:43.000Z</time>
      </trkpt>
      <trkpt lat="46.09262" lon="6.72882">
        <ele>1048.8</ele>
        <time>2000-01-01T01:33:53.000Z</time>
      </trkpt>
      <trkpt lat="46.09272" lon="6.7286">
        <ele>1047</ele>
        <time>2000-01-01T01:34:03.000Z</time>
      </trkpt>
      <trkpt lat="46.09277" lon="6.72853">
        <ele>1052.8</ele>
        <time>2000-01-01T01:34:13.000Z</time>
      </trkpt>
      <trkpt lat="46.09294" lon="6.72833">
        <ele>1055</ele>
        <time>2000-01-01T01:34:23.000Z</time>
      </trkpt>
      <trkpt lat="46.09303" lon="6.72823">
        <ele>1062.2</ele>
        <time>2000-01-01T01:34:33.000Z</time>
      </trkpt>
      <trkpt lat="46.09319" lon="6.728">
        <ele>1062</ele>
        <time>2000-01-01T01:34:43.000Z</time>
      </trkpt>
      <trkpt lat="46.09326" lon="6.72784">
        <ele>1071.5</ele>
        <time>2000-01-01T01:34:53.000Z</time>
      </trkpt>
      <trkpt lat="46.09331" lon="6.72768">
        <ele>1065</ele>
        <time>2000-01-01T01:35:03.000Z</time>
      </trkpt>
      <trkpt lat="46.09335" lon="6.7275">
        <ele>1074.3</ele>
        <time>2000-01-01T01:35:13.000Z</time>
      </trkpt>
      <trkpt lat="46.09339" lon="6.72733">
        <ele>1068</ele>
        <time>2000-01-01T01:35:23.000Z</time>
      </trkpt>
      <trkpt lat="46.09344" lon="6.72719">
        <ele>1077.2</ele>
        <time>2000-01-01T01:35:33.000Z</time>
      </trkpt>
      <trkpt lat="46.0935" lon="6.72705">
        <ele>1072</ele>
        <time>2000-01-01T01:35:43.000Z</time>
      </trkpt>
      <trkpt lat="46.09358" lon="6.72693">
        <ele>1081.7</ele>
        <time>2000-01-01T01:35:53.000Z</time>
      </trkpt>
      <trkpt lat="46.09369" lon="6.72682">
        <ele>1078</ele>
        <time>2000-01-01T01:36:03.000Z</time>
      </trkpt>
      <trkpt lat="46.0938" lon="6.72672">
        <ele>1088.7</ele>
        <time>2000-01-01T01:36:13.000Z</time>
      </trkpt>
      <trkpt lat="46.09393" lon="6.72662">
        <ele>1090</ele>
        <time>2000-01-01T01:36:23.000Z</time>
      </trkpt>
      <trkpt lat="46.09411" lon="6.72648">
        <ele>1094</ele>
        <time>2000-01-01T01:36:33.000Z</time>
      </trkpt>
      <trkpt lat="46.09436" lon="6.72637">
        <ele>1101</ele>
        <time>2000-01-01T01:36:43.000Z</time>
      </trkpt>
      <trkpt lat="46.09468" lon="6.72621">
        <ele>1104</ele>
        <time>2000-01-01T01:36:53.000Z</time>
      </trkpt>
      <trkpt lat="46.09499" lon="6.72593">
        <ele>1104</ele>
        <time>2000-01-01T01:37:03.000Z</time>
      </trkpt>
      <trkpt lat="46.09524" lon="6.7257">
        <ele>1104</ele>
        <time>2000-01-01T01:37:13.000Z</time>
      </trkpt>
      <trkpt lat="46.09545" lon="6.7255">
        <ele>1103</ele>
        <time>2000-01-01T01:37:23.000Z</time>
      </trkpt>
      <trkpt lat="46.09569" lon="6.72528">
        <ele>1107</ele>
        <time>2000-01-01T01:37:33.000Z</time>
      </trkpt>
      <trkpt lat="46.0959" lon="6.72512">
        <ele>1107</ele>
        <time>2000-01-01T01:37:43.000Z</time>
      </trkpt>
      <trkpt lat="46.09615" lon="6.72493">
        <ele>1107</ele>
        <time>2000-01-01T01:37:53.000Z</time>
      </trkpt>
      <trkpt lat="46.09636" lon="6.72473">
        <ele>1107</ele>
        <time>2000-01-01T01:38:03.000Z</time>
      </trkpt>
      <trkpt lat="46.09643" lon="6.72468">
        <ele>1112.5</ele>
        <time>2000-01-01T01:38:13.000Z</time>
      </trkpt>
      <trkpt lat="46.09643" lon="6.72468">
        <ele>1112.5</ele>
        <time>2000-01-01T01:38:23.000Z</time>
      </trkpt>
      <trkpt lat="46.09643" lon="6.72468">
        <ele>1112.5</ele>
        <time>2000-01-01T01:38:33.000Z</time>
      </trkpt>
      <trkpt lat="46.0968" lon="6.72452">
        <ele>1112</ele>
        <time>2000-01-01T01:38:43.000Z</time>
      </trkpt>
      <trkpt lat="46.09688" lon="6.72452">
        <ele>1115.4</ele>
        <time>2000-01-01T01:38:53.000Z</time>
      </trkpt>
      <trkpt lat="46.09697" lon="6.72451">
        <ele>1115.6</ele>
        <time>2000-01-01T01:39:03.000Z</time>
      </trkpt>
      <trkpt lat="46.09699" lon="6.72451">
        <ele>1115</ele>
        <time>2000-01-01T01:39:13.000Z</time>
      </trkpt>
      <trkpt lat="46.09701" lon="6.72454">
        <ele>1116.7</ele>
        <time>2000-01-01T01:39:23.000Z</time>
      </trkpt>
      <trkpt lat="46.09702" lon="6.72459">
        <ele>1118.7</ele>
        <time>2000-01-01T01:39:33.000Z</time>
      </trkpt>
      <trkpt lat="46.09702" lon="6.72465">
        <ele>1121.3</ele>
        <time>2000-01-01T01:39:43.000Z</time>
      </trkpt>
      <trkpt lat="46.09702" lon="6.72464">
        <ele>1120.9</ele>
        <time>2000-01-01T01:39:53.000Z</time>
      </trkpt>
      <trkpt lat="46.09698" lon="6.72464">
        <ele>1121.2</ele>
        <time>2000-01-01T01:40:03.000Z</time>
      </trkpt>
      <trkpt lat="46.09695" lon="6.72466">
        <ele>1122.3</ele>
        <time>2000-01-01T01:40:13.000Z</time>
      </trkpt>
      <trkpt lat="46.09685" lon="6.7247">
        <ele>1122</ele>
        <time>2000-01-01T01:40:23.000Z</time>
      </trkpt>
      <trkpt lat="46.09673" lon="6.72479">
        <ele>1125.9</ele>
        <time>2000-01-01T01:40:33.000Z</time>
      </trkpt>
      <trkpt lat="46.09662" lon="6.72489">
        <ele>1123</ele>
        <time>2000-01-01T01:40:43.000Z</time>
      </trkpt>
      <trkpt lat="46.09653" lon="6.72498">
        <ele>1129.2</ele>
        <time>2000-01-01T01:40:53.000Z</time>
      </trkpt>
      <trkpt lat="46.09645" lon="6.72508">
        <ele>1124</ele>
        <time>2000-01-01T01:41:03.000Z</time>
      </trkpt>
      <trkpt lat="46.09634" lon="6.72526">
        <ele>1135.2</ele>
        <time>2000-01-01T01:41:13.000Z</time>
      </trkpt>
      <trkpt lat="46.09624" lon="6.7254">
        <ele>1129</ele>
        <time>2000-01-01T01:41:23.000Z</time>
      </trkpt>
      <trkpt lat="46.09617" lon="6.72548">
        <ele>1137.8</ele>
        <time>2000-01-01T01:41:33.000Z</time>
      </trkpt>
      <trkpt lat="46.09613" lon="6.72556">
        <ele>1139.8</ele>
        <time>2000-01-01T01:41:43.000Z</time>
      </trkpt>
      <trkpt lat="46.0961" lon="6.72563">
        <ele>1135</ele>
        <time>2000-01-01T01:41:53.000Z</time>
      </trkpt>
      <trkpt lat="46.09605" lon="6.72569">
        <ele>1142.1</ele>
        <time>2000-01-01T01:42:03.000Z</time>
      </trkpt>
      <trkpt lat="46.09599" lon="6.72575">
        <ele>1142.5</ele>
        <time>2000-01-01T01:42:13.000Z</time>
      </trkpt>
      <trkpt lat="46.09586" lon="6.72585">
        <ele>1137</ele>
        <time>2000-01-01T01:42:23.000Z</time>
      </trkpt>
      <trkpt lat="46.09574" lon="6.72593">
        <ele>1141.2</ele>
        <time>2000-01-01T01:42:33.000Z</time>
      </trkpt>
      <trkpt lat="46.09564" lon="6.726">
        <ele>1140</ele>
        <time>2000-01-01T01:42:43.000Z</time>
      </trkpt>
      <trkpt lat="46.0956" lon="6.72605">
        <ele>1141</ele>
        <time>2000-01-01T01:42:53.000Z</time>
      </trkpt>
      <trkpt lat="46.09558" lon="6.72609">
        <ele>1142</ele>
        <time>2000-01-01T01:43:03.000Z</time>
      </trkpt>
      <trkpt lat="46.09553" lon="6.72623">
        <ele>1142</ele>
        <time>2000-01-01T01:43:13.000Z</time>
      </trkpt>
      <trkpt lat="46.0955" lon="6.72636">
        <ele>1149.1</ele>
        <time>2000-01-01T01:43:23.000Z</time>
      </trkpt>
      <trkpt lat="46.09546" lon="6.72645">
        <ele>1151.2</ele>
        <time>2000-01-01T01:43:33.000Z</time>
      </trkpt>
      <trkpt lat="46.09537" lon="6.72661">
        <ele>1152</ele>
        <time>2000-01-01T01:43:43.000Z</time>
      </trkpt>
      <trkpt lat="46.09527" lon="6.72677">
        <ele>1157.1</ele>
        <time>2000-01-01T01:43:53.000Z</time>
      </trkpt>
      <trkpt lat="46.09518" lon="6.72693">
        <ele>1155</ele>
        <time>2000-01-01T01:44:03.000Z</time>
      </trkpt>
      <trkpt lat="46.09513" lon="6.72703">
        <ele>1160.3</ele>
        <time>2000-01-01T01:44:13.000Z</time>
      </trkpt>
      <trkpt lat="46.09509" lon="6.72715">
        <ele>1162.7</ele>
        <time>2000-01-01T01:44:23.000Z</time>
      </trkpt>
      <trkpt lat="46.09507" lon="6.72727">
        <ele>1162</ele>
        <time>2000-01-01T01:44:33.000Z</time>
      </trkpt>
      <trkpt lat="46.09505" lon="6.72737">
        <ele>1167.9</ele>
        <time>2000-01-01T01:44:43.000Z</time>
      </trkpt>
      <trkpt lat="46.09502" lon="6.72757">
        <ele>1170</ele>
        <time>2000-01-01T01:44:53.000Z</time>
      </trkpt>
      <trkpt lat="46.09498" lon="6.72783">
        <ele>1175.1</ele>
        <time>2000-01-01T01:45:03.000Z</time>
      </trkpt>
      <trkpt lat="46.09495" lon="6.72796">
        <ele>1174</ele>
        <time>2000-01-01T01:45:13.000Z</time>
      </trkpt>
      <trkpt lat="46.09495" lon="6.72807">
        <ele>1178.3</ele>
        <time>2000-01-01T01:45:23.000Z</time>
      </trkpt>
      <trkpt lat="46.09496" lon="6.72835">
        <ele>1180</ele>
        <time>2000-01-01T01:45:33.000Z</time>
      </trkpt>
      <trkpt lat="46.09496" lon="6.72845">
        <ele>1184.8</ele>
        <time>2000-01-01T01:45:43.000Z</time>
      </trkpt>
      <trkpt lat="46.09498" lon="6.72862">
        <ele>1188.2</ele>
        <time>2000-01-01T01:45:53.000Z</time>
      </trkpt>
      <trkpt lat="46.09499" lon="6.72877">
        <ele>1186</ele>
        <time>2000-01-01T01:46:03.000Z</time>
      </trkpt>
      <trkpt lat="46.095" lon="6.72882">
        <ele>1192</ele>
        <time>2000-01-01T01:46:13.000Z</time>
      </trkpt>
      <trkpt lat="46.09502" lon="6.72889">
        <ele>1193.8</ele>
        <time>2000-01-01T01:46:23.000Z</time>
      </trkpt>
      <trkpt lat="46.09503" lon="6.72899">
        <ele>1195.6</ele>
        <time>2000-01-01T01:46:33.000Z</time>
      </trkpt>
      <trkpt lat="46.09504" lon="6.72915">
        <ele>1196</ele>
        <time>2000-01-01T01:46:43.000Z</time>
      </trkpt>
      <trkpt lat="46.09504" lon="6.72926">
        <ele>1199.6</ele>
        <time>2000-01-01T01:46:53.000Z</time>
      </trkpt>
      <trkpt lat="46.09502" lon="6.72938">
        <ele>1200.1</ele>
        <time>2000-01-01T01:47:03.000Z</time>
      </trkpt>
      <trkpt lat="46.09501" lon="6.72946">
        <ele>1200</ele>
        <time>2000-01-01T01:47:13.000Z</time>
      </trkpt>
      <trkpt lat="46.095" lon="6.72959">
        <ele>1202.1</ele>
        <time>2000-01-01T01:47:23.000Z</time>
      </trkpt>
      <trkpt lat="46.095" lon="6.72984">
        <ele>1205</ele>
        <time>2000-01-01T01:47:33.000Z</time>
      </trkpt>
      <trkpt lat="46.09501" lon="6.73005">
        <ele>1209</ele>
        <time>2000-01-01T01:47:43.000Z</time>
      </trkpt>
      <trkpt lat="46.09499" lon="6.73034">
        <ele>1209</ele>
        <time>2000-01-01T01:47:53.000Z</time>
      </trkpt>
      <trkpt lat="46.09499" lon="6.73042">
        <ele>1212.1</ele>
        <time>2000-01-01T01:48:03.000Z</time>
      </trkpt>
      <trkpt lat="46.09499" lon="6.73047">
        <ele>1212.3</ele>
        <time>2000-01-01T01:48:13.000Z</time>
      </trkpt>
      <trkpt lat="46.09502" lon="6.73053">
        <ele>1213.4</ele>
        <time>2000-01-01T01:48:23.000Z</time>
      </trkpt>
      <trkpt lat="46.0951" lon="6.73072">
        <ele>1210</ele>
        <time>2000-01-01T01:48:33.000Z</time>
      </trkpt>
      <trkpt lat="46.09519" lon="6.73094">
        <ele>1213.9</ele>
        <time>2000-01-01T01:48:43.000Z</time>
      </trkpt>
      <trkpt lat="46.09524" lon="6.73113">
        <ele>1209</ele>
        <time>2000-01-01T01:48:53.000Z</time>
      </trkpt>
      <trkpt lat="46.09524" lon="6.73115">
        <ele>1211.3</ele>
        <time>2000-01-01T01:49:03.000Z</time>
      </trkpt>
      <trkpt lat="46.09528" lon="6.73126">
        <ele>1210.4</ele>
        <time>2000-01-01T01:49:13.000Z</time>
      </trkpt>
      <trkpt lat="46.09531" lon="6.73145">
        <ele>1208</ele>
        <time>2000-01-01T01:49:23.000Z</time>
      </trkpt>
      <trkpt lat="46.09534" lon="6.73166">
        <ele>1205.9</ele>
        <time>2000-01-01T01:49:33.000Z</time>
      </trkpt>
      <trkpt lat="46.09535" lon="6.7317">
        <ele>1205.6</ele>
        <time>2000-01-01T01:49:43.000Z</time>
      </trkpt>
      <trkpt lat="46.09538" lon="6.73184">
        <ele>1202</ele>
        <time>2000-01-01T01:49:53.000Z</time>
      </trkpt>
      <trkpt lat="46.09542" lon="6.73196">
        <ele>1204</ele>
        <time>2000-01-01T01:50:03.000Z</time>
      </trkpt>
      <trkpt lat="46.09545" lon="6.73203">
        <ele>1204.2</ele>
        <time>2000-01-01T01:50:13.000Z</time>
      </trkpt>
      <trkpt lat="46.09547" lon="6.73216">
        <ele>1202</ele>
        <time>2000-01-01T01:50:23.000Z</time>
      </trkpt>
      <trkpt lat="46.09548" lon="6.73226">
        <ele>1203.4</ele>
        <time>2000-01-01T01:50:33.000Z</time>
      </trkpt>
      <trkpt lat="46.0955" lon="6.73236">
        <ele>1203.6</ele>
        <time>2000-01-01T01:50:43.000Z</time>
      </trkpt>
      <trkpt lat="46.09555" lon="6.7325">
        <ele>1202</ele>
        <time>2000-01-01T01:50:53.000Z</time>
      </trkpt>
      <trkpt lat="46.09561" lon="6.7327">
        <ele>1207.3</ele>
        <time>2000-01-01T01:51:03.000Z</time>
      </trkpt>
      <trkpt lat="46.09566" lon="6.73283">
        <ele>1207</ele>
        <time>2000-01-01T01:51:13.000Z</time>
      </trkpt>
      <trkpt lat="46.09569" lon="6.73288">
        <ele>1210.8</ele>
        <time>2000-01-01T01:51:23.000Z</time>
      </trkpt>
      <trkpt lat="46.09571" lon="6.7329">
        <ele>1211.6</ele>
        <time>2000-01-01T01:51:33.000Z</time>
      </trkpt>
      <trkpt lat="46.09573" lon="6.73291">
        <ele>1212.3</ele>
        <time>2000-01-01T01:51:43.000Z</time>
      </trkpt>
      <trkpt lat="46.09579" lon="6.73288">
        <ele>1213.8</ele>
        <time>2000-01-01T01:51:53.000Z</time>
      </trkpt>
      <trkpt lat="46.09599" lon="6.73266">
        <ele>1215</ele>
        <time>2000-01-01T01:52:03.000Z</time>
      </trkpt>
      <trkpt lat="46.09615" lon="6.73254">
        <ele>1220.3</ele>
        <time>2000-01-01T01:52:13.000Z</time>
      </trkpt>
      <trkpt lat="46.09638" lon="6.73244">
        <ele>1222</ele>
        <time>2000-01-01T01:52:23.000Z</time>
      </trkpt>
      <trkpt lat="46.09657" lon="6.73236">
        <ele>1224</ele>
        <time>2000-01-01T01:52:33.000Z</time>
      </trkpt>
      <trkpt lat="46.09667" lon="6.73231">
        <ele>1227</ele>
        <time>2000-01-01T01:52:43.000Z</time>
      </trkpt>
      <trkpt lat="46.0968" lon="6.73234">
        <ele>1229</ele>
        <time>2000-01-01T01:52:53.000Z</time>
      </trkpt>
      <trkpt lat="46.09689" lon="6.73237">
        <ele>1231.6</ele>
        <time>2000-01-01T01:53:03.000Z</time>
      </trkpt>
      <trkpt lat="46.09699" lon="6.7325">
        <ele>1231</ele>
        <time>2000-01-01T01:53:13.000Z</time>
      </trkpt>
      <trkpt lat="46.09716" lon="6.73263">
        <ele>1236</ele>
        <time>2000-01-01T01:53:23.000Z</time>
      </trkpt>
      <trkpt lat="46.09734" lon="6.73272">
        <ele>1237</ele>
        <time>2000-01-01T01:53:33.000Z</time>
      </trkpt>
      <trkpt lat="46.09741" lon="6.73267">
        <ele>1242.2</ele>
        <time>2000-01-01T01:53:43.000Z</time>
      </trkpt>
      <trkpt lat="46.09748" lon="6.7326">
        <ele>1242.2</ele>
        <time>2000-01-01T01:53:53.000Z</time>
      </trkpt>
      <trkpt lat="46.09758" lon="6.73243">
        <ele>1239</ele>
        <time>2000-01-01T01:54:03.000Z</time>
      </trkpt>
      <trkpt lat="46.0977" lon="6.73235">
        <ele>1240.4</ele>
        <time>2000-01-01T01:54:13.000Z</time>
      </trkpt>
      <trkpt lat="46.09783" lon="6.73235">
        <ele>1240</ele>
        <time>2000-01-01T01:54:23.000Z</time>
      </trkpt>
      <trkpt lat="46.098" lon="6.73239">
        <ele>1242.7</ele>
        <time>2000-01-01T01:54:33.000Z</time>
      </trkpt>
      <trkpt lat="46.09814" lon="6.73235">
        <ele>1239</ele>
        <time>2000-01-01T01:54:43.000Z</time>
      </trkpt>
      <trkpt lat="46.09829" lon="6.73225">
        <ele>1241.4</ele>
        <time>2000-01-01T01:54:53.000Z</time>
      </trkpt>
      <trkpt lat="46.09837" lon="6.73216">
        <ele>1238</ele>
        <time>2000-01-01T01:55:03.000Z</time>
      </trkpt>
      <trkpt lat="46.09856" lon="6.73208">
        <ele>1236</ele>
        <time>2000-01-01T01:55:13.000Z</time>
      </trkpt>
      <trkpt lat="46.09874" lon="6.732">
        <ele>1233</ele>
        <time>2000-01-01T01:55:23.000Z</time>
      </trkpt>
      <trkpt lat="46.09892" lon="6.73196">
        <ele>1234.1</ele>
        <time>2000-01-01T01:55:33.000Z</time>
      </trkpt>
      <trkpt lat="46.09907" lon="6.73194">
        <ele>1231</ele>
        <time>2000-01-01T01:55:43.000Z</time>
      </trkpt>
      <trkpt lat="46.09922" lon="6.73194">
        <ele>1230.1</ele>
        <time>2000-01-01T01:55:53.000Z</time>
      </trkpt>
      <trkpt lat="46.09937" lon="6.73196">
        <ele>1228</ele>
        <time>2000-01-01T01:56:03.000Z</time>
      </trkpt>
      <trkpt lat="46.09951" lon="6.73199">
        <ele>1226.8</ele>
        <time>2000-01-01T01:56:13.000Z</time>
      </trkpt>
      <trkpt lat="46.09988" lon="6.73216">
        <ele>1226</ele>
        <time>2000-01-01T01:56:23.000Z</time>
      </trkpt>
      <trkpt lat="46.10009" lon="6.73249">
        <ele>1224</ele>
        <time>2000-01-01T01:56:33.000Z</time>
      </trkpt>
      <trkpt lat="46.10013" lon="6.73255">
        <ele>1223.3</ele>
        <time>2000-01-01T01:56:43.000Z</time>
      </trkpt>
      <trkpt lat="46.10015" lon="6.73261">
        <ele>1223.8</ele>
        <time>2000-01-01T01:56:53.000Z</time>
      </trkpt>
      <trkpt lat="46.10018" lon="6.73266">
        <ele>1223.9</ele>
        <time>2000-01-01T01:57:03.000Z</time>
      </trkpt>
      <trkpt lat="46.10022" lon="6.73273">
        <ele>1224</ele>
        <time>2000-01-01T01:57:13.000Z</time>
      </trkpt>
      <trkpt lat="46.10022" lon="6.73273">
        <ele>1224</ele>
        <time>2000-01-01T01:57:23.000Z</time>
      </trkpt>
      <trkpt lat="46.10027" lon="6.7328">
        <ele>1223.7</ele>
        <time>2000-01-01T01:57:33.000Z</time>
      </trkpt>
      <trkpt lat="46.1003" lon="6.73283">
        <ele>1223.4</ele>
        <time>2000-01-01T01:57:43.000Z</time>
      </trkpt>
      <trkpt lat="46.10033" lon="6.73289">
        <ele>1223.7</ele>
        <time>2000-01-01T01:57:53.000Z</time>
      </trkpt>
      <trkpt lat="46.10036" lon="6.73298">
        <ele>1225</ele>
        <time>2000-01-01T01:58:03.000Z</time>
      </trkpt>
      <trkpt lat="46.10039" lon="6.73302">
        <ele>1224.6</ele>
        <time>2000-01-01T01:58:13.000Z</time>
      </trkpt>
      <trkpt lat="46.10043" lon="6.73309">
        <ele>1224.8</ele>
        <time>2000-01-01T01:58:23.000Z</time>
      </trkpt>
      <trkpt lat="46.10046" lon="6.73313">
        <ele>1224.7</ele>
        <time>2000-01-01T01:58:33.000Z</time>
      </trkpt>
      <trkpt lat="46.1005" lon="6.73319">
        <ele>1225</ele>
        <time>2000-01-01T01:58:43.000Z</time>
      </trkpt>
      <trkpt lat="46.10055" lon="6.73324">
        <ele>1224.2</ele>
        <time>2000-01-01T01:58:53.000Z</time>
      </trkpt>
      <trkpt lat="46.10058" lon="6.7333">
        <ele>1224.4</ele>
        <time>2000-01-01T01:59:03.000Z</time>
      </trkpt>
      <trkpt lat="46.10064" lon="6.73333">
        <ele>1222.9</ele>
        <time>2000-01-01T01:59:13.000Z</time>
      </trkpt>
      <trkpt lat="46.10069" lon="6.73339">
        <ele>1225</ele>
        <time>2000-01-01T01:59:23.000Z</time>
      </trkpt>
      <trkpt lat="46.10072" lon="6.73343">
        <ele>1221.8</ele>
        <time>2000-01-01T01:59:33.000Z</time>
      </trkpt>
      <trkpt lat="46.10074" lon="6.73348">
        <ele>1222</ele>
        <time>2000-01-01T01:59:43.000Z</time>
      </trkpt>
      <trkpt lat="46.10077" lon="6.73358">
        <ele>1222.7</ele>
        <time>2000-01-01T01:59:53.000Z</time>
      </trkpt>
      <trkpt lat="46.10079" lon="6.73364">
        <ele>1225</ele>
        <time>2000-01-01T02:00:03.000Z</time>
      </trkpt>
      <trkpt lat="46.10082" lon="6.73373">
        <ele>1223.2</ele>
        <time>2000-01-01T02:00:13.000Z</time>
      </trkpt>
      <trkpt lat="46.10085" lon="6.73379">
        <ele>1222.9</ele>
        <time>2000-01-01T02:00:23.000Z</time>
      </trkpt>
      <trkpt lat="46.10086" lon="6.73386">
        <ele>1223.4</ele>
        <time>2000-01-01T02:00:33.000Z</time>
      </trkpt>
      <trkpt lat="46.10089" lon="6.73395">
        <ele>1226</ele>
        <time>2000-01-01T02:00:43.000Z</time>
      </trkpt>
      <trkpt lat="46.1009" lon="6.73401">
        <ele>1224.2</ele>
        <time>2000-01-01T02:00:53.000Z</time>
      </trkpt>
      <trkpt lat="46.10093" lon="6.73406">
        <ele>1223.7</ele>
        <time>2000-01-01T02:01:03.000Z</time>
      </trkpt>
      <trkpt lat="46.10097" lon="6.73419">
        <ele>1223.9</ele>
        <time>2000-01-01T02:01:13.000Z</time>
      </trkpt>
      <trkpt lat="46.10099" lon="6.73425">
        <ele>1226</ele>
        <time>2000-01-01T02:01:23.000Z</time>
      </trkpt>
      <trkpt lat="46.10102" lon="6.73438">
        <ele>1223.8</ele>
        <time>2000-01-01T02:01:33.000Z</time>
      </trkpt>
      <trkpt lat="46.10105" lon="6.73444">
        <ele>1223</ele>
        <time>2000-01-01T02:01:43.000Z</time>
      </trkpt>
      <trkpt lat="46.10106" lon="6.7345">
        <ele>1223.4</ele>
        <time>2000-01-01T02:01:53.000Z</time>
      </trkpt>
      <trkpt lat="46.10108" lon="6.73461">
        <ele>1226</ele>
        <time>2000-01-01T02:02:03.000Z</time>
      </trkpt>
      <trkpt lat="46.1011" lon="6.73469">
        <ele>1224.1</ele>
        <time>2000-01-01T02:02:13.000Z</time>
      </trkpt>
      <trkpt lat="46.10114" lon="6.73479">
        <ele>1223.1</ele>
        <time>2000-01-01T02:02:23.000Z</time>
      </trkpt>
      <trkpt lat="46.10116" lon="6.73486">
        <ele>1224</ele>
        <time>2000-01-01T02:02:33.000Z</time>
      </trkpt>
      <trkpt lat="46.10119" lon="6.73493">
        <ele>1221.7</ele>
        <time>2000-01-01T02:02:43.000Z</time>
      </trkpt>
      <trkpt lat="46.10121" lon="6.73501">
        <ele>1221.4</ele>
        <time>2000-01-01T02:02:53.000Z</time>
      </trkpt>
      <trkpt lat="46.10126" lon="6.73511">
        <ele>1222</ele>
        <time>2000-01-01T02:03:03.000Z</time>
      </trkpt>
      <trkpt lat="46.10126" lon="6.73512">
        <ele>1219.9</ele>
        <time>2000-01-01T02:03:13.000Z</time>
      </trkpt>
      <trkpt lat="46.10128" lon="6.73524">
        <ele>1219.8</ele>
        <time>2000-01-01T02:03:23.000Z</time>
      </trkpt>
      <trkpt lat="46.10135" lon="6.7354">
        <ele>1217</ele>
        <time>2000-01-01T02:03:33.000Z</time>
      </trkpt>
      <trkpt lat="46.10139" lon="6.73547">
        <ele>1216.3</ele>
        <time>2000-01-01T02:03:43.000Z</time>
      </trkpt>
      <trkpt lat="46.10143" lon="6.7355">
        <ele>1215.3</ele>
        <time>2000-01-01T02:03:53.000Z</time>
      </trkpt>
      <trkpt lat="46.10148" lon="6.73552">
        <ele>1213.8</ele>
        <time>2000-01-01T02:04:03.000Z</time>
      </trkpt>
      <trkpt lat="46.10153" lon="6.73553">
        <ele>1212</ele>
        <time>2000-01-01T02:04:13.000Z</time>
      </trkpt>
      <trkpt lat="46.10156" lon="6.7355">
        <ele>1211.1</ele>
        <time>2000-01-01T02:04:23.000Z</time>
      </trkpt>
      <trkpt lat="46.10165" lon="6.73541">
        <ele>1207.5</ele>
        <time>2000-01-01T02:04:33.000Z</time>
      </trkpt>
      <trkpt lat="46.10178" lon="6.73515">
        <ele>1203</ele>
        <time>2000-01-01T02:04:43.000Z</time>
      </trkpt>
      <trkpt lat="46.10183" lon="6.73493">
        <ele>1198.3</ele>
        <time>2000-01-01T02:04:53.000Z</time>
      </trkpt>
      <trkpt lat="46.10188" lon="6.73477">
        <ele>1195</ele>
        <time>2000-01-01T02:05:03.000Z</time>
      </trkpt>
      <trkpt lat="46.10199" lon="6.7344">
        <ele>1187</ele>
        <time>2000-01-01T02:05:13.000Z</time>
      </trkpt>
      <trkpt lat="46.10208" lon="6.73413">
        <ele>1181</ele>
        <time>2000-01-01T02:05:23.000Z</time>
      </trkpt>
      <trkpt lat="46.10216" lon="6.7339">
        <ele>1177.3</ele>
        <time>2000-01-01T02:05:33.000Z</time>
      </trkpt>
      <trkpt lat="46.1022" lon="6.73377">
        <ele>1172</ele>
        <time>2000-01-01T02:05:43.000Z</time>
      </trkpt>
      <trkpt lat="46.10222" lon="6.73363">
        <ele>1171.4</ele>
        <time>2000-01-01T02:05:53.000Z</time>
      </trkpt>
      <trkpt lat="46.10223" lon="6.73349">
        <ele>1169</ele>
        <time>2000-01-01T02:06:03.000Z</time>
      </trkpt>
      <trkpt lat="46.10223" lon="6.73338">
        <ele>1168.7</ele>
        <time>2000-01-01T02:06:13.000Z</time>
      </trkpt>
      <trkpt lat="46.10222" lon="6.73324">
        <ele>1166.3</ele>
        <time>2000-01-01T02:06:23.000Z</time>
      </trkpt>
      <trkpt lat="46.10218" lon="6.73301">
        <ele>1162</ele>
        <time>2000-01-01T02:06:33.000Z</time>
      </trkpt>
      <trkpt lat="46.10214" lon="6.73279">
        <ele>1159.5</ele>
        <time>2000-01-01T02:06:43.000Z</time>
      </trkpt>
      <trkpt lat="46.10211" lon="6.7326">
        <ele>1155</ele>
        <time>2000-01-01T02:06:53.000Z</time>
      </trkpt>
      <trkpt lat="46.10208" lon="6.73235">
        <ele>1154.7</ele>
        <time>2000-01-01T02:07:03.000Z</time>
      </trkpt>
      <trkpt lat="46.10208" lon="6.73222">
        <ele>1153</ele>
        <time>2000-01-01T02:07:13.000Z</time>
      </trkpt>
      <trkpt lat="46.10205" lon="6.73204">
        <ele>1152.2</ele>
        <time>2000-01-01T02:07:23.000Z</time>
      </trkpt>
      <trkpt lat="46.10203" lon="6.73192">
        <ele>1150</ele>
        <time>2000-01-01T02:07:33.000Z</time>
      </trkpt>
      <trkpt lat="46.10201" lon="6.73183">
        <ele>1150.6</ele>
        <time>2000-01-01T02:07:43.000Z</time>
      </trkpt>
      <trkpt lat="46.10197" lon="6.73174">
        <ele>1149.8</ele>
        <time>2000-01-01T02:07:53.000Z</time>
      </trkpt>
      <trkpt lat="46.1019" lon="6.73152">
        <ele>1147</ele>
        <time>2000-01-01T02:08:03.000Z</time>
      </trkpt>
      <trkpt lat="46.10182" lon="6.73127">
        <ele>1144</ele>
        <time>2000-01-01T02:08:13.000Z</time>
      </trkpt>
      <trkpt lat="46.10171" lon="6.73096">
        <ele>1143</ele>
        <time>2000-01-01T02:08:23.000Z</time>
      </trkpt>
      <trkpt lat="46.10164" lon="6.73076">
        <ele>1143.4</ele>
        <time>2000-01-01T02:08:33.000Z</time>
      </trkpt>
      <trkpt lat="46.10157" lon="6.73053">
        <ele>1143</ele>
        <time>2000-01-01T02:08:43.000Z</time>
      </trkpt>
      <trkpt lat="46.10153" lon="6.73044">
        <ele>1144.2</ele>
        <time>2000-01-01T02:08:53.000Z</time>
      </trkpt>
      <trkpt lat="46.10147" lon="6.73038">
        <ele>1143.7</ele>
        <time>2000-01-01T02:09:03.000Z</time>
      </trkpt>
      <trkpt lat="46.10142" lon="6.73028">
        <ele>1143</ele>
        <time>2000-01-01T02:09:13.000Z</time>
      </trkpt>
      <trkpt lat="46.10139" lon="6.7302">
        <ele>1143.6</ele>
        <time>2000-01-01T02:09:23.000Z</time>
      </trkpt>
      <trkpt lat="46.10136" lon="6.73013">
        <ele>1143.8</ele>
        <time>2000-01-01T02:09:33.000Z</time>
      </trkpt>
      <trkpt lat="46.10136" lon="6.73006">
        <ele>1144.3</ele>
        <time>2000-01-01T02:09:43.000Z</time>
      </trkpt>
      <trkpt lat="46.1014" lon="6.73005">
        <ele>1144</ele>
        <time>2000-01-01T02:09:53.000Z</time>
      </trkpt>
      <trkpt lat="46.10146" lon="6.73003">
        <ele>1146</ele>
        <time>2000-01-01T02:10:03.000Z</time>
      </trkpt>
      <trkpt lat="46.10154" lon="6.72997">
        <ele>1147.9</ele>
        <time>2000-01-01T02:10:13.000Z</time>
      </trkpt>
      <trkpt lat="46.10162" lon="6.72991">
        <ele>1149</ele>
        <time>2000-01-01T02:10:23.000Z</time>
      </trkpt>
      <trkpt lat="46.10169" lon="6.72989">
        <ele>1150.7</ele>
        <time>2000-01-01T02:10:33.000Z</time>
      </trkpt>
      <trkpt lat="46.10175" lon="6.7299">
        <ele>1151.6</ele>
        <time>2000-01-01T02:10:43.000Z</time>
      </trkpt>
      <trkpt lat="46.1018" lon="6.72992">
        <ele>1152.2</ele>
        <time>2000-01-01T02:10:53.000Z</time>
      </trkpt>
      <trkpt lat="46.10184" lon="6.72996">
        <ele>1151</ele>
        <time>2000-01-01T02:11:03.000Z</time>
      </trkpt>
      <trkpt lat="46.10189" lon="6.73002">
        <ele>1153.1</ele>
        <time>2000-01-01T02:11:13.000Z</time>
      </trkpt>
      <trkpt lat="46.10192" lon="6.73009">
        <ele>1153.3</ele>
        <time>2000-01-01T02:11:23.000Z</time>
      </trkpt>
      <trkpt lat="46.10199" lon="6.73028">
        <ele>1152</ele>
        <time>2000-01-01T02:11:33.000Z</time>
      </trkpt>
      <trkpt lat="46.10205" lon="6.73043">
        <ele>1153.3</ele>
        <time>2000-01-01T02:11:43.000Z</time>
      </trkpt>
      <trkpt lat="46.10212" lon="6.73053">
        <ele>1153</ele>
        <time>2000-01-01T02:11:53.000Z</time>
      </trkpt>
      <trkpt lat="46.10218" lon="6.7306">
        <ele>1154.8</ele>
        <time>2000-01-01T02:12:03.000Z</time>
      </trkpt>
      <trkpt lat="46.10225" lon="6.73064">
        <ele>1155.9</ele>
        <time>2000-01-01T02:12:13.000Z</time>
      </trkpt>
      <trkpt lat="46.10231" lon="6.73066">
        <ele>1156</ele>
        <time>2000-01-01T02:12:23.000Z</time>
      </trkpt>
      <trkpt lat="46.10242" lon="6.73069">
        <ele>1158.6</ele>
        <time>2000-01-01T02:12:33.000Z</time>
      </trkpt>
      <trkpt lat="46.10251" lon="6.7307">
        <ele>1160</ele>
        <time>2000-01-01T02:12:43.000Z</time>
      </trkpt>
      <trkpt lat="46.10257" lon="6.73072">
        <ele>1161.2</ele>
        <time>2000-01-01T02:12:53.000Z</time>
      </trkpt>
      <trkpt lat="46.10258" lon="6.73073">
        <ele>1161.4</ele>
        <time>2000-01-01T02:13:03.000Z</time>
      </trkpt>
      <trkpt lat="46.10263" lon="6.73068">
        <ele>1162.7</ele>
        <time>2000-01-01T02:13:13.000Z</time>
      </trkpt>
      <trkpt lat="46.10269" lon="6.73061">
        <ele>1162</ele>
        <time>2000-01-01T02:13:23.000Z</time>
      </trkpt>
      <trkpt lat="46.10274" lon="6.73053">
        <ele>1165.5</ele>
        <time>2000-01-01T02:13:33.000Z</time>
      </trkpt>
      <trkpt lat="46.10276" lon="6.73049">
        <ele>1166.1</ele>
        <time>2000-01-01T02:13:43.000Z</time>
      </trkpt>
      <trkpt lat="46.10276" lon="6.73046">
        <ele>1166.3</ele>
        <time>2000-01-01T02:13:53.000Z</time>
      </trkpt>
      <trkpt lat="46.10276" lon="6.73036">
        <ele>1163</ele>
        <time>2000-01-01T02:14:03.000Z</time>
      </trkpt>
      <trkpt lat="46.10275" lon="6.73018">
        <ele>1167.8</ele>
        <time>2000-01-01T02:14:13.000Z</time>
      </trkpt>
      <trkpt lat="46.10265" lon="6.72989">
        <ele>1163</ele>
        <time>2000-01-01T02:14:23.000Z</time>
      </trkpt>
      <trkpt lat="46.10251" lon="6.72953">
        <ele>1163</ele>
        <time>2000-01-01T02:14:33.000Z</time>
      </trkpt>
      <trkpt lat="46.10236" lon="6.72912">
        <ele>1162</ele>
        <time>2000-01-01T02:14:43.000Z</time>
      </trkpt>
      <trkpt lat="46.1023" lon="6.72883">
        <ele>1162</ele>
        <time>2000-01-01T02:14:53.000Z</time>
      </trkpt>
      <trkpt lat="46.10217" lon="6.72837">
        <ele>1164</ele>
        <time>2000-01-01T02:15:03.000Z</time>
      </trkpt>
      <trkpt lat="46.1021" lon="6.72803">
        <ele>1167</ele>
        <time>2000-01-01T02:15:13.000Z</time>
      </trkpt>
      <trkpt lat="46.10203" lon="6.72768">
        <ele>1169</ele>
        <time>2000-01-01T02:15:23.000Z</time>
      </trkpt>
      <trkpt lat="46.10202" lon="6.72753">
        <ele>1170.9</ele>
        <time>2000-01-01T02:15:33.000Z</time>
      </trkpt>
      <trkpt lat="46.10199" lon="6.72737">
        <ele>1169</ele>
        <time>2000-01-01T02:15:43.000Z</time>
      </trkpt>
      <trkpt lat="46.10195" lon="6.72727">
        <ele>1171.7</ele>
        <time>2000-01-01T02:15:53.000Z</time>
      </trkpt>
      <trkpt lat="46.10191" lon="6.72718">
        <ele>1171.6</ele>
        <time>2000-01-01T02:16:03.000Z</time>
      </trkpt>
      <trkpt lat="46.10187" lon="6.72712">
        <ele>1169</ele>
        <time>2000-01-01T02:16:13.000Z</time>
      </trkpt>
      <trkpt lat="46.10186" lon="6.7271">
        <ele>1171.2</ele>
        <time>2000-01-01T02:16:23.000Z</time>
      </trkpt>
      <trkpt lat="46.10178" lon="6.72698">
        <ele>1170.2</ele>
        <time>2000-01-01T02:16:33.000Z</time>
      </trkpt>
      <trkpt lat="46.10172" lon="6.72689">
        <ele>1166</ele>
        <time>2000-01-01T02:16:43.000Z</time>
      </trkpt>
      <trkpt lat="46.10162" lon="6.72678">
        <ele>1168.3</ele>
        <time>2000-01-01T02:16:53.000Z</time>
      </trkpt>
      <trkpt lat="46.10157" lon="6.7267">
        <ele>1166</ele>
        <time>2000-01-01T02:17:03.000Z</time>
      </trkpt>
      <trkpt lat="46.10154" lon="6.72664">
        <ele>1167.8</ele>
        <time>2000-01-01T02:17:13.000Z</time>
      </trkpt>
      <trkpt lat="46.10148" lon="6.72646">
        <ele>1166</ele>
        <time>2000-01-01T02:17:23.000Z</time>
      </trkpt>
      <trkpt lat="46.10138" lon="6.72612">
        <ele>1167</ele>
        <time>2000-01-01T02:17:33.000Z</time>
      </trkpt>
      <trkpt lat="46.10126" lon="6.72566">
        <ele>1169</ele>
        <time>2000-01-01T02:17:43.000Z</time>
      </trkpt>
      <trkpt lat="46.10119" lon="6.72541">
        <ele>1171.1</ele>
        <time>2000-01-01T02:17:53.000Z</time>
      </trkpt>
      <trkpt lat="46.10117" lon="6.72528">
        <ele>1170</ele>
        <time>2000-01-01T02:18:03.000Z</time>
      </trkpt>
      <trkpt lat="46.10112" lon="6.72505">
        <ele>1171.9</ele>
        <time>2000-01-01T02:18:13.000Z</time>
      </trkpt>
      <trkpt lat="46.10108" lon="6.72474">
        <ele>1171</ele>
        <time>2000-01-01T02:18:23.000Z</time>
      </trkpt>
      <trkpt lat="46.10108" lon="6.72468">
        <ele>1173.1</ele>
        <time>2000-01-01T02:18:33.000Z</time>
      </trkpt>
      <trkpt lat="46.10109" lon="6.72464">
        <ele>1173.4</ele>
        <time>2000-01-01T02:18:43.000Z</time>
      </trkpt>
      <trkpt lat="46.10111" lon="6.72461">
        <ele>1174</ele>
        <time>2000-01-01T02:18:53.000Z</time>
      </trkpt>
      <trkpt lat="46.10115" lon="6.72457">
        <ele>1174.8</ele>
        <time>2000-01-01T02:19:03.000Z</time>
      </trkpt>
      <trkpt lat="46.10118" lon="6.72453">
        <ele>1173</ele>
        <time>2000-01-01T02:19:13.000Z</time>
      </trkpt>
      <trkpt lat="46.1012" lon="6.72449">
        <ele>1175.9</ele>
        <time>2000-01-01T02:19:23.000Z</time>
      </trkpt>
      <trkpt lat="46.10121" lon="6.72443">
        <ele>1176.1</ele>
        <time>2000-01-01T02:19:33.000Z</time>
      </trkpt>
      <trkpt lat="46.10124" lon="6.7244">
        <ele>1176.6</ele>
        <time>2000-01-01T02:19:43.000Z</time>
      </trkpt>
      <trkpt lat="46.10128" lon="6.7245">
        <ele>1175</ele>
        <time>2000-01-01T02:19:53.000Z</time>
      </trkpt>
      <trkpt lat="46.10142" lon="6.7248">
        <ele>1179</ele>
        <time>2000-01-01T02:20:03.000Z</time>
      </trkpt>
      <trkpt lat="46.10153" lon="6.72505">
        <ele>1181</ele>
        <time>2000-01-01T02:20:13.000Z</time>
      </trkpt>
      <trkpt lat="46.10156" lon="6.7251">
        <ele>1182.6</ele>
        <time>2000-01-01T02:20:23.000Z</time>
      </trkpt>
      <trkpt lat="46.10159" lon="6.72513">
        <ele>1183.2</ele>
        <time>2000-01-01T02:20:33.000Z</time>
      </trkpt>
      <trkpt lat="46.10161" lon="6.72514">
        <ele>1183.7</ele>
        <time>2000-01-01T02:20:43.000Z</time>
      </trkpt>
      <trkpt lat="46.10164" lon="6.72513">
        <ele>1184.4</ele>
        <time>2000-01-01T02:20:53.000Z</time>
      </trkpt>
      <trkpt lat="46.10167" lon="6.7251">
        <ele>1185.1</ele>
        <time>2000-01-01T02:21:03.000Z</time>
      </trkpt>
      <trkpt lat="46.10169" lon="6.72506">
        <ele>1184</ele>
        <time>2000-01-01T02:21:13.000Z</time>
      </trkpt>
      <trkpt lat="46.1017" lon="6.72502">
        <ele>1186</ele>
        <time>2000-01-01T02:21:23.000Z</time>
      </trkpt>
      <trkpt lat="46.1017" lon="6.72493">
        <ele>1186.2</ele>
        <time>2000-01-01T02:21:33.000Z</time>
      </trkpt>
      <trkpt lat="46.10169" lon="6.72483">
        <ele>1186.2</ele>
        <time>2000-01-01T02:21:43.000Z</time>
      </trkpt>
      <trkpt lat="46.1017" lon="6.72476">
        <ele>1184</ele>
        <time>2000-01-01T02:21:53.000Z</time>
      </trkpt>
      <trkpt lat="46.10171" lon="6.7247">
        <ele>1187.1</ele>
        <time>2000-01-01T02:22:03.000Z</time>
      </trkpt>
      <trkpt lat="46.10173" lon="6.72464">
        <ele>1187.6</ele>
        <time>2000-01-01T02:22:13.000Z</time>
      </trkpt>
      <trkpt lat="46.10176" lon="6.72456">
        <ele>1188.4</ele>
        <time>2000-01-01T02:22:23.000Z</time>
      </trkpt>
      <trkpt lat="46.10182" lon="6.72444">
        <ele>1188</ele>
        <time>2000-01-01T02:22:33.000Z</time>
      </trkpt>
      <trkpt lat="46.10188" lon="6.72432">
        <ele>1190.6</ele>
        <time>2000-01-01T02:22:43.000Z</time>
      </trkpt>
      <trkpt lat="46.10197" lon="6.72417">
        <ele>1190</ele>
        <time>2000-01-01T02:22:53.000Z</time>
      </trkpt>
      <trkpt lat="46.10202" lon="6.72415">
        <ele>1192.6</ele>
        <time>2000-01-01T02:23:03.000Z</time>
      </trkpt>
      <trkpt lat="46.10214" lon="6.72409">
        <ele>1194.9</ele>
        <time>2000-01-01T02:23:13.000Z</time>
      </trkpt>
      <trkpt lat="46.10222" lon="6.72404">
        <ele>1195</ele>
        <time>2000-01-01T02:23:23.000Z</time>
      </trkpt>
      <trkpt lat="46.10227" lon="6.724">
        <ele>1197.9</ele>
        <time>2000-01-01T02:23:33.000Z</time>
      </trkpt>
      <trkpt lat="46.1023" lon="6.72395">
        <ele>1198.7</ele>
        <time>2000-01-01T02:23:43.000Z</time>
      </trkpt>
      <trkpt lat="46.10235" lon="6.72387">
        <ele>1200.1</ele>
        <time>2000-01-01T02:23:53.000Z</time>
      </trkpt>
      <trkpt lat="46.10243" lon="6.72363">
        <ele>1200</ele>
        <time>2000-01-01T02:24:03.000Z</time>
      </trkpt>
      <trkpt lat="46.10254" lon="6.72336">
        <ele>1200</ele>
        <time>2000-01-01T02:24:13.000Z</time>
      </trkpt>
      <trkpt lat="46.10262" lon="6.72313">
        <ele>1203.3</ele>
        <time>2000-01-01T02:24:23.000Z</time>
      </trkpt>
      <trkpt lat="46.10268" lon="6.72299">
        <ele>1200</ele>
        <time>2000-01-01T02:24:33.000Z</time>
      </trkpt>
      <trkpt lat="46.10274" lon="6.72287">
        <ele>1204.6</ele>
        <time>2000-01-01T02:24:43.000Z</time>
      </trkpt>
      <trkpt lat="46.10283" lon="6.7227">
        <ele>1205</ele>
        <time>2000-01-01T02:24:53.000Z</time>
      </trkpt>
      <trkpt lat="46.10287" lon="6.72266">
        <ele>1206.4</ele>
        <time>2000-01-01T02:25:03.000Z</time>
      </trkpt>
      <trkpt lat="46.1029" lon="6.72265">
        <ele>1207.1</ele>
        <time>2000-01-01T02:25:13.000Z</time>
      </trkpt>
      <trkpt lat="46.10294" lon="6.72265">
        <ele>1208.3</ele>
        <time>2000-01-01T02:25:23.000Z</time>
      </trkpt>
      <trkpt lat="46.10297" lon="6.72267">
        <ele>1209.4</ele>
        <time>2000-01-01T02:25:33.000Z</time>
      </trkpt>
      <trkpt lat="46.10298" lon="6.7227">
        <ele>1210</ele>
        <time>2000-01-01T02:25:43.000Z</time>
      </trkpt>
      <trkpt lat="46.10299" lon="6.72275">
        <ele>1207</ele>
        <time>2000-01-01T02:25:53.000Z</time>
      </trkpt>
      <trkpt lat="46.10299" lon="6.72279">
        <ele>1211.2</ele>
        <time>2000-01-01T02:26:03.000Z</time>
      </trkpt>
      <trkpt lat="46.10298" lon="6.72283">
        <ele>1211.2</ele>
        <time>2000-01-01T02:26:13.000Z</time>
      </trkpt>
      <trkpt lat="46.10294" lon="6.72291">
        <ele>1210.6</ele>
        <time>2000-01-01T02:26:23.000Z</time>
      </trkpt>
      <trkpt lat="46.10289" lon="6.72307">
        <ele>1208</ele>
        <time>2000-01-01T02:26:33.000Z</time>
      </trkpt>
      <trkpt lat="46.10287" lon="6.72315">
        <ele>1210.7</ele>
        <time>2000-01-01T02:26:43.000Z</time>
      </trkpt>
      <trkpt lat="46.10285" lon="6.72326">
        <ele>1211.3</ele>
        <time>2000-01-01T02:26:53.000Z</time>
      </trkpt>
      <trkpt lat="46.10285" lon="6.72334">
        <ele>1211</ele>
        <time>2000-01-01T02:27:03.000Z</time>
      </trkpt>
      <trkpt lat="46.10283" lon="6.7235">
        <ele>1213.4</ele>
        <time>2000-01-01T02:27:13.000Z</time>
      </trkpt>
      <trkpt lat="46.10284" lon="6.72364">
        <ele>1214</ele>
        <time>2000-01-01T02:27:23.000Z</time>
      </trkpt>
      <trkpt lat="46.10284" lon="6.72378">
        <ele>1217</ele>
        <time>2000-01-01T02:27:33.000Z</time>
      </trkpt>
      <trkpt lat="46.10286" lon="6.72393">
        <ele>1217</ele>
        <time>2000-01-01T02:27:43.000Z</time>
      </trkpt>
      <trkpt lat="46.10288" lon="6.72414">
        <ele>1220.9</ele>
        <time>2000-01-01T02:27:53.000Z</time>
      </trkpt>
      <trkpt lat="46.10289" lon="6.72421">
        <ele>1218</ele>
        <time>2000-01-01T02:28:03.000Z</time>
      </trkpt>
      <trkpt lat="46.10293" lon="6.7244">
        <ele>1223.5</ele>
        <time>2000-01-01T02:28:13.000Z</time>
      </trkpt>
      <trkpt lat="46.10298" lon="6.72461">
        <ele>1222</ele>
        <time>2000-01-01T02:28:23.000Z</time>
      </trkpt>
      <trkpt lat="46.10306" lon="6.72491">
        <ele>1226</ele>
        <time>2000-01-01T02:28:33.000Z</time>
      </trkpt>
      <trkpt lat="46.10312" lon="6.72508">
        <ele>1231.8</ele>
        <time>2000-01-01T02:28:43.000Z</time>
      </trkpt>
      <trkpt lat="46.10314" lon="6.72519">
        <ele>1231</ele>
        <time>2000-01-01T02:28:53.000Z</time>
      </trkpt>
      <trkpt lat="46.10315" lon="6.72528">
        <ele>1231.7</ele>
        <time>2000-01-01T02:29:03.000Z</time>
      </trkpt>
      <trkpt lat="46.10315" lon="6.72532">
        <ele>1231.6</ele>
        <time>2000-01-01T02:29:13.000Z</time>
      </trkpt>
      <trkpt lat="46.10317" lon="6.72536">
        <ele>1232.4</ele>
        <time>2000-01-01T02:29:23.000Z</time>
      </trkpt>
      <trkpt lat="46.10319" lon="6.72538">
        <ele>1233.2</ele>
        <time>2000-01-01T02:29:33.000Z</time>
      </trkpt>
      <trkpt lat="46.10321" lon="6.72539">
        <ele>1234.2</ele>
        <time>2000-01-01T02:29:43.000Z</time>
      </trkpt>
      <trkpt lat="46.10324" lon="6.72538">
        <ele>1234</ele>
        <time>2000-01-01T02:29:53.000Z</time>
      </trkpt>
      <trkpt lat="46.10326" lon="6.72537">
        <ele>1236.7</ele>
        <time>2000-01-01T02:30:03.000Z</time>
      </trkpt>
      <trkpt lat="46.10327" lon="6.72535">
        <ele>1237.3</ele>
        <time>2000-01-01T02:30:13.000Z</time>
      </trkpt>
      <trkpt lat="46.10328" lon="6.72533">
        <ele>1238</ele>
        <time>2000-01-01T02:30:23.000Z</time>
      </trkpt>
      <trkpt lat="46.10329" lon="6.72529">
        <ele>1238.7</ele>
        <time>2000-01-01T02:30:33.000Z</time>
      </trkpt>
      <trkpt lat="46.10326" lon="6.72513">
        <ele>1236</ele>
        <time>2000-01-01T02:30:43.000Z</time>
      </trkpt>
      <trkpt lat="46.10324" lon="6.725">
        <ele>1239</ele>
        <time>2000-01-01T02:30:53.000Z</time>
      </trkpt>
      <trkpt lat="46.10323" lon="6.72492">
        <ele>1238.3</ele>
        <time>2000-01-01T02:31:03.000Z</time>
      </trkpt>
      <trkpt lat="46.10324" lon="6.72485">
        <ele>1237</ele>
        <time>2000-01-01T02:31:13.000Z</time>
      </trkpt>
      <trkpt lat="46.10325" lon="6.72479">
        <ele>1239.2</ele>
        <time>2000-01-01T02:31:23.000Z</time>
      </trkpt>
      <trkpt lat="46.10327" lon="6.72473">
        <ele>1240.1</ele>
        <time>2000-01-01T02:31:33.000Z</time>
      </trkpt>
      <trkpt lat="46.1033" lon="6.72468">
        <ele>1240.9</ele>
        <time>2000-01-01T02:31:43.000Z</time>
      </trkpt>
      <trkpt lat="46.10334" lon="6.72462">
        <ele>1239</ele>
        <time>2000-01-01T02:31:53.000Z</time>
      </trkpt>
      <trkpt lat="46.10341" lon="6.72453">
        <ele>1243</ele>
        <time>2000-01-01T02:32:03.000Z</time>
      </trkpt>
      <trkpt lat="46.1035" lon="6.72443">
        <ele>1241</ele>
        <time>2000-01-01T02:32:13.000Z</time>
      </trkpt>
      <trkpt lat="46.10361" lon="6.7243">
        <ele>1246.9</ele>
        <time>2000-01-01T02:32:23.000Z</time>
      </trkpt>
      <trkpt lat="46.10368" lon="6.72419">
        <ele>1242</ele>
        <time>2000-01-01T02:32:33.000Z</time>
      </trkpt>
      <trkpt lat="46.10378" lon="6.72399">
        <ele>1248.6</ele>
        <time>2000-01-01T02:32:43.000Z</time>
      </trkpt>
      <trkpt lat="46.10381" lon="6.72391">
        <ele>1244</ele>
        <time>2000-01-01T02:32:53.000Z</time>
      </trkpt>
      <trkpt lat="46.10388" lon="6.7237">
        <ele>1248.7</ele>
        <time>2000-01-01T02:33:03.000Z</time>
      </trkpt>
      <trkpt lat="46.10392" lon="6.72358">
        <ele>1246</ele>
        <time>2000-01-01T02:33:13.000Z</time>
      </trkpt>
      <trkpt lat="46.10395" lon="6.72354">
        <ele>1249.2</ele>
        <time>2000-01-01T02:33:23.000Z</time>
      </trkpt>
      <trkpt lat="46.10397" lon="6.72353">
        <ele>1249.8</ele>
        <time>2000-01-01T02:33:33.000Z</time>
      </trkpt>
      <trkpt lat="46.10397" lon="6.72353">
        <ele>1249.8</ele>
        <time>2000-01-01T02:33:43.000Z</time>
      </trkpt>
      <trkpt lat="46.10397" lon="6.72353">
        <ele>1249.8</ele>
        <time>2000-01-01T02:33:53.000Z</time>
      </trkpt>
      <trkpt lat="46.104" lon="6.72352">
        <ele>1250.8</ele>
        <time>2000-01-01T02:34:03.000Z</time>
      </trkpt>
      <trkpt lat="46.10402" lon="6.72353">
        <ele>1251.7</ele>
        <time>2000-01-01T02:34:13.000Z</time>
      </trkpt>
      <trkpt lat="46.10405" lon="6.72355">
        <ele>1253</ele>
        <time>2000-01-01T02:34:23.000Z</time>
      </trkpt>
      <trkpt lat="46.10407" lon="6.72358">
        <ele>1254.1</ele>
        <time>2000-01-01T02:34:33.000Z</time>
      </trkpt>
      <trkpt lat="46.10408" lon="6.72362">
        <ele>1252</ele>
        <time>2000-01-01T02:34:43.000Z</time>
      </trkpt>
      <trkpt lat="46.10409" lon="6.72367">
        <ele>1255.7</ele>
        <time>2000-01-01T02:34:53.000Z</time>
      </trkpt>
      <trkpt lat="46.10409" lon="6.72372">
        <ele>1256.1</ele>
        <time>2000-01-01T02:35:03.000Z</time>
      </trkpt>
      <trkpt lat="46.10409" lon="6.72375">
        <ele>1256.4</ele>
        <time>2000-01-01T02:35:13.000Z</time>
      </trkpt>
      <trkpt lat="46.10408" lon="6.72381">
        <ele>1256.5</ele>
        <time>2000-01-01T02:35:23.000Z</time>
      </trkpt>
      <trkpt lat="46.10402" lon="6.72404">
        <ele>1256</ele>
        <time>2000-01-01T02:35:33.000Z</time>
      </trkpt>
      <trkpt lat="46.10401" lon="6.72417">
        <ele>1257.5</ele>
        <time>2000-01-01T02:35:43.000Z</time>
      </trkpt>
      <trkpt lat="46.104" lon="6.72431">
        <ele>1258.5</ele>
        <time>2000-01-01T02:35:53.000Z</time>
      </trkpt>
      <trkpt lat="46.10398" lon="6.72454">
        <ele>1257</ele>
        <time>2000-01-01T02:36:03.000Z</time>
      </trkpt>
      <trkpt lat="46.10398" lon="6.72466">
        <ele>1261.4</ele>
        <time>2000-01-01T02:36:13.000Z</time>
      </trkpt>
      <trkpt lat="46.10398" lon="6.72472">
        <ele>1261.9</ele>
        <time>2000-01-01T02:36:23.000Z</time>
      </trkpt>
      <trkpt lat="46.10401" lon="6.72481">
        <ele>1263</ele>
        <time>2000-01-01T02:36:33.000Z</time>
      </trkpt>
      <trkpt lat="46.10404" lon="6.72487">
        <ele>1263.5</ele>
        <time>2000-01-01T02:36:43.000Z</time>
      </trkpt>
      <trkpt lat="46.10408" lon="6.72492">
        <ele>1264.4</ele>
        <time>2000-01-01T02:36:53.000Z</time>
      </trkpt>
      <trkpt lat="46.10412" lon="6.72494">
        <ele>1265.1</ele>
        <time>2000-01-01T02:37:03.000Z</time>
      </trkpt>
      <trkpt lat="46.10417" lon="6.72494">
        <ele>1264</ele>
        <time>2000-01-01T02:37:13.000Z</time>
      </trkpt>
      <trkpt lat="46.10431" lon="6.72492">
        <ele>1267.8</ele>
        <time>2000-01-01T02:37:23.000Z</time>
      </trkpt>
      <trkpt lat="46.10439" lon="6.72489">
        <ele>1268</ele>
        <time>2000-01-01T02:37:33.000Z</time>
      </trkpt>
      <trkpt lat="46.10444" lon="6.72489">
        <ele>1269.7</ele>
        <time>2000-01-01T02:37:43.000Z</time>
      </trkpt>
      <trkpt lat="46.10449" lon="6.7249">
        <ele>1270.5</ele>
        <time>2000-01-01T02:37:53.000Z</time>
      </trkpt>
      <trkpt lat="46.10453" lon="6.72492">
        <ele>1271.1</ele>
        <time>2000-01-01T02:38:03.000Z</time>
      </trkpt>
      <trkpt lat="46.1046" lon="6.72496">
        <ele>1270</ele>
        <time>2000-01-01T02:38:13.000Z</time>
      </trkpt>
      <trkpt lat="46.10468" lon="6.72505">
        <ele>1272.9</ele>
        <time>2000-01-01T02:38:23.000Z</time>
      </trkpt>
      <trkpt lat="46.10485" lon="6.72521">
        <ele>1273</ele>
        <time>2000-01-01T02:38:33.000Z</time>
      </trkpt>
      <trkpt lat="46.10491" lon="6.72526">
        <ele>1275.5</ele>
        <time>2000-01-01T02:38:43.000Z</time>
      </trkpt>
      <trkpt lat="46.10506" lon="6.7254">
        <ele>1276</ele>
        <time>2000-01-01T02:38:53.000Z</time>
      </trkpt>
      <trkpt lat="46.10522" lon="6.72556">
        <ele>1279</ele>
        <time>2000-01-01T02:39:03.000Z</time>
      </trkpt>
      <trkpt lat="46.10538" lon="6.7257">
        <ele>1280.8</ele>
        <time>2000-01-01T02:39:13.000Z</time>
      </trkpt>
      <trkpt lat="46.10561" lon="6.72594">
        <ele>1284</ele>
        <time>2000-01-01T02:39:23.000Z</time>
      </trkpt>
      <trkpt lat="46.10578" lon="6.72616">
        <ele>1285</ele>
        <time>2000-01-01T02:39:33.000Z</time>
      </trkpt>
      <trkpt lat="46.10584" lon="6.72621">
        <ele>1289.5</ele>
        <time>2000-01-01T02:39:43.000Z</time>
      </trkpt>
      <trkpt lat="46.10593" lon="6.72625">
        <ele>1292.3</ele>
        <time>2000-01-01T02:39:53.000Z</time>
      </trkpt>
      <trkpt lat="46.10596" lon="6.72625">
        <ele>1291</ele>
        <time>2000-01-01T02:40:03.000Z</time>
      </trkpt>
      <trkpt lat="46.10599" lon="6.72622">
        <ele>1294.6</ele>
        <time>2000-01-01T02:40:13.000Z</time>
      </trkpt>
      <trkpt lat="46.10601" lon="6.72615">
        <ele>1296</ele>
        <time>2000-01-01T02:40:23.000Z</time>
      </trkpt>
      <trkpt lat="46.106" lon="6.72586">
        <ele>1294</ele>
        <time>2000-01-01T02:40:33.000Z</time>
      </trkpt>
      <trkpt lat="46.10598" lon="6.72569">
        <ele>1298</ele>
        <time>2000-01-01T02:40:43.000Z</time>
      </trkpt>
      <trkpt lat="46.10599" lon="6.72533">
        <ele>1297</ele>
        <time>2000-01-01T02:40:53.000Z</time>
      </trkpt>
      <trkpt lat="46.10601" lon="6.72505">
        <ele>1300</ele>
        <time>2000-01-01T02:41:03.000Z</time>
      </trkpt>
      <trkpt lat="46.10605" lon="6.72488">
        <ele>1302.6</ele>
        <time>2000-01-01T02:41:13.000Z</time>
      </trkpt>
      <trkpt lat="46.10606" lon="6.72472">
        <ele>1301</ele>
        <time>2000-01-01T02:41:23.000Z</time>
      </trkpt>
      <trkpt lat="46.10609" lon="6.72443">
        <ele>1301</ele>
        <time>2000-01-01T02:41:33.000Z</time>
      </trkpt>
      <trkpt lat="46.10612" lon="6.72433">
        <ele>1303.8</ele>
        <time>2000-01-01T02:41:43.000Z</time>
      </trkpt>
      <trkpt lat="46.10614" lon="6.72425">
        <ele>1303.9</ele>
        <time>2000-01-01T02:41:53.000Z</time>
      </trkpt>
      <trkpt lat="46.10618" lon="6.7242">
        <ele>1302</ele>
        <time>2000-01-01T02:42:03.000Z</time>
      </trkpt>
      <trkpt lat="46.10622" lon="6.72419">
        <ele>1305.4</ele>
        <time>2000-01-01T02:42:13.000Z</time>
      </trkpt>
      <trkpt lat="46.10629" lon="6.7242">
        <ele>1307</ele>
        <time>2000-01-01T02:42:23.000Z</time>
      </trkpt>
      <trkpt lat="46.10633" lon="6.72422">
        <ele>1307.9</ele>
        <time>2000-01-01T02:42:33.000Z</time>
      </trkpt>
      <trkpt lat="46.10637" lon="6.72426">
        <ele>1307</ele>
        <time>2000-01-01T02:42:43.000Z</time>
      </trkpt>
      <trkpt lat="46.10641" lon="6.72432">
        <ele>1310</ele>
        <time>2000-01-01T02:42:53.000Z</time>
      </trkpt>
      <trkpt lat="46.10643" lon="6.72439">
        <ele>1310.7</ele>
        <time>2000-01-01T02:43:03.000Z</time>
      </trkpt>
      <trkpt lat="46.10646" lon="6.72451">
        <ele>1309</ele>
        <time>2000-01-01T02:43:13.000Z</time>
      </trkpt>
      <trkpt lat="46.10657" lon="6.72484">
        <ele>1313</ele>
        <time>2000-01-01T02:43:23.000Z</time>
      </trkpt>
      <trkpt lat="46.10661" lon="6.72496">
        <ele>1315.6</ele>
        <time>2000-01-01T02:43:33.000Z</time>
      </trkpt>
      <trkpt lat="46.10664" lon="6.725">
        <ele>1316.3</ele>
        <time>2000-01-01T02:43:43.000Z</time>
      </trkpt>
      <trkpt lat="46.10669" lon="6.72504">
        <ele>1315</ele>
        <time>2000-01-01T02:43:53.000Z</time>
      </trkpt>
      <trkpt lat="46.10674" lon="6.72506">
        <ele>1319</ele>
        <time>2000-01-01T02:44:03.000Z</time>
      </trkpt>
      <trkpt lat="46.10679" lon="6.72507">
        <ele>1320.2</ele>
        <time>2000-01-01T02:44:13.000Z</time>
      </trkpt>
      <trkpt lat="46.10684" lon="6.72506">
        <ele>1321.4</ele>
        <time>2000-01-01T02:44:23.000Z</time>
      </trkpt>
      <trkpt lat="46.10687" lon="6.72504">
        <ele>1320</ele>
        <time>2000-01-01T02:44:33.000Z</time>
      </trkpt>
      <trkpt lat="46.10691" lon="6.72501">
        <ele>1323.1</ele>
        <time>2000-01-01T02:44:43.000Z</time>
      </trkpt>
      <trkpt lat="46.10696" lon="6.72495">
        <ele>1324.2</ele>
        <time>2000-01-01T02:44:53.000Z</time>
      </trkpt>
      <trkpt lat="46.10701" lon="6.72481">
        <ele>1324</ele>
        <time>2000-01-01T02:45:03.000Z</time>
      </trkpt>
      <trkpt lat="46.10704" lon="6.72466">
        <ele>1325.8</ele>
        <time>2000-01-01T02:45:13.000Z</time>
      </trkpt>
      <trkpt lat="46.10705" lon="6.72464">
        <ele>1326</ele>
        <time>2000-01-01T02:45:23.000Z</time>
      </trkpt>
      <trkpt lat="46.10705" lon="6.72457">
        <ele>1326</ele>
        <time>2000-01-01T02:45:33.000Z</time>
      </trkpt>
      <trkpt lat="46.10706" lon="6.72444">
        <ele>1324</ele>
        <time>2000-01-01T02:45:43.000Z</time>
      </trkpt>
      <trkpt lat="46.1071" lon="6.72435">
        <ele>1327.8</ele>
        <time>2000-01-01T02:45:53.000Z</time>
      </trkpt>
      <trkpt lat="46.10716" lon="6.72429">
        <ele>1329.8</ele>
        <time>2000-01-01T02:46:03.000Z</time>
      </trkpt>
      <trkpt lat="46.10722" lon="6.72434">
        <ele>1327</ele>
        <time>2000-01-01T02:46:13.000Z</time>
      </trkpt>
      <trkpt lat="46.10723" lon="6.72441">
        <ele>1331.4</ele>
        <time>2000-01-01T02:46:23.000Z</time>
      </trkpt>
      <trkpt lat="46.10723" lon="6.72441">
        <ele>1331.4</ele>
        <time>2000-01-01T02:46:33.000Z</time>
      </trkpt>
      <trkpt lat="46.10726" lon="6.72463">
        <ele>1330</ele>
        <time>2000-01-01T02:46:43.000Z</time>
      </trkpt>
      <trkpt lat="46.10728" lon="6.72472">
        <ele>1332.7</ele>
        <time>2000-01-01T02:46:53.000Z</time>
      </trkpt>
      <trkpt lat="46.10731" lon="6.72481">
        <ele>1333.1</ele>
        <time>2000-01-01T02:47:03.000Z</time>
      </trkpt>
      <trkpt lat="46.10742" lon="6.72495">
        <ele>1335</ele>
        <time>2000-01-01T02:47:13.000Z</time>
      </trkpt>
      <trkpt lat="46.10753" lon="6.72508">
        <ele>1337.8</ele>
        <time>2000-01-01T02:47:23.000Z</time>
      </trkpt>
      <trkpt lat="46.10763" lon="6.72522">
        <ele>1338</ele>
        <time>2000-01-01T02:47:33.000Z</time>
      </trkpt>
      <trkpt lat="46.10768" lon="6.72529">
        <ele>1341.7</ele>
        <time>2000-01-01T02:47:43.000Z</time>
      </trkpt>
      <trkpt lat="46.10787" lon="6.7257">
        <ele>1341</ele>
        <time>2000-01-01T02:47:53.000Z</time>
      </trkpt>
      <trkpt lat="46.10794" lon="6.72585">
        <ele>1344.7</ele>
        <time>2000-01-01T02:48:03.000Z</time>
      </trkpt>
      <trkpt lat="46.10816" lon="6.72623">
        <ele>1346</ele>
        <time>2000-01-01T02:48:13.000Z</time>
      </trkpt>
      <trkpt lat="46.10842" lon="6.72672">
        <ele>1352</ele>
        <time>2000-01-01T02:48:23.000Z</time>
      </trkpt>
      <trkpt lat="46.10849" lon="6.72685">
        <ele>1354.2</ele>
        <time>2000-01-01T02:48:33.000Z</time>
      </trkpt>
      <trkpt lat="46.10854" lon="6.72692">
        <ele>1353</ele>
        <time>2000-01-01T02:48:43.000Z</time>
      </trkpt>
      <trkpt lat="46.10856" lon="6.72695">
        <ele>1355.9</ele>
        <time>2000-01-01T02:48:53.000Z</time>
      </trkpt>
      <trkpt lat="46.1086" lon="6.727">
        <ele>1357</ele>
        <time>2000-01-01T02:49:03.000Z</time>
      </trkpt>
      <trkpt lat="46.10867" lon="6.72707">
        <ele>1358.8</ele>
        <time>2000-01-01T02:49:13.000Z</time>
      </trkpt>
      <trkpt lat="46.10871" lon="6.72714">
        <ele>1359</ele>
        <time>2000-01-01T02:49:23.000Z</time>
      </trkpt>
      <trkpt lat="46.10875" lon="6.7272">
        <ele>1360.2</ele>
        <time>2000-01-01T02:49:33.000Z</time>
      </trkpt>
      <trkpt lat="46.10879" lon="6.72726">
        <ele>1361</ele>
        <time>2000-01-01T02:49:43.000Z</time>
      </trkpt>
      <trkpt lat="46.10879" lon="6.72726">
        <ele>1361</ele>
        <time>2000-01-01T02:49:53.000Z</time>
      </trkpt>
      <trkpt lat="46.10884" lon="6.72733">
        <ele>1362.1</ele>
        <time>2000-01-01T02:50:03.000Z</time>
      </trkpt>
      <trkpt lat="46.10887" lon="6.72738">
        <ele>1360</ele>
        <time>2000-01-01T02:50:13.000Z</time>
      </trkpt>
      <trkpt lat="46.10891" lon="6.72743">
        <ele>1363.4</ele>
        <time>2000-01-01T02:50:23.000Z</time>
      </trkpt>
      <trkpt lat="46.10896" lon="6.72749">
        <ele>1364.2</ele>
        <time>2000-01-01T02:50:33.000Z</time>
      </trkpt>
      <trkpt lat="46.109" lon="6.72754">
        <ele>1364.7</ele>
        <time>2000-01-01T02:50:43.000Z</time>
      </trkpt>
      <trkpt lat="46.10903" lon="6.72761">
        <ele>1363</ele>
        <time>2000-01-01T02:50:53.000Z</time>
      </trkpt>
      <trkpt lat="46.10903" lon="6.72761">
        <ele>1364.7</ele>
        <time>2000-01-01T02:51:03.000Z</time>
      </trkpt>
      <trkpt lat="46.1091" lon="6.7277">
        <ele>1365.7</ele>
        <time>2000-01-01T02:51:13.000Z</time>
      </trkpt>
      <trkpt lat="46.10925" lon="6.72788">
        <ele>1367</ele>
        <time>2000-01-01T02:51:23.000Z</time>
      </trkpt>
      <trkpt lat="46.10927" lon="6.72791">
        <ele>1367.8</ele>
        <time>2000-01-01T02:51:33.000Z</time>
      </trkpt>
      <trkpt lat="46.10932" lon="6.72795">
        <ele>1368.5</ele>
        <time>2000-01-01T02:51:43.000Z</time>
      </trkpt>
      <trkpt lat="46.10935" lon="6.72796">
        <ele>1369</ele>
        <time>2000-01-01T02:51:53.000Z</time>
      </trkpt>
      <trkpt lat="46.10918" lon="6.72747">
        <ele>1369</ele>
        <time>2000-01-01T02:52:03.000Z</time>
      </trkpt>
      <trkpt lat="46.10903" lon="6.72706">
        <ele>1369</ele>
        <time>2000-01-01T02:52:13.000Z</time>
      </trkpt>
      <trkpt lat="46.10889" lon="6.72651">
        <ele>1370</ele>
        <time>2000-01-01T02:52:23.000Z</time>
      </trkpt>
      <trkpt lat="46.10875" lon="6.72613">
        <ele>1373</ele>
        <time>2000-01-01T02:52:33.000Z</time>
      </trkpt>
      <trkpt lat="46.10864" lon="6.72581">
        <ele>1374</ele>
        <time>2000-01-01T02:52:43.000Z</time>
      </trkpt>
      <trkpt lat="46.10851" lon="6.72546">
        <ele>1374</ele>
        <time>2000-01-01T02:52:53.000Z</time>
      </trkpt>
      <trkpt lat="46.10834" lon="6.72497">
        <ele>1372</ele>
        <time>2000-01-01T02:53:03.000Z</time>
      </trkpt>
      <trkpt lat="46.10831" lon="6.72471">
        <ele>1372</ele>
        <time>2000-01-01T02:53:13.000Z</time>
      </trkpt>
      <trkpt lat="46.1083" lon="6.72456">
        <ele>1372</ele>
        <time>2000-01-01T02:53:23.000Z</time>
      </trkpt>
      <trkpt lat="46.10836" lon="6.72447">
        <ele>1372.8</ele>
        <time>2000-01-01T02:53:33.000Z</time>
      </trkpt>
      <trkpt lat="46.10841" lon="6.72433">
        <ele>1373</ele>
        <time>2000-01-01T02:53:43.000Z</time>
      </trkpt>
      <trkpt lat="46.10843" lon="6.72422">
        <ele>1374.2</ele>
        <time>2000-01-01T02:53:53.000Z</time>
      </trkpt>
      <trkpt lat="46.10844" lon="6.7241">
        <ele>1374.3</ele>
        <time>2000-01-01T02:54:03.000Z</time>
      </trkpt>
      <trkpt lat="46.10843" lon="6.72401">
        <ele>1373</ele>
        <time>2000-01-01T02:54:13.000Z</time>
      </trkpt>
      <trkpt lat="46.10839" lon="6.72391">
        <ele>1373.2</ele>
        <time>2000-01-01T02:54:23.000Z</time>
      </trkpt>
      <trkpt lat="46.10836" lon="6.72381">
        <ele>1373.1</ele>
        <time>2000-01-01T02:54:33.000Z</time>
      </trkpt>
      <trkpt lat="46.10836" lon="6.72366">
        <ele>1373</ele>
        <time>2000-01-01T02:54:43.000Z</time>
      </trkpt>
      <trkpt lat="46.10837" lon="6.72354">
        <ele>1374.4</ele>
        <time>2000-01-01T02:54:53.000Z</time>
      </trkpt>
      <trkpt lat="46.10842" lon="6.72345">
        <ele>1375.2</ele>
        <time>2000-01-01T02:55:03.000Z</time>
      </trkpt>
      <trkpt lat="46.10844" lon="6.72334">
        <ele>1373</ele>
        <time>2000-01-01T02:55:13.000Z</time>
      </trkpt>
      <trkpt lat="46.10843" lon="6.7232">
        <ele>1375.3</ele>
        <time>2000-01-01T02:55:23.000Z</time>
      </trkpt>
      <trkpt lat="46.10842" lon="6.72304">
        <ele>1373</ele>
        <time>2000-01-01T02:55:33.000Z</time>
      </trkpt>
      <trkpt lat="46.10845" lon="6.72286">
        <ele>1374.1</ele>
        <time>2000-01-01T02:55:43.000Z</time>
      </trkpt>
      <trkpt lat="46.10851" lon="6.7227">
        <ele>1373</ele>
        <time>2000-01-01T02:55:53.000Z</time>
      </trkpt>
      <trkpt lat="46.10855" lon="6.72259">
        <ele>1372.9</ele>
        <time>2000-01-01T02:56:03.000Z</time>
      </trkpt>
      <trkpt lat="46.10857" lon="6.72245">
        <ele>1371</ele>
        <time>2000-01-01T02:56:13.000Z</time>
      </trkpt>
      <trkpt lat="46.1086" lon="6.72232">
        <ele>1369.4</ele>
        <time>2000-01-01T02:56:23.000Z</time>
      </trkpt>
      <trkpt lat="46.10867" lon="6.72227">
        <ele>1370.1</ele>
        <time>2000-01-01T02:56:33.000Z</time>
      </trkpt>
      <trkpt lat="46.10871" lon="6.72221">
        <ele>1369</ele>
        <time>2000-01-01T02:56:43.000Z</time>
      </trkpt>
      <trkpt lat="46.10875" lon="6.72214">
        <ele>1369.8</ele>
        <time>2000-01-01T02:56:53.000Z</time>
      </trkpt>
      <trkpt lat="46.10875" lon="6.72203">
        <ele>1368.2</ele>
        <time>2000-01-01T02:57:03.000Z</time>
      </trkpt>
      <trkpt lat="46.10871" lon="6.72197">
        <ele>1365</ele>
        <time>2000-01-01T02:57:13.000Z</time>
      </trkpt>
      <trkpt lat="46.10861" lon="6.72194">
        <ele>1363.9</ele>
        <time>2000-01-01T02:57:23.000Z</time>
      </trkpt>
      <trkpt lat="46.10855" lon="6.72195">
        <ele>1362.1</ele>
        <time>2000-01-01T02:57:33.000Z</time>
      </trkpt>
      <trkpt lat="46.10848" lon="6.72199">
        <ele>1356</ele>
        <time>2000-01-01T02:57:43.000Z</time>
      </trkpt>
      <trkpt lat="46.10839" lon="6.72198">
        <ele>1357.4</ele>
        <time>2000-01-01T02:57:53.000Z</time>
      </trkpt>
      <trkpt lat="46.10834" lon="6.72193">
        <ele>1355</ele>
        <time>2000-01-01T02:58:03.000Z</time>
      </trkpt>
      <trkpt lat="46.10833" lon="6.72187">
        <ele>1351</ele>
        <time>2000-01-01T02:58:13.000Z</time>
      </trkpt>
      <trkpt lat="46.10832" lon="6.7217">
        <ele>1351</ele>
        <time>2000-01-01T02:58:23.000Z</time>
      </trkpt>
      <trkpt lat="46.1083" lon="6.72151">
        <ele>1348</ele>
        <time>2000-01-01T02:58:33.000Z</time>
      </trkpt>
      <trkpt lat="46.10828" lon="6.72132">
        <ele>1345.6</ele>
        <time>2000-01-01T02:58:43.000Z</time>
      </trkpt>
      <trkpt lat="46.10825" lon="6.72116">
        <ele>1339</ele>
        <time>2000-01-01T02:58:53.000Z</time>
      </trkpt>
      <trkpt lat="46.10823" lon="6.72105">
        <ele>1341.6</ele>
        <time>2000-01-01T02:59:03.000Z</time>
      </trkpt>
      <trkpt lat="46.10822" lon="6.72093">
        <ele>1340</ele>
        <time>2000-01-01T02:59:13.000Z</time>
      </trkpt>
      <trkpt lat="46.10822" lon="6.72091">
        <ele>1339.7</ele>
        <time>2000-01-01T02:59:23.000Z</time>
      </trkpt>
      <trkpt lat="46.10824" lon="6.72078">
        <ele>1335</ele>
        <time>2000-01-01T02:59:33.000Z</time>
      </trkpt>
      <trkpt lat="46.10823" lon="6.72068">
        <ele>1336.7</ele>
        <time>2000-01-01T02:59:43.000Z</time>
      </trkpt>
      <trkpt lat="46.10823" lon="6.72056">
        <ele>1334.7</ele>
        <time>2000-01-01T02:59:53.000Z</time>
      </trkpt>
      <trkpt lat="46.10823" lon="6.72045">
        <ele>1329</ele>
        <time>2000-01-01T03:00:03.000Z</time>
      </trkpt>
      <trkpt lat="46.10823" lon="6.72032">
        <ele>1329.9</ele>
        <time>2000-01-01T03:00:13.000Z</time>
      </trkpt>
      <trkpt lat="46.1083" lon="6.72022">
        <ele>1329.8</ele>
        <time>2000-01-01T03:00:23.000Z</time>
      </trkpt>
      <trkpt lat="46.10836" lon="6.72008">
        <ele>1325</ele>
        <time>2000-01-01T03:00:33.000Z</time>
      </trkpt>
      <trkpt lat="46.10841" lon="6.71994">
        <ele>1326.5</ele>
        <time>2000-01-01T03:00:43.000Z</time>
      </trkpt>
      <trkpt lat="46.10841" lon="6.71991">
        <ele>1325.8</ele>
        <time>2000-01-01T03:00:53.000Z</time>
      </trkpt>
      <trkpt lat="46.10843" lon="6.71986">
        <ele>1325.1</ele>
        <time>2000-01-01T03:01:03.000Z</time>
      </trkpt>
      <trkpt lat="46.10849" lon="6.71969">
        <ele>1325</ele>
        <time>2000-01-01T03:01:13.000Z</time>
      </trkpt>
      <trkpt lat="46.10863" lon="6.7196">
        <ele>1325.4</ele>
        <time>2000-01-01T03:01:23.000Z</time>
      </trkpt>
      <trkpt lat="46.10878" lon="6.71955">
        <ele>1325</ele>
        <time>2000-01-01T03:01:33.000Z</time>
      </trkpt>
      <trkpt lat="46.10891" lon="6.71954">
        <ele>1334.3</ele>
        <time>2000-01-01T03:01:43.000Z</time>
      </trkpt>
      <trkpt lat="46.10903" lon="6.71949">
        <ele>1335</ele>
        <time>2000-01-01T03:01:53.000Z</time>
      </trkpt>
      <trkpt lat="46.1091" lon="6.7194">
        <ele>1340.6</ele>
        <time>2000-01-01T03:02:03.000Z</time>
      </trkpt>
      <trkpt lat="46.10914" lon="6.71925">
        <ele>1337</ele>
        <time>2000-01-01T03:02:13.000Z</time>
      </trkpt>
      <trkpt lat="46.10918" lon="6.71911">
        <ele>1341.3</ele>
        <time>2000-01-01T03:02:23.000Z</time>
      </trkpt>
      <trkpt lat="46.10921" lon="6.71902">
        <ele>1342</ele>
        <time>2000-01-01T03:02:33.000Z</time>
      </trkpt>
      <trkpt lat="46.10926" lon="6.71898">
        <ele>1341</ele>
        <time>2000-01-01T03:02:43.000Z</time>
      </trkpt>
      <trkpt lat="46.10932" lon="6.71896">
        <ele>1346.8</ele>
        <time>2000-01-01T03:02:53.000Z</time>
      </trkpt>
      <trkpt lat="46.10932" lon="6.71896">
        <ele>1346.8</ele>
        <time>2000-01-01T03:03:03.000Z</time>
      </trkpt>
      <trkpt lat="46.10938" lon="6.71893">
        <ele>1349.4</ele>
        <time>2000-01-01T03:03:13.000Z</time>
      </trkpt>
      <trkpt lat="46.10938" lon="6.71893">
        <ele>1349.4</ele>
        <time>2000-01-01T03:03:23.000Z</time>
      </trkpt>
      <trkpt lat="46.10938" lon="6.71893">
        <ele>1349.4</ele>
        <time>2000-01-01T03:03:33.000Z</time>
      </trkpt>
      <trkpt lat="46.10944" lon="6.71882">
        <ele>1348</ele>
        <time>2000-01-01T03:03:43.000Z</time>
      </trkpt>
      <trkpt lat="46.1095" lon="6.71872">
        <ele>1352.6</ele>
        <time>2000-01-01T03:03:53.000Z</time>
      </trkpt>
      <trkpt lat="46.10957" lon="6.7187">
        <ele>1355.4</ele>
        <time>2000-01-01T03:04:03.000Z</time>
      </trkpt>
      <trkpt lat="46.10964" lon="6.71877">
        <ele>1357</ele>
        <time>2000-01-01T03:04:13.000Z</time>
      </trkpt>
      <trkpt lat="46.10968" lon="6.71885">
        <ele>1361.8</ele>
        <time>2000-01-01T03:04:23.000Z</time>
      </trkpt>
      <trkpt lat="46.10971" lon="6.719">
        <ele>1364.3</ele>
        <time>2000-01-01T03:04:33.000Z</time>
      </trkpt>
      <trkpt lat="46.1097" lon="6.71912">
        <ele>1364</ele>
        <time>2000-01-01T03:04:43.000Z</time>
      </trkpt>
      <trkpt lat="46.10973" lon="6.71923">
        <ele>1366.8</ele>
        <time>2000-01-01T03:04:53.000Z</time>
      </trkpt>
      <trkpt lat="46.10982" lon="6.7193">
        <ele>1370.8</ele>
        <time>2000-01-01T03:05:03.000Z</time>
      </trkpt>
      <trkpt lat="46.10996" lon="6.71935">
        <ele>1374</ele>
        <time>2000-01-01T03:05:13.000Z</time>
      </trkpt>
      <trkpt lat="46.11007" lon="6.71941">
        <ele>1381.8</ele>
        <time>2000-01-01T03:05:23.000Z</time>
      </trkpt>
      <trkpt lat="46.11012" lon="6.71946">
        <ele>1384.4</ele>
        <time>2000-01-01T03:05:33.000Z</time>
      </trkpt>
      <trkpt lat="46.11014" lon="6.71959">
        <ele>1384</ele>
        <time>2000-01-01T03:05:43.000Z</time>
      </trkpt>
      <trkpt lat="46.11017" lon="6.71982">
        <ele>1391.5</ele>
        <time>2000-01-01T03:05:53.000Z</time>
      </trkpt>
      <trkpt lat="46.11019" lon="6.72001">
        <ele>1391</ele>
        <time>2000-01-01T03:06:03.000Z</time>
      </trkpt>
      <trkpt lat="46.11026" lon="6.72019">
        <ele>1401.7</ele>
        <time>2000-01-01T03:06:13.000Z</time>
      </trkpt>
      <trkpt lat="46.1103" lon="6.72031">
        <ele>1404</ele>
        <time>2000-01-01T03:06:23.000Z</time>
      </trkpt>
      <trkpt lat="46.11031" lon="6.72048">
        <ele>1408.5</ele>
        <time>2000-01-01T03:06:33.000Z</time>
      </trkpt>
      <trkpt lat="46.11028" lon="6.72057">
        <ele>1404</ele>
        <time>2000-01-01T03:06:43.000Z</time>
      </trkpt>
      <trkpt lat="46.11024" lon="6.72068">
        <ele>1408</ele>
        <time>2000-01-01T03:06:53.000Z</time>
      </trkpt>
      <trkpt lat="46.11028" lon="6.72083">
        <ele>1408</ele>
        <time>2000-01-01T03:07:03.000Z</time>
      </trkpt>
      <trkpt lat="46.11032" lon="6.72096">
        <ele>1414</ele>
        <time>2000-01-01T03:07:13.000Z</time>
      </trkpt>
      <trkpt lat="46.11039" lon="6.72114">
        <ele>1413</ele>
        <time>2000-01-01T03:07:23.000Z</time>
      </trkpt>
      <trkpt lat="46.11045" lon="6.72131">
        <ele>1423.8</ele>
        <time>2000-01-01T03:07:33.000Z</time>
      </trkpt>
      <trkpt lat="46.11046" lon="6.72145">
        <ele>1422</ele>
        <time>2000-01-01T03:07:43.000Z</time>
      </trkpt>
      <trkpt lat="46.11047" lon="6.72161">
        <ele>1428.3</ele>
        <time>2000-01-01T03:07:53.000Z</time>
      </trkpt>
      <trkpt lat="46.11057" lon="6.72179">
        <ele>1430</ele>
        <time>2000-01-01T03:08:03.000Z</time>
      </trkpt>
      <trkpt lat="46.1106" lon="6.72188">
        <ele>1436</ele>
        <time>2000-01-01T03:08:13.000Z</time>
      </trkpt>
      <trkpt lat="46.11071" lon="6.7221">
        <ele>1439</ele>
        <time>2000-01-01T03:08:23.000Z</time>
      </trkpt>
      <trkpt lat="46.11076" lon="6.72218">
        <ele>1440.8</ele>
        <time>2000-01-01T03:08:33.000Z</time>
      </trkpt>
      <trkpt lat="46.11076" lon="6.72218">
        <ele>1440.8</ele>
        <time>2000-01-01T03:08:43.000Z</time>
      </trkpt>
      <trkpt lat="46.11078" lon="6.7222">
        <ele>1441.4</ele>
        <time>2000-01-01T03:08:53.000Z</time>
      </trkpt>
      <trkpt lat="46.11081" lon="6.72225">
        <ele>1441.8</ele>
        <time>2000-01-01T03:09:03.000Z</time>
      </trkpt>
      <trkpt lat="46.11086" lon="6.7223">
        <ele>1440</ele>
        <time>2000-01-01T03:09:13.000Z</time>
      </trkpt>
      <trkpt lat="46.11091" lon="6.72235">
        <ele>1444.9</ele>
        <time>2000-01-01T03:09:23.000Z</time>
      </trkpt>
      <trkpt lat="46.11096" lon="6.7224">
        <ele>1446.5</ele>
        <time>2000-01-01T03:09:33.000Z</time>
      </trkpt>
      <trkpt lat="46.111" lon="6.72246">
        <ele>1447.5</ele>
        <time>2000-01-01T03:09:43.000Z</time>
      </trkpt>
      <trkpt lat="46.11103" lon="6.7225">
        <ele>1446</ele>
        <time>2000-01-01T03:09:53.000Z</time>
      </trkpt>
      <trkpt lat="46.11108" lon="6.72259">
        <ele>1449.2</ele>
        <time>2000-01-01T03:10:03.000Z</time>
      </trkpt>
      <trkpt lat="46.11108" lon="6.72259">
        <ele>1449.2</ele>
        <time>2000-01-01T03:10:13.000Z</time>
      </trkpt>
      <trkpt lat="46.11114" lon="6.72266">
        <ele>1451.6</ele>
        <time>2000-01-01T03:10:23.000Z</time>
      </trkpt>
      <trkpt lat="46.11117" lon="6.72272">
        <ele>1447</ele>
        <time>2000-01-01T03:10:33.000Z</time>
      </trkpt>
      <trkpt lat="46.1112" lon="6.72283">
        <ele>1453.6</ele>
        <time>2000-01-01T03:10:43.000Z</time>
      </trkpt>
      <trkpt lat="46.11124" lon="6.72289">
        <ele>1455.9</ele>
        <time>2000-01-01T03:10:53.000Z</time>
      </trkpt>
      <trkpt lat="46.11126" lon="6.72296">
        <ele>1451</ele>
        <time>2000-01-01T03:11:03.000Z</time>
      </trkpt>
      <trkpt lat="46.11127" lon="6.72304">
        <ele>1457.4</ele>
        <time>2000-01-01T03:11:13.000Z</time>
      </trkpt>
      <trkpt lat="46.1113" lon="6.72312">
        <ele>1459.7</ele>
        <time>2000-01-01T03:11:23.000Z</time>
      </trkpt>
      <trkpt lat="46.11133" lon="6.72318">
        <ele>1462.2</ele>
        <time>2000-01-01T03:11:33.000Z</time>
      </trkpt>
      <trkpt lat="46.11137" lon="6.72322">
        <ele>1460</ele>
        <time>2000-01-01T03:11:43.000Z</time>
      </trkpt>
      <trkpt lat="46.11141" lon="6.72327">
        <ele>1469.2</ele>
        <time>2000-01-01T03:11:53.000Z</time>
      </trkpt>
      <trkpt lat="46.11142" lon="6.72334">
        <ele>1470.8</ele>
        <time>2000-01-01T03:12:03.000Z</time>
      </trkpt>
      <trkpt lat="46.1114" lon="6.7234">
        <ele>1469.7</ele>
        <time>2000-01-01T03:12:13.000Z</time>
      </trkpt>
      <trkpt lat="46.1114" lon="6.72341">
        <ele>1469.8</ele>
        <time>2000-01-01T03:12:23.000Z</time>
      </trkpt>
      <trkpt lat="46.11138" lon="6.72349">
        <ele>1462</ele>
        <time>2000-01-01T03:12:33.000Z</time>
      </trkpt>
      <trkpt lat="46.11137" lon="6.72354">
        <ele>1468.9</ele>
        <time>2000-01-01T03:12:43.000Z</time>
      </trkpt>
      <trkpt lat="46.11137" lon="6.72361">
        <ele>1469.7</ele>
        <time>2000-01-01T03:12:53.000Z</time>
      </trkpt>
      <trkpt lat="46.11137" lon="6.72368">
        <ele>1470</ele>
        <time>2000-01-01T03:13:03.000Z</time>
      </trkpt>
      <trkpt lat="46.11138" lon="6.7237">
        <ele>1470.7</ele>
        <time>2000-01-01T03:13:13.000Z</time>
      </trkpt>
      <trkpt lat="46.11141" lon="6.72371">
        <ele>1472.9</ele>
        <time>2000-01-01T03:13:23.000Z</time>
      </trkpt>
      <trkpt lat="46.11143" lon="6.72373">
        <ele>1472</ele>
        <time>2000-01-01T03:13:33.000Z</time>
      </trkpt>
      <trkpt lat="46.11148" lon="6.72378">
        <ele>1478</ele>
        <time>2000-01-01T03:13:43.000Z</time>
      </trkpt>
      <trkpt lat="46.11153" lon="6.72384">
        <ele>1481.3</ele>
        <time>2000-01-01T03:13:53.000Z</time>
      </trkpt>
      <trkpt lat="46.11157" lon="6.72388">
        <ele>1483.8</ele>
        <time>2000-01-01T03:14:03.000Z</time>
      </trkpt>
      <trkpt lat="46.11159" lon="6.7239">
        <ele>1478</ele>
        <time>2000-01-01T03:14:13.000Z</time>
      </trkpt>
      <trkpt lat="46.11165" lon="6.72397">
        <ele>1486.9</ele>
        <time>2000-01-01T03:14:23.000Z</time>
      </trkpt>
      <trkpt lat="46.1117" lon="6.72404">
        <ele>1488.2</ele>
        <time>2000-01-01T03:14:33.000Z</time>
      </trkpt>
      <trkpt lat="46.11175" lon="6.72411">
        <ele>1487</ele>
        <time>2000-01-01T03:14:43.000Z</time>
      </trkpt>
      <trkpt lat="46.11184" lon="6.72419">
        <ele>1492.4</ele>
        <time>2000-01-01T03:14:53.000Z</time>
      </trkpt>
      <trkpt lat="46.11196" lon="6.7243">
        <ele>1493</ele>
        <time>2000-01-01T03:15:03.000Z</time>
      </trkpt>
      <trkpt lat="46.11202" lon="6.72437">
        <ele>1496.8</ele>
        <time>2000-01-01T03:15:13.000Z</time>
      </trkpt>
      <trkpt lat="46.1121" lon="6.72447">
        <ele>1497.3</ele>
        <time>2000-01-01T03:15:23.000Z</time>
      </trkpt>
      <trkpt lat="46.11214" lon="6.7245">
        <ele>1495</ele>
        <time>2000-01-01T03:15:33.000Z</time>
      </trkpt>
      <trkpt lat="46.11217" lon="6.72451">
        <ele>1499</ele>
        <time>2000-01-01T03:15:43.000Z</time>
      </trkpt>
      <trkpt lat="46.11221" lon="6.72451">
        <ele>1500.8</ele>
        <time>2000-01-01T03:15:53.000Z</time>
      </trkpt>
      <trkpt lat="46.11223" lon="6.72451">
        <ele>1501.7</ele>
        <time>2000-01-01T03:16:03.000Z</time>
      </trkpt>
      <trkpt lat="46.11227" lon="6.72452">
        <ele>1503</ele>
        <time>2000-01-01T03:16:13.000Z</time>
      </trkpt>
      <trkpt lat="46.11235" lon="6.72455">
        <ele>1504</ele>
        <time>2000-01-01T03:16:23.000Z</time>
      </trkpt>
      <trkpt lat="46.11241" lon="6.72455">
        <ele>1507.7</ele>
        <time>2000-01-01T03:16:33.000Z</time>
      </trkpt>
      <trkpt lat="46.11244" lon="6.72454">
        <ele>1509.4</ele>
        <time>2000-01-01T03:16:43.000Z</time>
      </trkpt>
      <trkpt lat="46.11247" lon="6.72456">
        <ele>1509.8</ele>
        <time>2000-01-01T03:16:53.000Z</time>
      </trkpt>
      <trkpt lat="46.11254" lon="6.72462">
        <ele>1510</ele>
        <time>2000-01-01T03:17:03.000Z</time>
      </trkpt>
      <trkpt lat="46.11259" lon="6.72464">
        <ele>1510.9</ele>
        <time>2000-01-01T03:17:13.000Z</time>
      </trkpt>
      <trkpt lat="46.11261" lon="6.72464">
        <ele>1511.6</ele>
        <time>2000-01-01T03:17:23.000Z</time>
      </trkpt>
      <trkpt lat="46.11264" lon="6.72463">
        <ele>1513.2</ele>
        <time>2000-01-01T03:17:33.000Z</time>
      </trkpt>
      <trkpt lat="46.11269" lon="6.72464">
        <ele>1514.6</ele>
        <time>2000-01-01T03:17:43.000Z</time>
      </trkpt>
      <trkpt lat="46.11272" lon="6.72465">
        <ele>1515.2</ele>
        <time>2000-01-01T03:17:53.000Z</time>
      </trkpt>
      <trkpt lat="46.11277" lon="6.72463">
        <ele>1516</ele>
        <time>2000-01-01T03:18:03.000Z</time>
      </trkpt>
      <trkpt lat="46.11285" lon="6.72461">
        <ele>1521.6</ele>
        <time>2000-01-01T03:18:13.000Z</time>
      </trkpt>
      <trkpt lat="46.11296" lon="6.7246">
        <ele>1524</ele>
        <time>2000-01-01T03:18:23.000Z</time>
      </trkpt>
      <trkpt lat="46.11301" lon="6.7246">
        <ele>1527.2</ele>
        <time>2000-01-01T03:18:33.000Z</time>
      </trkpt>
      <trkpt lat="46.11302" lon="6.7246">
        <ele>1527.6</ele>
        <time>2000-01-01T03:18:43.000Z</time>
      </trkpt>
      <trkpt lat="46.11303" lon="6.72459">
        <ele>1528.4</ele>
        <time>2000-01-01T03:18:53.000Z</time>
      </trkpt>
      <trkpt lat="46.11302" lon="6.72458">
        <ele>1528.5</ele>
        <time>2000-01-01T03:19:03.000Z</time>
      </trkpt>
      <trkpt lat="46.11302" lon="6.72457">
        <ele>1529</ele>
        <time>2000-01-01T03:19:13.000Z</time>
      </trkpt>
      <trkpt lat="46.11301" lon="6.72455">
        <ele>1529.6</ele>
        <time>2000-01-01T03:19:23.000Z</time>
      </trkpt>
      <trkpt lat="46.11301" lon="6.72454">
        <ele>1530.1</ele>
        <time>2000-01-01T03:19:33.000Z</time>
      </trkpt>
      <trkpt lat="46.11303" lon="6.72454">
        <ele>1530.7</ele>
        <time>2000-01-01T03:19:43.000Z</time>
      </trkpt>
      <trkpt lat="46.11304" lon="6.72453">
        <ele>1531.5</ele>
        <time>2000-01-01T03:19:53.000Z</time>
      </trkpt>
      <trkpt lat="46.11305" lon="6.72451">
        <ele>1532.8</ele>
        <time>2000-01-01T03:20:03.000Z</time>
      </trkpt>
      <trkpt lat="46.11305" lon="6.7245">
        <ele>1533.2</ele>
        <time>2000-01-01T03:20:13.000Z</time>
      </trkpt>
      <trkpt lat="46.11304" lon="6.72449">
        <ele>1533.4</ele>
        <time>2000-01-01T03:20:23.000Z</time>
      </trkpt>
      <trkpt lat="46.11296" lon="6.72443">
        <ele>1533</ele>
        <time>2000-01-01T03:20:33.000Z</time>
      </trkpt>
      <trkpt lat="46.11289" lon="6.72437">
        <ele>1533.7</ele>
        <time>2000-01-01T03:20:43.000Z</time>
      </trkpt>
      <trkpt lat="46.11282" lon="6.7243">
        <ele>1534.5</ele>
        <time>2000-01-01T03:20:53.000Z</time>
      </trkpt>
      <trkpt lat="46.11279" lon="6.72424">
        <ele>1533</ele>
        <time>2000-01-01T03:21:03.000Z</time>
      </trkpt>
      <trkpt lat="46.11278" lon="6.72416">
        <ele>1539.3</ele>
        <time>2000-01-01T03:21:13.000Z</time>
      </trkpt>
      <trkpt lat="46.11278" lon="6.72407">
        <ele>1542.5</ele>
        <time>2000-01-01T03:21:23.000Z</time>
      </trkpt>
      <trkpt lat="46.11277" lon="6.724">
        <ele>1544.7</ele>
        <time>2000-01-01T03:21:33.000Z</time>
      </trkpt>
      <trkpt lat="46.11274" lon="6.72394">
        <ele>1545</ele>
        <time>2000-01-01T03:21:43.000Z</time>
      </trkpt>
      <trkpt lat="46.1127" lon="6.72389">
        <ele>1545.9</ele>
        <time>2000-01-01T03:21:53.000Z</time>
      </trkpt>
      <trkpt lat="46.11266" lon="6.7238">
        <ele>1547.1</ele>
        <time>2000-01-01T03:22:03.000Z</time>
      </trkpt>
      <trkpt lat="46.11262" lon="6.72368">
        <ele>1551</ele>
        <time>2000-01-01T03:22:13.000Z</time>
      </trkpt>
      <trkpt lat="46.11258" lon="6.72354">
        <ele>1551.6</ele>
        <time>2000-01-01T03:22:23.000Z</time>
      </trkpt>
      <trkpt lat="46.11256" lon="6.72347">
        <ele>1552.8</ele>
        <time>2000-01-01T03:22:33.000Z</time>
      </trkpt>
      <trkpt lat="46.11254" lon="6.72338">
        <ele>1555</ele>
        <time>2000-01-01T03:22:43.000Z</time>
      </trkpt>
      <trkpt lat="46.11252" lon="6.72333">
        <ele>1555</ele>
        <time>2000-01-01T03:22:53.000Z</time>
      </trkpt>
      <trkpt lat="46.11252" lon="6.7233">
        <ele>1555.7</ele>
        <time>2000-01-01T03:23:03.000Z</time>
      </trkpt>
      <trkpt lat="46.11254" lon="6.72326">
        <ele>1557.5</ele>
        <time>2000-01-01T03:23:13.000Z</time>
      </trkpt>
      <trkpt lat="46.11255" lon="6.72322">
        <ele>1558.9</ele>
        <time>2000-01-01T03:23:23.000Z</time>
      </trkpt>
      <trkpt lat="46.11255" lon="6.72315">
        <ele>1560.5</ele>
        <time>2000-01-01T03:23:33.000Z</time>
      </trkpt>
      <trkpt lat="46.11254" lon="6.72308">
        <ele>1561</ele>
        <time>2000-01-01T03:23:43.000Z</time>
      </trkpt>
      <trkpt lat="46.11254" lon="6.72303">
        <ele>1562.5</ele>
        <time>2000-01-01T03:23:53.000Z</time>
      </trkpt>
      <trkpt lat="46.11254" lon="6.723">
        <ele>1562.8</ele>
        <time>2000-01-01T03:24:03.000Z</time>
      </trkpt>
      <trkpt lat="46.11256" lon="6.72298">
        <ele>1564.2</ele>
        <time>2000-01-01T03:24:13.000Z</time>
      </trkpt>
      <trkpt lat="46.11258" lon="6.72297">
        <ele>1565.5</ele>
        <time>2000-01-01T03:24:23.000Z</time>
      </trkpt>
      <trkpt lat="46.11265" lon="6.72297">
        <ele>1569.5</ele>
        <time>2000-01-01T03:24:33.000Z</time>
      </trkpt>
      <trkpt lat="46.11276" lon="6.72295">
        <ele>1574</ele>
        <time>2000-01-01T03:24:43.000Z</time>
      </trkpt>
      <trkpt lat="46.11282" lon="6.72295">
        <ele>1579.4</ele>
        <time>2000-01-01T03:24:53.000Z</time>
      </trkpt>
      <trkpt lat="46.11288" lon="6.72297">
        <ele>1582</ele>
        <time>2000-01-01T03:25:03.000Z</time>
      </trkpt>
      <trkpt lat="46.11292" lon="6.72299">
        <ele>1583.4</ele>
        <time>2000-01-01T03:25:13.000Z</time>
      </trkpt>
      <trkpt lat="46.11295" lon="6.72302">
        <ele>1582</ele>
        <time>2000-01-01T03:25:23.000Z</time>
      </trkpt>
      <trkpt lat="46.11297" lon="6.72302">
        <ele>1585</ele>
        <time>2000-01-01T03:25:33.000Z</time>
      </trkpt>
      <trkpt lat="46.11299" lon="6.72301">
        <ele>1586.3</ele>
        <time>2000-01-01T03:25:43.000Z</time>
      </trkpt>
      <trkpt lat="46.11303" lon="6.72299">
        <ele>1588.9</ele>
        <time>2000-01-01T03:25:53.000Z</time>
      </trkpt>
      <trkpt lat="46.11306" lon="6.72299">
        <ele>1590.3</ele>
        <time>2000-01-01T03:26:03.000Z</time>
      </trkpt>
      <trkpt lat="46.11308" lon="6.72299">
        <ele>1591.1</ele>
        <time>2000-01-01T03:26:13.000Z</time>
      </trkpt>
      <trkpt lat="46.11309" lon="6.72298">
        <ele>1591.8</ele>
        <time>2000-01-01T03:26:23.000Z</time>
      </trkpt>
      <trkpt lat="46.11309" lon="6.72296">
        <ele>1592.5</ele>
        <time>2000-01-01T03:26:33.000Z</time>
      </trkpt>
      <trkpt lat="46.11309" lon="6.7229">
        <ele>1592</ele>
        <time>2000-01-01T03:26:43.000Z</time>
      </trkpt>
      <trkpt lat="46.11308" lon="6.72286">
        <ele>1595.4</ele>
        <time>2000-01-01T03:26:53.000Z</time>
      </trkpt>
      <trkpt lat="46.11308" lon="6.72285">
        <ele>1595.7</ele>
        <time>2000-01-01T03:27:03.000Z</time>
      </trkpt>
      <trkpt lat="46.11309" lon="6.72285">
        <ele>1596.2</ele>
        <time>2000-01-01T03:27:13.000Z</time>
      </trkpt>
      <trkpt lat="46.11311" lon="6.72285">
        <ele>1597.1</ele>
        <time>2000-01-01T03:27:23.000Z</time>
      </trkpt>
      <trkpt lat="46.11313" lon="6.72287">
        <ele>1597.2</ele>
        <time>2000-01-01T03:27:33.000Z</time>
      </trkpt>
      <trkpt lat="46.11316" lon="6.72286">
        <ele>1598.9</ele>
        <time>2000-01-01T03:27:43.000Z</time>
      </trkpt>
      <trkpt lat="46.11317" lon="6.72286">
        <ele>1599.3</ele>
        <time>2000-01-01T03:27:53.000Z</time>
      </trkpt>
      <trkpt lat="46.11317" lon="6.72284">
        <ele>1600.1</ele>
        <time>2000-01-01T03:28:03.000Z</time>
      </trkpt>
      <trkpt lat="46.11316" lon="6.72279">
        <ele>1601.4</ele>
        <time>2000-01-01T03:28:13.000Z</time>
      </trkpt>
      <trkpt lat="46.11314" lon="6.72274">
        <ele>1601</ele>
        <time>2000-01-01T03:28:23.000Z</time>
      </trkpt>
      <trkpt lat="46.11312" lon="6.72269">
        <ele>1602.7</ele>
        <time>2000-01-01T03:28:33.000Z</time>
      </trkpt>
      <trkpt lat="46.11309" lon="6.72261">
        <ele>1603.6</ele>
        <time>2000-01-01T03:28:43.000Z</time>
      </trkpt>
      <trkpt lat="46.11307" lon="6.72253">
        <ele>1604.9</ele>
        <time>2000-01-01T03:28:53.000Z</time>
      </trkpt>
      <trkpt lat="46.11307" lon="6.72246">
        <ele>1603</ele>
        <time>2000-01-01T03:29:03.000Z</time>
      </trkpt>
      <trkpt lat="46.11305" lon="6.72241">
        <ele>1607.5</ele>
        <time>2000-01-01T03:29:13.000Z</time>
      </trkpt>
      <trkpt lat="46.11305" lon="6.72238">
        <ele>1608.5</ele>
        <time>2000-01-01T03:29:23.000Z</time>
      </trkpt>
      <trkpt lat="46.11306" lon="6.72233">
        <ele>1610.8</ele>
        <time>2000-01-01T03:29:33.000Z</time>
      </trkpt>
      <trkpt lat="46.11305" lon="6.7223">
        <ele>1611</ele>
        <time>2000-01-01T03:29:43.000Z</time>
      </trkpt>
      <trkpt lat="46.11303" lon="6.72221">
        <ele>1612.2</ele>
        <time>2000-01-01T03:29:53.000Z</time>
      </trkpt>
      <trkpt lat="46.11301" lon="6.72209">
        <ele>1609</ele>
        <time>2000-01-01T03:30:03.000Z</time>
      </trkpt>
      <trkpt lat="46.11299" lon="6.72203">
        <ele>1613.8</ele>
        <time>2000-01-01T03:30:13.000Z</time>
      </trkpt>
      <trkpt lat="46.11299" lon="6.72192">
        <ele>1616.6</ele>
        <time>2000-01-01T03:30:23.000Z</time>
      </trkpt>
      <trkpt lat="46.11299" lon="6.72177">
        <ele>1615</ele>
        <time>2000-01-01T03:30:33.000Z</time>
      </trkpt>
      <trkpt lat="46.11298" lon="6.7217">
        <ele>1620.5</ele>
        <time>2000-01-01T03:30:43.000Z</time>
      </trkpt>
      <trkpt lat="46.11296" lon="6.72163">
        <ele>1619.9</ele>
        <time>2000-01-01T03:30:53.000Z</time>
      </trkpt>
      <trkpt lat="46.11295" lon="6.72159">
        <ele>1619.6</ele>
        <time>2000-01-01T03:31:03.000Z</time>
      </trkpt>
      <trkpt lat="46.11295" lon="6.72153">
        <ele>1620.5</ele>
        <time>2000-01-01T03:31:13.000Z</time>
      </trkpt>
      <trkpt lat="46.11294" lon="6.72144">
        <ele>1619</ele>
        <time>2000-01-01T03:31:23.000Z</time>
      </trkpt>
      <trkpt lat="46.11295" lon="6.72137">
        <ele>1622.7</ele>
        <time>2000-01-01T03:31:33.000Z</time>
      </trkpt>
      <trkpt lat="46.11296" lon="6.72133">
        <ele>1624</ele>
        <time>2000-01-01T03:31:43.000Z</time>
      </trkpt>
      <trkpt lat="46.11296" lon="6.72129">
        <ele>1624.5</ele>
        <time>2000-01-01T03:31:53.000Z</time>
      </trkpt>
      <trkpt lat="46.11296" lon="6.7212">
        <ele>1625.4</ele>
        <time>2000-01-01T03:32:03.000Z</time>
      </trkpt>
      <trkpt lat="46.11297" lon="6.72108">
        <ele>1622</ele>
        <time>2000-01-01T03:32:13.000Z</time>
      </trkpt>
      <trkpt lat="46.11299" lon="6.721">
        <ele>1629.7</ele>
        <time>2000-01-01T03:32:23.000Z</time>
      </trkpt>
      <trkpt lat="46.11301" lon="6.72093">
        <ele>1631.8</ele>
        <time>2000-01-01T03:32:33.000Z</time>
      </trkpt>
      <trkpt lat="46.11303" lon="6.72085">
        <ele>1633.8</ele>
        <time>2000-01-01T03:32:43.000Z</time>
      </trkpt>
      <trkpt lat="46.11303" lon="6.72083">
        <ele>1630</ele>
        <time>2000-01-01T03:32:53.000Z</time>
      </trkpt>
      <trkpt lat="46.11305" lon="6.72081">
        <ele>1635.5</ele>
        <time>2000-01-01T03:33:03.000Z</time>
      </trkpt>
      <trkpt lat="46.11306" lon="6.72078">
        <ele>1636.1</ele>
        <time>2000-01-01T03:33:13.000Z</time>
      </trkpt>
      <trkpt lat="46.11307" lon="6.72075">
        <ele>1636.7</ele>
        <time>2000-01-01T03:33:23.000Z</time>
      </trkpt>
      <trkpt lat="46.11313" lon="6.72065">
        <ele>1640.5</ele>
        <time>2000-01-01T03:33:33.000Z</time>
      </trkpt>
      <trkpt lat="46.11316" lon="6.72058">
        <ele>1638</ele>
        <time>2000-01-01T03:33:43.000Z</time>
      </trkpt>
      <trkpt lat="46.1132" lon="6.72051">
        <ele>1644.6</ele>
        <time>2000-01-01T03:33:53.000Z</time>
      </trkpt>
      <trkpt lat="46.11322" lon="6.72046">
        <ele>1645.6</ele>
        <time>2000-01-01T03:34:03.000Z</time>
      </trkpt>
      <trkpt lat="46.11323" lon="6.72042">
        <ele>1646</ele>
        <time>2000-01-01T03:34:13.000Z</time>
      </trkpt>
      <trkpt lat="46.11324" lon="6.72035">
        <ele>1646.1</ele>
        <time>2000-01-01T03:34:23.000Z</time>
      </trkpt>
      <trkpt lat="46.11326" lon="6.72028">
        <ele>1642</ele>
        <time>2000-01-01T03:34:33.000Z</time>
      </trkpt>
      <trkpt lat="46.1133" lon="6.72021">
        <ele>1649.2</ele>
        <time>2000-01-01T03:34:43.000Z</time>
      </trkpt>
      <trkpt lat="46.11336" lon="6.72012">
        <ele>1652.6</ele>
        <time>2000-01-01T03:34:53.000Z</time>
      </trkpt>
      <trkpt lat="46.11339" lon="6.72006">
        <ele>1646</ele>
        <time>2000-01-01T03:35:03.000Z</time>
      </trkpt>
      <trkpt lat="46.11341" lon="6.71997">
        <ele>1654.8</ele>
        <time>2000-01-01T03:35:13.000Z</time>
      </trkpt>
      <trkpt lat="46.11343" lon="6.7199">
        <ele>1655.5</ele>
        <time>2000-01-01T03:35:23.000Z</time>
      </trkpt>
      <trkpt lat="46.11345" lon="6.71979">
        <ele>1653</ele>
        <time>2000-01-01T03:35:33.000Z</time>
      </trkpt>
      <trkpt lat="46.11347" lon="6.7197">
        <ele>1656.7</ele>
        <time>2000-01-01T03:35:43.000Z</time>
      </trkpt>
      <trkpt lat="46.11349" lon="6.71966">
        <ele>1657.7</ele>
        <time>2000-01-01T03:35:53.000Z</time>
      </trkpt>
      <trkpt lat="46.1135" lon="6.71962">
        <ele>1658.1</ele>
        <time>2000-01-01T03:36:03.000Z</time>
      </trkpt>
      <trkpt lat="46.11353" lon="6.71958">
        <ele>1659.7</ele>
        <time>2000-01-01T03:36:13.000Z</time>
      </trkpt>
      <trkpt lat="46.11355" lon="6.71953">
        <ele>1657</ele>
        <time>2000-01-01T03:36:23.000Z</time>
      </trkpt>
      <trkpt lat="46.11359" lon="6.71947">
        <ele>1662.8</ele>
        <time>2000-01-01T03:36:33.000Z</time>
      </trkpt>
      <trkpt lat="46.1136" lon="6.7194">
        <ele>1662.8</ele>
        <time>2000-01-01T03:36:43.000Z</time>
      </trkpt>
      <trkpt lat="46.11368" lon="6.71927">
        <ele>1659</ele>
        <time>2000-01-01T03:36:53.000Z</time>
      </trkpt>
      <trkpt lat="46.11373" lon="6.71917">
        <ele>1668.7</ele>
        <time>2000-01-01T03:37:03.000Z</time>
      </trkpt>
      <trkpt lat="46.11378" lon="6.71909">
        <ele>1670.7</ele>
        <time>2000-01-01T03:37:13.000Z</time>
      </trkpt>
      <trkpt lat="46.11383" lon="6.71899">
        <ele>1669</ele>
        <time>2000-01-01T03:37:23.000Z</time>
      </trkpt>
      <trkpt lat="46.11386" lon="6.71893">
        <ele>1673.6</ele>
        <time>2000-01-01T03:37:33.000Z</time>
      </trkpt>
      <trkpt lat="46.11386" lon="6.7189">
        <ele>1673.2</ele>
        <time>2000-01-01T03:37:43.000Z</time>
      </trkpt>
      <trkpt lat="46.11391" lon="6.71886">
        <ele>1675.8</ele>
        <time>2000-01-01T03:37:53.000Z</time>
      </trkpt>
      <trkpt lat="46.11395" lon="6.71882">
        <ele>1677.6</ele>
        <time>2000-01-01T03:38:03.000Z</time>
      </trkpt>
      <trkpt lat="46.11398" lon="6.71877">
        <ele>1671</ele>
        <time>2000-01-01T03:38:13.000Z</time>
      </trkpt>
      <trkpt lat="46.114" lon="6.71871">
        <ele>1679.1</ele>
        <time>2000-01-01T03:38:23.000Z</time>
      </trkpt>
      <trkpt lat="46.11404" lon="6.71861">
        <ele>1680.3</ele>
        <time>2000-01-01T03:38:33.000Z</time>
      </trkpt>
      <trkpt lat="46.11409" lon="6.71843">
        <ele>1676</ele>
        <time>2000-01-01T03:38:43.000Z</time>
      </trkpt>
      <trkpt lat="46.11411" lon="6.71838">
        <ele>1682.6</ele>
        <time>2000-01-01T03:38:53.000Z</time>
      </trkpt>
      <trkpt lat="46.11411" lon="6.71834">
        <ele>1682.2</ele>
        <time>2000-01-01T03:39:03.000Z</time>
      </trkpt>
      <trkpt lat="46.11411" lon="6.71821">
        <ele>1683</ele>
        <time>2000-01-01T03:39:13.000Z</time>
      </trkpt>
      <trkpt lat="46.1141" lon="6.7181">
        <ele>1678</ele>
        <time>2000-01-01T03:39:23.000Z</time>
      </trkpt>
      <trkpt lat="46.11411" lon="6.71806">
        <ele>1684.1</ele>
        <time>2000-01-01T03:39:33.000Z</time>
      </trkpt>
      <trkpt lat="46.1141" lon="6.71802">
        <ele>1683.9</ele>
        <time>2000-01-01T03:39:43.000Z</time>
      </trkpt>
      <trkpt lat="46.11407" lon="6.71787">
        <ele>1683.6</ele>
        <time>2000-01-01T03:39:53.000Z</time>
      </trkpt>
      <trkpt lat="46.11407" lon="6.71784">
        <ele>1681</ele>
        <time>2000-01-01T03:40:03.000Z</time>
      </trkpt>
      <trkpt lat="46.11407" lon="6.71777">
        <ele>1684.8</ele>
        <time>2000-01-01T03:40:13.000Z</time>
      </trkpt>
      <trkpt lat="46.11408" lon="6.71761">
        <ele>1686</ele>
        <time>2000-01-01T03:40:23.000Z</time>
      </trkpt>
      <trkpt lat="46.11409" lon="6.71751">
        <ele>1683</ele>
        <time>2000-01-01T03:40:33.000Z</time>
      </trkpt>
      <trkpt lat="46.11412" lon="6.71732">
        <ele>1688.9</ele>
        <time>2000-01-01T03:40:43.000Z</time>
      </trkpt>
      <trkpt lat="46.11415" lon="6.7172">
        <ele>1688</ele>
        <time>2000-01-01T03:40:53.000Z</time>
      </trkpt>
      <trkpt lat="46.11415" lon="6.71711">
        <ele>1690.1</ele>
        <time>2000-01-01T03:41:03.000Z</time>
      </trkpt>
      <trkpt lat="46.11416" lon="6.71707">
        <ele>1690.5</ele>
        <time>2000-01-01T03:41:13.000Z</time>
      </trkpt>
      <trkpt lat="46.11417" lon="6.71703">
        <ele>1690.7</ele>
        <time>2000-01-01T03:41:23.000Z</time>
      </trkpt>
      <trkpt lat="46.11419" lon="6.71699">
        <ele>1690.6</ele>
        <time>2000-01-01T03:41:33.000Z</time>
      </trkpt>
      <trkpt lat="46.11421" lon="6.71697">
        <ele>1690.7</ele>
        <time>2000-01-01T03:41:43.000Z</time>
      </trkpt>
      <trkpt lat="46.11423" lon="6.71703">
        <ele>1691</ele>
        <time>2000-01-01T03:41:53.000Z</time>
      </trkpt>
      <trkpt lat="46.11424" lon="6.71708">
        <ele>1692.3</ele>
        <time>2000-01-01T03:42:03.000Z</time>
      </trkpt>
      <trkpt lat="46.11426" lon="6.71712">
        <ele>1693.1</ele>
        <time>2000-01-01T03:42:13.000Z</time>
      </trkpt>
      <trkpt lat="46.11428" lon="6.71715">
        <ele>1693.9</ele>
        <time>2000-01-01T03:42:23.000Z</time>
      </trkpt>
      <trkpt lat="46.1143" lon="6.71725">
        <ele>1695.5</ele>
        <time>2000-01-01T03:42:33.000Z</time>
      </trkpt>
      <trkpt lat="46.11433" lon="6.71733">
        <ele>1698</ele>
        <time>2000-01-01T03:42:43.000Z</time>
      </trkpt>
      <trkpt lat="46.11436" lon="6.71736">
        <ele>1697.9</ele>
        <time>2000-01-01T03:42:53.000Z</time>
      </trkpt>
      <trkpt lat="46.11438" lon="6.7174">
        <ele>1698.9</ele>
        <time>2000-01-01T03:43:03.000Z</time>
      </trkpt>
      <trkpt lat="46.1144" lon="6.71751">
        <ele>1700.4</ele>
        <time>2000-01-01T03:43:13.000Z</time>
      </trkpt>
      <trkpt lat="46.11442" lon="6.71763">
        <ele>1701</ele>
        <time>2000-01-01T03:43:23.000Z</time>
      </trkpt>
      <trkpt lat="46.11445" lon="6.71774">
        <ele>1702.9</ele>
        <time>2000-01-01T03:43:33.000Z</time>
      </trkpt>
      <trkpt lat="46.11449" lon="6.71783">
        <ele>1703.9</ele>
        <time>2000-01-01T03:43:43.000Z</time>
      </trkpt>
      <trkpt lat="46.11455" lon="6.71794">
        <ele>1704</ele>
        <time>2000-01-01T03:43:53.000Z</time>
      </trkpt>
      <trkpt lat="46.11461" lon="6.71806">
        <ele>1709.4</ele>
        <time>2000-01-01T03:44:03.000Z</time>
      </trkpt>
      <trkpt lat="46.11467" lon="6.71816">
        <ele>1711</ele>
        <time>2000-01-01T03:44:13.000Z</time>
      </trkpt>
      <trkpt lat="46.1147" lon="6.71826">
        <ele>1715</ele>
        <time>2000-01-01T03:44:23.000Z</time>
      </trkpt>
      <trkpt lat="46.11475" lon="6.71839">
        <ele>1718.3</ele>
        <time>2000-01-01T03:44:33.000Z</time>
      </trkpt>
      <trkpt lat="46.11479" lon="6.71848">
        <ele>1718</ele>
        <time>2000-01-01T03:44:43.000Z</time>
      </trkpt>
      <trkpt lat="46.11481" lon="6.71855">
        <ele>1722.4</ele>
        <time>2000-01-01T03:44:53.000Z</time>
      </trkpt>
      <trkpt lat="46.11482" lon="6.71861">
        <ele>1723.8</ele>
        <time>2000-01-01T03:45:03.000Z</time>
      </trkpt>
      <trkpt lat="46.11486" lon="6.71869">
        <ele>1726.1</ele>
        <time>2000-01-01T03:45:13.000Z</time>
      </trkpt>
      <trkpt lat="46.11488" lon="6.71876">
        <ele>1725</ele>
        <time>2000-01-01T03:45:23.000Z</time>
      </trkpt>
      <trkpt lat="46.1149" lon="6.71884">
        <ele>1729.9</ele>
        <time>2000-01-01T03:45:33.000Z</time>
      </trkpt>
      <trkpt lat="46.11494" lon="6.71889">
        <ele>1732.4</ele>
        <time>2000-01-01T03:45:43.000Z</time>
      </trkpt>
      <trkpt lat="46.11497" lon="6.71891">
        <ele>1734.1</ele>
        <time>2000-01-01T03:45:53.000Z</time>
      </trkpt>
      <trkpt lat="46.11499" lon="6.71893">
        <ele>1735.4</ele>
        <time>2000-01-01T03:46:03.000Z</time>
      </trkpt>
      <trkpt lat="46.11502" lon="6.71896">
        <ele>1735</ele>
        <time>2000-01-01T03:46:13.000Z</time>
      </trkpt>
      <trkpt lat="46.11503" lon="6.719">
        <ele>1737.6</ele>
        <time>2000-01-01T03:46:23.000Z</time>
      </trkpt>
      <trkpt lat="46.11504" lon="6.71906">
        <ele>1738.9</ele>
        <time>2000-01-01T03:46:33.000Z</time>
      </trkpt>
      <trkpt lat="46.11504" lon="6.71913">
        <ele>1740.5</ele>
        <time>2000-01-01T03:46:43.000Z</time>
      </trkpt>
      <trkpt lat="46.11507" lon="6.71923">
        <ele>1741</ele>
        <time>2000-01-01T03:46:53.000Z</time>
      </trkpt>
      <trkpt lat="46.11508" lon="6.71925">
        <ele>1743.3</ele>
        <time>2000-01-01T03:47:03.000Z</time>
      </trkpt>
      <trkpt lat="46.11509" lon="6.71927">
        <ele>1743.9</ele>
        <time>2000-01-01T03:47:13.000Z</time>
      </trkpt>
      <trkpt lat="46.1151" lon="6.7193">
        <ele>1744.6</ele>
        <time>2000-01-01T03:47:23.000Z</time>
      </trkpt>
      <trkpt lat="46.11511" lon="6.71935">
        <ele>1745.9</ele>
        <time>2000-01-01T03:47:33.000Z</time>
      </trkpt>
      <trkpt lat="46.11514" lon="6.71946">
        <ele>1748.9</ele>
        <time>2000-01-01T03:47:43.000Z</time>
      </trkpt>
      <trkpt lat="46.11516" lon="6.7196">
        <ele>1750</ele>
        <time>2000-01-01T03:47:53.000Z</time>
      </trkpt>
      <trkpt lat="46.11517" lon="6.71969">
        <ele>1754.9</ele>
        <time>2000-01-01T03:48:03.000Z</time>
      </trkpt>
      <trkpt lat="46.11517" lon="6.71985">
        <ele>1758.3</ele>
        <time>2000-01-01T03:48:13.000Z</time>
      </trkpt>
      <trkpt lat="46.11517" lon="6.71996">
        <ele>1759</ele>
        <time>2000-01-01T03:48:23.000Z</time>
      </trkpt>
      <trkpt lat="46.11516" lon="6.72006">
        <ele>1761.7</ele>
        <time>2000-01-01T03:48:33.000Z</time>
      </trkpt>
      <trkpt lat="46.11516" lon="6.72013">
        <ele>1762.5</ele>
        <time>2000-01-01T03:48:43.000Z</time>
      </trkpt>
      <trkpt lat="46.11518" lon="6.72019">
        <ele>1763.8</ele>
        <time>2000-01-01T03:48:53.000Z</time>
      </trkpt>
      <trkpt lat="46.11519" lon="6.72023">
        <ele>1763</ele>
        <time>2000-01-01T03:49:03.000Z</time>
      </trkpt>
      <trkpt lat="46.1152" lon="6.72027">
        <ele>1765.4</ele>
        <time>2000-01-01T03:49:13.000Z</time>
      </trkpt>
      <trkpt lat="46.11523" lon="6.72029">
        <ele>1766.4</ele>
        <time>2000-01-01T03:49:23.000Z</time>
      </trkpt>
      <trkpt lat="46.11525" lon="6.72033">
        <ele>1766.7</ele>
        <time>2000-01-01T03:49:33.000Z</time>
      </trkpt>
      <trkpt lat="46.11528" lon="6.72038">
        <ele>1767.3</ele>
        <time>2000-01-01T03:49:43.000Z</time>
      </trkpt>
      <trkpt lat="46.11529" lon="6.72039">
        <ele>1767.1</ele>
        <time>2000-01-01T03:49:53.000Z</time>
      </trkpt>
      <trkpt lat="46.11532" lon="6.72041">
        <ele>1766.9</ele>
        <time>2000-01-01T03:50:03.000Z</time>
      </trkpt>
      <trkpt lat="46.11535" lon="6.72042">
        <ele>1765</ele>
        <time>2000-01-01T03:50:13.000Z</time>
      </trkpt>
      <trkpt lat="46.11537" lon="6.72044">
        <ele>1766.6</ele>
        <time>2000-01-01T03:50:23.000Z</time>
      </trkpt>
      <trkpt lat="46.11539" lon="6.72049">
        <ele>1766.5</ele>
        <time>2000-01-01T03:50:33.000Z</time>
      </trkpt>
      <trkpt lat="46.11541" lon="6.72056">
        <ele>1766.4</ele>
        <time>2000-01-01T03:50:43.000Z</time>
      </trkpt>
      <trkpt lat="46.11544" lon="6.72058">
        <ele>1766.2</ele>
        <time>2000-01-01T03:50:53.000Z</time>
      </trkpt>
      <trkpt lat="46.11551" lon="6.72064">
        <ele>1765</ele>
        <time>2000-01-01T03:51:03.000Z</time>
      </trkpt>
      <trkpt lat="46.11555" lon="6.72066">
        <ele>1766.2</ele>
        <time>2000-01-01T03:51:13.000Z</time>
      </trkpt>
      <trkpt lat="46.11558" lon="6.72068">
        <ele>1766</ele>
        <time>2000-01-01T03:51:23.000Z</time>
      </trkpt>
      <trkpt lat="46.1156" lon="6.72072">
        <ele>1765.8</ele>
        <time>2000-01-01T03:51:33.000Z</time>
      </trkpt>
      <trkpt lat="46.11562" lon="6.72078">
        <ele>1765.6</ele>
        <time>2000-01-01T03:51:43.000Z</time>
      </trkpt>
      <trkpt lat="46.11567" lon="6.72086">
        <ele>1765</ele>
        <time>2000-01-01T03:51:53.000Z</time>
      </trkpt>
      <trkpt lat="46.11574" lon="6.72093">
        <ele>1765</ele>
        <time>2000-01-01T03:52:03.000Z</time>
      </trkpt>
      <trkpt lat="46.11582" lon="6.72102">
        <ele>1765.4</ele>
        <time>2000-01-01T03:52:13.000Z</time>
      </trkpt>
      <trkpt lat="46.11588" lon="6.72111">
        <ele>1765</ele>
        <time>2000-01-01T03:52:23.000Z</time>
      </trkpt>
      <trkpt lat="46.11596" lon="6.72118">
        <ele>1762.6</ele>
        <time>2000-01-01T03:52:33.000Z</time>
      </trkpt>
      <trkpt lat="46.11606" lon="6.72127">
        <ele>1763</ele>
        <time>2000-01-01T03:52:43.000Z</time>
      </trkpt>
      <trkpt lat="46.11611" lon="6.72129">
        <ele>1761.7</ele>
        <time>2000-01-01T03:52:53.000Z</time>
      </trkpt>
      <trkpt lat="46.11616" lon="6.7213">
        <ele>1761.6</ele>
        <time>2000-01-01T03:53:03.000Z</time>
      </trkpt>
      <trkpt lat="46.11616" lon="6.7213">
        <ele>1761.6</ele>
        <time>2000-01-01T03:53:13.000Z</time>
      </trkpt>
      <trkpt lat="46.11616" lon="6.7213">
        <ele>1761.6</ele>
        <time>2000-01-01T03:53:23.000Z</time>
      </trkpt>
      <trkpt lat="46.11623" lon="6.72134">
        <ele>1761.6</ele>
        <time>2000-01-01T03:53:33.000Z</time>
      </trkpt>
      <trkpt lat="46.11629" lon="6.72136">
        <ele>1762</ele>
        <time>2000-01-01T03:53:43.000Z</time>
      </trkpt>
      <trkpt lat="46.11635" lon="6.72137">
        <ele>1761.8</ele>
        <time>2000-01-01T03:53:53.000Z</time>
      </trkpt>
      <trkpt lat="46.11646" lon="6.72138">
        <ele>1762.2</ele>
        <time>2000-01-01T03:54:03.000Z</time>
      </trkpt>
      <trkpt lat="46.11651" lon="6.72139">
        <ele>1761</ele>
        <time>2000-01-01T03:54:13.000Z</time>
      </trkpt>
      <trkpt lat="46.11653" lon="6.72138">
        <ele>1762.5</ele>
        <time>2000-01-01T03:54:23.000Z</time>
      </trkpt>
      <trkpt lat="46.11658" lon="6.72133">
        <ele>1762.3</ele>
        <time>2000-01-01T03:54:33.000Z</time>
      </trkpt>
      <trkpt lat="46.11661" lon="6.72132">
        <ele>1762.4</ele>
        <time>2000-01-01T03:54:43.000Z</time>
      </trkpt>
      <trkpt lat="46.11667" lon="6.72127">
        <ele>1762.2</ele>
        <time>2000-01-01T03:54:53.000Z</time>
      </trkpt>
      <trkpt lat="46.11675" lon="6.72121">
        <ele>1761</ele>
        <time>2000-01-01T03:55:03.000Z</time>
      </trkpt>
      <trkpt lat="46.1168" lon="6.72115">
        <ele>1762.7</ele>
        <time>2000-01-01T03:55:13.000Z</time>
      </trkpt>
      <trkpt lat="46.11686" lon="6.72112">
        <ele>1763.1</ele>
        <time>2000-01-01T03:55:23.000Z</time>
      </trkpt>
      <trkpt lat="46.11692" lon="6.72108">
        <ele>1762</ele>
        <time>2000-01-01T03:55:33.000Z</time>
      </trkpt>
      <trkpt lat="46.11699" lon="6.72106">
        <ele>1763.9</ele>
        <time>2000-01-01T03:55:43.000Z</time>
      </trkpt>
      <trkpt lat="46.11706" lon="6.72104">
        <ele>1764.3</ele>
        <time>2000-01-01T03:55:53.000Z</time>
      </trkpt>
      <trkpt lat="46.11713" lon="6.72101">
        <ele>1762</ele>
        <time>2000-01-01T03:56:03.000Z</time>
      </trkpt>
      <trkpt lat="46.1172" lon="6.72099">
        <ele>1764.6</ele>
        <time>2000-01-01T03:56:13.000Z</time>
      </trkpt>
      <trkpt lat="46.11725" lon="6.72095">
        <ele>1764.3</ele>
        <time>2000-01-01T03:56:23.000Z</time>
      </trkpt>
      <trkpt lat="46.1173" lon="6.7209">
        <ele>1763.8</ele>
        <time>2000-01-01T03:56:33.000Z</time>
      </trkpt>
      <trkpt lat="46.11735" lon="6.72085">
        <ele>1762</ele>
        <time>2000-01-01T03:56:43.000Z</time>
      </trkpt>
      <trkpt lat="46.11739" lon="6.72083">
        <ele>1763.1</ele>
        <time>2000-01-01T03:56:53.000Z</time>
      </trkpt>
      <trkpt lat="46.11744" lon="6.7208">
        <ele>1762.7</ele>
        <time>2000-01-01T03:57:03.000Z</time>
      </trkpt>
      <trkpt lat="46.11749" lon="6.72078">
        <ele>1762.4</ele>
        <time>2000-01-01T03:57:13.000Z</time>
      </trkpt>
      <trkpt lat="46.11754" lon="6.72077">
        <ele>1760</ele>
        <time>2000-01-01T03:57:23.000Z</time>
      </trkpt>
      <trkpt lat="46.11759" lon="6.72076">
        <ele>1760.9</ele>
        <time>2000-01-01T03:57:33.000Z</time>
      </trkpt>
      <trkpt lat="46.11764" lon="6.72075">
        <ele>1760.1</ele>
        <time>2000-01-01T03:57:43.000Z</time>
      </trkpt>
      <trkpt lat="46.11769" lon="6.72076">
        <ele>1759.8</ele>
        <time>2000-01-01T03:57:53.000Z</time>
      </trkpt>
      <trkpt lat="46.11779" lon="6.72077">
        <ele>1758</ele>
        <time>2000-01-01T03:58:03.000Z</time>
      </trkpt>
      <trkpt lat="46.11788" lon="6.72078">
        <ele>1757.7</ele>
        <time>2000-01-01T03:58:13.000Z</time>
      </trkpt>
      <trkpt lat="46.11796" lon="6.7208">
        <ele>1756.8</ele>
        <time>2000-01-01T03:58:23.000Z</time>
      </trkpt>
      <trkpt lat="46.11808" lon="6.72082">
        <ele>1756</ele>
        <time>2000-01-01T03:58:33.000Z</time>
      </trkpt>
      <trkpt lat="46.11818" lon="6.72085">
        <ele>1754</ele>
        <time>2000-01-01T03:58:43.000Z</time>
      </trkpt>
      <trkpt lat="46.11825" lon="6.72086">
        <ele>1752.9</ele>
        <time>2000-01-01T03:58:53.000Z</time>
      </trkpt>
      <trkpt lat="46.1183" lon="6.72086">
        <ele>1753</ele>
        <time>2000-01-01T03:59:03.000Z</time>
      </trkpt>
      <trkpt lat="46.11834" lon="6.72084">
        <ele>1751</ele>
        <time>2000-01-01T03:59:13.000Z</time>
      </trkpt>
      <trkpt lat="46.1184" lon="6.7208">
        <ele>1749.4</ele>
        <time>2000-01-01T03:59:23.000Z</time>
      </trkpt>
      <trkpt lat="46.11856" lon="6.72071">
        <ele>1747</ele>
        <time>2000-01-01T03:59:33.000Z</time>
      </trkpt>
      <trkpt lat="46.11875" lon="6.72058">
        <ele>1743</ele>
        <time>2000-01-01T03:59:43.000Z</time>
      </trkpt>
      <trkpt lat="46.11881" lon="6.72055">
        <ele>1743.5</ele>
        <time>2000-01-01T03:59:53.000Z</time>
      </trkpt>
      <trkpt lat="46.11886" lon="6.7205">
        <ele>1742.3</ele>
        <time>2000-01-01T04:00:03.000Z</time>
      </trkpt>
      <trkpt lat="46.11891" lon="6.72049">
        <ele>1742.2</ele>
        <time>2000-01-01T04:00:13.000Z</time>
      </trkpt>
      <trkpt lat="46.11895" lon="6.72049">
        <ele>1743</ele>
        <time>2000-01-01T04:00:23.000Z</time>
      </trkpt>
      <trkpt lat="46.11898" lon="6.72047">
        <ele>1742.6</ele>
        <time>2000-01-01T04:00:33.000Z</time>
      </trkpt>
      <trkpt lat="46.11903" lon="6.72046">
        <ele>1743</ele>
        <time>2000-01-01T04:00:43.000Z</time>
      </trkpt>
      <trkpt lat="46.11907" lon="6.72044">
        <ele>1743.2</ele>
        <time>2000-01-01T04:00:53.000Z</time>
      </trkpt>
      <trkpt lat="46.1191" lon="6.72045">
        <ele>1743.6</ele>
        <time>2000-01-01T04:01:03.000Z</time>
      </trkpt>
      <trkpt lat="46.11914" lon="6.72045">
        <ele>1743</ele>
        <time>2000-01-01T04:01:13.000Z</time>
      </trkpt>
      <trkpt lat="46.11917" lon="6.72045">
        <ele>1744.3</ele>
        <time>2000-01-01T04:01:23.000Z</time>
      </trkpt>
      <trkpt lat="46.11921" lon="6.72046">
        <ele>1744.9</ele>
        <time>2000-01-01T04:01:33.000Z</time>
      </trkpt>
      <trkpt lat="46.11923" lon="6.72047">
        <ele>1745.3</ele>
        <time>2000-01-01T04:01:43.000Z</time>
      </trkpt>
      <trkpt lat="46.11925" lon="6.72046">
        <ele>1745.5</ele>
        <time>2000-01-01T04:01:53.000Z</time>
      </trkpt>
      <trkpt lat="46.11928" lon="6.72043">
        <ele>1746</ele>
        <time>2000-01-01T04:02:03.000Z</time>
      </trkpt>
      <trkpt lat="46.11934" lon="6.72039">
        <ele>1746</ele>
        <time>2000-01-01T04:02:13.000Z</time>
      </trkpt>
      <trkpt lat="46.11939" lon="6.72034">
        <ele>1748.8</ele>
        <time>2000-01-01T04:02:23.000Z</time>
      </trkpt>
      <trkpt lat="46.11947" lon="6.72026">
        <ele>1751.4</ele>
        <time>2000-01-01T04:02:33.000Z</time>
      </trkpt>
      <trkpt lat="46.11951" lon="6.72023">
        <ele>1748</ele>
        <time>2000-01-01T04:02:43.000Z</time>
      </trkpt>
      <trkpt lat="46.11953" lon="6.72022">
        <ele>1752.6</ele>
        <time>2000-01-01T04:02:53.000Z</time>
      </trkpt>
      <trkpt lat="46.11958" lon="6.72017">
        <ele>1753.5</ele>
        <time>2000-01-01T04:03:03.000Z</time>
      </trkpt>
      <trkpt lat="46.11963" lon="6.72012">
        <ele>1754.6</ele>
        <time>2000-01-01T04:03:13.000Z</time>
      </trkpt>
      <trkpt lat="46.11969" lon="6.72007">
        <ele>1751</ele>
        <time>2000-01-01T04:03:23.000Z</time>
      </trkpt>
      <trkpt lat="46.11974" lon="6.72003">
        <ele>1757.8</ele>
        <time>2000-01-01T04:03:33.000Z</time>
      </trkpt>
      <trkpt lat="46.11979" lon="6.72001">
        <ele>1759.5</ele>
        <time>2000-01-01T04:03:43.000Z</time>
      </trkpt>
      <trkpt lat="46.11983" lon="6.71998">
        <ele>1760.3</ele>
        <time>2000-01-01T04:03:53.000Z</time>
      </trkpt>
      <trkpt lat="46.11988" lon="6.71995">
        <ele>1758</ele>
        <time>2000-01-01T04:04:03.000Z</time>
      </trkpt>
      <trkpt lat="46.11994" lon="6.71992">
        <ele>1762.5</ele>
        <time>2000-01-01T04:04:13.000Z</time>
      </trkpt>
      <trkpt lat="46.12004" lon="6.71988">
        <ele>1764.9</ele>
        <time>2000-01-01T04:04:23.000Z</time>
      </trkpt>
      <trkpt lat="46.12006" lon="6.71992">
        <ele>1764</ele>
        <time>2000-01-01T04:04:33.000Z</time>
      </trkpt>
      <trkpt lat="46.12009" lon="6.71994">
        <ele>1768.3</ele>
        <time>2000-01-01T04:04:43.000Z</time>
      </trkpt>
      <trkpt lat="46.12014" lon="6.71997">
        <ele>1770.7</ele>
        <time>2000-01-01T04:04:53.000Z</time>
      </trkpt>
      <trkpt lat="46.12018" lon="6.71999">
        <ele>1772.6</ele>
        <time>2000-01-01T04:05:03.000Z</time>
      </trkpt>
      <trkpt lat="46.12021" lon="6.71999">
        <ele>1773.5</ele>
        <time>2000-01-01T04:05:13.000Z</time>
      </trkpt>
      <trkpt lat="46.12026" lon="6.71999">
        <ele>1772</ele>
        <time>2000-01-01T04:05:23.000Z</time>
      </trkpt>
      <trkpt lat="46.12031" lon="6.71999">
        <ele>1776.9</ele>
        <time>2000-01-01T04:05:33.000Z</time>
      </trkpt>
      <trkpt lat="46.12041" lon="6.71997">
        <ele>1780.1</ele>
        <time>2000-01-01T04:05:43.000Z</time>
      </trkpt>
      <trkpt lat="46.12046" lon="6.71996">
        <ele>1779</ele>
        <time>2000-01-01T04:05:53.000Z</time>
      </trkpt>
      <trkpt lat="46.12051" lon="6.71995">
        <ele>1783.3</ele>
        <time>2000-01-01T04:06:03.000Z</time>
      </trkpt>
      <trkpt lat="46.12055" lon="6.71996">
        <ele>1784.9</ele>
        <time>2000-01-01T04:06:13.000Z</time>
      </trkpt>
      <trkpt lat="46.12058" lon="6.71998">
        <ele>1786.4</ele>
        <time>2000-01-01T04:06:23.000Z</time>
      </trkpt>
      <trkpt lat="46.12061" lon="6.71998">
        <ele>1787.3</ele>
        <time>2000-01-01T04:06:33.000Z</time>
      </trkpt>
      <trkpt lat="46.12063" lon="6.71997">
        <ele>1787.8</ele>
        <time>2000-01-01T04:06:43.000Z</time>
      </trkpt>
      <trkpt lat="46.12072" lon="6.71996">
        <ele>1791</ele>
        <time>2000-01-01T04:06:53.000Z</time>
      </trkpt>
      <trkpt lat="46.12082" lon="6.71994">
        <ele>1793.5</ele>
        <time>2000-01-01T04:07:03.000Z</time>
      </trkpt>
      <trkpt lat="46.12089" lon="6.71994">
        <ele>1795.2</ele>
        <time>2000-01-01T04:07:13.000Z</time>
      </trkpt>
      <trkpt lat="46.12092" lon="6.71995">
        <ele>1796</ele>
        <time>2000-01-01T04:07:23.000Z</time>
      </trkpt>
      <trkpt lat="46.12096" lon="6.71994">
        <ele>1796.8</ele>
        <time>2000-01-01T04:07:33.000Z</time>
      </trkpt>
      <trkpt lat="46.12102" lon="6.71991">
        <ele>1797.6</ele>
        <time>2000-01-01T04:07:43.000Z</time>
      </trkpt>
      <trkpt lat="46.12115" lon="6.71989">
        <ele>1798</ele>
        <time>2000-01-01T04:07:53.000Z</time>
      </trkpt>
      <trkpt lat="46.12127" lon="6.71987">
        <ele>1802.3</ele>
        <time>2000-01-01T04:08:03.000Z</time>
      </trkpt>
      <trkpt lat="46.12139" lon="6.71983">
        <ele>1802</ele>
        <time>2000-01-01T04:08:13.000Z</time>
      </trkpt>
      <trkpt lat="46.12147" lon="6.71982">
        <ele>1805.9</ele>
        <time>2000-01-01T04:08:23.000Z</time>
      </trkpt>
      <trkpt lat="46.12155" lon="6.71977">
        <ele>1807.4</ele>
        <time>2000-01-01T04:08:33.000Z</time>
      </trkpt>
      <trkpt lat="46.12162" lon="6.71972">
        <ele>1805</ele>
        <time>2000-01-01T04:08:43.000Z</time>
      </trkpt>
      <trkpt lat="46.12168" lon="6.71969">
        <ele>1809.3</ele>
        <time>2000-01-01T04:08:53.000Z</time>
      </trkpt>
      <trkpt lat="46.12176" lon="6.71964">
        <ele>1808.3</ele>
        <time>2000-01-01T04:09:03.000Z</time>
      </trkpt>
      <trkpt lat="46.12182" lon="6.71962">
        <ele>1805</ele>
        <time>2000-01-01T04:09:13.000Z</time>
      </trkpt>
      <trkpt lat="46.12192" lon="6.7196">
        <ele>1807.8</ele>
        <time>2000-01-01T04:09:23.000Z</time>
      </trkpt>
      <trkpt lat="46.12197" lon="6.71959">
        <ele>1807.8</ele>
        <time>2000-01-01T04:09:33.000Z</time>
      </trkpt>
      <trkpt lat="46.12203" lon="6.71957">
        <ele>1805</ele>
        <time>2000-01-01T04:09:43.000Z</time>
      </trkpt>
      <trkpt lat="46.12208" lon="6.71955">
        <ele>1807.8</ele>
        <time>2000-01-01T04:09:53.000Z</time>
      </trkpt>
      <trkpt lat="46.12212" lon="6.71952">
        <ele>1807.3</ele>
        <time>2000-01-01T04:10:03.000Z</time>
      </trkpt>
      <trkpt lat="46.12216" lon="6.71953">
        <ele>1807.8</ele>
        <time>2000-01-01T04:10:13.000Z</time>
      </trkpt>
      <trkpt lat="46.1222" lon="6.71955">
        <ele>1808.5</ele>
        <time>2000-01-01T04:10:23.000Z</time>
      </trkpt>
      <trkpt lat="46.12225" lon="6.71959">
        <ele>1806</ele>
        <time>2000-01-01T04:10:33.000Z</time>
      </trkpt>
      <trkpt lat="46.12232" lon="6.71963">
        <ele>1813.6</ele>
        <time>2000-01-01T04:10:43.000Z</time>
      </trkpt>
      <trkpt lat="46.12238" lon="6.71963">
        <ele>1815.4</ele>
        <time>2000-01-01T04:10:53.000Z</time>
      </trkpt>
      <trkpt lat="46.12244" lon="6.7196">
        <ele>1810</ele>
        <time>2000-01-01T04:11:03.000Z</time>
      </trkpt>
      <trkpt lat="46.12251" lon="6.71956">
        <ele>1816.9</ele>
        <time>2000-01-01T04:11:13.000Z</time>
      </trkpt>
      <trkpt lat="46.12259" lon="6.71954">
        <ele>1817.7</ele>
        <time>2000-01-01T04:11:23.000Z</time>
      </trkpt>
      <trkpt lat="46.12265" lon="6.71953">
        <ele>1817</ele>
        <time>2000-01-01T04:11:33.000Z</time>
      </trkpt>
      <trkpt lat="46.12268" lon="6.71953">
        <ele>1819.1</ele>
        <time>2000-01-01T04:11:43.000Z</time>
      </trkpt>
      <trkpt lat="46.12271" lon="6.71952">
        <ele>1819.5</ele>
        <time>2000-01-01T04:11:53.000Z</time>
      </trkpt>
      <trkpt lat="46.12274" lon="6.71951">
        <ele>1819.9</ele>
        <time>2000-01-01T04:12:03.000Z</time>
      </trkpt>
      <trkpt lat="46.12277" lon="6.71948">
        <ele>1820.2</ele>
        <time>2000-01-01T04:12:13.000Z</time>
      </trkpt>
      <trkpt lat="46.12281" lon="6.71944">
        <ele>1820.6</ele>
        <time>2000-01-01T04:12:23.000Z</time>
      </trkpt>
      <trkpt lat="46.12285" lon="6.7194">
        <ele>1817</ele>
        <time>2000-01-01T04:12:33.000Z</time>
      </trkpt>
      <trkpt lat="46.1229" lon="6.71936">
        <ele>1820.3</ele>
        <time>2000-01-01T04:12:43.000Z</time>
      </trkpt>
      <trkpt lat="46.12292" lon="6.71936">
        <ele>1820.8</ele>
        <time>2000-01-01T04:12:53.000Z</time>
      </trkpt>
      <trkpt lat="46.12297" lon="6.71937">
        <ele>1822.2</ele>
        <time>2000-01-01T04:13:03.000Z</time>
      </trkpt>
      <trkpt lat="46.12299" lon="6.71937">
        <ele>1822.6</ele>
        <time>2000-01-01T04:13:13.000Z</time>
      </trkpt>
      <trkpt lat="46.12304" lon="6.71937">
        <ele>1820</ele>
        <time>2000-01-01T04:13:23.000Z</time>
      </trkpt>
      <trkpt lat="46.12308" lon="6.71937">
        <ele>1824.6</ele>
        <time>2000-01-01T04:13:33.000Z</time>
      </trkpt>
      <trkpt lat="46.12311" lon="6.71937">
        <ele>1825.3</ele>
        <time>2000-01-01T04:13:43.000Z</time>
      </trkpt>
      <trkpt lat="46.12319" lon="6.71933">
        <ele>1826.1</ele>
        <time>2000-01-01T04:13:53.000Z</time>
      </trkpt>
      <trkpt lat="46.12324" lon="6.7193">
        <ele>1823</ele>
        <time>2000-01-01T04:14:03.000Z</time>
      </trkpt>
      <trkpt lat="46.12329" lon="6.71926">
        <ele>1827.3</ele>
        <time>2000-01-01T04:14:13.000Z</time>
      </trkpt>
      <trkpt lat="46.12331" lon="6.71923">
        <ele>1827.3</ele>
        <time>2000-01-01T04:14:23.000Z</time>
      </trkpt>
      <trkpt lat="46.12334" lon="6.71921">
        <ele>1827.7</ele>
        <time>2000-01-01T04:14:33.000Z</time>
      </trkpt>
      <trkpt lat="46.12336" lon="6.71919">
        <ele>1827.7</ele>
        <time>2000-01-01T04:14:43.000Z</time>
      </trkpt>
      <trkpt lat="46.12338" lon="6.71915">
        <ele>1827.5</ele>
        <time>2000-01-01T04:14:53.000Z</time>
      </trkpt>
      <trkpt lat="46.12343" lon="6.7191">
        <ele>1825</ele>
        <time>2000-01-01T04:15:03.000Z</time>
      </trkpt>
      <trkpt lat="46.12344" lon="6.71909">
        <ele>1827.7</ele>
        <time>2000-01-01T04:15:13.000Z</time>
      </trkpt>
      <trkpt lat="46.12347" lon="6.71907">
        <ele>1828.1</ele>
        <time>2000-01-01T04:15:23.000Z</time>
      </trkpt>
      <trkpt lat="46.12348" lon="6.71905">
        <ele>1828</ele>
        <time>2000-01-01T04:15:33.000Z</time>
      </trkpt>
      <trkpt lat="46.12351" lon="6.71902">
        <ele>1828.4</ele>
        <time>2000-01-01T04:15:43.000Z</time>
      </trkpt>
      <trkpt lat="46.12355" lon="6.71898">
        <ele>1829</ele>
        <time>2000-01-01T04:15:53.000Z</time>
      </trkpt>
      <trkpt lat="46.12359" lon="6.71895">
        <ele>1825</ele>
        <time>2000-01-01T04:16:03.000Z</time>
      </trkpt>
      <trkpt lat="46.12363" lon="6.71897">
        <ele>1831.1</ele>
        <time>2000-01-01T04:16:13.000Z</time>
      </trkpt>
      <trkpt lat="46.12369" lon="6.71896">
        <ele>1832.8</ele>
        <time>2000-01-01T04:16:23.000Z</time>
      </trkpt>
      <trkpt lat="46.12373" lon="6.71895">
        <ele>1834</ele>
        <time>2000-01-01T04:16:33.000Z</time>
      </trkpt>
      <trkpt lat="46.12376" lon="6.71894">
        <ele>1835.1</ele>
        <time>2000-01-01T04:16:43.000Z</time>
      </trkpt>
      <trkpt lat="46.1238" lon="6.71895">
        <ele>1834</ele>
        <time>2000-01-01T04:16:53.000Z</time>
      </trkpt>
      <trkpt lat="46.12383" lon="6.71896">
        <ele>1836.8</ele>
        <time>2000-01-01T04:17:03.000Z</time>
      </trkpt>
      <trkpt lat="46.12385" lon="6.71898">
        <ele>1836.7</ele>
        <time>2000-01-01T04:17:13.000Z</time>
      </trkpt>
      <trkpt lat="46.12388" lon="6.71899">
        <ele>1837.1</ele>
        <time>2000-01-01T04:17:23.000Z</time>
      </trkpt>
      <trkpt lat="46.12392" lon="6.71898">
        <ele>1838.6</ele>
        <time>2000-01-01T04:17:33.000Z</time>
      </trkpt>
      <trkpt lat="46.12395" lon="6.71897">
        <ele>1839.9</ele>
        <time>2000-01-01T04:17:43.000Z</time>
      </trkpt>
      <trkpt lat="46.12399" lon="6.71895">
        <ele>1841</ele>
        <time>2000-01-01T04:17:53.000Z</time>
      </trkpt>
      <trkpt lat="46.12403" lon="6.71893">
        <ele>1844.1</ele>
        <time>2000-01-01T04:18:03.000Z</time>
      </trkpt>
      <trkpt lat="46.12407" lon="6.71891">
        <ele>1846.5</ele>
        <time>2000-01-01T04:18:13.000Z</time>
      </trkpt>
      <trkpt lat="46.12415" lon="6.71893">
        <ele>1848.1</ele>
        <time>2000-01-01T04:18:23.000Z</time>
      </trkpt>
      <trkpt lat="46.12419" lon="6.71893">
        <ele>1848</ele>
        <time>2000-01-01T04:18:33.000Z</time>
      </trkpt>
      <trkpt lat="46.12421" lon="6.71891">
        <ele>1852.1</ele>
        <time>2000-01-01T04:18:43.000Z</time>
      </trkpt>
      <trkpt lat="46.12426" lon="6.71888">
        <ele>1856.1</ele>
        <time>2000-01-01T04:18:53.000Z</time>
      </trkpt>
      <trkpt lat="46.12428" lon="6.71887">
        <ele>1856.9</ele>
        <time>2000-01-01T04:19:03.000Z</time>
      </trkpt>
      <trkpt lat="46.1243" lon="6.71886">
        <ele>1857.7</ele>
        <time>2000-01-01T04:19:13.000Z</time>
      </trkpt>
      <trkpt lat="46.12432" lon="6.71888">
        <ele>1859.5</ele>
        <time>2000-01-01T04:19:23.000Z</time>
      </trkpt>
      <trkpt lat="46.12435" lon="6.71888">
        <ele>1861.3</ele>
        <time>2000-01-01T04:19:33.000Z</time>
      </trkpt>
      <trkpt lat="46.12437" lon="6.71888">
        <ele>1857</ele>
        <time>2000-01-01T04:19:43.000Z</time>
      </trkpt>
      <trkpt lat="46.1244" lon="6.71887">
        <ele>1863.8</ele>
        <time>2000-01-01T04:19:53.000Z</time>
      </trkpt>
      <trkpt lat="46.12443" lon="6.71886">
        <ele>1865.1</ele>
        <time>2000-01-01T04:20:03.000Z</time>
      </trkpt>
      <trkpt lat="46.12447" lon="6.71885">
        <ele>1866.5</ele>
        <time>2000-01-01T04:20:13.000Z</time>
      </trkpt>
      <trkpt lat="46.12455" lon="6.71884">
        <ele>1869</ele>
        <time>2000-01-01T04:20:23.000Z</time>
      </trkpt>
      <trkpt lat="46.12457" lon="6.71884">
        <ele>1869</ele>
        <time>2000-01-01T04:20:33.000Z</time>
      </trkpt>
      <trkpt lat="46.1246" lon="6.71885">
        <ele>1871</ele>
        <time>2000-01-01T04:20:43.000Z</time>
      </trkpt>
      <trkpt lat="46.1246" lon="6.71885">
        <ele>1871</ele>
        <time>2000-01-01T04:20:53.000Z</time>
      </trkpt>
      <trkpt lat="46.1246" lon="6.71885">
        <ele>1871</ele>
        <time>2000-01-01T04:21:03.000Z</time>
      </trkpt>
      <trkpt lat="46.12465" lon="6.71884">
        <ele>1872.6</ele>
        <time>2000-01-01T04:21:13.000Z</time>
      </trkpt>
      <trkpt lat="46.12469" lon="6.71881">
        <ele>1873.4</ele>
        <time>2000-01-01T04:21:23.000Z</time>
      </trkpt>
      <trkpt lat="46.12476" lon="6.71879">
        <ele>1876</ele>
        <time>2000-01-01T04:21:33.000Z</time>
      </trkpt>
      <trkpt lat="46.12481" lon="6.71878">
        <ele>1876.6</ele>
        <time>2000-01-01T04:21:43.000Z</time>
      </trkpt>
      <trkpt lat="46.12484" lon="6.71877">
        <ele>1877.4</ele>
        <time>2000-01-01T04:21:53.000Z</time>
      </trkpt>
      <trkpt lat="46.12485" lon="6.71876">
        <ele>1877.5</ele>
        <time>2000-01-01T04:22:03.000Z</time>
      </trkpt>
      <trkpt lat="46.12486" lon="6.71875">
        <ele>1877.7</ele>
        <time>2000-01-01T04:22:13.000Z</time>
      </trkpt>
      <trkpt lat="46.12489" lon="6.71876">
        <ele>1878.7</ele>
        <time>2000-01-01T04:22:23.000Z</time>
      </trkpt>
      <trkpt lat="46.12491" lon="6.71876">
        <ele>1879.4</ele>
        <time>2000-01-01T04:22:33.000Z</time>
      </trkpt>
      <trkpt lat="46.12494" lon="6.71877">
        <ele>1880.4</ele>
        <time>2000-01-01T04:22:43.000Z</time>
      </trkpt>
      <trkpt lat="46.12497" lon="6.71877">
        <ele>1878</ele>
        <time>2000-01-01T04:22:53.000Z</time>
      </trkpt>
      <trkpt lat="46.12501" lon="6.71876">
        <ele>1881.7</ele>
        <time>2000-01-01T04:23:03.000Z</time>
      </trkpt>
      <trkpt lat="46.12502" lon="6.71875">
        <ele>1881.3</ele>
        <time>2000-01-01T04:23:13.000Z</time>
      </trkpt>
      <trkpt lat="46.12504" lon="6.71876">
        <ele>1880.7</ele>
        <time>2000-01-01T04:23:23.000Z</time>
      </trkpt>
      <trkpt lat="46.12507" lon="6.71876">
        <ele>1879.6</ele>
        <time>2000-01-01T04:23:33.000Z</time>
      </trkpt>
      <trkpt lat="46.1251" lon="6.71875">
        <ele>1878.6</ele>
        <time>2000-01-01T04:23:43.000Z</time>
      </trkpt>
      <trkpt lat="46.12512" lon="6.71874">
        <ele>1877.9</ele>
        <time>2000-01-01T04:23:53.000Z</time>
      </trkpt>
      <trkpt lat="46.12514" lon="6.71875">
        <ele>1877.2</ele>
        <time>2000-01-01T04:24:03.000Z</time>
      </trkpt>
      <trkpt lat="46.12517" lon="6.71877">
        <ele>1873</ele>
        <time>2000-01-01T04:24:13.000Z</time>
      </trkpt>
      <trkpt lat="46.12518" lon="6.71879">
        <ele>1875.7</ele>
        <time>2000-01-01T04:24:23.000Z</time>
      </trkpt>
      <trkpt lat="46.1252" lon="6.71881">
        <ele>1874.8</ele>
        <time>2000-01-01T04:24:33.000Z</time>
      </trkpt>
      <trkpt lat="46.12522" lon="6.71883">
        <ele>1873.9</ele>
        <time>2000-01-01T04:24:43.000Z</time>
      </trkpt>
      <trkpt lat="46.12526" lon="6.71889">
        <ele>1871.7</ele>
        <time>2000-01-01T04:24:53.000Z</time>
      </trkpt>
      <trkpt lat="46.1253" lon="6.71894">
        <ele>1868.4</ele>
        <time>2000-01-01T04:25:03.000Z</time>
      </trkpt>
      <trkpt lat="46.12532" lon="6.71897">
        <ele>1869</ele>
        <time>2000-01-01T04:25:13.000Z</time>
      </trkpt>
      <trkpt lat="46.12534" lon="6.71898">
        <ele>1865.1</ele>
        <time>2000-01-01T04:25:23.000Z</time>
      </trkpt>
      <trkpt lat="46.12537" lon="6.71899">
        <ele>1863.1</ele>
        <time>2000-01-01T04:25:33.000Z</time>
      </trkpt>
      <trkpt lat="46.1254" lon="6.71902">
        <ele>1860.7</ele>
        <time>2000-01-01T04:25:43.000Z</time>
      </trkpt>
      <trkpt lat="46.12542" lon="6.71903">
        <ele>1859.3</ele>
        <time>2000-01-01T04:25:53.000Z</time>
      </trkpt>
      <trkpt lat="46.12545" lon="6.71903">
        <ele>1857.5</ele>
        <time>2000-01-01T04:26:03.000Z</time>
      </trkpt>
      <trkpt lat="46.1255" lon="6.71904">
        <ele>1855</ele>
        <time>2000-01-01T04:26:13.000Z</time>
      </trkpt>
      <trkpt lat="46.12555" lon="6.71905">
        <ele>1851.3</ele>
        <time>2000-01-01T04:26:23.000Z</time>
      </trkpt>
      <trkpt lat="46.12557" lon="6.71906">
        <ele>1850</ele>
        <time>2000-01-01T04:26:33.000Z</time>
      </trkpt>
      <trkpt lat="46.12559" lon="6.71907">
        <ele>1848.8</ele>
        <time>2000-01-01T04:26:43.000Z</time>
      </trkpt>
      <trkpt lat="46.1256" lon="6.71908">
        <ele>1848.1</ele>
        <time>2000-01-01T04:26:53.000Z</time>
      </trkpt>
      <trkpt lat="46.12561" lon="6.71909">
        <ele>1847.4</ele>
        <time>2000-01-01T04:27:03.000Z</time>
      </trkpt>
      <trkpt lat="46.12562" lon="6.7191">
        <ele>1846.7</ele>
        <time>2000-01-01T04:27:13.000Z</time>
      </trkpt>
      <trkpt lat="46.12563" lon="6.7191">
        <ele>1846.2</ele>
        <time>2000-01-01T04:27:23.000Z</time>
      </trkpt>
      <trkpt lat="46.12565" lon="6.7191">
        <ele>1845.3</ele>
        <time>2000-01-01T04:27:33.000Z</time>
      </trkpt>
      <trkpt lat="46.12566" lon="6.7191">
        <ele>1844.8</ele>
        <time>2000-01-01T04:27:43.000Z</time>
      </trkpt>
      <trkpt lat="46.12571" lon="6.71915">
        <ele>1844</ele>
        <time>2000-01-01T04:27:53.000Z</time>
      </trkpt>
      <trkpt lat="46.12576" lon="6.71918">
        <ele>1837.6</ele>
        <time>2000-01-01T04:28:03.000Z</time>
      </trkpt>
      <trkpt lat="46.12578" lon="6.71919">
        <ele>1836.1</ele>
        <time>2000-01-01T04:28:13.000Z</time>
      </trkpt>
      <trkpt lat="46.1258" lon="6.71921">
        <ele>1834</ele>
        <time>2000-01-01T04:28:23.000Z</time>
      </trkpt>
      <trkpt lat="46.12581" lon="6.71922">
        <ele>1833</ele>
        <time>2000-01-01T04:28:33.000Z</time>
      </trkpt>
      <trkpt lat="46.12583" lon="6.71922">
        <ele>1832.1</ele>
        <time>2000-01-01T04:28:43.000Z</time>
      </trkpt>
      <trkpt lat="46.12585" lon="6.71919">
        <ele>1832.9</ele>
        <time>2000-01-01T04:28:53.000Z</time>
      </trkpt>
      <trkpt lat="46.12586" lon="6.71919">
        <ele>1832.5</ele>
        <time>2000-01-01T04:29:03.000Z</time>
      </trkpt>
      <trkpt lat="46.12587" lon="6.7192">
        <ele>1831.5</ele>
        <time>2000-01-01T04:29:13.000Z</time>
      </trkpt>
      <trkpt lat="46.12589" lon="6.7192">
        <ele>1835</ele>
        <time>2000-01-01T04:29:23.000Z</time>
      </trkpt>
      <trkpt lat="46.1259" lon="6.71921">
        <ele>1829.7</ele>
        <time>2000-01-01T04:29:33.000Z</time>
      </trkpt>
      <trkpt lat="46.12592" lon="6.71922">
        <ele>1828.2</ele>
        <time>2000-01-01T04:29:43.000Z</time>
      </trkpt>
      <trkpt lat="46.12593" lon="6.71923">
        <ele>1827.3</ele>
        <time>2000-01-01T04:29:53.000Z</time>
      </trkpt>
      <trkpt lat="46.12594" lon="6.71922">
        <ele>1827.4</ele>
        <time>2000-01-01T04:30:03.000Z</time>
      </trkpt>
      <trkpt lat="46.12595" lon="6.71922">
        <ele>1827</ele>
        <time>2000-01-01T04:30:13.000Z</time>
      </trkpt>
      <trkpt lat="46.12596" lon="6.71924">
        <ele>1825.4</ele>
        <time>2000-01-01T04:30:23.000Z</time>
      </trkpt>
      <trkpt lat="46.12598" lon="6.71925">
        <ele>1824</ele>
        <time>2000-01-01T04:30:33.000Z</time>
      </trkpt>
      <trkpt lat="46.12604" lon="6.71924">
        <ele>1822</ele>
        <time>2000-01-01T04:30:43.000Z</time>
      </trkpt>
      <trkpt lat="46.12608" lon="6.71924">
        <ele>1827</ele>
        <time>2000-01-01T04:30:53.000Z</time>
      </trkpt>
      <trkpt lat="46.12614" lon="6.71926">
        <ele>1817.6</ele>
        <time>2000-01-01T04:31:03.000Z</time>
      </trkpt>
      <trkpt lat="46.1262" lon="6.71929">
        <ele>1815.6</ele>
        <time>2000-01-01T04:31:13.000Z</time>
      </trkpt>
      <trkpt lat="46.12624" lon="6.7193">
        <ele>1815</ele>
        <time>2000-01-01T04:31:23.000Z</time>
      </trkpt>
      <trkpt lat="46.12626" lon="6.71932">
        <ele>1814</ele>
        <time>2000-01-01T04:31:33.000Z</time>
      </trkpt>
      <trkpt lat="46.12629" lon="6.71936">
        <ele>1813.2</ele>
        <time>2000-01-01T04:31:43.000Z</time>
      </trkpt>
      <trkpt lat="46.12631" lon="6.71941">
        <ele>1812.3</ele>
        <time>2000-01-01T04:31:53.000Z</time>
      </trkpt>
      <trkpt lat="46.12634" lon="6.71947">
        <ele>1810.9</ele>
        <time>2000-01-01T04:32:03.000Z</time>
      </trkpt>
      <trkpt lat="46.12636" lon="6.7195">
        <ele>1810</ele>
        <time>2000-01-01T04:32:13.000Z</time>
      </trkpt>
      <trkpt lat="46.1264" lon="6.71954">
        <ele>1812</ele>
        <time>2000-01-01T04:32:23.000Z</time>
      </trkpt>
      <trkpt lat="46.12643" lon="6.71959">
        <ele>1807.2</ele>
        <time>2000-01-01T04:32:33.000Z</time>
      </trkpt>
      <trkpt lat="46.12647" lon="6.71967">
        <ele>1805.1</ele>
        <time>2000-01-01T04:32:43.000Z</time>
      </trkpt>
      <trkpt lat="46.1265" lon="6.7197">
        <ele>1804.9</ele>
        <time>2000-01-01T04:32:53.000Z</time>
      </trkpt>
      <trkpt lat="46.12653" lon="6.71971">
        <ele>1805.2</ele>
        <time>2000-01-01T04:33:03.000Z</time>
      </trkpt>
      <trkpt lat="46.12655" lon="6.71972">
        <ele>1811</ele>
        <time>2000-01-01T04:33:13.000Z</time>
      </trkpt>
      <trkpt lat="46.12657" lon="6.71971">
        <ele>1806</ele>
        <time>2000-01-01T04:33:23.000Z</time>
      </trkpt>
      <trkpt lat="46.12662" lon="6.7197">
        <ele>1807</ele>
        <time>2000-01-01T04:33:33.000Z</time>
      </trkpt>
      <trkpt lat="46.12669" lon="6.71971">
        <ele>1807</ele>
        <time>2000-01-01T04:33:43.000Z</time>
      </trkpt>
      <trkpt lat="46.12673" lon="6.71971">
        <ele>1805.4</ele>
        <time>2000-01-01T04:33:53.000Z</time>
      </trkpt>
      <trkpt lat="46.12676" lon="6.71971">
        <ele>1807</ele>
        <time>2000-01-01T04:34:03.000Z</time>
      </trkpt>
      <trkpt lat="46.12679" lon="6.71975">
        <ele>1802.7</ele>
        <time>2000-01-01T04:34:13.000Z</time>
      </trkpt>
      <trkpt lat="46.12681" lon="6.71977">
        <ele>1801.8</ele>
        <time>2000-01-01T04:34:23.000Z</time>
      </trkpt>
      <trkpt lat="46.12683" lon="6.71983">
        <ele>1800.8</ele>
        <time>2000-01-01T04:34:33.000Z</time>
      </trkpt>
      <trkpt lat="46.12684" lon="6.71992">
        <ele>1800.3</ele>
        <time>2000-01-01T04:34:43.000Z</time>
      </trkpt>
      <trkpt lat="46.12685" lon="6.71996">
        <ele>1802</ele>
        <time>2000-01-01T04:34:53.000Z</time>
      </trkpt>
      <trkpt lat="46.12686" lon="6.72001">
        <ele>1800.4</ele>
        <time>2000-01-01T04:35:03.000Z</time>
      </trkpt>
      <trkpt lat="46.12688" lon="6.72001">
        <ele>1801.1</ele>
        <time>2000-01-01T04:35:13.000Z</time>
      </trkpt>
      <trkpt lat="46.1269" lon="6.72">
        <ele>1801.7</ele>
        <time>2000-01-01T04:35:23.000Z</time>
      </trkpt>
      <trkpt lat="46.12691" lon="6.71998">
        <ele>1801.7</ele>
        <time>2000-01-01T04:35:33.000Z</time>
      </trkpt>
      <trkpt lat="46.12692" lon="6.71995">
        <ele>1801.5</ele>
        <time>2000-01-01T04:35:43.000Z</time>
      </trkpt>
      <trkpt lat="46.12692" lon="6.71993">
        <ele>1801.2</ele>
        <time>2000-01-01T04:35:53.000Z</time>
      </trkpt>
      <trkpt lat="46.12692" lon="6.71991">
        <ele>1800.9</ele>
        <time>2000-01-01T04:36:03.000Z</time>
      </trkpt>
      <trkpt lat="46.12693" lon="6.71988">
        <ele>1800.4</ele>
        <time>2000-01-01T04:36:13.000Z</time>
      </trkpt>
      <trkpt lat="46.12696" lon="6.71982">
        <ele>1799</ele>
        <time>2000-01-01T04:36:23.000Z</time>
      </trkpt>
      <trkpt lat="46.127" lon="6.71977">
        <ele>1796.9</ele>
        <time>2000-01-01T04:36:33.000Z</time>
      </trkpt>
      <trkpt lat="46.12703" lon="6.71971">
        <ele>1795.1</ele>
        <time>2000-01-01T04:36:43.000Z</time>
      </trkpt>
      <trkpt lat="46.12706" lon="6.71965">
        <ele>1794.1</ele>
        <time>2000-01-01T04:36:53.000Z</time>
      </trkpt>
      <trkpt lat="46.12713" lon="6.71959">
        <ele>1791</ele>
        <time>2000-01-01T04:37:03.000Z</time>
      </trkpt>
      <trkpt lat="46.12718" lon="6.7196">
        <ele>1790.4</ele>
        <time>2000-01-01T04:37:13.000Z</time>
      </trkpt>
      <trkpt lat="46.12721" lon="6.71961">
        <ele>1789.7</ele>
        <time>2000-01-01T04:37:23.000Z</time>
      </trkpt>
      <trkpt lat="46.12725" lon="6.71961">
        <ele>1789.1</ele>
        <time>2000-01-01T04:37:33.000Z</time>
      </trkpt>
      <trkpt lat="46.12729" lon="6.71963">
        <ele>1789</ele>
        <time>2000-01-01T04:37:43.000Z</time>
      </trkpt>
      <trkpt lat="46.12731" lon="6.71963">
        <ele>1788.8</ele>
        <time>2000-01-01T04:37:53.000Z</time>
      </trkpt>
      <trkpt lat="46.12737" lon="6.71961">
        <ele>1786</ele>
        <time>2000-01-01T04:38:03.000Z</time>
      </trkpt>
      <trkpt lat="46.1274" lon="6.71959">
        <ele>1787.2</ele>
        <time>2000-01-01T04:38:13.000Z</time>
      </trkpt>
      <trkpt lat="46.12741" lon="6.71955">
        <ele>1786.3</ele>
        <time>2000-01-01T04:38:23.000Z</time>
      </trkpt>
      <trkpt lat="46.12741" lon="6.71949">
        <ele>1785.2</ele>
        <time>2000-01-01T04:38:33.000Z</time>
      </trkpt>
      <trkpt lat="46.12742" lon="6.71944">
        <ele>1784.1</ele>
        <time>2000-01-01T04:38:43.000Z</time>
      </trkpt>
      <trkpt lat="46.12744" lon="6.71938">
        <ele>1783.2</ele>
        <time>2000-01-01T04:38:53.000Z</time>
      </trkpt>
      <trkpt lat="46.12746" lon="6.71933">
        <ele>1782</ele>
        <time>2000-01-01T04:39:03.000Z</time>
      </trkpt>
      <trkpt lat="46.12749" lon="6.71928">
        <ele>1780.9</ele>
        <time>2000-01-01T04:39:13.000Z</time>
      </trkpt>
      <trkpt lat="46.12752" lon="6.71924">
        <ele>1780</ele>
        <time>2000-01-01T04:39:23.000Z</time>
      </trkpt>
      <trkpt lat="46.12761" lon="6.71917">
        <ele>1777</ele>
        <time>2000-01-01T04:39:33.000Z</time>
      </trkpt>
      <trkpt lat="46.12767" lon="6.71912">
        <ele>1777.4</ele>
        <time>2000-01-01T04:39:43.000Z</time>
      </trkpt>
      <trkpt lat="46.12769" lon="6.7191">
        <ele>1777</ele>
        <time>2000-01-01T04:39:53.000Z</time>
      </trkpt>
      <trkpt lat="46.1277" lon="6.71908">
        <ele>1776.7</ele>
        <time>2000-01-01T04:40:03.000Z</time>
      </trkpt>
      <trkpt lat="46.12775" lon="6.71906">
        <ele>1775.8</ele>
        <time>2000-01-01T04:40:13.000Z</time>
      </trkpt>
      <trkpt lat="46.12783" lon="6.71902">
        <ele>1772</ele>
        <time>2000-01-01T04:40:23.000Z</time>
      </trkpt>
      <trkpt lat="46.12785" lon="6.719">
        <ele>1773.7</ele>
        <time>2000-01-01T04:40:33.000Z</time>
      </trkpt>
      <trkpt lat="46.12789" lon="6.71896">
        <ele>1772.2</ele>
        <time>2000-01-01T04:40:43.000Z</time>
      </trkpt>
      <trkpt lat="46.12791" lon="6.71895">
        <ele>1771.7</ele>
        <time>2000-01-01T04:40:53.000Z</time>
      </trkpt>
      <trkpt lat="46.12794" lon="6.71894">
        <ele>1770.9</ele>
        <time>2000-01-01T04:41:03.000Z</time>
      </trkpt>
      <trkpt lat="46.12797" lon="6.71894">
        <ele>1770.3</ele>
        <time>2000-01-01T04:41:13.000Z</time>
      </trkpt>
      <trkpt lat="46.128" lon="6.71891">
        <ele>1770</ele>
        <time>2000-01-01T04:41:23.000Z</time>
      </trkpt>
      <trkpt lat="46.12802" lon="6.71888">
        <ele>1767.6</ele>
        <time>2000-01-01T04:41:33.000Z</time>
      </trkpt>
      <trkpt lat="46.12803" lon="6.71885">
        <ele>1766.8</ele>
        <time>2000-01-01T04:41:43.000Z</time>
      </trkpt>
      <trkpt lat="46.12805" lon="6.7188">
        <ele>1765.2</ele>
        <time>2000-01-01T04:41:53.000Z</time>
      </trkpt>
      <trkpt lat="46.12806" lon="6.71877">
        <ele>1764.4</ele>
        <time>2000-01-01T04:42:03.000Z</time>
      </trkpt>
      <trkpt lat="46.12807" lon="6.71875">
        <ele>1763.8</ele>
        <time>2000-01-01T04:42:13.000Z</time>
      </trkpt>
      <trkpt lat="46.12813" lon="6.7187">
        <ele>1759</ele>
        <time>2000-01-01T04:42:23.000Z</time>
      </trkpt>
      <trkpt lat="46.12816" lon="6.71866">
        <ele>1759.8</ele>
        <time>2000-01-01T04:42:33.000Z</time>
      </trkpt>
      <trkpt lat="46.12818" lon="6.71866">
        <ele>1759.3</ele>
        <time>2000-01-01T04:42:43.000Z</time>
      </trkpt>
      <trkpt lat="46.12826" lon="6.71863">
        <ele>1756.5</ele>
        <time>2000-01-01T04:42:53.000Z</time>
      </trkpt>
      <trkpt lat="46.12828" lon="6.71861">
        <ele>1755.3</ele>
        <time>2000-01-01T04:43:03.000Z</time>
      </trkpt>
      <trkpt lat="46.1283" lon="6.71859">
        <ele>1754.2</ele>
        <time>2000-01-01T04:43:13.000Z</time>
      </trkpt>
      <trkpt lat="46.12834" lon="6.71855">
        <ele>1750</ele>
        <time>2000-01-01T04:43:23.000Z</time>
      </trkpt>
      <trkpt lat="46.12841" lon="6.71848">
        <ele>1750.2</ele>
        <time>2000-01-01T04:43:33.000Z</time>
      </trkpt>
      <trkpt lat="46.12847" lon="6.71841">
        <ele>1748.1</ele>
        <time>2000-01-01T04:43:43.000Z</time>
      </trkpt>
      <trkpt lat="46.12853" lon="6.71835">
        <ele>1742</ele>
        <time>2000-01-01T04:43:53.000Z</time>
      </trkpt>
      <trkpt lat="46.12858" lon="6.71831">
        <ele>1745.1</ele>
        <time>2000-01-01T04:44:03.000Z</time>
      </trkpt>
      <trkpt lat="46.12859" lon="6.71829">
        <ele>1744.4</ele>
        <time>2000-01-01T04:44:13.000Z</time>
      </trkpt>
      <trkpt lat="46.1286" lon="6.71827">
        <ele>1743.7</ele>
        <time>2000-01-01T04:44:23.000Z</time>
      </trkpt>
      <trkpt lat="46.12863" lon="6.71824">
        <ele>1742.9</ele>
        <time>2000-01-01T04:44:33.000Z</time>
      </trkpt>
      <trkpt lat="46.12865" lon="6.71823">
        <ele>1742.8</ele>
        <time>2000-01-01T04:44:43.000Z</time>
      </trkpt>
      <trkpt lat="46.12867" lon="6.71819">
        <ele>1741.6</ele>
        <time>2000-01-01T04:44:53.000Z</time>
      </trkpt>
      <trkpt lat="46.12871" lon="6.71811">
        <ele>1738</ele>
        <time>2000-01-01T04:45:03.000Z</time>
      </trkpt>
      <trkpt lat="46.12874" lon="6.71808">
        <ele>1738.3</ele>
        <time>2000-01-01T04:45:13.000Z</time>
      </trkpt>
      <trkpt lat="46.12878" lon="6.71804">
        <ele>1737.3</ele>
        <time>2000-01-01T04:45:23.000Z</time>
      </trkpt>
      <trkpt lat="46.12881" lon="6.71799">
        <ele>1736.1</ele>
        <time>2000-01-01T04:45:33.000Z</time>
      </trkpt>
      <trkpt lat="46.12885" lon="6.71793">
        <ele>1732</ele>
        <time>2000-01-01T04:45:43.000Z</time>
      </trkpt>
      <trkpt lat="46.12887" lon="6.71791">
        <ele>1734.1</ele>
        <time>2000-01-01T04:45:53.000Z</time>
      </trkpt>
      <trkpt lat="46.12889" lon="6.71789">
        <ele>1733.7</ele>
        <time>2000-01-01T04:46:03.000Z</time>
      </trkpt>
      <trkpt lat="46.12891" lon="6.71786">
        <ele>1733.1</ele>
        <time>2000-01-01T04:46:13.000Z</time>
      </trkpt>
      <trkpt lat="46.12894" lon="6.71782">
        <ele>1732.3</ele>
        <time>2000-01-01T04:46:23.000Z</time>
      </trkpt>
      <trkpt lat="46.12899" lon="6.71775">
        <ele>1728</ele>
        <time>2000-01-01T04:46:33.000Z</time>
      </trkpt>
      <trkpt lat="46.12901" lon="6.71768">
        <ele>1730.3</ele>
        <time>2000-01-01T04:46:43.000Z</time>
      </trkpt>
      <trkpt lat="46.12902" lon="6.71763">
        <ele>1729.4</ele>
        <time>2000-01-01T04:46:53.000Z</time>
      </trkpt>
      <trkpt lat="46.12904" lon="6.71755">
        <ele>1728.2</ele>
        <time>2000-01-01T04:47:03.000Z</time>
      </trkpt>
      <trkpt lat="46.12903" lon="6.71749">
        <ele>1726.9</ele>
        <time>2000-01-01T04:47:13.000Z</time>
      </trkpt>
      <trkpt lat="46.12903" lon="6.71741">
        <ele>1724</ele>
        <time>2000-01-01T04:47:23.000Z</time>
      </trkpt>
      <trkpt lat="46.12903" lon="6.7174">
        <ele>1725.6</ele>
        <time>2000-01-01T04:47:33.000Z</time>
      </trkpt>
      <trkpt lat="46.12903" lon="6.71728">
        <ele>1723.9</ele>
        <time>2000-01-01T04:47:43.000Z</time>
      </trkpt>
      <trkpt lat="46.12903" lon="6.7172">
        <ele>1722.8</ele>
        <time>2000-01-01T04:47:53.000Z</time>
      </trkpt>
      <trkpt lat="46.12904" lon="6.71713">
        <ele>1720</ele>
        <time>2000-01-01T04:48:03.000Z</time>
      </trkpt>
      <trkpt lat="46.12905" lon="6.71705">
        <ele>1721.7</ele>
        <time>2000-01-01T04:48:13.000Z</time>
      </trkpt>
      <trkpt lat="46.12905" lon="6.71698">
        <ele>1721.1</ele>
        <time>2000-01-01T04:48:23.000Z</time>
      </trkpt>
      <trkpt lat="46.12905" lon="6.7169">
        <ele>1720.3</ele>
        <time>2000-01-01T04:48:33.000Z</time>
      </trkpt>
      <trkpt lat="46.12905" lon="6.7168">
        <ele>1717</ele>
        <time>2000-01-01T04:48:43.000Z</time>
      </trkpt>
      <trkpt lat="46.12905" lon="6.71669">
        <ele>1718.4</ele>
        <time>2000-01-01T04:48:53.000Z</time>
      </trkpt>
      <trkpt lat="46.12907" lon="6.71662">
        <ele>1718</ele>
        <time>2000-01-01T04:49:03.000Z</time>
      </trkpt>
      <trkpt lat="46.12909" lon="6.71654">
        <ele>1716</ele>
        <time>2000-01-01T04:49:13.000Z</time>
      </trkpt>
      <trkpt lat="46.1291" lon="6.71651">
        <ele>1717.2</ele>
        <time>2000-01-01T04:49:23.000Z</time>
      </trkpt>
      <trkpt lat="46.12912" lon="6.71648">
        <ele>1717</ele>
        <time>2000-01-01T04:49:33.000Z</time>
      </trkpt>
      <trkpt lat="46.12914" lon="6.71644">
        <ele>1716.6</ele>
        <time>2000-01-01T04:49:43.000Z</time>
      </trkpt>
      <trkpt lat="46.12916" lon="6.7164">
        <ele>1716.1</ele>
        <time>2000-01-01T04:49:53.000Z</time>
      </trkpt>
      <trkpt lat="46.12918" lon="6.71635">
        <ele>1716.4</ele>
        <time>2000-01-01T04:50:03.000Z</time>
      </trkpt>
      <trkpt lat="46.12921" lon="6.7163">
        <ele>1715</ele>
        <time>2000-01-01T04:50:13.000Z</time>
      </trkpt>
      <trkpt lat="46.12925" lon="6.71625">
        <ele>1717.6</ele>
        <time>2000-01-01T04:50:23.000Z</time>
      </trkpt>
      <trkpt lat="46.12926" lon="6.71623">
        <ele>1717.7</ele>
        <time>2000-01-01T04:50:33.000Z</time>
      </trkpt>
      <trkpt lat="46.12927" lon="6.71618">
        <ele>1717.4</ele>
        <time>2000-01-01T04:50:43.000Z</time>
      </trkpt>
      <trkpt lat="46.12929" lon="6.71612">
        <ele>1717</ele>
        <time>2000-01-01T04:50:53.000Z</time>
      </trkpt>
      <trkpt lat="46.12933" lon="6.71603">
        <ele>1713</ele>
        <time>2000-01-01T04:51:03.000Z</time>
      </trkpt>
      <trkpt lat="46.12934" lon="6.716">
        <ele>1716.1</ele>
        <time>2000-01-01T04:51:13.000Z</time>
      </trkpt>
      <trkpt lat="46.12937" lon="6.71598">
        <ele>1715.6</ele>
        <time>2000-01-01T04:51:23.000Z</time>
      </trkpt>
      <trkpt lat="46.1294" lon="6.71597">
        <ele>1715.3</ele>
        <time>2000-01-01T04:51:33.000Z</time>
      </trkpt>
      <trkpt lat="46.12942" lon="6.71595">
        <ele>1714.8</ele>
        <time>2000-01-01T04:51:43.000Z</time>
      </trkpt>
      <trkpt lat="46.12943" lon="6.71592">
        <ele>1714.1</ele>
        <time>2000-01-01T04:51:53.000Z</time>
      </trkpt>
      <trkpt lat="46.12944" lon="6.71587">
        <ele>1712.9</ele>
        <time>2000-01-01T04:52:03.000Z</time>
      </trkpt>
      <trkpt lat="46.12943" lon="6.71583">
        <ele>1712</ele>
        <time>2000-01-01T04:52:13.000Z</time>
      </trkpt>
      <trkpt lat="46.12943" lon="6.71579">
        <ele>1711.9</ele>
        <time>2000-01-01T04:52:23.000Z</time>
      </trkpt>
      <trkpt lat="46.12945" lon="6.71575">
        <ele>1711.3</ele>
        <time>2000-01-01T04:52:33.000Z</time>
      </trkpt>
      <trkpt lat="46.12947" lon="6.7157">
        <ele>1711.3</ele>
        <time>2000-01-01T04:52:43.000Z</time>
      </trkpt>
      <trkpt lat="46.12949" lon="6.71564">
        <ele>1711.1</ele>
        <time>2000-01-01T04:52:53.000Z</time>
      </trkpt>
      <trkpt lat="46.1295" lon="6.71557">
        <ele>1707</ele>
        <time>2000-01-01T04:53:03.000Z</time>
      </trkpt>
      <trkpt lat="46.12954" lon="6.71543">
        <ele>1710</ele>
        <time>2000-01-01T04:53:13.000Z</time>
      </trkpt>
      <trkpt lat="46.12957" lon="6.71532">
        <ele>1709.3</ele>
        <time>2000-01-01T04:53:23.000Z</time>
      </trkpt>
      <trkpt lat="46.12959" lon="6.71526">
        <ele>1704</ele>
        <time>2000-01-01T04:53:33.000Z</time>
      </trkpt>
      <trkpt lat="46.12959" lon="6.71517">
        <ele>1707.3</ele>
        <time>2000-01-01T04:53:43.000Z</time>
      </trkpt>
      <trkpt lat="46.12962" lon="6.71503">
        <ele>1705.2</ele>
        <time>2000-01-01T04:53:53.000Z</time>
      </trkpt>
      <trkpt lat="46.12963" lon="6.71486">
        <ele>1700</ele>
        <time>2000-01-01T04:54:03.000Z</time>
      </trkpt>
      <trkpt lat="46.12964" lon="6.71479">
        <ele>1702.4</ele>
        <time>2000-01-01T04:54:13.000Z</time>
      </trkpt>
      <trkpt lat="46.12963" lon="6.71472">
        <ele>1701.7</ele>
        <time>2000-01-01T04:54:23.000Z</time>
      </trkpt>
      <trkpt lat="46.12963" lon="6.71468">
        <ele>1701.4</ele>
        <time>2000-01-01T04:54:33.000Z</time>
      </trkpt>
      <trkpt lat="46.12963" lon="6.71466">
        <ele>1701.2</ele>
        <time>2000-01-01T04:54:43.000Z</time>
      </trkpt>
      <trkpt lat="46.12964" lon="6.71464">
        <ele>1701.1</ele>
        <time>2000-01-01T04:54:53.000Z</time>
      </trkpt>
      <trkpt lat="46.12963" lon="6.71462">
        <ele>1700.9</ele>
        <time>2000-01-01T04:55:03.000Z</time>
      </trkpt>
      <trkpt lat="46.12963" lon="6.7146">
        <ele>1698</ele>
        <time>2000-01-01T04:55:13.000Z</time>
      </trkpt>
      <trkpt lat="46.12962" lon="6.71454">
        <ele>1700.3</ele>
        <time>2000-01-01T04:55:23.000Z</time>
      </trkpt>
      <trkpt lat="46.12961" lon="6.71446">
        <ele>1699.5</ele>
        <time>2000-01-01T04:55:33.000Z</time>
      </trkpt>
      <trkpt lat="46.12961" lon="6.71437">
        <ele>1698.8</ele>
        <time>2000-01-01T04:55:43.000Z</time>
      </trkpt>
      <trkpt lat="46.12961" lon="6.71427">
        <ele>1696</ele>
        <time>2000-01-01T04:55:53.000Z</time>
      </trkpt>
      <trkpt lat="46.1296" lon="6.71421">
        <ele>1697.6</ele>
        <time>2000-01-01T04:56:03.000Z</time>
      </trkpt>
      <trkpt lat="46.12958" lon="6.71422">
        <ele>1697.3</ele>
        <time>2000-01-01T04:56:13.000Z</time>
      </trkpt>
      <trkpt lat="46.12954" lon="6.71424">
        <ele>1696.9</ele>
        <time>2000-01-01T04:56:23.000Z</time>
      </trkpt>
      <trkpt lat="46.1295" lon="6.71426">
        <ele>1696.5</ele>
        <time>2000-01-01T04:56:33.000Z</time>
      </trkpt>
      <trkpt lat="46.12946" lon="6.71426">
        <ele>1695</ele>
        <time>2000-01-01T04:56:43.000Z</time>
      </trkpt>
      <trkpt lat="46.12942" lon="6.71424">
        <ele>1695.6</ele>
        <time>2000-01-01T04:56:53.000Z</time>
      </trkpt>
      <trkpt lat="46.12943" lon="6.71422">
        <ele>1695.4</ele>
        <time>2000-01-01T04:57:03.000Z</time>
      </trkpt>
      <trkpt lat="46.12946" lon="6.71419">
        <ele>1695.4</ele>
        <time>2000-01-01T04:57:13.000Z</time>
      </trkpt>
      <trkpt lat="46.12948" lon="6.71417">
        <ele>1695.5</ele>
        <time>2000-01-01T04:57:23.000Z</time>
      </trkpt>
      <trkpt lat="46.1295" lon="6.71413">
        <ele>1695.4</ele>
        <time>2000-01-01T04:57:33.000Z</time>
      </trkpt>
      <trkpt lat="46.12951" lon="6.71409">
        <ele>1694</ele>
        <time>2000-01-01T04:57:43.000Z</time>
      </trkpt>
      <trkpt lat="46.12952" lon="6.71404">
        <ele>1694.8</ele>
        <time>2000-01-01T04:57:53.000Z</time>
      </trkpt>
      <trkpt lat="46.12952" lon="6.71399">
        <ele>1694.4</ele>
        <time>2000-01-01T04:58:03.000Z</time>
      </trkpt>
      <trkpt lat="46.12953" lon="6.71396">
        <ele>1694.2</ele>
        <time>2000-01-01T04:58:13.000Z</time>
      </trkpt>
      <trkpt lat="46.12955" lon="6.71386">
        <ele>1693.6</ele>
        <time>2000-01-01T04:58:23.000Z</time>
      </trkpt>
      <trkpt lat="46.12956" lon="6.71382">
        <ele>1691</ele>
        <time>2000-01-01T04:58:33.000Z</time>
      </trkpt>
      <trkpt lat="46.1296" lon="6.71376">
        <ele>1693.7</ele>
        <time>2000-01-01T04:58:43.000Z</time>
      </trkpt>
      <trkpt lat="46.12962" lon="6.71374">
        <ele>1693.9</ele>
        <time>2000-01-01T04:58:53.000Z</time>
      </trkpt>
      <trkpt lat="46.12964" lon="6.7137">
        <ele>1694</ele>
        <time>2000-01-01T04:59:03.000Z</time>
      </trkpt>
      <trkpt lat="46.12965" lon="6.71367">
        <ele>1693.9</ele>
        <time>2000-01-01T04:59:13.000Z</time>
      </trkpt>
      <trkpt lat="46.12964" lon="6.71364">
        <ele>1693.5</ele>
        <time>2000-01-01T04:59:23.000Z</time>
      </trkpt>
      <trkpt lat="46.12965" lon="6.71358">
        <ele>1691</ele>
        <time>2000-01-01T04:59:33.000Z</time>
      </trkpt>
      <trkpt lat="46.12963" lon="6.71353">
        <ele>1692.8</ele>
        <time>2000-01-01T04:59:43.000Z</time>
      </trkpt>
      <trkpt lat="46.12964" lon="6.7134">
        <ele>1692.8</ele>
        <time>2000-01-01T04:59:53.000Z</time>
      </trkpt>
      <trkpt lat="46.12965" lon="6.7133">
        <ele>1691</ele>
        <time>2000-01-01T05:00:03.000Z</time>
      </trkpt>
      <trkpt lat="46.12965" lon="6.71323">
        <ele>1692.1</ele>
        <time>2000-01-01T05:00:13.000Z</time>
      </trkpt>
      <trkpt lat="46.12965" lon="6.71315">
        <ele>1691.4</ele>
        <time>2000-01-01T05:00:23.000Z</time>
      </trkpt>
      <trkpt lat="46.12965" lon="6.71307">
        <ele>1690.8</ele>
        <time>2000-01-01T05:00:33.000Z</time>
      </trkpt>
      <trkpt lat="46.12964" lon="6.71299">
        <ele>1687</ele>
        <time>2000-01-01T05:00:43.000Z</time>
      </trkpt>
      <trkpt lat="46.12965" lon="6.71292">
        <ele>1689.7</ele>
        <time>2000-01-01T05:00:53.000Z</time>
      </trkpt>
      <trkpt lat="46.12967" lon="6.71279">
        <ele>1689.4</ele>
        <time>2000-01-01T05:01:03.000Z</time>
      </trkpt>
      <trkpt lat="46.12967" lon="6.71267">
        <ele>1687</ele>
        <time>2000-01-01T05:01:13.000Z</time>
      </trkpt>
      <trkpt lat="46.12963" lon="6.71253">
        <ele>1687.7</ele>
        <time>2000-01-01T05:01:23.000Z</time>
      </trkpt>
      <trkpt lat="46.12963" lon="6.71253">
        <ele>1687.7</ele>
        <time>2000-01-01T05:01:33.000Z</time>
      </trkpt>
      <trkpt lat="46.12963" lon="6.71248">
        <ele>1687.6</ele>
        <time>2000-01-01T05:01:43.000Z</time>
      </trkpt>
      <trkpt lat="46.12963" lon="6.71221">
        <ele>1686</ele>
        <time>2000-01-01T05:01:53.000Z</time>
      </trkpt>
      <trkpt lat="46.12962" lon="6.71192">
        <ele>1686</ele>
        <time>2000-01-01T05:02:03.000Z</time>
      </trkpt>
      <trkpt lat="46.12961" lon="6.71165">
        <ele>1686</ele>
        <time>2000-01-01T05:02:13.000Z</time>
      </trkpt>
      <trkpt lat="46.1296" lon="6.71154">
        <ele>1686.7</ele>
        <time>2000-01-01T05:02:23.000Z</time>
      </trkpt>
      <trkpt lat="46.12967" lon="6.71149">
        <ele>1685.8</ele>
        <time>2000-01-01T05:02:33.000Z</time>
      </trkpt>
      <trkpt lat="46.12974" lon="6.71139">
        <ele>1685</ele>
        <time>2000-01-01T05:02:43.000Z</time>
      </trkpt>
      <trkpt lat="46.12975" lon="6.71132">
        <ele>1684.1</ele>
        <time>2000-01-01T05:02:53.000Z</time>
      </trkpt>
      <trkpt lat="46.12976" lon="6.7112">
        <ele>1683.1</ele>
        <time>2000-01-01T05:03:03.000Z</time>
      </trkpt>
      <trkpt lat="46.12974" lon="6.71094">
        <ele>1684</ele>
        <time>2000-01-01T05:03:13.000Z</time>
      </trkpt>
      <trkpt lat="46.1297" lon="6.71059">
        <ele>1683</ele>
        <time>2000-01-01T05:03:23.000Z</time>
      </trkpt>
      <trkpt lat="46.1297" lon="6.71033">
        <ele>1681.5</ele>
        <time>2000-01-01T05:03:33.000Z</time>
      </trkpt>
      <trkpt lat="46.12976" lon="6.7101">
        <ele>1681</ele>
        <time>2000-01-01T05:03:43.000Z</time>
      </trkpt>
      <trkpt lat="46.12976" lon="6.7101">
        <ele>1681.3</ele>
        <time>2000-01-01T05:03:53.000Z</time>
      </trkpt>
      <trkpt lat="46.12983" lon="6.70987">
        <ele>1680.8</ele>
        <time>2000-01-01T05:04:03.000Z</time>
      </trkpt>
      <trkpt lat="46.12984" lon="6.70961">
        <ele>1681</ele>
        <time>2000-01-01T05:04:13.000Z</time>
      </trkpt>
      <trkpt lat="46.12983" lon="6.70937">
        <ele>1681.3</ele>
        <time>2000-01-01T05:04:23.000Z</time>
      </trkpt>
      <trkpt lat="46.12978" lon="6.70932">
        <ele>1680</ele>
        <time>2000-01-01T05:04:33.000Z</time>
      </trkpt>
      <trkpt lat="46.12977" lon="6.70925">
        <ele>1681.7</ele>
        <time>2000-01-01T05:04:43.000Z</time>
      </trkpt>
      <trkpt lat="46.12977" lon="6.7092">
        <ele>1681.6</ele>
        <time>2000-01-01T05:04:53.000Z</time>
      </trkpt>
      <trkpt lat="46.12975" lon="6.70898">
        <ele>1680</ele>
        <time>2000-01-01T05:05:03.000Z</time>
      </trkpt>
      <trkpt lat="46.12976" lon="6.70876">
        <ele>1679.1</ele>
        <time>2000-01-01T05:05:13.000Z</time>
      </trkpt>
      <trkpt lat="46.1298" lon="6.70862">
        <ele>1676</ele>
        <time>2000-01-01T05:05:23.000Z</time>
      </trkpt>
      <trkpt lat="46.12987" lon="6.70847">
        <ele>1677.8</ele>
        <time>2000-01-01T05:05:33.000Z</time>
      </trkpt>
      <trkpt lat="46.12991" lon="6.70841">
        <ele>1678</ele>
        <time>2000-01-01T05:05:43.000Z</time>
      </trkpt>
      <trkpt lat="46.13001" lon="6.7083">
        <ele>1676</ele>
        <time>2000-01-01T05:05:53.000Z</time>
      </trkpt>
      <trkpt lat="46.13013" lon="6.70816">
        <ele>1677.7</ele>
        <time>2000-01-01T05:06:03.000Z</time>
      </trkpt>
      <trkpt lat="46.13023" lon="6.70806">
        <ele>1676</ele>
        <time>2000-01-01T05:06:13.000Z</time>
      </trkpt>
      <trkpt lat="46.13029" lon="6.70799">
        <ele>1678.6</ele>
        <time>2000-01-01T05:06:23.000Z</time>
      </trkpt>
      <trkpt lat="46.13035" lon="6.70787">
        <ele>1678.7</ele>
        <time>2000-01-01T05:06:33.000Z</time>
      </trkpt>
      <trkpt lat="46.13039" lon="6.70775">
        <ele>1676</ele>
        <time>2000-01-01T05:06:43.000Z</time>
      </trkpt>
      <trkpt lat="46.13042" lon="6.70763">
        <ele>1679.3</ele>
        <time>2000-01-01T05:06:53.000Z</time>
      </trkpt>
      <trkpt lat="46.13042" lon="6.70758">
        <ele>1679.2</ele>
        <time>2000-01-01T05:07:03.000Z</time>
      </trkpt>
      <trkpt lat="46.13042" lon="6.70758">
        <ele>1679.2</ele>
        <time>2000-01-01T05:07:13.000Z</time>
      </trkpt>
      <trkpt lat="46.13042" lon="6.70758">
        <ele>1679.2</ele>
        <time>2000-01-01T05:07:23.000Z</time>
      </trkpt>
      <trkpt lat="46.13045" lon="6.70759">
        <ele>1679.8</ele>
        <time>2000-01-01T05:07:33.000Z</time>
      </trkpt>
      <trkpt lat="46.13047" lon="6.70765">
        <ele>1678</ele>
        <time>2000-01-01T05:07:43.000Z</time>
      </trkpt>
      <trkpt lat="46.13047" lon="6.70771">
        <ele>1680.4</ele>
        <time>2000-01-01T05:07:53.000Z</time>
      </trkpt>
      <trkpt lat="46.13049" lon="6.70778">
        <ele>1680.8</ele>
        <time>2000-01-01T05:08:03.000Z</time>
      </trkpt>
      <trkpt lat="46.13051" lon="6.70782">
        <ele>1681.1</ele>
        <time>2000-01-01T05:08:13.000Z</time>
      </trkpt>
      <trkpt lat="46.13051" lon="6.70787">
        <ele>1681</ele>
        <time>2000-01-01T05:08:23.000Z</time>
      </trkpt>
      <trkpt lat="46.13052" lon="6.70793">
        <ele>1678</ele>
        <time>2000-01-01T05:08:33.000Z</time>
      </trkpt>
      <trkpt lat="46.13054" lon="6.70799">
        <ele>1681.1</ele>
        <time>2000-01-01T05:08:43.000Z</time>
      </trkpt>
      <trkpt lat="46.13056" lon="6.70806">
        <ele>1681.1</ele>
        <time>2000-01-01T05:08:53.000Z</time>
      </trkpt>
      <trkpt lat="46.13058" lon="6.70814">
        <ele>1681.5</ele>
        <time>2000-01-01T05:09:03.000Z</time>
      </trkpt>
      <trkpt lat="46.13058" lon="6.70821">
        <ele>1678</ele>
        <time>2000-01-01T05:09:13.000Z</time>
      </trkpt>
      <trkpt lat="46.13059" lon="6.70828">
        <ele>1681.2</ele>
        <time>2000-01-01T05:09:23.000Z</time>
      </trkpt>
      <trkpt lat="46.1306" lon="6.70833">
        <ele>1681.3</ele>
        <time>2000-01-01T05:09:33.000Z</time>
      </trkpt>
      <trkpt lat="46.13061" lon="6.70841">
        <ele>1681.3</ele>
        <time>2000-01-01T05:09:43.000Z</time>
      </trkpt>
      <trkpt lat="46.13063" lon="6.70848">
        <ele>1679</ele>
        <time>2000-01-01T05:09:53.000Z</time>
      </trkpt>
      <trkpt lat="46.13066" lon="6.70852">
        <ele>1682.3</ele>
        <time>2000-01-01T05:10:03.000Z</time>
      </trkpt>
      <trkpt lat="46.13066" lon="6.70853">
        <ele>1682.3</ele>
        <time>2000-01-01T05:10:13.000Z</time>
      </trkpt>
      <trkpt lat="46.13067" lon="6.70856">
        <ele>1682.5</ele>
        <time>2000-01-01T05:10:23.000Z</time>
      </trkpt>
      <trkpt lat="46.13068" lon="6.70859">
        <ele>1682.7</ele>
        <time>2000-01-01T05:10:33.000Z</time>
      </trkpt>
      <trkpt lat="46.13069" lon="6.70864">
        <ele>1682.8</ele>
        <time>2000-01-01T05:10:43.000Z</time>
      </trkpt>
      <trkpt lat="46.13071" lon="6.70868">
        <ele>1683.3</ele>
        <time>2000-01-01T05:10:53.000Z</time>
      </trkpt>
      <trkpt lat="46.13072" lon="6.70875">
        <ele>1680</ele>
        <time>2000-01-01T05:11:03.000Z</time>
      </trkpt>
      <trkpt lat="46.13072" lon="6.70881">
        <ele>1683.3</ele>
        <time>2000-01-01T05:11:13.000Z</time>
      </trkpt>
      <trkpt lat="46.13074" lon="6.70889">
        <ele>1683.6</ele>
        <time>2000-01-01T05:11:23.000Z</time>
      </trkpt>
      <trkpt lat="46.13075" lon="6.70898">
        <ele>1683.4</ele>
        <time>2000-01-01T05:11:33.000Z</time>
      </trkpt>
      <trkpt lat="46.13076" lon="6.70905">
        <ele>1680</ele>
        <time>2000-01-01T05:11:43.000Z</time>
      </trkpt>
      <trkpt lat="46.13077" lon="6.70913">
        <ele>1683.1</ele>
        <time>2000-01-01T05:11:53.000Z</time>
      </trkpt>
      <trkpt lat="46.13077" lon="6.70918">
        <ele>1682.8</ele>
        <time>2000-01-01T05:12:03.000Z</time>
      </trkpt>
      <trkpt lat="46.13077" lon="6.70924">
        <ele>1682.7</ele>
        <time>2000-01-01T05:12:13.000Z</time>
      </trkpt>
      <trkpt lat="46.13077" lon="6.70933">
        <ele>1680</ele>
        <time>2000-01-01T05:12:23.000Z</time>
      </trkpt>
      <trkpt lat="46.13078" lon="6.70941">
        <ele>1682.3</ele>
        <time>2000-01-01T05:12:33.000Z</time>
      </trkpt>
      <trkpt lat="46.13079" lon="6.70947">
        <ele>1682.2</ele>
        <time>2000-01-01T05:12:43.000Z</time>
      </trkpt>
      <trkpt lat="46.13083" lon="6.70954">
        <ele>1682.3</ele>
        <time>2000-01-01T05:12:53.000Z</time>
      </trkpt>
      <trkpt lat="46.13087" lon="6.70962">
        <ele>1680</ele>
        <time>2000-01-01T05:13:03.000Z</time>
      </trkpt>
      <trkpt lat="46.13088" lon="6.70964">
        <ele>1683</ele>
        <time>2000-01-01T05:13:13.000Z</time>
      </trkpt>
      <trkpt lat="46.1309" lon="6.70967">
        <ele>1683.3</ele>
        <time>2000-01-01T05:13:23.000Z</time>
      </trkpt>
      <trkpt lat="46.13094" lon="6.70973">
        <ele>1684</ele>
        <time>2000-01-01T05:13:33.000Z</time>
      </trkpt>
      <trkpt lat="46.13097" lon="6.7098">
        <ele>1684.2</ele>
        <time>2000-01-01T05:13:43.000Z</time>
      </trkpt>
      <trkpt lat="46.13099" lon="6.70985">
        <ele>1680</ele>
        <time>2000-01-01T05:13:53.000Z</time>
      </trkpt>
      <trkpt lat="46.13101" lon="6.70991">
        <ele>1684.3</ele>
        <time>2000-01-01T05:14:03.000Z</time>
      </trkpt>
      <trkpt lat="46.13104" lon="6.70995">
        <ele>1684.7</ele>
        <time>2000-01-01T05:14:13.000Z</time>
      </trkpt>
      <trkpt lat="46.13106" lon="6.71001">
        <ele>1684.7</ele>
        <time>2000-01-01T05:14:23.000Z</time>
      </trkpt>
      <trkpt lat="46.13108" lon="6.71007">
        <ele>1684.8</ele>
        <time>2000-01-01T05:14:33.000Z</time>
      </trkpt>
      <trkpt lat="46.1311" lon="6.71015">
        <ele>1681</ele>
        <time>2000-01-01T05:14:43.000Z</time>
      </trkpt>
      <trkpt lat="46.13111" lon="6.71024">
        <ele>1684.3</ele>
        <time>2000-01-01T05:14:53.000Z</time>
      </trkpt>
      <trkpt lat="46.13114" lon="6.71033">
        <ele>1685.4</ele>
        <time>2000-01-01T05:15:03.000Z</time>
      </trkpt>
      <trkpt lat="46.13117" lon="6.71045">
        <ele>1683</ele>
        <time>2000-01-01T05:15:13.000Z</time>
      </trkpt>
      <trkpt lat="46.13121" lon="6.71057">
        <ele>1687.9</ele>
        <time>2000-01-01T05:15:23.000Z</time>
      </trkpt>
      <trkpt lat="46.13125" lon="6.71071">
        <ele>1685</ele>
        <time>2000-01-01T05:15:33.000Z</time>
      </trkpt>
      <trkpt lat="46.13125" lon="6.71071">
        <ele>1688.9</ele>
        <time>2000-01-01T05:15:43.000Z</time>
      </trkpt>
      <trkpt lat="46.13125" lon="6.71071">
        <ele>1688.9</ele>
        <time>2000-01-01T05:15:53.000Z</time>
      </trkpt>
      <trkpt lat="46.13129" lon="6.71081">
        <ele>1689.7</ele>
        <time>2000-01-01T05:16:03.000Z</time>
      </trkpt>
      <trkpt lat="46.13132" lon="6.71088">
        <ele>1690.1</ele>
        <time>2000-01-01T05:16:13.000Z</time>
      </trkpt>
      <trkpt lat="46.13135" lon="6.71094">
        <ele>1689</ele>
        <time>2000-01-01T05:16:23.000Z</time>
      </trkpt>
      <trkpt lat="46.13139" lon="6.71102">
        <ele>1691</ele>
        <time>2000-01-01T05:16:33.000Z</time>
      </trkpt>
      <trkpt lat="46.13143" lon="6.71106">
        <ele>1692</ele>
        <time>2000-01-01T05:16:43.000Z</time>
      </trkpt>
      <trkpt lat="46.13145" lon="6.7111">
        <ele>1692.1</ele>
        <time>2000-01-01T05:16:53.000Z</time>
      </trkpt>
      <trkpt lat="46.13148" lon="6.71113">
        <ele>1692.7</ele>
        <time>2000-01-01T05:17:03.000Z</time>
      </trkpt>
      <trkpt lat="46.1315" lon="6.71116">
        <ele>1693</ele>
        <time>2000-01-01T05:17:13.000Z</time>
      </trkpt>
      <trkpt lat="46.13153" lon="6.71117">
        <ele>1693.8</ele>
        <time>2000-01-01T05:17:23.000Z</time>
      </trkpt>
      <trkpt lat="46.13157" lon="6.71119">
        <ele>1694.8</ele>
        <time>2000-01-01T05:17:33.000Z</time>
      </trkpt>
      <trkpt lat="46.13158" lon="6.71122">
        <ele>1694.7</ele>
        <time>2000-01-01T05:17:43.000Z</time>
      </trkpt>
      <trkpt lat="46.1316" lon="6.71132">
        <ele>1694</ele>
        <time>2000-01-01T05:17:53.000Z</time>
      </trkpt>
      <trkpt lat="46.13161" lon="6.71137">
        <ele>1694</ele>
        <time>2000-01-01T05:18:03.000Z</time>
      </trkpt>
      <trkpt lat="46.13163" lon="6.71141">
        <ele>1693.8</ele>
        <time>2000-01-01T05:18:13.000Z</time>
      </trkpt>
      <trkpt lat="46.13166" lon="6.71145">
        <ele>1694.4</ele>
        <time>2000-01-01T05:18:23.000Z</time>
      </trkpt>
      <trkpt lat="46.13167" lon="6.7115">
        <ele>1694.3</ele>
        <time>2000-01-01T05:18:33.000Z</time>
      </trkpt>
      <trkpt lat="46.13169" lon="6.71155">
        <ele>1694.5</ele>
        <time>2000-01-01T05:18:43.000Z</time>
      </trkpt>
      <trkpt lat="46.13171" lon="6.71157">
        <ele>1695</ele>
        <time>2000-01-01T05:18:53.000Z</time>
      </trkpt>
      <trkpt lat="46.13175" lon="6.7116">
        <ele>1694</ele>
        <time>2000-01-01T05:19:03.000Z</time>
      </trkpt>
      <trkpt lat="46.13178" lon="6.71161">
        <ele>1696.8</ele>
        <time>2000-01-01T05:19:13.000Z</time>
      </trkpt>
      <trkpt lat="46.13181" lon="6.71159">
        <ele>1697.8</ele>
        <time>2000-01-01T05:19:23.000Z</time>
      </trkpt>
      <trkpt lat="46.13183" lon="6.71157">
        <ele>1698.6</ele>
        <time>2000-01-01T05:19:33.000Z</time>
      </trkpt>
      <trkpt lat="46.13187" lon="6.71152">
        <ele>1700.3</ele>
        <time>2000-01-01T05:19:43.000Z</time>
      </trkpt>
      <trkpt lat="46.13192" lon="6.7115">
        <ele>1702</ele>
        <time>2000-01-01T05:19:53.000Z</time>
      </trkpt>
      <trkpt lat="46.13196" lon="6.71147">
        <ele>1703.5</ele>
        <time>2000-01-01T05:20:03.000Z</time>
      </trkpt>
      <trkpt lat="46.13199" lon="6.71144">
        <ele>1704.5</ele>
        <time>2000-01-01T05:20:13.000Z</time>
      </trkpt>
      <trkpt lat="46.13204" lon="6.71144">
        <ele>1705.6</ele>
        <time>2000-01-01T05:20:23.000Z</time>
      </trkpt>
      <trkpt lat="46.13208" lon="6.71143">
        <ele>1706.6</ele>
        <time>2000-01-01T05:20:33.000Z</time>
      </trkpt>
      <trkpt lat="46.13212" lon="6.71141">
        <ele>1708</ele>
        <time>2000-01-01T05:20:43.000Z</time>
      </trkpt>
      <trkpt lat="46.13218" lon="6.71138">
        <ele>1709.3</ele>
        <time>2000-01-01T05:20:53.000Z</time>
      </trkpt>
      <trkpt lat="46.13223" lon="6.71136">
        <ele>1710.7</ele>
        <time>2000-01-01T05:21:03.000Z</time>
      </trkpt>
      <trkpt lat="46.13225" lon="6.71132">
        <ele>1711.6</ele>
        <time>2000-01-01T05:21:13.000Z</time>
      </trkpt>
      <trkpt lat="46.13227" lon="6.71132">
        <ele>1711.7</ele>
        <time>2000-01-01T05:21:23.000Z</time>
      </trkpt>
      <trkpt lat="46.13229" lon="6.7113">
        <ele>1712</ele>
        <time>2000-01-01T05:21:33.000Z</time>
      </trkpt>
      <trkpt lat="46.13234" lon="6.71127">
        <ele>1712.8</ele>
        <time>2000-01-01T05:21:43.000Z</time>
      </trkpt>
      <trkpt lat="46.13239" lon="6.71124">
        <ele>1713.1</ele>
        <time>2000-01-01T05:21:53.000Z</time>
      </trkpt>
      <trkpt lat="46.13242" lon="6.71121">
        <ele>1713.2</ele>
        <time>2000-01-01T05:22:03.000Z</time>
      </trkpt>
      <trkpt lat="46.13246" lon="6.71119">
        <ele>1713.2</ele>
        <time>2000-01-01T05:22:13.000Z</time>
      </trkpt>
      <trkpt lat="46.1325" lon="6.71118">
        <ele>1712</ele>
        <time>2000-01-01T05:22:23.000Z</time>
      </trkpt>
      <trkpt lat="46.13254" lon="6.71113">
        <ele>1712.4</ele>
        <time>2000-01-01T05:22:33.000Z</time>
      </trkpt>
      <trkpt lat="46.1326" lon="6.71108">
        <ele>1712.3</ele>
        <time>2000-01-01T05:22:43.000Z</time>
      </trkpt>
      <trkpt lat="46.13264" lon="6.71104">
        <ele>1712.5</ele>
        <time>2000-01-01T05:22:53.000Z</time>
      </trkpt>
      <trkpt lat="46.13268" lon="6.71103">
        <ele>1710</ele>
        <time>2000-01-01T05:23:03.000Z</time>
      </trkpt>
      <trkpt lat="46.13272" lon="6.71102">
        <ele>1711.4</ele>
        <time>2000-01-01T05:23:13.000Z</time>
      </trkpt>
      <trkpt lat="46.13274" lon="6.71104">
        <ele>1710.7</ele>
        <time>2000-01-01T05:23:23.000Z</time>
      </trkpt>
      <trkpt lat="46.13277" lon="6.71107">
        <ele>1709.7</ele>
        <time>2000-01-01T05:23:33.000Z</time>
      </trkpt>
      <trkpt lat="46.1328" lon="6.71108">
        <ele>1708.6</ele>
        <time>2000-01-01T05:23:43.000Z</time>
      </trkpt>
      <trkpt lat="46.13285" lon="6.71108">
        <ele>1706.5</ele>
        <time>2000-01-01T05:23:53.000Z</time>
      </trkpt>
      <trkpt lat="46.13287" lon="6.7111">
        <ele>1709</ele>
        <time>2000-01-01T05:24:03.000Z</time>
      </trkpt>
      <trkpt lat="46.13289" lon="6.71114">
        <ele>1704.3</ele>
        <time>2000-01-01T05:24:13.000Z</time>
      </trkpt>
      <trkpt lat="46.13291" lon="6.71118">
        <ele>1703.2</ele>
        <time>2000-01-01T05:24:23.000Z</time>
      </trkpt>
      <trkpt lat="46.13292" lon="6.71123">
        <ele>1702.3</ele>
        <time>2000-01-01T05:24:33.000Z</time>
      </trkpt>
      <trkpt lat="46.13292" lon="6.7113">
        <ele>1701.6</ele>
        <time>2000-01-01T05:24:43.000Z</time>
      </trkpt>
      <trkpt lat="46.13292" lon="6.71137">
        <ele>1703</ele>
        <time>2000-01-01T05:24:53.000Z</time>
      </trkpt>
      <trkpt lat="46.13292" lon="6.71148">
        <ele>1700</ele>
        <time>2000-01-01T05:25:03.000Z</time>
      </trkpt>
      <trkpt lat="46.13293" lon="6.71154">
        <ele>1698.7</ele>
        <time>2000-01-01T05:25:13.000Z</time>
      </trkpt>
      <trkpt lat="46.13294" lon="6.71159">
        <ele>1697.5</ele>
        <time>2000-01-01T05:25:23.000Z</time>
      </trkpt>
      <trkpt lat="46.13295" lon="6.71169">
        <ele>1700</ele>
        <time>2000-01-01T05:25:33.000Z</time>
      </trkpt>
      <trkpt lat="46.13299" lon="6.71188">
        <ele>1694.3</ele>
        <time>2000-01-01T05:25:43.000Z</time>
      </trkpt>
      <trkpt lat="46.13307" lon="6.71215">
        <ele>1698</ele>
        <time>2000-01-01T05:25:53.000Z</time>
      </trkpt>
      <trkpt lat="46.13315" lon="6.71238">
        <ele>1688.4</ele>
        <time>2000-01-01T05:26:03.000Z</time>
      </trkpt>
      <trkpt lat="46.13321" lon="6.71257">
        <ele>1694</ele>
        <time>2000-01-01T05:26:13.000Z</time>
      </trkpt>
      <trkpt lat="46.13324" lon="6.71266">
        <ele>1685.8</ele>
        <time>2000-01-01T05:26:23.000Z</time>
      </trkpt>
      <trkpt lat="46.13329" lon="6.71285">
        <ele>1690</ele>
        <time>2000-01-01T05:26:33.000Z</time>
      </trkpt>
      <trkpt lat="46.13333" lon="6.71296">
        <ele>1682.2</ele>
        <time>2000-01-01T05:26:43.000Z</time>
      </trkpt>
      <trkpt lat="46.13337" lon="6.71305">
        <ele>1680.7</ele>
        <time>2000-01-01T05:26:53.000Z</time>
      </trkpt>
      <trkpt lat="46.13341" lon="6.71313">
        <ele>1676</ele>
        <time>2000-01-01T05:27:03.000Z</time>
      </trkpt>
      <trkpt lat="46.13344" lon="6.71318">
        <ele>1676.9</ele>
        <time>2000-01-01T05:27:13.000Z</time>
      </trkpt>
      <trkpt lat="46.13347" lon="6.71323">
        <ele>1675.3</ele>
        <time>2000-01-01T05:27:23.000Z</time>
      </trkpt>
      <trkpt lat="46.1335" lon="6.71329">
        <ele>1673.6</ele>
        <time>2000-01-01T05:27:33.000Z</time>
      </trkpt>
      <trkpt lat="46.13351" lon="6.71339">
        <ele>1673</ele>
        <time>2000-01-01T05:27:43.000Z</time>
      </trkpt>
      <trkpt lat="46.13351" lon="6.71349">
        <ele>1671.4</ele>
        <time>2000-01-01T05:27:53.000Z</time>
      </trkpt>
      <trkpt lat="46.13352" lon="6.71359">
        <ele>1669.5</ele>
        <time>2000-01-01T05:28:03.000Z</time>
      </trkpt>
      <trkpt lat="46.13354" lon="6.71367">
        <ele>1668</ele>
        <time>2000-01-01T05:28:13.000Z</time>
      </trkpt>
      <trkpt lat="46.13358" lon="6.7137">
        <ele>1664.7</ele>
        <time>2000-01-01T05:28:23.000Z</time>
      </trkpt>
      <trkpt lat="46.13358" lon="6.7137">
        <ele>1664.7</ele>
        <time>2000-01-01T05:28:33.000Z</time>
      </trkpt>
      <trkpt lat="46.13358" lon="6.7137">
        <ele>1664.7</ele>
        <time>2000-01-01T05:28:43.000Z</time>
      </trkpt>
      <trkpt lat="46.13364" lon="6.71371">
        <ele>1661.4</ele>
        <time>2000-01-01T05:28:53.000Z</time>
      </trkpt>
      <trkpt lat="46.13371" lon="6.71368">
        <ele>1659</ele>
        <time>2000-01-01T05:29:03.000Z</time>
      </trkpt>
      <trkpt lat="46.13378" lon="6.71363">
        <ele>1657</ele>
        <time>2000-01-01T05:29:13.000Z</time>
      </trkpt>
      <trkpt lat="46.1339" lon="6.71351">
        <ele>1653.3</ele>
        <time>2000-01-01T05:29:23.000Z</time>
      </trkpt>
      <trkpt lat="46.13401" lon="6.71341">
        <ele>1648</ele>
        <time>2000-01-01T05:29:33.000Z</time>
      </trkpt>
      <trkpt lat="46.13406" lon="6.71337">
        <ele>1648</ele>
        <time>2000-01-01T05:29:43.000Z</time>
      </trkpt>
      <trkpt lat="46.13412" lon="6.71337">
        <ele>1645.7</ele>
        <time>2000-01-01T05:29:53.000Z</time>
      </trkpt>
      <trkpt lat="46.13415" lon="6.71339">
        <ele>1644.4</ele>
        <time>2000-01-01T05:30:03.000Z</time>
      </trkpt>
      <trkpt lat="46.13417" lon="6.71342">
        <ele>1643.5</ele>
        <time>2000-01-01T05:30:13.000Z</time>
      </trkpt>
      <trkpt lat="46.13418" lon="6.71351">
        <ele>1646</ele>
        <time>2000-01-01T05:30:23.000Z</time>
      </trkpt>
      <trkpt lat="46.13419" lon="6.7136">
        <ele>1642</ele>
        <time>2000-01-01T05:30:33.000Z</time>
      </trkpt>
      <trkpt lat="46.13421" lon="6.71369">
        <ele>1641.7</ele>
        <time>2000-01-01T05:30:43.000Z</time>
      </trkpt>
      <trkpt lat="46.13425" lon="6.71373">
        <ele>1640.1</ele>
        <time>2000-01-01T05:30:53.000Z</time>
      </trkpt>
      <trkpt lat="46.13444" lon="6.71392">
        <ele>1634</ele>
        <time>2000-01-01T05:31:03.000Z</time>
      </trkpt>
      <trkpt lat="46.13448" lon="6.71398">
        <ele>1631</ele>
        <time>2000-01-01T05:31:13.000Z</time>
      </trkpt>
      <trkpt lat="46.13451" lon="6.71403">
        <ele>1630.1</ele>
        <time>2000-01-01T05:31:23.000Z</time>
      </trkpt>
      <trkpt lat="46.13455" lon="6.71411">
        <ele>1629</ele>
        <time>2000-01-01T05:31:33.000Z</time>
      </trkpt>
      <trkpt lat="46.13461" lon="6.71416">
        <ele>1621</ele>
        <time>2000-01-01T05:31:43.000Z</time>
      </trkpt>
      <trkpt lat="46.13465" lon="6.71417">
        <ele>1625.2</ele>
        <time>2000-01-01T05:31:53.000Z</time>
      </trkpt>
      <trkpt lat="46.13471" lon="6.71418">
        <ele>1622.8</ele>
        <time>2000-01-01T05:32:03.000Z</time>
      </trkpt>
      <trkpt lat="46.13476" lon="6.71418">
        <ele>1622.6</ele>
        <time>2000-01-01T05:32:13.000Z</time>
      </trkpt>
      <trkpt lat="46.13482" lon="6.71417">
        <ele>1621</ele>
        <time>2000-01-01T05:32:23.000Z</time>
      </trkpt>
      <trkpt lat="46.13487" lon="6.71416">
        <ele>1622.9</ele>
        <time>2000-01-01T05:32:33.000Z</time>
      </trkpt>
      <trkpt lat="46.1349" lon="6.71414">
        <ele>1622.7</ele>
        <time>2000-01-01T05:32:43.000Z</time>
      </trkpt>
      <trkpt lat="46.13498" lon="6.71412">
        <ele>1622.6</ele>
        <time>2000-01-01T05:32:53.000Z</time>
      </trkpt>
      <trkpt lat="46.13503" lon="6.7141">
        <ele>1621</ele>
        <time>2000-01-01T05:33:03.000Z</time>
      </trkpt>
      <trkpt lat="46.13508" lon="6.71409">
        <ele>1623.6</ele>
        <time>2000-01-01T05:33:13.000Z</time>
      </trkpt>
      <trkpt lat="46.13516" lon="6.71405">
        <ele>1623.9</ele>
        <time>2000-01-01T05:33:23.000Z</time>
      </trkpt>
      <trkpt lat="46.13522" lon="6.71402">
        <ele>1622</ele>
        <time>2000-01-01T05:33:33.000Z</time>
      </trkpt>
      <trkpt lat="46.13529" lon="6.71397">
        <ele>1623.4</ele>
        <time>2000-01-01T05:33:43.000Z</time>
      </trkpt>
      <trkpt lat="46.13532" lon="6.71397">
        <ele>1624</ele>
        <time>2000-01-01T05:33:53.000Z</time>
      </trkpt>
      <trkpt lat="46.13537" lon="6.71394">
        <ele>1623.7</ele>
        <time>2000-01-01T05:34:03.000Z</time>
      </trkpt>
      <trkpt lat="46.13541" lon="6.71393">
        <ele>1622</ele>
        <time>2000-01-01T05:34:13.000Z</time>
      </trkpt>
      <trkpt lat="46.13544" lon="6.71389">
        <ele>1623</ele>
        <time>2000-01-01T05:34:23.000Z</time>
      </trkpt>
      <trkpt lat="46.13547" lon="6.71389">
        <ele>1623.5</ele>
        <time>2000-01-01T05:34:33.000Z</time>
      </trkpt>
      <trkpt lat="46.1355" lon="6.71385">
        <ele>1622.5</ele>
        <time>2000-01-01T05:34:43.000Z</time>
      </trkpt>
      <trkpt lat="46.13553" lon="6.71383">
        <ele>1622.2</ele>
        <time>2000-01-01T05:34:53.000Z</time>
      </trkpt>
      <trkpt lat="46.13556" lon="6.7138">
        <ele>1621.6</ele>
        <time>2000-01-01T05:35:03.000Z</time>
      </trkpt>
      <trkpt lat="46.1356" lon="6.71378">
        <ele>1622</ele>
        <time>2000-01-01T05:35:13.000Z</time>
      </trkpt>
      <trkpt lat="46.13566" lon="6.71376">
        <ele>1621.8</ele>
        <time>2000-01-01T05:35:23.000Z</time>
      </trkpt>
      <trkpt lat="46.13569" lon="6.71374">
        <ele>1621.5</ele>
        <time>2000-01-01T05:35:33.000Z</time>
      </trkpt>
      <trkpt lat="46.13573" lon="6.71372">
        <ele>1621.5</ele>
        <time>2000-01-01T05:35:43.000Z</time>
      </trkpt>
      <trkpt lat="46.13577" lon="6.71371">
        <ele>1621.8</ele>
        <time>2000-01-01T05:35:53.000Z</time>
      </trkpt>
      <trkpt lat="46.13582" lon="6.71371">
        <ele>1622</ele>
        <time>2000-01-01T05:36:03.000Z</time>
      </trkpt>
      <trkpt lat="46.13585" lon="6.71373">
        <ele>1623.9</ele>
        <time>2000-01-01T05:36:13.000Z</time>
      </trkpt>
      <trkpt lat="46.13591" lon="6.71374">
        <ele>1624.9</ele>
        <time>2000-01-01T05:36:23.000Z</time>
      </trkpt>
      <trkpt lat="46.13592" lon="6.71373">
        <ele>1624.6</ele>
        <time>2000-01-01T05:36:33.000Z</time>
      </trkpt>
      <trkpt lat="46.13595" lon="6.71372">
        <ele>1624.5</ele>
        <time>2000-01-01T05:36:43.000Z</time>
      </trkpt>
      <trkpt lat="46.13598" lon="6.7137">
        <ele>1623.9</ele>
        <time>2000-01-01T05:36:53.000Z</time>
      </trkpt>
      <trkpt lat="46.13603" lon="6.7137">
        <ele>1622</ele>
        <time>2000-01-01T05:37:03.000Z</time>
      </trkpt>
      <trkpt lat="46.13608" lon="6.71368">
        <ele>1623.9</ele>
        <time>2000-01-01T05:37:13.000Z</time>
      </trkpt>
      <trkpt lat="46.13611" lon="6.71365">
        <ele>1622.8</ele>
        <time>2000-01-01T05:37:23.000Z</time>
      </trkpt>
      <trkpt lat="46.13613" lon="6.71363">
        <ele>1622.3</ele>
        <time>2000-01-01T05:37:33.000Z</time>
      </trkpt>
      <trkpt lat="46.13617" lon="6.71362">
        <ele>1622.7</ele>
        <time>2000-01-01T05:37:43.000Z</time>
      </trkpt>
      <trkpt lat="46.13619" lon="6.71362">
        <ele>1623.1</ele>
        <time>2000-01-01T05:37:53.000Z</time>
      </trkpt>
      <trkpt lat="46.13621" lon="6.71361">
        <ele>1620</ele>
        <time>2000-01-01T05:38:03.000Z</time>
      </trkpt>
      <trkpt lat="46.13625" lon="6.71359">
        <ele>1623</ele>
        <time>2000-01-01T05:38:13.000Z</time>
      </trkpt>
      <trkpt lat="46.13626" lon="6.71356">
        <ele>1621.7</ele>
        <time>2000-01-01T05:38:23.000Z</time>
      </trkpt>
      <trkpt lat="46.13631" lon="6.71352">
        <ele>1620.7</ele>
        <time>2000-01-01T05:38:33.000Z</time>
      </trkpt>
      <trkpt lat="46.13632" lon="6.71351">
        <ele>1620.3</ele>
        <time>2000-01-01T05:38:43.000Z</time>
      </trkpt>
      <trkpt lat="46.13634" lon="6.71353">
        <ele>1621.7</ele>
        <time>2000-01-01T05:38:53.000Z</time>
      </trkpt>
      <trkpt lat="46.13636" lon="6.71353">
        <ele>1622.1</ele>
        <time>2000-01-01T05:39:03.000Z</time>
      </trkpt>
      <trkpt lat="46.13638" lon="6.71353">
        <ele>1618</ele>
        <time>2000-01-01T05:39:13.000Z</time>
      </trkpt>
      <trkpt lat="46.13641" lon="6.7135">
        <ele>1621.3</ele>
        <time>2000-01-01T05:39:23.000Z</time>
      </trkpt>
      <trkpt lat="46.13643" lon="6.7135">
        <ele>1621.5</ele>
        <time>2000-01-01T05:39:33.000Z</time>
      </trkpt>
      <trkpt lat="46.13646" lon="6.71349">
        <ele>1621.3</ele>
        <time>2000-01-01T05:39:43.000Z</time>
      </trkpt>
      <trkpt lat="46.1365" lon="6.71346">
        <ele>1620.3</ele>
        <time>2000-01-01T05:39:53.000Z</time>
      </trkpt>
      <trkpt lat="46.13656" lon="6.71341">
        <ele>1617</ele>
        <time>2000-01-01T05:40:03.000Z</time>
      </trkpt>
      <trkpt lat="46.13663" lon="6.71336">
        <ele>1616.8</ele>
        <time>2000-01-01T05:40:13.000Z</time>
      </trkpt>
      <trkpt lat="46.13666" lon="6.71335">
        <ele>1616.7</ele>
        <time>2000-01-01T05:40:23.000Z</time>
      </trkpt>
      <trkpt lat="46.13669" lon="6.71333">
        <ele>1615.8</ele>
        <time>2000-01-01T05:40:33.000Z</time>
      </trkpt>
      <trkpt lat="46.13674" lon="6.71333">
        <ele>1615</ele>
        <time>2000-01-01T05:40:43.000Z</time>
      </trkpt>
      <trkpt lat="46.13676" lon="6.71333">
        <ele>1615.5</ele>
        <time>2000-01-01T05:40:53.000Z</time>
      </trkpt>
      <trkpt lat="46.13678" lon="6.71332">
        <ele>1615</ele>
        <time>2000-01-01T05:41:03.000Z</time>
      </trkpt>
      <trkpt lat="46.13682" lon="6.71329">
        <ele>1613.4</ele>
        <time>2000-01-01T05:41:13.000Z</time>
      </trkpt>
      <trkpt lat="46.13685" lon="6.71327">
        <ele>1612.4</ele>
        <time>2000-01-01T05:41:23.000Z</time>
      </trkpt>
      <trkpt lat="46.13688" lon="6.71327">
        <ele>1612.3</ele>
        <time>2000-01-01T05:41:33.000Z</time>
      </trkpt>
      <trkpt lat="46.1369" lon="6.71329">
        <ele>1613.1</ele>
        <time>2000-01-01T05:41:43.000Z</time>
      </trkpt>
      <trkpt lat="46.13692" lon="6.7133">
        <ele>1614</ele>
        <time>2000-01-01T05:41:53.000Z</time>
      </trkpt>
      <trkpt lat="46.13695" lon="6.71333">
        <ele>1614.8</ele>
        <time>2000-01-01T05:42:03.000Z</time>
      </trkpt>
      <trkpt lat="46.13697" lon="6.71332">
        <ele>1614</ele>
        <time>2000-01-01T05:42:13.000Z</time>
      </trkpt>
      <trkpt lat="46.137" lon="6.71334">
        <ele>1614.6</ele>
        <time>2000-01-01T05:42:23.000Z</time>
      </trkpt>
      <trkpt lat="46.13702" lon="6.71336">
        <ele>1615.4</ele>
        <time>2000-01-01T05:42:33.000Z</time>
      </trkpt>
      <trkpt lat="46.13705" lon="6.71336">
        <ele>1615</ele>
        <time>2000-01-01T05:42:43.000Z</time>
      </trkpt>
      <trkpt lat="46.13708" lon="6.71337">
        <ele>1615.2</ele>
        <time>2000-01-01T05:42:53.000Z</time>
      </trkpt>
      <trkpt lat="46.13713" lon="6.71338">
        <ele>1611</ele>
        <time>2000-01-01T05:43:03.000Z</time>
      </trkpt>
      <trkpt lat="46.13716" lon="6.71339">
        <ele>1615.3</ele>
        <time>2000-01-01T05:43:13.000Z</time>
      </trkpt>
      <trkpt lat="46.13717" lon="6.7134">
        <ele>1615.7</ele>
        <time>2000-01-01T05:43:23.000Z</time>
      </trkpt>
      <trkpt lat="46.13721" lon="6.71341">
        <ele>1615.8</ele>
        <time>2000-01-01T05:43:33.000Z</time>
      </trkpt>
      <trkpt lat="46.13724" lon="6.71343">
        <ele>1616.5</ele>
        <time>2000-01-01T05:43:43.000Z</time>
      </trkpt>
      <trkpt lat="46.13727" lon="6.71346">
        <ele>1617.7</ele>
        <time>2000-01-01T05:43:53.000Z</time>
      </trkpt>
      <trkpt lat="46.13729" lon="6.71347">
        <ele>1617.9</ele>
        <time>2000-01-01T05:44:03.000Z</time>
      </trkpt>
      <trkpt lat="46.13733" lon="6.71349">
        <ele>1611</ele>
        <time>2000-01-01T05:44:13.000Z</time>
      </trkpt>
      <trkpt lat="46.13738" lon="6.71351">
        <ele>1618.4</ele>
        <time>2000-01-01T05:44:23.000Z</time>
      </trkpt>
      <trkpt lat="46.1374" lon="6.71353">
        <ele>1619.2</ele>
        <time>2000-01-01T05:44:33.000Z</time>
      </trkpt>
      <trkpt lat="46.13742" lon="6.71356">
        <ele>1620.6</ele>
        <time>2000-01-01T05:44:43.000Z</time>
      </trkpt>
      <trkpt lat="46.13746" lon="6.71357">
        <ele>1620.3</ele>
        <time>2000-01-01T05:44:53.000Z</time>
      </trkpt>
      <trkpt lat="46.13748" lon="6.71357">
        <ele>1619.9</ele>
        <time>2000-01-01T05:45:03.000Z</time>
      </trkpt>
      <trkpt lat="46.13752" lon="6.71356">
        <ele>1609</ele>
        <time>2000-01-01T05:45:13.000Z</time>
      </trkpt>
      <trkpt lat="46.13755" lon="6.71356">
        <ele>1617.6</ele>
        <time>2000-01-01T05:45:23.000Z</time>
      </trkpt>
      <trkpt lat="46.13758" lon="6.71357">
        <ele>1617.4</ele>
        <time>2000-01-01T05:45:33.000Z</time>
      </trkpt>
      <trkpt lat="46.13765" lon="6.71358">
        <ele>1616</ele>
        <time>2000-01-01T05:45:43.000Z</time>
      </trkpt>
      <trkpt lat="46.13767" lon="6.71359">
        <ele>1616</ele>
        <time>2000-01-01T05:45:53.000Z</time>
      </trkpt>
      <trkpt lat="46.1377" lon="6.7136">
        <ele>1608</ele>
        <time>2000-01-01T05:46:03.000Z</time>
      </trkpt>
      <trkpt lat="46.13773" lon="6.71358">
        <ele>1613.8</ele>
        <time>2000-01-01T05:46:13.000Z</time>
      </trkpt>
      <trkpt lat="46.13775" lon="6.71356">
        <ele>1612.3</ele>
        <time>2000-01-01T05:46:23.000Z</time>
      </trkpt>
      <trkpt lat="46.13778" lon="6.71354">
        <ele>1610.6</ele>
        <time>2000-01-01T05:46:33.000Z</time>
      </trkpt>
      <trkpt lat="46.13781" lon="6.71354">
        <ele>1610</ele>
        <time>2000-01-01T05:46:43.000Z</time>
      </trkpt>
      <trkpt lat="46.13783" lon="6.71356">
        <ele>1610.5</ele>
        <time>2000-01-01T05:46:53.000Z</time>
      </trkpt>
      <trkpt lat="46.13785" lon="6.71357">
        <ele>1610.6</ele>
        <time>2000-01-01T05:47:03.000Z</time>
      </trkpt>
      <trkpt lat="46.13788" lon="6.71356">
        <ele>1609.5</ele>
        <time>2000-01-01T05:47:13.000Z</time>
      </trkpt>
      <trkpt lat="46.13791" lon="6.71355">
        <ele>1607</ele>
        <time>2000-01-01T05:47:23.000Z</time>
      </trkpt>
      <trkpt lat="46.13795" lon="6.71356">
        <ele>1608</ele>
        <time>2000-01-01T05:47:33.000Z</time>
      </trkpt>
      <trkpt lat="46.13798" lon="6.7136">
        <ele>1609.1</ele>
        <time>2000-01-01T05:47:43.000Z</time>
      </trkpt>
      <trkpt lat="46.138" lon="6.71362">
        <ele>1609.6</ele>
        <time>2000-01-01T05:47:53.000Z</time>
      </trkpt>
      <trkpt lat="46.13804" lon="6.71364">
        <ele>1609.7</ele>
        <time>2000-01-01T05:48:03.000Z</time>
      </trkpt>
      <trkpt lat="46.1381" lon="6.71365">
        <ele>1607</ele>
        <time>2000-01-01T05:48:13.000Z</time>
      </trkpt>
      <trkpt lat="46.13814" lon="6.71367">
        <ele>1609.4</ele>
        <time>2000-01-01T05:48:23.000Z</time>
      </trkpt>
      <trkpt lat="46.13818" lon="6.7137">
        <ele>1610.1</ele>
        <time>2000-01-01T05:48:33.000Z</time>
      </trkpt>
      <trkpt lat="46.13821" lon="6.71371">
        <ele>1610</ele>
        <time>2000-01-01T05:48:43.000Z</time>
      </trkpt>
      <trkpt lat="46.13825" lon="6.71374">
        <ele>1610.6</ele>
        <time>2000-01-01T05:48:53.000Z</time>
      </trkpt>
      <trkpt lat="46.13829" lon="6.71376">
        <ele>1607</ele>
        <time>2000-01-01T05:49:03.000Z</time>
      </trkpt>
      <trkpt lat="46.13837" lon="6.71378">
        <ele>1610.1</ele>
        <time>2000-01-01T05:49:13.000Z</time>
      </trkpt>
      <trkpt lat="46.13841" lon="6.71381">
        <ele>1610.7</ele>
        <time>2000-01-01T05:49:23.000Z</time>
      </trkpt>
      <trkpt lat="46.13851" lon="6.71387">
        <ele>1608</ele>
        <time>2000-01-01T05:49:33.000Z</time>
      </trkpt>
      <trkpt lat="46.13854" lon="6.71388">
        <ele>1611</ele>
        <time>2000-01-01T05:49:43.000Z</time>
      </trkpt>
      <trkpt lat="46.13856" lon="6.71389">
        <ele>1611</ele>
        <time>2000-01-01T05:49:53.000Z</time>
      </trkpt>
      <trkpt lat="46.13859" lon="6.71388">
        <ele>1610.1</ele>
        <time>2000-01-01T05:50:03.000Z</time>
      </trkpt>
      <trkpt lat="46.13861" lon="6.7139">
        <ele>1610.3</ele>
        <time>2000-01-01T05:50:13.000Z</time>
      </trkpt>
      <trkpt lat="46.13863" lon="6.71392">
        <ele>1610.5</ele>
        <time>2000-01-01T05:50:23.000Z</time>
      </trkpt>
      <trkpt lat="46.13866" lon="6.71394">
        <ele>1610.4</ele>
        <time>2000-01-01T05:50:33.000Z</time>
      </trkpt>
      <trkpt lat="46.13868" lon="6.71396">
        <ele>1610</ele>
        <time>2000-01-01T05:50:43.000Z</time>
      </trkpt>
      <trkpt lat="46.1387" lon="6.71398">
        <ele>1610.5</ele>
        <time>2000-01-01T05:50:53.000Z</time>
      </trkpt>
      <trkpt lat="46.13871" lon="6.71401">
        <ele>1611</ele>
        <time>2000-01-01T05:51:03.000Z</time>
      </trkpt>
      <trkpt lat="46.13874" lon="6.71403">
        <ele>1610.8</ele>
        <time>2000-01-01T05:51:13.000Z</time>
      </trkpt>
      <trkpt lat="46.13878" lon="6.71406">
        <ele>1610.5</ele>
        <time>2000-01-01T05:51:23.000Z</time>
      </trkpt>
      <trkpt lat="46.1388" lon="6.71409">
        <ele>1610.7</ele>
        <time>2000-01-01T05:51:33.000Z</time>
      </trkpt>
      <trkpt lat="46.13883" lon="6.71412">
        <ele>1611</ele>
        <time>2000-01-01T05:51:43.000Z</time>
      </trkpt>
      <trkpt lat="46.13884" lon="6.71414">
        <ele>1610.8</ele>
        <time>2000-01-01T05:51:53.000Z</time>
      </trkpt>
      <trkpt lat="46.13888" lon="6.71417">
        <ele>1610.3</ele>
        <time>2000-01-01T05:52:03.000Z</time>
      </trkpt>
      <trkpt lat="46.13891" lon="6.71422">
        <ele>1610.6</ele>
        <time>2000-01-01T05:52:13.000Z</time>
      </trkpt>
      <trkpt lat="46.13894" lon="6.71429">
        <ele>1611.1</ele>
        <time>2000-01-01T05:52:23.000Z</time>
      </trkpt>
      <trkpt lat="46.13896" lon="6.71436">
        <ele>1611</ele>
        <time>2000-01-01T05:52:33.000Z</time>
      </trkpt>
      <trkpt lat="46.13896" lon="6.71436">
        <ele>1612</ele>
        <time>2000-01-01T05:52:43.000Z</time>
      </trkpt>
      <trkpt lat="46.13897" lon="6.71438">
        <ele>1612</ele>
        <time>2000-01-01T05:52:53.000Z</time>
      </trkpt>
      <trkpt lat="46.13898" lon="6.71441">
        <ele>1612.3</ele>
        <time>2000-01-01T05:53:03.000Z</time>
      </trkpt>
      <trkpt lat="46.13901" lon="6.71442">
        <ele>1611.2</ele>
        <time>2000-01-01T05:53:13.000Z</time>
      </trkpt>
      <trkpt lat="46.13903" lon="6.71443">
        <ele>1610.6</ele>
        <time>2000-01-01T05:53:23.000Z</time>
      </trkpt>
      <trkpt lat="46.13905" lon="6.71444">
        <ele>1609.9</ele>
        <time>2000-01-01T05:53:33.000Z</time>
      </trkpt>
      <trkpt lat="46.13905" lon="6.71446">
        <ele>1610.3</ele>
        <time>2000-01-01T05:53:43.000Z</time>
      </trkpt>
      <trkpt lat="46.13906" lon="6.71448">
        <ele>1610.2</ele>
        <time>2000-01-01T05:53:53.000Z</time>
      </trkpt>
      <trkpt lat="46.13908" lon="6.71449">
        <ele>1609.6</ele>
        <time>2000-01-01T05:54:03.000Z</time>
      </trkpt>
      <trkpt lat="46.1391" lon="6.71451">
        <ele>1609.1</ele>
        <time>2000-01-01T05:54:13.000Z</time>
      </trkpt>
      <trkpt lat="46.13911" lon="6.71455">
        <ele>1611</ele>
        <time>2000-01-01T05:54:23.000Z</time>
      </trkpt>
      <trkpt lat="46.13912" lon="6.71459">
        <ele>1609.9</ele>
        <time>2000-01-01T05:54:33.000Z</time>
      </trkpt>
      <trkpt lat="46.13914" lon="6.71464">
        <ele>1610.2</ele>
        <time>2000-01-01T05:54:43.000Z</time>
      </trkpt>
      <trkpt lat="46.13916" lon="6.7147">
        <ele>1610.7</ele>
        <time>2000-01-01T05:54:53.000Z</time>
      </trkpt>
      <trkpt lat="46.13918" lon="6.71475">
        <ele>1610.5</ele>
        <time>2000-01-01T05:55:03.000Z</time>
      </trkpt>
      <trkpt lat="46.1392" lon="6.71482">
        <ele>1609</ele>
        <time>2000-01-01T05:55:13.000Z</time>
      </trkpt>
      <trkpt lat="46.13923" lon="6.71487">
        <ele>1609</ele>
        <time>2000-01-01T05:55:23.000Z</time>
      </trkpt>
      <trkpt lat="46.13927" lon="6.71496">
        <ele>1607.8</ele>
        <time>2000-01-01T05:55:33.000Z</time>
      </trkpt>
      <trkpt lat="46.1393" lon="6.71503">
        <ele>1606.9</ele>
        <time>2000-01-01T05:55:43.000Z</time>
      </trkpt>
      <trkpt lat="46.13933" lon="6.71508">
        <ele>1607</ele>
        <time>2000-01-01T05:55:53.000Z</time>
      </trkpt>
      <trkpt lat="46.13936" lon="6.71515">
        <ele>1604.4</ele>
        <time>2000-01-01T05:56:03.000Z</time>
      </trkpt>
      <trkpt lat="46.1394" lon="6.71524">
        <ele>1602.8</ele>
        <time>2000-01-01T05:56:13.000Z</time>
      </trkpt>
      <trkpt lat="46.13946" lon="6.71534">
        <ele>1605</ele>
        <time>2000-01-01T05:56:23.000Z</time>
      </trkpt>
      <trkpt lat="46.1395" lon="6.71539">
        <ele>1598.7</ele>
        <time>2000-01-01T05:56:33.000Z</time>
      </trkpt>
      <trkpt lat="46.13953" lon="6.71541">
        <ele>1597.3</ele>
        <time>2000-01-01T05:56:43.000Z</time>
      </trkpt>
      <trkpt lat="46.13956" lon="6.71546">
        <ele>1596.4</ele>
        <time>2000-01-01T05:56:53.000Z</time>
      </trkpt>
      <trkpt lat="46.13959" lon="6.71555">
        <ele>1599</ele>
        <time>2000-01-01T05:57:03.000Z</time>
      </trkpt>
      <trkpt lat="46.13965" lon="6.71563">
        <ele>1593.6</ele>
        <time>2000-01-01T05:57:13.000Z</time>
      </trkpt>
      <trkpt lat="46.13974" lon="6.71574">
        <ele>1592</ele>
        <time>2000-01-01T05:57:23.000Z</time>
      </trkpt>
      <trkpt lat="46.13977" lon="6.71578">
        <ele>1589.9</ele>
        <time>2000-01-01T05:57:33.000Z</time>
      </trkpt>
      <trkpt lat="46.13982" lon="6.71584">
        <ele>1589.3</ele>
        <time>2000-01-01T05:57:43.000Z</time>
      </trkpt>
      <trkpt lat="46.13987" lon="6.71588">
        <ele>1588.2</ele>
        <time>2000-01-01T05:57:53.000Z</time>
      </trkpt>
      <trkpt lat="46.13994" lon="6.71588">
        <ele>1584</ele>
        <time>2000-01-01T05:58:03.000Z</time>
      </trkpt>
      <trkpt lat="46.13999" lon="6.71584">
        <ele>1584.3</ele>
        <time>2000-01-01T05:58:13.000Z</time>
      </trkpt>
      <trkpt lat="46.14002" lon="6.7158">
        <ele>1583.8</ele>
        <time>2000-01-01T05:58:23.000Z</time>
      </trkpt>
      <trkpt lat="46.14003" lon="6.71578">
        <ele>1583.7</ele>
        <time>2000-01-01T05:58:33.000Z</time>
      </trkpt>
      <trkpt lat="46.14005" lon="6.71575">
        <ele>1583.6</ele>
        <time>2000-01-01T05:58:43.000Z</time>
      </trkpt>
      <trkpt lat="46.14008" lon="6.71573">
        <ele>1583.6</ele>
        <time>2000-01-01T05:58:53.000Z</time>
      </trkpt>
      <trkpt lat="46.14011" lon="6.71573">
        <ele>1584</ele>
        <time>2000-01-01T05:59:03.000Z</time>
      </trkpt>
      <trkpt lat="46.14012" lon="6.71568">
        <ele>1583.6</ele>
        <time>2000-01-01T05:59:13.000Z</time>
      </trkpt>
      <trkpt lat="46.14011" lon="6.7156">
        <ele>1583.3</ele>
        <time>2000-01-01T05:59:23.000Z</time>
      </trkpt>
      <trkpt lat="46.14011" lon="6.71547">
        <ele>1583.3</ele>
        <time>2000-01-01T05:59:33.000Z</time>
      </trkpt>
      <trkpt lat="46.14011" lon="6.71537">
        <ele>1584</ele>
        <time>2000-01-01T05:59:43.000Z</time>
      </trkpt>
      <trkpt lat="46.14009" lon="6.71525">
        <ele>1583.1</ele>
        <time>2000-01-01T05:59:53.000Z</time>
      </trkpt>
      <trkpt lat="46.1401" lon="6.71511">
        <ele>1584</ele>
        <time>2000-01-01T06:00:03.000Z</time>
      </trkpt>
      <trkpt lat="46.14011" lon="6.71493">
        <ele>1586.2</ele>
        <time>2000-01-01T06:00:13.000Z</time>
      </trkpt>
      <trkpt lat="46.14011" lon="6.71495">
        <ele>1586</ele>
        <time>2000-01-01T06:00:23.000Z</time>
      </trkpt>
      <trkpt lat="46.14016" lon="6.71508">
        <ele>1584</ele>
        <time>2000-01-01T06:00:33.000Z</time>
      </trkpt>
      <trkpt lat="46.1402" lon="6.71514">
        <ele>1588</ele>
        <time>2000-01-01T06:00:43.000Z</time>
      </trkpt>
      <trkpt lat="46.14025" lon="6.71519">
        <ele>1589.3</ele>
        <time>2000-01-01T06:00:53.000Z</time>
      </trkpt>
      <trkpt lat="46.14039" lon="6.71526">
        <ele>1589</ele>
        <time>2000-01-01T06:01:03.000Z</time>
      </trkpt>
      <trkpt lat="46.14053" lon="6.7153">
        <ele>1596.9</ele>
        <time>2000-01-01T06:01:13.000Z</time>
      </trkpt>
      <trkpt lat="46.14063" lon="6.71531">
        <ele>1598</ele>
        <time>2000-01-01T06:01:23.000Z</time>
      </trkpt>
      <trkpt lat="46.14069" lon="6.7153">
        <ele>1602.1</ele>
        <time>2000-01-01T06:01:33.000Z</time>
      </trkpt>
      <trkpt lat="46.14082" lon="6.71525">
        <ele>1607</ele>
        <time>2000-01-01T06:01:43.000Z</time>
      </trkpt>
      <trkpt lat="46.14099" lon="6.71513">
        <ele>1610</ele>
        <time>2000-01-01T06:01:53.000Z</time>
      </trkpt>
      <trkpt lat="46.14099" lon="6.71513">
        <ele>1611.9</ele>
        <time>2000-01-01T06:02:03.000Z</time>
      </trkpt>
      <trkpt lat="46.14099" lon="6.71512">
        <ele>1611.9</ele>
        <time>2000-01-01T06:02:13.000Z</time>
      </trkpt>
      <trkpt lat="46.14105" lon="6.71509">
        <ele>1613.1</ele>
        <time>2000-01-01T06:02:23.000Z</time>
      </trkpt>
      <trkpt lat="46.1411" lon="6.71506">
        <ele>1613.8</ele>
        <time>2000-01-01T06:02:33.000Z</time>
      </trkpt>
      <trkpt lat="46.14117" lon="6.71508">
        <ele>1611</ele>
        <time>2000-01-01T06:02:43.000Z</time>
      </trkpt>
      <trkpt lat="46.14122" lon="6.71509">
        <ele>1613.1</ele>
        <time>2000-01-01T06:02:53.000Z</time>
      </trkpt>
      <trkpt lat="46.14128" lon="6.71509">
        <ele>1612.6</ele>
        <time>2000-01-01T06:03:03.000Z</time>
      </trkpt>
      <trkpt lat="46.14149" lon="6.71504">
        <ele>1612</ele>
        <time>2000-01-01T06:03:13.000Z</time>
      </trkpt>
      <trkpt lat="46.14173" lon="6.71499">
        <ele>1613</ele>
        <time>2000-01-01T06:03:23.000Z</time>
      </trkpt>
      <trkpt lat="46.1418" lon="6.71498">
        <ele>1614.5</ele>
        <time>2000-01-01T06:03:33.000Z</time>
      </trkpt>
      <trkpt lat="46.14194" lon="6.71494">
        <ele>1617</ele>
        <time>2000-01-01T06:03:43.000Z</time>
      </trkpt>
      <trkpt lat="46.14204" lon="6.71491">
        <ele>1617.9</ele>
        <time>2000-01-01T06:03:53.000Z</time>
      </trkpt>
      <trkpt lat="46.14219" lon="6.71487">
        <ele>1619</ele>
        <time>2000-01-01T06:04:03.000Z</time>
      </trkpt>
      <trkpt lat="46.14238" lon="6.71482">
        <ele>1619</ele>
        <time>2000-01-01T06:04:13.000Z</time>
      </trkpt>
      <trkpt lat="46.14247" lon="6.71477">
        <ele>1620.6</ele>
        <time>2000-01-01T06:04:23.000Z</time>
      </trkpt>
      <trkpt lat="46.1426" lon="6.71467">
        <ele>1620</ele>
        <time>2000-01-01T06:04:33.000Z</time>
      </trkpt>
      <trkpt lat="46.14268" lon="6.71459">
        <ele>1623.6</ele>
        <time>2000-01-01T06:04:43.000Z</time>
      </trkpt>
      <trkpt lat="46.14275" lon="6.71459">
        <ele>1623.1</ele>
        <time>2000-01-01T06:04:53.000Z</time>
      </trkpt>
      <trkpt lat="46.14278" lon="6.71462">
        <ele>1620</ele>
        <time>2000-01-01T06:05:03.000Z</time>
      </trkpt>
      <trkpt lat="46.14283" lon="6.7147">
        <ele>1621.8</ele>
        <time>2000-01-01T06:05:13.000Z</time>
      </trkpt>
      <trkpt lat="46.14286" lon="6.71474">
        <ele>1621.4</ele>
        <time>2000-01-01T06:05:23.000Z</time>
      </trkpt>
      <trkpt lat="46.14291" lon="6.71475">
        <ele>1621</ele>
        <time>2000-01-01T06:05:33.000Z</time>
      </trkpt>
      <trkpt lat="46.14297" lon="6.71474">
        <ele>1620</ele>
        <time>2000-01-01T06:05:43.000Z</time>
      </trkpt>
      <trkpt lat="46.14302" lon="6.71471">
        <ele>1620.3</ele>
        <time>2000-01-01T06:05:53.000Z</time>
      </trkpt>
      <trkpt lat="46.14307" lon="6.71468">
        <ele>1620.1</ele>
        <time>2000-01-01T06:06:03.000Z</time>
      </trkpt>
      <trkpt lat="46.14306" lon="6.71479">
        <ele>1620</ele>
        <time>2000-01-01T06:06:13.000Z</time>
      </trkpt>
      <trkpt lat="46.14308" lon="6.71495">
        <ele>1620</ele>
        <time>2000-01-01T06:06:23.000Z</time>
      </trkpt>
      <trkpt lat="46.14309" lon="6.71509">
        <ele>1619.6</ele>
        <time>2000-01-01T06:06:33.000Z</time>
      </trkpt>
      <trkpt lat="46.14309" lon="6.71523">
        <ele>1619</ele>
        <time>2000-01-01T06:06:43.000Z</time>
      </trkpt>
      <trkpt lat="46.14308" lon="6.71537">
        <ele>1619</ele>
        <time>2000-01-01T06:06:53.000Z</time>
      </trkpt>
      <trkpt lat="46.14307" lon="6.71543">
        <ele>1619</ele>
        <time>2000-01-01T06:07:03.000Z</time>
      </trkpt>
      <trkpt lat="46.14304" lon="6.71567">
        <ele>1619</ele>
        <time>2000-01-01T06:07:13.000Z</time>
      </trkpt>
      <trkpt lat="46.14299" lon="6.71586">
        <ele>1619.9</ele>
        <time>2000-01-01T06:07:23.000Z</time>
      </trkpt>
      <trkpt lat="46.14291" lon="6.71602">
        <ele>1620</ele>
        <time>2000-01-01T06:07:33.000Z</time>
      </trkpt>
      <trkpt lat="46.14284" lon="6.7161">
        <ele>1620.2</ele>
        <time>2000-01-01T06:07:43.000Z</time>
      </trkpt>
      <trkpt lat="46.14273" lon="6.71622">
        <ele>1620</ele>
        <time>2000-01-01T06:07:53.000Z</time>
      </trkpt>
      <trkpt lat="46.14265" lon="6.71633">
        <ele>1620.7</ele>
        <time>2000-01-01T06:08:03.000Z</time>
      </trkpt>
      <trkpt lat="46.14265" lon="6.71633">
        <ele>1620.7</ele>
        <time>2000-01-01T06:08:13.000Z</time>
      </trkpt>
      <trkpt lat="46.1426" lon="6.71647">
        <ele>1620</ele>
        <time>2000-01-01T06:08:23.000Z</time>
      </trkpt>
      <trkpt lat="46.14258" lon="6.7166">
        <ele>1620.8</ele>
        <time>2000-01-01T06:08:33.000Z</time>
      </trkpt>
      <trkpt lat="46.14257" lon="6.71676">
        <ele>1620</ele>
        <time>2000-01-01T06:08:43.000Z</time>
      </trkpt>
      <trkpt lat="46.14256" lon="6.71693">
        <ele>1620.7</ele>
        <time>2000-01-01T06:08:53.000Z</time>
      </trkpt>
      <trkpt lat="46.14255" lon="6.71708">
        <ele>1620</ele>
        <time>2000-01-01T06:09:03.000Z</time>
      </trkpt>
      <trkpt lat="46.14253" lon="6.71715">
        <ele>1621.3</ele>
        <time>2000-01-01T06:09:13.000Z</time>
      </trkpt>
      <trkpt lat="46.1425" lon="6.7172">
        <ele>1620.8</ele>
        <time>2000-01-01T06:09:23.000Z</time>
      </trkpt>
      <trkpt lat="46.14247" lon="6.71722">
        <ele>1620.9</ele>
        <time>2000-01-01T06:09:33.000Z</time>
      </trkpt>
      <trkpt lat="46.14241" lon="6.71726">
        <ele>1620</ele>
        <time>2000-01-01T06:09:43.000Z</time>
      </trkpt>
      <trkpt lat="46.14238" lon="6.71762">
        <ele>1623</ele>
        <time>2000-01-01T06:09:53.000Z</time>
      </trkpt>
      <trkpt lat="46.14233" lon="6.71775">
        <ele>1625.1</ele>
        <time>2000-01-01T06:10:03.000Z</time>
      </trkpt>
      <trkpt lat="46.14224" lon="6.71796">
        <ele>1626</ele>
        <time>2000-01-01T06:10:13.000Z</time>
      </trkpt>
      <trkpt lat="46.14221" lon="6.7181">
        <ele>1628.2</ele>
        <time>2000-01-01T06:10:23.000Z</time>
      </trkpt>
      <trkpt lat="46.1422" lon="6.71821">
        <ele>1628.9</ele>
        <time>2000-01-01T06:10:33.000Z</time>
      </trkpt>
      <trkpt lat="46.14218" lon="6.71822">
        <ele>1627</ele>
        <time>2000-01-01T06:10:43.000Z</time>
      </trkpt>
      <trkpt lat="46.14214" lon="6.71823">
        <ele>1628.6</ele>
        <time>2000-01-01T06:10:53.000Z</time>
      </trkpt>
      <trkpt lat="46.14209" lon="6.71827">
        <ele>1628.7</ele>
        <time>2000-01-01T06:11:03.000Z</time>
      </trkpt>
      <trkpt lat="46.14204" lon="6.71837">
        <ele>1629.8</ele>
        <time>2000-01-01T06:11:13.000Z</time>
      </trkpt>
      <trkpt lat="46.14196" lon="6.71859">
        <ele>1630</ele>
        <time>2000-01-01T06:11:23.000Z</time>
      </trkpt>
      <trkpt lat="46.14179" lon="6.719">
        <ele>1634</ele>
        <time>2000-01-01T06:11:33.000Z</time>
      </trkpt>
      <trkpt lat="46.14169" lon="6.7192">
        <ele>1639.8</ele>
        <time>2000-01-01T06:11:43.000Z</time>
      </trkpt>
      <trkpt lat="46.14164" lon="6.7194">
        <ele>1642</ele>
        <time>2000-01-01T06:11:53.000Z</time>
      </trkpt>
      <trkpt lat="46.14163" lon="6.71962">
        <ele>1646</ele>
        <time>2000-01-01T06:12:03.000Z</time>
      </trkpt>
      <trkpt lat="46.14163" lon="6.71982">
        <ele>1648</ele>
        <time>2000-01-01T06:12:13.000Z</time>
      </trkpt>
      <trkpt lat="46.14166" lon="6.71997">
        <ele>1652.3</ele>
        <time>2000-01-01T06:12:23.000Z</time>
      </trkpt>
      <trkpt lat="46.14171" lon="6.72008">
        <ele>1653</ele>
        <time>2000-01-01T06:12:33.000Z</time>
      </trkpt>
      <trkpt lat="46.14181" lon="6.72017">
        <ele>1657.9</ele>
        <time>2000-01-01T06:12:43.000Z</time>
      </trkpt>
      <trkpt lat="46.14196" lon="6.72026">
        <ele>1660</ele>
        <time>2000-01-01T06:12:53.000Z</time>
      </trkpt>
      <trkpt lat="46.14217" lon="6.72034">
        <ele>1664</ele>
        <time>2000-01-01T06:13:03.000Z</time>
      </trkpt>
      <trkpt lat="46.14229" lon="6.72039">
        <ele>1669.5</ele>
        <time>2000-01-01T06:13:13.000Z</time>
      </trkpt>
      <trkpt lat="46.14236" lon="6.72039">
        <ele>1668</ele>
        <time>2000-01-01T06:13:23.000Z</time>
      </trkpt>
      <trkpt lat="46.14241" lon="6.72037">
        <ele>1669.8</ele>
        <time>2000-01-01T06:13:33.000Z</time>
      </trkpt>
      <trkpt lat="46.14244" lon="6.72037">
        <ele>1670</ele>
        <time>2000-01-01T06:13:43.000Z</time>
      </trkpt>
      <trkpt lat="46.14249" lon="6.72048">
        <ele>1674.1</ele>
        <time>2000-01-01T06:13:53.000Z</time>
      </trkpt>
      <trkpt lat="46.14251" lon="6.72058">
        <ele>1676</ele>
        <time>2000-01-01T06:14:03.000Z</time>
      </trkpt>
      <trkpt lat="46.14253" lon="6.72073">
        <ele>1681.4</ele>
        <time>2000-01-01T06:14:13.000Z</time>
      </trkpt>
      <trkpt lat="46.14253" lon="6.72085">
        <ele>1684</ele>
        <time>2000-01-01T06:14:23.000Z</time>
      </trkpt>
      <trkpt lat="46.14254" lon="6.72098">
        <ele>1685</ele>
        <time>2000-01-01T06:14:33.000Z</time>
      </trkpt>
      <trkpt lat="46.14255" lon="6.72104">
        <ele>1688.8</ele>
        <time>2000-01-01T06:14:43.000Z</time>
      </trkpt>
      <trkpt lat="46.14255" lon="6.7211">
        <ele>1690.2</ele>
        <time>2000-01-01T06:14:53.000Z</time>
      </trkpt>
      <trkpt lat="46.14253" lon="6.72118">
        <ele>1691.8</ele>
        <time>2000-01-01T06:15:03.000Z</time>
      </trkpt>
      <trkpt lat="46.14252" lon="6.72126">
        <ele>1692</ele>
        <time>2000-01-01T06:15:13.000Z</time>
      </trkpt>
      <trkpt lat="46.14248" lon="6.72138">
        <ele>1696.5</ele>
        <time>2000-01-01T06:15:23.000Z</time>
      </trkpt>
      <trkpt lat="46.14242" lon="6.72144">
        <ele>1697.3</ele>
        <time>2000-01-01T06:15:33.000Z</time>
      </trkpt>
      <trkpt lat="46.1424" lon="6.72148">
        <ele>1694</ele>
        <time>2000-01-01T06:15:43.000Z</time>
      </trkpt>
      <trkpt lat="46.14239" lon="6.72158">
        <ele>1700.9</ele>
        <time>2000-01-01T06:15:53.000Z</time>
      </trkpt>
      <trkpt lat="46.1424" lon="6.72164">
        <ele>1702.8</ele>
        <time>2000-01-01T06:16:03.000Z</time>
      </trkpt>
      <trkpt lat="46.14239" lon="6.72169">
        <ele>1704.1</ele>
        <time>2000-01-01T06:16:13.000Z</time>
      </trkpt>
      <trkpt lat="46.14235" lon="6.72173">
        <ele>1702</ele>
        <time>2000-01-01T06:16:23.000Z</time>
      </trkpt>
      <trkpt lat="46.14232" lon="6.72184">
        <ele>1706.8</ele>
        <time>2000-01-01T06:16:33.000Z</time>
      </trkpt>
      <trkpt lat="46.14229" lon="6.72194">
        <ele>1708.6</ele>
        <time>2000-01-01T06:16:43.000Z</time>
      </trkpt>
      <trkpt lat="46.14226" lon="6.72201">
        <ele>1706</ele>
        <time>2000-01-01T06:16:53.000Z</time>
      </trkpt>
      <trkpt lat="46.14226" lon="6.72205">
        <ele>1711</ele>
        <time>2000-01-01T06:17:03.000Z</time>
      </trkpt>
      <trkpt lat="46.14226" lon="6.72208">
        <ele>1711.9</ele>
        <time>2000-01-01T06:17:13.000Z</time>
      </trkpt>
      <trkpt lat="46.14226" lon="6.72212">
        <ele>1713.1</ele>
        <time>2000-01-01T06:17:23.000Z</time>
      </trkpt>
      <trkpt lat="46.14224" lon="6.72214">
        <ele>1713.1</ele>
        <time>2000-01-01T06:17:33.000Z</time>
      </trkpt>
      <trkpt lat="46.14223" lon="6.72216">
        <ele>1713.4</ele>
        <time>2000-01-01T06:17:43.000Z</time>
      </trkpt>
      <trkpt lat="46.1422" lon="6.72217">
        <ele>1713.2</ele>
        <time>2000-01-01T06:17:53.000Z</time>
      </trkpt>
      <trkpt lat="46.14218" lon="6.72217">
        <ele>1712.9</ele>
        <time>2000-01-01T06:18:03.000Z</time>
      </trkpt>
      <trkpt lat="46.14216" lon="6.72219">
        <ele>1709</ele>
        <time>2000-01-01T06:18:13.000Z</time>
      </trkpt>
      <trkpt lat="46.14212" lon="6.72224">
        <ele>1714.3</ele>
        <time>2000-01-01T06:18:23.000Z</time>
      </trkpt>
      <trkpt lat="46.14204" lon="6.72228">
        <ele>1714.7</ele>
        <time>2000-01-01T06:18:33.000Z</time>
      </trkpt>
      <trkpt lat="46.14199" lon="6.72231">
        <ele>1712</ele>
        <time>2000-01-01T06:18:43.000Z</time>
      </trkpt>
      <trkpt lat="46.14196" lon="6.72236">
        <ele>1716.7</ele>
        <time>2000-01-01T06:18:53.000Z</time>
      </trkpt>
      <trkpt lat="46.1419" lon="6.72242">
        <ele>1718.5</ele>
        <time>2000-01-01T06:19:03.000Z</time>
      </trkpt>
      <trkpt lat="46.14185" lon="6.72246">
        <ele>1719.7</ele>
        <time>2000-01-01T06:19:13.000Z</time>
      </trkpt>
      <trkpt lat="46.14178" lon="6.72251">
        <ele>1720</ele>
        <time>2000-01-01T06:19:23.000Z</time>
      </trkpt>
      <trkpt lat="46.14171" lon="6.72256">
        <ele>1722.7</ele>
        <time>2000-01-01T06:19:33.000Z</time>
      </trkpt>
      <trkpt lat="46.14167" lon="6.72259">
        <ele>1723.6</ele>
        <time>2000-01-01T06:19:43.000Z</time>
      </trkpt>
      <trkpt lat="46.1416" lon="6.72263">
        <ele>1720</ele>
        <time>2000-01-01T06:19:53.000Z</time>
      </trkpt>
      <trkpt lat="46.14157" lon="6.72265">
        <ele>1725.1</ele>
        <time>2000-01-01T06:20:03.000Z</time>
      </trkpt>
      <trkpt lat="46.14151" lon="6.72267">
        <ele>1725.3</ele>
        <time>2000-01-01T06:20:13.000Z</time>
      </trkpt>
      <trkpt lat="46.14146" lon="6.72268">
        <ele>1725.2</ele>
        <time>2000-01-01T06:20:23.000Z</time>
      </trkpt>
      <trkpt lat="46.14141" lon="6.7227">
        <ele>1720</ele>
        <time>2000-01-01T06:20:33.000Z</time>
      </trkpt>
      <trkpt lat="46.14134" lon="6.72272">
        <ele>1726.1</ele>
        <time>2000-01-01T06:20:43.000Z</time>
      </trkpt>
      <trkpt lat="46.14128" lon="6.72276">
        <ele>1727.8</ele>
        <time>2000-01-01T06:20:53.000Z</time>
      </trkpt>
      <trkpt lat="46.14126" lon="6.7228">
        <ele>1729.3</ele>
        <time>2000-01-01T06:21:03.000Z</time>
      </trkpt>
      <trkpt lat="46.14123" lon="6.72284">
        <ele>1729</ele>
        <time>2000-01-01T06:21:13.000Z</time>
      </trkpt>
      <trkpt lat="46.14119" lon="6.72288">
        <ele>1732.5</ele>
        <time>2000-01-01T06:21:23.000Z</time>
      </trkpt>
      <trkpt lat="46.14113" lon="6.72292">
        <ele>1734.1</ele>
        <time>2000-01-01T06:21:33.000Z</time>
      </trkpt>
      <trkpt lat="46.14111" lon="6.72295">
        <ele>1735.2</ele>
        <time>2000-01-01T06:21:43.000Z</time>
      </trkpt>
      <trkpt lat="46.14109" lon="6.72296">
        <ele>1735.8</ele>
        <time>2000-01-01T06:21:53.000Z</time>
      </trkpt>
      <trkpt lat="46.14107" lon="6.72299">
        <ele>1732</ele>
        <time>2000-01-01T06:22:03.000Z</time>
      </trkpt>
      <trkpt lat="46.14106" lon="6.72302">
        <ele>1738.3</ele>
        <time>2000-01-01T06:22:13.000Z</time>
      </trkpt>
      <trkpt lat="46.14103" lon="6.72303">
        <ele>1739</ele>
        <time>2000-01-01T06:22:23.000Z</time>
      </trkpt>
      <trkpt lat="46.14102" lon="6.72304">
        <ele>1739.5</ele>
        <time>2000-01-01T06:22:33.000Z</time>
      </trkpt>
      <trkpt lat="46.14099" lon="6.72306">
        <ele>1740.5</ele>
        <time>2000-01-01T06:22:43.000Z</time>
      </trkpt>
      <trkpt lat="46.14098" lon="6.72306">
        <ele>1740.6</ele>
        <time>2000-01-01T06:22:53.000Z</time>
      </trkpt>
      <trkpt lat="46.14092" lon="6.72304">
        <ele>1740.6</ele>
        <time>2000-01-01T06:23:03.000Z</time>
      </trkpt>
      <trkpt lat="46.14088" lon="6.72305">
        <ele>1742</ele>
        <time>2000-01-01T06:23:13.000Z</time>
      </trkpt>
      <trkpt lat="46.1408" lon="6.72302">
        <ele>1741.1</ele>
        <time>2000-01-01T06:23:23.000Z</time>
      </trkpt>
      <trkpt lat="46.14069" lon="6.72297">
        <ele>1743</ele>
        <time>2000-01-01T06:23:33.000Z</time>
      </trkpt>
      <trkpt lat="46.14058" lon="6.72292">
        <ele>1740.8</ele>
        <time>2000-01-01T06:23:43.000Z</time>
      </trkpt>
      <trkpt lat="46.14053" lon="6.7229">
        <ele>1741.4</ele>
        <time>2000-01-01T06:23:53.000Z</time>
      </trkpt>
      <trkpt lat="46.14048" lon="6.72289">
        <ele>1743</ele>
        <time>2000-01-01T06:24:03.000Z</time>
      </trkpt>
      <trkpt lat="46.1404" lon="6.7229">
        <ele>1744.2</ele>
        <time>2000-01-01T06:24:13.000Z</time>
      </trkpt>
      <trkpt lat="46.14033" lon="6.72291">
        <ele>1745.8</ele>
        <time>2000-01-01T06:24:23.000Z</time>
      </trkpt>
      <trkpt lat="46.14027" lon="6.72297">
        <ele>1752</ele>
        <time>2000-01-01T06:24:33.000Z</time>
      </trkpt>
      <trkpt lat="46.14014" lon="6.72312">
        <ele>1752</ele>
        <time>2000-01-01T06:24:43.000Z</time>
      </trkpt>
      <trkpt lat="46.14008" lon="6.72317">
        <ele>1752</ele>
        <time>2000-01-01T06:24:53.000Z</time>
      </trkpt>
      <trkpt lat="46.14" lon="6.72321">
        <ele>1755.2</ele>
        <time>2000-01-01T06:25:03.000Z</time>
      </trkpt>
      <trkpt lat="46.13985" lon="6.72327">
        <ele>1753</ele>
        <time>2000-01-01T06:25:13.000Z</time>
      </trkpt>
      <trkpt lat="46.13977" lon="6.72331">
        <ele>1755.4</ele>
        <time>2000-01-01T06:25:23.000Z</time>
      </trkpt>
      <trkpt lat="46.13974" lon="6.72333">
        <ele>1755.8</ele>
        <time>2000-01-01T06:25:33.000Z</time>
      </trkpt>
      <trkpt lat="46.13972" lon="6.72338">
        <ele>1756.6</ele>
        <time>2000-01-01T06:25:43.000Z</time>
      </trkpt>
      <trkpt lat="46.13971" lon="6.7235">
        <ele>1757</ele>
        <time>2000-01-01T06:25:53.000Z</time>
      </trkpt>
      <trkpt lat="46.13969" lon="6.72354">
        <ele>1759.6</ele>
        <time>2000-01-01T06:26:03.000Z</time>
      </trkpt>
      <trkpt lat="46.13967" lon="6.7236">
        <ele>1761.1</ele>
        <time>2000-01-01T06:26:13.000Z</time>
      </trkpt>
      <trkpt lat="46.13967" lon="6.72367">
        <ele>1762.1</ele>
        <time>2000-01-01T06:26:23.000Z</time>
      </trkpt>
      <trkpt lat="46.13965" lon="6.72379">
        <ele>1764</ele>
        <time>2000-01-01T06:26:33.000Z</time>
      </trkpt>
      <trkpt lat="46.13963" lon="6.72386">
        <ele>1766.6</ele>
        <time>2000-01-01T06:26:43.000Z</time>
      </trkpt>
      <trkpt lat="46.13962" lon="6.72388">
        <ele>1767.3</ele>
        <time>2000-01-01T06:26:53.000Z</time>
      </trkpt>
      <trkpt lat="46.1396" lon="6.72388">
        <ele>1768.2</ele>
        <time>2000-01-01T06:27:03.000Z</time>
      </trkpt>
      <trkpt lat="46.13955" lon="6.72386">
        <ele>1770</ele>
        <time>2000-01-01T06:27:13.000Z</time>
      </trkpt>
      <trkpt lat="46.13952" lon="6.72385">
        <ele>1771.2</ele>
        <time>2000-01-01T06:27:23.000Z</time>
      </trkpt>
      <trkpt lat="46.1395" lon="6.72387">
        <ele>1769</ele>
        <time>2000-01-01T06:27:33.000Z</time>
      </trkpt>
      <trkpt lat="46.13947" lon="6.72395">
        <ele>1774.6</ele>
        <time>2000-01-01T06:27:43.000Z</time>
      </trkpt>
      <trkpt lat="46.13942" lon="6.72408">
        <ele>1778.4</ele>
        <time>2000-01-01T06:27:53.000Z</time>
      </trkpt>
      <trkpt lat="46.13937" lon="6.7242">
        <ele>1784</ele>
        <time>2000-01-01T06:28:03.000Z</time>
      </trkpt>
      <trkpt lat="46.13929" lon="6.72438">
        <ele>1787.8</ele>
        <time>2000-01-01T06:28:13.000Z</time>
      </trkpt>
      <trkpt lat="46.13925" lon="6.7246">
        <ele>1792</ele>
        <time>2000-01-01T06:28:23.000Z</time>
      </trkpt>
      <trkpt lat="46.13921" lon="6.72493">
        <ele>1799</ele>
        <time>2000-01-01T06:28:33.000Z</time>
      </trkpt>
      <trkpt lat="46.1392" lon="6.72528">
        <ele>1812</ele>
        <time>2000-01-01T06:28:43.000Z</time>
      </trkpt>
      <trkpt lat="46.13921" lon="6.72534">
        <ele>1809.2</ele>
        <time>2000-01-01T06:28:53.000Z</time>
      </trkpt>
      <trkpt lat="46.13926" lon="6.72569">
        <ele>1815</ele>
        <time>2000-01-01T06:29:03.000Z</time>
      </trkpt>
      <trkpt lat="46.13922" lon="6.72569">
        <ele>1818.4</ele>
        <time>2000-01-01T06:29:13.000Z</time>
      </trkpt>
      <trkpt lat="46.13925" lon="6.72582">
        <ele>1821.5</ele>
        <time>2000-01-01T06:29:23.000Z</time>
      </trkpt>
      <trkpt lat="46.13925" lon="6.72582">
        <ele>1821.5</ele>
        <time>2000-01-01T06:29:33.000Z</time>
      </trkpt>
      <trkpt lat="46.13925" lon="6.72582">
        <ele>1821.5</ele>
        <time>2000-01-01T06:29:43.000Z</time>
      </trkpt>
      <trkpt lat="46.13916" lon="6.72579">
        <ele>1823</ele>
        <time>2000-01-01T06:29:53.000Z</time>
      </trkpt>
      <trkpt lat="46.13925" lon="6.72621">
        <ele>1833</ele>
        <time>2000-01-01T06:30:03.000Z</time>
      </trkpt>
      <trkpt lat="46.13904" lon="6.72625">
        <ele>1840</ele>
        <time>2000-01-01T06:30:13.000Z</time>
      </trkpt>
      <trkpt lat="46.1391" lon="6.72638">
        <ele>1843.6</ele>
        <time>2000-01-01T06:30:23.000Z</time>
      </trkpt>
      <trkpt lat="46.13915" lon="6.72654">
        <ele>1847</ele>
        <time>2000-01-01T06:30:33.000Z</time>
      </trkpt>
      <trkpt lat="46.13922" lon="6.72661">
        <ele>1849.6</ele>
        <time>2000-01-01T06:30:43.000Z</time>
      </trkpt>
      <trkpt lat="46.13924" lon="6.72668">
        <ele>1851.9</ele>
        <time>2000-01-01T06:30:53.000Z</time>
      </trkpt>
      <trkpt lat="46.1393" lon="6.72679">
        <ele>1853</ele>
        <time>2000-01-01T06:31:03.000Z</time>
      </trkpt>
      <trkpt lat="46.1393" lon="6.72686">
        <ele>1857.7</ele>
        <time>2000-01-01T06:31:13.000Z</time>
      </trkpt>
      <trkpt lat="46.13935" lon="6.72688">
        <ele>1857.7</ele>
        <time>2000-01-01T06:31:23.000Z</time>
      </trkpt>
      <trkpt lat="46.1394" lon="6.72693">
        <ele>1859</ele>
        <time>2000-01-01T06:31:33.000Z</time>
      </trkpt>
      <trkpt lat="46.13941" lon="6.72695">
        <ele>1859.7</ele>
        <time>2000-01-01T06:31:43.000Z</time>
      </trkpt>
      <trkpt lat="46.13934" lon="6.72698">
        <ele>1859</ele>
        <time>2000-01-01T06:31:53.000Z</time>
      </trkpt>
      <trkpt lat="46.13927" lon="6.72706">
        <ele>1866.2</ele>
        <time>2000-01-01T06:32:03.000Z</time>
      </trkpt>
      <trkpt lat="46.13928" lon="6.72713">
        <ele>1868.8</ele>
        <time>2000-01-01T06:32:13.000Z</time>
      </trkpt>
      <trkpt lat="46.13932" lon="6.72722">
        <ele>1871</ele>
        <time>2000-01-01T06:32:23.000Z</time>
      </trkpt>
      <trkpt lat="46.13936" lon="6.72726">
        <ele>1872.7</ele>
        <time>2000-01-01T06:32:33.000Z</time>
      </trkpt>
      <trkpt lat="46.13945" lon="6.72731">
        <ele>1873.8</ele>
        <time>2000-01-01T06:32:43.000Z</time>
      </trkpt>
      <trkpt lat="46.13954" lon="6.72734">
        <ele>1873</ele>
        <time>2000-01-01T06:32:53.000Z</time>
      </trkpt>
      <trkpt lat="46.13965" lon="6.72737">
        <ele>1879.2</ele>
        <time>2000-01-01T06:33:03.000Z</time>
      </trkpt>
      <trkpt lat="46.13976" lon="6.72738">
        <ele>1874</ele>
        <time>2000-01-01T06:33:13.000Z</time>
      </trkpt>
      <trkpt lat="46.13977" lon="6.72742">
        <ele>1882.6</ele>
        <time>2000-01-01T06:33:23.000Z</time>
      </trkpt>
      <trkpt lat="46.13983" lon="6.72743">
        <ele>1883.4</ele>
        <time>2000-01-01T06:33:33.000Z</time>
      </trkpt>
      <trkpt lat="46.13989" lon="6.7274">
        <ele>1882.3</ele>
        <time>2000-01-01T06:33:43.000Z</time>
      </trkpt>
      <trkpt lat="46.13993" lon="6.72738">
        <ele>1875</ele>
        <time>2000-01-01T06:33:53.000Z</time>
      </trkpt>
      <trkpt lat="46.14" lon="6.72736">
        <ele>1880.9</ele>
        <time>2000-01-01T06:34:03.000Z</time>
      </trkpt>
      <trkpt lat="46.14004" lon="6.72738">
        <ele>1883.4</ele>
        <time>2000-01-01T06:34:13.000Z</time>
      </trkpt>
      <trkpt lat="46.14016" lon="6.72738">
        <ele>1879</ele>
        <time>2000-01-01T06:34:23.000Z</time>
      </trkpt>
      <trkpt lat="46.14021" lon="6.72737">
        <ele>1889.1</ele>
        <time>2000-01-01T06:34:33.000Z</time>
      </trkpt>
      <trkpt lat="46.14025" lon="6.72737">
        <ele>1890.5</ele>
        <time>2000-01-01T06:34:43.000Z</time>
      </trkpt>
      <trkpt lat="46.14038" lon="6.72736">
        <ele>1886</ele>
        <time>2000-01-01T06:34:53.000Z</time>
      </trkpt>
      <trkpt lat="46.14042" lon="6.72737">
        <ele>1891.1</ele>
        <time>2000-01-01T06:35:03.000Z</time>
      </trkpt>
      <trkpt lat="46.14042" lon="6.72743">
        <ele>1891.9</ele>
        <time>2000-01-01T06:35:13.000Z</time>
      </trkpt>
      <trkpt lat="46.14032" lon="6.72757">
        <ele>1900</ele>
        <time>2000-01-01T06:35:23.000Z</time>
      </trkpt>
      <trkpt lat="46.14002" lon="6.72795">
        <ele>1916</ele>
        <time>2000-01-01T06:35:33.000Z</time>
      </trkpt>
      <trkpt lat="46.13993" lon="6.72806">
        <ele>1920</ele>
        <time>2000-01-01T06:35:43.000Z</time>
      </trkpt>
      <trkpt lat="46.13983" lon="6.72822">
        <ele>1928</ele>
        <time>2000-01-01T06:35:53.000Z</time>
      </trkpt>
      <trkpt lat="46.13965" lon="6.72841">
        <ele>1948</ele>
        <time>2000-01-01T06:36:03.000Z</time>
      </trkpt>
      <trkpt lat="46.13954" lon="6.72858">
        <ele>1946.4</ele>
        <time>2000-01-01T06:36:13.000Z</time>
      </trkpt>
      <trkpt lat="46.13932" lon="6.72885">
        <ele>1962</ele>
        <time>2000-01-01T06:36:23.000Z</time>
      </trkpt>
      <trkpt lat="46.13918" lon="6.72909">
        <ele>1977</ele>
        <time>2000-01-01T06:36:33.000Z</time>
      </trkpt>
      <trkpt lat="46.13899" lon="6.72935">
        <ele>1997</ele>
        <time>2000-01-01T06:36:43.000Z</time>
      </trkpt>
      <trkpt lat="46.13886" lon="6.72948">
        <ele>2006.5</ele>
        <time>2000-01-01T06:36:53.000Z</time>
      </trkpt>
      <trkpt lat="46.13875" lon="6.72962">
        <ele>2017</ele>
        <time>2000-01-01T06:37:03.000Z</time>
      </trkpt>
      <trkpt lat="46.13873" lon="6.72973">
        <ele>2016.7</ele>
        <time>2000-01-01T06:37:13.000Z</time>
      </trkpt>
      <trkpt lat="46.13873" lon="6.72982">
        <ele>2018.6</ele>
        <time>2000-01-01T06:37:23.000Z</time>
      </trkpt>
      <trkpt lat="46.13871" lon="6.72986">
        <ele>2020.6</ele>
        <time>2000-01-01T06:37:33.000Z</time>
      </trkpt>
      <trkpt lat="46.13867" lon="6.72989">
        <ele>2024</ele>
        <time>2000-01-01T06:37:43.000Z</time>
      </trkpt>
      <trkpt lat="46.13862" lon="6.72996">
        <ele>2030.4</ele>
        <time>2000-01-01T06:37:53.000Z</time>
      </trkpt>
      <trkpt lat="46.13855" lon="6.73011">
        <ele>2042</ele>
        <time>2000-01-01T06:38:03.000Z</time>
      </trkpt>
      <trkpt lat="46.13843" lon="6.73022">
        <ele>2044.2</ele>
        <time>2000-01-01T06:38:13.000Z</time>
      </trkpt>
      <trkpt lat="46.13835" lon="6.7303">
        <ele>2049</ele>
        <time>2000-01-01T06:38:23.000Z</time>
      </trkpt>
      <trkpt lat="46.13816" lon="6.73059">
        <ele>2065</ele>
        <time>2000-01-01T06:38:33.000Z</time>
      </trkpt>
      <trkpt lat="46.13809" lon="6.7307">
        <ele>2073</ele>
        <time>2000-01-01T06:38:43.000Z</time>
      </trkpt>
      <trkpt lat="46.13805" lon="6.73087">
        <ele>2083</ele>
        <time>2000-01-01T06:38:53.000Z</time>
      </trkpt>
      <trkpt lat="46.13798" lon="6.73091">
        <ele>2083.1</ele>
        <time>2000-01-01T06:39:03.000Z</time>
      </trkpt>
      <trkpt lat="46.1379" lon="6.73096">
        <ele>2084</ele>
        <time>2000-01-01T06:39:13.000Z</time>
      </trkpt>
      <trkpt lat="46.1379" lon="6.73096">
        <ele>2084</ele>
        <time>2000-01-01T06:39:23.000Z</time>
      </trkpt>
      <trkpt lat="46.1379" lon="6.73107">
        <ele>2079</ele>
        <time>2000-01-01T06:39:33.000Z</time>
      </trkpt>
      <trkpt lat="46.13789" lon="6.73108">
        <ele>2083.4</ele>
        <time>2000-01-01T06:39:43.000Z</time>
      </trkpt>
      <trkpt lat="46.13788" lon="6.73113">
        <ele>2082.4</ele>
        <time>2000-01-01T06:39:53.000Z</time>
      </trkpt>
      <trkpt lat="46.13781" lon="6.73122">
        <ele>2079.4</ele>
        <time>2000-01-01T06:40:03.000Z</time>
      </trkpt>
      <trkpt lat="46.13775" lon="6.73133">
        <ele>2075</ele>
        <time>2000-01-01T06:40:13.000Z</time>
      </trkpt>
      <trkpt lat="46.13769" lon="6.73142">
        <ele>2066.3</ele>
        <time>2000-01-01T06:40:23.000Z</time>
      </trkpt>
      <trkpt lat="46.13761" lon="6.73152">
        <ele>2060</ele>
        <time>2000-01-01T06:40:33.000Z</time>
      </trkpt>
      <trkpt lat="46.13753" lon="6.73159">
        <ele>2052.3</ele>
        <time>2000-01-01T06:40:43.000Z</time>
      </trkpt>
      <trkpt lat="46.1374" lon="6.73166">
        <ele>2045</ele>
        <time>2000-01-01T06:40:53.000Z</time>
      </trkpt>
      <trkpt lat="46.13733" lon="6.73167">
        <ele>2038.2</ele>
        <time>2000-01-01T06:41:03.000Z</time>
      </trkpt>
      <trkpt lat="46.13733" lon="6.73174">
        <ele>2034.9</ele>
        <time>2000-01-01T06:41:13.000Z</time>
      </trkpt>
      <trkpt lat="46.13729" lon="6.73175">
        <ele>2032.1</ele>
        <time>2000-01-01T06:41:23.000Z</time>
      </trkpt>
      <trkpt lat="46.13725" lon="6.73175">
        <ele>2028</ele>
        <time>2000-01-01T06:41:33.000Z</time>
      </trkpt>
      <trkpt lat="46.13719" lon="6.73183">
        <ele>2023.6</ele>
        <time>2000-01-01T06:41:43.000Z</time>
      </trkpt>
      <trkpt lat="46.13704" lon="6.73204">
        <ele>2010</ele>
        <time>2000-01-01T06:41:53.000Z</time>
      </trkpt>
      <trkpt lat="46.13702" lon="6.73205">
        <ele>2005.8</ele>
        <time>2000-01-01T06:42:03.000Z</time>
      </trkpt>
      <trkpt lat="46.13699" lon="6.73209">
        <ele>2003.4</ele>
        <time>2000-01-01T06:42:13.000Z</time>
      </trkpt>
      <trkpt lat="46.13693" lon="6.73209">
        <ele>2001.2</ele>
        <time>2000-01-01T06:42:23.000Z</time>
      </trkpt>
      <trkpt lat="46.1369" lon="6.73211">
        <ele>1998.4</ele>
        <time>2000-01-01T06:42:33.000Z</time>
      </trkpt>
      <trkpt lat="46.13689" lon="6.73219">
        <ele>1992</ele>
        <time>2000-01-01T06:42:43.000Z</time>
      </trkpt>
      <trkpt lat="46.13682" lon="6.7322">
        <ele>1990.5</ele>
        <time>2000-01-01T06:42:53.000Z</time>
      </trkpt>
      <trkpt lat="46.1368" lon="6.73228">
        <ele>1985.7</ele>
        <time>2000-01-01T06:43:03.000Z</time>
      </trkpt>
      <trkpt lat="46.13678" lon="6.73229">
        <ele>1984</ele>
        <time>2000-01-01T06:43:13.000Z</time>
      </trkpt>
      <trkpt lat="46.13675" lon="6.7324">
        <ele>1982</ele>
        <time>2000-01-01T06:43:23.000Z</time>
      </trkpt>
      <trkpt lat="46.13669" lon="6.73246">
        <ele>1975</ele>
        <time>2000-01-01T06:43:33.000Z</time>
      </trkpt>
      <trkpt lat="46.13663" lon="6.7325">
        <ele>1971</ele>
        <time>2000-01-01T06:43:43.000Z</time>
      </trkpt>
      <trkpt lat="46.13661" lon="6.73264">
        <ele>1968</ele>
        <time>2000-01-01T06:43:53.000Z</time>
      </trkpt>
      <trkpt lat="46.13652" lon="6.73273">
        <ele>1955.5</ele>
        <time>2000-01-01T06:44:03.000Z</time>
      </trkpt>
      <trkpt lat="46.13644" lon="6.73272">
        <ele>1951.9</ele>
        <time>2000-01-01T06:44:13.000Z</time>
      </trkpt>
      <trkpt lat="46.13643" lon="6.73277">
        <ele>1951</ele>
        <time>2000-01-01T06:44:23.000Z</time>
      </trkpt>
      <trkpt lat="46.13639" lon="6.7328">
        <ele>1947.8</ele>
        <time>2000-01-01T06:44:33.000Z</time>
      </trkpt>
      <trkpt lat="46.13632" lon="6.73283">
        <ele>1941.3</ele>
        <time>2000-01-01T06:44:43.000Z</time>
      </trkpt>
      <trkpt lat="46.13621" lon="6.73296">
        <ele>1936</ele>
        <time>2000-01-01T06:44:53.000Z</time>
      </trkpt>
      <trkpt lat="46.13614" lon="6.73301">
        <ele>1930.7</ele>
        <time>2000-01-01T06:45:03.000Z</time>
      </trkpt>
      <trkpt lat="46.1361" lon="6.73301">
        <ele>1929.3</ele>
        <time>2000-01-01T06:45:13.000Z</time>
      </trkpt>
      <trkpt lat="46.13605" lon="6.73308">
        <ele>1921</ele>
        <time>2000-01-01T06:45:23.000Z</time>
      </trkpt>
      <trkpt lat="46.13601" lon="6.73317">
        <ele>1916.9</ele>
        <time>2000-01-01T06:45:33.000Z</time>
      </trkpt>
      <trkpt lat="46.13595" lon="6.73323">
        <ele>1912.3</ele>
        <time>2000-01-01T06:45:43.000Z</time>
      </trkpt>
      <trkpt lat="46.13583" lon="6.73343">
        <ele>1909</ele>
        <time>2000-01-01T06:45:53.000Z</time>
      </trkpt>
      <trkpt lat="46.13579" lon="6.73345">
        <ele>1902.4</ele>
        <time>2000-01-01T06:46:03.000Z</time>
      </trkpt>
      <trkpt lat="46.13577" lon="6.73348">
        <ele>1900.2</ele>
        <time>2000-01-01T06:46:13.000Z</time>
      </trkpt>
      <trkpt lat="46.1356" lon="6.73359">
        <ele>1886</ele>
        <time>2000-01-01T06:46:23.000Z</time>
      </trkpt>
      <trkpt lat="46.13556" lon="6.73363">
        <ele>1887.6</ele>
        <time>2000-01-01T06:46:33.000Z</time>
      </trkpt>
      <trkpt lat="46.13554" lon="6.73364">
        <ele>1885.6</ele>
        <time>2000-01-01T06:46:43.000Z</time>
      </trkpt>
      <trkpt lat="46.13553" lon="6.73371">
        <ele>1879.9</ele>
        <time>2000-01-01T06:46:53.000Z</time>
      </trkpt>
      <trkpt lat="46.13548" lon="6.73376">
        <ele>1874.6</ele>
        <time>2000-01-01T06:47:03.000Z</time>
      </trkpt>
      <trkpt lat="46.13538" lon="6.73394">
        <ele>1870</ele>
        <time>2000-01-01T06:47:13.000Z</time>
      </trkpt>
      <trkpt lat="46.13533" lon="6.73395">
        <ele>1865.3</ele>
        <time>2000-01-01T06:47:23.000Z</time>
      </trkpt>
      <trkpt lat="46.13529" lon="6.734">
        <ele>1864.7</ele>
        <time>2000-01-01T06:47:33.000Z</time>
      </trkpt>
      <trkpt lat="46.13522" lon="6.73413">
        <ele>1863</ele>
        <time>2000-01-01T06:47:43.000Z</time>
      </trkpt>
      <trkpt lat="46.13517" lon="6.73429">
        <ele>1849.8</ele>
        <time>2000-01-01T06:47:53.000Z</time>
      </trkpt>
      <trkpt lat="46.13512" lon="6.73436">
        <ele>1852</ele>
        <time>2000-01-01T06:48:03.000Z</time>
      </trkpt>
      <trkpt lat="46.1351" lon="6.73442">
        <ele>1844.3</ele>
        <time>2000-01-01T06:48:13.000Z</time>
      </trkpt>
      <trkpt lat="46.13507" lon="6.73447">
        <ele>1843.1</ele>
        <time>2000-01-01T06:48:23.000Z</time>
      </trkpt>
      <trkpt lat="46.13501" lon="6.73454">
        <ele>1842</ele>
        <time>2000-01-01T06:48:33.000Z</time>
      </trkpt>
      <trkpt lat="46.13497" lon="6.7346">
        <ele>1839</ele>
        <time>2000-01-01T06:48:43.000Z</time>
      </trkpt>
      <trkpt lat="46.13497" lon="6.7346">
        <ele>1838.8</ele>
        <time>2000-01-01T06:48:53.000Z</time>
      </trkpt>
      <trkpt lat="46.13497" lon="6.7346">
        <ele>1838.8</ele>
        <time>2000-01-01T06:49:03.000Z</time>
      </trkpt>
      <trkpt lat="46.13495" lon="6.73465">
        <ele>1836.5</ele>
        <time>2000-01-01T06:49:13.000Z</time>
      </trkpt>
      <trkpt lat="46.13493" lon="6.7347">
        <ele>1834.5</ele>
        <time>2000-01-01T06:49:23.000Z</time>
      </trkpt>
      <trkpt lat="46.1349" lon="6.73474">
        <ele>1831.9</ele>
        <time>2000-01-01T06:49:33.000Z</time>
      </trkpt>
      <trkpt lat="46.13489" lon="6.73476">
        <ele>1830.7</ele>
        <time>2000-01-01T06:49:43.000Z</time>
      </trkpt>
      <trkpt lat="46.13486" lon="6.7348">
        <ele>1828.3</ele>
        <time>2000-01-01T06:49:53.000Z</time>
      </trkpt>
      <trkpt lat="46.13484" lon="6.73485">
        <ele>1830</ele>
        <time>2000-01-01T06:50:03.000Z</time>
      </trkpt>
      <trkpt lat="46.13481" lon="6.73493">
        <ele>1824</ele>
        <time>2000-01-01T06:50:13.000Z</time>
      </trkpt>
      <trkpt lat="46.13478" lon="6.73498">
        <ele>1823.3</ele>
        <time>2000-01-01T06:50:23.000Z</time>
      </trkpt>
      <trkpt lat="46.13475" lon="6.73501">
        <ele>1823.1</ele>
        <time>2000-01-01T06:50:33.000Z</time>
      </trkpt>
      <trkpt lat="46.13472" lon="6.73506">
        <ele>1821.5</ele>
        <time>2000-01-01T06:50:43.000Z</time>
      </trkpt>
      <trkpt lat="46.1347" lon="6.73512">
        <ele>1817</ele>
        <time>2000-01-01T06:50:53.000Z</time>
      </trkpt>
      <trkpt lat="46.13467" lon="6.73517">
        <ele>1815.1</ele>
        <time>2000-01-01T06:51:03.000Z</time>
      </trkpt>
      <trkpt lat="46.13465" lon="6.73522">
        <ele>1812.8</ele>
        <time>2000-01-01T06:51:13.000Z</time>
      </trkpt>
      <trkpt lat="46.13462" lon="6.73532">
        <ele>1809.8</ele>
        <time>2000-01-01T06:51:23.000Z</time>
      </trkpt>
      <trkpt lat="46.13457" lon="6.73546">
        <ele>1808</ele>
        <time>2000-01-01T06:51:33.000Z</time>
      </trkpt>
      <trkpt lat="46.13454" lon="6.73558">
        <ele>1804.9</ele>
        <time>2000-01-01T06:51:43.000Z</time>
      </trkpt>
      <trkpt lat="46.13452" lon="6.73567">
        <ele>1802.4</ele>
        <time>2000-01-01T06:51:53.000Z</time>
      </trkpt>
      <trkpt lat="46.13446" lon="6.73573">
        <ele>1802</ele>
        <time>2000-01-01T06:52:03.000Z</time>
      </trkpt>
      <trkpt lat="46.1344" lon="6.73584">
        <ele>1801.7</ele>
        <time>2000-01-01T06:52:13.000Z</time>
      </trkpt>
      <trkpt lat="46.13434" lon="6.73596">
        <ele>1798</ele>
        <time>2000-01-01T06:52:23.000Z</time>
      </trkpt>
      <trkpt lat="46.13428" lon="6.73606">
        <ele>1795.7</ele>
        <time>2000-01-01T06:52:33.000Z</time>
      </trkpt>
      <trkpt lat="46.13423" lon="6.73612">
        <ele>1794.1</ele>
        <time>2000-01-01T06:52:43.000Z</time>
      </trkpt>
      <trkpt lat="46.13416" lon="6.7362">
        <ele>1789</ele>
        <time>2000-01-01T06:52:53.000Z</time>
      </trkpt>
      <trkpt lat="46.13409" lon="6.73628">
        <ele>1790</ele>
        <time>2000-01-01T06:53:03.000Z</time>
      </trkpt>
      <trkpt lat="46.13403" lon="6.73634">
        <ele>1788.1</ele>
        <time>2000-01-01T06:53:13.000Z</time>
      </trkpt>
      <trkpt lat="46.13397" lon="6.7364">
        <ele>1782</ele>
        <time>2000-01-01T06:53:23.000Z</time>
      </trkpt>
      <trkpt lat="46.13389" lon="6.73646">
        <ele>1784.3</ele>
        <time>2000-01-01T06:53:33.000Z</time>
      </trkpt>
      <trkpt lat="46.13378" lon="6.73651">
        <ele>1779</ele>
        <time>2000-01-01T06:53:43.000Z</time>
      </trkpt>
      <trkpt lat="46.1337" lon="6.73656">
        <ele>1780.8</ele>
        <time>2000-01-01T06:53:53.000Z</time>
      </trkpt>
      <trkpt lat="46.13364" lon="6.73658">
        <ele>1779.6</ele>
        <time>2000-01-01T06:54:03.000Z</time>
      </trkpt>
      <trkpt lat="46.13355" lon="6.73665">
        <ele>1775</ele>
        <time>2000-01-01T06:54:13.000Z</time>
      </trkpt>
      <trkpt lat="46.13345" lon="6.73671">
        <ele>1774</ele>
        <time>2000-01-01T06:54:23.000Z</time>
      </trkpt>
      <trkpt lat="46.13337" lon="6.73677">
        <ele>1767</ele>
        <time>2000-01-01T06:54:33.000Z</time>
      </trkpt>
      <trkpt lat="46.13332" lon="6.73683">
        <ele>1770.6</ele>
        <time>2000-01-01T06:54:43.000Z</time>
      </trkpt>
      <trkpt lat="46.13325" lon="6.73691">
        <ele>1767.7</ele>
        <time>2000-01-01T06:54:53.000Z</time>
      </trkpt>
      <trkpt lat="46.13318" lon="6.73697">
        <ele>1760</ele>
        <time>2000-01-01T06:55:03.000Z</time>
      </trkpt>
      <trkpt lat="46.13315" lon="6.73702">
        <ele>1763.3</ele>
        <time>2000-01-01T06:55:13.000Z</time>
      </trkpt>
      <trkpt lat="46.13312" lon="6.73713">
        <ele>1763.1</ele>
        <time>2000-01-01T06:55:23.000Z</time>
      </trkpt>
      <trkpt lat="46.13308" lon="6.73721">
        <ele>1759</ele>
        <time>2000-01-01T06:55:33.000Z</time>
      </trkpt>
      <trkpt lat="46.13303" lon="6.73734">
        <ele>1761.7</ele>
        <time>2000-01-01T06:55:43.000Z</time>
      </trkpt>
      <trkpt lat="46.13301" lon="6.7374">
        <ele>1761.7</ele>
        <time>2000-01-01T06:55:53.000Z</time>
      </trkpt>
      <trkpt lat="46.13296" lon="6.7375">
        <ele>1758</ele>
        <time>2000-01-01T06:56:03.000Z</time>
      </trkpt>
      <trkpt lat="46.13287" lon="6.73763">
        <ele>1758.3</ele>
        <time>2000-01-01T06:56:13.000Z</time>
      </trkpt>
      <trkpt lat="46.13279" lon="6.73776">
        <ele>1754</ele>
        <time>2000-01-01T06:56:23.000Z</time>
      </trkpt>
      <trkpt lat="46.13271" lon="6.73792">
        <ele>1754.2</ele>
        <time>2000-01-01T06:56:33.000Z</time>
      </trkpt>
      <trkpt lat="46.13263" lon="6.73809">
        <ele>1751</ele>
        <time>2000-01-01T06:56:43.000Z</time>
      </trkpt>
      <trkpt lat="46.13255" lon="6.73823">
        <ele>1747.7</ele>
        <time>2000-01-01T06:56:53.000Z</time>
      </trkpt>
      <trkpt lat="46.13246" lon="6.73836">
        <ele>1747</ele>
        <time>2000-01-01T06:57:03.000Z</time>
      </trkpt>
      <trkpt lat="46.1324" lon="6.73844">
        <ele>1744.6</ele>
        <time>2000-01-01T06:57:13.000Z</time>
      </trkpt>
      <trkpt lat="46.13232" lon="6.73851">
        <ele>1744.6</ele>
        <time>2000-01-01T06:57:23.000Z</time>
      </trkpt>
      <trkpt lat="46.13225" lon="6.73856">
        <ele>1747</ele>
        <time>2000-01-01T06:57:33.000Z</time>
      </trkpt>
      <trkpt lat="46.1322" lon="6.73861">
        <ele>1748.7</ele>
        <time>2000-01-01T06:57:43.000Z</time>
      </trkpt>
      <trkpt lat="46.13215" lon="6.73865">
        <ele>1746.6</ele>
        <time>2000-01-01T06:57:53.000Z</time>
      </trkpt>
      <trkpt lat="46.13212" lon="6.7387">
        <ele>1745.2</ele>
        <time>2000-01-01T06:58:03.000Z</time>
      </trkpt>
      <trkpt lat="46.13203" lon="6.73878">
        <ele>1749</ele>
        <time>2000-01-01T06:58:13.000Z</time>
      </trkpt>
      <trkpt lat="46.13197" lon="6.73883">
        <ele>1748.6</ele>
        <time>2000-01-01T06:58:23.000Z</time>
      </trkpt>
      <trkpt lat="46.13193" lon="6.73889">
        <ele>1750.8</ele>
        <time>2000-01-01T06:58:33.000Z</time>
      </trkpt>
      <trkpt lat="46.13189" lon="6.73893">
        <ele>1749.4</ele>
        <time>2000-01-01T06:58:43.000Z</time>
      </trkpt>
      <trkpt lat="46.13185" lon="6.73895">
        <ele>1749</ele>
        <time>2000-01-01T06:58:53.000Z</time>
      </trkpt>
      <trkpt lat="46.13182" lon="6.73899">
        <ele>1748.9</ele>
        <time>2000-01-01T06:59:03.000Z</time>
      </trkpt>
      <trkpt lat="46.1318" lon="6.73904">
        <ele>1749.1</ele>
        <time>2000-01-01T06:59:13.000Z</time>
      </trkpt>
      <trkpt lat="46.13178" lon="6.73911">
        <ele>1750</ele>
        <time>2000-01-01T06:59:23.000Z</time>
      </trkpt>
      <trkpt lat="46.13173" lon="6.73916">
        <ele>1754</ele>
        <time>2000-01-01T06:59:33.000Z</time>
      </trkpt>
      <trkpt lat="46.13165" lon="6.73921">
        <ele>1755</ele>
        <time>2000-01-01T06:59:43.000Z</time>
      </trkpt>
      <trkpt lat="46.13157" lon="6.73926">
        <ele>1754.2</ele>
        <time>2000-01-01T06:59:53.000Z</time>
      </trkpt>
      <trkpt lat="46.13149" lon="6.73931">
        <ele>1756</ele>
        <time>2000-01-01T07:00:03.000Z</time>
      </trkpt>
      <trkpt lat="46.13145" lon="6.73939">
        <ele>1758</ele>
        <time>2000-01-01T07:00:13.000Z</time>
      </trkpt>
      <trkpt lat="46.13143" lon="6.73944">
        <ele>1760.2</ele>
        <time>2000-01-01T07:00:23.000Z</time>
      </trkpt>
      <trkpt lat="46.1314" lon="6.7395">
        <ele>1762.5</ele>
        <time>2000-01-01T07:00:33.000Z</time>
      </trkpt>
      <trkpt lat="46.13139" lon="6.73957">
        <ele>1761</ele>
        <time>2000-01-01T07:00:43.000Z</time>
      </trkpt>
      <trkpt lat="46.13138" lon="6.73963">
        <ele>1765.2</ele>
        <time>2000-01-01T07:00:53.000Z</time>
      </trkpt>
      <trkpt lat="46.13135" lon="6.73967">
        <ele>1765.6</ele>
        <time>2000-01-01T07:01:03.000Z</time>
      </trkpt>
      <trkpt lat="46.13132" lon="6.7397">
        <ele>1766</ele>
        <time>2000-01-01T07:01:13.000Z</time>
      </trkpt>
      <trkpt lat="46.13131" lon="6.73976">
        <ele>1766.3</ele>
        <time>2000-01-01T07:01:23.000Z</time>
      </trkpt>
      <trkpt lat="46.13131" lon="6.73981">
        <ele>1771</ele>
        <time>2000-01-01T07:01:33.000Z</time>
      </trkpt>
      <trkpt lat="46.13129" lon="6.73985">
        <ele>1766.3</ele>
        <time>2000-01-01T07:01:43.000Z</time>
      </trkpt>
      <trkpt lat="46.13125" lon="6.73987">
        <ele>1767.1</ele>
        <time>2000-01-01T07:01:53.000Z</time>
      </trkpt>
      <trkpt lat="46.13122" lon="6.73993">
        <ele>1768.4</ele>
        <time>2000-01-01T07:02:03.000Z</time>
      </trkpt>
      <trkpt lat="46.13121" lon="6.73998">
        <ele>1769.4</ele>
        <time>2000-01-01T07:02:13.000Z</time>
      </trkpt>
      <trkpt lat="46.13119" lon="6.74">
        <ele>1770.6</ele>
        <time>2000-01-01T07:02:23.000Z</time>
      </trkpt>
      <trkpt lat="46.13119" lon="6.74003">
        <ele>1773</ele>
        <time>2000-01-01T07:02:33.000Z</time>
      </trkpt>
      <trkpt lat="46.13117" lon="6.74008">
        <ele>1772.2</ele>
        <time>2000-01-01T07:02:43.000Z</time>
      </trkpt>
      <trkpt lat="46.13114" lon="6.74018">
        <ele>1774.9</ele>
        <time>2000-01-01T07:02:53.000Z</time>
      </trkpt>
      <trkpt lat="46.13112" lon="6.74024">
        <ele>1776.9</ele>
        <time>2000-01-01T07:03:03.000Z</time>
      </trkpt>
      <trkpt lat="46.13106" lon="6.74031">
        <ele>1775</ele>
        <time>2000-01-01T07:03:13.000Z</time>
      </trkpt>
      <trkpt lat="46.13102" lon="6.74038">
        <ele>1775.8</ele>
        <time>2000-01-01T07:03:23.000Z</time>
      </trkpt>
      <trkpt lat="46.13095" lon="6.74048">
        <ele>1776.4</ele>
        <time>2000-01-01T07:03:33.000Z</time>
      </trkpt>
      <trkpt lat="46.13089" lon="6.74059">
        <ele>1777</ele>
        <time>2000-01-01T07:03:43.000Z</time>
      </trkpt>
      <trkpt lat="46.13082" lon="6.74068">
        <ele>1778.6</ele>
        <time>2000-01-01T07:03:53.000Z</time>
      </trkpt>
      <trkpt lat="46.13078" lon="6.74075">
        <ele>1776.9</ele>
        <time>2000-01-01T07:04:03.000Z</time>
      </trkpt>
      <trkpt lat="46.13076" lon="6.74085">
        <ele>1777</ele>
        <time>2000-01-01T07:04:13.000Z</time>
      </trkpt>
      <trkpt lat="46.13073" lon="6.74091">
        <ele>1774</ele>
        <time>2000-01-01T07:04:23.000Z</time>
      </trkpt>
      <trkpt lat="46.13072" lon="6.741">
        <ele>1772.3</ele>
        <time>2000-01-01T07:04:33.000Z</time>
      </trkpt>
      <trkpt lat="46.13068" lon="6.74107">
        <ele>1771.1</ele>
        <time>2000-01-01T07:04:43.000Z</time>
      </trkpt>
      <trkpt lat="46.13066" lon="6.74112">
        <ele>1772</ele>
        <time>2000-01-01T07:04:53.000Z</time>
      </trkpt>
      <trkpt lat="46.13065" lon="6.74116">
        <ele>1770.7</ele>
        <time>2000-01-01T07:05:03.000Z</time>
      </trkpt>
      <trkpt lat="46.13055" lon="6.74123">
        <ele>1772.1</ele>
        <time>2000-01-01T07:05:13.000Z</time>
      </trkpt>
      <trkpt lat="46.13043" lon="6.74129">
        <ele>1766</ele>
        <time>2000-01-01T07:05:23.000Z</time>
      </trkpt>
      <trkpt lat="46.13037" lon="6.74133">
        <ele>1767.2</ele>
        <time>2000-01-01T07:05:33.000Z</time>
      </trkpt>
      <trkpt lat="46.13018" lon="6.7415">
        <ele>1758</ele>
        <time>2000-01-01T07:05:43.000Z</time>
      </trkpt>
      <trkpt lat="46.13016" lon="6.74154">
        <ele>1761.8</ele>
        <time>2000-01-01T07:05:53.000Z</time>
      </trkpt>
      <trkpt lat="46.13015" lon="6.74156">
        <ele>1761.6</ele>
        <time>2000-01-01T07:06:03.000Z</time>
      </trkpt>
      <trkpt lat="46.13015" lon="6.74155">
        <ele>1761.5</ele>
        <time>2000-01-01T07:06:13.000Z</time>
      </trkpt>
      <trkpt lat="46.13015" lon="6.74156">
        <ele>1761.6</ele>
        <time>2000-01-01T07:06:23.000Z</time>
      </trkpt>
      <trkpt lat="46.13009" lon="6.74167">
        <ele>1760.6</ele>
        <time>2000-01-01T07:06:33.000Z</time>
      </trkpt>
      <trkpt lat="46.13003" lon="6.74182">
        <ele>1758</ele>
        <time>2000-01-01T07:06:43.000Z</time>
      </trkpt>
      <trkpt lat="46.13004" lon="6.74184">
        <ele>1762.4</ele>
        <time>2000-01-01T07:06:53.000Z</time>
      </trkpt>
      <trkpt lat="46.13003" lon="6.74186">
        <ele>1762.4</ele>
        <time>2000-01-01T07:07:03.000Z</time>
      </trkpt>
      <trkpt lat="46.13" lon="6.74193">
        <ele>1762.6</ele>
        <time>2000-01-01T07:07:13.000Z</time>
      </trkpt>
      <trkpt lat="46.12992" lon="6.74204">
        <ele>1757</ele>
        <time>2000-01-01T07:07:23.000Z</time>
      </trkpt>
      <trkpt lat="46.12987" lon="6.74212">
        <ele>1761.5</ele>
        <time>2000-01-01T07:07:33.000Z</time>
      </trkpt>
      <trkpt lat="46.12968" lon="6.74236">
        <ele>1750</ele>
        <time>2000-01-01T07:07:43.000Z</time>
      </trkpt>
      <trkpt lat="46.12964" lon="6.74243">
        <ele>1755.9</ele>
        <time>2000-01-01T07:07:53.000Z</time>
      </trkpt>
      <trkpt lat="46.12962" lon="6.74249">
        <ele>1755.8</ele>
        <time>2000-01-01T07:08:03.000Z</time>
      </trkpt>
      <trkpt lat="46.12959" lon="6.74253">
        <ele>1754.8</ele>
        <time>2000-01-01T07:08:13.000Z</time>
      </trkpt>
      <trkpt lat="46.12958" lon="6.74256">
        <ele>1754.9</ele>
        <time>2000-01-01T07:08:23.000Z</time>
      </trkpt>
      <trkpt lat="46.12953" lon="6.74261">
        <ele>1749</ele>
        <time>2000-01-01T07:08:33.000Z</time>
      </trkpt>
      <trkpt lat="46.12949" lon="6.7427">
        <ele>1751.8</ele>
        <time>2000-01-01T07:08:43.000Z</time>
      </trkpt>
      <trkpt lat="46.12939" lon="6.74286">
        <ele>1747</ele>
        <time>2000-01-01T07:08:53.000Z</time>
      </trkpt>
      <trkpt lat="46.12938" lon="6.74296">
        <ele>1750.4</ele>
        <time>2000-01-01T07:09:03.000Z</time>
      </trkpt>
      <trkpt lat="46.12935" lon="6.74306">
        <ele>1751</ele>
        <time>2000-01-01T07:09:13.000Z</time>
      </trkpt>
      <trkpt lat="46.12935" lon="6.74312">
        <ele>1752.5</ele>
        <time>2000-01-01T07:09:23.000Z</time>
      </trkpt>
      <trkpt lat="46.12931" lon="6.7432">
        <ele>1745</ele>
        <time>2000-01-01T07:09:33.000Z</time>
      </trkpt>
      <trkpt lat="46.12931" lon="6.74323">
        <ele>1752.5</ele>
        <time>2000-01-01T07:09:43.000Z</time>
      </trkpt>
      <trkpt lat="46.12927" lon="6.74331">
        <ele>1752</ele>
        <time>2000-01-01T07:09:53.000Z</time>
      </trkpt>
      <trkpt lat="46.12925" lon="6.74335">
        <ele>1752</ele>
        <time>2000-01-01T07:10:03.000Z</time>
      </trkpt>
      <trkpt lat="46.1292" lon="6.74339">
        <ele>1750.2</ele>
        <time>2000-01-01T07:10:13.000Z</time>
      </trkpt>
      <trkpt lat="46.12918" lon="6.74341">
        <ele>1745</ele>
        <time>2000-01-01T07:10:23.000Z</time>
      </trkpt>
      <trkpt lat="46.12917" lon="6.74344">
        <ele>1750.1</ele>
        <time>2000-01-01T07:10:33.000Z</time>
      </trkpt>
      <trkpt lat="46.12914" lon="6.74348">
        <ele>1749.8</ele>
        <time>2000-01-01T07:10:43.000Z</time>
      </trkpt>
      <trkpt lat="46.1291" lon="6.74357">
        <ele>1750.8</ele>
        <time>2000-01-01T07:10:53.000Z</time>
      </trkpt>
      <trkpt lat="46.12908" lon="6.7436">
        <ele>1750.6</ele>
        <time>2000-01-01T07:11:03.000Z</time>
      </trkpt>
      <trkpt lat="46.12907" lon="6.74364">
        <ele>1746</ele>
        <time>2000-01-01T07:11:13.000Z</time>
      </trkpt>
      <trkpt lat="46.12903" lon="6.74373">
        <ele>1751.6</ele>
        <time>2000-01-01T07:11:23.000Z</time>
      </trkpt>
      <trkpt lat="46.12902" lon="6.74376">
        <ele>1751.8</ele>
        <time>2000-01-01T07:11:33.000Z</time>
      </trkpt>
      <trkpt lat="46.12898" lon="6.744">
        <ele>1747</ele>
        <time>2000-01-01T07:11:43.000Z</time>
      </trkpt>
      <trkpt lat="46.12896" lon="6.74405">
        <ele>1756.4</ele>
        <time>2000-01-01T07:11:53.000Z</time>
      </trkpt>
      <trkpt lat="46.12893" lon="6.74411">
        <ele>1756.1</ele>
        <time>2000-01-01T07:12:03.000Z</time>
      </trkpt>
      <trkpt lat="46.12891" lon="6.74417">
        <ele>1756.6</ele>
        <time>2000-01-01T07:12:13.000Z</time>
      </trkpt>
      <trkpt lat="46.12886" lon="6.74424">
        <ele>1748</ele>
        <time>2000-01-01T07:12:23.000Z</time>
      </trkpt>
      <trkpt lat="46.1288" lon="6.74437">
        <ele>1755.3</ele>
        <time>2000-01-01T07:12:33.000Z</time>
      </trkpt>
      <trkpt lat="46.12871" lon="6.74456">
        <ele>1751</ele>
        <time>2000-01-01T07:12:43.000Z</time>
      </trkpt>
      <trkpt lat="46.1287" lon="6.74459">
        <ele>1752.3</ele>
        <time>2000-01-01T07:12:53.000Z</time>
      </trkpt>
      <trkpt lat="46.1287" lon="6.74465">
        <ele>1753.1</ele>
        <time>2000-01-01T07:13:03.000Z</time>
      </trkpt>
      <trkpt lat="46.12872" lon="6.74477">
        <ele>1756.1</ele>
        <time>2000-01-01T07:13:13.000Z</time>
      </trkpt>
      <trkpt lat="46.12873" lon="6.74489">
        <ele>1753</ele>
        <time>2000-01-01T07:13:23.000Z</time>
      </trkpt>
      <trkpt lat="46.12871" lon="6.74499">
        <ele>1757.4</ele>
        <time>2000-01-01T07:13:33.000Z</time>
      </trkpt>
      <trkpt lat="46.1287" lon="6.74522">
        <ele>1754</ele>
        <time>2000-01-01T07:13:43.000Z</time>
      </trkpt>
      <trkpt lat="46.12868" lon="6.74529">
        <ele>1759</ele>
        <time>2000-01-01T07:13:53.000Z</time>
      </trkpt>
      <trkpt lat="46.12867" lon="6.74542">
        <ele>1759</ele>
        <time>2000-01-01T07:14:03.000Z</time>
      </trkpt>
      <trkpt lat="46.12868" lon="6.74559">
        <ele>1755</ele>
        <time>2000-01-01T07:14:13.000Z</time>
      </trkpt>
      <trkpt lat="46.12866" lon="6.74568">
        <ele>1760.4</ele>
        <time>2000-01-01T07:14:23.000Z</time>
      </trkpt>
      <trkpt lat="46.12866" lon="6.74575">
        <ele>1761</ele>
        <time>2000-01-01T07:14:33.000Z</time>
      </trkpt>
      <trkpt lat="46.12869" lon="6.74584">
        <ele>1763.6</ele>
        <time>2000-01-01T07:14:43.000Z</time>
      </trkpt>
      <trkpt lat="46.12869" lon="6.74599">
        <ele>1759</ele>
        <time>2000-01-01T07:14:53.000Z</time>
      </trkpt>
      <trkpt lat="46.1287" lon="6.74603">
        <ele>1766.2</ele>
        <time>2000-01-01T07:15:03.000Z</time>
      </trkpt>
      <trkpt lat="46.12869" lon="6.74611">
        <ele>1766.5</ele>
        <time>2000-01-01T07:15:13.000Z</time>
      </trkpt>
      <trkpt lat="46.12867" lon="6.74616">
        <ele>1765.6</ele>
        <time>2000-01-01T07:15:23.000Z</time>
      </trkpt>
      <trkpt lat="46.12868" lon="6.74625">
        <ele>1761</ele>
        <time>2000-01-01T07:15:33.000Z</time>
      </trkpt>
      <trkpt lat="46.12868" lon="6.74632">
        <ele>1766.9</ele>
        <time>2000-01-01T07:15:43.000Z</time>
      </trkpt>
      <trkpt lat="46.12866" lon="6.74641">
        <ele>1766.1</ele>
        <time>2000-01-01T07:15:53.000Z</time>
      </trkpt>
      <trkpt lat="46.12866" lon="6.74668">
        <ele>1765</ele>
        <time>2000-01-01T07:16:03.000Z</time>
      </trkpt>
      <trkpt lat="46.12867" lon="6.74677">
        <ele>1768.4</ele>
        <time>2000-01-01T07:16:13.000Z</time>
      </trkpt>
      <trkpt lat="46.12869" lon="6.7469">
        <ele>1769.5</ele>
        <time>2000-01-01T07:16:23.000Z</time>
      </trkpt>
      <trkpt lat="46.12871" lon="6.74696">
        <ele>1767</ele>
        <time>2000-01-01T07:16:33.000Z</time>
      </trkpt>
      <trkpt lat="46.12872" lon="6.74706">
        <ele>1771.1</ele>
        <time>2000-01-01T07:16:43.000Z</time>
      </trkpt>
      <trkpt lat="46.12874" lon="6.74714">
        <ele>1772.1</ele>
        <time>2000-01-01T07:16:53.000Z</time>
      </trkpt>
      <trkpt lat="46.12875" lon="6.74726">
        <ele>1769</ele>
        <time>2000-01-01T07:17:03.000Z</time>
      </trkpt>
      <trkpt lat="46.12875" lon="6.74742">
        <ele>1772.5</ele>
        <time>2000-01-01T07:17:13.000Z</time>
      </trkpt>
      <trkpt lat="46.12876" lon="6.74758">
        <ele>1769</ele>
        <time>2000-01-01T07:17:23.000Z</time>
      </trkpt>
      <trkpt lat="46.12875" lon="6.7477">
        <ele>1772.1</ele>
        <time>2000-01-01T07:17:33.000Z</time>
      </trkpt>
      <trkpt lat="46.12875" lon="6.74773">
        <ele>1772.1</ele>
        <time>2000-01-01T07:17:43.000Z</time>
      </trkpt>
      <trkpt lat="46.12879" lon="6.74784">
        <ele>1770</ele>
        <time>2000-01-01T07:17:53.000Z</time>
      </trkpt>
      <trkpt lat="46.12879" lon="6.7479">
        <ele>1773.7</ele>
        <time>2000-01-01T07:18:03.000Z</time>
      </trkpt>
      <trkpt lat="46.12883" lon="6.74802">
        <ele>1775.6</ele>
        <time>2000-01-01T07:18:13.000Z</time>
      </trkpt>
      <trkpt lat="46.12884" lon="6.74809">
        <ele>1775.8</ele>
        <time>2000-01-01T07:18:23.000Z</time>
      </trkpt>
      <trkpt lat="46.12885" lon="6.74815">
        <ele>1772</ele>
        <time>2000-01-01T07:18:33.000Z</time>
      </trkpt>
      <trkpt lat="46.12886" lon="6.74818">
        <ele>1776.3</ele>
        <time>2000-01-01T07:18:43.000Z</time>
      </trkpt>
      <trkpt lat="46.12886" lon="6.74824">
        <ele>1775.9</ele>
        <time>2000-01-01T07:18:53.000Z</time>
      </trkpt>
      <trkpt lat="46.12887" lon="6.74834">
        <ele>1775.8</ele>
        <time>2000-01-01T07:19:03.000Z</time>
      </trkpt>
      <trkpt lat="46.12891" lon="6.7485">
        <ele>1773</ele>
        <time>2000-01-01T07:19:13.000Z</time>
      </trkpt>
      <trkpt lat="46.12893" lon="6.74862">
        <ele>1775.9</ele>
        <time>2000-01-01T07:19:23.000Z</time>
      </trkpt>
      <trkpt lat="46.12894" lon="6.74869">
        <ele>1775.1</ele>
        <time>2000-01-01T07:19:33.000Z</time>
      </trkpt>
      <trkpt lat="46.129" lon="6.74884">
        <ele>1775</ele>
        <time>2000-01-01T07:19:43.000Z</time>
      </trkpt>
      <trkpt lat="46.12904" lon="6.74895">
        <ele>1774.8</ele>
        <time>2000-01-01T07:19:53.000Z</time>
      </trkpt>
      <trkpt lat="46.12906" lon="6.74899">
        <ele>1774.8</ele>
        <time>2000-01-01T07:20:03.000Z</time>
      </trkpt>
      <trkpt lat="46.12914" lon="6.74909">
        <ele>1775</ele>
        <time>2000-01-01T07:20:13.000Z</time>
      </trkpt>
      <trkpt lat="46.12919" lon="6.74918">
        <ele>1777.2</ele>
        <time>2000-01-01T07:20:23.000Z</time>
      </trkpt>
      <trkpt lat="46.12923" lon="6.74926">
        <ele>1778.4</ele>
        <time>2000-01-01T07:20:33.000Z</time>
      </trkpt>
      <trkpt lat="46.12927" lon="6.74948">
        <ele>1775</ele>
        <time>2000-01-01T07:20:43.000Z</time>
      </trkpt>
      <trkpt lat="46.12927" lon="6.74965">
        <ele>1774.8</ele>
        <time>2000-01-01T07:20:53.000Z</time>
      </trkpt>
      <trkpt lat="46.12929" lon="6.74973">
        <ele>1774.6</ele>
        <time>2000-01-01T07:21:03.000Z</time>
      </trkpt>
      <trkpt lat="46.12932" lon="6.74982">
        <ele>1775</ele>
        <time>2000-01-01T07:21:13.000Z</time>
      </trkpt>
      <trkpt lat="46.12934" lon="6.7499">
        <ele>1775.3</ele>
        <time>2000-01-01T07:21:23.000Z</time>
      </trkpt>
      <trkpt lat="46.12934" lon="6.75011">
        <ele>1774</ele>
        <time>2000-01-01T07:21:33.000Z</time>
      </trkpt>
      <trkpt lat="46.12931" lon="6.7504">
        <ele>1774</ele>
        <time>2000-01-01T07:21:43.000Z</time>
      </trkpt>
      <trkpt lat="46.12927" lon="6.75066">
        <ele>1771.7</ele>
        <time>2000-01-01T07:21:53.000Z</time>
      </trkpt>
      <trkpt lat="46.12927" lon="6.75069">
        <ele>1771</ele>
        <time>2000-01-01T07:22:03.000Z</time>
      </trkpt>
      <trkpt lat="46.12927" lon="6.75075">
        <ele>1771.1</ele>
        <time>2000-01-01T07:22:13.000Z</time>
      </trkpt>
      <trkpt lat="46.1293" lon="6.75083">
        <ele>1771.4</ele>
        <time>2000-01-01T07:22:23.000Z</time>
      </trkpt>
      <trkpt lat="46.12931" lon="6.75091">
        <ele>1770.4</ele>
        <time>2000-01-01T07:22:33.000Z</time>
      </trkpt>
      <trkpt lat="46.12935" lon="6.75099">
        <ele>1770</ele>
        <time>2000-01-01T07:22:43.000Z</time>
      </trkpt>
      <trkpt lat="46.1294" lon="6.75115">
        <ele>1769.2</ele>
        <time>2000-01-01T07:22:53.000Z</time>
      </trkpt>
      <trkpt lat="46.12945" lon="6.75128">
        <ele>1768</ele>
        <time>2000-01-01T07:23:03.000Z</time>
      </trkpt>
      <trkpt lat="46.12948" lon="6.75143">
        <ele>1766.3</ele>
        <time>2000-01-01T07:23:13.000Z</time>
      </trkpt>
      <trkpt lat="46.12949" lon="6.75152">
        <ele>1766.4</ele>
        <time>2000-01-01T07:23:23.000Z</time>
      </trkpt>
      <trkpt lat="46.1295" lon="6.75162">
        <ele>1771</ele>
        <time>2000-01-01T07:23:33.000Z</time>
      </trkpt>
      <trkpt lat="46.12952" lon="6.75166">
        <ele>1766.7</ele>
        <time>2000-01-01T07:23:43.000Z</time>
      </trkpt>
      <trkpt lat="46.12957" lon="6.75174">
        <ele>1767.7</ele>
        <time>2000-01-01T07:23:53.000Z</time>
      </trkpt>
      <trkpt lat="46.12959" lon="6.7518">
        <ele>1768.7</ele>
        <time>2000-01-01T07:24:03.000Z</time>
      </trkpt>
      <trkpt lat="46.12965" lon="6.75213">
        <ele>1774</ele>
        <time>2000-01-01T07:24:13.000Z</time>
      </trkpt>
      <trkpt lat="46.12967" lon="6.75228">
        <ele>1776.5</ele>
        <time>2000-01-01T07:24:23.000Z</time>
      </trkpt>
      <trkpt lat="46.12968" lon="6.75235">
        <ele>1777.6</ele>
        <time>2000-01-01T07:24:33.000Z</time>
      </trkpt>
      <trkpt lat="46.12972" lon="6.75241">
        <ele>1778</ele>
        <time>2000-01-01T07:24:43.000Z</time>
      </trkpt>
      <trkpt lat="46.12977" lon="6.75248">
        <ele>1776.8</ele>
        <time>2000-01-01T07:24:53.000Z</time>
      </trkpt>
      <trkpt lat="46.12978" lon="6.7525">
        <ele>1776.5</ele>
        <time>2000-01-01T07:25:03.000Z</time>
      </trkpt>
      <trkpt lat="46.12979" lon="6.75258">
        <ele>1777.4</ele>
        <time>2000-01-01T07:25:13.000Z</time>
      </trkpt>
      <trkpt lat="46.12984" lon="6.75266">
        <ele>1778</ele>
        <time>2000-01-01T07:25:23.000Z</time>
      </trkpt>
      <trkpt lat="46.12989" lon="6.75278">
        <ele>1775.3</ele>
        <time>2000-01-01T07:25:33.000Z</time>
      </trkpt>
      <trkpt lat="46.12992" lon="6.75295">
        <ele>1776</ele>
        <time>2000-01-01T07:25:43.000Z</time>
      </trkpt>
      <trkpt lat="46.12993" lon="6.75308">
        <ele>1774.7</ele>
        <time>2000-01-01T07:25:53.000Z</time>
      </trkpt>
      <trkpt lat="46.12994" lon="6.75313">
        <ele>1775</ele>
        <time>2000-01-01T07:26:03.000Z</time>
      </trkpt>
      <trkpt lat="46.13003" lon="6.75331">
        <ele>1775</ele>
        <time>2000-01-01T07:26:13.000Z</time>
      </trkpt>
      <trkpt lat="46.13007" lon="6.75342">
        <ele>1772.7</ele>
        <time>2000-01-01T07:26:23.000Z</time>
      </trkpt>
      <trkpt lat="46.1301" lon="6.75346">
        <ele>1771.6</ele>
        <time>2000-01-01T07:26:33.000Z</time>
      </trkpt>
      <trkpt lat="46.13016" lon="6.75351">
        <ele>1771</ele>
        <time>2000-01-01T07:26:43.000Z</time>
      </trkpt>
      <trkpt lat="46.13021" lon="6.75358">
        <ele>1766.4</ele>
        <time>2000-01-01T07:26:53.000Z</time>
      </trkpt>
      <trkpt lat="46.13021" lon="6.75361">
        <ele>1766.9</ele>
        <time>2000-01-01T07:27:03.000Z</time>
      </trkpt>
      <trkpt lat="46.13021" lon="6.75369">
        <ele>1767.4</ele>
        <time>2000-01-01T07:27:13.000Z</time>
      </trkpt>
      <trkpt lat="46.13022" lon="6.7537">
        <ele>1766.7</ele>
        <time>2000-01-01T07:27:23.000Z</time>
      </trkpt>
      <trkpt lat="46.13022" lon="6.75372">
        <ele>1766.8</ele>
        <time>2000-01-01T07:27:33.000Z</time>
      </trkpt>
      <trkpt lat="46.13025" lon="6.75375">
        <ele>1768</ele>
        <time>2000-01-01T07:27:43.000Z</time>
      </trkpt>
      <trkpt lat="46.13031" lon="6.75388">
        <ele>1761.7</ele>
        <time>2000-01-01T07:27:53.000Z</time>
      </trkpt>
      <trkpt lat="46.13035" lon="6.75391">
        <ele>1760.7</ele>
        <time>2000-01-01T07:28:03.000Z</time>
      </trkpt>
      <trkpt lat="46.13041" lon="6.75394">
        <ele>1757</ele>
        <time>2000-01-01T07:28:13.000Z</time>
      </trkpt>
      <trkpt lat="46.13043" lon="6.75396">
        <ele>1758.6</ele>
        <time>2000-01-01T07:28:23.000Z</time>
      </trkpt>
      <trkpt lat="46.1305" lon="6.75402">
        <ele>1756.6</ele>
        <time>2000-01-01T07:28:33.000Z</time>
      </trkpt>
      <trkpt lat="46.13055" lon="6.75406">
        <ele>1754.7</ele>
        <time>2000-01-01T07:28:43.000Z</time>
      </trkpt>
      <trkpt lat="46.13057" lon="6.75408">
        <ele>1756</ele>
        <time>2000-01-01T07:28:53.000Z</time>
      </trkpt>
      <trkpt lat="46.1306" lon="6.75413">
        <ele>1753.2</ele>
        <time>2000-01-01T07:29:03.000Z</time>
      </trkpt>
      <trkpt lat="46.13069" lon="6.75423">
        <ele>1749.9</ele>
        <time>2000-01-01T07:29:13.000Z</time>
      </trkpt>
      <trkpt lat="46.13073" lon="6.7543">
        <ele>1747</ele>
        <time>2000-01-01T07:29:23.000Z</time>
      </trkpt>
      <trkpt lat="46.13075" lon="6.7544">
        <ele>1748.4</ele>
        <time>2000-01-01T07:29:33.000Z</time>
      </trkpt>
      <trkpt lat="46.13077" lon="6.75445">
        <ele>1747.8</ele>
        <time>2000-01-01T07:29:43.000Z</time>
      </trkpt>
      <trkpt lat="46.13081" lon="6.75452">
        <ele>1747.8</ele>
        <time>2000-01-01T07:29:53.000Z</time>
      </trkpt>
      <trkpt lat="46.13086" lon="6.75459">
        <ele>1746</ele>
        <time>2000-01-01T07:30:03.000Z</time>
      </trkpt>
      <trkpt lat="46.13099" lon="6.75467">
        <ele>1744.2</ele>
        <time>2000-01-01T07:30:13.000Z</time>
      </trkpt>
      <trkpt lat="46.13107" lon="6.7547">
        <ele>1742</ele>
        <time>2000-01-01T07:30:23.000Z</time>
      </trkpt>
      <trkpt lat="46.13118" lon="6.75479">
        <ele>1739.8</ele>
        <time>2000-01-01T07:30:33.000Z</time>
      </trkpt>
      <trkpt lat="46.13123" lon="6.75485">
        <ele>1739</ele>
        <time>2000-01-01T07:30:43.000Z</time>
      </trkpt>
      <trkpt lat="46.13126" lon="6.75485">
        <ele>1738.7</ele>
        <time>2000-01-01T07:30:53.000Z</time>
      </trkpt>
      <trkpt lat="46.13131" lon="6.75482">
        <ele>1735.5</ele>
        <time>2000-01-01T07:31:03.000Z</time>
      </trkpt>
      <trkpt lat="46.13134" lon="6.75483">
        <ele>1734.6</ele>
        <time>2000-01-01T07:31:13.000Z</time>
      </trkpt>
      <trkpt lat="46.13139" lon="6.75485">
        <ele>1733.1</ele>
        <time>2000-01-01T07:31:23.000Z</time>
      </trkpt>
      <trkpt lat="46.13143" lon="6.75488">
        <ele>1731</ele>
        <time>2000-01-01T07:31:33.000Z</time>
      </trkpt>
      <trkpt lat="46.1315" lon="6.75492">
        <ele>1729.2</ele>
        <time>2000-01-01T07:31:43.000Z</time>
      </trkpt>
      <trkpt lat="46.13152" lon="6.75493">
        <ele>1728.5</ele>
        <time>2000-01-01T07:31:53.000Z</time>
      </trkpt>
      <trkpt lat="46.13155" lon="6.755">
        <ele>1729.9</ele>
        <time>2000-01-01T07:32:03.000Z</time>
      </trkpt>
      <trkpt lat="46.13157" lon="6.75501">
        <ele>1729.3</ele>
        <time>2000-01-01T07:32:13.000Z</time>
      </trkpt>
      <trkpt lat="46.13166" lon="6.75506">
        <ele>1725</ele>
        <time>2000-01-01T07:32:23.000Z</time>
      </trkpt>
      <trkpt lat="46.13178" lon="6.75515">
        <ele>1727</ele>
        <time>2000-01-01T07:32:33.000Z</time>
      </trkpt>
      <trkpt lat="46.1318" lon="6.75516">
        <ele>1726.7</ele>
        <time>2000-01-01T07:32:43.000Z</time>
      </trkpt>
      <trkpt lat="46.13184" lon="6.75516">
        <ele>1724</ele>
        <time>2000-01-01T07:32:53.000Z</time>
      </trkpt>
      <trkpt lat="46.13197" lon="6.75511">
        <ele>1719.4</ele>
        <time>2000-01-01T07:33:03.000Z</time>
      </trkpt>
      <trkpt lat="46.13203" lon="6.75511">
        <ele>1719</ele>
        <time>2000-01-01T07:33:13.000Z</time>
      </trkpt>
      <trkpt lat="46.13205" lon="6.75511">
        <ele>1715.8</ele>
        <time>2000-01-01T07:33:23.000Z</time>
      </trkpt>
      <trkpt lat="46.1321" lon="6.75516">
        <ele>1715.2</ele>
        <time>2000-01-01T07:33:33.000Z</time>
      </trkpt>
      <trkpt lat="46.1322" lon="6.75521">
        <ele>1712.5</ele>
        <time>2000-01-01T07:33:43.000Z</time>
      </trkpt>
      <trkpt lat="46.13223" lon="6.75522">
        <ele>1712</ele>
        <time>2000-01-01T07:33:53.000Z</time>
      </trkpt>
      <trkpt lat="46.13227" lon="6.75522">
        <ele>1710.6</ele>
        <time>2000-01-01T07:34:03.000Z</time>
      </trkpt>
      <trkpt lat="46.13228" lon="6.75523">
        <ele>1710.7</ele>
        <time>2000-01-01T07:34:13.000Z</time>
      </trkpt>
      <trkpt lat="46.13237" lon="6.75529">
        <ele>1709.5</ele>
        <time>2000-01-01T07:34:23.000Z</time>
      </trkpt>
      <trkpt lat="46.13239" lon="6.7553">
        <ele>1709.1</ele>
        <time>2000-01-01T07:34:33.000Z</time>
      </trkpt>
      <trkpt lat="46.13242" lon="6.75529">
        <ele>1706</ele>
        <time>2000-01-01T07:34:43.000Z</time>
      </trkpt>
      <trkpt lat="46.1325" lon="6.7553">
        <ele>1705.6</ele>
        <time>2000-01-01T07:34:53.000Z</time>
      </trkpt>
      <trkpt lat="46.13255" lon="6.75527">
        <ele>1705.6</ele>
        <time>2000-01-01T07:35:03.000Z</time>
      </trkpt>
      <trkpt lat="46.13258" lon="6.75525">
        <ele>1705.7</ele>
        <time>2000-01-01T07:35:13.000Z</time>
      </trkpt>
      <trkpt lat="46.13264" lon="6.75516">
        <ele>1701</ele>
        <time>2000-01-01T07:35:23.000Z</time>
      </trkpt>
      <trkpt lat="46.13275" lon="6.75493">
        <ele>1698</ele>
        <time>2000-01-01T07:35:33.000Z</time>
      </trkpt>
      <trkpt lat="46.13283" lon="6.75482">
        <ele>1694.4</ele>
        <time>2000-01-01T07:35:43.000Z</time>
      </trkpt>
      <trkpt lat="46.13287" lon="6.75477">
        <ele>1692.7</ele>
        <time>2000-01-01T07:35:53.000Z</time>
      </trkpt>
      <trkpt lat="46.13302" lon="6.75472">
        <ele>1693</ele>
        <time>2000-01-01T07:36:03.000Z</time>
      </trkpt>
      <trkpt lat="46.13315" lon="6.75469">
        <ele>1690.3</ele>
        <time>2000-01-01T07:36:13.000Z</time>
      </trkpt>
      <trkpt lat="46.13321" lon="6.7547">
        <ele>1689</ele>
        <time>2000-01-01T07:36:23.000Z</time>
      </trkpt>
      <trkpt lat="46.13332" lon="6.75472">
        <ele>1687.2</ele>
        <time>2000-01-01T07:36:33.000Z</time>
      </trkpt>
      <trkpt lat="46.13333" lon="6.75473">
        <ele>1687.2</ele>
        <time>2000-01-01T07:36:43.000Z</time>
      </trkpt>
      <trkpt lat="46.13338" lon="6.75478">
        <ele>1686.6</ele>
        <time>2000-01-01T07:36:53.000Z</time>
      </trkpt>
      <trkpt lat="46.13339" lon="6.75477">
        <ele>1688</ele>
        <time>2000-01-01T07:37:03.000Z</time>
      </trkpt>
      <trkpt lat="46.1334" lon="6.75474">
        <ele>1685.2</ele>
        <time>2000-01-01T07:37:13.000Z</time>
      </trkpt>
      <trkpt lat="46.1334" lon="6.75471">
        <ele>1684.4</ele>
        <time>2000-01-01T07:37:23.000Z</time>
      </trkpt>
      <trkpt lat="46.1334" lon="6.75458">
        <ele>1680.3</ele>
        <time>2000-01-01T07:37:33.000Z</time>
      </trkpt>
      <trkpt lat="46.13338" lon="6.75449">
        <ele>1677</ele>
        <time>2000-01-01T07:37:43.000Z</time>
      </trkpt>
      <trkpt lat="46.13337" lon="6.75446">
        <ele>1677.8</ele>
        <time>2000-01-01T07:37:53.000Z</time>
      </trkpt>
      <trkpt lat="46.13332" lon="6.75435">
        <ele>1676.1</ele>
        <time>2000-01-01T07:38:03.000Z</time>
      </trkpt>
      <trkpt lat="46.13327" lon="6.75426">
        <ele>1672</ele>
        <time>2000-01-01T07:38:13.000Z</time>
      </trkpt>
      <trkpt lat="46.13326" lon="6.75423">
        <ele>1674.3</ele>
        <time>2000-01-01T07:38:23.000Z</time>
      </trkpt>
      <trkpt lat="46.13327" lon="6.75413">
        <ele>1670.6</ele>
        <time>2000-01-01T07:38:33.000Z</time>
      </trkpt>
      <trkpt lat="46.13328" lon="6.75412">
        <ele>1669.8</ele>
        <time>2000-01-01T07:38:43.000Z</time>
      </trkpt>
      <trkpt lat="46.1333" lon="6.75411">
        <ele>1668.6</ele>
        <time>2000-01-01T07:38:53.000Z</time>
      </trkpt>
      <trkpt lat="46.13336" lon="6.75411">
        <ele>1666.5</ele>
        <time>2000-01-01T07:39:03.000Z</time>
      </trkpt>
      <trkpt lat="46.13342" lon="6.75409">
        <ele>1661</ele>
        <time>2000-01-01T07:39:13.000Z</time>
      </trkpt>
      <trkpt lat="46.13354" lon="6.75408">
        <ele>1661.2</ele>
        <time>2000-01-01T07:39:23.000Z</time>
      </trkpt>
      <trkpt lat="46.13364" lon="6.75401">
        <ele>1659</ele>
        <time>2000-01-01T07:39:33.000Z</time>
      </trkpt>
      <trkpt lat="46.13367" lon="6.75398">
        <ele>1656.4</ele>
        <time>2000-01-01T07:39:43.000Z</time>
      </trkpt>
      <trkpt lat="46.13375" lon="6.75385">
        <ele>1651.8</ele>
        <time>2000-01-01T07:39:53.000Z</time>
      </trkpt>
      <trkpt lat="46.13379" lon="6.75374">
        <ele>1650</ele>
        <time>2000-01-01T07:40:03.000Z</time>
      </trkpt>
      <trkpt lat="46.13392" lon="6.75355">
        <ele>1644.2</ele>
        <time>2000-01-01T07:40:13.000Z</time>
      </trkpt>
      <trkpt lat="46.13396" lon="6.7535">
        <ele>1641</ele>
        <time>2000-01-01T07:40:23.000Z</time>
      </trkpt>
      <trkpt lat="46.13401" lon="6.7534">
        <ele>1639.6</ele>
        <time>2000-01-01T07:40:33.000Z</time>
      </trkpt>
      <trkpt lat="46.13407" lon="6.7533">
        <ele>1636.6</ele>
        <time>2000-01-01T07:40:43.000Z</time>
      </trkpt>
      <trkpt lat="46.13415" lon="6.7531">
        <ele>1633</ele>
        <time>2000-01-01T07:40:53.000Z</time>
      </trkpt>
      <trkpt lat="46.13421" lon="6.75299">
        <ele>1629.7</ele>
        <time>2000-01-01T07:41:03.000Z</time>
      </trkpt>
      <trkpt lat="46.13424" lon="6.75283">
        <ele>1626</ele>
        <time>2000-01-01T07:41:13.000Z</time>
      </trkpt>
      <trkpt lat="46.13426" lon="6.7528">
        <ele>1626</ele>
        <time>2000-01-01T07:41:23.000Z</time>
      </trkpt>
      <trkpt lat="46.13428" lon="6.75278">
        <ele>1625.4</ele>
        <time>2000-01-01T07:41:33.000Z</time>
      </trkpt>
      <trkpt lat="46.13437" lon="6.75276">
        <ele>1623.8</ele>
        <time>2000-01-01T07:41:43.000Z</time>
      </trkpt>
      <trkpt lat="46.13439" lon="6.75275">
        <ele>1623.3</ele>
        <time>2000-01-01T07:41:53.000Z</time>
      </trkpt>
      <trkpt lat="46.1344" lon="6.75273">
        <ele>1622.9</ele>
        <time>2000-01-01T07:42:03.000Z</time>
      </trkpt>
      <trkpt lat="46.13442" lon="6.75269">
        <ele>1620</ele>
        <time>2000-01-01T07:42:13.000Z</time>
      </trkpt>
      <trkpt lat="46.13444" lon="6.75266">
        <ele>1621.4</ele>
        <time>2000-01-01T07:42:23.000Z</time>
      </trkpt>
      <trkpt lat="46.1345" lon="6.75258">
        <ele>1619.8</ele>
        <time>2000-01-01T07:42:33.000Z</time>
      </trkpt>
      <trkpt lat="46.13455" lon="6.75253">
        <ele>1618.7</ele>
        <time>2000-01-01T07:42:43.000Z</time>
      </trkpt>
      <trkpt lat="46.13458" lon="6.75251">
        <ele>1618</ele>
        <time>2000-01-01T07:42:53.000Z</time>
      </trkpt>
      <trkpt lat="46.13465" lon="6.7525">
        <ele>1617.5</ele>
        <time>2000-01-01T07:43:03.000Z</time>
      </trkpt>
      <trkpt lat="46.13472" lon="6.75252">
        <ele>1617.4</ele>
        <time>2000-01-01T07:43:13.000Z</time>
      </trkpt>
      <trkpt lat="46.13477" lon="6.75254">
        <ele>1617</ele>
        <time>2000-01-01T07:43:23.000Z</time>
      </trkpt>
      <trkpt lat="46.1348" lon="6.75255">
        <ele>1617.3</ele>
        <time>2000-01-01T07:43:33.000Z</time>
      </trkpt>
      <trkpt lat="46.13488" lon="6.75258">
        <ele>1617.1</ele>
        <time>2000-01-01T07:43:43.000Z</time>
      </trkpt>
      <trkpt lat="46.13501" lon="6.75261">
        <ele>1617</ele>
        <time>2000-01-01T07:43:53.000Z</time>
      </trkpt>
      <trkpt lat="46.13511" lon="6.7526">
        <ele>1617.3</ele>
        <time>2000-01-01T07:44:03.000Z</time>
      </trkpt>
      <trkpt lat="46.13518" lon="6.75254">
        <ele>1617.3</ele>
        <time>2000-01-01T07:44:13.000Z</time>
      </trkpt>
      <trkpt lat="46.13524" lon="6.75246">
        <ele>1617</ele>
        <time>2000-01-01T07:44:23.000Z</time>
      </trkpt>
      <trkpt lat="46.13531" lon="6.75243">
        <ele>1616.7</ele>
        <time>2000-01-01T07:44:33.000Z</time>
      </trkpt>
      <trkpt lat="46.13536" lon="6.75242">
        <ele>1615.8</ele>
        <time>2000-01-01T07:44:43.000Z</time>
      </trkpt>
      <trkpt lat="46.13543" lon="6.75243">
        <ele>1616</ele>
        <time>2000-01-01T07:44:53.000Z</time>
      </trkpt>
      <trkpt lat="46.13548" lon="6.75243">
        <ele>1614.1</ele>
        <time>2000-01-01T07:45:03.000Z</time>
      </trkpt>
      <trkpt lat="46.13555" lon="6.75244">
        <ele>1613.4</ele>
        <time>2000-01-01T07:45:13.000Z</time>
      </trkpt>
      <trkpt lat="46.13563" lon="6.75245">
        <ele>1612</ele>
        <time>2000-01-01T07:45:23.000Z</time>
      </trkpt>
      <trkpt lat="46.13565" lon="6.75243">
        <ele>1612.9</ele>
        <time>2000-01-01T07:45:33.000Z</time>
      </trkpt>
      <trkpt lat="46.13569" lon="6.75242">
        <ele>1612.6</ele>
        <time>2000-01-01T07:45:43.000Z</time>
      </trkpt>
      <trkpt lat="46.13575" lon="6.75244">
        <ele>1613.1</ele>
        <time>2000-01-01T07:45:53.000Z</time>
      </trkpt>
      <trkpt lat="46.13579" lon="6.75243">
        <ele>1612.8</ele>
        <time>2000-01-01T07:46:03.000Z</time>
      </trkpt>
      <trkpt lat="46.13585" lon="6.75241">
        <ele>1611</ele>
        <time>2000-01-01T07:46:13.000Z</time>
      </trkpt>
      <trkpt lat="46.1359" lon="6.75237">
        <ele>1611.9</ele>
        <time>2000-01-01T07:46:23.000Z</time>
      </trkpt>
      <trkpt lat="46.13594" lon="6.75235">
        <ele>1611.8</ele>
        <time>2000-01-01T07:46:33.000Z</time>
      </trkpt>
      <trkpt lat="46.13601" lon="6.75231">
        <ele>1611.4</ele>
        <time>2000-01-01T07:46:43.000Z</time>
      </trkpt>
      <trkpt lat="46.13608" lon="6.75228">
        <ele>1609</ele>
        <time>2000-01-01T07:46:53.000Z</time>
      </trkpt>
      <trkpt lat="46.13613" lon="6.75228">
        <ele>1611.8</ele>
        <time>2000-01-01T07:47:03.000Z</time>
      </trkpt>
      <trkpt lat="46.1362" lon="6.75226">
        <ele>1611.9</ele>
        <time>2000-01-01T07:47:13.000Z</time>
      </trkpt>
      <trkpt lat="46.13621" lon="6.75226">
        <ele>1612</ele>
        <time>2000-01-01T07:47:23.000Z</time>
      </trkpt>
      <trkpt lat="46.13628" lon="6.7522">
        <ele>1607</ele>
        <time>2000-01-01T07:47:33.000Z</time>
      </trkpt>
      <trkpt lat="46.13633" lon="6.75216">
        <ele>1609.1</ele>
        <time>2000-01-01T07:47:43.000Z</time>
      </trkpt>
      <trkpt lat="46.13635" lon="6.75212">
        <ele>1607.6</ele>
        <time>2000-01-01T07:47:53.000Z</time>
      </trkpt>
      <trkpt lat="46.13643" lon="6.75204">
        <ele>1605</ele>
        <time>2000-01-01T07:48:03.000Z</time>
      </trkpt>
      <trkpt lat="46.13651" lon="6.75199">
        <ele>1603</ele>
        <time>2000-01-01T07:48:13.000Z</time>
      </trkpt>
      <trkpt lat="46.13656" lon="6.75197">
        <ele>1603.1</ele>
        <time>2000-01-01T07:48:23.000Z</time>
      </trkpt>
      <trkpt lat="46.13659" lon="6.75194">
        <ele>1602</ele>
        <time>2000-01-01T07:48:33.000Z</time>
      </trkpt>
      <trkpt lat="46.13666" lon="6.7519">
        <ele>1600.9</ele>
        <time>2000-01-01T07:48:43.000Z</time>
      </trkpt>
      <trkpt lat="46.13672" lon="6.7519">
        <ele>1600</ele>
        <time>2000-01-01T07:48:53.000Z</time>
      </trkpt>
      <trkpt lat="46.13677" lon="6.75188">
        <ele>1601.2</ele>
        <time>2000-01-01T07:49:03.000Z</time>
      </trkpt>
      <trkpt lat="46.13686" lon="6.75183">
        <ele>1599.6</ele>
        <time>2000-01-01T07:49:13.000Z</time>
      </trkpt>
      <trkpt lat="46.13692" lon="6.75181">
        <ele>1598</ele>
        <time>2000-01-01T07:49:23.000Z</time>
      </trkpt>
      <trkpt lat="46.137" lon="6.75179">
        <ele>1599.1</ele>
        <time>2000-01-01T07:49:33.000Z</time>
      </trkpt>
      <trkpt lat="46.13714" lon="6.75176">
        <ele>1598</ele>
        <time>2000-01-01T07:49:43.000Z</time>
      </trkpt>
      <trkpt lat="46.13728" lon="6.75177">
        <ele>1601.7</ele>
        <time>2000-01-01T07:49:53.000Z</time>
      </trkpt>
      <trkpt lat="46.13738" lon="6.75179">
        <ele>1599</ele>
        <time>2000-01-01T07:50:03.000Z</time>
      </trkpt>
      <trkpt lat="46.13752" lon="6.75185">
        <ele>1604.3</ele>
        <time>2000-01-01T07:50:13.000Z</time>
      </trkpt>
      <trkpt lat="46.1376" lon="6.75191">
        <ele>1605</ele>
        <time>2000-01-01T07:50:23.000Z</time>
      </trkpt>
      <trkpt lat="46.13782" lon="6.75204">
        <ele>1604</ele>
        <time>2000-01-01T07:50:33.000Z</time>
      </trkpt>
      <trkpt lat="46.1379" lon="6.75207">
        <ele>1606.5</ele>
        <time>2000-01-01T07:50:43.000Z</time>
      </trkpt>
      <trkpt lat="46.13796" lon="6.75213">
        <ele>1606.9</ele>
        <time>2000-01-01T07:50:53.000Z</time>
      </trkpt>
      <trkpt lat="46.13801" lon="6.75218">
        <ele>1605</ele>
        <time>2000-01-01T07:51:03.000Z</time>
      </trkpt>
      <trkpt lat="46.13805" lon="6.75218">
        <ele>1605.7</ele>
        <time>2000-01-01T07:51:13.000Z</time>
      </trkpt>
      <trkpt lat="46.13806" lon="6.75218">
        <ele>1605.5</ele>
        <time>2000-01-01T07:51:23.000Z</time>
      </trkpt>
      <trkpt lat="46.13813" lon="6.75219">
        <ele>1605.9</ele>
        <time>2000-01-01T07:51:33.000Z</time>
      </trkpt>
      <trkpt lat="46.13818" lon="6.75223">
        <ele>1607.3</ele>
        <time>2000-01-01T07:51:43.000Z</time>
      </trkpt>
      <trkpt lat="46.13822" lon="6.75227">
        <ele>1607</ele>
        <time>2000-01-01T07:51:53.000Z</time>
      </trkpt>
      <trkpt lat="46.1383" lon="6.7523">
        <ele>1609.8</ele>
        <time>2000-01-01T07:52:03.000Z</time>
      </trkpt>
      <trkpt lat="46.1384" lon="6.75232">
        <ele>1609.8</ele>
        <time>2000-01-01T07:52:13.000Z</time>
      </trkpt>
      <trkpt lat="46.13853" lon="6.75235">
        <ele>1608</ele>
        <time>2000-01-01T07:52:23.000Z</time>
      </trkpt>
      <trkpt lat="46.13872" lon="6.75243">
        <ele>1609</ele>
        <time>2000-01-01T07:52:33.000Z</time>
      </trkpt>
      <trkpt lat="46.1389" lon="6.75248">
        <ele>1612.2</ele>
        <time>2000-01-01T07:52:43.000Z</time>
      </trkpt>
      <trkpt lat="46.13899" lon="6.75247">
        <ele>1609</ele>
        <time>2000-01-01T07:52:53.000Z</time>
      </trkpt>
      <trkpt lat="46.13905" lon="6.75242">
        <ele>1610.2</ele>
        <time>2000-01-01T07:53:03.000Z</time>
      </trkpt>
      <trkpt lat="46.13917" lon="6.75231">
        <ele>1606</ele>
        <time>2000-01-01T07:53:13.000Z</time>
      </trkpt>
      <trkpt lat="46.13928" lon="6.75231">
        <ele>1604.7</ele>
        <time>2000-01-01T07:53:23.000Z</time>
      </trkpt>
      <trkpt lat="46.13937" lon="6.75234">
        <ele>1606</ele>
        <time>2000-01-01T07:53:33.000Z</time>
      </trkpt>
      <trkpt lat="46.13954" lon="6.75242">
        <ele>1604.4</ele>
        <time>2000-01-01T07:53:43.000Z</time>
      </trkpt>
      <trkpt lat="46.13969" lon="6.75247">
        <ele>1603</ele>
        <time>2000-01-01T07:53:53.000Z</time>
      </trkpt>
      <trkpt lat="46.1398" lon="6.75258">
        <ele>1598.5</ele>
        <time>2000-01-01T07:54:03.000Z</time>
      </trkpt>
      <trkpt lat="46.13987" lon="6.75269">
        <ele>1599</ele>
        <time>2000-01-01T07:54:13.000Z</time>
      </trkpt>
      <trkpt lat="46.13995" lon="6.75287">
        <ele>1592.8</ele>
        <time>2000-01-01T07:54:23.000Z</time>
      </trkpt>
      <trkpt lat="46.14001" lon="6.75308">
        <ele>1596</ele>
        <time>2000-01-01T07:54:33.000Z</time>
      </trkpt>
      <trkpt lat="46.14005" lon="6.75327">
        <ele>1588.6</ele>
        <time>2000-01-01T07:54:43.000Z</time>
      </trkpt>
      <trkpt lat="46.14009" lon="6.75347">
        <ele>1593</ele>
        <time>2000-01-01T07:54:53.000Z</time>
      </trkpt>
      <trkpt lat="46.14014" lon="6.75356">
        <ele>1588.4</ele>
        <time>2000-01-01T07:55:03.000Z</time>
      </trkpt>
      <trkpt lat="46.14026" lon="6.7537">
        <ele>1591</ele>
        <time>2000-01-01T07:55:13.000Z</time>
      </trkpt>
      <trkpt lat="46.14032" lon="6.75387">
        <ele>1587.6</ele>
        <time>2000-01-01T07:55:23.000Z</time>
      </trkpt>
      <trkpt lat="46.14037" lon="6.75393">
        <ele>1589</ele>
        <time>2000-01-01T07:55:33.000Z</time>
      </trkpt>
      <trkpt lat="46.14043" lon="6.75394">
        <ele>1585.8</ele>
        <time>2000-01-01T07:55:43.000Z</time>
      </trkpt>
      <trkpt lat="46.14054" lon="6.75386">
        <ele>1582.2</ele>
        <time>2000-01-01T07:55:53.000Z</time>
      </trkpt>
      <trkpt lat="46.14063" lon="6.75379">
        <ele>1581</ele>
        <time>2000-01-01T07:56:03.000Z</time>
      </trkpt>
      <trkpt lat="46.14068" lon="6.75377">
        <ele>1578.8</ele>
        <time>2000-01-01T07:56:13.000Z</time>
      </trkpt>
      <trkpt lat="46.14072" lon="6.75379">
        <ele>1578</ele>
        <time>2000-01-01T07:56:23.000Z</time>
      </trkpt>
      <trkpt lat="46.14076" lon="6.75382">
        <ele>1577.1</ele>
        <time>2000-01-01T07:56:33.000Z</time>
      </trkpt>
      <trkpt lat="46.1408" lon="6.75389">
        <ele>1577</ele>
        <time>2000-01-01T07:56:43.000Z</time>
      </trkpt>
      <trkpt lat="46.14084" lon="6.75398">
        <ele>1574.8</ele>
        <time>2000-01-01T07:56:53.000Z</time>
      </trkpt>
      <trkpt lat="46.14091" lon="6.75419">
        <ele>1572</ele>
        <time>2000-01-01T07:57:03.000Z</time>
      </trkpt>
      <trkpt lat="46.14095" lon="6.75422">
        <ele>1571.2</ele>
        <time>2000-01-01T07:57:13.000Z</time>
      </trkpt>
      <trkpt lat="46.14104" lon="6.75426">
        <ele>1568.4</ele>
        <time>2000-01-01T07:57:23.000Z</time>
      </trkpt>
      <trkpt lat="46.14113" lon="6.75425">
        <ele>1565</ele>
        <time>2000-01-01T07:57:33.000Z</time>
      </trkpt>
      <trkpt lat="46.14118" lon="6.75426">
        <ele>1563.8</ele>
        <time>2000-01-01T07:57:43.000Z</time>
      </trkpt>
      <trkpt lat="46.14122" lon="6.75427">
        <ele>1562.8</ele>
        <time>2000-01-01T07:57:53.000Z</time>
      </trkpt>
      <trkpt lat="46.14124" lon="6.75424">
        <ele>1561.8</ele>
        <time>2000-01-01T07:58:03.000Z</time>
      </trkpt>
      <trkpt lat="46.14125" lon="6.75419">
        <ele>1560.8</ele>
        <time>2000-01-01T07:58:13.000Z</time>
      </trkpt>
      <trkpt lat="46.14122" lon="6.75411">
        <ele>1560</ele>
        <time>2000-01-01T07:58:23.000Z</time>
      </trkpt>
      <trkpt lat="46.14121" lon="6.75404">
        <ele>1561.3</ele>
        <time>2000-01-01T07:58:33.000Z</time>
      </trkpt>
      <trkpt lat="46.14122" lon="6.75397">
        <ele>1560.9</ele>
        <time>2000-01-01T07:58:43.000Z</time>
      </trkpt>
      <trkpt lat="46.14126" lon="6.7539">
        <ele>1559.1</ele>
        <time>2000-01-01T07:58:53.000Z</time>
      </trkpt>
      <trkpt lat="46.14133" lon="6.75383">
        <ele>1557</ele>
        <time>2000-01-01T07:59:03.000Z</time>
      </trkpt>
      <trkpt lat="46.14143" lon="6.75372">
        <ele>1551.9</ele>
        <time>2000-01-01T07:59:13.000Z</time>
      </trkpt>
      <trkpt lat="46.1415" lon="6.75367">
        <ele>1549</ele>
        <time>2000-01-01T07:59:23.000Z</time>
      </trkpt>
      <trkpt lat="46.14153" lon="6.75368">
        <ele>1548</ele>
        <time>2000-01-01T07:59:33.000Z</time>
      </trkpt>
      <trkpt lat="46.14159" lon="6.75377">
        <ele>1545.9</ele>
        <time>2000-01-01T07:59:43.000Z</time>
      </trkpt>
      <trkpt lat="46.14161" lon="6.75383">
        <ele>1545.2</ele>
        <time>2000-01-01T07:59:53.000Z</time>
      </trkpt>
      <trkpt lat="46.14167" lon="6.75397">
        <ele>1544</ele>
        <time>2000-01-01T08:00:03.000Z</time>
      </trkpt>
      <trkpt lat="46.14173" lon="6.75406">
        <ele>1541.5</ele>
        <time>2000-01-01T08:00:13.000Z</time>
      </trkpt>
      <trkpt lat="46.14183" lon="6.75418">
        <ele>1539</ele>
        <time>2000-01-01T08:00:23.000Z</time>
      </trkpt>
      <trkpt lat="46.14194" lon="6.75429">
        <ele>1536.5</ele>
        <time>2000-01-01T08:00:33.000Z</time>
      </trkpt>
      <trkpt lat="46.14199" lon="6.75437">
        <ele>1535</ele>
        <time>2000-01-01T08:00:43.000Z</time>
      </trkpt>
      <trkpt lat="46.1421" lon="6.75444">
        <ele>1531.2</ele>
        <time>2000-01-01T08:00:53.000Z</time>
      </trkpt>
      <trkpt lat="46.14217" lon="6.75453">
        <ele>1533</ele>
        <time>2000-01-01T08:01:03.000Z</time>
      </trkpt>
      <trkpt lat="46.14219" lon="6.75465">
        <ele>1527.1</ele>
        <time>2000-01-01T08:01:13.000Z</time>
      </trkpt>
      <trkpt lat="46.14225" lon="6.75474">
        <ele>1524.5</ele>
        <time>2000-01-01T08:01:23.000Z</time>
      </trkpt>
      <trkpt lat="46.14236" lon="6.75478">
        <ele>1522</ele>
        <time>2000-01-01T08:01:33.000Z</time>
      </trkpt>
      <trkpt lat="46.14249" lon="6.75482">
        <ele>1517.8</ele>
        <time>2000-01-01T08:01:43.000Z</time>
      </trkpt>
      <trkpt lat="46.14265" lon="6.7549">
        <ele>1513</ele>
        <time>2000-01-01T08:01:53.000Z</time>
      </trkpt>
      <trkpt lat="46.14287" lon="6.75499">
        <ele>1506</ele>
        <time>2000-01-01T08:02:03.000Z</time>
      </trkpt>
      <trkpt lat="46.14299" lon="6.75504">
        <ele>1504.1</ele>
        <time>2000-01-01T08:02:13.000Z</time>
      </trkpt>
      <trkpt lat="46.14307" lon="6.75511">
        <ele>1503</ele>
        <time>2000-01-01T08:02:23.000Z</time>
      </trkpt>
      <trkpt lat="46.14315" lon="6.75529">
        <ele>1497.9</ele>
        <time>2000-01-01T08:02:33.000Z</time>
      </trkpt>
      <trkpt lat="46.14322" lon="6.75544">
        <ele>1495</ele>
        <time>2000-01-01T08:02:43.000Z</time>
      </trkpt>
      <trkpt lat="46.14336" lon="6.75572">
        <ele>1492</ele>
        <time>2000-01-01T08:02:53.000Z</time>
      </trkpt>
      <trkpt lat="46.14353" lon="6.75603">
        <ele>1484</ele>
        <time>2000-01-01T08:03:03.000Z</time>
      </trkpt>
      <trkpt lat="46.14363" lon="6.75619">
        <ele>1479.7</ele>
        <time>2000-01-01T08:03:13.000Z</time>
      </trkpt>
      <trkpt lat="46.14369" lon="6.75629">
        <ele>1480</ele>
        <time>2000-01-01T08:03:23.000Z</time>
      </trkpt>
      <trkpt lat="46.14372" lon="6.75637">
        <ele>1475.5</ele>
        <time>2000-01-01T08:03:33.000Z</time>
      </trkpt>
      <trkpt lat="46.14376" lon="6.75646">
        <ele>1474.3</ele>
        <time>2000-01-01T08:03:43.000Z</time>
      </trkpt>
      <trkpt lat="46.14382" lon="6.7565">
        <ele>1473</ele>
        <time>2000-01-01T08:03:53.000Z</time>
      </trkpt>
      <trkpt lat="46.14385" lon="6.75657">
        <ele>1471.4</ele>
        <time>2000-01-01T08:04:03.000Z</time>
      </trkpt>
      <trkpt lat="46.14387" lon="6.75669">
        <ele>1470</ele>
        <time>2000-01-01T08:04:13.000Z</time>
      </trkpt>
      <trkpt lat="46.14388" lon="6.75677">
        <ele>1472</ele>
        <time>2000-01-01T08:04:23.000Z</time>
      </trkpt>
      <trkpt lat="46.14386" lon="6.75683">
        <ele>1466.7</ele>
        <time>2000-01-01T08:04:33.000Z</time>
      </trkpt>
      <trkpt lat="46.14384" lon="6.75691">
        <ele>1465.7</ele>
        <time>2000-01-01T08:04:43.000Z</time>
      </trkpt>
      <trkpt lat="46.1437" lon="6.75711">
        <ele>1469</ele>
        <time>2000-01-01T08:04:53.000Z</time>
      </trkpt>
      <trkpt lat="46.14363" lon="6.75715">
        <ele>1463.7</ele>
        <time>2000-01-01T08:05:03.000Z</time>
      </trkpt>
      <trkpt lat="46.1435" lon="6.75731">
        <ele>1467</ele>
        <time>2000-01-01T08:05:13.000Z</time>
      </trkpt>
      <trkpt lat="46.14347" lon="6.75737">
        <ele>1463.1</ele>
        <time>2000-01-01T08:05:23.000Z</time>
      </trkpt>
      <trkpt lat="46.14341" lon="6.75766">
        <ele>1464</ele>
        <time>2000-01-01T08:05:33.000Z</time>
      </trkpt>
      <trkpt lat="46.14338" lon="6.75776">
        <ele>1459.6</ele>
        <time>2000-01-01T08:05:43.000Z</time>
      </trkpt>
      <trkpt lat="46.1433" lon="6.75799">
        <ele>1465</ele>
        <time>2000-01-01T08:05:53.000Z</time>
      </trkpt>
      <trkpt lat="46.14325" lon="6.75824">
        <ele>1464.3</ele>
        <time>2000-01-01T08:06:03.000Z</time>
      </trkpt>
      <trkpt lat="46.14322" lon="6.75837">
        <ele>1466</ele>
        <time>2000-01-01T08:06:13.000Z</time>
      </trkpt>
      <trkpt lat="46.14317" lon="6.75851">
        <ele>1468</ele>
        <time>2000-01-01T08:06:23.000Z</time>
      </trkpt>
      <trkpt lat="46.14312" lon="6.75862">
        <ele>1469</ele>
        <time>2000-01-01T08:06:33.000Z</time>
      </trkpt>
      <trkpt lat="46.1431" lon="6.75875">
        <ele>1470.1</ele>
        <time>2000-01-01T08:06:43.000Z</time>
      </trkpt>
      <trkpt lat="46.14305" lon="6.75891">
        <ele>1471</ele>
        <time>2000-01-01T08:06:53.000Z</time>
      </trkpt>
      <trkpt lat="46.143" lon="6.75905">
        <ele>1470.9</ele>
        <time>2000-01-01T08:07:03.000Z</time>
      </trkpt>
      <trkpt lat="46.14296" lon="6.75911">
        <ele>1471.3</ele>
        <time>2000-01-01T08:07:13.000Z</time>
      </trkpt>
      <trkpt lat="46.14293" lon="6.75917">
        <ele>1468</ele>
        <time>2000-01-01T08:07:23.000Z</time>
      </trkpt>
      <trkpt lat="46.1429" lon="6.7593">
        <ele>1467.9</ele>
        <time>2000-01-01T08:07:33.000Z</time>
      </trkpt>
      <trkpt lat="46.14285" lon="6.75942">
        <ele>1466</ele>
        <time>2000-01-01T08:07:43.000Z</time>
      </trkpt>
      <trkpt lat="46.14279" lon="6.75951">
        <ele>1463.9</ele>
        <time>2000-01-01T08:07:53.000Z</time>
      </trkpt>
      <trkpt lat="46.1427" lon="6.75963">
        <ele>1465</ele>
        <time>2000-01-01T08:08:03.000Z</time>
      </trkpt>
      <trkpt lat="46.1426" lon="6.75972">
        <ele>1461.3</ele>
        <time>2000-01-01T08:08:13.000Z</time>
      </trkpt>
      <trkpt lat="46.14255" lon="6.75975">
        <ele>1461</ele>
        <time>2000-01-01T08:08:23.000Z</time>
      </trkpt>
      <trkpt lat="46.14249" lon="6.75983">
        <ele>1464</ele>
        <time>2000-01-01T08:08:33.000Z</time>
      </trkpt>
      <trkpt lat="46.1424" lon="6.75993">
        <ele>1458</ele>
        <time>2000-01-01T08:08:43.000Z</time>
      </trkpt>
      <trkpt lat="46.14223" lon="6.76009">
        <ele>1464</ele>
        <time>2000-01-01T08:08:53.000Z</time>
      </trkpt>
      <trkpt lat="46.14209" lon="6.76023">
        <ele>1459.6</ele>
        <time>2000-01-01T08:09:03.000Z</time>
      </trkpt>
      <trkpt lat="46.14198" lon="6.76035">
        <ele>1465</ele>
        <time>2000-01-01T08:09:13.000Z</time>
      </trkpt>
      <trkpt lat="46.14188" lon="6.76047">
        <ele>1462</ele>
        <time>2000-01-01T08:09:23.000Z</time>
      </trkpt>
      <trkpt lat="46.1418" lon="6.76058">
        <ele>1466</ele>
        <time>2000-01-01T08:09:33.000Z</time>
      </trkpt>
      <trkpt lat="46.14172" lon="6.76069">
        <ele>1463.3</ele>
        <time>2000-01-01T08:09:43.000Z</time>
      </trkpt>
      <trkpt lat="46.14166" lon="6.7608">
        <ele>1465</ele>
        <time>2000-01-01T08:09:53.000Z</time>
      </trkpt>
      <trkpt lat="46.14162" lon="6.76086">
        <ele>1462.6</ele>
        <time>2000-01-01T08:10:03.000Z</time>
      </trkpt>
      <trkpt lat="46.14153" lon="6.76096">
        <ele>1461.9</ele>
        <time>2000-01-01T08:10:13.000Z</time>
      </trkpt>
      <trkpt lat="46.14142" lon="6.76108">
        <ele>1464</ele>
        <time>2000-01-01T08:10:23.000Z</time>
      </trkpt>
      <trkpt lat="46.14135" lon="6.76116">
        <ele>1461.3</ele>
        <time>2000-01-01T08:10:33.000Z</time>
      </trkpt>
      <trkpt lat="46.1413" lon="6.76127">
        <ele>1460</ele>
        <time>2000-01-01T08:10:43.000Z</time>
      </trkpt>
      <trkpt lat="46.14125" lon="6.76136">
        <ele>1463</ele>
        <time>2000-01-01T08:10:53.000Z</time>
      </trkpt>
      <trkpt lat="46.1412" lon="6.76142">
        <ele>1459</ele>
        <time>2000-01-01T08:11:03.000Z</time>
      </trkpt>
      <trkpt lat="46.1412" lon="6.76142">
        <ele>1459</ele>
        <time>2000-01-01T08:11:13.000Z</time>
      </trkpt>
      <trkpt lat="46.14115" lon="6.76151">
        <ele>1457.4</ele>
        <time>2000-01-01T08:11:23.000Z</time>
      </trkpt>
      <trkpt lat="46.1411" lon="6.76158">
        <ele>1459</ele>
        <time>2000-01-01T08:11:33.000Z</time>
      </trkpt>
      <trkpt lat="46.14103" lon="6.76163">
        <ele>1456.6</ele>
        <time>2000-01-01T08:11:43.000Z</time>
      </trkpt>
      <trkpt lat="46.14095" lon="6.76169">
        <ele>1457.1</ele>
        <time>2000-01-01T08:11:53.000Z</time>
      </trkpt>
      <trkpt lat="46.14091" lon="6.76171">
        <ele>1459</ele>
        <time>2000-01-01T08:12:03.000Z</time>
      </trkpt>
      <trkpt lat="46.14087" lon="6.76173">
        <ele>1459.5</ele>
        <time>2000-01-01T08:12:13.000Z</time>
      </trkpt>
      <trkpt lat="46.14084" lon="6.76177">
        <ele>1460.2</ele>
        <time>2000-01-01T08:12:23.000Z</time>
      </trkpt>
      <trkpt lat="46.14083" lon="6.76182">
        <ele>1459.9</ele>
        <time>2000-01-01T08:12:33.000Z</time>
      </trkpt>
      <trkpt lat="46.14083" lon="6.76185">
        <ele>1459.5</ele>
        <time>2000-01-01T08:12:43.000Z</time>
      </trkpt>
      <trkpt lat="46.14083" lon="6.76191">
        <ele>1458.7</ele>
        <time>2000-01-01T08:12:53.000Z</time>
      </trkpt>
      <trkpt lat="46.14083" lon="6.76202">
        <ele>1458</ele>
        <time>2000-01-01T08:13:03.000Z</time>
      </trkpt>
      <trkpt lat="46.14082" lon="6.76216">
        <ele>1458.6</ele>
        <time>2000-01-01T08:13:13.000Z</time>
      </trkpt>
      <trkpt lat="46.14081" lon="6.76232">
        <ele>1458</ele>
        <time>2000-01-01T08:13:23.000Z</time>
      </trkpt>
      <trkpt lat="46.14077" lon="6.76259">
        <ele>1458</ele>
        <time>2000-01-01T08:13:33.000Z</time>
      </trkpt>
      <trkpt lat="46.14072" lon="6.76288">
        <ele>1452</ele>
        <time>2000-01-01T08:13:43.000Z</time>
      </trkpt>
      <trkpt lat="46.14066" lon="6.76321">
        <ele>1449</ele>
        <time>2000-01-01T08:13:53.000Z</time>
      </trkpt>
      <trkpt lat="46.14061" lon="6.76341">
        <ele>1445.5</ele>
        <time>2000-01-01T08:14:03.000Z</time>
      </trkpt>
      <trkpt lat="46.14059" lon="6.76348">
        <ele>1448</ele>
        <time>2000-01-01T08:14:13.000Z</time>
      </trkpt>
      <trkpt lat="46.14057" lon="6.76386">
        <ele>1444</ele>
        <time>2000-01-01T08:14:23.000Z</time>
      </trkpt>
      <trkpt lat="46.14055" lon="6.76424">
        <ele>1440</ele>
        <time>2000-01-01T08:14:33.000Z</time>
      </trkpt>
      <trkpt lat="46.14055" lon="6.7644">
        <ele>1438.2</ele>
        <time>2000-01-01T08:14:43.000Z</time>
      </trkpt>
      <trkpt lat="46.14061" lon="6.76452">
        <ele>1437</ele>
        <time>2000-01-01T08:14:53.000Z</time>
      </trkpt>
      <trkpt lat="46.14069" lon="6.7647">
        <ele>1433.7</ele>
        <time>2000-01-01T08:15:03.000Z</time>
      </trkpt>
      <trkpt lat="46.14073" lon="6.76475">
        <ele>1433</ele>
        <time>2000-01-01T08:15:13.000Z</time>
      </trkpt>
      <trkpt lat="46.14076" lon="6.76478">
        <ele>1432.2</ele>
        <time>2000-01-01T08:15:23.000Z</time>
      </trkpt>
      <trkpt lat="46.14081" lon="6.76478">
        <ele>1431.4</ele>
        <time>2000-01-01T08:15:33.000Z</time>
      </trkpt>
      <trkpt lat="46.14086" lon="6.76476">
        <ele>1430.3</ele>
        <time>2000-01-01T08:15:43.000Z</time>
      </trkpt>
      <trkpt lat="46.14098" lon="6.76466">
        <ele>1429</ele>
        <time>2000-01-01T08:15:53.000Z</time>
      </trkpt>
      <trkpt lat="46.14102" lon="6.76465">
        <ele>1426.1</ele>
        <time>2000-01-01T08:16:03.000Z</time>
      </trkpt>
      <trkpt lat="46.14107" lon="6.76466">
        <ele>1424.8</ele>
        <time>2000-01-01T08:16:13.000Z</time>
      </trkpt>
      <trkpt lat="46.14112" lon="6.7647">
        <ele>1423.7</ele>
        <time>2000-01-01T08:16:23.000Z</time>
      </trkpt>
      <trkpt lat="46.14115" lon="6.76477">
        <ele>1424</ele>
        <time>2000-01-01T08:16:33.000Z</time>
      </trkpt>
      <trkpt lat="46.1412" lon="6.76495">
        <ele>1421.4</ele>
        <time>2000-01-01T08:16:43.000Z</time>
      </trkpt>
      <trkpt lat="46.14123" lon="6.76509">
        <ele>1421</ele>
        <time>2000-01-01T08:16:53.000Z</time>
      </trkpt>
      <trkpt lat="46.14123" lon="6.7652">
        <ele>1419.1</ele>
        <time>2000-01-01T08:17:03.000Z</time>
      </trkpt>
      <trkpt lat="46.14122" lon="6.76533">
        <ele>1418.2</ele>
        <time>2000-01-01T08:17:13.000Z</time>
      </trkpt>
      <trkpt lat="46.14121" lon="6.76541">
        <ele>1418</ele>
        <time>2000-01-01T08:17:23.000Z</time>
      </trkpt>
      <trkpt lat="46.14123" lon="6.76546">
        <ele>1416.2</ele>
        <time>2000-01-01T08:17:33.000Z</time>
      </trkpt>
      <trkpt lat="46.14124" lon="6.76551">
        <ele>1415.3</ele>
        <time>2000-01-01T08:17:43.000Z</time>
      </trkpt>
      <trkpt lat="46.14128" lon="6.76553">
        <ele>1414.1</ele>
        <time>2000-01-01T08:17:53.000Z</time>
      </trkpt>
      <trkpt lat="46.14132" lon="6.76553">
        <ele>1413</ele>
        <time>2000-01-01T08:18:03.000Z</time>
      </trkpt>
      <trkpt lat="46.14138" lon="6.76548">
        <ele>1414</ele>
        <time>2000-01-01T08:18:13.000Z</time>
      </trkpt>
      <trkpt lat="46.14147" lon="6.76537">
        <ele>1411</ele>
        <time>2000-01-01T08:18:23.000Z</time>
      </trkpt>
      <trkpt lat="46.14153" lon="6.76527">
        <ele>1412</ele>
        <time>2000-01-01T08:18:33.000Z</time>
      </trkpt>
      <trkpt lat="46.14154" lon="6.76524">
        <ele>1410.3</ele>
        <time>2000-01-01T08:18:43.000Z</time>
      </trkpt>
      <trkpt lat="46.14156" lon="6.76516">
        <ele>1410</ele>
        <time>2000-01-01T08:18:53.000Z</time>
      </trkpt>
      <trkpt lat="46.1416" lon="6.76486">
        <ele>1409</ele>
        <time>2000-01-01T08:19:03.000Z</time>
      </trkpt>
      <trkpt lat="46.14164" lon="6.76481">
        <ele>1407.9</ele>
        <time>2000-01-01T08:19:13.000Z</time>
      </trkpt>
      <trkpt lat="46.14169" lon="6.76479">
        <ele>1406.4</ele>
        <time>2000-01-01T08:19:23.000Z</time>
      </trkpt>
      <trkpt lat="46.14174" lon="6.76479">
        <ele>1405.2</ele>
        <time>2000-01-01T08:19:33.000Z</time>
      </trkpt>
      <trkpt lat="46.14178" lon="6.76488">
        <ele>1406</ele>
        <time>2000-01-01T08:19:43.000Z</time>
      </trkpt>
      <trkpt lat="46.1418" lon="6.76498">
        <ele>1403.6</ele>
        <time>2000-01-01T08:19:53.000Z</time>
      </trkpt>
      <trkpt lat="46.14182" lon="6.76503">
        <ele>1403.1</ele>
        <time>2000-01-01T08:20:03.000Z</time>
      </trkpt>
      <trkpt lat="46.14184" lon="6.7651">
        <ele>1402.6</ele>
        <time>2000-01-01T08:20:13.000Z</time>
      </trkpt>
      <trkpt lat="46.14191" lon="6.76514">
        <ele>1400</ele>
        <time>2000-01-01T08:20:23.000Z</time>
      </trkpt>
      <trkpt lat="46.14193" lon="6.76513">
        <ele>1400.4</ele>
        <time>2000-01-01T08:20:33.000Z</time>
      </trkpt>
      <trkpt lat="46.14198" lon="6.76506">
        <ele>1399.2</ele>
        <time>2000-01-01T08:20:43.000Z</time>
      </trkpt>
      <trkpt lat="46.14204" lon="6.76496">
        <ele>1397.9</ele>
        <time>2000-01-01T08:20:53.000Z</time>
      </trkpt>
      <trkpt lat="46.14213" lon="6.76485">
        <ele>1396</ele>
        <time>2000-01-01T08:21:03.000Z</time>
      </trkpt>
      <trkpt lat="46.14221" lon="6.76474">
        <ele>1393.4</ele>
        <time>2000-01-01T08:21:13.000Z</time>
      </trkpt>
      <trkpt lat="46.1423" lon="6.76463">
        <ele>1390</ele>
        <time>2000-01-01T08:21:23.000Z</time>
      </trkpt>
      <trkpt lat="46.14233" lon="6.76462">
        <ele>1388.8</ele>
        <time>2000-01-01T08:21:33.000Z</time>
      </trkpt>
      <trkpt lat="46.14233" lon="6.76462">
        <ele>1388.8</ele>
        <time>2000-01-01T08:21:43.000Z</time>
      </trkpt>
      <trkpt lat="46.14238" lon="6.76459">
        <ele>1387.1</ele>
        <time>2000-01-01T08:21:53.000Z</time>
      </trkpt>
      <trkpt lat="46.14244" lon="6.76459">
        <ele>1385.6</ele>
        <time>2000-01-01T08:22:03.000Z</time>
      </trkpt>
      <trkpt lat="46.14252" lon="6.76465">
        <ele>1384</ele>
        <time>2000-01-01T08:22:13.000Z</time>
      </trkpt>
      <trkpt lat="46.14259" lon="6.76476">
        <ele>1383.3</ele>
        <time>2000-01-01T08:22:23.000Z</time>
      </trkpt>
      <trkpt lat="46.14264" lon="6.7649">
        <ele>1383</ele>
        <time>2000-01-01T08:22:33.000Z</time>
      </trkpt>
      <trkpt lat="46.14268" lon="6.76505">
        <ele>1381.8</ele>
        <time>2000-01-01T08:22:43.000Z</time>
      </trkpt>
      <trkpt lat="46.14273" lon="6.76531">
        <ele>1381</ele>
        <time>2000-01-01T08:22:53.000Z</time>
      </trkpt>
      <trkpt lat="46.14275" lon="6.7655">
        <ele>1378.3</ele>
        <time>2000-01-01T08:23:03.000Z</time>
      </trkpt>
      <trkpt lat="46.14275" lon="6.76571">
        <ele>1379</ele>
        <time>2000-01-01T08:23:13.000Z</time>
      </trkpt>
      <trkpt lat="46.14274" lon="6.76592">
        <ele>1374.5</ele>
        <time>2000-01-01T08:23:23.000Z</time>
      </trkpt>
      <trkpt lat="46.1427" lon="6.76607">
        <ele>1374</ele>
        <time>2000-01-01T08:23:33.000Z</time>
      </trkpt>
      <trkpt lat="46.14268" lon="6.7662">
        <ele>1370.5</ele>
        <time>2000-01-01T08:23:43.000Z</time>
      </trkpt>
      <trkpt lat="46.14268" lon="6.7663">
        <ele>1367.8</ele>
        <time>2000-01-01T08:23:53.000Z</time>
      </trkpt>
      <trkpt lat="46.1427" lon="6.76637">
        <ele>1368</ele>
        <time>2000-01-01T08:24:03.000Z</time>
      </trkpt>
      <trkpt lat="46.14274" lon="6.76644">
        <ele>1362.1</ele>
        <time>2000-01-01T08:24:13.000Z</time>
      </trkpt>
      <trkpt lat="46.14279" lon="6.76647">
        <ele>1359.8</ele>
        <time>2000-01-01T08:24:23.000Z</time>
      </trkpt>
      <trkpt lat="46.14285" lon="6.76647">
        <ele>1358.3</ele>
        <time>2000-01-01T08:24:33.000Z</time>
      </trkpt>
      <trkpt lat="46.14302" lon="6.76644">
        <ele>1357</ele>
        <time>2000-01-01T08:24:43.000Z</time>
      </trkpt>
      <trkpt lat="46.14316" lon="6.76638">
        <ele>1352.8</ele>
        <time>2000-01-01T08:24:53.000Z</time>
      </trkpt>
      <trkpt lat="46.14333" lon="6.76628">
        <ele>1352</ele>
        <time>2000-01-01T08:25:03.000Z</time>
      </trkpt>
      <trkpt lat="46.14344" lon="6.76615">
        <ele>1347.7</ele>
        <time>2000-01-01T08:25:13.000Z</time>
      </trkpt>
      <trkpt lat="46.14354" lon="6.76608">
        <ele>1348</ele>
        <time>2000-01-01T08:25:23.000Z</time>
      </trkpt>
      <trkpt lat="46.1436" lon="6.76606">
        <ele>1343.9</ele>
        <time>2000-01-01T08:25:33.000Z</time>
      </trkpt>
      <trkpt lat="46.14368" lon="6.76607">
        <ele>1338.8</ele>
        <time>2000-01-01T08:25:43.000Z</time>
      </trkpt>
      <trkpt lat="46.14373" lon="6.76611">
        <ele>1338</ele>
        <time>2000-01-01T08:25:53.000Z</time>
      </trkpt>
      <trkpt lat="46.14375" lon="6.7662">
        <ele>1331.1</ele>
        <time>2000-01-01T08:26:03.000Z</time>
      </trkpt>
      <trkpt lat="46.14377" lon="6.76636">
        <ele>1325.3</ele>
        <time>2000-01-01T08:26:13.000Z</time>
      </trkpt>
      <trkpt lat="46.14372" lon="6.76669">
        <ele>1320</ele>
        <time>2000-01-01T08:26:23.000Z</time>
      </trkpt>
      <trkpt lat="46.14365" lon="6.76699">
        <ele>1316</ele>
        <time>2000-01-01T08:26:33.000Z</time>
      </trkpt>
      <trkpt lat="46.14359" lon="6.76719">
        <ele>1309.5</ele>
        <time>2000-01-01T08:26:43.000Z</time>
      </trkpt>
      <trkpt lat="46.14353" lon="6.76733">
        <ele>1314</ele>
        <time>2000-01-01T08:26:53.000Z</time>
      </trkpt>
      <trkpt lat="46.14348" lon="6.76742">
        <ele>1309.1</ele>
        <time>2000-01-01T08:27:03.000Z</time>
      </trkpt>
      <trkpt lat="46.14341" lon="6.76747">
        <ele>1309.5</ele>
        <time>2000-01-01T08:27:13.000Z</time>
      </trkpt>
      <trkpt lat="46.14333" lon="6.76748">
        <ele>1314</ele>
        <time>2000-01-01T08:27:23.000Z</time>
      </trkpt>
      <trkpt lat="46.14318" lon="6.76749">
        <ele>1313.6</ele>
        <time>2000-01-01T08:27:33.000Z</time>
      </trkpt>
      <trkpt lat="46.14311" lon="6.76753">
        <ele>1314</ele>
        <time>2000-01-01T08:27:43.000Z</time>
      </trkpt>
      <trkpt lat="46.14305" lon="6.7676">
        <ele>1313.9</ele>
        <time>2000-01-01T08:27:53.000Z</time>
      </trkpt>
      <trkpt lat="46.14302" lon="6.76766">
        <ele>1313.1</ele>
        <time>2000-01-01T08:28:03.000Z</time>
      </trkpt>
      <trkpt lat="46.14302" lon="6.76773">
        <ele>1311.6</ele>
        <time>2000-01-01T08:28:13.000Z</time>
      </trkpt>
      <trkpt lat="46.14306" lon="6.76781">
        <ele>1310</ele>
        <time>2000-01-01T08:28:23.000Z</time>
      </trkpt>
      <trkpt lat="46.14307" lon="6.76785">
        <ele>1309.1</ele>
        <time>2000-01-01T08:28:33.000Z</time>
      </trkpt>
      <trkpt lat="46.14309" lon="6.76789">
        <ele>1308.6</ele>
        <time>2000-01-01T08:28:43.000Z</time>
      </trkpt>
      <trkpt lat="46.14309" lon="6.76796">
        <ele>1308</ele>
        <time>2000-01-01T08:28:53.000Z</time>
      </trkpt>
      <trkpt lat="46.14309" lon="6.76802">
        <ele>1307.4</ele>
        <time>2000-01-01T08:29:03.000Z</time>
      </trkpt>
      <trkpt lat="46.14309" lon="6.76805">
        <ele>1307.2</ele>
        <time>2000-01-01T08:29:13.000Z</time>
      </trkpt>
      <trkpt lat="46.14309" lon="6.76814">
        <ele>1309</ele>
        <time>2000-01-01T08:29:23.000Z</time>
      </trkpt>
      <trkpt lat="46.14331" lon="6.76812">
        <ele>1309</ele>
        <time>2000-01-01T08:29:33.000Z</time>
      </trkpt>
      <trkpt lat="46.14349" lon="6.7681">
        <ele>1309.9</ele>
        <time>2000-01-01T08:29:43.000Z</time>
      </trkpt>
      <trkpt lat="46.14361" lon="6.7681">
        <ele>1310</ele>
        <time>2000-01-01T08:29:53.000Z</time>
      </trkpt>
      <trkpt lat="46.14371" lon="6.76811">
        <ele>1312.4</ele>
        <time>2000-01-01T08:30:03.000Z</time>
      </trkpt>
      <trkpt lat="46.14385" lon="6.76811">
        <ele>1311</ele>
        <time>2000-01-01T08:30:13.000Z</time>
      </trkpt>
      <trkpt lat="46.14396" lon="6.768">
        <ele>1314.8</ele>
        <time>2000-01-01T08:30:23.000Z</time>
      </trkpt>
      <trkpt lat="46.14404" lon="6.76786">
        <ele>1308</ele>
        <time>2000-01-01T08:30:33.000Z</time>
      </trkpt>
      <trkpt lat="46.14408" lon="6.76767">
        <ele>1313.4</ele>
        <time>2000-01-01T08:30:43.000Z</time>
      </trkpt>
      <trkpt lat="46.14418" lon="6.76728">
        <ele>1307</ele>
        <time>2000-01-01T08:30:53.000Z</time>
      </trkpt>
      <trkpt lat="46.14435" lon="6.76688">
        <ele>1307</ele>
        <time>2000-01-01T08:31:03.000Z</time>
      </trkpt>
      <trkpt lat="46.14443" lon="6.76664">
        <ele>1311</ele>
        <time>2000-01-01T08:31:13.000Z</time>
      </trkpt>
      <trkpt lat="46.14447" lon="6.76647">
        <ele>1305</ele>
        <time>2000-01-01T08:31:23.000Z</time>
      </trkpt>
      <trkpt lat="46.14455" lon="6.76626">
        <ele>1309.1</ele>
        <time>2000-01-01T08:31:33.000Z</time>
      </trkpt>
      <trkpt lat="46.14473" lon="6.76598">
        <ele>1305</ele>
        <time>2000-01-01T08:31:43.000Z</time>
      </trkpt>
      <trkpt lat="46.14482" lon="6.76584">
        <ele>1308</ele>
        <time>2000-01-01T08:31:53.000Z</time>
      </trkpt>
      <trkpt lat="46.14497" lon="6.76576">
        <ele>1307</ele>
        <time>2000-01-01T08:32:03.000Z</time>
      </trkpt>
      <trkpt lat="46.14517" lon="6.76571">
        <ele>1310</ele>
        <time>2000-01-01T08:32:13.000Z</time>
      </trkpt>
      <trkpt lat="46.1455" lon="6.7657">
        <ele>1307</ele>
        <time>2000-01-01T08:32:23.000Z</time>
      </trkpt>
      <trkpt lat="46.14558" lon="6.76563">
        <ele>1314.6</ele>
        <time>2000-01-01T08:32:33.000Z</time>
      </trkpt>
      <trkpt lat="46.14559" lon="6.76535">
        <ele>1305</ele>
        <time>2000-01-01T08:32:43.000Z</time>
      </trkpt>
      <trkpt lat="46.14566" lon="6.7652">
        <ele>1308.3</ele>
        <time>2000-01-01T08:32:53.000Z</time>
      </trkpt>
      <trkpt lat="46.1457" lon="6.76508">
        <ele>1301</ele>
        <time>2000-01-01T08:33:03.000Z</time>
      </trkpt>
      <trkpt lat="46.1457" lon="6.76508">
        <ele>1307.3</ele>
        <time>2000-01-01T08:33:13.000Z</time>
      </trkpt>
      <trkpt lat="46.14573" lon="6.76495">
        <ele>1305.6</ele>
        <time>2000-01-01T08:33:23.000Z</time>
      </trkpt>
      <trkpt lat="46.14583" lon="6.7646">
        <ele>1301</ele>
        <time>2000-01-01T08:33:33.000Z</time>
      </trkpt>
      <trkpt lat="46.14591" lon="6.76442">
        <ele>1301.2</ele>
        <time>2000-01-01T08:33:43.000Z</time>
      </trkpt>
      <trkpt lat="46.14609" lon="6.76411">
        <ele>1300</ele>
        <time>2000-01-01T08:33:53.000Z</time>
      </trkpt>
      <trkpt lat="46.14625" lon="6.76391">
        <ele>1300</ele>
        <time>2000-01-01T08:34:03.000Z</time>
      </trkpt>
      <trkpt lat="46.14638" lon="6.76377">
        <ele>1303</ele>
        <time>2000-01-01T08:34:13.000Z</time>
      </trkpt>
      <trkpt lat="46.14649" lon="6.76367">
        <ele>1301</ele>
        <time>2000-01-01T08:34:23.000Z</time>
      </trkpt>
      <trkpt lat="46.14662" lon="6.76362">
        <ele>1306.1</ele>
        <time>2000-01-01T08:34:33.000Z</time>
      </trkpt>
      <trkpt lat="46.14674" lon="6.76358">
        <ele>1305</ele>
        <time>2000-01-01T08:34:43.000Z</time>
      </trkpt>
      <trkpt lat="46.14671" lon="6.76365">
        <ele>1308.6</ele>
        <time>2000-01-01T08:34:53.000Z</time>
      </trkpt>
      <trkpt lat="46.14672" lon="6.76403">
        <ele>1315</ele>
        <time>2000-01-01T08:35:03.000Z</time>
      </trkpt>
      <trkpt lat="46.14669" lon="6.76416">
        <ele>1319.3</ele>
        <time>2000-01-01T08:35:13.000Z</time>
      </trkpt>
      <trkpt lat="46.14666" lon="6.76428">
        <ele>1322.1</ele>
        <time>2000-01-01T08:35:23.000Z</time>
      </trkpt>
      <trkpt lat="46.14666" lon="6.76438">
        <ele>1320</ele>
        <time>2000-01-01T08:35:33.000Z</time>
      </trkpt>
      <trkpt lat="46.14672" lon="6.76457">
        <ele>1332.1</ele>
        <time>2000-01-01T08:35:43.000Z</time>
      </trkpt>
      <trkpt lat="46.14673" lon="6.76462">
        <ele>1333.9</ele>
        <time>2000-01-01T08:35:53.000Z</time>
      </trkpt>
      <trkpt lat="46.14667" lon="6.76474">
        <ele>1332</ele>
        <time>2000-01-01T08:36:03.000Z</time>
      </trkpt>
      <trkpt lat="46.14652" lon="6.76494">
        <ele>1336</ele>
        <time>2000-01-01T08:36:13.000Z</time>
      </trkpt>
      <trkpt lat="46.14652" lon="6.76497">
        <ele>1338.4</ele>
        <time>2000-01-01T08:36:23.000Z</time>
      </trkpt>
      <trkpt lat="46.14657" lon="6.76503">
        <ele>1341.5</ele>
        <time>2000-01-01T08:36:33.000Z</time>
      </trkpt>
      <trkpt lat="46.14658" lon="6.76506">
        <ele>1342.5</ele>
        <time>2000-01-01T08:36:43.000Z</time>
      </trkpt>
      <trkpt lat="46.14653" lon="6.76515">
        <ele>1342.8</ele>
        <time>2000-01-01T08:36:53.000Z</time>
      </trkpt>
      <trkpt lat="46.14654" lon="6.76517">
        <ele>1342</ele>
        <time>2000-01-01T08:37:03.000Z</time>
      </trkpt>
      <trkpt lat="46.14666" lon="6.76517">
        <ele>1347.5</ele>
        <time>2000-01-01T08:37:13.000Z</time>
      </trkpt>
      <trkpt lat="46.14668" lon="6.76523">
        <ele>1349.2</ele>
        <time>2000-01-01T08:37:23.000Z</time>
      </trkpt>
      <trkpt lat="46.1467" lon="6.76528">
        <ele>1346</ele>
        <time>2000-01-01T08:37:33.000Z</time>
      </trkpt>
      <trkpt lat="46.14673" lon="6.76528">
        <ele>1351.4</ele>
        <time>2000-01-01T08:37:43.000Z</time>
      </trkpt>
      <trkpt lat="46.14687" lon="6.7652">
        <ele>1352.5</ele>
        <time>2000-01-01T08:37:53.000Z</time>
      </trkpt>
      <trkpt lat="46.14693" lon="6.76519">
        <ele>1351</ele>
        <time>2000-01-01T08:38:03.000Z</time>
      </trkpt>
      <trkpt lat="46.147" lon="6.76521">
        <ele>1355.1</ele>
        <time>2000-01-01T08:38:13.000Z</time>
      </trkpt>
      <trkpt lat="46.14717" lon="6.7653">
        <ele>1356</ele>
        <time>2000-01-01T08:38:23.000Z</time>
      </trkpt>
      <trkpt lat="46.1473" lon="6.76533">
        <ele>1362.9</ele>
        <time>2000-01-01T08:38:33.000Z</time>
      </trkpt>
      <trkpt lat="46.14744" lon="6.76535">
        <ele>1363</ele>
        <time>2000-01-01T08:38:43.000Z</time>
      </trkpt>
      <trkpt lat="46.1476" lon="6.76534">
        <ele>1368.4</ele>
        <time>2000-01-01T08:38:53.000Z</time>
      </trkpt>
      <trkpt lat="46.14769" lon="6.7653">
        <ele>1366</ele>
        <time>2000-01-01T08:39:03.000Z</time>
      </trkpt>
      <trkpt lat="46.14778" lon="6.76522">
        <ele>1368.8</ele>
        <time>2000-01-01T08:39:13.000Z</time>
      </trkpt>
      <trkpt lat="46.14781" lon="6.7652">
        <ele>1368.9</ele>
        <time>2000-01-01T08:39:23.000Z</time>
      </trkpt>
      <trkpt lat="46.14788" lon="6.76525">
        <ele>1367</ele>
        <time>2000-01-01T08:39:33.000Z</time>
      </trkpt>
      <trkpt lat="46.14789" lon="6.76525">
        <ele>1371.5</ele>
        <time>2000-01-01T08:39:43.000Z</time>
      </trkpt>
      <trkpt lat="46.14792" lon="6.7652">
        <ele>1371</ele>
        <time>2000-01-01T08:39:53.000Z</time>
      </trkpt>
      <trkpt lat="46.14795" lon="6.76517">
        <ele>1371</ele>
        <time>2000-01-01T08:40:03.000Z</time>
      </trkpt>
      <trkpt lat="46.14801" lon="6.76523">
        <ele>1373.3</ele>
        <time>2000-01-01T08:40:13.000Z</time>
      </trkpt>
      <trkpt lat="46.14803" lon="6.76524">
        <ele>1372</ele>
        <time>2000-01-01T08:40:23.000Z</time>
      </trkpt>
      <trkpt lat="46.14814" lon="6.76522">
        <ele>1374.9</ele>
        <time>2000-01-01T08:40:33.000Z</time>
      </trkpt>
      <trkpt lat="46.14817" lon="6.76524">
        <ele>1375.6</ele>
        <time>2000-01-01T08:40:43.000Z</time>
      </trkpt>
      <trkpt lat="46.14818" lon="6.76529">
        <ele>1376.6</ele>
        <time>2000-01-01T08:40:53.000Z</time>
      </trkpt>
      <trkpt lat="46.14815" lon="6.76554">
        <ele>1380</ele>
        <time>2000-01-01T08:41:03.000Z</time>
      </trkpt>
      <trkpt lat="46.14821" lon="6.76555">
        <ele>1382</ele>
        <time>2000-01-01T08:41:13.000Z</time>
      </trkpt>
      <trkpt lat="46.14831" lon="6.76557">
        <ele>1383.1</ele>
        <time>2000-01-01T08:41:23.000Z</time>
      </trkpt>
      <trkpt lat="46.14884" lon="6.76552">
        <ele>1384</ele>
        <time>2000-01-01T08:41:33.000Z</time>
      </trkpt>
      <trkpt lat="46.14889" lon="6.76551">
        <ele>1385.7</ele>
        <time>2000-01-01T08:41:43.000Z</time>
      </trkpt>
      <trkpt lat="46.14891" lon="6.7655">
        <ele>1385.6</ele>
        <time>2000-01-01T08:41:53.000Z</time>
      </trkpt>
      <trkpt lat="46.14896" lon="6.76547">
        <ele>1385.5</ele>
        <time>2000-01-01T08:42:03.000Z</time>
      </trkpt>
      <trkpt lat="46.14915" lon="6.76533">
        <ele>1385</ele>
        <time>2000-01-01T08:42:13.000Z</time>
      </trkpt>
      <trkpt lat="46.14929" lon="6.76525">
        <ele>1387.3</ele>
        <time>2000-01-01T08:42:23.000Z</time>
      </trkpt>
      <trkpt lat="46.14937" lon="6.76525">
        <ele>1387</ele>
        <time>2000-01-01T08:42:33.000Z</time>
      </trkpt>
      <trkpt lat="46.14947" lon="6.76531">
        <ele>1388.9</ele>
        <time>2000-01-01T08:42:43.000Z</time>
      </trkpt>
      <trkpt lat="46.14949" lon="6.76532">
        <ele>1389</ele>
        <time>2000-01-01T08:42:53.000Z</time>
      </trkpt>
      <trkpt lat="46.14952" lon="6.76533">
        <ele>1389.2</ele>
        <time>2000-01-01T08:43:03.000Z</time>
      </trkpt>
      <trkpt lat="46.14956" lon="6.76534">
        <ele>1389</ele>
        <time>2000-01-01T08:43:13.000Z</time>
      </trkpt>
      <trkpt lat="46.14964" lon="6.76534">
        <ele>1390.3</ele>
        <time>2000-01-01T08:43:23.000Z</time>
      </trkpt>
      <trkpt lat="46.14977" lon="6.7653">
        <ele>1392</ele>
        <time>2000-01-01T08:43:33.000Z</time>
      </trkpt>
      <trkpt lat="46.14989" lon="6.76522">
        <ele>1394.1</ele>
        <time>2000-01-01T08:43:43.000Z</time>
      </trkpt>
      <trkpt lat="46.14996" lon="6.76518">
        <ele>1394</ele>
        <time>2000-01-01T08:43:53.000Z</time>
      </trkpt>
      <trkpt lat="46.15005" lon="6.76515">
        <ele>1396.6</ele>
        <time>2000-01-01T08:44:03.000Z</time>
      </trkpt>
      <trkpt lat="46.15017" lon="6.76513">
        <ele>1398</ele>
        <time>2000-01-01T08:44:13.000Z</time>
      </trkpt>
      <trkpt lat="46.15021" lon="6.76513">
        <ele>1398.6</ele>
        <time>2000-01-01T08:44:23.000Z</time>
      </trkpt>
      <trkpt lat="46.15026" lon="6.76512">
        <ele>1399.2</ele>
        <time>2000-01-01T08:44:33.000Z</time>
      </trkpt>
      <trkpt lat="46.15035" lon="6.76512">
        <ele>1399.7</ele>
        <time>2000-01-01T08:44:43.000Z</time>
      </trkpt>
      <trkpt lat="46.15044" lon="6.76511">
        <ele>1400</ele>
        <time>2000-01-01T08:44:53.000Z</time>
      </trkpt>
      <trkpt lat="46.15045" lon="6.76511">
        <ele>1399.9</ele>
        <time>2000-01-01T08:45:03.000Z</time>
      </trkpt>
      <trkpt lat="46.15051" lon="6.76513">
        <ele>1400.3</ele>
        <time>2000-01-01T08:45:13.000Z</time>
      </trkpt>
      <trkpt lat="46.15057" lon="6.7652">
        <ele>1400.9</ele>
        <time>2000-01-01T08:45:23.000Z</time>
      </trkpt>
      <trkpt lat="46.15061" lon="6.76526">
        <ele>1401</ele>
        <time>2000-01-01T08:45:33.000Z</time>
      </trkpt>
      <trkpt lat="46.15069" lon="6.76541">
        <ele>1402.7</ele>
        <time>2000-01-01T08:45:43.000Z</time>
      </trkpt>
      <trkpt lat="46.1508" lon="6.76556">
        <ele>1404</ele>
        <time>2000-01-01T08:45:53.000Z</time>
      </trkpt>
      <trkpt lat="46.15083" lon="6.76558">
        <ele>1405.6</ele>
        <time>2000-01-01T08:46:03.000Z</time>
      </trkpt>
      <trkpt lat="46.15086" lon="6.76559">
        <ele>1405.2</ele>
        <time>2000-01-01T08:46:13.000Z</time>
      </trkpt>
      <trkpt lat="46.15086" lon="6.76559">
        <ele>1405.2</ele>
        <time>2000-01-01T08:46:23.000Z</time>
      </trkpt>
      <trkpt lat="46.15088" lon="6.76559">
        <ele>1404.8</ele>
        <time>2000-01-01T08:46:33.000Z</time>
      </trkpt>
      <trkpt lat="46.15091" lon="6.76564">
        <ele>1405.4</ele>
        <time>2000-01-01T08:46:43.000Z</time>
      </trkpt>
      <trkpt lat="46.15094" lon="6.76573">
        <ele>1408</ele>
        <time>2000-01-01T08:46:53.000Z</time>
      </trkpt>
      <trkpt lat="46.15095" lon="6.76586">
        <ele>1410.8</ele>
        <time>2000-01-01T08:47:03.000Z</time>
      </trkpt>
      <trkpt lat="46.15094" lon="6.76618">
        <ele>1415</ele>
        <time>2000-01-01T08:47:13.000Z</time>
      </trkpt>
      <trkpt lat="46.15089" lon="6.76678">
        <ele>1423</ele>
        <time>2000-01-01T08:47:23.000Z</time>
      </trkpt>
      <trkpt lat="46.15085" lon="6.76713">
        <ele>1430</ele>
        <time>2000-01-01T08:47:33.000Z</time>
      </trkpt>
      <trkpt lat="46.15085" lon="6.76715">
        <ele>1433.3</ele>
        <time>2000-01-01T08:47:43.000Z</time>
      </trkpt>
      <trkpt lat="46.15084" lon="6.76732">
        <ele>1436</ele>
        <time>2000-01-01T08:47:53.000Z</time>
      </trkpt>
      <trkpt lat="46.15086" lon="6.76765">
        <ele>1439</ele>
        <time>2000-01-01T08:48:03.000Z</time>
      </trkpt>
      <trkpt lat="46.15086" lon="6.76775">
        <ele>1443.7</ele>
        <time>2000-01-01T08:48:13.000Z</time>
      </trkpt>
      <trkpt lat="46.15084" lon="6.76787">
        <ele>1444.6</ele>
        <time>2000-01-01T08:48:23.000Z</time>
      </trkpt>
      <trkpt lat="46.1508" lon="6.76793">
        <ele>1443</ele>
        <time>2000-01-01T08:48:33.000Z</time>
      </trkpt>
      <trkpt lat="46.15073" lon="6.76801">
        <ele>1443.7</ele>
        <time>2000-01-01T08:48:43.000Z</time>
      </trkpt>
      <trkpt lat="46.15067" lon="6.76812">
        <ele>1444.2</ele>
        <time>2000-01-01T08:48:53.000Z</time>
      </trkpt>
      <trkpt lat="46.15061" lon="6.76826">
        <ele>1443</ele>
        <time>2000-01-01T08:49:03.000Z</time>
      </trkpt>
      <trkpt lat="46.15052" lon="6.76848">
        <ele>1447.4</ele>
        <time>2000-01-01T08:49:13.000Z</time>
      </trkpt>
      <trkpt lat="46.15049" lon="6.76858">
        <ele>1444</ele>
        <time>2000-01-01T08:49:23.000Z</time>
      </trkpt>
      <trkpt lat="46.15045" lon="6.76885">
        <ele>1449</ele>
        <time>2000-01-01T08:49:33.000Z</time>
      </trkpt>
      <trkpt lat="46.15044" lon="6.76911">
        <ele>1454.3</ele>
        <time>2000-01-01T08:49:43.000Z</time>
      </trkpt>
      <trkpt lat="46.15044" lon="6.76928">
        <ele>1450</ele>
        <time>2000-01-01T08:49:53.000Z</time>
      </trkpt>
      <trkpt lat="46.15041" lon="6.76937">
        <ele>1455.9</ele>
        <time>2000-01-01T08:50:03.000Z</time>
      </trkpt>
      <trkpt lat="46.15039" lon="6.76947">
        <ele>1456.1</ele>
        <time>2000-01-01T08:50:13.000Z</time>
      </trkpt>
      <trkpt lat="46.15039" lon="6.76956">
        <ele>1451</ele>
        <time>2000-01-01T08:50:23.000Z</time>
      </trkpt>
      <trkpt lat="46.15044" lon="6.76981">
        <ele>1461.7</ele>
        <time>2000-01-01T08:50:33.000Z</time>
      </trkpt>
      <trkpt lat="46.15046" lon="6.77017">
        <ele>1463</ele>
        <time>2000-01-01T08:50:43.000Z</time>
      </trkpt>
      <trkpt lat="46.15048" lon="6.77046">
        <ele>1466</ele>
        <time>2000-01-01T08:50:53.000Z</time>
      </trkpt>
      <trkpt lat="46.1505" lon="6.77056">
        <ele>1472.5</ele>
        <time>2000-01-01T08:51:03.000Z</time>
      </trkpt>
      <trkpt lat="46.15058" lon="6.77087">
        <ele>1474</ele>
        <time>2000-01-01T08:51:13.000Z</time>
      </trkpt>
      <trkpt lat="46.15061" lon="6.77101">
        <ele>1480</ele>
        <time>2000-01-01T08:51:23.000Z</time>
      </trkpt>
      <trkpt lat="46.15061" lon="6.77102">
        <ele>1480</ele>
        <time>2000-01-01T08:51:33.000Z</time>
      </trkpt>
      <trkpt lat="46.15061" lon="6.77113">
        <ele>1480.7</ele>
        <time>2000-01-01T08:51:43.000Z</time>
      </trkpt>
      <trkpt lat="46.15063" lon="6.77122">
        <ele>1479</ele>
        <time>2000-01-01T08:51:53.000Z</time>
      </trkpt>
      <trkpt lat="46.15063" lon="6.7713">
        <ele>1482.1</ele>
        <time>2000-01-01T08:52:03.000Z</time>
      </trkpt>
      <trkpt lat="46.15062" lon="6.77143">
        <ele>1482.7</ele>
        <time>2000-01-01T08:52:13.000Z</time>
      </trkpt>
      <trkpt lat="46.1506" lon="6.77156">
        <ele>1481</ele>
        <time>2000-01-01T08:52:23.000Z</time>
      </trkpt>
      <trkpt lat="46.15064" lon="6.77167">
        <ele>1484.5</ele>
        <time>2000-01-01T08:52:33.000Z</time>
      </trkpt>
      <trkpt lat="46.15066" lon="6.77176">
        <ele>1485.3</ele>
        <time>2000-01-01T08:52:43.000Z</time>
      </trkpt>
      <trkpt lat="46.1507" lon="6.77183">
        <ele>1485</ele>
        <time>2000-01-01T08:52:53.000Z</time>
      </trkpt>
      <trkpt lat="46.15073" lon="6.77189">
        <ele>1486.7</ele>
        <time>2000-01-01T08:53:03.000Z</time>
      </trkpt>
      <trkpt lat="46.15074" lon="6.77195">
        <ele>1487</ele>
        <time>2000-01-01T08:53:13.000Z</time>
      </trkpt>
      <trkpt lat="46.15077" lon="6.77203">
        <ele>1487.7</ele>
        <time>2000-01-01T08:53:23.000Z</time>
      </trkpt>
      <trkpt lat="46.1508" lon="6.7721">
        <ele>1486</ele>
        <time>2000-01-01T08:53:33.000Z</time>
      </trkpt>
      <trkpt lat="46.15082" lon="6.77216">
        <ele>1488.7</ele>
        <time>2000-01-01T08:53:43.000Z</time>
      </trkpt>
      <trkpt lat="46.15084" lon="6.77225">
        <ele>1489.3</ele>
        <time>2000-01-01T08:53:53.000Z</time>
      </trkpt>
      <trkpt lat="46.15085" lon="6.7724">
        <ele>1488</ele>
        <time>2000-01-01T08:54:03.000Z</time>
      </trkpt>
      <trkpt lat="46.15086" lon="6.7725">
        <ele>1491.6</ele>
        <time>2000-01-01T08:54:13.000Z</time>
      </trkpt>
      <trkpt lat="46.15086" lon="6.77261">
        <ele>1493.1</ele>
        <time>2000-01-01T08:54:23.000Z</time>
      </trkpt>
      <trkpt lat="46.15083" lon="6.7727">
        <ele>1492</ele>
        <time>2000-01-01T08:54:33.000Z</time>
      </trkpt>
      <trkpt lat="46.15079" lon="6.77279">
        <ele>1495.1</ele>
        <time>2000-01-01T08:54:43.000Z</time>
      </trkpt>
      <trkpt lat="46.15076" lon="6.77286">
        <ele>1496.1</ele>
        <time>2000-01-01T08:54:53.000Z</time>
      </trkpt>
      <trkpt lat="46.15074" lon="6.77292">
        <ele>1497.1</ele>
        <time>2000-01-01T08:55:03.000Z</time>
      </trkpt>
      <trkpt lat="46.15071" lon="6.77299">
        <ele>1496</ele>
        <time>2000-01-01T08:55:13.000Z</time>
      </trkpt>
      <trkpt lat="46.15068" lon="6.77303">
        <ele>1498.5</ele>
        <time>2000-01-01T08:55:23.000Z</time>
      </trkpt>
      <trkpt lat="46.15067" lon="6.77316">
        <ele>1500.1</ele>
        <time>2000-01-01T08:55:33.000Z</time>
      </trkpt>
      <trkpt lat="46.15067" lon="6.77324">
        <ele>1501.1</ele>
        <time>2000-01-01T08:55:43.000Z</time>
      </trkpt>
      <trkpt lat="46.15069" lon="6.77338">
        <ele>1501</ele>
        <time>2000-01-01T08:55:53.000Z</time>
      </trkpt>
      <trkpt lat="46.15072" lon="6.77352">
        <ele>1504.1</ele>
        <time>2000-01-01T08:56:03.000Z</time>
      </trkpt>
      <trkpt lat="46.15077" lon="6.77366">
        <ele>1504</ele>
        <time>2000-01-01T08:56:13.000Z</time>
      </trkpt>
      <trkpt lat="46.15082" lon="6.77377">
        <ele>1507</ele>
        <time>2000-01-01T08:56:23.000Z</time>
      </trkpt>
      <trkpt lat="46.15085" lon="6.77387">
        <ele>1508.2</ele>
        <time>2000-01-01T08:56:33.000Z</time>
      </trkpt>
      <trkpt lat="46.15087" lon="6.77397">
        <ele>1507</ele>
        <time>2000-01-01T08:56:43.000Z</time>
      </trkpt>
      <trkpt lat="46.1509" lon="6.77409">
        <ele>1511.4</ele>
        <time>2000-01-01T08:56:53.000Z</time>
      </trkpt>
      <trkpt lat="46.1509" lon="6.77419">
        <ele>1512.5</ele>
        <time>2000-01-01T08:57:03.000Z</time>
      </trkpt>
      <trkpt lat="46.15089" lon="6.77429">
        <ele>1511</ele>
        <time>2000-01-01T08:57:13.000Z</time>
      </trkpt>
      <trkpt lat="46.15087" lon="6.77441">
        <ele>1515.2</ele>
        <time>2000-01-01T08:57:23.000Z</time>
      </trkpt>
      <trkpt lat="46.15084" lon="6.77449">
        <ele>1516.3</ele>
        <time>2000-01-01T08:57:33.000Z</time>
      </trkpt>
      <trkpt lat="46.15079" lon="6.77457">
        <ele>1514</ele>
        <time>2000-01-01T08:57:43.000Z</time>
      </trkpt>
      <trkpt lat="46.15078" lon="6.77458">
        <ele>1517.8</ele>
        <time>2000-01-01T08:57:53.000Z</time>
      </trkpt>
      <trkpt lat="46.15062" lon="6.77477">
        <ele>1517</ele>
        <time>2000-01-01T08:58:03.000Z</time>
      </trkpt>
      <trkpt lat="46.15057" lon="6.77482">
        <ele>1522</ele>
        <time>2000-01-01T08:58:13.000Z</time>
      </trkpt>
      <trkpt lat="46.15049" lon="6.77484">
        <ele>1522.9</ele>
        <time>2000-01-01T08:58:23.000Z</time>
      </trkpt>
      <trkpt lat="46.15028" lon="6.77485">
        <ele>1522</ele>
        <time>2000-01-01T08:58:33.000Z</time>
      </trkpt>
      <trkpt lat="46.15018" lon="6.77485">
        <ele>1525.2</ele>
        <time>2000-01-01T08:58:43.000Z</time>
      </trkpt>
      <trkpt lat="46.15" lon="6.77481">
        <ele>1525</ele>
        <time>2000-01-01T08:58:53.000Z</time>
      </trkpt>
      <trkpt lat="46.14988" lon="6.77478">
        <ele>1527.6</ele>
        <time>2000-01-01T08:59:03.000Z</time>
      </trkpt>
      <trkpt lat="46.14977" lon="6.77475">
        <ele>1529</ele>
        <time>2000-01-01T08:59:13.000Z</time>
      </trkpt>
      <trkpt lat="46.1497" lon="6.77469">
        <ele>1528.8</ele>
        <time>2000-01-01T08:59:23.000Z</time>
      </trkpt>
      <trkpt lat="46.14958" lon="6.77457">
        <ele>1529</ele>
        <time>2000-01-01T08:59:33.000Z</time>
      </trkpt>
      <trkpt lat="46.1495" lon="6.7745">
        <ele>1529.6</ele>
        <time>2000-01-01T08:59:43.000Z</time>
      </trkpt>
      <trkpt lat="46.14942" lon="6.77447">
        <ele>1530.7</ele>
        <time>2000-01-01T08:59:53.000Z</time>
      </trkpt>
      <trkpt lat="46.14933" lon="6.77445">
        <ele>1532</ele>
        <time>2000-01-01T09:00:03.000Z</time>
      </trkpt>
      <trkpt lat="46.14923" lon="6.7744">
        <ele>1532.9</ele>
        <time>2000-01-01T09:00:13.000Z</time>
      </trkpt>
      <trkpt lat="46.14916" lon="6.77431">
        <ele>1534</ele>
        <time>2000-01-01T09:00:23.000Z</time>
      </trkpt>
      <trkpt lat="46.14915" lon="6.77429">
        <ele>1533.7</ele>
        <time>2000-01-01T09:00:33.000Z</time>
      </trkpt>
      <trkpt lat="46.14914" lon="6.77428">
        <ele>1533.7</ele>
        <time>2000-01-01T09:00:43.000Z</time>
      </trkpt>
      <trkpt lat="46.14908" lon="6.77427">
        <ele>1534.4</ele>
        <time>2000-01-01T09:00:53.000Z</time>
      </trkpt>
      <trkpt lat="46.14901" lon="6.77428">
        <ele>1535.3</ele>
        <time>2000-01-01T09:01:03.000Z</time>
      </trkpt>
      <trkpt lat="46.14901" lon="6.7744">
        <ele>1535</ele>
        <time>2000-01-01T09:01:13.000Z</time>
      </trkpt>
      <trkpt lat="46.14899" lon="6.77448">
        <ele>1536.8</ele>
        <time>2000-01-01T09:01:23.000Z</time>
      </trkpt>
      <trkpt lat="46.14895" lon="6.7746">
        <ele>1538.4</ele>
        <time>2000-01-01T09:01:33.000Z</time>
      </trkpt>
      <trkpt lat="46.14894" lon="6.77465">
        <ele>1538</ele>
        <time>2000-01-01T09:01:43.000Z</time>
      </trkpt>
      <trkpt lat="46.14892" lon="6.77471">
        <ele>1539.6</ele>
        <time>2000-01-01T09:01:53.000Z</time>
      </trkpt>
      <trkpt lat="46.14891" lon="6.77478">
        <ele>1540.6</ele>
        <time>2000-01-01T09:02:03.000Z</time>
      </trkpt>
      <trkpt lat="46.14889" lon="6.7749">
        <ele>1542.6</ele>
        <time>2000-01-01T09:02:13.000Z</time>
      </trkpt>
      <trkpt lat="46.14887" lon="6.77499">
        <ele>1543</ele>
        <time>2000-01-01T09:02:23.000Z</time>
      </trkpt>
      <trkpt lat="46.14885" lon="6.77508">
        <ele>1545.6</ele>
        <time>2000-01-01T09:02:33.000Z</time>
      </trkpt>
      <trkpt lat="46.14886" lon="6.77518">
        <ele>1547.3</ele>
        <time>2000-01-01T09:02:43.000Z</time>
      </trkpt>
      <trkpt lat="46.14888" lon="6.77521">
        <ele>1547.8</ele>
        <time>2000-01-01T09:02:53.000Z</time>
      </trkpt>
      <trkpt lat="46.1489" lon="6.77522">
        <ele>1547.9</ele>
        <time>2000-01-01T09:03:03.000Z</time>
      </trkpt>
      <trkpt lat="46.14897" lon="6.7753">
        <ele>1549</ele>
        <time>2000-01-01T09:03:13.000Z</time>
      </trkpt>
      <trkpt lat="46.14899" lon="6.77532">
        <ele>1550.3</ele>
        <time>2000-01-01T09:03:23.000Z</time>
      </trkpt>
      <trkpt lat="46.14904" lon="6.77534">
        <ele>1550.9</ele>
        <time>2000-01-01T09:03:33.000Z</time>
      </trkpt>
      <trkpt lat="46.14905" lon="6.77536">
        <ele>1551.5</ele>
        <time>2000-01-01T09:03:43.000Z</time>
      </trkpt>
      <trkpt lat="46.1491" lon="6.77541">
        <ele>1553.2</ele>
        <time>2000-01-01T09:03:53.000Z</time>
      </trkpt>
      <trkpt lat="46.14912" lon="6.77543">
        <ele>1553.8</ele>
        <time>2000-01-01T09:04:03.000Z</time>
      </trkpt>
      <trkpt lat="46.14918" lon="6.77548">
        <ele>1552</ele>
        <time>2000-01-01T09:04:13.000Z</time>
      </trkpt>
      <trkpt lat="46.1492" lon="6.7755">
        <ele>1556.2</ele>
        <time>2000-01-01T09:04:23.000Z</time>
      </trkpt>
      <trkpt lat="46.14922" lon="6.77555">
        <ele>1557.8</ele>
        <time>2000-01-01T09:04:33.000Z</time>
      </trkpt>
      <trkpt lat="46.14926" lon="6.77557">
        <ele>1558.5</ele>
        <time>2000-01-01T09:04:43.000Z</time>
      </trkpt>
      <trkpt lat="46.14931" lon="6.77558">
        <ele>1558.8</ele>
        <time>2000-01-01T09:04:53.000Z</time>
      </trkpt>
      <trkpt lat="46.14933" lon="6.7756">
        <ele>1559.5</ele>
        <time>2000-01-01T09:05:03.000Z</time>
      </trkpt>
      <trkpt lat="46.14937" lon="6.77564">
        <ele>1558</ele>
        <time>2000-01-01T09:05:13.000Z</time>
      </trkpt>
      <trkpt lat="46.14941" lon="6.77569">
        <ele>1562.4</ele>
        <time>2000-01-01T09:05:23.000Z</time>
      </trkpt>
      <trkpt lat="46.14948" lon="6.77573">
        <ele>1563.8</ele>
        <time>2000-01-01T09:05:33.000Z</time>
      </trkpt>
      <trkpt lat="46.14955" lon="6.77575">
        <ele>1563</ele>
        <time>2000-01-01T09:05:43.000Z</time>
      </trkpt>
      <trkpt lat="46.1496" lon="6.77575">
        <ele>1564.9</ele>
        <time>2000-01-01T09:05:53.000Z</time>
      </trkpt>
      <trkpt lat="46.14965" lon="6.77578">
        <ele>1566.3</ele>
        <time>2000-01-01T09:06:03.000Z</time>
      </trkpt>
      <trkpt lat="46.14967" lon="6.77578">
        <ele>1566.4</ele>
        <time>2000-01-01T09:06:13.000Z</time>
      </trkpt>
      <trkpt lat="46.14969" lon="6.77577">
        <ele>1566.1</ele>
        <time>2000-01-01T09:06:23.000Z</time>
      </trkpt>
      <trkpt lat="46.14971" lon="6.77577">
        <ele>1566.2</ele>
        <time>2000-01-01T09:06:33.000Z</time>
      </trkpt>
      <trkpt lat="46.14975" lon="6.77581">
        <ele>1568</ele>
        <time>2000-01-01T09:06:43.000Z</time>
      </trkpt>
      <trkpt lat="46.1498" lon="6.77584">
        <ele>1568.6</ele>
        <time>2000-01-01T09:06:53.000Z</time>
      </trkpt>
      <trkpt lat="46.14984" lon="6.7759">
        <ele>1569.4</ele>
        <time>2000-01-01T09:07:03.000Z</time>
      </trkpt>
      <trkpt lat="46.14989" lon="6.77596">
        <ele>1570.1</ele>
        <time>2000-01-01T09:07:13.000Z</time>
      </trkpt>
      <trkpt lat="46.14991" lon="6.77598">
        <ele>1570</ele>
        <time>2000-01-01T09:07:23.000Z</time>
      </trkpt>
      <trkpt lat="46.14991" lon="6.77602">
        <ele>1571</ele>
        <time>2000-01-01T09:07:33.000Z</time>
      </trkpt>
      <trkpt lat="46.14992" lon="6.7761">
        <ele>1572.4</ele>
        <time>2000-01-01T09:07:43.000Z</time>
      </trkpt>
      <trkpt lat="46.14993" lon="6.77621">
        <ele>1573.6</ele>
        <time>2000-01-01T09:07:53.000Z</time>
      </trkpt>
      <trkpt lat="46.14996" lon="6.77627">
        <ele>1574</ele>
        <time>2000-01-01T09:08:03.000Z</time>
      </trkpt>
      <trkpt lat="46.14996" lon="6.77629">
        <ele>1574.2</ele>
        <time>2000-01-01T09:08:13.000Z</time>
      </trkpt>
      <trkpt lat="46.14996" lon="6.77634">
        <ele>1574.8</ele>
        <time>2000-01-01T09:08:23.000Z</time>
      </trkpt>
      <trkpt lat="46.14996" lon="6.77637">
        <ele>1575.1</ele>
        <time>2000-01-01T09:08:33.000Z</time>
      </trkpt>
      <trkpt lat="46.14999" lon="6.77639">
        <ele>1575.1</ele>
        <time>2000-01-01T09:08:43.000Z</time>
      </trkpt>
      <trkpt lat="46.15005" lon="6.77641">
        <ele>1574.3</ele>
        <time>2000-01-01T09:08:53.000Z</time>
      </trkpt>
      <trkpt lat="46.15006" lon="6.77642">
        <ele>1574.3</ele>
        <time>2000-01-01T09:09:03.000Z</time>
      </trkpt>
      <trkpt lat="46.15007" lon="6.77645">
        <ele>1575</ele>
        <time>2000-01-01T09:09:13.000Z</time>
      </trkpt>
      <trkpt lat="46.15009" lon="6.77647">
        <ele>1574.3</ele>
        <time>2000-01-01T09:09:23.000Z</time>
      </trkpt>
      <trkpt lat="46.15012" lon="6.7765">
        <ele>1574</ele>
        <time>2000-01-01T09:09:33.000Z</time>
      </trkpt>
      <trkpt lat="46.15015" lon="6.77658">
        <ele>1574.4</ele>
        <time>2000-01-01T09:09:43.000Z</time>
      </trkpt>
      <trkpt lat="46.15018" lon="6.77668">
        <ele>1575</ele>
        <time>2000-01-01T09:09:53.000Z</time>
      </trkpt>
      <trkpt lat="46.15019" lon="6.77676">
        <ele>1574.9</ele>
        <time>2000-01-01T09:10:03.000Z</time>
      </trkpt>
      <trkpt lat="46.15018" lon="6.77687">
        <ele>1575.5</ele>
        <time>2000-01-01T09:10:13.000Z</time>
      </trkpt>
      <trkpt lat="46.15018" lon="6.77696">
        <ele>1576</ele>
        <time>2000-01-01T09:10:23.000Z</time>
      </trkpt>
      <trkpt lat="46.15017" lon="6.77702">
        <ele>1576.8</ele>
        <time>2000-01-01T09:10:33.000Z</time>
      </trkpt>
      <trkpt lat="46.15015" lon="6.7771">
        <ele>1578</ele>
        <time>2000-01-01T09:10:43.000Z</time>
      </trkpt>
      <trkpt lat="46.15014" lon="6.77719">
        <ele>1579.1</ele>
        <time>2000-01-01T09:10:53.000Z</time>
      </trkpt>
      <trkpt lat="46.15013" lon="6.77723">
        <ele>1579</ele>
        <time>2000-01-01T09:11:03.000Z</time>
      </trkpt>
      <trkpt lat="46.15014" lon="6.77735">
        <ele>1581.1</ele>
        <time>2000-01-01T09:11:13.000Z</time>
      </trkpt>
      <trkpt lat="46.15014" lon="6.7774">
        <ele>1581.7</ele>
        <time>2000-01-01T09:11:23.000Z</time>
      </trkpt>
      <trkpt lat="46.15013" lon="6.77748">
        <ele>1582.8</ele>
        <time>2000-01-01T09:11:33.000Z</time>
      </trkpt>
      <trkpt lat="46.15012" lon="6.77757">
        <ele>1582</ele>
        <time>2000-01-01T09:11:43.000Z</time>
      </trkpt>
      <trkpt lat="46.15015" lon="6.77763">
        <ele>1584.8</ele>
        <time>2000-01-01T09:11:53.000Z</time>
      </trkpt>
      <trkpt lat="46.15017" lon="6.77767">
        <ele>1585.2</ele>
        <time>2000-01-01T09:12:03.000Z</time>
      </trkpt>
      <trkpt lat="46.15017" lon="6.77774">
        <ele>1586.2</ele>
        <time>2000-01-01T09:12:13.000Z</time>
      </trkpt>
      <trkpt lat="46.15019" lon="6.77783">
        <ele>1587</ele>
        <time>2000-01-01T09:12:23.000Z</time>
      </trkpt>
      <trkpt lat="46.1502" lon="6.7779">
        <ele>1588.8</ele>
        <time>2000-01-01T09:12:33.000Z</time>
      </trkpt>
      <trkpt lat="46.1502" lon="6.77797">
        <ele>1590</ele>
        <time>2000-01-01T09:12:43.000Z</time>
      </trkpt>
      <trkpt lat="46.1502" lon="6.77804">
        <ele>1591.3</ele>
        <time>2000-01-01T09:12:53.000Z</time>
      </trkpt>
      <trkpt lat="46.15019" lon="6.77815">
        <ele>1593</ele>
        <time>2000-01-01T09:13:03.000Z</time>
      </trkpt>
      <trkpt lat="46.1502" lon="6.77818">
        <ele>1594.5</ele>
        <time>2000-01-01T09:13:13.000Z</time>
      </trkpt>
      <trkpt lat="46.15023" lon="6.77822">
        <ele>1595.1</ele>
        <time>2000-01-01T09:13:23.000Z</time>
      </trkpt>
      <trkpt lat="46.15023" lon="6.77825">
        <ele>1595.8</ele>
        <time>2000-01-01T09:13:33.000Z</time>
      </trkpt>
      <trkpt lat="46.15024" lon="6.77828">
        <ele>1596.3</ele>
        <time>2000-01-01T09:13:43.000Z</time>
      </trkpt>
      <trkpt lat="46.15025" lon="6.7783">
        <ele>1596.7</ele>
        <time>2000-01-01T09:13:53.000Z</time>
      </trkpt>
      <trkpt lat="46.15027" lon="6.77835">
        <ele>1597.5</ele>
        <time>2000-01-01T09:14:03.000Z</time>
      </trkpt>
      <trkpt lat="46.15029" lon="6.77841">
        <ele>1600</ele>
        <time>2000-01-01T09:14:13.000Z</time>
      </trkpt>
      <trkpt lat="46.1503" lon="6.77845">
        <ele>1599.9</ele>
        <time>2000-01-01T09:14:23.000Z</time>
      </trkpt>
      <trkpt lat="46.1503" lon="6.77848">
        <ele>1600.7</ele>
        <time>2000-01-01T09:14:33.000Z</time>
      </trkpt>
      <trkpt lat="46.15031" lon="6.77851">
        <ele>1601.4</ele>
        <time>2000-01-01T09:14:43.000Z</time>
      </trkpt>
      <trkpt lat="46.15031" lon="6.77855">
        <ele>1602.4</ele>
        <time>2000-01-01T09:14:53.000Z</time>
      </trkpt>
      <trkpt lat="46.1503" lon="6.77858">
        <ele>1603.1</ele>
        <time>2000-01-01T09:15:03.000Z</time>
      </trkpt>
      <trkpt lat="46.1503" lon="6.77864">
        <ele>1604.6</ele>
        <time>2000-01-01T09:15:13.000Z</time>
      </trkpt>
      <trkpt lat="46.15035" lon="6.77877">
        <ele>1606</ele>
        <time>2000-01-01T09:15:23.000Z</time>
      </trkpt>
      <trkpt lat="46.15035" lon="6.77879">
        <ele>1607.9</ele>
        <time>2000-01-01T09:15:33.000Z</time>
      </trkpt>
      <trkpt lat="46.15035" lon="6.77883">
        <ele>1608.8</ele>
        <time>2000-01-01T09:15:43.000Z</time>
      </trkpt>
      <trkpt lat="46.15034" lon="6.77892">
        <ele>1610.8</ele>
        <time>2000-01-01T09:15:53.000Z</time>
      </trkpt>
      <trkpt lat="46.15033" lon="6.77897">
        <ele>1611.5</ele>
        <time>2000-01-01T09:16:03.000Z</time>
      </trkpt>
      <trkpt lat="46.15033" lon="6.77903">
        <ele>1612.4</ele>
        <time>2000-01-01T09:16:13.000Z</time>
      </trkpt>
      <trkpt lat="46.15032" lon="6.77906">
        <ele>1612</ele>
        <time>2000-01-01T09:16:23.000Z</time>
      </trkpt>
      <trkpt lat="46.15031" lon="6.77913">
        <ele>1614</ele>
        <time>2000-01-01T09:16:33.000Z</time>
      </trkpt>
      <trkpt lat="46.15031" lon="6.77916">
        <ele>1614.4</ele>
        <time>2000-01-01T09:16:43.000Z</time>
      </trkpt>
      <trkpt lat="46.15031" lon="6.77918">
        <ele>1614.8</ele>
        <time>2000-01-01T09:16:53.000Z</time>
      </trkpt>
      <trkpt lat="46.1503" lon="6.77921">
        <ele>1615.5</ele>
        <time>2000-01-01T09:17:03.000Z</time>
      </trkpt>
      <trkpt lat="46.15029" lon="6.77926">
        <ele>1616.5</ele>
        <time>2000-01-01T09:17:13.000Z</time>
      </trkpt>
      <trkpt lat="46.15028" lon="6.77928">
        <ele>1617</ele>
        <time>2000-01-01T09:17:23.000Z</time>
      </trkpt>
      <trkpt lat="46.15029" lon="6.77938">
        <ele>1619</ele>
        <time>2000-01-01T09:17:33.000Z</time>
      </trkpt>
      <trkpt lat="46.15029" lon="6.77942">
        <ele>1619.4</ele>
        <time>2000-01-01T09:17:43.000Z</time>
      </trkpt>
      <trkpt lat="46.15028" lon="6.77947">
        <ele>1620.4</ele>
        <time>2000-01-01T09:17:53.000Z</time>
      </trkpt>
      <trkpt lat="46.15029" lon="6.77952">
        <ele>1621.2</ele>
        <time>2000-01-01T09:18:03.000Z</time>
      </trkpt>
      <trkpt lat="46.15032" lon="6.77957">
        <ele>1621.6</ele>
        <time>2000-01-01T09:18:13.000Z</time>
      </trkpt>
      <trkpt lat="46.15034" lon="6.77962">
        <ele>1622.1</ele>
        <time>2000-01-01T09:18:23.000Z</time>
      </trkpt>
      <trkpt lat="46.15036" lon="6.77967">
        <ele>1623</ele>
        <time>2000-01-01T09:18:33.000Z</time>
      </trkpt>
      <trkpt lat="46.15037" lon="6.77971">
        <ele>1623.1</ele>
        <time>2000-01-01T09:18:43.000Z</time>
      </trkpt>
      <trkpt lat="46.15037" lon="6.77975">
        <ele>1623.6</ele>
        <time>2000-01-01T09:18:53.000Z</time>
      </trkpt>
      <trkpt lat="46.15037" lon="6.77978">
        <ele>1623.8</ele>
        <time>2000-01-01T09:19:03.000Z</time>
      </trkpt>
      <trkpt lat="46.15036" lon="6.7798">
        <ele>1624.2</ele>
        <time>2000-01-01T09:19:13.000Z</time>
      </trkpt>
      <trkpt lat="46.15037" lon="6.77986">
        <ele>1624.5</ele>
        <time>2000-01-01T09:19:23.000Z</time>
      </trkpt>
      <trkpt lat="46.15037" lon="6.77988">
        <ele>1624.7</ele>
        <time>2000-01-01T09:19:33.000Z</time>
      </trkpt>
      <trkpt lat="46.15036" lon="6.77999">
        <ele>1627</ele>
        <time>2000-01-01T09:19:43.000Z</time>
      </trkpt>
      <trkpt lat="46.15035" lon="6.78004">
        <ele>1626.3</ele>
        <time>2000-01-01T09:19:53.000Z</time>
      </trkpt>
      <trkpt lat="46.15035" lon="6.78018">
        <ele>1627.6</ele>
        <time>2000-01-01T09:20:03.000Z</time>
      </trkpt>
      <trkpt lat="46.15038" lon="6.7803">
        <ele>1628</ele>
        <time>2000-01-01T09:20:13.000Z</time>
      </trkpt>
      <trkpt lat="46.15039" lon="6.78035">
        <ele>1629.3</ele>
        <time>2000-01-01T09:20:23.000Z</time>
      </trkpt>
      <trkpt lat="46.15038" lon="6.78048">
        <ele>1631.4</ele>
        <time>2000-01-01T09:20:33.000Z</time>
      </trkpt>
      <trkpt lat="46.15038" lon="6.78056">
        <ele>1632</ele>
        <time>2000-01-01T09:20:43.000Z</time>
      </trkpt>
      <trkpt lat="46.15037" lon="6.78061">
        <ele>1634.4</ele>
        <time>2000-01-01T09:20:53.000Z</time>
      </trkpt>
      <trkpt lat="46.15037" lon="6.78066">
        <ele>1636.1</ele>
        <time>2000-01-01T09:21:03.000Z</time>
      </trkpt>
      <trkpt lat="46.15042" lon="6.78074">
        <ele>1638.5</ele>
        <time>2000-01-01T09:21:13.000Z</time>
      </trkpt>
      <trkpt lat="46.15042" lon="6.78079">
        <ele>1640.1</ele>
        <time>2000-01-01T09:21:23.000Z</time>
      </trkpt>
      <trkpt lat="46.15042" lon="6.78083">
        <ele>1640</ele>
        <time>2000-01-01T09:21:33.000Z</time>
      </trkpt>
      <trkpt lat="46.1504" lon="6.78088">
        <ele>1642.7</ele>
        <time>2000-01-01T09:21:43.000Z</time>
      </trkpt>
      <trkpt lat="46.15037" lon="6.78091">
        <ele>1643.4</ele>
        <time>2000-01-01T09:21:53.000Z</time>
      </trkpt>
      <trkpt lat="46.15036" lon="6.78094">
        <ele>1644.1</ele>
        <time>2000-01-01T09:22:03.000Z</time>
      </trkpt>
      <trkpt lat="46.15037" lon="6.78098">
        <ele>1645</ele>
        <time>2000-01-01T09:22:13.000Z</time>
      </trkpt>
      <trkpt lat="46.1504" lon="6.78101">
        <ele>1645.9</ele>
        <time>2000-01-01T09:22:23.000Z</time>
      </trkpt>
      <trkpt lat="46.1504" lon="6.78105">
        <ele>1646.8</ele>
        <time>2000-01-01T09:22:33.000Z</time>
      </trkpt>
      <trkpt lat="46.15041" lon="6.78107">
        <ele>1645</ele>
        <time>2000-01-01T09:22:43.000Z</time>
      </trkpt>
      <trkpt lat="46.15045" lon="6.78112">
        <ele>1649.2</ele>
        <time>2000-01-01T09:22:53.000Z</time>
      </trkpt>
      <trkpt lat="46.15046" lon="6.78115">
        <ele>1650.6</ele>
        <time>2000-01-01T09:23:03.000Z</time>
      </trkpt>
      <trkpt lat="46.15055" lon="6.78118">
        <ele>1653.1</ele>
        <time>2000-01-01T09:23:13.000Z</time>
      </trkpt>
      <trkpt lat="46.15059" lon="6.78119">
        <ele>1648</ele>
        <time>2000-01-01T09:23:23.000Z</time>
      </trkpt>
      <trkpt lat="46.15063" lon="6.78122">
        <ele>1656.7</ele>
        <time>2000-01-01T09:23:33.000Z</time>
      </trkpt>
      <trkpt lat="46.15066" lon="6.78122">
        <ele>1657.3</ele>
        <time>2000-01-01T09:23:43.000Z</time>
      </trkpt>
      <trkpt lat="46.15073" lon="6.78124">
        <ele>1659.6</ele>
        <time>2000-01-01T09:23:53.000Z</time>
      </trkpt>
      <trkpt lat="46.15078" lon="6.78123">
        <ele>1657</ele>
        <time>2000-01-01T09:24:03.000Z</time>
      </trkpt>
      <trkpt lat="46.15086" lon="6.78126">
        <ele>1662.7</ele>
        <time>2000-01-01T09:24:13.000Z</time>
      </trkpt>
      <trkpt lat="46.15091" lon="6.78129">
        <ele>1664.4</ele>
        <time>2000-01-01T09:24:23.000Z</time>
      </trkpt>
      <trkpt lat="46.15095" lon="6.7813">
        <ele>1665.3</ele>
        <time>2000-01-01T09:24:33.000Z</time>
      </trkpt>
      <trkpt lat="46.15098" lon="6.78133">
        <ele>1664</ele>
        <time>2000-01-01T09:24:43.000Z</time>
      </trkpt>
      <trkpt lat="46.15102" lon="6.78138">
        <ele>1669.3</ele>
        <time>2000-01-01T09:24:53.000Z</time>
      </trkpt>
      <trkpt lat="46.15103" lon="6.78141">
        <ele>1670.6</ele>
        <time>2000-01-01T09:25:03.000Z</time>
      </trkpt>
      <trkpt lat="46.15105" lon="6.78144">
        <ele>1672</ele>
        <time>2000-01-01T09:25:13.000Z</time>
      </trkpt>
      <trkpt lat="46.15105" lon="6.78147">
        <ele>1673.1</ele>
        <time>2000-01-01T09:25:23.000Z</time>
      </trkpt>
      <trkpt lat="46.15104" lon="6.7815">
        <ele>1674.1</ele>
        <time>2000-01-01T09:25:33.000Z</time>
      </trkpt>
      <trkpt lat="46.15102" lon="6.78152">
        <ele>1674.6</ele>
        <time>2000-01-01T09:25:43.000Z</time>
      </trkpt>
      <trkpt lat="46.15101" lon="6.78153">
        <ele>1674.8</ele>
        <time>2000-01-01T09:25:53.000Z</time>
      </trkpt>
      <trkpt lat="46.15103" lon="6.78155">
        <ele>1673</ele>
        <time>2000-01-01T09:26:03.000Z</time>
      </trkpt>
      <trkpt lat="46.15102" lon="6.78157">
        <ele>1676.4</ele>
        <time>2000-01-01T09:26:13.000Z</time>
      </trkpt>
      <trkpt lat="46.15101" lon="6.78159">
        <ele>1677</ele>
        <time>2000-01-01T09:26:23.000Z</time>
      </trkpt>
      <trkpt lat="46.15101" lon="6.78163">
        <ele>1678.5</ele>
        <time>2000-01-01T09:26:33.000Z</time>
      </trkpt>
      <trkpt lat="46.151" lon="6.78165">
        <ele>1679.2</ele>
        <time>2000-01-01T09:26:43.000Z</time>
      </trkpt>
      <trkpt lat="46.15099" lon="6.78167">
        <ele>1679.8</ele>
        <time>2000-01-01T09:26:53.000Z</time>
      </trkpt>
      <trkpt lat="46.15098" lon="6.78169">
        <ele>1680.3</ele>
        <time>2000-01-01T09:27:03.000Z</time>
      </trkpt>
      <trkpt lat="46.151" lon="6.78174">
        <ele>1682</ele>
        <time>2000-01-01T09:27:13.000Z</time>
      </trkpt>
      <trkpt lat="46.15097" lon="6.7818">
        <ele>1679</ele>
        <time>2000-01-01T09:27:23.000Z</time>
      </trkpt>
      <trkpt lat="46.15095" lon="6.78184">
        <ele>1684.6</ele>
        <time>2000-01-01T09:27:33.000Z</time>
      </trkpt>
      <trkpt lat="46.15094" lon="6.78189">
        <ele>1686.1</ele>
        <time>2000-01-01T09:27:43.000Z</time>
      </trkpt>
      <trkpt lat="46.15092" lon="6.78191">
        <ele>1686.5</ele>
        <time>2000-01-01T09:27:53.000Z</time>
      </trkpt>
      <trkpt lat="46.15092" lon="6.78193">
        <ele>1687.2</ele>
        <time>2000-01-01T09:28:03.000Z</time>
      </trkpt>
      <trkpt lat="46.15091" lon="6.78197">
        <ele>1688.2</ele>
        <time>2000-01-01T09:28:13.000Z</time>
      </trkpt>
      <trkpt lat="46.1509" lon="6.78199">
        <ele>1688.7</ele>
        <time>2000-01-01T09:28:23.000Z</time>
      </trkpt>
      <trkpt lat="46.15089" lon="6.78199">
        <ele>1688.6</ele>
        <time>2000-01-01T09:28:33.000Z</time>
      </trkpt>
      <trkpt lat="46.15087" lon="6.78203">
        <ele>1689</ele>
        <time>2000-01-01T09:28:43.000Z</time>
      </trkpt>
      <trkpt lat="46.15088" lon="6.78208">
        <ele>1690.8</ele>
        <time>2000-01-01T09:28:53.000Z</time>
      </trkpt>
      <trkpt lat="46.1509" lon="6.78214">
        <ele>1692.6</ele>
        <time>2000-01-01T09:29:03.000Z</time>
      </trkpt>
      <trkpt lat="46.1509" lon="6.78217">
        <ele>1693.4</ele>
        <time>2000-01-01T09:29:13.000Z</time>
      </trkpt>
      <trkpt lat="46.15093" lon="6.78227">
        <ele>1696.1</ele>
        <time>2000-01-01T09:29:23.000Z</time>
      </trkpt>
      <trkpt lat="46.15094" lon="6.78237">
        <ele>1696</ele>
        <time>2000-01-01T09:29:33.000Z</time>
      </trkpt>
      <trkpt lat="46.15094" lon="6.78239">
        <ele>1699</ele>
        <time>2000-01-01T09:29:43.000Z</time>
      </trkpt>
      <trkpt lat="46.15092" lon="6.78244">
        <ele>1699.9</ele>
        <time>2000-01-01T09:29:53.000Z</time>
      </trkpt>
      <trkpt lat="46.15092" lon="6.7825">
        <ele>1701.2</ele>
        <time>2000-01-01T09:30:03.000Z</time>
      </trkpt>
      <trkpt lat="46.15094" lon="6.78254">
        <ele>1702.3</ele>
        <time>2000-01-01T09:30:13.000Z</time>
      </trkpt>
      <trkpt lat="46.15092" lon="6.78262">
        <ele>1702</ele>
        <time>2000-01-01T09:30:23.000Z</time>
      </trkpt>
      <trkpt lat="46.15091" lon="6.78266">
        <ele>1704.1</ele>
        <time>2000-01-01T09:30:33.000Z</time>
      </trkpt>
      <trkpt lat="46.15089" lon="6.78271">
        <ele>1704.8</ele>
        <time>2000-01-01T09:30:43.000Z</time>
      </trkpt>
      <trkpt lat="46.15088" lon="6.78275">
        <ele>1705.3</ele>
        <time>2000-01-01T09:30:53.000Z</time>
      </trkpt>
      <trkpt lat="46.15089" lon="6.78279">
        <ele>1706.3</ele>
        <time>2000-01-01T09:31:03.000Z</time>
      </trkpt>
      <trkpt lat="46.15092" lon="6.78281">
        <ele>1707.3</ele>
        <time>2000-01-01T09:31:13.000Z</time>
      </trkpt>
      <trkpt lat="46.15093" lon="6.78282">
        <ele>1707.8</ele>
        <time>2000-01-01T09:31:23.000Z</time>
      </trkpt>
      <trkpt lat="46.15093" lon="6.78286">
        <ele>1705</ele>
        <time>2000-01-01T09:31:33.000Z</time>
      </trkpt>
      <trkpt lat="46.15094" lon="6.78291">
        <ele>1710.1</ele>
        <time>2000-01-01T09:31:43.000Z</time>
      </trkpt>
      <trkpt lat="46.15096" lon="6.78296">
        <ele>1711.6</ele>
        <time>2000-01-01T09:31:53.000Z</time>
      </trkpt>
      <trkpt lat="46.15098" lon="6.78301">
        <ele>1713.1</ele>
        <time>2000-01-01T09:32:03.000Z</time>
      </trkpt>
      <trkpt lat="46.15099" lon="6.78303">
        <ele>1713.7</ele>
        <time>2000-01-01T09:32:13.000Z</time>
      </trkpt>
      <trkpt lat="46.15099" lon="6.78306">
        <ele>1714.4</ele>
        <time>2000-01-01T09:32:23.000Z</time>
      </trkpt>
      <trkpt lat="46.15098" lon="6.78308">
        <ele>1714.6</ele>
        <time>2000-01-01T09:32:33.000Z</time>
      </trkpt>
      <trkpt lat="46.15096" lon="6.78312">
        <ele>1713</ele>
        <time>2000-01-01T09:32:43.000Z</time>
      </trkpt>
      <trkpt lat="46.15096" lon="6.78315">
        <ele>1715.8</ele>
        <time>2000-01-01T09:32:53.000Z</time>
      </trkpt>
      <trkpt lat="46.15096" lon="6.7833">
        <ele>1719</ele>
        <time>2000-01-01T09:33:03.000Z</time>
      </trkpt>
      <trkpt lat="46.15097" lon="6.78333">
        <ele>1719.9</ele>
        <time>2000-01-01T09:33:13.000Z</time>
      </trkpt>
      <trkpt lat="46.15098" lon="6.78336">
        <ele>1720.7</ele>
        <time>2000-01-01T09:33:23.000Z</time>
      </trkpt>
      <trkpt lat="46.15098" lon="6.78343">
        <ele>1719</ele>
        <time>2000-01-01T09:33:33.000Z</time>
      </trkpt>
      <trkpt lat="46.15098" lon="6.7835">
        <ele>1723.5</ele>
        <time>2000-01-01T09:33:43.000Z</time>
      </trkpt>
      <trkpt lat="46.15097" lon="6.78357">
        <ele>1724.6</ele>
        <time>2000-01-01T09:33:53.000Z</time>
      </trkpt>
      <trkpt lat="46.15097" lon="6.78364">
        <ele>1726</ele>
        <time>2000-01-01T09:34:03.000Z</time>
      </trkpt>
      <trkpt lat="46.151" lon="6.78369">
        <ele>1722</ele>
        <time>2000-01-01T09:34:13.000Z</time>
      </trkpt>
      <trkpt lat="46.151" lon="6.78371">
        <ele>1728.2</ele>
        <time>2000-01-01T09:34:23.000Z</time>
      </trkpt>
      <trkpt lat="46.15099" lon="6.78375">
        <ele>1728.7</ele>
        <time>2000-01-01T09:34:33.000Z</time>
      </trkpt>
      <trkpt lat="46.15098" lon="6.78378">
        <ele>1729.1</ele>
        <time>2000-01-01T09:34:43.000Z</time>
      </trkpt>
      <trkpt lat="46.15098" lon="6.78385">
        <ele>1730.5</ele>
        <time>2000-01-01T09:34:53.000Z</time>
      </trkpt>
      <trkpt lat="46.15098" lon="6.78389">
        <ele>1731.2</ele>
        <time>2000-01-01T09:35:03.000Z</time>
      </trkpt>
      <trkpt lat="46.15102" lon="6.78396">
        <ele>1733</ele>
        <time>2000-01-01T09:35:13.000Z</time>
      </trkpt>
      <trkpt lat="46.15103" lon="6.78402">
        <ele>1735.6</ele>
        <time>2000-01-01T09:35:23.000Z</time>
      </trkpt>
      <trkpt lat="46.15105" lon="6.78406">
        <ele>1737.1</ele>
        <time>2000-01-01T09:35:33.000Z</time>
      </trkpt>
      <trkpt lat="46.15108" lon="6.78409">
        <ele>1738.5</ele>
        <time>2000-01-01T09:35:43.000Z</time>
      </trkpt>
      <trkpt lat="46.1511" lon="6.78416">
        <ele>1740.6</ele>
        <time>2000-01-01T09:35:53.000Z</time>
      </trkpt>
      <trkpt lat="46.15113" lon="6.78424">
        <ele>1741</ele>
        <time>2000-01-01T09:36:03.000Z</time>
      </trkpt>
      <trkpt lat="46.15117" lon="6.78429">
        <ele>1743.9</ele>
        <time>2000-01-01T09:36:13.000Z</time>
      </trkpt>
      <trkpt lat="46.15117" lon="6.78438">
        <ele>1745.3</ele>
        <time>2000-01-01T09:36:23.000Z</time>
      </trkpt>
      <trkpt lat="46.15116" lon="6.78448">
        <ele>1746.8</ele>
        <time>2000-01-01T09:36:33.000Z</time>
      </trkpt>
      <trkpt lat="46.15115" lon="6.78453">
        <ele>1746</ele>
        <time>2000-01-01T09:36:43.000Z</time>
      </trkpt>
      <trkpt lat="46.15115" lon="6.78459">
        <ele>1749</ele>
        <time>2000-01-01T09:36:53.000Z</time>
      </trkpt>
      <trkpt lat="46.15115" lon="6.78464">
        <ele>1750.1</ele>
        <time>2000-01-01T09:37:03.000Z</time>
      </trkpt>
      <trkpt lat="46.15113" lon="6.7847">
        <ele>1750.9</ele>
        <time>2000-01-01T09:37:13.000Z</time>
      </trkpt>
      <trkpt lat="46.15112" lon="6.78475">
        <ele>1751.7</ele>
        <time>2000-01-01T09:37:23.000Z</time>
      </trkpt>
      <trkpt lat="46.1511" lon="6.7848">
        <ele>1750</ele>
        <time>2000-01-01T09:37:33.000Z</time>
      </trkpt>
      <trkpt lat="46.15109" lon="6.78486">
        <ele>1752.9</ele>
        <time>2000-01-01T09:37:43.000Z</time>
      </trkpt>
      <trkpt lat="46.15107" lon="6.78489">
        <ele>1753</ele>
        <time>2000-01-01T09:37:53.000Z</time>
      </trkpt>
      <trkpt lat="46.15104" lon="6.78495">
        <ele>1753.3</ele>
        <time>2000-01-01T09:38:03.000Z</time>
      </trkpt>
      <trkpt lat="46.15105" lon="6.78499">
        <ele>1754.3</ele>
        <time>2000-01-01T09:38:13.000Z</time>
      </trkpt>
      <trkpt lat="46.15104" lon="6.78504">
        <ele>1754.9</ele>
        <time>2000-01-01T09:38:23.000Z</time>
      </trkpt>
      <trkpt lat="46.15103" lon="6.7851">
        <ele>1755</ele>
        <time>2000-01-01T09:38:33.000Z</time>
      </trkpt>
      <trkpt lat="46.15103" lon="6.78515">
        <ele>1756.7</ele>
        <time>2000-01-01T09:38:43.000Z</time>
      </trkpt>
      <trkpt lat="46.15103" lon="6.78519">
        <ele>1757.4</ele>
        <time>2000-01-01T09:38:53.000Z</time>
      </trkpt>
      <trkpt lat="46.15103" lon="6.78522">
        <ele>1757.9</ele>
        <time>2000-01-01T09:39:03.000Z</time>
      </trkpt>
      <trkpt lat="46.15102" lon="6.78527">
        <ele>1758.6</ele>
        <time>2000-01-01T09:39:13.000Z</time>
      </trkpt>
      <trkpt lat="46.15102" lon="6.78534">
        <ele>1759.7</ele>
        <time>2000-01-01T09:39:23.000Z</time>
      </trkpt>
      <trkpt lat="46.15101" lon="6.78538">
        <ele>1758</ele>
        <time>2000-01-01T09:39:33.000Z</time>
      </trkpt>
      <trkpt lat="46.151" lon="6.78542">
        <ele>1760.5</ele>
        <time>2000-01-01T09:39:43.000Z</time>
      </trkpt>
      <trkpt lat="46.15097" lon="6.78547">
        <ele>1760.6</ele>
        <time>2000-01-01T09:39:53.000Z</time>
      </trkpt>
      <trkpt lat="46.15094" lon="6.78555">
        <ele>1761.2</ele>
        <time>2000-01-01T09:40:03.000Z</time>
      </trkpt>
      <trkpt lat="46.15091" lon="6.78561">
        <ele>1759</ele>
        <time>2000-01-01T09:40:13.000Z</time>
      </trkpt>
      <trkpt lat="46.15091" lon="6.78568">
        <ele>1762.7</ele>
        <time>2000-01-01T09:40:23.000Z</time>
      </trkpt>
      <trkpt lat="46.15091" lon="6.78575">
        <ele>1763.8</ele>
        <time>2000-01-01T09:40:33.000Z</time>
      </trkpt>
      <trkpt lat="46.15091" lon="6.78583">
        <ele>1765.2</ele>
        <time>2000-01-01T09:40:43.000Z</time>
      </trkpt>
      <trkpt lat="46.15092" lon="6.78591">
        <ele>1764</ele>
        <time>2000-01-01T09:40:53.000Z</time>
      </trkpt>
      <trkpt lat="46.15093" lon="6.78597">
        <ele>1767.3</ele>
        <time>2000-01-01T09:41:03.000Z</time>
      </trkpt>
      <trkpt lat="46.15094" lon="6.78604">
        <ele>1768.3</ele>
        <time>2000-01-01T09:41:13.000Z</time>
      </trkpt>
      <trkpt lat="46.15097" lon="6.7861">
        <ele>1769.8</ele>
        <time>2000-01-01T09:41:23.000Z</time>
      </trkpt>
      <trkpt lat="46.15098" lon="6.78614">
        <ele>1770.5</ele>
        <time>2000-01-01T09:41:33.000Z</time>
      </trkpt>
      <trkpt lat="46.15098" lon="6.7862">
        <ele>1767</ele>
        <time>2000-01-01T09:41:43.000Z</time>
      </trkpt>
      <trkpt lat="46.15101" lon="6.78629">
        <ele>1773</ele>
        <time>2000-01-01T09:41:53.000Z</time>
      </trkpt>
      <trkpt lat="46.15102" lon="6.78636">
        <ele>1774.1</ele>
        <time>2000-01-01T09:42:03.000Z</time>
      </trkpt>
      <trkpt lat="46.15101" lon="6.78643">
        <ele>1774.9</ele>
        <time>2000-01-01T09:42:13.000Z</time>
      </trkpt>
      <trkpt lat="46.15098" lon="6.78648">
        <ele>1769</ele>
        <time>2000-01-01T09:42:23.000Z</time>
      </trkpt>
      <trkpt lat="46.15096" lon="6.78653">
        <ele>1775.1</ele>
        <time>2000-01-01T09:42:33.000Z</time>
      </trkpt>
      <trkpt lat="46.15096" lon="6.78657">
        <ele>1775.9</ele>
        <time>2000-01-01T09:42:43.000Z</time>
      </trkpt>
      <trkpt lat="46.15095" lon="6.78658">
        <ele>1775.7</ele>
        <time>2000-01-01T09:42:53.000Z</time>
      </trkpt>
      <trkpt lat="46.15094" lon="6.78662">
        <ele>1776</ele>
        <time>2000-01-01T09:43:03.000Z</time>
      </trkpt>
      <trkpt lat="46.15093" lon="6.78665">
        <ele>1776.2</ele>
        <time>2000-01-01T09:43:13.000Z</time>
      </trkpt>
      <trkpt lat="46.15092" lon="6.78668">
        <ele>1776.3</ele>
        <time>2000-01-01T09:43:23.000Z</time>
      </trkpt>
      <trkpt lat="46.15092" lon="6.78671">
        <ele>1776.9</ele>
        <time>2000-01-01T09:43:33.000Z</time>
      </trkpt>
      <trkpt lat="46.15093" lon="6.78674">
        <ele>1774</ele>
        <time>2000-01-01T09:43:43.000Z</time>
      </trkpt>
      <trkpt lat="46.15094" lon="6.78675">
        <ele>1778.2</ele>
        <time>2000-01-01T09:43:53.000Z</time>
      </trkpt>
      <trkpt lat="46.15095" lon="6.7868">
        <ele>1779.4</ele>
        <time>2000-01-01T09:44:03.000Z</time>
      </trkpt>
      <trkpt lat="46.15094" lon="6.78686">
        <ele>1780.1</ele>
        <time>2000-01-01T09:44:13.000Z</time>
      </trkpt>
      <trkpt lat="46.15096" lon="6.78696">
        <ele>1782.4</ele>
        <time>2000-01-01T09:44:23.000Z</time>
      </trkpt>
      <trkpt lat="46.15096" lon="6.78698">
        <ele>1782.8</ele>
        <time>2000-01-01T09:44:33.000Z</time>
      </trkpt>
      <trkpt lat="46.15094" lon="6.78702">
        <ele>1779</ele>
        <time>2000-01-01T09:44:43.000Z</time>
      </trkpt>
      <trkpt lat="46.15094" lon="6.78705">
        <ele>1783.6</ele>
        <time>2000-01-01T09:44:53.000Z</time>
      </trkpt>
      <trkpt lat="46.15094" lon="6.78711">
        <ele>1784.8</ele>
        <time>2000-01-01T09:45:03.000Z</time>
      </trkpt>
      <trkpt lat="46.15093" lon="6.78718">
        <ele>1785.9</ele>
        <time>2000-01-01T09:45:13.000Z</time>
      </trkpt>
      <trkpt lat="46.15091" lon="6.78723">
        <ele>1786.4</ele>
        <time>2000-01-01T09:45:23.000Z</time>
      </trkpt>
      <trkpt lat="46.15089" lon="6.78724">
        <ele>1786.1</ele>
        <time>2000-01-01T09:45:33.000Z</time>
      </trkpt>
      <trkpt lat="46.15086" lon="6.78726">
        <ele>1783</ele>
        <time>2000-01-01T09:45:43.000Z</time>
      </trkpt>
      <trkpt lat="46.15085" lon="6.78729">
        <ele>1786.4</ele>
        <time>2000-01-01T09:45:53.000Z</time>
      </trkpt>
      <trkpt lat="46.15084" lon="6.78734">
        <ele>1787.6</ele>
        <time>2000-01-01T09:46:03.000Z</time>
      </trkpt>
      <trkpt lat="46.15082" lon="6.7874">
        <ele>1788.8</ele>
        <time>2000-01-01T09:46:13.000Z</time>
      </trkpt>
      <trkpt lat="46.15081" lon="6.78747">
        <ele>1790.6</ele>
        <time>2000-01-01T09:46:23.000Z</time>
      </trkpt>
      <trkpt lat="46.15081" lon="6.78753">
        <ele>1790</ele>
        <time>2000-01-01T09:46:33.000Z</time>
      </trkpt>
      <trkpt lat="46.15079" lon="6.7876">
        <ele>1793.1</ele>
        <time>2000-01-01T09:46:43.000Z</time>
      </trkpt>
      <trkpt lat="46.15078" lon="6.78765">
        <ele>1794</ele>
        <time>2000-01-01T09:46:53.000Z</time>
      </trkpt>
      <trkpt lat="46.15079" lon="6.7877">
        <ele>1795.1</ele>
        <time>2000-01-01T09:47:03.000Z</time>
      </trkpt>
      <trkpt lat="46.15078" lon="6.78772">
        <ele>1795.4</ele>
        <time>2000-01-01T09:47:13.000Z</time>
      </trkpt>
      <trkpt lat="46.15076" lon="6.78772">
        <ele>1795.2</ele>
        <time>2000-01-01T09:47:23.000Z</time>
      </trkpt>
      <trkpt lat="46.15074" lon="6.78772">
        <ele>1795</ele>
        <time>2000-01-01T09:47:33.000Z</time>
      </trkpt>
      <trkpt lat="46.1507" lon="6.78773">
        <ele>1793</ele>
        <time>2000-01-01T09:47:43.000Z</time>
      </trkpt>
      <trkpt lat="46.15067" lon="6.78776">
        <ele>1795.4</ele>
        <time>2000-01-01T09:47:53.000Z</time>
      </trkpt>
      <trkpt lat="46.15066" lon="6.78778">
        <ele>1795.8</ele>
        <time>2000-01-01T09:48:03.000Z</time>
      </trkpt>
      <trkpt lat="46.15066" lon="6.7878">
        <ele>1796.3</ele>
        <time>2000-01-01T09:48:13.000Z</time>
      </trkpt>
      <trkpt lat="46.15069" lon="6.78782">
        <ele>1797</ele>
        <time>2000-01-01T09:48:23.000Z</time>
      </trkpt>
      <trkpt lat="46.15071" lon="6.78783">
        <ele>1797.4</ele>
        <time>2000-01-01T09:48:33.000Z</time>
      </trkpt>
      <trkpt lat="46.15072" lon="6.78784">
        <ele>1797.8</ele>
        <time>2000-01-01T09:48:43.000Z</time>
      </trkpt>
      <trkpt lat="46.15071" lon="6.78786">
        <ele>1798.2</ele>
        <time>2000-01-01T09:48:53.000Z</time>
      </trkpt>
      <trkpt lat="46.15071" lon="6.78789">
        <ele>1799</ele>
        <time>2000-01-01T09:49:03.000Z</time>
      </trkpt>
      <trkpt lat="46.15073" lon="6.78794">
        <ele>1801</ele>
        <time>2000-01-01T09:49:13.000Z</time>
      </trkpt>
      <trkpt lat="46.15074" lon="6.78796">
        <ele>1801.1</ele>
        <time>2000-01-01T09:49:23.000Z</time>
      </trkpt>
      <trkpt lat="46.15074" lon="6.788">
        <ele>1802.2</ele>
        <time>2000-01-01T09:49:33.000Z</time>
      </trkpt>
      <trkpt lat="46.15077" lon="6.78806">
        <ele>1804.2</ele>
        <time>2000-01-01T09:49:43.000Z</time>
      </trkpt>
      <trkpt lat="46.15079" lon="6.78809">
        <ele>1805.2</ele>
        <time>2000-01-01T09:49:53.000Z</time>
      </trkpt>
      <trkpt lat="46.1508" lon="6.78814">
        <ele>1806.5</ele>
        <time>2000-01-01T09:50:03.000Z</time>
      </trkpt>
      <trkpt lat="46.1508" lon="6.78823">
        <ele>1807</ele>
        <time>2000-01-01T09:50:13.000Z</time>
      </trkpt>
      <trkpt lat="46.1508" lon="6.78826">
        <ele>1809.4</ele>
        <time>2000-01-01T09:50:23.000Z</time>
      </trkpt>
      <trkpt lat="46.15081" lon="6.78827">
        <ele>1809.9</ele>
        <time>2000-01-01T09:50:33.000Z</time>
      </trkpt>
      <trkpt lat="46.15082" lon="6.78829">
        <ele>1810.6</ele>
        <time>2000-01-01T09:50:43.000Z</time>
      </trkpt>
      <trkpt lat="46.15085" lon="6.78833">
        <ele>1811.7</ele>
        <time>2000-01-01T09:50:53.000Z</time>
      </trkpt>
      <trkpt lat="46.15086" lon="6.78838">
        <ele>1812.7</ele>
        <time>2000-01-01T09:51:03.000Z</time>
      </trkpt>
      <trkpt lat="46.15087" lon="6.78842">
        <ele>1813.5</ele>
        <time>2000-01-01T09:51:13.000Z</time>
      </trkpt>
      <trkpt lat="46.15087" lon="6.78848">
        <ele>1813</ele>
        <time>2000-01-01T09:51:23.000Z</time>
      </trkpt>
      <trkpt lat="46.15086" lon="6.78858">
        <ele>1817.3</ele>
        <time>2000-01-01T09:51:33.000Z</time>
      </trkpt>
      <trkpt lat="46.15086" lon="6.78865">
        <ele>1819.1</ele>
        <time>2000-01-01T09:51:43.000Z</time>
      </trkpt>
      <trkpt lat="46.15085" lon="6.7887">
        <ele>1820.6</ele>
        <time>2000-01-01T09:51:53.000Z</time>
      </trkpt>
      <trkpt lat="46.15086" lon="6.78877">
        <ele>1820</ele>
        <time>2000-01-01T09:52:03.000Z</time>
      </trkpt>
      <trkpt lat="46.15086" lon="6.78884">
        <ele>1824.8</ele>
        <time>2000-01-01T09:52:13.000Z</time>
      </trkpt>
      <trkpt lat="46.15086" lon="6.78897">
        <ele>1828.1</ele>
        <time>2000-01-01T09:52:23.000Z</time>
      </trkpt>
      <trkpt lat="46.15086" lon="6.78902">
        <ele>1829.2</ele>
        <time>2000-01-01T09:52:33.000Z</time>
      </trkpt>
      <trkpt lat="46.15086" lon="6.78907">
        <ele>1828</ele>
        <time>2000-01-01T09:52:43.000Z</time>
      </trkpt>
      <trkpt lat="46.15087" lon="6.7891">
        <ele>1831.2</ele>
        <time>2000-01-01T09:52:53.000Z</time>
      </trkpt>
      <trkpt lat="46.15087" lon="6.78915">
        <ele>1832.4</ele>
        <time>2000-01-01T09:53:03.000Z</time>
      </trkpt>
      <trkpt lat="46.15086" lon="6.78923">
        <ele>1835</ele>
        <time>2000-01-01T09:53:13.000Z</time>
      </trkpt>
      <trkpt lat="46.15083" lon="6.78929">
        <ele>1836.9</ele>
        <time>2000-01-01T09:53:23.000Z</time>
      </trkpt>
      <trkpt lat="46.15079" lon="6.78932">
        <ele>1838</ele>
        <time>2000-01-01T09:53:33.000Z</time>
      </trkpt>
      <trkpt lat="46.15079" lon="6.78932">
        <ele>1838</ele>
        <time>2000-01-01T09:53:43.000Z</time>
      </trkpt>
      <trkpt lat="46.15079" lon="6.78932">
        <ele>1838</ele>
        <time>2000-01-01T09:53:53.000Z</time>
      </trkpt>
      <trkpt lat="46.15075" lon="6.78931">
        <ele>1837.5</ele>
        <time>2000-01-01T09:54:03.000Z</time>
      </trkpt>
      <trkpt lat="46.1507" lon="6.78929">
        <ele>1836.7</ele>
        <time>2000-01-01T09:54:13.000Z</time>
      </trkpt>
      <trkpt lat="46.15066" lon="6.78932">
        <ele>1837.7</ele>
        <time>2000-01-01T09:54:23.000Z</time>
      </trkpt>
      <trkpt lat="46.15064" lon="6.78938">
        <ele>1839.5</ele>
        <time>2000-01-01T09:54:33.000Z</time>
      </trkpt>
      <trkpt lat="46.15064" lon="6.78945">
        <ele>1839</ele>
        <time>2000-01-01T09:54:43.000Z</time>
      </trkpt>
      <trkpt lat="46.15066" lon="6.78951">
        <ele>1844.2</ele>
        <time>2000-01-01T09:54:53.000Z</time>
      </trkpt>
      <trkpt lat="46.15067" lon="6.78957">
        <ele>1846.6</ele>
        <time>2000-01-01T09:55:03.000Z</time>
      </trkpt>
      <trkpt lat="46.15067" lon="6.78961">
        <ele>1848.1</ele>
        <time>2000-01-01T09:55:13.000Z</time>
      </trkpt>
      <trkpt lat="46.15069" lon="6.78962">
        <ele>1848.9</ele>
        <time>2000-01-01T09:55:23.000Z</time>
      </trkpt>
      <trkpt lat="46.15071" lon="6.78963">
        <ele>1849.7</ele>
        <time>2000-01-01T09:55:33.000Z</time>
      </trkpt>
      <trkpt lat="46.1507" lon="6.78969">
        <ele>1850</ele>
        <time>2000-01-01T09:55:43.000Z</time>
      </trkpt>
      <trkpt lat="46.15072" lon="6.78975">
        <ele>1854.5</ele>
        <time>2000-01-01T09:55:53.000Z</time>
      </trkpt>
      <trkpt lat="46.15074" lon="6.78979">
        <ele>1856.2</ele>
        <time>2000-01-01T09:56:03.000Z</time>
      </trkpt>
      <trkpt lat="46.15076" lon="6.78981">
        <ele>1857.3</ele>
        <time>2000-01-01T09:56:13.000Z</time>
      </trkpt>
      <trkpt lat="46.15078" lon="6.78986">
        <ele>1859.3</ele>
        <time>2000-01-01T09:56:23.000Z</time>
      </trkpt>
      <trkpt lat="46.15077" lon="6.78994">
        <ele>1857</ele>
        <time>2000-01-01T09:56:33.000Z</time>
      </trkpt>
      <trkpt lat="46.15076" lon="6.79">
        <ele>1862.6</ele>
        <time>2000-01-01T09:56:43.000Z</time>
      </trkpt>
      <trkpt lat="46.15074" lon="6.79002">
        <ele>1862.5</ele>
        <time>2000-01-01T09:56:53.000Z</time>
      </trkpt>
      <trkpt lat="46.15074" lon="6.79005">
        <ele>1863.3</ele>
        <time>2000-01-01T09:57:03.000Z</time>
      </trkpt>
      <trkpt lat="46.15078" lon="6.7901">
        <ele>1866</ele>
        <time>2000-01-01T09:57:13.000Z</time>
      </trkpt>
      <trkpt lat="46.15077" lon="6.79013">
        <ele>1866.5</ele>
        <time>2000-01-01T09:57:23.000Z</time>
      </trkpt>
      <trkpt lat="46.15077" lon="6.79015">
        <ele>1867</ele>
        <time>2000-01-01T09:57:33.000Z</time>
      </trkpt>
      <trkpt lat="46.15079" lon="6.79016">
        <ele>1868</ele>
        <time>2000-01-01T09:57:43.000Z</time>
      </trkpt>
      <trkpt lat="46.15079" lon="6.79017">
        <ele>1862</ele>
        <time>2000-01-01T09:57:53.000Z</time>
      </trkpt>
      <trkpt lat="46.15079" lon="6.79019">
        <ele>1868.9</ele>
        <time>2000-01-01T09:58:03.000Z</time>
      </trkpt>
      <trkpt lat="46.15081" lon="6.79021">
        <ele>1870.2</ele>
        <time>2000-01-01T09:58:13.000Z</time>
      </trkpt>
      <trkpt lat="46.15083" lon="6.79026">
        <ele>1872.4</ele>
        <time>2000-01-01T09:58:23.000Z</time>
      </trkpt>
      <trkpt lat="46.15084" lon="6.79031">
        <ele>1874</ele>
        <time>2000-01-01T09:58:33.000Z</time>
      </trkpt>
      <trkpt lat="46.15085" lon="6.79037">
        <ele>1875.7</ele>
        <time>2000-01-01T09:58:43.000Z</time>
      </trkpt>
      <trkpt lat="46.15085" lon="6.79041">
        <ele>1876.5</ele>
        <time>2000-01-01T09:58:53.000Z</time>
      </trkpt>
      <trkpt lat="46.15085" lon="6.79046">
        <ele>1873</ele>
        <time>2000-01-01T09:59:03.000Z</time>
      </trkpt>
      <trkpt lat="46.15082" lon="6.79049">
        <ele>1877.2</ele>
        <time>2000-01-01T09:59:13.000Z</time>
      </trkpt>
      <trkpt lat="46.1508" lon="6.79051">
        <ele>1877.1</ele>
        <time>2000-01-01T09:59:23.000Z</time>
      </trkpt>
      <trkpt lat="46.1508" lon="6.79058">
        <ele>1878.8</ele>
        <time>2000-01-01T09:59:33.000Z</time>
      </trkpt>
      <trkpt lat="46.15081" lon="6.79062">
        <ele>1880.1</ele>
        <time>2000-01-01T09:59:43.000Z</time>
      </trkpt>
      <trkpt lat="46.15082" lon="6.79064">
        <ele>1880.8</ele>
        <time>2000-01-01T09:59:53.000Z</time>
      </trkpt>
      <trkpt lat="46.15081" lon="6.79069">
        <ele>1881.8</ele>
        <time>2000-01-01T10:00:03.000Z</time>
      </trkpt>
      <trkpt lat="46.15081" lon="6.79072">
        <ele>1880</ele>
        <time>2000-01-01T10:00:13.000Z</time>
      </trkpt>
      <trkpt lat="46.15078" lon="6.79078">
        <ele>1883.5</ele>
        <time>2000-01-01T10:00:23.000Z</time>
      </trkpt>
      <trkpt lat="46.15072" lon="6.79086">
        <ele>1884.5</ele>
        <time>2000-01-01T10:00:33.000Z</time>
      </trkpt>
      <trkpt lat="46.1507" lon="6.79089">
        <ele>1885.2</ele>
        <time>2000-01-01T10:00:43.000Z</time>
      </trkpt>
      <trkpt lat="46.15065" lon="6.79098">
        <ele>1881</ele>
        <time>2000-01-01T10:00:53.000Z</time>
      </trkpt>
      <trkpt lat="46.1506" lon="6.79107">
        <ele>1888.9</ele>
        <time>2000-01-01T10:01:03.000Z</time>
      </trkpt>
      <trkpt lat="46.15058" lon="6.79112">
        <ele>1890</ele>
        <time>2000-01-01T10:01:13.000Z</time>
      </trkpt>
      <trkpt lat="46.15054" lon="6.79118">
        <ele>1890.9</ele>
        <time>2000-01-01T10:01:23.000Z</time>
      </trkpt>
      <trkpt lat="46.15049" lon="6.79123">
        <ele>1889</ele>
        <time>2000-01-01T10:01:33.000Z</time>
      </trkpt>
      <trkpt lat="46.15048" lon="6.79129">
        <ele>1892.8</ele>
        <time>2000-01-01T10:01:43.000Z</time>
      </trkpt>
      <trkpt lat="46.15045" lon="6.79132">
        <ele>1892.9</ele>
        <time>2000-01-01T10:01:53.000Z</time>
      </trkpt>
      <trkpt lat="46.15044" lon="6.79137">
        <ele>1894.1</ele>
        <time>2000-01-01T10:02:03.000Z</time>
      </trkpt>
      <trkpt lat="46.15042" lon="6.79148">
        <ele>1894</ele>
        <time>2000-01-01T10:02:13.000Z</time>
      </trkpt>
      <trkpt lat="46.15041" lon="6.79155">
        <ele>1897.8</ele>
        <time>2000-01-01T10:02:23.000Z</time>
      </trkpt>
      <trkpt lat="46.15043" lon="6.79157">
        <ele>1899.1</ele>
        <time>2000-01-01T10:02:33.000Z</time>
      </trkpt>
      <trkpt lat="46.15042" lon="6.79161">
        <ele>1899.7</ele>
        <time>2000-01-01T10:02:43.000Z</time>
      </trkpt>
      <trkpt lat="46.15037" lon="6.7917">
        <ele>1899.7</ele>
        <time>2000-01-01T10:02:53.000Z</time>
      </trkpt>
      <trkpt lat="46.15036" lon="6.79174">
        <ele>1896</ele>
        <time>2000-01-01T10:03:03.000Z</time>
      </trkpt>
      <trkpt lat="46.15035" lon="6.79178">
        <ele>1900.6</ele>
        <time>2000-01-01T10:03:13.000Z</time>
      </trkpt>
      <trkpt lat="46.15037" lon="6.79186">
        <ele>1903.2</ele>
        <time>2000-01-01T10:03:23.000Z</time>
      </trkpt>
      <trkpt lat="46.15038" lon="6.7919">
        <ele>1904.5</ele>
        <time>2000-01-01T10:03:33.000Z</time>
      </trkpt>
      <trkpt lat="46.15038" lon="6.79195">
        <ele>1905.6</ele>
        <time>2000-01-01T10:03:43.000Z</time>
      </trkpt>
      <trkpt lat="46.15039" lon="6.79203">
        <ele>1903</ele>
        <time>2000-01-01T10:03:53.000Z</time>
      </trkpt>
      <trkpt lat="46.15039" lon="6.79215">
        <ele>1911</ele>
        <time>2000-01-01T10:04:03.000Z</time>
      </trkpt>
      <trkpt lat="46.15038" lon="6.79222">
        <ele>1912.4</ele>
        <time>2000-01-01T10:04:13.000Z</time>
      </trkpt>
      <trkpt lat="46.15035" lon="6.79231">
        <ele>1910</ele>
        <time>2000-01-01T10:04:23.000Z</time>
      </trkpt>
      <trkpt lat="46.15033" lon="6.79235">
        <ele>1914.1</ele>
        <time>2000-01-01T10:04:33.000Z</time>
      </trkpt>
      <trkpt lat="46.15028" lon="6.79241">
        <ele>1913.5</ele>
        <time>2000-01-01T10:04:43.000Z</time>
      </trkpt>
      <trkpt lat="46.15025" lon="6.79247">
        <ele>1913.8</ele>
        <time>2000-01-01T10:04:53.000Z</time>
      </trkpt>
      <trkpt lat="46.15024" lon="6.79251">
        <ele>1914.3</ele>
        <time>2000-01-01T10:05:03.000Z</time>
      </trkpt>
      <trkpt lat="46.15023" lon="6.79257">
        <ele>1912</ele>
        <time>2000-01-01T10:05:13.000Z</time>
      </trkpt>
      <trkpt lat="46.15023" lon="6.79265">
        <ele>1916.7</ele>
        <time>2000-01-01T10:05:23.000Z</time>
      </trkpt>
      <trkpt lat="46.15023" lon="6.79271">
        <ele>1917.9</ele>
        <time>2000-01-01T10:05:33.000Z</time>
      </trkpt>
      <trkpt lat="46.15022" lon="6.79277">
        <ele>1919</ele>
        <time>2000-01-01T10:05:43.000Z</time>
      </trkpt>
      <trkpt lat="46.15021" lon="6.79275">
        <ele>1918.4</ele>
        <time>2000-01-01T10:05:53.000Z</time>
      </trkpt>
      <trkpt lat="46.15018" lon="6.79274">
        <ele>1911</ele>
        <time>2000-01-01T10:06:03.000Z</time>
      </trkpt>
      <trkpt lat="46.15009" lon="6.79274">
        <ele>1915.8</ele>
        <time>2000-01-01T10:06:13.000Z</time>
      </trkpt>
      <trkpt lat="46.15006" lon="6.79274">
        <ele>1915.3</ele>
        <time>2000-01-01T10:06:23.000Z</time>
      </trkpt>
      <trkpt lat="46.14998" lon="6.79269">
        <ele>1910</ele>
        <time>2000-01-01T10:06:33.000Z</time>
      </trkpt>
      <trkpt lat="46.14993" lon="6.79267">
        <ele>1909.4</ele>
        <time>2000-01-01T10:06:43.000Z</time>
      </trkpt>
      <trkpt lat="46.14987" lon="6.79268">
        <ele>1908.7</ele>
        <time>2000-01-01T10:06:53.000Z</time>
      </trkpt>
      <trkpt lat="46.14981" lon="6.79267">
        <ele>1907.3</ele>
        <time>2000-01-01T10:07:03.000Z</time>
      </trkpt>
      <trkpt lat="46.14973" lon="6.79263">
        <ele>1907</ele>
        <time>2000-01-01T10:07:13.000Z</time>
      </trkpt>
      <trkpt lat="46.14961" lon="6.79262">
        <ele>1904.9</ele>
        <time>2000-01-01T10:07:23.000Z</time>
      </trkpt>
      <trkpt lat="46.14953" lon="6.7926">
        <ele>1906</ele>
        <time>2000-01-01T10:07:33.000Z</time>
      </trkpt>
      <trkpt lat="46.14947" lon="6.79261">
        <ele>1904.3</ele>
        <time>2000-01-01T10:07:43.000Z</time>
      </trkpt>
      <trkpt lat="46.14936" lon="6.79256">
        <ele>1904.6</ele>
        <time>2000-01-01T10:07:53.000Z</time>
      </trkpt>
      <trkpt lat="46.14927" lon="6.7925">
        <ele>1905</ele>
        <time>2000-01-01T10:08:03.000Z</time>
      </trkpt>
      <trkpt lat="46.14923" lon="6.79246">
        <ele>1904.6</ele>
        <time>2000-01-01T10:08:13.000Z</time>
      </trkpt>
      <trkpt lat="46.14916" lon="6.79237">
        <ele>1902.4</ele>
        <time>2000-01-01T10:08:23.000Z</time>
      </trkpt>
      <trkpt lat="46.1491" lon="6.79227">
        <ele>1897</ele>
        <time>2000-01-01T10:08:33.000Z</time>
      </trkpt>
      <trkpt lat="46.14905" lon="6.79217">
        <ele>1895.9</ele>
        <time>2000-01-01T10:08:43.000Z</time>
      </trkpt>
      <trkpt lat="46.14903" lon="6.79216">
        <ele>1895.7</ele>
        <time>2000-01-01T10:08:53.000Z</time>
      </trkpt>
      <trkpt lat="46.14896" lon="6.79215">
        <ele>1896.1</ele>
        <time>2000-01-01T10:09:03.000Z</time>
      </trkpt>
      <trkpt lat="46.14889" lon="6.79212">
        <ele>1894</ele>
        <time>2000-01-01T10:09:13.000Z</time>
      </trkpt>
      <trkpt lat="46.14885" lon="6.79206">
        <ele>1894</ele>
        <time>2000-01-01T10:09:23.000Z</time>
      </trkpt>
      <trkpt lat="46.14879" lon="6.79196">
        <ele>1890.4</ele>
        <time>2000-01-01T10:09:33.000Z</time>
      </trkpt>
      <trkpt lat="46.14875" lon="6.79194">
        <ele>1891</ele>
        <time>2000-01-01T10:09:43.000Z</time>
      </trkpt>
      <trkpt lat="46.14871" lon="6.79196">
        <ele>1889.6</ele>
        <time>2000-01-01T10:09:53.000Z</time>
      </trkpt>
      <trkpt lat="46.14867" lon="6.792">
        <ele>1890.4</ele>
        <time>2000-01-01T10:10:03.000Z</time>
      </trkpt>
      <trkpt lat="46.14862" lon="6.79199">
        <ele>1889.6</ele>
        <time>2000-01-01T10:10:13.000Z</time>
      </trkpt>
      <trkpt lat="46.14857" lon="6.79195">
        <ele>1888</ele>
        <time>2000-01-01T10:10:23.000Z</time>
      </trkpt>
      <trkpt lat="46.14852" lon="6.79186">
        <ele>1887.1</ele>
        <time>2000-01-01T10:10:33.000Z</time>
      </trkpt>
      <trkpt lat="46.14845" lon="6.79171">
        <ele>1884</ele>
        <time>2000-01-01T10:10:43.000Z</time>
      </trkpt>
      <trkpt lat="46.14842" lon="6.79167">
        <ele>1882.9</ele>
        <time>2000-01-01T10:10:53.000Z</time>
      </trkpt>
      <trkpt lat="46.14838" lon="6.79164">
        <ele>1882.4</ele>
        <time>2000-01-01T10:11:03.000Z</time>
      </trkpt>
      <trkpt lat="46.14834" lon="6.79162">
        <ele>1882.2</ele>
        <time>2000-01-01T10:11:13.000Z</time>
      </trkpt>
      <trkpt lat="46.1483" lon="6.79158">
        <ele>1881.6</ele>
        <time>2000-01-01T10:11:23.000Z</time>
      </trkpt>
      <trkpt lat="46.14822" lon="6.79148">
        <ele>1878</ele>
        <time>2000-01-01T10:11:33.000Z</time>
      </trkpt>
      <trkpt lat="46.14819" lon="6.79142">
        <ele>1878.7</ele>
        <time>2000-01-01T10:11:43.000Z</time>
      </trkpt>
      <trkpt lat="46.14815" lon="6.7913">
        <ele>1876.3</ele>
        <time>2000-01-01T10:11:53.000Z</time>
      </trkpt>
      <trkpt lat="46.14813" lon="6.79121">
        <ele>1874</ele>
        <time>2000-01-01T10:12:03.000Z</time>
      </trkpt>
      <trkpt lat="46.14809" lon="6.79113">
        <ele>1872.9</ele>
        <time>2000-01-01T10:12:13.000Z</time>
      </trkpt>
      <trkpt lat="46.14805" lon="6.79107">
        <ele>1871.4</ele>
        <time>2000-01-01T10:12:23.000Z</time>
      </trkpt>
      <trkpt lat="46.14801" lon="6.79102">
        <ele>1869.7</ele>
        <time>2000-01-01T10:12:33.000Z</time>
      </trkpt>
      <trkpt lat="46.14793" lon="6.79093">
        <ele>1866</ele>
        <time>2000-01-01T10:12:43.000Z</time>
      </trkpt>
      <trkpt lat="46.14785" lon="6.79089">
        <ele>1866.2</ele>
        <time>2000-01-01T10:12:53.000Z</time>
      </trkpt>
      <trkpt lat="46.14778" lon="6.79085">
        <ele>1865.5</ele>
        <time>2000-01-01T10:13:03.000Z</time>
      </trkpt>
      <trkpt lat="46.14773" lon="6.79081">
        <ele>1864</ele>
        <time>2000-01-01T10:13:13.000Z</time>
      </trkpt>
      <trkpt lat="46.14769" lon="6.79075">
        <ele>1863.5</ele>
        <time>2000-01-01T10:13:23.000Z</time>
      </trkpt>
      <trkpt lat="46.14766" lon="6.79064">
        <ele>1860.6</ele>
        <time>2000-01-01T10:13:33.000Z</time>
      </trkpt>
      <trkpt lat="46.14763" lon="6.79051">
        <ele>1857</ele>
        <time>2000-01-01T10:13:43.000Z</time>
      </trkpt>
      <trkpt lat="46.1476" lon="6.79045">
        <ele>1856.6</ele>
        <time>2000-01-01T10:13:53.000Z</time>
      </trkpt>
      <trkpt lat="46.14755" lon="6.79036">
        <ele>1855.2</ele>
        <time>2000-01-01T10:14:03.000Z</time>
      </trkpt>
      <trkpt lat="46.14753" lon="6.79026">
        <ele>1852</ele>
        <time>2000-01-01T10:14:13.000Z</time>
      </trkpt>
      <trkpt lat="46.14752" lon="6.79019">
        <ele>1850.8</ele>
        <time>2000-01-01T10:14:23.000Z</time>
      </trkpt>
      <trkpt lat="46.14754" lon="6.79015">
        <ele>1849.2</ele>
        <time>2000-01-01T10:14:33.000Z</time>
      </trkpt>
      <trkpt lat="46.14757" lon="6.79011">
        <ele>1847.5</ele>
        <time>2000-01-01T10:14:43.000Z</time>
      </trkpt>
      <trkpt lat="46.14762" lon="6.79007">
        <ele>1845.6</ele>
        <time>2000-01-01T10:14:53.000Z</time>
      </trkpt>
      <trkpt lat="46.1477" lon="6.79006">
        <ele>1842</ele>
        <time>2000-01-01T10:15:03.000Z</time>
      </trkpt>
      <trkpt lat="46.1478" lon="6.79006">
        <ele>1843</ele>
        <time>2000-01-01T10:15:13.000Z</time>
      </trkpt>
      <trkpt lat="46.14785" lon="6.79004">
        <ele>1842</ele>
        <time>2000-01-01T10:15:23.000Z</time>
      </trkpt>
      <trkpt lat="46.14791" lon="6.79001">
        <ele>1840</ele>
        <time>2000-01-01T10:15:33.000Z</time>
      </trkpt>
      <trkpt lat="46.14796" lon="6.78994">
        <ele>1838.7</ele>
        <time>2000-01-01T10:15:43.000Z</time>
      </trkpt>
      <trkpt lat="46.14798" lon="6.78987">
        <ele>1836.9</ele>
        <time>2000-01-01T10:15:53.000Z</time>
      </trkpt>
      <trkpt lat="46.14797" lon="6.7898">
        <ele>1835.4</ele>
        <time>2000-01-01T10:16:03.000Z</time>
      </trkpt>
      <trkpt lat="46.14794" lon="6.78973">
        <ele>1834</ele>
        <time>2000-01-01T10:16:13.000Z</time>
      </trkpt>
      <trkpt lat="46.14793" lon="6.78967">
        <ele>1832.3</ele>
        <time>2000-01-01T10:16:23.000Z</time>
      </trkpt>
      <trkpt lat="46.1479" lon="6.78961">
        <ele>1830.7</ele>
        <time>2000-01-01T10:16:33.000Z</time>
      </trkpt>
      <trkpt lat="46.14787" lon="6.78957">
        <ele>1829.6</ele>
        <time>2000-01-01T10:16:43.000Z</time>
      </trkpt>
      <trkpt lat="46.14779" lon="6.78953">
        <ele>1827</ele>
        <time>2000-01-01T10:16:53.000Z</time>
      </trkpt>
      <trkpt lat="46.14768" lon="6.78948">
        <ele>1826.9</ele>
        <time>2000-01-01T10:17:03.000Z</time>
      </trkpt>
      <trkpt lat="46.14764" lon="6.78946">
        <ele>1826.1</ele>
        <time>2000-01-01T10:17:13.000Z</time>
      </trkpt>
      <trkpt lat="46.14757" lon="6.78942">
        <ele>1823</ele>
        <time>2000-01-01T10:17:23.000Z</time>
      </trkpt>
      <trkpt lat="46.1475" lon="6.78936">
        <ele>1821.7</ele>
        <time>2000-01-01T10:17:33.000Z</time>
      </trkpt>
      <trkpt lat="46.14743" lon="6.78927">
        <ele>1818.1</ele>
        <time>2000-01-01T10:17:43.000Z</time>
      </trkpt>
      <trkpt lat="46.14738" lon="6.78919">
        <ele>1811</ele>
        <time>2000-01-01T10:17:53.000Z</time>
      </trkpt>
      <trkpt lat="46.14735" lon="6.78913">
        <ele>1812.7</ele>
        <time>2000-01-01T10:18:03.000Z</time>
      </trkpt>
      <trkpt lat="46.14729" lon="6.78908">
        <ele>1810.9</ele>
        <time>2000-01-01T10:18:13.000Z</time>
      </trkpt>
      <trkpt lat="46.14726" lon="6.78902">
        <ele>1808.7</ele>
        <time>2000-01-01T10:18:23.000Z</time>
      </trkpt>
      <trkpt lat="46.14725" lon="6.78896">
        <ele>1804</ele>
        <time>2000-01-01T10:18:33.000Z</time>
      </trkpt>
      <trkpt lat="46.14724" lon="6.78892">
        <ele>1805.1</ele>
        <time>2000-01-01T10:18:43.000Z</time>
      </trkpt>
      <trkpt lat="46.14721" lon="6.78886">
        <ele>1803.2</ele>
        <time>2000-01-01T10:18:53.000Z</time>
      </trkpt>
      <trkpt lat="46.14714" lon="6.78878">
        <ele>1801</ele>
        <time>2000-01-01T10:19:03.000Z</time>
      </trkpt>
      <trkpt lat="46.14709" lon="6.78874">
        <ele>1799</ele>
        <time>2000-01-01T10:19:13.000Z</time>
      </trkpt>
      <trkpt lat="46.147" lon="6.78875">
        <ele>1800.4</ele>
        <time>2000-01-01T10:19:23.000Z</time>
      </trkpt>
      <trkpt lat="46.14696" lon="6.78874">
        <ele>1800.2</ele>
        <time>2000-01-01T10:19:33.000Z</time>
      </trkpt>
      <trkpt lat="46.14693" lon="6.78871">
        <ele>1799.3</ele>
        <time>2000-01-01T10:19:43.000Z</time>
      </trkpt>
      <trkpt lat="46.14692" lon="6.78867">
        <ele>1796</ele>
        <time>2000-01-01T10:19:53.000Z</time>
      </trkpt>
      <trkpt lat="46.14691" lon="6.78863">
        <ele>1797.1</ele>
        <time>2000-01-01T10:20:03.000Z</time>
      </trkpt>
      <trkpt lat="46.14688" lon="6.78855">
        <ele>1795</ele>
        <time>2000-01-01T10:20:13.000Z</time>
      </trkpt>
      <trkpt lat="46.14684" lon="6.78849">
        <ele>1793.3</ele>
        <time>2000-01-01T10:20:23.000Z</time>
      </trkpt>
      <trkpt lat="46.14682" lon="6.78844">
        <ele>1792</ele>
        <time>2000-01-01T10:20:33.000Z</time>
      </trkpt>
      <trkpt lat="46.14684" lon="6.78831">
        <ele>1789</ele>
        <time>2000-01-01T10:20:43.000Z</time>
      </trkpt>
      <trkpt lat="46.14682" lon="6.78825">
        <ele>1788</ele>
        <time>2000-01-01T10:20:53.000Z</time>
      </trkpt>
      <trkpt lat="46.1468" lon="6.78817">
        <ele>1786.2</ele>
        <time>2000-01-01T10:21:03.000Z</time>
      </trkpt>
      <trkpt lat="46.14676" lon="6.78809">
        <ele>1784.6</ele>
        <time>2000-01-01T10:21:13.000Z</time>
      </trkpt>
      <trkpt lat="46.14669" lon="6.78804">
        <ele>1782</ele>
        <time>2000-01-01T10:21:23.000Z</time>
      </trkpt>
      <trkpt lat="46.14656" lon="6.78798">
        <ele>1779.9</ele>
        <time>2000-01-01T10:21:33.000Z</time>
      </trkpt>
      <trkpt lat="46.14652" lon="6.78795">
        <ele>1778.5</ele>
        <time>2000-01-01T10:21:43.000Z</time>
      </trkpt>
      <trkpt lat="46.14646" lon="6.78793">
        <ele>1775</ele>
        <time>2000-01-01T10:21:53.000Z</time>
      </trkpt>
      <trkpt lat="46.14644" lon="6.78789">
        <ele>1775.6</ele>
        <time>2000-01-01T10:22:03.000Z</time>
      </trkpt>
      <trkpt lat="46.14643" lon="6.78784">
        <ele>1774.7</ele>
        <time>2000-01-01T10:22:13.000Z</time>
      </trkpt>
      <trkpt lat="46.14645" lon="6.78777">
        <ele>1774.5</ele>
        <time>2000-01-01T10:22:23.000Z</time>
      </trkpt>
      <trkpt lat="46.14644" lon="6.78769">
        <ele>1773.5</ele>
        <time>2000-01-01T10:22:33.000Z</time>
      </trkpt>
      <trkpt lat="46.14643" lon="6.78758">
        <ele>1772</ele>
        <time>2000-01-01T10:22:43.000Z</time>
      </trkpt>
      <trkpt lat="46.14642" lon="6.78746">
        <ele>1771.2</ele>
        <time>2000-01-01T10:22:53.000Z</time>
      </trkpt>
      <trkpt lat="46.14639" lon="6.78727">
        <ele>1764</ele>
        <time>2000-01-01T10:23:03.000Z</time>
      </trkpt>
      <trkpt lat="46.14637" lon="6.78699">
        <ele>1763</ele>
        <time>2000-01-01T10:23:13.000Z</time>
      </trkpt>
      <trkpt lat="46.14636" lon="6.78682">
        <ele>1763.5</ele>
        <time>2000-01-01T10:23:23.000Z</time>
      </trkpt>
      <trkpt lat="46.14635" lon="6.78673">
        <ele>1762.1</ele>
        <time>2000-01-01T10:23:33.000Z</time>
      </trkpt>
      <trkpt lat="46.14632" lon="6.78657">
        <ele>1758</ele>
        <time>2000-01-01T10:23:43.000Z</time>
      </trkpt>
      <trkpt lat="46.14629" lon="6.7864">
        <ele>1755</ele>
        <time>2000-01-01T10:23:53.000Z</time>
      </trkpt>
      <trkpt lat="46.14627" lon="6.78626">
        <ele>1752</ele>
        <time>2000-01-01T10:24:03.000Z</time>
      </trkpt>
      <trkpt lat="46.14622" lon="6.78608">
        <ele>1749.8</ele>
        <time>2000-01-01T10:24:13.000Z</time>
      </trkpt>
      <trkpt lat="46.14618" lon="6.78588">
        <ele>1746</ele>
        <time>2000-01-01T10:24:23.000Z</time>
      </trkpt>
      <trkpt lat="46.14616" lon="6.78572">
        <ele>1745.6</ele>
        <time>2000-01-01T10:24:33.000Z</time>
      </trkpt>
      <trkpt lat="46.14613" lon="6.78562">
        <ele>1744</ele>
        <time>2000-01-01T10:24:43.000Z</time>
      </trkpt>
      <trkpt lat="46.14612" lon="6.78555">
        <ele>1743.9</ele>
        <time>2000-01-01T10:24:53.000Z</time>
      </trkpt>
      <trkpt lat="46.14615" lon="6.78548">
        <ele>1742.9</ele>
        <time>2000-01-01T10:25:03.000Z</time>
      </trkpt>
      <trkpt lat="46.14615" lon="6.78542">
        <ele>1742.3</ele>
        <time>2000-01-01T10:25:13.000Z</time>
      </trkpt>
      <trkpt lat="46.14615" lon="6.78528">
        <ele>1740</ele>
        <time>2000-01-01T10:25:23.000Z</time>
      </trkpt>
      <trkpt lat="46.14612" lon="6.78513">
        <ele>1739.3</ele>
        <time>2000-01-01T10:25:33.000Z</time>
      </trkpt>
      <trkpt lat="46.14606" lon="6.78487">
        <ele>1736</ele>
        <time>2000-01-01T10:25:43.000Z</time>
      </trkpt>
      <trkpt lat="46.14594" lon="6.78451">
        <ele>1732</ele>
        <time>2000-01-01T10:25:53.000Z</time>
      </trkpt>
      <trkpt lat="46.14583" lon="6.78413">
        <ele>1725</ele>
        <time>2000-01-01T10:26:03.000Z</time>
      </trkpt>
      <trkpt lat="46.14581" lon="6.78406">
        <ele>1722.8</ele>
        <time>2000-01-01T10:26:13.000Z</time>
      </trkpt>
      <trkpt lat="46.14575" lon="6.78394">
        <ele>1720</ele>
        <time>2000-01-01T10:26:23.000Z</time>
      </trkpt>
      <trkpt lat="46.14568" lon="6.78385">
        <ele>1719</ele>
        <time>2000-01-01T10:26:33.000Z</time>
      </trkpt>
      <trkpt lat="46.14559" lon="6.78371">
        <ele>1715.5</ele>
        <time>2000-01-01T10:26:43.000Z</time>
      </trkpt>
      <trkpt lat="46.14539" lon="6.78348">
        <ele>1704</ele>
        <time>2000-01-01T10:26:53.000Z</time>
      </trkpt>
      <trkpt lat="46.14538" lon="6.78343">
        <ele>1705.4</ele>
        <time>2000-01-01T10:27:03.000Z</time>
      </trkpt>
      <trkpt lat="46.14539" lon="6.78332">
        <ele>1702.5</ele>
        <time>2000-01-01T10:27:13.000Z</time>
      </trkpt>
      <trkpt lat="46.14537" lon="6.78324">
        <ele>1700.4</ele>
        <time>2000-01-01T10:27:23.000Z</time>
      </trkpt>
      <trkpt lat="46.14533" lon="6.78322">
        <ele>1700</ele>
        <time>2000-01-01T10:27:33.000Z</time>
      </trkpt>
      <trkpt lat="46.14533" lon="6.78322">
        <ele>1699.8</ele>
        <time>2000-01-01T10:27:43.000Z</time>
      </trkpt>
      <trkpt lat="46.14533" lon="6.78322">
        <ele>1699.8</ele>
        <time>2000-01-01T10:27:53.000Z</time>
      </trkpt>
      <trkpt lat="46.14522" lon="6.78324">
        <ele>1697.8</ele>
        <time>2000-01-01T10:28:03.000Z</time>
      </trkpt>
      <trkpt lat="46.14518" lon="6.78323">
        <ele>1696</ele>
        <time>2000-01-01T10:28:13.000Z</time>
      </trkpt>
      <trkpt lat="46.14516" lon="6.78319">
        <ele>1690</ele>
        <time>2000-01-01T10:28:23.000Z</time>
      </trkpt>
      <trkpt lat="46.14513" lon="6.7831">
        <ele>1691.6</ele>
        <time>2000-01-01T10:28:33.000Z</time>
      </trkpt>
      <trkpt lat="46.14512" lon="6.78301">
        <ele>1689.4</ele>
        <time>2000-01-01T10:28:43.000Z</time>
      </trkpt>
      <trkpt lat="46.14514" lon="6.7829">
        <ele>1687</ele>
        <time>2000-01-01T10:28:53.000Z</time>
      </trkpt>
      <trkpt lat="46.14518" lon="6.78282">
        <ele>1687.7</ele>
        <time>2000-01-01T10:29:03.000Z</time>
      </trkpt>
      <trkpt lat="46.1452" lon="6.78276">
        <ele>1687.1</ele>
        <time>2000-01-01T10:29:13.000Z</time>
      </trkpt>
      <trkpt lat="46.14522" lon="6.78266">
        <ele>1685.7</ele>
        <time>2000-01-01T10:29:23.000Z</time>
      </trkpt>
      <trkpt lat="46.14527" lon="6.78257">
        <ele>1682</ele>
        <time>2000-01-01T10:29:33.000Z</time>
      </trkpt>
      <trkpt lat="46.1453" lon="6.78247">
        <ele>1683.3</ele>
        <time>2000-01-01T10:29:43.000Z</time>
      </trkpt>
      <trkpt lat="46.14533" lon="6.78235">
        <ele>1680.5</ele>
        <time>2000-01-01T10:29:53.000Z</time>
      </trkpt>
      <trkpt lat="46.14537" lon="6.78223">
        <ele>1677</ele>
        <time>2000-01-01T10:30:03.000Z</time>
      </trkpt>
      <trkpt lat="46.14538" lon="6.78214">
        <ele>1675.9</ele>
        <time>2000-01-01T10:30:13.000Z</time>
      </trkpt>
      <trkpt lat="46.14539" lon="6.78201">
        <ele>1672.9</ele>
        <time>2000-01-01T10:30:23.000Z</time>
      </trkpt>
      <trkpt lat="46.14538" lon="6.78196">
        <ele>1670</ele>
        <time>2000-01-01T10:30:33.000Z</time>
      </trkpt>
      <trkpt lat="46.14537" lon="6.78183">
        <ele>1668.4</ele>
        <time>2000-01-01T10:30:43.000Z</time>
      </trkpt>
      <trkpt lat="46.14539" lon="6.78174">
        <ele>1666.3</ele>
        <time>2000-01-01T10:30:53.000Z</time>
      </trkpt>
      <trkpt lat="46.1454" lon="6.7817">
        <ele>1665.3</ele>
        <time>2000-01-01T10:31:03.000Z</time>
      </trkpt>
      <trkpt lat="46.14541" lon="6.78165">
        <ele>1664</ele>
        <time>2000-01-01T10:31:13.000Z</time>
      </trkpt>
      <trkpt lat="46.14544" lon="6.78132">
        <ele>1656</ele>
        <time>2000-01-01T10:31:23.000Z</time>
      </trkpt>
      <trkpt lat="46.14544" lon="6.78125">
        <ele>1653.2</ele>
        <time>2000-01-01T10:31:33.000Z</time>
      </trkpt>
      <trkpt lat="46.14548" lon="6.78118">
        <ele>1651.3</ele>
        <time>2000-01-01T10:31:43.000Z</time>
      </trkpt>
      <trkpt lat="46.14555" lon="6.78113">
        <ele>1650.5</ele>
        <time>2000-01-01T10:31:53.000Z</time>
      </trkpt>
      <trkpt lat="46.14561" lon="6.78114">
        <ele>1654</ele>
        <time>2000-01-01T10:32:03.000Z</time>
      </trkpt>
      <trkpt lat="46.14568" lon="6.78121">
        <ele>1650</ele>
        <time>2000-01-01T10:32:13.000Z</time>
      </trkpt>
      <trkpt lat="46.14572" lon="6.7813">
        <ele>1651.5</ele>
        <time>2000-01-01T10:32:23.000Z</time>
      </trkpt>
      <trkpt lat="46.14575" lon="6.78136">
        <ele>1652</ele>
        <time>2000-01-01T10:32:33.000Z</time>
      </trkpt>
      <trkpt lat="46.14579" lon="6.78138">
        <ele>1651.9</ele>
        <time>2000-01-01T10:32:43.000Z</time>
      </trkpt>
      <trkpt lat="46.14587" lon="6.78145">
        <ele>1651.3</ele>
        <time>2000-01-01T10:32:53.000Z</time>
      </trkpt>
      <trkpt lat="46.14591" lon="6.78148">
        <ele>1650.7</ele>
        <time>2000-01-01T10:33:03.000Z</time>
      </trkpt>
      <trkpt lat="46.14594" lon="6.78148">
        <ele>1649</ele>
        <time>2000-01-01T10:33:13.000Z</time>
      </trkpt>
      <trkpt lat="46.14596" lon="6.78144">
        <ele>1647.5</ele>
        <time>2000-01-01T10:33:23.000Z</time>
      </trkpt>
      <trkpt lat="46.14593" lon="6.7813">
        <ele>1645</ele>
        <time>2000-01-01T10:33:33.000Z</time>
      </trkpt>
      <trkpt lat="46.14592" lon="6.78115">
        <ele>1641</ele>
        <time>2000-01-01T10:33:43.000Z</time>
      </trkpt>
      <trkpt lat="46.14594" lon="6.781">
        <ele>1637.9</ele>
        <time>2000-01-01T10:33:53.000Z</time>
      </trkpt>
      <trkpt lat="46.14595" lon="6.7809">
        <ele>1635.6</ele>
        <time>2000-01-01T10:34:03.000Z</time>
      </trkpt>
      <trkpt lat="46.14593" lon="6.78078">
        <ele>1632</ele>
        <time>2000-01-01T10:34:13.000Z</time>
      </trkpt>
      <trkpt lat="46.14589" lon="6.78064">
        <ele>1631</ele>
        <time>2000-01-01T10:34:23.000Z</time>
      </trkpt>
      <trkpt lat="46.14584" lon="6.78057">
        <ele>1630.3</ele>
        <time>2000-01-01T10:34:33.000Z</time>
      </trkpt>
      <trkpt lat="46.14561" lon="6.78036">
        <ele>1622</ele>
        <time>2000-01-01T10:34:43.000Z</time>
      </trkpt>
      <trkpt lat="46.14549" lon="6.78025">
        <ele>1620.4</ele>
        <time>2000-01-01T10:34:53.000Z</time>
      </trkpt>
      <trkpt lat="46.14543" lon="6.78019">
        <ele>1616</ele>
        <time>2000-01-01T10:35:03.000Z</time>
      </trkpt>
      <trkpt lat="46.14541" lon="6.78009">
        <ele>1615.9</ele>
        <time>2000-01-01T10:35:13.000Z</time>
      </trkpt>
      <trkpt lat="46.14539" lon="6.77994">
        <ele>1612.4</ele>
        <time>2000-01-01T10:35:23.000Z</time>
      </trkpt>
      <trkpt lat="46.14539" lon="6.77988">
        <ele>1612</ele>
        <time>2000-01-01T10:35:33.000Z</time>
      </trkpt>
      <trkpt lat="46.14543" lon="6.77981">
        <ele>1609.6</ele>
        <time>2000-01-01T10:35:43.000Z</time>
      </trkpt>
      <trkpt lat="46.14548" lon="6.77978">
        <ele>1609.1</ele>
        <time>2000-01-01T10:35:53.000Z</time>
      </trkpt>
      <trkpt lat="46.14554" lon="6.77978">
        <ele>1609.4</ele>
        <time>2000-01-01T10:36:03.000Z</time>
      </trkpt>
      <trkpt lat="46.14562" lon="6.77983">
        <ele>1611</ele>
        <time>2000-01-01T10:36:13.000Z</time>
      </trkpt>
      <trkpt lat="46.14568" lon="6.77983">
        <ele>1609.4</ele>
        <time>2000-01-01T10:36:23.000Z</time>
      </trkpt>
      <trkpt lat="46.14577" lon="6.77991">
        <ele>1610.4</ele>
        <time>2000-01-01T10:36:33.000Z</time>
      </trkpt>
      <trkpt lat="46.14584" lon="6.77996">
        <ele>1610</ele>
        <time>2000-01-01T10:36:43.000Z</time>
      </trkpt>
      <trkpt lat="46.14589" lon="6.77999">
        <ele>1610.7</ele>
        <time>2000-01-01T10:36:53.000Z</time>
      </trkpt>
      <trkpt lat="46.14596" lon="6.77997">
        <ele>1608.9</ele>
        <time>2000-01-01T10:37:03.000Z</time>
      </trkpt>
      <trkpt lat="46.146" lon="6.77996">
        <ele>1607.9</ele>
        <time>2000-01-01T10:37:13.000Z</time>
      </trkpt>
      <trkpt lat="46.14592" lon="6.77988">
        <ele>1605</ele>
        <time>2000-01-01T10:37:23.000Z</time>
      </trkpt>
      <trkpt lat="46.14587" lon="6.77982">
        <ele>1606.7</ele>
        <time>2000-01-01T10:37:33.000Z</time>
      </trkpt>
      <trkpt lat="46.14581" lon="6.77969">
        <ele>1604.4</ele>
        <time>2000-01-01T10:37:43.000Z</time>
      </trkpt>
      <trkpt lat="46.1457" lon="6.77941">
        <ele>1600</ele>
        <time>2000-01-01T10:37:53.000Z</time>
      </trkpt>
      <trkpt lat="46.14563" lon="6.77925">
        <ele>1595.8</ele>
        <time>2000-01-01T10:38:03.000Z</time>
      </trkpt>
      <trkpt lat="46.14551" lon="6.77908">
        <ele>1590</ele>
        <time>2000-01-01T10:38:13.000Z</time>
      </trkpt>
      <trkpt lat="46.14541" lon="6.77903">
        <ele>1590.3</ele>
        <time>2000-01-01T10:38:23.000Z</time>
      </trkpt>
      <trkpt lat="46.14524" lon="6.77894">
        <ele>1585</ele>
        <time>2000-01-01T10:38:33.000Z</time>
      </trkpt>
      <trkpt lat="46.14516" lon="6.77893">
        <ele>1585.8</ele>
        <time>2000-01-01T10:38:43.000Z</time>
      </trkpt>
      <trkpt lat="46.14505" lon="6.77896">
        <ele>1582</ele>
        <time>2000-01-01T10:38:53.000Z</time>
      </trkpt>
      <trkpt lat="46.14497" lon="6.77899">
        <ele>1584.8</ele>
        <time>2000-01-01T10:39:03.000Z</time>
      </trkpt>
      <trkpt lat="46.14487" lon="6.77907">
        <ele>1581</ele>
        <time>2000-01-01T10:39:13.000Z</time>
      </trkpt>
      <trkpt lat="46.14478" lon="6.77916">
        <ele>1583.5</ele>
        <time>2000-01-01T10:39:23.000Z</time>
      </trkpt>
      <trkpt lat="46.14468" lon="6.77923">
        <ele>1578</ele>
        <time>2000-01-01T10:39:33.000Z</time>
      </trkpt>
      <trkpt lat="46.14459" lon="6.77932">
        <ele>1579.7</ele>
        <time>2000-01-01T10:39:43.000Z</time>
      </trkpt>
      <trkpt lat="46.14453" lon="6.7794">
        <ele>1577</ele>
        <time>2000-01-01T10:39:53.000Z</time>
      </trkpt>
      <trkpt lat="46.14449" lon="6.77951">
        <ele>1578.7</ele>
        <time>2000-01-01T10:40:03.000Z</time>
      </trkpt>
      <trkpt lat="46.14444" lon="6.77967">
        <ele>1577</ele>
        <time>2000-01-01T10:40:13.000Z</time>
      </trkpt>
      <trkpt lat="46.14441" lon="6.77976">
        <ele>1579.3</ele>
        <time>2000-01-01T10:40:23.000Z</time>
      </trkpt>
      <trkpt lat="46.14434" lon="6.77985">
        <ele>1578</ele>
        <time>2000-01-01T10:40:33.000Z</time>
      </trkpt>
      <trkpt lat="46.14429" lon="6.77991">
        <ele>1573</ele>
        <time>2000-01-01T10:40:43.000Z</time>
      </trkpt>
      <trkpt lat="46.14425" lon="6.77991">
        <ele>1575.2</ele>
        <time>2000-01-01T10:40:53.000Z</time>
      </trkpt>
      <trkpt lat="46.14423" lon="6.77988">
        <ele>1573.9</ele>
        <time>2000-01-01T10:41:03.000Z</time>
      </trkpt>
      <trkpt lat="46.14423" lon="6.77983">
        <ele>1573.1</ele>
        <time>2000-01-01T10:41:13.000Z</time>
      </trkpt>
      <trkpt lat="46.14431" lon="6.7797">
        <ele>1573</ele>
        <time>2000-01-01T10:41:23.000Z</time>
      </trkpt>
      <trkpt lat="46.14433" lon="6.77961">
        <ele>1573.9</ele>
        <time>2000-01-01T10:41:33.000Z</time>
      </trkpt>
      <trkpt lat="46.14434" lon="6.77953">
        <ele>1573.1</ele>
        <time>2000-01-01T10:41:43.000Z</time>
      </trkpt>
      <trkpt lat="46.14434" lon="6.77932">
        <ele>1569</ele>
        <time>2000-01-01T10:41:53.000Z</time>
      </trkpt>
      <trkpt lat="46.14434" lon="6.77921">
        <ele>1568.5</ele>
        <time>2000-01-01T10:42:03.000Z</time>
      </trkpt>
      <trkpt lat="46.14436" lon="6.77911">
        <ele>1567.7</ele>
        <time>2000-01-01T10:42:13.000Z</time>
      </trkpt>
      <trkpt lat="46.14438" lon="6.77903">
        <ele>1568</ele>
        <time>2000-01-01T10:42:23.000Z</time>
      </trkpt>
      <trkpt lat="46.14446" lon="6.77892">
        <ele>1568.1</ele>
        <time>2000-01-01T10:42:33.000Z</time>
      </trkpt>
      <trkpt lat="46.14451" lon="6.77884">
        <ele>1567</ele>
        <time>2000-01-01T10:42:43.000Z</time>
      </trkpt>
      <trkpt lat="46.14455" lon="6.77878">
        <ele>1568.7</ele>
        <time>2000-01-01T10:42:53.000Z</time>
      </trkpt>
      <trkpt lat="46.14458" lon="6.77873">
        <ele>1568.7</ele>
        <time>2000-01-01T10:43:03.000Z</time>
      </trkpt>
      <trkpt lat="46.14459" lon="6.77862">
        <ele>1566.9</ele>
        <time>2000-01-01T10:43:13.000Z</time>
      </trkpt>
      <trkpt lat="46.1446" lon="6.77851">
        <ele>1565</ele>
        <time>2000-01-01T10:43:23.000Z</time>
      </trkpt>
      <trkpt lat="46.14463" lon="6.77839">
        <ele>1563.5</ele>
        <time>2000-01-01T10:43:33.000Z</time>
      </trkpt>
      <trkpt lat="46.14469" lon="6.77824">
        <ele>1560</ele>
        <time>2000-01-01T10:43:43.000Z</time>
      </trkpt>
      <trkpt lat="46.14472" lon="6.77818">
        <ele>1561.6</ele>
        <time>2000-01-01T10:43:53.000Z</time>
      </trkpt>
      <trkpt lat="46.14478" lon="6.77812">
        <ele>1560.9</ele>
        <time>2000-01-01T10:44:03.000Z</time>
      </trkpt>
      <trkpt lat="46.14481" lon="6.77807">
        <ele>1560</ele>
        <time>2000-01-01T10:44:13.000Z</time>
      </trkpt>
      <trkpt lat="46.14483" lon="6.77802">
        <ele>1558</ele>
        <time>2000-01-01T10:44:23.000Z</time>
      </trkpt>
      <trkpt lat="46.14481" lon="6.77797">
        <ele>1557.6</ele>
        <time>2000-01-01T10:44:33.000Z</time>
      </trkpt>
      <trkpt lat="46.14478" lon="6.77794">
        <ele>1556.7</ele>
        <time>2000-01-01T10:44:43.000Z</time>
      </trkpt>
      <trkpt lat="46.14473" lon="6.77796">
        <ele>1557</ele>
        <time>2000-01-01T10:44:53.000Z</time>
      </trkpt>
      <trkpt lat="46.14468" lon="6.77802">
        <ele>1557</ele>
        <time>2000-01-01T10:45:03.000Z</time>
      </trkpt>
      <trkpt lat="46.14451" lon="6.77824">
        <ele>1556</ele>
        <time>2000-01-01T10:45:13.000Z</time>
      </trkpt>
      <trkpt lat="46.14444" lon="6.77834">
        <ele>1557</ele>
        <time>2000-01-01T10:45:23.000Z</time>
      </trkpt>
      <trkpt lat="46.14438" lon="6.77842">
        <ele>1556.4</ele>
        <time>2000-01-01T10:45:33.000Z</time>
      </trkpt>
      <trkpt lat="46.1443" lon="6.7785">
        <ele>1550</ele>
        <time>2000-01-01T10:45:43.000Z</time>
      </trkpt>
      <trkpt lat="46.1442" lon="6.77859">
        <ele>1552.9</ele>
        <time>2000-01-01T10:45:53.000Z</time>
      </trkpt>
      <trkpt lat="46.14412" lon="6.77864">
        <ele>1549</ele>
        <time>2000-01-01T10:46:03.000Z</time>
      </trkpt>
      <trkpt lat="46.14405" lon="6.77872">
        <ele>1550</ele>
        <time>2000-01-01T10:46:13.000Z</time>
      </trkpt>
      <trkpt lat="46.14399" lon="6.77882">
        <ele>1549.6</ele>
        <time>2000-01-01T10:46:23.000Z</time>
      </trkpt>
      <trkpt lat="46.14395" lon="6.77891">
        <ele>1546</ele>
        <time>2000-01-01T10:46:33.000Z</time>
      </trkpt>
      <trkpt lat="46.14391" lon="6.77895">
        <ele>1548.6</ele>
        <time>2000-01-01T10:46:43.000Z</time>
      </trkpt>
      <trkpt lat="46.14377" lon="6.77907">
        <ele>1543</ele>
        <time>2000-01-01T10:46:53.000Z</time>
      </trkpt>
      <trkpt lat="46.14372" lon="6.77912">
        <ele>1544.4</ele>
        <time>2000-01-01T10:47:03.000Z</time>
      </trkpt>
      <trkpt lat="46.14366" lon="6.77922">
        <ele>1543.3</ele>
        <time>2000-01-01T10:47:13.000Z</time>
      </trkpt>
      <trkpt lat="46.14359" lon="6.77929">
        <ele>1537</ele>
        <time>2000-01-01T10:47:23.000Z</time>
      </trkpt>
      <trkpt lat="46.14352" lon="6.77937">
        <ele>1539.8</ele>
        <time>2000-01-01T10:47:33.000Z</time>
      </trkpt>
      <trkpt lat="46.14347" lon="6.77941">
        <ele>1538.2</ele>
        <time>2000-01-01T10:47:43.000Z</time>
      </trkpt>
      <trkpt lat="46.14342" lon="6.77942">
        <ele>1535</ele>
        <time>2000-01-01T10:47:53.000Z</time>
      </trkpt>
      <trkpt lat="46.14338" lon="6.77948">
        <ele>1535</ele>
        <time>2000-01-01T10:48:03.000Z</time>
      </trkpt>
      <trkpt lat="46.14333" lon="6.77961">
        <ele>1533.5</ele>
        <time>2000-01-01T10:48:13.000Z</time>
      </trkpt>
      <trkpt lat="46.14332" lon="6.77971">
        <ele>1532</ele>
        <time>2000-01-01T10:48:23.000Z</time>
      </trkpt>
      <trkpt lat="46.1433" lon="6.77976">
        <ele>1533.2</ele>
        <time>2000-01-01T10:48:33.000Z</time>
      </trkpt>
      <trkpt lat="46.14326" lon="6.77979">
        <ele>1532</ele>
        <time>2000-01-01T10:48:43.000Z</time>
      </trkpt>
      <trkpt lat="46.14315" lon="6.7798">
        <ele>1525</ele>
        <time>2000-01-01T10:48:53.000Z</time>
      </trkpt>
      <trkpt lat="46.14312" lon="6.77981">
        <ele>1526.6</ele>
        <time>2000-01-01T10:49:03.000Z</time>
      </trkpt>
      <trkpt lat="46.14308" lon="6.77984">
        <ele>1525.3</ele>
        <time>2000-01-01T10:49:13.000Z</time>
      </trkpt>
      <trkpt lat="46.14299" lon="6.78001">
        <ele>1518</ele>
        <time>2000-01-01T10:49:23.000Z</time>
      </trkpt>
      <trkpt lat="46.14295" lon="6.7801">
        <ele>1522.1</ele>
        <time>2000-01-01T10:49:33.000Z</time>
      </trkpt>
      <trkpt lat="46.14289" lon="6.78018">
        <ele>1520.2</ele>
        <time>2000-01-01T10:49:43.000Z</time>
      </trkpt>
      <trkpt lat="46.14282" lon="6.78027">
        <ele>1516</ele>
        <time>2000-01-01T10:49:53.000Z</time>
      </trkpt>
      <trkpt lat="46.14276" lon="6.78035">
        <ele>1515.8</ele>
        <time>2000-01-01T10:50:03.000Z</time>
      </trkpt>
      <trkpt lat="46.14273" lon="6.78041">
        <ele>1514.8</ele>
        <time>2000-01-01T10:50:13.000Z</time>
      </trkpt>
      <trkpt lat="46.14268" lon="6.78053">
        <ele>1508</ele>
        <time>2000-01-01T10:50:23.000Z</time>
      </trkpt>
      <trkpt lat="46.14264" lon="6.78069">
        <ele>1512.3</ele>
        <time>2000-01-01T10:50:33.000Z</time>
      </trkpt>
      <trkpt lat="46.1426" lon="6.7808">
        <ele>1506</ele>
        <time>2000-01-01T10:50:43.000Z</time>
      </trkpt>
      <trkpt lat="46.14251" lon="6.78097">
        <ele>1507.1</ele>
        <time>2000-01-01T10:50:53.000Z</time>
      </trkpt>
      <trkpt lat="46.14241" lon="6.78118">
        <ele>1500</ele>
        <time>2000-01-01T10:51:03.000Z</time>
      </trkpt>
      <trkpt lat="46.14234" lon="6.78138">
        <ele>1500.1</ele>
        <time>2000-01-01T10:51:13.000Z</time>
      </trkpt>
      <trkpt lat="46.1423" lon="6.78155">
        <ele>1498</ele>
        <time>2000-01-01T10:51:23.000Z</time>
      </trkpt>
      <trkpt lat="46.14228" lon="6.78177">
        <ele>1499</ele>
        <time>2000-01-01T10:51:33.000Z</time>
      </trkpt>
      <trkpt lat="46.14226" lon="6.78187">
        <ele>1495</ele>
        <time>2000-01-01T10:51:43.000Z</time>
      </trkpt>
      <trkpt lat="46.14224" lon="6.78188">
        <ele>1497.5</ele>
        <time>2000-01-01T10:51:53.000Z</time>
      </trkpt>
      <trkpt lat="46.14219" lon="6.78183">
        <ele>1495.2</ele>
        <time>2000-01-01T10:52:03.000Z</time>
      </trkpt>
      <trkpt lat="46.14216" lon="6.78186">
        <ele>1494.5</ele>
        <time>2000-01-01T10:52:13.000Z</time>
      </trkpt>
      <trkpt lat="46.14214" lon="6.78193">
        <ele>1494.5</ele>
        <time>2000-01-01T10:52:23.000Z</time>
      </trkpt>
      <trkpt lat="46.14213" lon="6.782">
        <ele>1493</ele>
        <time>2000-01-01T10:52:33.000Z</time>
      </trkpt>
      <trkpt lat="46.14211" lon="6.78207">
        <ele>1495</ele>
        <time>2000-01-01T10:52:43.000Z</time>
      </trkpt>
      <trkpt lat="46.1421" lon="6.78217">
        <ele>1495.8</ele>
        <time>2000-01-01T10:52:53.000Z</time>
      </trkpt>
      <trkpt lat="46.14208" lon="6.78222">
        <ele>1495.9</ele>
        <time>2000-01-01T10:53:03.000Z</time>
      </trkpt>
      <trkpt lat="46.14206" lon="6.78224">
        <ele>1492</ele>
        <time>2000-01-01T10:53:13.000Z</time>
      </trkpt>
      <trkpt lat="46.14205" lon="6.78227">
        <ele>1496.1</ele>
        <time>2000-01-01T10:53:23.000Z</time>
      </trkpt>
      <trkpt lat="46.14196" lon="6.78226">
        <ele>1494</ele>
        <time>2000-01-01T10:53:33.000Z</time>
      </trkpt>
      <trkpt lat="46.1419" lon="6.78221">
        <ele>1492.6</ele>
        <time>2000-01-01T10:53:43.000Z</time>
      </trkpt>
      <trkpt lat="46.14182" lon="6.78209">
        <ele>1487</ele>
        <time>2000-01-01T10:53:53.000Z</time>
      </trkpt>
      <trkpt lat="46.14174" lon="6.78199">
        <ele>1487.7</ele>
        <time>2000-01-01T10:54:03.000Z</time>
      </trkpt>
      <trkpt lat="46.14168" lon="6.78193">
        <ele>1485.9</ele>
        <time>2000-01-01T10:54:13.000Z</time>
      </trkpt>
      <trkpt lat="46.14162" lon="6.7819">
        <ele>1486</ele>
        <time>2000-01-01T10:54:23.000Z</time>
      </trkpt>
      <trkpt lat="46.14157" lon="6.78191">
        <ele>1485.7</ele>
        <time>2000-01-01T10:54:33.000Z</time>
      </trkpt>
      <trkpt lat="46.14149" lon="6.78194">
        <ele>1486.6</ele>
        <time>2000-01-01T10:54:43.000Z</time>
      </trkpt>
      <trkpt lat="46.14129" lon="6.78196">
        <ele>1486</ele>
        <time>2000-01-01T10:54:53.000Z</time>
      </trkpt>
      <trkpt lat="46.1412" lon="6.78196">
        <ele>1488</ele>
        <time>2000-01-01T10:55:03.000Z</time>
      </trkpt>
      <trkpt lat="46.14112" lon="6.78193">
        <ele>1487.8</ele>
        <time>2000-01-01T10:55:13.000Z</time>
      </trkpt>
      <trkpt lat="46.14102" lon="6.78186">
        <ele>1485</ele>
        <time>2000-01-01T10:55:23.000Z</time>
      </trkpt>
      <trkpt lat="46.14098" lon="6.78183">
        <ele>1486.6</ele>
        <time>2000-01-01T10:55:33.000Z</time>
      </trkpt>
      <trkpt lat="46.14092" lon="6.78179">
        <ele>1486.1</ele>
        <time>2000-01-01T10:55:43.000Z</time>
      </trkpt>
      <trkpt lat="46.14089" lon="6.78171">
        <ele>1484.7</ele>
        <time>2000-01-01T10:55:53.000Z</time>
      </trkpt>
      <trkpt lat="46.14088" lon="6.78159">
        <ele>1482</ele>
        <time>2000-01-01T10:56:03.000Z</time>
      </trkpt>
      <trkpt lat="46.14088" lon="6.78147">
        <ele>1482.5</ele>
        <time>2000-01-01T10:56:13.000Z</time>
      </trkpt>
      <trkpt lat="46.14087" lon="6.78136">
        <ele>1481.6</ele>
        <time>2000-01-01T10:56:23.000Z</time>
      </trkpt>
      <trkpt lat="46.14086" lon="6.78131">
        <ele>1481</ele>
        <time>2000-01-01T10:56:33.000Z</time>
      </trkpt>
      <trkpt lat="46.14083" lon="6.78127">
        <ele>1481.1</ele>
        <time>2000-01-01T10:56:43.000Z</time>
      </trkpt>
      <trkpt lat="46.14074" lon="6.78114">
        <ele>1478.9</ele>
        <time>2000-01-01T10:56:53.000Z</time>
      </trkpt>
      <trkpt lat="46.14063" lon="6.78099">
        <ele>1473</ele>
        <time>2000-01-01T10:57:03.000Z</time>
      </trkpt>
      <trkpt lat="46.14054" lon="6.78086">
        <ele>1473</ele>
        <time>2000-01-01T10:57:13.000Z</time>
      </trkpt>
      <trkpt lat="46.1405" lon="6.78081">
        <ele>1471.7</ele>
        <time>2000-01-01T10:57:23.000Z</time>
      </trkpt>
      <trkpt lat="46.14043" lon="6.78075">
        <ele>1467</ele>
        <time>2000-01-01T10:57:33.000Z</time>
      </trkpt>
      <trkpt lat="46.14036" lon="6.78071">
        <ele>1467.5</ele>
        <time>2000-01-01T10:57:43.000Z</time>
      </trkpt>
      <trkpt lat="46.14025" lon="6.78064">
        <ele>1462</ele>
        <time>2000-01-01T10:57:53.000Z</time>
      </trkpt>
      <trkpt lat="46.14011" lon="6.78057">
        <ele>1462.2</ele>
        <time>2000-01-01T10:58:03.000Z</time>
      </trkpt>
      <trkpt lat="46.14007" lon="6.78053">
        <ele>1460</ele>
        <time>2000-01-01T10:58:13.000Z</time>
      </trkpt>
      <trkpt lat="46.14002" lon="6.78043">
        <ele>1459.5</ele>
        <time>2000-01-01T10:58:23.000Z</time>
      </trkpt>
      <trkpt lat="46.13996" lon="6.78035">
        <ele>1458</ele>
        <time>2000-01-01T10:58:33.000Z</time>
      </trkpt>
      <trkpt lat="46.13991" lon="6.78025">
        <ele>1455</ele>
        <time>2000-01-01T10:58:43.000Z</time>
      </trkpt>
      <trkpt lat="46.13989" lon="6.78011">
        <ele>1453.7</ele>
        <time>2000-01-01T10:58:53.000Z</time>
      </trkpt>
      <trkpt lat="46.13985" lon="6.77997">
        <ele>1449</ele>
        <time>2000-01-01T10:59:03.000Z</time>
      </trkpt>
      <trkpt lat="46.1398" lon="6.77985">
        <ele>1449.4</ele>
        <time>2000-01-01T10:59:13.000Z</time>
      </trkpt>
      <trkpt lat="46.13977" lon="6.77964">
        <ele>1444</ele>
        <time>2000-01-01T10:59:23.000Z</time>
      </trkpt>
      <trkpt lat="46.13968" lon="6.77937">
        <ele>1441</ele>
        <time>2000-01-01T10:59:33.000Z</time>
      </trkpt>
      <trkpt lat="46.13958" lon="6.77915">
        <ele>1439.5</ele>
        <time>2000-01-01T10:59:43.000Z</time>
      </trkpt>
      <trkpt lat="46.13955" lon="6.77904">
        <ele>1438</ele>
        <time>2000-01-01T10:59:53.000Z</time>
      </trkpt>
      <trkpt lat="46.13949" lon="6.77887">
        <ele>1437.7</ele>
        <time>2000-01-01T11:00:03.000Z</time>
      </trkpt>
      <trkpt lat="46.13944" lon="6.77874">
        <ele>1434</ele>
        <time>2000-01-01T11:00:13.000Z</time>
      </trkpt>
      <trkpt lat="46.13943" lon="6.77872">
        <ele>1435.6</ele>
        <time>2000-01-01T11:00:23.000Z</time>
      </trkpt>
      <trkpt lat="46.13935" lon="6.77861">
        <ele>1434</ele>
        <time>2000-01-01T11:00:33.000Z</time>
      </trkpt>
      <trkpt lat="46.13922" lon="6.77844">
        <ele>1431</ele>
        <time>2000-01-01T11:00:43.000Z</time>
      </trkpt>
      <trkpt lat="46.13908" lon="6.77825">
        <ele>1427</ele>
        <time>2000-01-01T11:00:53.000Z</time>
      </trkpt>
      <trkpt lat="46.13899" lon="6.7781">
        <ele>1426.6</ele>
        <time>2000-01-01T11:01:03.000Z</time>
      </trkpt>
      <trkpt lat="46.13893" lon="6.77796">
        <ele>1423</ele>
        <time>2000-01-01T11:01:13.000Z</time>
      </trkpt>
      <trkpt lat="46.1389" lon="6.77786">
        <ele>1423.7</ele>
        <time>2000-01-01T11:01:23.000Z</time>
      </trkpt>
      <trkpt lat="46.13885" lon="6.77778">
        <ele>1423.2</ele>
        <time>2000-01-01T11:01:33.000Z</time>
      </trkpt>
      <trkpt lat="46.13882" lon="6.77771">
        <ele>1422</ele>
        <time>2000-01-01T11:01:43.000Z</time>
      </trkpt>
      <trkpt lat="46.1388" lon="6.77762">
        <ele>1422.2</ele>
        <time>2000-01-01T11:01:53.000Z</time>
      </trkpt>
      <trkpt lat="46.13868" lon="6.77755">
        <ele>1422</ele>
        <time>2000-01-01T11:02:03.000Z</time>
      </trkpt>
      <trkpt lat="46.13859" lon="6.77744">
        <ele>1422.2</ele>
        <time>2000-01-01T11:02:13.000Z</time>
      </trkpt>
      <trkpt lat="46.13851" lon="6.77733">
        <ele>1421</ele>
        <time>2000-01-01T11:02:23.000Z</time>
      </trkpt>
      <trkpt lat="46.13845" lon="6.77717">
        <ele>1423.7</ele>
        <time>2000-01-01T11:02:33.000Z</time>
      </trkpt>
      <trkpt lat="46.13844" lon="6.77704">
        <ele>1421</ele>
        <time>2000-01-01T11:02:43.000Z</time>
      </trkpt>
      <trkpt lat="46.13841" lon="6.77699">
        <ele>1421.5</ele>
        <time>2000-01-01T11:02:53.000Z</time>
      </trkpt>
      <trkpt lat="46.13834" lon="6.77694">
        <ele>1421.8</ele>
        <time>2000-01-01T11:03:03.000Z</time>
      </trkpt>
      <trkpt lat="46.1383" lon="6.77693">
        <ele>1422.4</ele>
        <time>2000-01-01T11:03:13.000Z</time>
      </trkpt>
      <trkpt lat="46.13828" lon="6.77691">
        <ele>1420</ele>
        <time>2000-01-01T11:03:23.000Z</time>
      </trkpt>
      <trkpt lat="46.1382" lon="6.7768">
        <ele>1421</ele>
        <time>2000-01-01T11:03:33.000Z</time>
      </trkpt>
      <trkpt lat="46.13816" lon="6.77676">
        <ele>1420.5</ele>
        <time>2000-01-01T11:03:43.000Z</time>
      </trkpt>
      <trkpt lat="46.1381" lon="6.77673">
        <ele>1419</ele>
        <time>2000-01-01T11:03:53.000Z</time>
      </trkpt>
      <trkpt lat="46.13806" lon="6.77673">
        <ele>1421</ele>
        <time>2000-01-01T11:04:03.000Z</time>
      </trkpt>
      <trkpt lat="46.13801" lon="6.77673">
        <ele>1420.9</ele>
        <time>2000-01-01T11:04:13.000Z</time>
      </trkpt>
      <trkpt lat="46.13795" lon="6.77673">
        <ele>1420.7</ele>
        <time>2000-01-01T11:04:23.000Z</time>
      </trkpt>
      <trkpt lat="46.13786" lon="6.77677">
        <ele>1419</ele>
        <time>2000-01-01T11:04:33.000Z</time>
      </trkpt>
      <trkpt lat="46.13778" lon="6.77679">
        <ele>1422</ele>
        <time>2000-01-01T11:04:43.000Z</time>
      </trkpt>
      <trkpt lat="46.13771" lon="6.77678">
        <ele>1421.9</ele>
        <time>2000-01-01T11:04:53.000Z</time>
      </trkpt>
      <trkpt lat="46.13763" lon="6.77677">
        <ele>1419</ele>
        <time>2000-01-01T11:05:03.000Z</time>
      </trkpt>
      <trkpt lat="46.13756" lon="6.77676">
        <ele>1421.8</ele>
        <time>2000-01-01T11:05:13.000Z</time>
      </trkpt>
      <trkpt lat="46.13749" lon="6.77676">
        <ele>1422.2</ele>
        <time>2000-01-01T11:05:23.000Z</time>
      </trkpt>
      <trkpt lat="46.1374" lon="6.77677">
        <ele>1420</ele>
        <time>2000-01-01T11:05:33.000Z</time>
      </trkpt>
      <trkpt lat="46.13734" lon="6.77676">
        <ele>1424.5</ele>
        <time>2000-01-01T11:05:43.000Z</time>
      </trkpt>
      <trkpt lat="46.13726" lon="6.77671">
        <ele>1424</ele>
        <time>2000-01-01T11:05:53.000Z</time>
      </trkpt>
      <trkpt lat="46.1372" lon="6.77668">
        <ele>1421</ele>
        <time>2000-01-01T11:06:03.000Z</time>
      </trkpt>
      <trkpt lat="46.13718" lon="6.77664">
        <ele>1423.4</ele>
        <time>2000-01-01T11:06:13.000Z</time>
      </trkpt>
      <trkpt lat="46.13714" lon="6.77663">
        <ele>1424.3</ele>
        <time>2000-01-01T11:06:23.000Z</time>
      </trkpt>
      <trkpt lat="46.1371" lon="6.77662">
        <ele>1425.2</ele>
        <time>2000-01-01T11:06:33.000Z</time>
      </trkpt>
      <trkpt lat="46.13706" lon="6.77658">
        <ele>1425.2</ele>
        <time>2000-01-01T11:06:43.000Z</time>
      </trkpt>
      <trkpt lat="46.13701" lon="6.77656">
        <ele>1422</ele>
        <time>2000-01-01T11:06:53.000Z</time>
      </trkpt>
      <trkpt lat="46.13699" lon="6.77653">
        <ele>1425.8</ele>
        <time>2000-01-01T11:07:03.000Z</time>
      </trkpt>
      <trkpt lat="46.13696" lon="6.77649">
        <ele>1425.5</ele>
        <time>2000-01-01T11:07:13.000Z</time>
      </trkpt>
      <trkpt lat="46.13693" lon="6.7764">
        <ele>1424.4</ele>
        <time>2000-01-01T11:07:23.000Z</time>
      </trkpt>
      <trkpt lat="46.1369" lon="6.77633">
        <ele>1423</ele>
        <time>2000-01-01T11:07:33.000Z</time>
      </trkpt>
      <trkpt lat="46.13688" lon="6.77627">
        <ele>1424.6</ele>
        <time>2000-01-01T11:07:43.000Z</time>
      </trkpt>
      <trkpt lat="46.13688" lon="6.77624">
        <ele>1423.9</ele>
        <time>2000-01-01T11:07:53.000Z</time>
      </trkpt>
      <trkpt lat="46.13685" lon="6.77618">
        <ele>1424.5</ele>
        <time>2000-01-01T11:08:03.000Z</time>
      </trkpt>
      <trkpt lat="46.13682" lon="6.77612">
        <ele>1425.2</ele>
        <time>2000-01-01T11:08:13.000Z</time>
      </trkpt>
      <trkpt lat="46.13677" lon="6.77601">
        <ele>1429</ele>
        <time>2000-01-01T11:08:23.000Z</time>
      </trkpt>
      <trkpt lat="46.13673" lon="6.77595">
        <ele>1428.1</ele>
        <time>2000-01-01T11:08:33.000Z</time>
      </trkpt>
      <trkpt lat="46.13671" lon="6.77589">
        <ele>1428.2</ele>
        <time>2000-01-01T11:08:43.000Z</time>
      </trkpt>
      <trkpt lat="46.13669" lon="6.77583">
        <ele>1428.4</ele>
        <time>2000-01-01T11:08:53.000Z</time>
      </trkpt>
      <trkpt lat="46.13669" lon="6.77579">
        <ele>1428.3</ele>
        <time>2000-01-01T11:09:03.000Z</time>
      </trkpt>
      <trkpt lat="46.13668" lon="6.77576">
        <ele>1434</ele>
        <time>2000-01-01T11:09:13.000Z</time>
      </trkpt>
      <trkpt lat="46.13668" lon="6.7757">
        <ele>1428.6</ele>
        <time>2000-01-01T11:09:23.000Z</time>
      </trkpt>
      <trkpt lat="46.13668" lon="6.77568">
        <ele>1428.6</ele>
        <time>2000-01-01T11:09:33.000Z</time>
      </trkpt>
      <trkpt lat="46.13668" lon="6.77562">
        <ele>1428.4</ele>
        <time>2000-01-01T11:09:43.000Z</time>
      </trkpt>
      <trkpt lat="46.13669" lon="6.77555">
        <ele>1427.5</ele>
        <time>2000-01-01T11:09:53.000Z</time>
      </trkpt>
      <trkpt lat="46.13669" lon="6.7755">
        <ele>1427.7</ele>
        <time>2000-01-01T11:10:03.000Z</time>
      </trkpt>
      <trkpt lat="46.13669" lon="6.77546">
        <ele>1434</ele>
        <time>2000-01-01T11:10:13.000Z</time>
      </trkpt>
      <trkpt lat="46.1367" lon="6.77538">
        <ele>1427.5</ele>
        <time>2000-01-01T11:10:23.000Z</time>
      </trkpt>
      <trkpt lat="46.1367" lon="6.77534">
        <ele>1427.6</ele>
        <time>2000-01-01T11:10:33.000Z</time>
      </trkpt>
      <trkpt lat="46.1367" lon="6.77529">
        <ele>1427.8</ele>
        <time>2000-01-01T11:10:43.000Z</time>
      </trkpt>
      <trkpt lat="46.13669" lon="6.77521">
        <ele>1428.5</ele>
        <time>2000-01-01T11:10:53.000Z</time>
      </trkpt>
      <trkpt lat="46.13669" lon="6.77512">
        <ele>1434</ele>
        <time>2000-01-01T11:11:03.000Z</time>
      </trkpt>
      <trkpt lat="46.13669" lon="6.77509">
        <ele>1428.6</ele>
        <time>2000-01-01T11:11:13.000Z</time>
      </trkpt>
      <trkpt lat="46.13668" lon="6.77504">
        <ele>1429.2</ele>
        <time>2000-01-01T11:11:23.000Z</time>
      </trkpt>
      <trkpt lat="46.13668" lon="6.77497">
        <ele>1429.5</ele>
        <time>2000-01-01T11:11:33.000Z</time>
      </trkpt>
      <trkpt lat="46.13668" lon="6.77492">
        <ele>1429.8</ele>
        <time>2000-01-01T11:11:43.000Z</time>
      </trkpt>
      <trkpt lat="46.13668" lon="6.77477">
        <ele>1432</ele>
        <time>2000-01-01T11:11:53.000Z</time>
      </trkpt>
      <trkpt lat="46.13669" lon="6.77469">
        <ele>1431</ele>
        <time>2000-01-01T11:12:03.000Z</time>
      </trkpt>
      <trkpt lat="46.1367" lon="6.77459">
        <ele>1431.2</ele>
        <time>2000-01-01T11:12:13.000Z</time>
      </trkpt>
      <trkpt lat="46.13672" lon="6.77443">
        <ele>1435</ele>
        <time>2000-01-01T11:12:23.000Z</time>
      </trkpt>
      <trkpt lat="46.13672" lon="6.77436">
        <ele>1431.3</ele>
        <time>2000-01-01T11:12:33.000Z</time>
      </trkpt>
      <trkpt lat="46.1367" lon="6.77425">
        <ele>1432.3</ele>
        <time>2000-01-01T11:12:43.000Z</time>
      </trkpt>
      <trkpt lat="46.13668" lon="6.77416">
        <ele>1435</ele>
        <time>2000-01-01T11:12:53.000Z</time>
      </trkpt>
      <trkpt lat="46.13667" lon="6.77407">
        <ele>1433.1</ele>
        <time>2000-01-01T11:13:03.000Z</time>
      </trkpt>
      <trkpt lat="46.13667" lon="6.77402">
        <ele>1432.8</ele>
        <time>2000-01-01T11:13:13.000Z</time>
      </trkpt>
      <trkpt lat="46.13665" lon="6.77397">
        <ele>1433.5</ele>
        <time>2000-01-01T11:13:23.000Z</time>
      </trkpt>
      <trkpt lat="46.13663" lon="6.77394">
        <ele>1434.3</ele>
        <time>2000-01-01T11:13:33.000Z</time>
      </trkpt>
      <trkpt lat="46.1366" lon="6.77392">
        <ele>1436</ele>
        <time>2000-01-01T11:13:43.000Z</time>
      </trkpt>
      <trkpt lat="46.13657" lon="6.77391">
        <ele>1437.1</ele>
        <time>2000-01-01T11:13:53.000Z</time>
      </trkpt>
      <trkpt lat="46.13656" lon="6.77388">
        <ele>1437.3</ele>
        <time>2000-01-01T11:14:03.000Z</time>
      </trkpt>
      <trkpt lat="46.13655" lon="6.77386">
        <ele>1437.5</ele>
        <time>2000-01-01T11:14:13.000Z</time>
      </trkpt>
      <trkpt lat="46.13655" lon="6.77382">
        <ele>1437</ele>
        <time>2000-01-01T11:14:23.000Z</time>
      </trkpt>
      <trkpt lat="46.13657" lon="6.77378">
        <ele>1435.4</ele>
        <time>2000-01-01T11:14:33.000Z</time>
      </trkpt>
      <trkpt lat="46.13658" lon="6.77373">
        <ele>1434.3</ele>
        <time>2000-01-01T11:14:43.000Z</time>
      </trkpt>
      <trkpt lat="46.13657" lon="6.77369">
        <ele>1436</ele>
        <time>2000-01-01T11:14:53.000Z</time>
      </trkpt>
      <trkpt lat="46.13656" lon="6.77365">
        <ele>1434.3</ele>
        <time>2000-01-01T11:15:03.000Z</time>
      </trkpt>
      <trkpt lat="46.13654" lon="6.77363">
        <ele>1435.1</ele>
        <time>2000-01-01T11:15:13.000Z</time>
      </trkpt>
      <trkpt lat="46.13652" lon="6.77358">
        <ele>1435.4</ele>
        <time>2000-01-01T11:15:23.000Z</time>
      </trkpt>
      <trkpt lat="46.1365" lon="6.77353">
        <ele>1435.7</ele>
        <time>2000-01-01T11:15:33.000Z</time>
      </trkpt>
      <trkpt lat="46.13647" lon="6.77343">
        <ele>1437</ele>
        <time>2000-01-01T11:15:43.000Z</time>
      </trkpt>
      <trkpt lat="46.13643" lon="6.77338">
        <ele>1436.7</ele>
        <time>2000-01-01T11:15:53.000Z</time>
      </trkpt>
      <trkpt lat="46.13642" lon="6.77334">
        <ele>1436.5</ele>
        <time>2000-01-01T11:16:03.000Z</time>
      </trkpt>
      <trkpt lat="46.13639" lon="6.77327">
        <ele>1437</ele>
        <time>2000-01-01T11:16:13.000Z</time>
      </trkpt>
      <trkpt lat="46.13636" lon="6.77321">
        <ele>1437.8</ele>
        <time>2000-01-01T11:16:23.000Z</time>
      </trkpt>
      <trkpt lat="46.13634" lon="6.77318">
        <ele>1439</ele>
        <time>2000-01-01T11:16:33.000Z</time>
      </trkpt>
      <trkpt lat="46.13633" lon="6.77314">
        <ele>1438.4</ele>
        <time>2000-01-01T11:16:43.000Z</time>
      </trkpt>
      <trkpt lat="46.13632" lon="6.7731">
        <ele>1438.4</ele>
        <time>2000-01-01T11:16:53.000Z</time>
      </trkpt>
      <trkpt lat="46.13632" lon="6.77307">
        <ele>1437.9</ele>
        <time>2000-01-01T11:17:03.000Z</time>
      </trkpt>
      <trkpt lat="46.13631" lon="6.77301">
        <ele>1437.9</ele>
        <time>2000-01-01T11:17:13.000Z</time>
      </trkpt>
      <trkpt lat="46.1363" lon="6.77297">
        <ele>1438.1</ele>
        <time>2000-01-01T11:17:23.000Z</time>
      </trkpt>
      <trkpt lat="46.1363" lon="6.77293">
        <ele>1437.7</ele>
        <time>2000-01-01T11:17:33.000Z</time>
      </trkpt>
      <trkpt lat="46.13629" lon="6.77289">
        <ele>1439</ele>
        <time>2000-01-01T11:17:43.000Z</time>
      </trkpt>
      <trkpt lat="46.13628" lon="6.7728">
        <ele>1437.8</ele>
        <time>2000-01-01T11:17:53.000Z</time>
      </trkpt>
      <trkpt lat="46.13626" lon="6.7727">
        <ele>1438.6</ele>
        <time>2000-01-01T11:18:03.000Z</time>
      </trkpt>
      <trkpt lat="46.13626" lon="6.77262">
        <ele>1440</ele>
        <time>2000-01-01T11:18:13.000Z</time>
      </trkpt>
      <trkpt lat="46.13625" lon="6.77259">
        <ele>1438.8</ele>
        <time>2000-01-01T11:18:23.000Z</time>
      </trkpt>
      <trkpt lat="46.13625" lon="6.77255">
        <ele>1438.7</ele>
        <time>2000-01-01T11:18:33.000Z</time>
      </trkpt>
      <trkpt lat="46.13624" lon="6.77248">
        <ele>1439.1</ele>
        <time>2000-01-01T11:18:43.000Z</time>
      </trkpt>
      <trkpt lat="46.13624" lon="6.77237">
        <ele>1439.5</ele>
        <time>2000-01-01T11:18:53.000Z</time>
      </trkpt>
      <trkpt lat="46.13623" lon="6.77232">
        <ele>1441</ele>
        <time>2000-01-01T11:19:03.000Z</time>
      </trkpt>
      <trkpt lat="46.13623" lon="6.7723">
        <ele>1440.3</ele>
        <time>2000-01-01T11:19:13.000Z</time>
      </trkpt>
      <trkpt lat="46.13622" lon="6.77228">
        <ele>1440.9</ele>
        <time>2000-01-01T11:19:23.000Z</time>
      </trkpt>
      <trkpt lat="46.13621" lon="6.77221">
        <ele>1441.7</ele>
        <time>2000-01-01T11:19:33.000Z</time>
      </trkpt>
      <trkpt lat="46.1362" lon="6.77217">
        <ele>1442.4</ele>
        <time>2000-01-01T11:19:43.000Z</time>
      </trkpt>
      <trkpt lat="46.1362" lon="6.77216">
        <ele>1442.5</ele>
        <time>2000-01-01T11:19:53.000Z</time>
      </trkpt>
      <trkpt lat="46.1362" lon="6.77214">
        <ele>1442.6</ele>
        <time>2000-01-01T11:20:03.000Z</time>
      </trkpt>
      <trkpt lat="46.13623" lon="6.77209">
        <ele>1441.3</ele>
        <time>2000-01-01T11:20:13.000Z</time>
      </trkpt>
      <trkpt lat="46.13623" lon="6.77204">
        <ele>1442</ele>
        <time>2000-01-01T11:20:23.000Z</time>
      </trkpt>
      <trkpt lat="46.13623" lon="6.77195">
        <ele>1442</ele>
        <time>2000-01-01T11:20:33.000Z</time>
      </trkpt>
      <trkpt lat="46.13622" lon="6.77186">
        <ele>1444.7</ele>
        <time>2000-01-01T11:20:43.000Z</time>
      </trkpt>
      <trkpt lat="46.13623" lon="6.77181">
        <ele>1445.5</ele>
        <time>2000-01-01T11:20:53.000Z</time>
      </trkpt>
      <trkpt lat="46.13626" lon="6.77174">
        <ele>1444</ele>
        <time>2000-01-01T11:21:03.000Z</time>
      </trkpt>
      <trkpt lat="46.13629" lon="6.7717">
        <ele>1446</ele>
        <time>2000-01-01T11:21:13.000Z</time>
      </trkpt>
      <trkpt lat="46.13635" lon="6.77165">
        <ele>1445.1</ele>
        <time>2000-01-01T11:21:23.000Z</time>
      </trkpt>
      <trkpt lat="46.13639" lon="6.77161">
        <ele>1445</ele>
        <time>2000-01-01T11:21:33.000Z</time>
      </trkpt>
      <trkpt lat="46.13642" lon="6.77156">
        <ele>1447</ele>
        <time>2000-01-01T11:21:43.000Z</time>
      </trkpt>
      <trkpt lat="46.13646" lon="6.77148">
        <ele>1445.8</ele>
        <time>2000-01-01T11:21:53.000Z</time>
      </trkpt>
      <trkpt lat="46.13648" lon="6.77126">
        <ele>1450</ele>
        <time>2000-01-01T11:22:03.000Z</time>
      </trkpt>
      <trkpt lat="46.13648" lon="6.77117">
        <ele>1453.2</ele>
        <time>2000-01-01T11:22:13.000Z</time>
      </trkpt>
      <trkpt lat="46.13649" lon="6.771">
        <ele>1455.6</ele>
        <time>2000-01-01T11:22:23.000Z</time>
      </trkpt>
      <trkpt lat="46.13652" lon="6.7709">
        <ele>1451</ele>
        <time>2000-01-01T11:22:33.000Z</time>
      </trkpt>
      <trkpt lat="46.13655" lon="6.77083">
        <ele>1452.5</ele>
        <time>2000-01-01T11:22:43.000Z</time>
      </trkpt>
      <trkpt lat="46.13655" lon="6.7705">
        <ele>1453</ele>
        <time>2000-01-01T11:22:53.000Z</time>
      </trkpt>
      <trkpt lat="46.13655" lon="6.7704">
        <ele>1453.8</ele>
        <time>2000-01-01T11:23:03.000Z</time>
      </trkpt>
      <trkpt lat="46.13659" lon="6.77034">
        <ele>1452.6</ele>
        <time>2000-01-01T11:23:13.000Z</time>
      </trkpt>
      <trkpt lat="46.13666" lon="6.77027">
        <ele>1455</ele>
        <time>2000-01-01T11:23:23.000Z</time>
      </trkpt>
      <trkpt lat="46.13671" lon="6.77019">
        <ele>1451.1</ele>
        <time>2000-01-01T11:23:33.000Z</time>
      </trkpt>
      <trkpt lat="46.13674" lon="6.77012">
        <ele>1451.9</ele>
        <time>2000-01-01T11:23:43.000Z</time>
      </trkpt>
      <trkpt lat="46.1368" lon="6.76974">
        <ele>1458</ele>
        <time>2000-01-01T11:23:53.000Z</time>
      </trkpt>
      <trkpt lat="46.13682" lon="6.76965">
        <ele>1457.4</ele>
        <time>2000-01-01T11:24:03.000Z</time>
      </trkpt>
      <trkpt lat="46.13681" lon="6.76956">
        <ele>1459</ele>
        <time>2000-01-01T11:24:13.000Z</time>
      </trkpt>
      <trkpt lat="46.13681" lon="6.76942">
        <ele>1461</ele>
        <time>2000-01-01T11:24:23.000Z</time>
      </trkpt>
      <trkpt lat="46.13679" lon="6.76931">
        <ele>1461.8</ele>
        <time>2000-01-01T11:24:33.000Z</time>
      </trkpt>
      <trkpt lat="46.13675" lon="6.76917">
        <ele>1464.1</ele>
        <time>2000-01-01T11:24:43.000Z</time>
      </trkpt>
      <trkpt lat="46.1367" lon="6.76909">
        <ele>1464</ele>
        <time>2000-01-01T11:24:53.000Z</time>
      </trkpt>
      <trkpt lat="46.13662" lon="6.76897">
        <ele>1468</ele>
        <time>2000-01-01T11:25:03.000Z</time>
      </trkpt>
      <trkpt lat="46.13654" lon="6.7689">
        <ele>1470</ele>
        <time>2000-01-01T11:25:13.000Z</time>
      </trkpt>
      <trkpt lat="46.13645" lon="6.76881">
        <ele>1471.5</ele>
        <time>2000-01-01T11:25:23.000Z</time>
      </trkpt>
      <trkpt lat="46.13636" lon="6.76864">
        <ele>1473</ele>
        <time>2000-01-01T11:25:33.000Z</time>
      </trkpt>
      <trkpt lat="46.13633" lon="6.76852">
        <ele>1472.4</ele>
        <time>2000-01-01T11:25:43.000Z</time>
      </trkpt>
      <trkpt lat="46.13631" lon="6.7684">
        <ele>1472.8</ele>
        <time>2000-01-01T11:25:53.000Z</time>
      </trkpt>
      <trkpt lat="46.1363" lon="6.76834">
        <ele>1474</ele>
        <time>2000-01-01T11:26:03.000Z</time>
      </trkpt>
      <trkpt lat="46.13624" lon="6.7682">
        <ele>1474</ele>
        <time>2000-01-01T11:26:13.000Z</time>
      </trkpt>
      <trkpt lat="46.13618" lon="6.76808">
        <ele>1476</ele>
        <time>2000-01-01T11:26:23.000Z</time>
      </trkpt>
      <trkpt lat="46.13616" lon="6.76804">
        <ele>1475.3</ele>
        <time>2000-01-01T11:26:33.000Z</time>
      </trkpt>
      <trkpt lat="46.13612" lon="6.76802">
        <ele>1476.1</ele>
        <time>2000-01-01T11:26:43.000Z</time>
      </trkpt>
      <trkpt lat="46.13602" lon="6.76793">
        <ele>1478</ele>
        <time>2000-01-01T11:26:53.000Z</time>
      </trkpt>
      <trkpt lat="46.13593" lon="6.76776">
        <ele>1481.1</ele>
        <time>2000-01-01T11:27:03.000Z</time>
      </trkpt>
      <trkpt lat="46.13592" lon="6.76774">
        <ele>1481.7</ele>
        <time>2000-01-01T11:27:13.000Z</time>
      </trkpt>
      <trkpt lat="46.13593" lon="6.76765">
        <ele>1484</ele>
        <time>2000-01-01T11:27:23.000Z</time>
      </trkpt>
      <trkpt lat="46.13594" lon="6.7676">
        <ele>1485.2</ele>
        <time>2000-01-01T11:27:33.000Z</time>
      </trkpt>
      <trkpt lat="46.13601" lon="6.7675">
        <ele>1487.1</ele>
        <time>2000-01-01T11:27:43.000Z</time>
      </trkpt>
      <trkpt lat="46.13609" lon="6.76747">
        <ele>1487</ele>
        <time>2000-01-01T11:27:53.000Z</time>
      </trkpt>
      <trkpt lat="46.13619" lon="6.76745">
        <ele>1488.1</ele>
        <time>2000-01-01T11:28:03.000Z</time>
      </trkpt>
      <trkpt lat="46.13626" lon="6.76747">
        <ele>1486.9</ele>
        <time>2000-01-01T11:28:13.000Z</time>
      </trkpt>
      <trkpt lat="46.1363" lon="6.76741">
        <ele>1490</ele>
        <time>2000-01-01T11:28:23.000Z</time>
      </trkpt>
      <trkpt lat="46.13633" lon="6.76731">
        <ele>1494.6</ele>
        <time>2000-01-01T11:28:33.000Z</time>
      </trkpt>
      <trkpt lat="46.13637" lon="6.76722">
        <ele>1499.1</ele>
        <time>2000-01-01T11:28:43.000Z</time>
      </trkpt>
      <trkpt lat="46.1364" lon="6.7672">
        <ele>1505</ele>
        <time>2000-01-01T11:28:53.000Z</time>
      </trkpt>
      <trkpt lat="46.1365" lon="6.76719">
        <ele>1500.5</ele>
        <time>2000-01-01T11:29:03.000Z</time>
      </trkpt>
      <trkpt lat="46.13657" lon="6.76717">
        <ele>1501.3</ele>
        <time>2000-01-01T11:29:13.000Z</time>
      </trkpt>
      <trkpt lat="46.1367" lon="6.76708">
        <ele>1505</ele>
        <time>2000-01-01T11:29:23.000Z</time>
      </trkpt>
      <trkpt lat="46.13684" lon="6.76709">
        <ele>1505.1</ele>
        <time>2000-01-01T11:29:33.000Z</time>
      </trkpt>
      <trkpt lat="46.13697" lon="6.76712">
        <ele>1504</ele>
        <time>2000-01-01T11:29:43.000Z</time>
      </trkpt>
      <trkpt lat="46.13705" lon="6.76718">
        <ele>1500.9</ele>
        <time>2000-01-01T11:29:53.000Z</time>
      </trkpt>
      <trkpt lat="46.1371" lon="6.7672">
        <ele>1499.8</ele>
        <time>2000-01-01T11:30:03.000Z</time>
      </trkpt>
      <trkpt lat="46.13715" lon="6.76716">
        <ele>1504</ele>
        <time>2000-01-01T11:30:13.000Z</time>
      </trkpt>
      <trkpt lat="46.13716" lon="6.76713">
        <ele>1500.4</ele>
        <time>2000-01-01T11:30:23.000Z</time>
      </trkpt>
      <trkpt lat="46.13717" lon="6.7671">
        <ele>1500.7</ele>
        <time>2000-01-01T11:30:33.000Z</time>
      </trkpt>
      <trkpt lat="46.13716" lon="6.76701">
        <ele>1502.6</ele>
        <time>2000-01-01T11:30:43.000Z</time>
      </trkpt>
      <trkpt lat="46.13708" lon="6.76686">
        <ele>1511</ele>
        <time>2000-01-01T11:30:53.000Z</time>
      </trkpt>
      <trkpt lat="46.137" lon="6.76676">
        <ele>1510.1</ele>
        <time>2000-01-01T11:31:03.000Z</time>
      </trkpt>
      <trkpt lat="46.13684" lon="6.76666">
        <ele>1516</ele>
        <time>2000-01-01T11:31:13.000Z</time>
      </trkpt>
      <trkpt lat="46.13667" lon="6.76658">
        <ele>1517.9</ele>
        <time>2000-01-01T11:31:23.000Z</time>
      </trkpt>
      <trkpt lat="46.13646" lon="6.76647">
        <ele>1521</ele>
        <time>2000-01-01T11:31:33.000Z</time>
      </trkpt>
      <trkpt lat="46.13644" lon="6.76645">
        <ele>1521.1</ele>
        <time>2000-01-01T11:31:43.000Z</time>
      </trkpt>
      <trkpt lat="46.13632" lon="6.76628">
        <ele>1521</ele>
        <time>2000-01-01T11:31:53.000Z</time>
      </trkpt>
      <trkpt lat="46.13622" lon="6.76621">
        <ele>1522.3</ele>
        <time>2000-01-01T11:32:03.000Z</time>
      </trkpt>
      <trkpt lat="46.13613" lon="6.76614">
        <ele>1522</ele>
        <time>2000-01-01T11:32:13.000Z</time>
      </trkpt>
      <trkpt lat="46.13599" lon="6.76597">
        <ele>1524.9</ele>
        <time>2000-01-01T11:32:23.000Z</time>
      </trkpt>
      <trkpt lat="46.13592" lon="6.7661">
        <ele>1526</ele>
        <time>2000-01-01T11:32:33.000Z</time>
      </trkpt>
      <trkpt lat="46.13581" lon="6.76629">
        <ele>1527.3</ele>
        <time>2000-01-01T11:32:43.000Z</time>
      </trkpt>
      <trkpt lat="46.13574" lon="6.76638">
        <ele>1528</ele>
        <time>2000-01-01T11:32:53.000Z</time>
      </trkpt>
      <trkpt lat="46.13567" lon="6.76641">
        <ele>1528.6</ele>
        <time>2000-01-01T11:33:03.000Z</time>
      </trkpt>
      <trkpt lat="46.13562" lon="6.76641">
        <ele>1529.2</ele>
        <time>2000-01-01T11:33:13.000Z</time>
      </trkpt>
      <trkpt lat="46.13543" lon="6.76629">
        <ele>1532</ele>
        <time>2000-01-01T11:33:23.000Z</time>
      </trkpt>
      <trkpt lat="46.13538" lon="6.76625">
        <ele>1532.3</ele>
        <time>2000-01-01T11:33:33.000Z</time>
      </trkpt>
      <trkpt lat="46.13535" lon="6.76617">
        <ele>1532.2</ele>
        <time>2000-01-01T11:33:43.000Z</time>
      </trkpt>
      <trkpt lat="46.13534" lon="6.76606">
        <ele>1533</ele>
        <time>2000-01-01T11:33:53.000Z</time>
      </trkpt>
      <trkpt lat="46.13533" lon="6.76596">
        <ele>1533.5</ele>
        <time>2000-01-01T11:34:03.000Z</time>
      </trkpt>
      <trkpt lat="46.1353" lon="6.76576">
        <ele>1536</ele>
        <time>2000-01-01T11:34:13.000Z</time>
      </trkpt>
      <trkpt lat="46.13529" lon="6.76572">
        <ele>1536.1</ele>
        <time>2000-01-01T11:34:23.000Z</time>
      </trkpt>
      <trkpt lat="46.13523" lon="6.76561">
        <ele>1536.8</ele>
        <time>2000-01-01T11:34:33.000Z</time>
      </trkpt>
      <trkpt lat="46.13518" lon="6.76552">
        <ele>1537</ele>
        <time>2000-01-01T11:34:43.000Z</time>
      </trkpt>
      <trkpt lat="46.1351" lon="6.76533">
        <ele>1539</ele>
        <time>2000-01-01T11:34:53.000Z</time>
      </trkpt>
      <trkpt lat="46.13505" lon="6.76524">
        <ele>1540</ele>
        <time>2000-01-01T11:35:03.000Z</time>
      </trkpt>
      <trkpt lat="46.13498" lon="6.76519">
        <ele>1540.3</ele>
        <time>2000-01-01T11:35:13.000Z</time>
      </trkpt>
      <trkpt lat="46.1349" lon="6.76516">
        <ele>1540.5</ele>
        <time>2000-01-01T11:35:23.000Z</time>
      </trkpt>
      <trkpt lat="46.13483" lon="6.76514">
        <ele>1541</ele>
        <time>2000-01-01T11:35:33.000Z</time>
      </trkpt>
      <trkpt lat="46.13475" lon="6.76506">
        <ele>1542.5</ele>
        <time>2000-01-01T11:35:43.000Z</time>
      </trkpt>
      <trkpt lat="46.13466" lon="6.76498">
        <ele>1547</ele>
        <time>2000-01-01T11:35:53.000Z</time>
      </trkpt>
      <trkpt lat="46.1346" lon="6.76492">
        <ele>1546.3</ele>
        <time>2000-01-01T11:36:03.000Z</time>
      </trkpt>
      <trkpt lat="46.1345" lon="6.76485">
        <ele>1548.6</ele>
        <time>2000-01-01T11:36:13.000Z</time>
      </trkpt>
      <trkpt lat="46.13443" lon="6.76483">
        <ele>1550</ele>
        <time>2000-01-01T11:36:23.000Z</time>
      </trkpt>
      <trkpt lat="46.13434" lon="6.76481">
        <ele>1551.2</ele>
        <time>2000-01-01T11:36:33.000Z</time>
      </trkpt>
      <trkpt lat="46.13426" lon="6.76475">
        <ele>1552.9</ele>
        <time>2000-01-01T11:36:43.000Z</time>
      </trkpt>
      <trkpt lat="46.13417" lon="6.76464">
        <ele>1557</ele>
        <time>2000-01-01T11:36:53.000Z</time>
      </trkpt>
      <trkpt lat="46.13408" lon="6.76452">
        <ele>1558</ele>
        <time>2000-01-01T11:37:03.000Z</time>
      </trkpt>
      <trkpt lat="46.13404" lon="6.76443">
        <ele>1560</ele>
        <time>2000-01-01T11:37:13.000Z</time>
      </trkpt>
      <trkpt lat="46.13401" lon="6.76435">
        <ele>1559.8</ele>
        <time>2000-01-01T11:37:23.000Z</time>
      </trkpt>
      <trkpt lat="46.13397" lon="6.76431">
        <ele>1560.5</ele>
        <time>2000-01-01T11:37:33.000Z</time>
      </trkpt>
      <trkpt lat="46.13391" lon="6.76429">
        <ele>1561.7</ele>
        <time>2000-01-01T11:37:43.000Z</time>
      </trkpt>
      <trkpt lat="46.13391" lon="6.76429">
        <ele>1561.7</ele>
        <time>2000-01-01T11:37:53.000Z</time>
      </trkpt>
      <trkpt lat="46.13391" lon="6.76429">
        <ele>1561.7</ele>
        <time>2000-01-01T11:38:03.000Z</time>
      </trkpt>
      <trkpt lat="46.13386" lon="6.7643">
        <ele>1564</ele>
        <time>2000-01-01T11:38:13.000Z</time>
      </trkpt>
      <trkpt lat="46.13378" lon="6.76434">
        <ele>1564</ele>
        <time>2000-01-01T11:38:23.000Z</time>
      </trkpt>
      <trkpt lat="46.13368" lon="6.7644">
        <ele>1567</ele>
        <time>2000-01-01T11:38:33.000Z</time>
      </trkpt>
      <trkpt lat="46.13362" lon="6.76442">
        <ele>1566.2</ele>
        <time>2000-01-01T11:38:43.000Z</time>
      </trkpt>
      <trkpt lat="46.13355" lon="6.76441">
        <ele>1567.8</ele>
        <time>2000-01-01T11:38:53.000Z</time>
      </trkpt>
      <trkpt lat="46.13345" lon="6.7644">
        <ele>1572</ele>
        <time>2000-01-01T11:39:03.000Z</time>
      </trkpt>
      <trkpt lat="46.13332" lon="6.7644">
        <ele>1572.8</ele>
        <time>2000-01-01T11:39:13.000Z</time>
      </trkpt>
      <trkpt lat="46.13319" lon="6.76439">
        <ele>1576</ele>
        <time>2000-01-01T11:39:23.000Z</time>
      </trkpt>
      <trkpt lat="46.13311" lon="6.76438">
        <ele>1577</ele>
        <time>2000-01-01T11:39:33.000Z</time>
      </trkpt>
      <trkpt lat="46.13304" lon="6.76436">
        <ele>1578.2</ele>
        <time>2000-01-01T11:39:43.000Z</time>
      </trkpt>
      <trkpt lat="46.13296" lon="6.76433">
        <ele>1579</ele>
        <time>2000-01-01T11:39:53.000Z</time>
      </trkpt>
      <trkpt lat="46.1329" lon="6.76431">
        <ele>1581</ele>
        <time>2000-01-01T11:40:03.000Z</time>
      </trkpt>
      <trkpt lat="46.13285" lon="6.76432">
        <ele>1582.5</ele>
        <time>2000-01-01T11:40:13.000Z</time>
      </trkpt>
      <trkpt lat="46.13279" lon="6.76434">
        <ele>1584.7</ele>
        <time>2000-01-01T11:40:23.000Z</time>
      </trkpt>
      <trkpt lat="46.13275" lon="6.76434">
        <ele>1584</ele>
        <time>2000-01-01T11:40:33.000Z</time>
      </trkpt>
      <trkpt lat="46.13267" lon="6.76431">
        <ele>1587</ele>
        <time>2000-01-01T11:40:43.000Z</time>
      </trkpt>
      <trkpt lat="46.13256" lon="6.76426">
        <ele>1587</ele>
        <time>2000-01-01T11:40:53.000Z</time>
      </trkpt>
      <trkpt lat="46.13249" lon="6.76424">
        <ele>1589.5</ele>
        <time>2000-01-01T11:41:03.000Z</time>
      </trkpt>
      <trkpt lat="46.13242" lon="6.76423">
        <ele>1590.2</ele>
        <time>2000-01-01T11:41:13.000Z</time>
      </trkpt>
      <trkpt lat="46.13235" lon="6.76423">
        <ele>1591</ele>
        <time>2000-01-01T11:41:23.000Z</time>
      </trkpt>
      <trkpt lat="46.1323" lon="6.76428">
        <ele>1593.1</ele>
        <time>2000-01-01T11:41:33.000Z</time>
      </trkpt>
      <trkpt lat="46.13221" lon="6.7644">
        <ele>1595</ele>
        <time>2000-01-01T11:41:43.000Z</time>
      </trkpt>
      <trkpt lat="46.13216" lon="6.76447">
        <ele>1599.5</ele>
        <time>2000-01-01T11:41:53.000Z</time>
      </trkpt>
      <trkpt lat="46.13211" lon="6.76448">
        <ele>1601.1</ele>
        <time>2000-01-01T11:42:03.000Z</time>
      </trkpt>
      <trkpt lat="46.13206" lon="6.76445">
        <ele>1602.3</ele>
        <time>2000-01-01T11:42:13.000Z</time>
      </trkpt>
      <trkpt lat="46.13201" lon="6.76439">
        <ele>1601</ele>
        <time>2000-01-01T11:42:23.000Z</time>
      </trkpt>
      <trkpt lat="46.13199" lon="6.76428">
        <ele>1602.6</ele>
        <time>2000-01-01T11:42:33.000Z</time>
      </trkpt>
      <trkpt lat="46.13196" lon="6.7642">
        <ele>1602.8</ele>
        <time>2000-01-01T11:42:43.000Z</time>
      </trkpt>
      <trkpt lat="46.13193" lon="6.76415">
        <ele>1603.3</ele>
        <time>2000-01-01T11:42:53.000Z</time>
      </trkpt>
      <trkpt lat="46.13186" lon="6.76406">
        <ele>1605</ele>
        <time>2000-01-01T11:43:03.000Z</time>
      </trkpt>
      <trkpt lat="46.13179" lon="6.76399">
        <ele>1605.4</ele>
        <time>2000-01-01T11:43:13.000Z</time>
      </trkpt>
      <trkpt lat="46.1317" lon="6.76393">
        <ele>1607.1</ele>
        <time>2000-01-01T11:43:23.000Z</time>
      </trkpt>
      <trkpt lat="46.13164" lon="6.76391">
        <ele>1609</ele>
        <time>2000-01-01T11:43:33.000Z</time>
      </trkpt>
      <trkpt lat="46.13158" lon="6.76392">
        <ele>1610.9</ele>
        <time>2000-01-01T11:43:43.000Z</time>
      </trkpt>
      <trkpt lat="46.13152" lon="6.76392">
        <ele>1612.9</ele>
        <time>2000-01-01T11:43:53.000Z</time>
      </trkpt>
      <trkpt lat="46.13149" lon="6.76391">
        <ele>1613.7</ele>
        <time>2000-01-01T11:44:03.000Z</time>
      </trkpt>
      <trkpt lat="46.13148" lon="6.76389">
        <ele>1613.7</ele>
        <time>2000-01-01T11:44:13.000Z</time>
      </trkpt>
      <trkpt lat="46.13146" lon="6.76387">
        <ele>1614.4</ele>
        <time>2000-01-01T11:44:23.000Z</time>
      </trkpt>
      <trkpt lat="46.13145" lon="6.76381">
        <ele>1616</ele>
        <time>2000-01-01T11:44:33.000Z</time>
      </trkpt>
      <trkpt lat="46.13147" lon="6.76373">
        <ele>1614.1</ele>
        <time>2000-01-01T11:44:43.000Z</time>
      </trkpt>
      <trkpt lat="46.13149" lon="6.76363">
        <ele>1613.4</ele>
        <time>2000-01-01T11:44:53.000Z</time>
      </trkpt>
      <trkpt lat="46.13149" lon="6.76353">
        <ele>1616</ele>
        <time>2000-01-01T11:45:03.000Z</time>
      </trkpt>
      <trkpt lat="46.13148" lon="6.76334">
        <ele>1615</ele>
        <time>2000-01-01T11:45:13.000Z</time>
      </trkpt>
      <trkpt lat="46.13147" lon="6.76313">
        <ele>1623</ele>
        <time>2000-01-01T11:45:23.000Z</time>
      </trkpt>
      <trkpt lat="46.13145" lon="6.76289">
        <ele>1622.9</ele>
        <time>2000-01-01T11:45:33.000Z</time>
      </trkpt>
      <trkpt lat="46.13143" lon="6.76269">
        <ele>1628</ele>
        <time>2000-01-01T11:45:43.000Z</time>
      </trkpt>
      <trkpt lat="46.13142" lon="6.76255">
        <ele>1628.8</ele>
        <time>2000-01-01T11:45:53.000Z</time>
      </trkpt>
      <trkpt lat="46.13142" lon="6.76245">
        <ele>1630.5</ele>
        <time>2000-01-01T11:46:03.000Z</time>
      </trkpt>
      <trkpt lat="46.13144" lon="6.76236">
        <ele>1632</ele>
        <time>2000-01-01T11:46:13.000Z</time>
      </trkpt>
      <trkpt lat="46.1315" lon="6.76222">
        <ele>1632.1</ele>
        <time>2000-01-01T11:46:23.000Z</time>
      </trkpt>
      <trkpt lat="46.13155" lon="6.76212">
        <ele>1635</ele>
        <time>2000-01-01T11:46:33.000Z</time>
      </trkpt>
      <trkpt lat="46.13161" lon="6.76204">
        <ele>1634</ele>
        <time>2000-01-01T11:46:43.000Z</time>
      </trkpt>
      <trkpt lat="46.13166" lon="6.76199">
        <ele>1633</ele>
        <time>2000-01-01T11:46:53.000Z</time>
      </trkpt>
      <trkpt lat="46.13169" lon="6.76191">
        <ele>1638</ele>
        <time>2000-01-01T11:47:03.000Z</time>
      </trkpt>
      <trkpt lat="46.13169" lon="6.76182">
        <ele>1634.9</ele>
        <time>2000-01-01T11:47:13.000Z</time>
      </trkpt>
      <trkpt lat="46.13168" lon="6.7617">
        <ele>1637</ele>
        <time>2000-01-01T11:47:23.000Z</time>
      </trkpt>
      <trkpt lat="46.13165" lon="6.7616">
        <ele>1640</ele>
        <time>2000-01-01T11:47:33.000Z</time>
      </trkpt>
      <trkpt lat="46.1316" lon="6.76148">
        <ele>1641.7</ele>
        <time>2000-01-01T11:47:43.000Z</time>
      </trkpt>
      <trkpt lat="46.13153" lon="6.76133">
        <ele>1645</ele>
        <time>2000-01-01T11:47:53.000Z</time>
      </trkpt>
      <trkpt lat="46.13147" lon="6.76118">
        <ele>1648.1</ele>
        <time>2000-01-01T11:48:03.000Z</time>
      </trkpt>
      <trkpt lat="46.13142" lon="6.7611">
        <ele>1652</ele>
        <time>2000-01-01T11:48:13.000Z</time>
      </trkpt>
      <trkpt lat="46.13135" lon="6.76102">
        <ele>1652.9</ele>
        <time>2000-01-01T11:48:23.000Z</time>
      </trkpt>
      <trkpt lat="46.13128" lon="6.761">
        <ele>1654.4</ele>
        <time>2000-01-01T11:48:33.000Z</time>
      </trkpt>
      <trkpt lat="46.13121" lon="6.76097">
        <ele>1655</ele>
        <time>2000-01-01T11:48:43.000Z</time>
      </trkpt>
      <trkpt lat="46.13113" lon="6.76096">
        <ele>1656.9</ele>
        <time>2000-01-01T11:48:53.000Z</time>
      </trkpt>
      <trkpt lat="46.13102" lon="6.76094">
        <ele>1657</ele>
        <time>2000-01-01T11:49:03.000Z</time>
      </trkpt>
      <trkpt lat="46.13093" lon="6.76093">
        <ele>1659.1</ele>
        <time>2000-01-01T11:49:13.000Z</time>
      </trkpt>
      <trkpt lat="46.13081" lon="6.76092">
        <ele>1657</ele>
        <time>2000-01-01T11:49:23.000Z</time>
      </trkpt>
      <trkpt lat="46.1307" lon="6.7609">
        <ele>1659.5</ele>
        <time>2000-01-01T11:49:33.000Z</time>
      </trkpt>
      <trkpt lat="46.1306" lon="6.76092">
        <ele>1657</ele>
        <time>2000-01-01T11:49:43.000Z</time>
      </trkpt>
      <trkpt lat="46.13052" lon="6.76093">
        <ele>1658.9</ele>
        <time>2000-01-01T11:49:53.000Z</time>
      </trkpt>
      <trkpt lat="46.13041" lon="6.76104">
        <ele>1656</ele>
        <time>2000-01-01T11:50:03.000Z</time>
      </trkpt>
      <trkpt lat="46.1304" lon="6.76114">
        <ele>1656.1</ele>
        <time>2000-01-01T11:50:13.000Z</time>
      </trkpt>
      <trkpt lat="46.13037" lon="6.76119">
        <ele>1655.2</ele>
        <time>2000-01-01T11:50:23.000Z</time>
      </trkpt>
      <trkpt lat="46.13037" lon="6.76128">
        <ele>1654.6</ele>
        <time>2000-01-01T11:50:33.000Z</time>
      </trkpt>
      <trkpt lat="46.13038" lon="6.76137">
        <ele>1651</ele>
        <time>2000-01-01T11:50:43.000Z</time>
      </trkpt>
      <trkpt lat="46.13039" lon="6.76146">
        <ele>1654.3</ele>
        <time>2000-01-01T11:50:53.000Z</time>
      </trkpt>
      <trkpt lat="46.13041" lon="6.76154">
        <ele>1654.5</ele>
        <time>2000-01-01T11:51:03.000Z</time>
      </trkpt>
      <trkpt lat="46.13042" lon="6.76159">
        <ele>1654.5</ele>
        <time>2000-01-01T11:51:13.000Z</time>
      </trkpt>
      <trkpt lat="46.13041" lon="6.76162">
        <ele>1654.1</ele>
        <time>2000-01-01T11:51:23.000Z</time>
      </trkpt>
      <trkpt lat="46.13036" lon="6.76167">
        <ele>1650</ele>
        <time>2000-01-01T11:51:33.000Z</time>
      </trkpt>
      <trkpt lat="46.13029" lon="6.76171">
        <ele>1652.2</ele>
        <time>2000-01-01T11:51:43.000Z</time>
      </trkpt>
      <trkpt lat="46.13024" lon="6.76173">
        <ele>1651.8</ele>
        <time>2000-01-01T11:51:53.000Z</time>
      </trkpt>
      <trkpt lat="46.13019" lon="6.76177">
        <ele>1650</ele>
        <time>2000-01-01T11:52:03.000Z</time>
      </trkpt>
      <trkpt lat="46.13015" lon="6.76182">
        <ele>1651.4</ele>
        <time>2000-01-01T11:52:13.000Z</time>
      </trkpt>
      <trkpt lat="46.13014" lon="6.76189">
        <ele>1651.9</ele>
        <time>2000-01-01T11:52:23.000Z</time>
      </trkpt>
      <trkpt lat="46.13013" lon="6.76196">
        <ele>1652.2</ele>
        <time>2000-01-01T11:52:33.000Z</time>
      </trkpt>
      <trkpt lat="46.13015" lon="6.76208">
        <ele>1650</ele>
        <time>2000-01-01T11:52:43.000Z</time>
      </trkpt>
      <trkpt lat="46.13016" lon="6.76216">
        <ele>1653.6</ele>
        <time>2000-01-01T11:52:53.000Z</time>
      </trkpt>
      <trkpt lat="46.13017" lon="6.76226">
        <ele>1654</ele>
        <time>2000-01-01T11:53:03.000Z</time>
      </trkpt>
      <trkpt lat="46.13018" lon="6.76236">
        <ele>1650</ele>
        <time>2000-01-01T11:53:13.000Z</time>
      </trkpt>
      <trkpt lat="46.13019" lon="6.76249">
        <ele>1654.2</ele>
        <time>2000-01-01T11:53:23.000Z</time>
      </trkpt>
      <trkpt lat="46.1302" lon="6.76257">
        <ele>1654.3</ele>
        <time>2000-01-01T11:53:33.000Z</time>
      </trkpt>
      <trkpt lat="46.13022" lon="6.7627">
        <ele>1653</ele>
        <time>2000-01-01T11:53:43.000Z</time>
      </trkpt>
      <trkpt lat="46.13025" lon="6.76282">
        <ele>1655.1</ele>
        <time>2000-01-01T11:53:53.000Z</time>
      </trkpt>
      <trkpt lat="46.13028" lon="6.76292">
        <ele>1655.5</ele>
        <time>2000-01-01T11:54:03.000Z</time>
      </trkpt>
      <trkpt lat="46.1303" lon="6.76301">
        <ele>1655</ele>
        <time>2000-01-01T11:54:13.000Z</time>
      </trkpt>
      <trkpt lat="46.13034" lon="6.7631">
        <ele>1656</ele>
        <time>2000-01-01T11:54:23.000Z</time>
      </trkpt>
      <trkpt lat="46.13034" lon="6.76315">
        <ele>1656.1</ele>
        <time>2000-01-01T11:54:33.000Z</time>
      </trkpt>
      <trkpt lat="46.13035" lon="6.76324">
        <ele>1656.4</ele>
        <time>2000-01-01T11:54:43.000Z</time>
      </trkpt>
      <trkpt lat="46.13035" lon="6.76333">
        <ele>1655</ele>
        <time>2000-01-01T11:54:53.000Z</time>
      </trkpt>
      <trkpt lat="46.13035" lon="6.76341">
        <ele>1656.9</ele>
        <time>2000-01-01T11:55:03.000Z</time>
      </trkpt>
      <trkpt lat="46.13037" lon="6.76351">
        <ele>1657.3</ele>
        <time>2000-01-01T11:55:13.000Z</time>
      </trkpt>
      <trkpt lat="46.13037" lon="6.76356">
        <ele>1657.5</ele>
        <time>2000-01-01T11:55:23.000Z</time>
      </trkpt>
      <trkpt lat="46.13037" lon="6.76364">
        <ele>1657</ele>
        <time>2000-01-01T11:55:33.000Z</time>
      </trkpt>
      <trkpt lat="46.13036" lon="6.76369">
        <ele>1658.1</ele>
        <time>2000-01-01T11:55:43.000Z</time>
      </trkpt>
      <trkpt lat="46.13033" lon="6.76373">
        <ele>1658.6</ele>
        <time>2000-01-01T11:55:53.000Z</time>
      </trkpt>
      <trkpt lat="46.13025" lon="6.76375">
        <ele>1660</ele>
        <time>2000-01-01T11:56:03.000Z</time>
      </trkpt>
      <trkpt lat="46.13019" lon="6.76374">
        <ele>1661</ele>
        <time>2000-01-01T11:56:13.000Z</time>
      </trkpt>
      <trkpt lat="46.13013" lon="6.76371">
        <ele>1661.4</ele>
        <time>2000-01-01T11:56:23.000Z</time>
      </trkpt>
      <trkpt lat="46.13004" lon="6.76366">
        <ele>1661.7</ele>
        <time>2000-01-01T11:56:33.000Z</time>
      </trkpt>
      <trkpt lat="46.12999" lon="6.76364">
        <ele>1662</ele>
        <time>2000-01-01T11:56:43.000Z</time>
      </trkpt>
      <trkpt lat="46.12993" lon="6.76365">
        <ele>1662.2</ele>
        <time>2000-01-01T11:56:53.000Z</time>
      </trkpt>
      <trkpt lat="46.12989" lon="6.7637">
        <ele>1663.4</ele>
        <time>2000-01-01T11:57:03.000Z</time>
      </trkpt>
      <trkpt lat="46.12986" lon="6.76378">
        <ele>1665.1</ele>
        <time>2000-01-01T11:57:13.000Z</time>
      </trkpt>
      <trkpt lat="46.12983" lon="6.76389">
        <ele>1665</ele>
        <time>2000-01-01T11:57:23.000Z</time>
      </trkpt>
      <trkpt lat="46.12981" lon="6.76393">
        <ele>1667.9</ele>
        <time>2000-01-01T11:57:33.000Z</time>
      </trkpt>
      <trkpt lat="46.12976" lon="6.76398">
        <ele>1668.6</ele>
        <time>2000-01-01T11:57:43.000Z</time>
      </trkpt>
      <trkpt lat="46.12972" lon="6.76401">
        <ele>1669.2</ele>
        <time>2000-01-01T11:57:53.000Z</time>
      </trkpt>
      <trkpt lat="46.12967" lon="6.76404">
        <ele>1670</ele>
        <time>2000-01-01T11:58:03.000Z</time>
      </trkpt>
      <trkpt lat="46.12964" lon="6.76404">
        <ele>1671.3</ele>
        <time>2000-01-01T11:58:13.000Z</time>
      </trkpt>
      <trkpt lat="46.12958" lon="6.76405">
        <ele>1672.6</ele>
        <time>2000-01-01T11:58:23.000Z</time>
      </trkpt>
      <trkpt lat="46.12952" lon="6.76405">
        <ele>1673.8</ele>
        <time>2000-01-01T11:58:33.000Z</time>
      </trkpt>
      <trkpt lat="46.12948" lon="6.76404">
        <ele>1675</ele>
        <time>2000-01-01T11:58:43.000Z</time>
      </trkpt>
      <trkpt lat="46.12944" lon="6.76404">
        <ele>1675</ele>
        <time>2000-01-01T11:58:53.000Z</time>
      </trkpt>
      <trkpt lat="46.12939" lon="6.76403">
        <ele>1676.1</ele>
        <time>2000-01-01T11:59:03.000Z</time>
      </trkpt>
      <trkpt lat="46.12935" lon="6.76403">
        <ele>1677.3</ele>
        <time>2000-01-01T11:59:13.000Z</time>
      </trkpt>
      <trkpt lat="46.1293" lon="6.76402">
        <ele>1678.4</ele>
        <time>2000-01-01T11:59:23.000Z</time>
      </trkpt>
      <trkpt lat="46.12926" lon="6.76401">
        <ele>1680</ele>
        <time>2000-01-01T11:59:33.000Z</time>
      </trkpt>
      <trkpt lat="46.1292" lon="6.76398">
        <ele>1680.3</ele>
        <time>2000-01-01T11:59:43.000Z</time>
      </trkpt>
      <trkpt lat="46.12916" lon="6.76392">
        <ele>1679.9</ele>
        <time>2000-01-01T11:59:53.000Z</time>
      </trkpt>
      <trkpt lat="46.12911" lon="6.7639">
        <ele>1680.5</ele>
        <time>2000-01-01T12:00:03.000Z</time>
      </trkpt>
      <trkpt lat="46.12901" lon="6.76388">
        <ele>1680</ele>
        <time>2000-01-01T12:00:13.000Z</time>
      </trkpt>
      <trkpt lat="46.12893" lon="6.76386">
        <ele>1683.3</ele>
        <time>2000-01-01T12:00:23.000Z</time>
      </trkpt>
      <trkpt lat="46.12886" lon="6.76385">
        <ele>1684.7</ele>
        <time>2000-01-01T12:00:33.000Z</time>
      </trkpt>
      <trkpt lat="46.1288" lon="6.76384">
        <ele>1684</ele>
        <time>2000-01-01T12:00:43.000Z</time>
      </trkpt>
      <trkpt lat="46.12875" lon="6.76382">
        <ele>1686.9</ele>
        <time>2000-01-01T12:00:53.000Z</time>
      </trkpt>
      <trkpt lat="46.12869" lon="6.76382">
        <ele>1688.6</ele>
        <time>2000-01-01T12:01:03.000Z</time>
      </trkpt>
      <trkpt lat="46.12864" lon="6.76383">
        <ele>1690.4</ele>
        <time>2000-01-01T12:01:13.000Z</time>
      </trkpt>
      <trkpt lat="46.12864" lon="6.76388">
        <ele>1689</ele>
        <time>2000-01-01T12:01:23.000Z</time>
      </trkpt>
      <trkpt lat="46.12864" lon="6.76391">
        <ele>1693.7</ele>
        <time>2000-01-01T12:01:33.000Z</time>
      </trkpt>
      <trkpt lat="46.1286" lon="6.76394">
        <ele>1695.6</ele>
        <time>2000-01-01T12:01:43.000Z</time>
      </trkpt>
      <trkpt lat="46.12857" lon="6.76396">
        <ele>1696.5</ele>
        <time>2000-01-01T12:01:53.000Z</time>
      </trkpt>
      <trkpt lat="46.12855" lon="6.764">
        <ele>1697.9</ele>
        <time>2000-01-01T12:02:03.000Z</time>
      </trkpt>
      <trkpt lat="46.12852" lon="6.76401">
        <ele>1698.5</ele>
        <time>2000-01-01T12:02:13.000Z</time>
      </trkpt>
      <trkpt lat="46.1285" lon="6.76404">
        <ele>1700</ele>
        <time>2000-01-01T12:02:23.000Z</time>
      </trkpt>
      <trkpt lat="46.12848" lon="6.76409">
        <ele>1701.2</ele>
        <time>2000-01-01T12:02:33.000Z</time>
      </trkpt>
      <trkpt lat="46.12842" lon="6.76412">
        <ele>1702.7</ele>
        <time>2000-01-01T12:02:43.000Z</time>
      </trkpt>
      <trkpt lat="46.12838" lon="6.76415">
        <ele>1704</ele>
        <time>2000-01-01T12:02:53.000Z</time>
      </trkpt>
      <trkpt lat="46.12836" lon="6.76415">
        <ele>1704.2</ele>
        <time>2000-01-01T12:03:03.000Z</time>
      </trkpt>
      <trkpt lat="46.12833" lon="6.76418">
        <ele>1703</ele>
        <time>2000-01-01T12:03:13.000Z</time>
      </trkpt>
      <trkpt lat="46.12824" lon="6.76424">
        <ele>1708.9</ele>
        <time>2000-01-01T12:03:23.000Z</time>
      </trkpt>
      <trkpt lat="46.1282" lon="6.76426">
        <ele>1710.1</ele>
        <time>2000-01-01T12:03:33.000Z</time>
      </trkpt>
      <trkpt lat="46.12817" lon="6.76424">
        <ele>1709.8</ele>
        <time>2000-01-01T12:03:43.000Z</time>
      </trkpt>
      <trkpt lat="46.12812" lon="6.76423">
        <ele>1709</ele>
        <time>2000-01-01T12:03:53.000Z</time>
      </trkpt>
      <trkpt lat="46.12807" lon="6.76423">
        <ele>1710.9</ele>
        <time>2000-01-01T12:04:03.000Z</time>
      </trkpt>
      <trkpt lat="46.12803" lon="6.76424">
        <ele>1711.4</ele>
        <time>2000-01-01T12:04:13.000Z</time>
      </trkpt>
      <trkpt lat="46.128" lon="6.76428">
        <ele>1712.6</ele>
        <time>2000-01-01T12:04:23.000Z</time>
      </trkpt>
      <trkpt lat="46.12796" lon="6.76429">
        <ele>1712.9</ele>
        <time>2000-01-01T12:04:33.000Z</time>
      </trkpt>
      <trkpt lat="46.12792" lon="6.7643">
        <ele>1712</ele>
        <time>2000-01-01T12:04:43.000Z</time>
      </trkpt>
      <trkpt lat="46.12788" lon="6.76433">
        <ele>1713.8</ele>
        <time>2000-01-01T12:04:53.000Z</time>
      </trkpt>
      <trkpt lat="46.12787" lon="6.76437">
        <ele>1714.8</ele>
        <time>2000-01-01T12:05:03.000Z</time>
      </trkpt>
      <trkpt lat="46.12786" lon="6.76441">
        <ele>1715.7</ele>
        <time>2000-01-01T12:05:13.000Z</time>
      </trkpt>
      <trkpt lat="46.12786" lon="6.76447">
        <ele>1717.1</ele>
        <time>2000-01-01T12:05:23.000Z</time>
      </trkpt>
      <trkpt lat="46.12785" lon="6.76452">
        <ele>1718.2</ele>
        <time>2000-01-01T12:05:33.000Z</time>
      </trkpt>
      <trkpt lat="46.12784" lon="6.76456">
        <ele>1717</ele>
        <time>2000-01-01T12:05:43.000Z</time>
      </trkpt>
      <trkpt lat="46.12783" lon="6.76462">
        <ele>1720.2</ele>
        <time>2000-01-01T12:05:53.000Z</time>
      </trkpt>
      <trkpt lat="46.12782" lon="6.76469">
        <ele>1721.6</ele>
        <time>2000-01-01T12:06:03.000Z</time>
      </trkpt>
      <trkpt lat="46.12782" lon="6.76473">
        <ele>1722.5</ele>
        <time>2000-01-01T12:06:13.000Z</time>
      </trkpt>
      <trkpt lat="46.1278" lon="6.76476">
        <ele>1723.1</ele>
        <time>2000-01-01T12:06:23.000Z</time>
      </trkpt>
      <trkpt lat="46.12777" lon="6.76477">
        <ele>1723.2</ele>
        <time>2000-01-01T12:06:33.000Z</time>
      </trkpt>
      <trkpt lat="46.12774" lon="6.76481">
        <ele>1723</ele>
        <time>2000-01-01T12:06:43.000Z</time>
      </trkpt>
      <trkpt lat="46.1277" lon="6.76488">
        <ele>1725.5</ele>
        <time>2000-01-01T12:06:53.000Z</time>
      </trkpt>
      <trkpt lat="46.12768" lon="6.76495">
        <ele>1727.1</ele>
        <time>2000-01-01T12:07:03.000Z</time>
      </trkpt>
      <trkpt lat="46.12765" lon="6.76503">
        <ele>1728.7</ele>
        <time>2000-01-01T12:07:13.000Z</time>
      </trkpt>
      <trkpt lat="46.1276" lon="6.7651">
        <ele>1726</ele>
        <time>2000-01-01T12:07:23.000Z</time>
      </trkpt>
      <trkpt lat="46.12755" lon="6.76514">
        <ele>1730.4</ele>
        <time>2000-01-01T12:07:33.000Z</time>
      </trkpt>
      <trkpt lat="46.1275" lon="6.76517">
        <ele>1730.7</ele>
        <time>2000-01-01T12:07:43.000Z</time>
      </trkpt>
      <trkpt lat="46.12742" lon="6.76518">
        <ele>1728</ele>
        <time>2000-01-01T12:07:53.000Z</time>
      </trkpt>
      <trkpt lat="46.12737" lon="6.76518">
        <ele>1730.7</ele>
        <time>2000-01-01T12:08:03.000Z</time>
      </trkpt>
      <trkpt lat="46.1273" lon="6.76519">
        <ele>1730.9</ele>
        <time>2000-01-01T12:08:13.000Z</time>
      </trkpt>
      <trkpt lat="46.12726" lon="6.76521">
        <ele>1731.3</ele>
        <time>2000-01-01T12:08:23.000Z</time>
      </trkpt>
      <trkpt lat="46.12721" lon="6.76525">
        <ele>1730</ele>
        <time>2000-01-01T12:08:33.000Z</time>
      </trkpt>
      <trkpt lat="46.12713" lon="6.76533">
        <ele>1734</ele>
        <time>2000-01-01T12:08:43.000Z</time>
      </trkpt>
      <trkpt lat="46.12708" lon="6.7654">
        <ele>1735.6</ele>
        <time>2000-01-01T12:08:53.000Z</time>
      </trkpt>
      <trkpt lat="46.127" lon="6.76547">
        <ele>1734</ele>
        <time>2000-01-01T12:09:03.000Z</time>
      </trkpt>
      <trkpt lat="46.127" lon="6.76558">
        <ele>1739.2</ele>
        <time>2000-01-01T12:09:13.000Z</time>
      </trkpt>
      <trkpt lat="46.12697" lon="6.76566">
        <ele>1740.8</ele>
        <time>2000-01-01T12:09:23.000Z</time>
      </trkpt>
      <trkpt lat="46.12696" lon="6.76574">
        <ele>1742</ele>
        <time>2000-01-01T12:09:33.000Z</time>
      </trkpt>
      <trkpt lat="46.12694" lon="6.76577">
        <ele>1743.4</ele>
        <time>2000-01-01T12:09:43.000Z</time>
      </trkpt>
      <trkpt lat="46.12688" lon="6.76579">
        <ele>1744.4</ele>
        <time>2000-01-01T12:09:53.000Z</time>
      </trkpt>
      <trkpt lat="46.12684" lon="6.76585">
        <ele>1746</ele>
        <time>2000-01-01T12:10:03.000Z</time>
      </trkpt>
      <trkpt lat="46.12674" lon="6.76598">
        <ele>1747</ele>
        <time>2000-01-01T12:10:13.000Z</time>
      </trkpt>
      <trkpt lat="46.1267" lon="6.76605">
        <ele>1750</ele>
        <time>2000-01-01T12:10:23.000Z</time>
      </trkpt>
      <trkpt lat="46.12665" lon="6.76614">
        <ele>1751.7</ele>
        <time>2000-01-01T12:10:33.000Z</time>
      </trkpt>
      <trkpt lat="46.12658" lon="6.76622">
        <ele>1752</ele>
        <time>2000-01-01T12:10:43.000Z</time>
      </trkpt>
      <trkpt lat="46.12658" lon="6.76634">
        <ele>1756.3</ele>
        <time>2000-01-01T12:10:53.000Z</time>
      </trkpt>
      <trkpt lat="46.1266" lon="6.76643">
        <ele>1757.8</ele>
        <time>2000-01-01T12:11:03.000Z</time>
      </trkpt>
      <trkpt lat="46.1266" lon="6.76649">
        <ele>1757</ele>
        <time>2000-01-01T12:11:13.000Z</time>
      </trkpt>
      <trkpt lat="46.12663" lon="6.76654">
        <ele>1759.2</ele>
        <time>2000-01-01T12:11:23.000Z</time>
      </trkpt>
      <trkpt lat="46.12663" lon="6.76666">
        <ele>1760.9</ele>
        <time>2000-01-01T12:11:33.000Z</time>
      </trkpt>
      <trkpt lat="46.12665" lon="6.76671">
        <ele>1761.5</ele>
        <time>2000-01-01T12:11:43.000Z</time>
      </trkpt>
      <trkpt lat="46.12665" lon="6.76675">
        <ele>1760</ele>
        <time>2000-01-01T12:11:53.000Z</time>
      </trkpt>
      <trkpt lat="46.12663" lon="6.76679">
        <ele>1762.3</ele>
        <time>2000-01-01T12:12:03.000Z</time>
      </trkpt>
      <trkpt lat="46.12664" lon="6.76684">
        <ele>1762.8</ele>
        <time>2000-01-01T12:12:13.000Z</time>
      </trkpt>
      <trkpt lat="46.12671" lon="6.76691">
        <ele>1764.4</ele>
        <time>2000-01-01T12:12:23.000Z</time>
      </trkpt>
      <trkpt lat="46.12672" lon="6.76699">
        <ele>1764</ele>
        <time>2000-01-01T12:12:33.000Z</time>
      </trkpt>
      <trkpt lat="46.1267" lon="6.76702">
        <ele>1765.3</ele>
        <time>2000-01-01T12:12:43.000Z</time>
      </trkpt>
      <trkpt lat="46.12668" lon="6.76704">
        <ele>1765.2</ele>
        <time>2000-01-01T12:12:53.000Z</time>
      </trkpt>
      <trkpt lat="46.1267" lon="6.76709">
        <ele>1765.9</ele>
        <time>2000-01-01T12:13:03.000Z</time>
      </trkpt>
      <trkpt lat="46.12671" lon="6.7671">
        <ele>1766.1</ele>
        <time>2000-01-01T12:13:13.000Z</time>
      </trkpt>
      <trkpt lat="46.1267" lon="6.76719">
        <ele>1766.8</ele>
        <time>2000-01-01T12:13:23.000Z</time>
      </trkpt>
      <trkpt lat="46.1267" lon="6.76721">
        <ele>1767</ele>
        <time>2000-01-01T12:13:33.000Z</time>
      </trkpt>
      <trkpt lat="46.1267" lon="6.76728">
        <ele>1767</ele>
        <time>2000-01-01T12:13:43.000Z</time>
      </trkpt>
      <trkpt lat="46.12671" lon="6.76734">
        <ele>1768.7</ele>
        <time>2000-01-01T12:13:53.000Z</time>
      </trkpt>
      <trkpt lat="46.1267" lon="6.76744">
        <ele>1770.1</ele>
        <time>2000-01-01T12:14:03.000Z</time>
      </trkpt>
      <trkpt lat="46.1267" lon="6.76753">
        <ele>1771.7</ele>
        <time>2000-01-01T12:14:13.000Z</time>
      </trkpt>
      <trkpt lat="46.1267" lon="6.76759">
        <ele>1771</ele>
        <time>2000-01-01T12:14:23.000Z</time>
      </trkpt>
      <trkpt lat="46.12675" lon="6.76766">
        <ele>1775.1</ele>
        <time>2000-01-01T12:14:33.000Z</time>
      </trkpt>
      <trkpt lat="46.12677" lon="6.76771">
        <ele>1776.5</ele>
        <time>2000-01-01T12:14:43.000Z</time>
      </trkpt>
      <trkpt lat="46.12678" lon="6.76778">
        <ele>1778.5</ele>
        <time>2000-01-01T12:14:53.000Z</time>
      </trkpt>
      <trkpt lat="46.12678" lon="6.76787">
        <ele>1779</ele>
        <time>2000-01-01T12:15:03.000Z</time>
      </trkpt>
      <trkpt lat="46.12678" lon="6.76795">
        <ele>1782.9</ele>
        <time>2000-01-01T12:15:13.000Z</time>
      </trkpt>
      <trkpt lat="46.12678" lon="6.76802">
        <ele>1784.7</ele>
        <time>2000-01-01T12:15:23.000Z</time>
      </trkpt>
      <trkpt lat="46.12678" lon="6.76806">
        <ele>1785.7</ele>
        <time>2000-01-01T12:15:33.000Z</time>
      </trkpt>
      <trkpt lat="46.12683" lon="6.76811">
        <ele>1787</ele>
        <time>2000-01-01T12:15:43.000Z</time>
      </trkpt>
      <trkpt lat="46.12695" lon="6.76817">
        <ele>1791</ele>
        <time>2000-01-01T12:15:53.000Z</time>
      </trkpt>
      <trkpt lat="46.12696" lon="6.7682">
        <ele>1791.9</ele>
        <time>2000-01-01T12:16:03.000Z</time>
      </trkpt>
      <trkpt lat="46.12696" lon="6.76825">
        <ele>1791</ele>
        <time>2000-01-01T12:16:13.000Z</time>
      </trkpt>
      <trkpt lat="46.127" lon="6.76827">
        <ele>1794.5</ele>
        <time>2000-01-01T12:16:23.000Z</time>
      </trkpt>
      <trkpt lat="46.12704" lon="6.76829">
        <ele>1795.8</ele>
        <time>2000-01-01T12:16:33.000Z</time>
      </trkpt>
      <trkpt lat="46.12708" lon="6.76833">
        <ele>1797.8</ele>
        <time>2000-01-01T12:16:43.000Z</time>
      </trkpt>
      <trkpt lat="46.12712" lon="6.7684">
        <ele>1799</ele>
        <time>2000-01-01T12:16:53.000Z</time>
      </trkpt>
      <trkpt lat="46.12715" lon="6.76846">
        <ele>1800.6</ele>
        <time>2000-01-01T12:17:03.000Z</time>
      </trkpt>
      <trkpt lat="46.12717" lon="6.76852">
        <ele>1801.5</ele>
        <time>2000-01-01T12:17:13.000Z</time>
      </trkpt>
      <trkpt lat="46.12722" lon="6.7686">
        <ele>1802.9</ele>
        <time>2000-01-01T12:17:23.000Z</time>
      </trkpt>
      <trkpt lat="46.12724" lon="6.76871">
        <ele>1802</ele>
        <time>2000-01-01T12:17:33.000Z</time>
      </trkpt>
      <trkpt lat="46.12726" lon="6.76871">
        <ele>1803.5</ele>
        <time>2000-01-01T12:17:43.000Z</time>
      </trkpt>
      <trkpt lat="46.12729" lon="6.76874">
        <ele>1804</ele>
        <time>2000-01-01T12:17:53.000Z</time>
      </trkpt>
      <trkpt lat="46.12735" lon="6.76879">
        <ele>1805</ele>
        <time>2000-01-01T12:18:03.000Z</time>
      </trkpt>
      <trkpt lat="46.12739" lon="6.7688">
        <ele>1805.7</ele>
        <time>2000-01-01T12:18:13.000Z</time>
      </trkpt>
      <trkpt lat="46.12744" lon="6.76883">
        <ele>1806</ele>
        <time>2000-01-01T12:18:23.000Z</time>
      </trkpt>
      <trkpt lat="46.12748" lon="6.76888">
        <ele>1806.7</ele>
        <time>2000-01-01T12:18:33.000Z</time>
      </trkpt>
      <trkpt lat="46.12754" lon="6.76899">
        <ele>1807.7</ele>
        <time>2000-01-01T12:18:43.000Z</time>
      </trkpt>
      <trkpt lat="46.12758" lon="6.76905">
        <ele>1806</ele>
        <time>2000-01-01T12:18:53.000Z</time>
      </trkpt>
      <trkpt lat="46.12761" lon="6.76909">
        <ele>1809.2</ele>
        <time>2000-01-01T12:19:03.000Z</time>
      </trkpt>
      <trkpt lat="46.12767" lon="6.76913">
        <ele>1810.5</ele>
        <time>2000-01-01T12:19:13.000Z</time>
      </trkpt>
      <trkpt lat="46.12772" lon="6.76917">
        <ele>1811.8</ele>
        <time>2000-01-01T12:19:23.000Z</time>
      </trkpt>
      <trkpt lat="46.12778" lon="6.76922">
        <ele>1811</ele>
        <time>2000-01-01T12:19:33.000Z</time>
      </trkpt>
      <trkpt lat="46.12784" lon="6.76929">
        <ele>1815</ele>
        <time>2000-01-01T12:19:43.000Z</time>
      </trkpt>
      <trkpt lat="46.12793" lon="6.76936">
        <ele>1817.7</ele>
        <time>2000-01-01T12:19:53.000Z</time>
      </trkpt>
      <trkpt lat="46.12798" lon="6.76941">
        <ele>1817</ele>
        <time>2000-01-01T12:20:03.000Z</time>
      </trkpt>
      <trkpt lat="46.12805" lon="6.76946">
        <ele>1822</ele>
        <time>2000-01-01T12:20:13.000Z</time>
      </trkpt>
      <trkpt lat="46.12812" lon="6.76952">
        <ele>1823.6</ele>
        <time>2000-01-01T12:20:23.000Z</time>
      </trkpt>
      <trkpt lat="46.1282" lon="6.76958">
        <ele>1825</ele>
        <time>2000-01-01T12:20:33.000Z</time>
      </trkpt>
      <trkpt lat="46.12827" lon="6.76963">
        <ele>1827.5</ele>
        <time>2000-01-01T12:20:43.000Z</time>
      </trkpt>
      <trkpt lat="46.12828" lon="6.76963">
        <ele>1827.6</ele>
        <time>2000-01-01T12:20:53.000Z</time>
      </trkpt>
      <trkpt lat="46.12837" lon="6.76971">
        <ele>1829</ele>
        <time>2000-01-01T12:21:03.000Z</time>
      </trkpt>
      <trkpt lat="46.12846" lon="6.76977">
        <ele>1831.7</ele>
        <time>2000-01-01T12:21:13.000Z</time>
      </trkpt>
      <trkpt lat="46.1285" lon="6.76981">
        <ele>1832.5</ele>
        <time>2000-01-01T12:21:23.000Z</time>
      </trkpt>
      <trkpt lat="46.12855" lon="6.76989">
        <ele>1832</ele>
        <time>2000-01-01T12:21:33.000Z</time>
      </trkpt>
      <trkpt lat="46.12859" lon="6.76994">
        <ele>1835</ele>
        <time>2000-01-01T12:21:43.000Z</time>
      </trkpt>
      <trkpt lat="46.12862" lon="6.76999">
        <ele>1835.9</ele>
        <time>2000-01-01T12:21:53.000Z</time>
      </trkpt>
      <trkpt lat="46.12863" lon="6.77005">
        <ele>1836.1</ele>
        <time>2000-01-01T12:22:03.000Z</time>
      </trkpt>
      <trkpt lat="46.12864" lon="6.77013">
        <ele>1836</ele>
        <time>2000-01-01T12:22:13.000Z</time>
      </trkpt>
      <trkpt lat="46.12866" lon="6.77016">
        <ele>1836.5</ele>
        <time>2000-01-01T12:22:23.000Z</time>
      </trkpt>
      <trkpt lat="46.1287" lon="6.7702">
        <ele>1837</ele>
        <time>2000-01-01T12:22:33.000Z</time>
      </trkpt>
      <trkpt lat="46.12873" lon="6.77026">
        <ele>1837.6</ele>
        <time>2000-01-01T12:22:43.000Z</time>
      </trkpt>
      <trkpt lat="46.12877" lon="6.77032">
        <ele>1839</ele>
        <time>2000-01-01T12:22:53.000Z</time>
      </trkpt>
      <trkpt lat="46.12879" lon="6.77035">
        <ele>1837</ele>
        <time>2000-01-01T12:23:03.000Z</time>
      </trkpt>
      <trkpt lat="46.12879" lon="6.77039">
        <ele>1840.3</ele>
        <time>2000-01-01T12:23:13.000Z</time>
      </trkpt>
      <trkpt lat="46.12879" lon="6.77044">
        <ele>1841.1</ele>
        <time>2000-01-01T12:23:23.000Z</time>
      </trkpt>
      <trkpt lat="46.12878" lon="6.77048">
        <ele>1841.6</ele>
        <time>2000-01-01T12:23:33.000Z</time>
      </trkpt>
      <trkpt lat="46.12877" lon="6.77054">
        <ele>1842.5</ele>
        <time>2000-01-01T12:23:43.000Z</time>
      </trkpt>
      <trkpt lat="46.12878" lon="6.77058">
        <ele>1843.2</ele>
        <time>2000-01-01T12:23:53.000Z</time>
      </trkpt>
      <trkpt lat="46.12877" lon="6.77061">
        <ele>1843.6</ele>
        <time>2000-01-01T12:24:03.000Z</time>
      </trkpt>
      <trkpt lat="46.12875" lon="6.77065">
        <ele>1842</ele>
        <time>2000-01-01T12:24:13.000Z</time>
      </trkpt>
      <trkpt lat="46.12873" lon="6.77069">
        <ele>1844.4</ele>
        <time>2000-01-01T12:24:23.000Z</time>
      </trkpt>
      <trkpt lat="46.12869" lon="6.77077">
        <ele>1844.8</ele>
        <time>2000-01-01T12:24:33.000Z</time>
      </trkpt>
      <trkpt lat="46.12867" lon="6.77085">
        <ele>1845.6</ele>
        <time>2000-01-01T12:24:43.000Z</time>
      </trkpt>
      <trkpt lat="46.12865" lon="6.77091">
        <ele>1844</ele>
        <time>2000-01-01T12:24:53.000Z</time>
      </trkpt>
      <trkpt lat="46.12862" lon="6.77098">
        <ele>1847.3</ele>
        <time>2000-01-01T12:25:03.000Z</time>
      </trkpt>
      <trkpt lat="46.1286" lon="6.77103">
        <ele>1848.2</ele>
        <time>2000-01-01T12:25:13.000Z</time>
      </trkpt>
      <trkpt lat="46.12859" lon="6.77107">
        <ele>1849.1</ele>
        <time>2000-01-01T12:25:23.000Z</time>
      </trkpt>
      <trkpt lat="46.12855" lon="6.77109">
        <ele>1849.5</ele>
        <time>2000-01-01T12:25:33.000Z</time>
      </trkpt>
      <trkpt lat="46.12853" lon="6.77108">
        <ele>1846</ele>
        <time>2000-01-01T12:25:43.000Z</time>
      </trkpt>
      <trkpt lat="46.12847" lon="6.77109">
        <ele>1849.5</ele>
        <time>2000-01-01T12:25:53.000Z</time>
      </trkpt>
      <trkpt lat="46.12841" lon="6.77113">
        <ele>1850.6</ele>
        <time>2000-01-01T12:26:03.000Z</time>
      </trkpt>
      <trkpt lat="46.12833" lon="6.77119">
        <ele>1849</ele>
        <time>2000-01-01T12:26:13.000Z</time>
      </trkpt>
      <trkpt lat="46.12829" lon="6.77121">
        <ele>1852.8</ele>
        <time>2000-01-01T12:26:23.000Z</time>
      </trkpt>
      <trkpt lat="46.12825" lon="6.77125">
        <ele>1853.6</ele>
        <time>2000-01-01T12:26:33.000Z</time>
      </trkpt>
      <trkpt lat="46.12821" lon="6.77128">
        <ele>1853.9</ele>
        <time>2000-01-01T12:26:43.000Z</time>
      </trkpt>
      <trkpt lat="46.12819" lon="6.7713">
        <ele>1854.2</ele>
        <time>2000-01-01T12:26:53.000Z</time>
      </trkpt>
      <trkpt lat="46.12816" lon="6.77132">
        <ele>1853</ele>
        <time>2000-01-01T12:27:03.000Z</time>
      </trkpt>
      <trkpt lat="46.12815" lon="6.77134">
        <ele>1854.6</ele>
        <time>2000-01-01T12:27:13.000Z</time>
      </trkpt>
      <trkpt lat="46.12816" lon="6.77136">
        <ele>1855.2</ele>
        <time>2000-01-01T12:27:23.000Z</time>
      </trkpt>
      <trkpt lat="46.12818" lon="6.77139">
        <ele>1856.3</ele>
        <time>2000-01-01T12:27:33.000Z</time>
      </trkpt>
      <trkpt lat="46.12821" lon="6.77143">
        <ele>1857.7</ele>
        <time>2000-01-01T12:27:43.000Z</time>
      </trkpt>
      <trkpt lat="46.12822" lon="6.77143">
        <ele>1857.9</ele>
        <time>2000-01-01T12:27:53.000Z</time>
      </trkpt>
      <trkpt lat="46.12825" lon="6.77142">
        <ele>1858.2</ele>
        <time>2000-01-01T12:28:03.000Z</time>
      </trkpt>
      <trkpt lat="46.12828" lon="6.77142">
        <ele>1858.8</ele>
        <time>2000-01-01T12:28:13.000Z</time>
      </trkpt>
      <trkpt lat="46.1283" lon="6.77145">
        <ele>1859</ele>
        <time>2000-01-01T12:28:23.000Z</time>
      </trkpt>
      <trkpt lat="46.12831" lon="6.77147">
        <ele>1860.6</ele>
        <time>2000-01-01T12:28:33.000Z</time>
      </trkpt>
      <trkpt lat="46.1283" lon="6.7715">
        <ele>1861.1</ele>
        <time>2000-01-01T12:28:43.000Z</time>
      </trkpt>
      <trkpt lat="46.1283" lon="6.77153">
        <ele>1861.8</ele>
        <time>2000-01-01T12:28:53.000Z</time>
      </trkpt>
      <trkpt lat="46.1283" lon="6.77155">
        <ele>1862.3</ele>
        <time>2000-01-01T12:29:03.000Z</time>
      </trkpt>
      <trkpt lat="46.12834" lon="6.77159">
        <ele>1864.1</ele>
        <time>2000-01-01T12:29:13.000Z</time>
      </trkpt>
      <trkpt lat="46.12837" lon="6.77163">
        <ele>1865.3</ele>
        <time>2000-01-01T12:29:23.000Z</time>
      </trkpt>
      <trkpt lat="46.12839" lon="6.77168">
        <ele>1863</ele>
        <time>2000-01-01T12:29:33.000Z</time>
      </trkpt>
      <trkpt lat="46.12841" lon="6.77169">
        <ele>1867</ele>
        <time>2000-01-01T12:29:43.000Z</time>
      </trkpt>
      <trkpt lat="46.12843" lon="6.77171">
        <ele>1867.6</ele>
        <time>2000-01-01T12:29:53.000Z</time>
      </trkpt>
      <trkpt lat="46.12843" lon="6.77173">
        <ele>1868</ele>
        <time>2000-01-01T12:30:03.000Z</time>
      </trkpt>
      <trkpt lat="46.12844" lon="6.77174">
        <ele>1868.3</ele>
        <time>2000-01-01T12:30:13.000Z</time>
      </trkpt>
      <trkpt lat="46.12847" lon="6.77175">
        <ele>1868.8</ele>
        <time>2000-01-01T12:30:23.000Z</time>
      </trkpt>
      <trkpt lat="46.1285" lon="6.77176">
        <ele>1869.3</ele>
        <time>2000-01-01T12:30:33.000Z</time>
      </trkpt>
      <trkpt lat="46.12852" lon="6.77179">
        <ele>1870.2</ele>
        <time>2000-01-01T12:30:43.000Z</time>
      </trkpt>
      <trkpt lat="46.12856" lon="6.7718">
        <ele>1871</ele>
        <time>2000-01-01T12:30:53.000Z</time>
      </trkpt>
      <trkpt lat="46.12858" lon="6.77183">
        <ele>1871.8</ele>
        <time>2000-01-01T12:31:03.000Z</time>
      </trkpt>
      <trkpt lat="46.12859" lon="6.77188">
        <ele>1873.1</ele>
        <time>2000-01-01T12:31:13.000Z</time>
      </trkpt>
      <trkpt lat="46.12862" lon="6.77193">
        <ele>1874.7</ele>
        <time>2000-01-01T12:31:23.000Z</time>
      </trkpt>
      <trkpt lat="46.12864" lon="6.77198">
        <ele>1876</ele>
        <time>2000-01-01T12:31:33.000Z</time>
      </trkpt>
      <trkpt lat="46.12868" lon="6.772">
        <ele>1877</ele>
        <time>2000-01-01T12:31:43.000Z</time>
      </trkpt>
      <trkpt lat="46.1287" lon="6.77201">
        <ele>1877.1</ele>
        <time>2000-01-01T12:31:53.000Z</time>
      </trkpt>
      <trkpt lat="46.1287" lon="6.77205">
        <ele>1878.2</ele>
        <time>2000-01-01T12:32:03.000Z</time>
      </trkpt>
      <trkpt lat="46.1287" lon="6.77207">
        <ele>1878.8</ele>
        <time>2000-01-01T12:32:13.000Z</time>
      </trkpt>
      <trkpt lat="46.12871" lon="6.77208">
        <ele>1879.1</ele>
        <time>2000-01-01T12:32:23.000Z</time>
      </trkpt>
      <trkpt lat="46.12872" lon="6.7721">
        <ele>1879.8</ele>
        <time>2000-01-01T12:32:33.000Z</time>
      </trkpt>
      <trkpt lat="46.12875" lon="6.77213">
        <ele>1880.8</ele>
        <time>2000-01-01T12:32:43.000Z</time>
      </trkpt>
      <trkpt lat="46.12876" lon="6.77216">
        <ele>1881.8</ele>
        <time>2000-01-01T12:32:53.000Z</time>
      </trkpt>
      <trkpt lat="46.12876" lon="6.77219">
        <ele>1882.7</ele>
        <time>2000-01-01T12:33:03.000Z</time>
      </trkpt>
      <trkpt lat="46.12876" lon="6.77224">
        <ele>1882</ele>
        <time>2000-01-01T12:33:13.000Z</time>
      </trkpt>
      <trkpt lat="46.12876" lon="6.7723">
        <ele>1885</ele>
        <time>2000-01-01T12:33:23.000Z</time>
      </trkpt>
      <trkpt lat="46.12877" lon="6.77238">
        <ele>1886.7</ele>
        <time>2000-01-01T12:33:33.000Z</time>
      </trkpt>
      <trkpt lat="46.12879" lon="6.7724">
        <ele>1887.5</ele>
        <time>2000-01-01T12:33:43.000Z</time>
      </trkpt>
      <trkpt lat="46.12882" lon="6.77243">
        <ele>1888.7</ele>
        <time>2000-01-01T12:33:53.000Z</time>
      </trkpt>
      <trkpt lat="46.12884" lon="6.77247">
        <ele>1888</ele>
        <time>2000-01-01T12:34:03.000Z</time>
      </trkpt>
      <trkpt lat="46.12885" lon="6.77251">
        <ele>1891.2</ele>
        <time>2000-01-01T12:34:13.000Z</time>
      </trkpt>
      <trkpt lat="46.12885" lon="6.77257">
        <ele>1892.2</ele>
        <time>2000-01-01T12:34:23.000Z</time>
      </trkpt>
      <trkpt lat="46.12886" lon="6.77264">
        <ele>1893.6</ele>
        <time>2000-01-01T12:34:33.000Z</time>
      </trkpt>
      <trkpt lat="46.12889" lon="6.77269">
        <ele>1895.4</ele>
        <time>2000-01-01T12:34:43.000Z</time>
      </trkpt>
      <trkpt lat="46.12892" lon="6.77275">
        <ele>1896</ele>
        <time>2000-01-01T12:34:53.000Z</time>
      </trkpt>
      <trkpt lat="46.12895" lon="6.77278">
        <ele>1898.1</ele>
        <time>2000-01-01T12:35:03.000Z</time>
      </trkpt>
      <trkpt lat="46.12897" lon="6.77281">
        <ele>1899</ele>
        <time>2000-01-01T12:35:13.000Z</time>
      </trkpt>
      <trkpt lat="46.12898" lon="6.77286">
        <ele>1899.9</ele>
        <time>2000-01-01T12:35:23.000Z</time>
      </trkpt>
      <trkpt lat="46.129" lon="6.77293">
        <ele>1901.4</ele>
        <time>2000-01-01T12:35:33.000Z</time>
      </trkpt>
      <trkpt lat="46.12903" lon="6.773">
        <ele>1901</ele>
        <time>2000-01-01T12:35:43.000Z</time>
      </trkpt>
      <trkpt lat="46.12906" lon="6.77306">
        <ele>1904.8</ele>
        <time>2000-01-01T12:35:53.000Z</time>
      </trkpt>
      <trkpt lat="46.12908" lon="6.77308">
        <ele>1905.5</ele>
        <time>2000-01-01T12:36:03.000Z</time>
      </trkpt>
      <trkpt lat="46.12909" lon="6.77312">
        <ele>1906.3</ele>
        <time>2000-01-01T12:36:13.000Z</time>
      </trkpt>
      <trkpt lat="46.12912" lon="6.77314">
        <ele>1907.2</ele>
        <time>2000-01-01T12:36:23.000Z</time>
      </trkpt>
      <trkpt lat="46.12913" lon="6.77318">
        <ele>1908</ele>
        <time>2000-01-01T12:36:33.000Z</time>
      </trkpt>
      <trkpt lat="46.12917" lon="6.77323">
        <ele>1908</ele>
        <time>2000-01-01T12:36:43.000Z</time>
      </trkpt>
      <trkpt lat="46.1292" lon="6.77325">
        <ele>1910.2</ele>
        <time>2000-01-01T12:36:53.000Z</time>
      </trkpt>
      <trkpt lat="46.12921" lon="6.77325">
        <ele>1910.3</ele>
        <time>2000-01-01T12:37:03.000Z</time>
      </trkpt>
      <trkpt lat="46.12927" lon="6.7733">
        <ele>1911.9</ele>
        <time>2000-01-01T12:37:13.000Z</time>
      </trkpt>
      <trkpt lat="46.1293" lon="6.77332">
        <ele>1912.7</ele>
        <time>2000-01-01T12:37:23.000Z</time>
      </trkpt>
      <trkpt lat="46.12939" lon="6.77338">
        <ele>1912</ele>
        <time>2000-01-01T12:37:33.000Z</time>
      </trkpt>
      <trkpt lat="46.12942" lon="6.77342">
        <ele>1916.2</ele>
        <time>2000-01-01T12:37:43.000Z</time>
      </trkpt>
      <trkpt lat="46.12949" lon="6.77349">
        <ele>1918.2</ele>
        <time>2000-01-01T12:37:53.000Z</time>
      </trkpt>
      <trkpt lat="46.12951" lon="6.77351">
        <ele>1918.8</ele>
        <time>2000-01-01T12:38:03.000Z</time>
      </trkpt>
      <trkpt lat="46.12958" lon="6.77352">
        <ele>1918</ele>
        <time>2000-01-01T12:38:13.000Z</time>
      </trkpt>
      <trkpt lat="46.12964" lon="6.77356">
        <ele>1921.1</ele>
        <time>2000-01-01T12:38:23.000Z</time>
      </trkpt>
      <trkpt lat="46.12969" lon="6.77363">
        <ele>1923.1</ele>
        <time>2000-01-01T12:38:33.000Z</time>
      </trkpt>
      <trkpt lat="46.12977" lon="6.77367">
        <ele>1922</ele>
        <time>2000-01-01T12:38:43.000Z</time>
      </trkpt>
      <trkpt lat="46.1298" lon="6.77368">
        <ele>1924.7</ele>
        <time>2000-01-01T12:38:53.000Z</time>
      </trkpt>
      <trkpt lat="46.12986" lon="6.77373">
        <ele>1926.2</ele>
        <time>2000-01-01T12:39:03.000Z</time>
      </trkpt>
      <trkpt lat="46.12991" lon="6.77375">
        <ele>1927</ele>
        <time>2000-01-01T12:39:13.000Z</time>
      </trkpt>
      <trkpt lat="46.12996" lon="6.77379">
        <ele>1925</ele>
        <time>2000-01-01T12:39:23.000Z</time>
      </trkpt>
      <trkpt lat="46.13001" lon="6.77381">
        <ele>1929.4</ele>
        <time>2000-01-01T12:39:33.000Z</time>
      </trkpt>
      <trkpt lat="46.13005" lon="6.77384">
        <ele>1930.4</ele>
        <time>2000-01-01T12:39:43.000Z</time>
      </trkpt>
      <trkpt lat="46.13007" lon="6.77387">
        <ele>1931.4</ele>
        <time>2000-01-01T12:39:53.000Z</time>
      </trkpt>
      <trkpt lat="46.13011" lon="6.77391">
        <ele>1932.6</ele>
        <time>2000-01-01T12:40:03.000Z</time>
      </trkpt>
      <trkpt lat="46.13016" lon="6.77394">
        <ele>1933</ele>
        <time>2000-01-01T12:40:13.000Z</time>
      </trkpt>
      <trkpt lat="46.1302" lon="6.774">
        <ele>1935</ele>
        <time>2000-01-01T12:40:23.000Z</time>
      </trkpt>
      <trkpt lat="46.1302" lon="6.77403">
        <ele>1935.8</ele>
        <time>2000-01-01T12:40:33.000Z</time>
      </trkpt>
      <trkpt lat="46.13025" lon="6.7741">
        <ele>1937.5</ele>
        <time>2000-01-01T12:40:43.000Z</time>
      </trkpt>
      <trkpt lat="46.13025" lon="6.77413">
        <ele>1938.2</ele>
        <time>2000-01-01T12:40:53.000Z</time>
      </trkpt>
      <trkpt lat="46.13029" lon="6.77419">
        <ele>1937</ele>
        <time>2000-01-01T12:41:03.000Z</time>
      </trkpt>
      <trkpt lat="46.13031" lon="6.77423">
        <ele>1940.7</ele>
        <time>2000-01-01T12:41:13.000Z</time>
      </trkpt>
      <trkpt lat="46.13031" lon="6.7743">
        <ele>1942.7</ele>
        <time>2000-01-01T12:41:23.000Z</time>
      </trkpt>
      <trkpt lat="46.13034" lon="6.77435">
        <ele>1944.1</ele>
        <time>2000-01-01T12:41:33.000Z</time>
      </trkpt>
      <trkpt lat="46.13037" lon="6.77442">
        <ele>1946</ele>
        <time>2000-01-01T12:41:43.000Z</time>
      </trkpt>
      <trkpt lat="46.13038" lon="6.77447">
        <ele>1944</ele>
        <time>2000-01-01T12:41:53.000Z</time>
      </trkpt>
      <trkpt lat="46.13037" lon="6.77453">
        <ele>1948.7</ele>
        <time>2000-01-01T12:42:03.000Z</time>
      </trkpt>
      <trkpt lat="46.13035" lon="6.77457">
        <ele>1949.7</ele>
        <time>2000-01-01T12:42:13.000Z</time>
      </trkpt>
      <trkpt lat="46.13032" lon="6.7746">
        <ele>1950.4</ele>
        <time>2000-01-01T12:42:23.000Z</time>
      </trkpt>
      <trkpt lat="46.13032" lon="6.77463">
        <ele>1951.1</ele>
        <time>2000-01-01T12:42:33.000Z</time>
      </trkpt>
      <trkpt lat="46.13033" lon="6.77471">
        <ele>1952</ele>
        <time>2000-01-01T12:42:43.000Z</time>
      </trkpt>
      <trkpt lat="46.13034" lon="6.77479">
        <ele>1955.1</ele>
        <time>2000-01-01T12:42:53.000Z</time>
      </trkpt>
      <trkpt lat="46.13032" lon="6.77492">
        <ele>1958.7</ele>
        <time>2000-01-01T12:43:03.000Z</time>
      </trkpt>
      <trkpt lat="46.13034" lon="6.77497">
        <ele>1960.2</ele>
        <time>2000-01-01T12:43:13.000Z</time>
      </trkpt>
      <trkpt lat="46.13034" lon="6.77503">
        <ele>1960</ele>
        <time>2000-01-01T12:43:23.000Z</time>
      </trkpt>
      <trkpt lat="46.13032" lon="6.77509">
        <ele>1963.7</ele>
        <time>2000-01-01T12:43:33.000Z</time>
      </trkpt>
      <trkpt lat="46.13032" lon="6.7752">
        <ele>1967</ele>
        <time>2000-01-01T12:43:43.000Z</time>
      </trkpt>
      <trkpt lat="46.13031" lon="6.77526">
        <ele>1968.7</ele>
        <time>2000-01-01T12:43:53.000Z</time>
      </trkpt>
      <trkpt lat="46.13031" lon="6.77536">
        <ele>1969</ele>
        <time>2000-01-01T12:44:03.000Z</time>
      </trkpt>
      <trkpt lat="46.13034" lon="6.77541">
        <ele>1973.3</ele>
        <time>2000-01-01T12:44:13.000Z</time>
      </trkpt>
      <trkpt lat="46.13037" lon="6.77546">
        <ele>1975.3</ele>
        <time>2000-01-01T12:44:23.000Z</time>
      </trkpt>
      <trkpt lat="46.13038" lon="6.77552">
        <ele>1977.4</ele>
        <time>2000-01-01T12:44:33.000Z</time>
      </trkpt>
      <trkpt lat="46.13038" lon="6.77557">
        <ele>1979.1</ele>
        <time>2000-01-01T12:44:43.000Z</time>
      </trkpt>
      <trkpt lat="46.13039" lon="6.7756">
        <ele>1974</ele>
        <time>2000-01-01T12:44:53.000Z</time>
      </trkpt>
      <trkpt lat="46.13039" lon="6.77565">
        <ele>1982.4</ele>
        <time>2000-01-01T12:45:03.000Z</time>
      </trkpt>
      <trkpt lat="46.1304" lon="6.77568">
        <ele>1983.8</ele>
        <time>2000-01-01T12:45:13.000Z</time>
      </trkpt>
      <trkpt lat="46.13042" lon="6.77568">
        <ele>1984.3</ele>
        <time>2000-01-01T12:45:23.000Z</time>
      </trkpt>
      <trkpt lat="46.13045" lon="6.77567">
        <ele>1984.7</ele>
        <time>2000-01-01T12:45:33.000Z</time>
      </trkpt>
      <trkpt lat="46.13046" lon="6.77568">
        <ele>1985.4</ele>
        <time>2000-01-01T12:45:43.000Z</time>
      </trkpt>
      <trkpt lat="46.13046" lon="6.77571">
        <ele>1986.5</ele>
        <time>2000-01-01T12:45:53.000Z</time>
      </trkpt>
      <trkpt lat="46.13051" lon="6.77574">
        <ele>1988</ele>
        <time>2000-01-01T12:46:03.000Z</time>
      </trkpt>
      <trkpt lat="46.13055" lon="6.77578">
        <ele>1991.7</ele>
        <time>2000-01-01T12:46:13.000Z</time>
      </trkpt>
      <trkpt lat="46.13059" lon="6.77583">
        <ele>1994</ele>
        <time>2000-01-01T12:46:23.000Z</time>
      </trkpt>
      <trkpt lat="46.13059" lon="6.7759">
        <ele>1996.3</ele>
        <time>2000-01-01T12:46:33.000Z</time>
      </trkpt>
      <trkpt lat="46.13061" lon="6.77595">
        <ele>1995</ele>
        <time>2000-01-01T12:46:43.000Z</time>
      </trkpt>
      <trkpt lat="46.13061" lon="6.77598">
        <ele>1998.9</ele>
        <time>2000-01-01T12:46:53.000Z</time>
      </trkpt>
      <trkpt lat="46.1306" lon="6.77608">
        <ele>2002.2</ele>
        <time>2000-01-01T12:47:03.000Z</time>
      </trkpt>
      <trkpt lat="46.1306" lon="6.77611">
        <ele>2003.1</ele>
        <time>2000-01-01T12:47:13.000Z</time>
      </trkpt>
      <trkpt lat="46.13058" lon="6.77627">
        <ele>2004</ele>
        <time>2000-01-01T12:47:23.000Z</time>
      </trkpt>
      <trkpt lat="46.1306" lon="6.7764">
        <ele>2013.6</ele>
        <time>2000-01-01T12:47:33.000Z</time>
      </trkpt>
      <trkpt lat="46.13057" lon="6.77652">
        <ele>2017.8</ele>
        <time>2000-01-01T12:47:43.000Z</time>
      </trkpt>
      <trkpt lat="46.13054" lon="6.77662">
        <ele>2020</ele>
        <time>2000-01-01T12:47:53.000Z</time>
      </trkpt>
      <trkpt lat="46.13056" lon="6.77669">
        <ele>2023.9</ele>
        <time>2000-01-01T12:48:03.000Z</time>
      </trkpt>
      <trkpt lat="46.13056" lon="6.77673">
        <ele>2025.3</ele>
        <time>2000-01-01T12:48:13.000Z</time>
      </trkpt>
      <trkpt lat="46.13058" lon="6.7768">
        <ele>2027.8</ele>
        <time>2000-01-01T12:48:23.000Z</time>
      </trkpt>
      <trkpt lat="46.13062" lon="6.77683">
        <ele>2029</ele>
        <time>2000-01-01T12:48:33.000Z</time>
      </trkpt>
      <trkpt lat="46.13062" lon="6.77685">
        <ele>2027</ele>
        <time>2000-01-01T12:48:43.000Z</time>
      </trkpt>
      <trkpt lat="46.13057" lon="6.77695">
        <ele>2033.2</ele>
        <time>2000-01-01T12:48:53.000Z</time>
      </trkpt>
      <trkpt lat="46.13056" lon="6.777">
        <ele>2035</ele>
        <time>2000-01-01T12:49:03.000Z</time>
      </trkpt>
      <trkpt lat="46.13054" lon="6.77704">
        <ele>2036.2</ele>
        <time>2000-01-01T12:49:13.000Z</time>
      </trkpt>
      <trkpt lat="46.13055" lon="6.77707">
        <ele>2037.4</ele>
        <time>2000-01-01T12:49:23.000Z</time>
      </trkpt>
      <trkpt lat="46.13057" lon="6.77709">
        <ele>2033</ele>
        <time>2000-01-01T12:49:33.000Z</time>
      </trkpt>
      <trkpt lat="46.13061" lon="6.77718">
        <ele>2041.8</ele>
        <time>2000-01-01T12:49:43.000Z</time>
      </trkpt>
      <trkpt lat="46.13062" lon="6.77721">
        <ele>2043</ele>
        <time>2000-01-01T12:49:53.000Z</time>
      </trkpt>
      <trkpt lat="46.13061" lon="6.77723">
        <ele>2043.7</ele>
        <time>2000-01-01T12:50:03.000Z</time>
      </trkpt>
      <trkpt lat="46.13062" lon="6.77727">
        <ele>2045.4</ele>
        <time>2000-01-01T12:50:13.000Z</time>
      </trkpt>
      <trkpt lat="46.13064" lon="6.77731">
        <ele>2047.2</ele>
        <time>2000-01-01T12:50:23.000Z</time>
      </trkpt>
      <trkpt lat="46.13066" lon="6.77733">
        <ele>2046</ele>
        <time>2000-01-01T12:50:33.000Z</time>
      </trkpt>
      <trkpt lat="46.13069" lon="6.7774">
        <ele>2051.3</ele>
        <time>2000-01-01T12:50:43.000Z</time>
      </trkpt>
      <trkpt lat="46.13071" lon="6.77742">
        <ele>2052.3</ele>
        <time>2000-01-01T12:50:53.000Z</time>
      </trkpt>
      <trkpt lat="46.1307" lon="6.77745">
        <ele>2053.5</ele>
        <time>2000-01-01T12:51:03.000Z</time>
      </trkpt>
      <trkpt lat="46.1307" lon="6.77747">
        <ele>2054.3</ele>
        <time>2000-01-01T12:51:13.000Z</time>
      </trkpt>
      <trkpt lat="46.13072" lon="6.77751">
        <ele>2056.1</ele>
        <time>2000-01-01T12:51:23.000Z</time>
      </trkpt>
      <trkpt lat="46.13075" lon="6.77752">
        <ele>2056.8</ele>
        <time>2000-01-01T12:51:33.000Z</time>
      </trkpt>
      <trkpt lat="46.13075" lon="6.77756">
        <ele>2057</ele>
        <time>2000-01-01T12:51:43.000Z</time>
      </trkpt>
      <trkpt lat="46.13074" lon="6.7776">
        <ele>2059.6</ele>
        <time>2000-01-01T12:51:53.000Z</time>
      </trkpt>
      <trkpt lat="46.13074" lon="6.77767">
        <ele>2062.1</ele>
        <time>2000-01-01T12:52:03.000Z</time>
      </trkpt>
      <trkpt lat="46.13073" lon="6.77769">
        <ele>2062.6</ele>
        <time>2000-01-01T12:52:13.000Z</time>
      </trkpt>
      <trkpt lat="46.13074" lon="6.77771">
        <ele>2063.5</ele>
        <time>2000-01-01T12:52:23.000Z</time>
      </trkpt>
      <trkpt lat="46.13076" lon="6.7777">
        <ele>2063.7</ele>
        <time>2000-01-01T12:52:33.000Z</time>
      </trkpt>
      <trkpt lat="46.13078" lon="6.77771">
        <ele>2064.6</ele>
        <time>2000-01-01T12:52:43.000Z</time>
      </trkpt>
      <trkpt lat="46.13079" lon="6.77773">
        <ele>2065.7</ele>
        <time>2000-01-01T12:52:53.000Z</time>
      </trkpt>
      <trkpt lat="46.13078" lon="6.77776">
        <ele>2063</ele>
        <time>2000-01-01T12:53:03.000Z</time>
      </trkpt>
      <trkpt lat="46.1308" lon="6.77781">
        <ele>2068.8</ele>
        <time>2000-01-01T12:53:13.000Z</time>
      </trkpt>
      <trkpt lat="46.13079" lon="6.77786">
        <ele>2069.8</ele>
        <time>2000-01-01T12:53:23.000Z</time>
      </trkpt>
      <trkpt lat="46.13081" lon="6.7779">
        <ele>2071.6</ele>
        <time>2000-01-01T12:53:33.000Z</time>
      </trkpt>
      <trkpt lat="46.13079" lon="6.77795">
        <ele>2072.2</ele>
        <time>2000-01-01T12:53:43.000Z</time>
      </trkpt>
      <trkpt lat="46.1308" lon="6.77802">
        <ele>2071</ele>
        <time>2000-01-01T12:53:53.000Z</time>
      </trkpt>
      <trkpt lat="46.13084" lon="6.77809">
        <ele>2077.3</ele>
        <time>2000-01-01T12:54:03.000Z</time>
      </trkpt>
      <trkpt lat="46.13089" lon="6.77818">
        <ele>2078.3</ele>
        <time>2000-01-01T12:54:13.000Z</time>
      </trkpt>
      <trkpt lat="46.13094" lon="6.77829">
        <ele>2080</ele>
        <time>2000-01-01T12:54:23.000Z</time>
      </trkpt>
      <trkpt lat="46.13094" lon="6.77833">
        <ele>2080.5</ele>
        <time>2000-01-01T12:54:33.000Z</time>
      </trkpt>
      <trkpt lat="46.131" lon="6.77844">
        <ele>2081.9</ele>
        <time>2000-01-01T12:54:43.000Z</time>
      </trkpt>
      <trkpt lat="46.13105" lon="6.77853">
        <ele>2084</ele>
        <time>2000-01-01T12:54:53.000Z</time>
      </trkpt>
      <trkpt lat="46.13107" lon="6.77861">
        <ele>2084.8</ele>
        <time>2000-01-01T12:55:03.000Z</time>
      </trkpt>
      <trkpt lat="46.13109" lon="6.77868">
        <ele>2085.8</ele>
        <time>2000-01-01T12:55:13.000Z</time>
      </trkpt>
      <trkpt lat="46.13112" lon="6.77874">
        <ele>2086.6</ele>
        <time>2000-01-01T12:55:23.000Z</time>
      </trkpt>
      <trkpt lat="46.13112" lon="6.77877">
        <ele>2086.8</ele>
        <time>2000-01-01T12:55:33.000Z</time>
      </trkpt>
      <trkpt lat="46.13118" lon="6.7789">
        <ele>2087</ele>
        <time>2000-01-01T12:55:43.000Z</time>
      </trkpt>
      <trkpt lat="46.1312" lon="6.77894">
        <ele>2085.7</ele>
        <time>2000-01-01T12:55:53.000Z</time>
      </trkpt>
      <trkpt lat="46.1312" lon="6.77899">
        <ele>2086</ele>
        <time>2000-01-01T12:56:03.000Z</time>
      </trkpt>
      <trkpt lat="46.13122" lon="6.77906">
        <ele>2086.1</ele>
        <time>2000-01-01T12:56:13.000Z</time>
      </trkpt>
      <trkpt lat="46.13124" lon="6.77912">
        <ele>2086.2</ele>
        <time>2000-01-01T12:56:23.000Z</time>
      </trkpt>
      <trkpt lat="46.13131" lon="6.7793">
        <ele>2090</ele>
        <time>2000-01-01T12:56:33.000Z</time>
      </trkpt>
      <trkpt lat="46.13133" lon="6.77939">
        <ele>2089.3</ele>
        <time>2000-01-01T12:56:43.000Z</time>
      </trkpt>
      <trkpt lat="46.13132" lon="6.77945">
        <ele>2090.1</ele>
        <time>2000-01-01T12:56:53.000Z</time>
      </trkpt>
      <trkpt lat="46.13136" lon="6.77968">
        <ele>2094</ele>
        <time>2000-01-01T12:57:03.000Z</time>
      </trkpt>
      <trkpt lat="46.13139" lon="6.77985">
        <ele>2097.8</ele>
        <time>2000-01-01T12:57:13.000Z</time>
      </trkpt>
      <trkpt lat="46.13141" lon="6.77988">
        <ele>2097.5</ele>
        <time>2000-01-01T12:57:23.000Z</time>
      </trkpt>
      <trkpt lat="46.13144" lon="6.77999">
        <ele>2099</ele>
        <time>2000-01-01T12:57:33.000Z</time>
      </trkpt>
      <trkpt lat="46.13146" lon="6.78008">
        <ele>2099.5</ele>
        <time>2000-01-01T12:57:43.000Z</time>
      </trkpt>
      <trkpt lat="46.13147" lon="6.78019">
        <ele>2101.1</ele>
        <time>2000-01-01T12:57:53.000Z</time>
      </trkpt>
      <trkpt lat="46.1315" lon="6.78035">
        <ele>2104</ele>
        <time>2000-01-01T12:58:03.000Z</time>
      </trkpt>
      <trkpt lat="46.13149" lon="6.78051">
        <ele>2104.2</ele>
        <time>2000-01-01T12:58:13.000Z</time>
      </trkpt>
      <trkpt lat="46.1315" lon="6.78064">
        <ele>2106</ele>
        <time>2000-01-01T12:58:23.000Z</time>
      </trkpt>
      <trkpt lat="46.13149" lon="6.78075">
        <ele>2106.5</ele>
        <time>2000-01-01T12:58:33.000Z</time>
      </trkpt>
      <trkpt lat="46.1315" lon="6.78088">
        <ele>2107.8</ele>
        <time>2000-01-01T12:58:43.000Z</time>
      </trkpt>
      <trkpt lat="46.13152" lon="6.78096">
        <ele>2111</ele>
        <time>2000-01-01T12:58:53.000Z</time>
      </trkpt>
      <trkpt lat="46.13152" lon="6.78105">
        <ele>2109.8</ele>
        <time>2000-01-01T12:59:03.000Z</time>
      </trkpt>
      <trkpt lat="46.13156" lon="6.78112">
        <ele>2110.5</ele>
        <time>2000-01-01T12:59:13.000Z</time>
      </trkpt>
      <trkpt lat="46.13156" lon="6.7812">
        <ele>2111.9</ele>
        <time>2000-01-01T12:59:23.000Z</time>
      </trkpt>
      <trkpt lat="46.13158" lon="6.78125">
        <ele>2114</ele>
        <time>2000-01-01T12:59:33.000Z</time>
      </trkpt>
      <trkpt lat="46.13157" lon="6.7813">
        <ele>2113.5</ele>
        <time>2000-01-01T12:59:43.000Z</time>
      </trkpt>
      <trkpt lat="46.13156" lon="6.78137">
        <ele>2114.7</ele>
        <time>2000-01-01T12:59:53.000Z</time>
      </trkpt>
      <trkpt lat="46.13156" lon="6.78143">
        <ele>2115.9</ele>
        <time>2000-01-01T13:00:03.000Z</time>
      </trkpt>
      <trkpt lat="46.13158" lon="6.78156">
        <ele>2119</ele>
        <time>2000-01-01T13:00:13.000Z</time>
      </trkpt>
      <trkpt lat="46.13157" lon="6.78164">
        <ele>2120.4</ele>
        <time>2000-01-01T13:00:23.000Z</time>
      </trkpt>
      <trkpt lat="46.1316" lon="6.78176">
        <ele>2122.9</ele>
        <time>2000-01-01T13:00:33.000Z</time>
      </trkpt>
      <trkpt lat="46.1316" lon="6.78181">
        <ele>2123.7</ele>
        <time>2000-01-01T13:00:43.000Z</time>
      </trkpt>
      <trkpt lat="46.13162" lon="6.78196">
        <ele>2126</ele>
        <time>2000-01-01T13:00:53.000Z</time>
      </trkpt>
      <trkpt lat="46.13163" lon="6.78209">
        <ele>2129</ele>
        <time>2000-01-01T13:01:03.000Z</time>
      </trkpt>
      <trkpt lat="46.13163" lon="6.78226">
        <ele>2131</ele>
        <time>2000-01-01T13:01:13.000Z</time>
      </trkpt>
      <trkpt lat="46.13166" lon="6.78247">
        <ele>2136.3</ele>
        <time>2000-01-01T13:01:23.000Z</time>
      </trkpt>
      <trkpt lat="46.13168" lon="6.78268">
        <ele>2138</ele>
        <time>2000-01-01T13:01:33.000Z</time>
      </trkpt>
      <trkpt lat="46.1317" lon="6.78272">
        <ele>2140</ele>
        <time>2000-01-01T13:01:43.000Z</time>
      </trkpt>
      <trkpt lat="46.1317" lon="6.78283">
        <ele>2141.8</ele>
        <time>2000-01-01T13:01:53.000Z</time>
      </trkpt>
      <trkpt lat="46.13172" lon="6.78301">
        <ele>2145</ele>
        <time>2000-01-01T13:02:03.000Z</time>
      </trkpt>
      <trkpt lat="46.13173" lon="6.78307">
        <ele>2144.7</ele>
        <time>2000-01-01T13:02:13.000Z</time>
      </trkpt>
      <trkpt lat="46.1318" lon="6.78332">
        <ele>2147</ele>
        <time>2000-01-01T13:02:23.000Z</time>
      </trkpt>
      <trkpt lat="46.1318" lon="6.78335">
        <ele>2148.1</ele>
        <time>2000-01-01T13:02:33.000Z</time>
      </trkpt>
      <trkpt lat="46.13182" lon="6.78345">
        <ele>2149.3</ele>
        <time>2000-01-01T13:02:43.000Z</time>
      </trkpt>
      <trkpt lat="46.13187" lon="6.78359">
        <ele>2150</ele>
        <time>2000-01-01T13:02:53.000Z</time>
      </trkpt>
      <trkpt lat="46.13189" lon="6.78369">
        <ele>2152.6</ele>
        <time>2000-01-01T13:03:03.000Z</time>
      </trkpt>
      <trkpt lat="46.13189" lon="6.78374">
        <ele>2152.6</ele>
        <time>2000-01-01T13:03:13.000Z</time>
      </trkpt>
      <trkpt lat="46.13188" lon="6.78378">
        <ele>2152.4</ele>
        <time>2000-01-01T13:03:23.000Z</time>
      </trkpt>
      <trkpt lat="46.13189" lon="6.78381">
        <ele>2152.6</ele>
        <time>2000-01-01T13:03:33.000Z</time>
      </trkpt>
      <trkpt lat="46.13192" lon="6.78384">
        <ele>2153</ele>
        <time>2000-01-01T13:03:43.000Z</time>
      </trkpt>
      <trkpt lat="46.13192" lon="6.78386">
        <ele>2153.4</ele>
        <time>2000-01-01T13:03:53.000Z</time>
      </trkpt>
      <trkpt lat="46.13193" lon="6.7839">
        <ele>2153.6</ele>
        <time>2000-01-01T13:04:03.000Z</time>
      </trkpt>
      <trkpt lat="46.13197" lon="6.78398">
        <ele>2153.4</ele>
        <time>2000-01-01T13:04:13.000Z</time>
      </trkpt>
      <trkpt lat="46.13199" lon="6.78403">
        <ele>2153.1</ele>
        <time>2000-01-01T13:04:23.000Z</time>
      </trkpt>
      <trkpt lat="46.13201" lon="6.78412">
        <ele>2154</ele>
        <time>2000-01-01T13:04:33.000Z</time>
      </trkpt>
      <trkpt lat="46.13203" lon="6.78422">
        <ele>2153.8</ele>
        <time>2000-01-01T13:04:43.000Z</time>
      </trkpt>
      <trkpt lat="46.13203" lon="6.78427">
        <ele>2154.4</ele>
        <time>2000-01-01T13:04:53.000Z</time>
      </trkpt>
      <trkpt lat="46.13203" lon="6.78441">
        <ele>2157</ele>
        <time>2000-01-01T13:05:03.000Z</time>
      </trkpt>
      <trkpt lat="46.13204" lon="6.78453">
        <ele>2157.6</ele>
        <time>2000-01-01T13:05:13.000Z</time>
      </trkpt>
      <trkpt lat="46.13204" lon="6.78463">
        <ele>2158.7</ele>
        <time>2000-01-01T13:05:23.000Z</time>
      </trkpt>
      <trkpt lat="46.13206" lon="6.78473">
        <ele>2159</ele>
        <time>2000-01-01T13:05:33.000Z</time>
      </trkpt>
      <trkpt lat="46.13208" lon="6.78483">
        <ele>2160.5</ele>
        <time>2000-01-01T13:05:43.000Z</time>
      </trkpt>
      <trkpt lat="46.1321" lon="6.78491">
        <ele>2161.3</ele>
        <time>2000-01-01T13:05:53.000Z</time>
      </trkpt>
      <trkpt lat="46.13214" lon="6.78498">
        <ele>2162</ele>
        <time>2000-01-01T13:06:03.000Z</time>
      </trkpt>
      <trkpt lat="46.13214" lon="6.78503">
        <ele>2162.8</ele>
        <time>2000-01-01T13:06:13.000Z</time>
      </trkpt>
      <trkpt lat="46.13216" lon="6.78513">
        <ele>2163.1</ele>
        <time>2000-01-01T13:06:23.000Z</time>
      </trkpt>
      <trkpt lat="46.1322" lon="6.78522">
        <ele>2164.2</ele>
        <time>2000-01-01T13:06:33.000Z</time>
      </trkpt>
      <trkpt lat="46.13222" lon="6.78529">
        <ele>2163</ele>
        <time>2000-01-01T13:06:43.000Z</time>
      </trkpt>
      <trkpt lat="46.13226" lon="6.78534">
        <ele>2164.1</ele>
        <time>2000-01-01T13:06:53.000Z</time>
      </trkpt>
      <trkpt lat="46.13232" lon="6.7854">
        <ele>2163.9</ele>
        <time>2000-01-01T13:07:03.000Z</time>
      </trkpt>
      <trkpt lat="46.1324" lon="6.78547">
        <ele>2163</ele>
        <time>2000-01-01T13:07:13.000Z</time>
      </trkpt>
      <trkpt lat="46.13244" lon="6.78554">
        <ele>2165.5</ele>
        <time>2000-01-01T13:07:23.000Z</time>
      </trkpt>
      <trkpt lat="46.13246" lon="6.78559">
        <ele>2166</ele>
        <time>2000-01-01T13:07:33.000Z</time>
      </trkpt>
      <trkpt lat="46.13248" lon="6.78566">
        <ele>2166.6</ele>
        <time>2000-01-01T13:07:43.000Z</time>
      </trkpt>
      <trkpt lat="46.13249" lon="6.78575">
        <ele>2163</ele>
        <time>2000-01-01T13:07:53.000Z</time>
      </trkpt>
      <trkpt lat="46.1325" lon="6.78582">
        <ele>2168</ele>
        <time>2000-01-01T13:08:03.000Z</time>
      </trkpt>
      <trkpt lat="46.13253" lon="6.78592">
        <ele>2166.4</ele>
        <time>2000-01-01T13:08:13.000Z</time>
      </trkpt>
      <trkpt lat="46.13255" lon="6.78602">
        <ele>2163</ele>
        <time>2000-01-01T13:08:23.000Z</time>
      </trkpt>
      <trkpt lat="46.13256" lon="6.78611">
        <ele>2163.7</ele>
        <time>2000-01-01T13:08:33.000Z</time>
      </trkpt>
      <trkpt lat="46.13257" lon="6.7862">
        <ele>2163.2</ele>
        <time>2000-01-01T13:08:43.000Z</time>
      </trkpt>
      <trkpt lat="46.13256" lon="6.78632">
        <ele>2164</ele>
        <time>2000-01-01T13:08:53.000Z</time>
      </trkpt>
      <trkpt lat="46.13255" lon="6.78647">
        <ele>2164.3</ele>
        <time>2000-01-01T13:09:03.000Z</time>
      </trkpt>
      <trkpt lat="46.13254" lon="6.7866">
        <ele>2165</ele>
        <time>2000-01-01T13:09:13.000Z</time>
      </trkpt>
      <trkpt lat="46.13253" lon="6.78669">
        <ele>2168.2</ele>
        <time>2000-01-01T13:09:23.000Z</time>
      </trkpt>
      <trkpt lat="46.13251" lon="6.78677">
        <ele>2170.8</ele>
        <time>2000-01-01T13:09:33.000Z</time>
      </trkpt>
      <trkpt lat="46.13247" lon="6.78693">
        <ele>2170</ele>
        <time>2000-01-01T13:09:43.000Z</time>
      </trkpt>
      <trkpt lat="46.13244" lon="6.78702">
        <ele>2174.4</ele>
        <time>2000-01-01T13:09:53.000Z</time>
      </trkpt>
      <trkpt lat="46.13244" lon="6.78712">
        <ele>2176.3</ele>
        <time>2000-01-01T13:10:03.000Z</time>
      </trkpt>
      <trkpt lat="46.13244" lon="6.78722">
        <ele>2175</ele>
        <time>2000-01-01T13:10:13.000Z</time>
      </trkpt>
      <trkpt lat="46.13246" lon="6.7873">
        <ele>2180.2</ele>
        <time>2000-01-01T13:10:23.000Z</time>
      </trkpt>
      <trkpt lat="46.13246" lon="6.78735">
        <ele>2180.8</ele>
        <time>2000-01-01T13:10:33.000Z</time>
      </trkpt>
      <trkpt lat="46.13246" lon="6.78741">
        <ele>2181.6</ele>
        <time>2000-01-01T13:10:43.000Z</time>
      </trkpt>
      <trkpt lat="46.13246" lon="6.78749">
        <ele>2178</ele>
        <time>2000-01-01T13:10:53.000Z</time>
      </trkpt>
      <trkpt lat="46.13246" lon="6.78757">
        <ele>2183.3</ele>
        <time>2000-01-01T13:11:03.000Z</time>
      </trkpt>
      <trkpt lat="46.13248" lon="6.78767">
        <ele>2185.1</ele>
        <time>2000-01-01T13:11:13.000Z</time>
      </trkpt>
      <trkpt lat="46.1325" lon="6.78773">
        <ele>2186.7</ele>
        <time>2000-01-01T13:11:23.000Z</time>
      </trkpt>
      <trkpt lat="46.13253" lon="6.78777">
        <ele>2187</ele>
        <time>2000-01-01T13:11:33.000Z</time>
      </trkpt>
      <trkpt lat="46.13255" lon="6.78782">
        <ele>2188.1</ele>
        <time>2000-01-01T13:11:43.000Z</time>
      </trkpt>
      <trkpt lat="46.13257" lon="6.78789">
        <ele>2188.4</ele>
        <time>2000-01-01T13:11:53.000Z</time>
      </trkpt>
      <trkpt lat="46.13259" lon="6.78797">
        <ele>2188.8</ele>
        <time>2000-01-01T13:12:03.000Z</time>
      </trkpt>
      <trkpt lat="46.13265" lon="6.78817">
        <ele>2190</ele>
        <time>2000-01-01T13:12:13.000Z</time>
      </trkpt>
      <trkpt lat="46.1327" lon="6.78836">
        <ele>2192.7</ele>
        <time>2000-01-01T13:12:23.000Z</time>
      </trkpt>
      <trkpt lat="46.13274" lon="6.78848">
        <ele>2194</ele>
        <time>2000-01-01T13:12:33.000Z</time>
      </trkpt>
      <trkpt lat="46.13278" lon="6.78858">
        <ele>2195.9</ele>
        <time>2000-01-01T13:12:43.000Z</time>
      </trkpt>
      <trkpt lat="46.13279" lon="6.78868">
        <ele>2195.9</ele>
        <time>2000-01-01T13:12:53.000Z</time>
      </trkpt>
      <trkpt lat="46.13278" lon="6.78875">
        <ele>2196</ele>
        <time>2000-01-01T13:13:03.000Z</time>
      </trkpt>
      <trkpt lat="46.13276" lon="6.78886">
        <ele>2197.3</ele>
        <time>2000-01-01T13:13:13.000Z</time>
      </trkpt>
      <trkpt lat="46.13276" lon="6.78892">
        <ele>2197.7</ele>
        <time>2000-01-01T13:13:23.000Z</time>
      </trkpt>
      <trkpt lat="46.13275" lon="6.78899">
        <ele>2198</ele>
        <time>2000-01-01T13:13:33.000Z</time>
      </trkpt>
      <trkpt lat="46.13275" lon="6.78908">
        <ele>2199</ele>
        <time>2000-01-01T13:13:43.000Z</time>
      </trkpt>
      <trkpt lat="46.13273" lon="6.78914">
        <ele>2198.6</ele>
        <time>2000-01-01T13:13:53.000Z</time>
      </trkpt>
      <trkpt lat="46.13275" lon="6.78923">
        <ele>2200.2</ele>
        <time>2000-01-01T13:14:03.000Z</time>
      </trkpt>
      <trkpt lat="46.13276" lon="6.78935">
        <ele>2202</ele>
        <time>2000-01-01T13:14:13.000Z</time>
      </trkpt>
      <trkpt lat="46.13276" lon="6.78945">
        <ele>2203.6</ele>
        <time>2000-01-01T13:14:23.000Z</time>
      </trkpt>
      <trkpt lat="46.13276" lon="6.78957">
        <ele>2204.9</ele>
        <time>2000-01-01T13:14:33.000Z</time>
      </trkpt>
      <trkpt lat="46.13277" lon="6.78965">
        <ele>2204</ele>
        <time>2000-01-01T13:14:43.000Z</time>
      </trkpt>
      <trkpt lat="46.1328" lon="6.78977">
        <ele>2206.7</ele>
        <time>2000-01-01T13:14:53.000Z</time>
      </trkpt>
      <trkpt lat="46.13285" lon="6.78989">
        <ele>2206.8</ele>
        <time>2000-01-01T13:15:03.000Z</time>
      </trkpt>
      <trkpt lat="46.13289" lon="6.78999">
        <ele>2209</ele>
        <time>2000-01-01T13:15:13.000Z</time>
      </trkpt>
      <trkpt lat="46.13293" lon="6.79013">
        <ele>2210.3</ele>
        <time>2000-01-01T13:15:23.000Z</time>
      </trkpt>
      <trkpt lat="46.13296" lon="6.79024">
        <ele>2213</ele>
        <time>2000-01-01T13:15:33.000Z</time>
      </trkpt>
      <trkpt lat="46.13298" lon="6.79035">
        <ele>2216</ele>
        <time>2000-01-01T13:15:43.000Z</time>
      </trkpt>
      <trkpt lat="46.13299" lon="6.79041">
        <ele>2217.8</ele>
        <time>2000-01-01T13:15:53.000Z</time>
      </trkpt>
      <trkpt lat="46.13303" lon="6.79051">
        <ele>2221</ele>
        <time>2000-01-01T13:16:03.000Z</time>
      </trkpt>
      <trkpt lat="46.13307" lon="6.7906">
        <ele>2224.5</ele>
        <time>2000-01-01T13:16:13.000Z</time>
      </trkpt>
      <trkpt lat="46.13312" lon="6.79067">
        <ele>2225.6</ele>
        <time>2000-01-01T13:16:23.000Z</time>
      </trkpt>
      <trkpt lat="46.13317" lon="6.79071">
        <ele>2228</ele>
        <time>2000-01-01T13:16:33.000Z</time>
      </trkpt>
      <trkpt lat="46.13321" lon="6.79077">
        <ele>2228.7</ele>
        <time>2000-01-01T13:16:43.000Z</time>
      </trkpt>
      <trkpt lat="46.13323" lon="6.79083">
        <ele>2231</ele>
        <time>2000-01-01T13:16:53.000Z</time>
      </trkpt>
      <trkpt lat="46.13329" lon="6.79087">
        <ele>2232.8</ele>
        <time>2000-01-01T13:17:03.000Z</time>
      </trkpt>
      <trkpt lat="46.13334" lon="6.79094">
        <ele>2234</ele>
        <time>2000-01-01T13:17:13.000Z</time>
      </trkpt>
      <trkpt lat="46.13336" lon="6.79101">
        <ele>2235.7</ele>
        <time>2000-01-01T13:17:23.000Z</time>
      </trkpt>
      <trkpt lat="46.1334" lon="6.79109">
        <ele>2237</ele>
        <time>2000-01-01T13:17:33.000Z</time>
      </trkpt>
      <trkpt lat="46.13343" lon="6.79118">
        <ele>2239</ele>
        <time>2000-01-01T13:17:43.000Z</time>
      </trkpt>
      <trkpt lat="46.13348" lon="6.79127">
        <ele>2239.9</ele>
        <time>2000-01-01T13:17:53.000Z</time>
      </trkpt>
      <trkpt lat="46.13353" lon="6.7914">
        <ele>2242.9</ele>
        <time>2000-01-01T13:18:03.000Z</time>
      </trkpt>
      <trkpt lat="46.13358" lon="6.7915">
        <ele>2244</ele>
        <time>2000-01-01T13:18:13.000Z</time>
      </trkpt>
      <trkpt lat="46.13362" lon="6.79158">
        <ele>2246.7</ele>
        <time>2000-01-01T13:18:23.000Z</time>
      </trkpt>
      <trkpt lat="46.13368" lon="6.79162">
        <ele>2247.5</ele>
        <time>2000-01-01T13:18:33.000Z</time>
      </trkpt>
      <trkpt lat="46.13371" lon="6.79165">
        <ele>2248.3</ele>
        <time>2000-01-01T13:18:43.000Z</time>
      </trkpt>
      <trkpt lat="46.13374" lon="6.7917">
        <ele>2248</ele>
        <time>2000-01-01T13:18:53.000Z</time>
      </trkpt>
      <trkpt lat="46.1338" lon="6.79179">
        <ele>2251.9</ele>
        <time>2000-01-01T13:19:03.000Z</time>
      </trkpt>
      <trkpt lat="46.13385" lon="6.79185">
        <ele>2254.4</ele>
        <time>2000-01-01T13:19:13.000Z</time>
      </trkpt>
      <trkpt lat="46.13389" lon="6.79191">
        <ele>2256</ele>
        <time>2000-01-01T13:19:23.000Z</time>
      </trkpt>
      <trkpt lat="46.13393" lon="6.79199">
        <ele>2257.8</ele>
        <time>2000-01-01T13:19:33.000Z</time>
      </trkpt>
      <trkpt lat="46.13396" lon="6.79204">
        <ele>2258.1</ele>
        <time>2000-01-01T13:19:43.000Z</time>
      </trkpt>
      <trkpt lat="46.13398" lon="6.7921">
        <ele>2258.8</ele>
        <time>2000-01-01T13:19:53.000Z</time>
      </trkpt>
      <trkpt lat="46.13398" lon="6.79215">
        <ele>2261</ele>
        <time>2000-01-01T13:20:03.000Z</time>
      </trkpt>
      <trkpt lat="46.13401" lon="6.7922">
        <ele>2260.3</ele>
        <time>2000-01-01T13:20:13.000Z</time>
      </trkpt>
      <trkpt lat="46.13402" lon="6.79228">
        <ele>2261.4</ele>
        <time>2000-01-01T13:20:23.000Z</time>
      </trkpt>
      <trkpt lat="46.13405" lon="6.79234">
        <ele>2262.2</ele>
        <time>2000-01-01T13:20:33.000Z</time>
      </trkpt>
      <trkpt lat="46.13408" lon="6.79241">
        <ele>2267</ele>
        <time>2000-01-01T13:20:43.000Z</time>
      </trkpt>
      <trkpt lat="46.1341" lon="6.79245">
        <ele>2264.7</ele>
        <time>2000-01-01T13:20:53.000Z</time>
      </trkpt>
      <trkpt lat="46.13413" lon="6.79256">
        <ele>2267.5</ele>
        <time>2000-01-01T13:21:03.000Z</time>
      </trkpt>
      <trkpt lat="46.13416" lon="6.79268">
        <ele>2269</ele>
        <time>2000-01-01T13:21:13.000Z</time>
      </trkpt>
      <trkpt lat="46.13422" lon="6.79281">
        <ele>2272.6</ele>
        <time>2000-01-01T13:21:23.000Z</time>
      </trkpt>
      <trkpt lat="46.13425" lon="6.79291">
        <ele>2273.7</ele>
        <time>2000-01-01T13:21:33.000Z</time>
      </trkpt>
      <trkpt lat="46.13428" lon="6.79301">
        <ele>2274</ele>
        <time>2000-01-01T13:21:43.000Z</time>
      </trkpt>
      <trkpt lat="46.13431" lon="6.79309">
        <ele>2277.2</ele>
        <time>2000-01-01T13:21:53.000Z</time>
      </trkpt>
      <trkpt lat="46.13437" lon="6.7932">
        <ele>2279.3</ele>
        <time>2000-01-01T13:22:03.000Z</time>
      </trkpt>
      <trkpt lat="46.1344" lon="6.79325">
        <ele>2282</ele>
        <time>2000-01-01T13:22:13.000Z</time>
      </trkpt>
      <trkpt lat="46.13444" lon="6.79329">
        <ele>2282.4</ele>
        <time>2000-01-01T13:22:23.000Z</time>
      </trkpt>
      <trkpt lat="46.13446" lon="6.79334">
        <ele>2283.1</ele>
        <time>2000-01-01T13:22:33.000Z</time>
      </trkpt>
      <trkpt lat="46.13451" lon="6.79348">
        <ele>2283</ele>
        <time>2000-01-01T13:22:43.000Z</time>
      </trkpt>
      <trkpt lat="46.13455" lon="6.79364">
        <ele>2285.4</ele>
        <time>2000-01-01T13:22:53.000Z</time>
      </trkpt>
      <trkpt lat="46.13459" lon="6.79376">
        <ele>2284</ele>
        <time>2000-01-01T13:23:03.000Z</time>
      </trkpt>
      <trkpt lat="46.13464" lon="6.79383">
        <ele>2289.4</ele>
        <time>2000-01-01T13:23:13.000Z</time>
      </trkpt>
      <trkpt lat="46.13467" lon="6.79387">
        <ele>2290.9</ele>
        <time>2000-01-01T13:23:23.000Z</time>
      </trkpt>
      <trkpt lat="46.13472" lon="6.79395">
        <ele>2293.4</ele>
        <time>2000-01-01T13:23:33.000Z</time>
      </trkpt>
      <trkpt lat="46.13476" lon="6.79407">
        <ele>2293</ele>
        <time>2000-01-01T13:23:43.000Z</time>
      </trkpt>
      <trkpt lat="46.13483" lon="6.79423">
        <ele>2297.7</ele>
        <time>2000-01-01T13:23:53.000Z</time>
      </trkpt>
      <trkpt lat="46.13486" lon="6.79429">
        <ele>2299.4</ele>
        <time>2000-01-01T13:24:03.000Z</time>
      </trkpt>
      <trkpt lat="46.1349" lon="6.79432">
        <ele>2298</ele>
        <time>2000-01-01T13:24:13.000Z</time>
      </trkpt>
      <trkpt lat="46.13495" lon="6.79436">
        <ele>2302.8</ele>
        <time>2000-01-01T13:24:23.000Z</time>
      </trkpt>
      <trkpt lat="46.135" lon="6.79442">
        <ele>2305.4</ele>
        <time>2000-01-01T13:24:33.000Z</time>
      </trkpt>
      <trkpt lat="46.13502" lon="6.79445">
        <ele>2305.2</ele>
        <time>2000-01-01T13:24:43.000Z</time>
      </trkpt>
      <trkpt lat="46.13504" lon="6.7945">
        <ele>2305</ele>
        <time>2000-01-01T13:24:53.000Z</time>
      </trkpt>
      <trkpt lat="46.13506" lon="6.79454">
        <ele>2306.1</ele>
        <time>2000-01-01T13:25:03.000Z</time>
      </trkpt>
      <trkpt lat="46.13506" lon="6.79459">
        <ele>2307.6</ele>
        <time>2000-01-01T13:25:13.000Z</time>
      </trkpt>
      <trkpt lat="46.13504" lon="6.79464">
        <ele>2310.2</ele>
        <time>2000-01-01T13:25:23.000Z</time>
      </trkpt>
      <trkpt lat="46.13501" lon="6.7947">
        <ele>2313.7</ele>
        <time>2000-01-01T13:25:33.000Z</time>
      </trkpt>
      <trkpt lat="46.13498" lon="6.79477">
        <ele>2312</ele>
        <time>2000-01-01T13:25:43.000Z</time>
      </trkpt>
      <trkpt lat="46.13497" lon="6.79487">
        <ele>2317.1</ele>
        <time>2000-01-01T13:25:53.000Z</time>
      </trkpt>
      <trkpt lat="46.13496" lon="6.79495">
        <ele>2318.5</ele>
        <time>2000-01-01T13:26:03.000Z</time>
      </trkpt>
      <trkpt lat="46.13498" lon="6.79504">
        <ele>2320.9</ele>
        <time>2000-01-01T13:26:13.000Z</time>
      </trkpt>
      <trkpt lat="46.13499" lon="6.79517">
        <ele>2321</ele>
        <time>2000-01-01T13:26:23.000Z</time>
      </trkpt>
      <trkpt lat="46.13498" lon="6.79529">
        <ele>2324.6</ele>
        <time>2000-01-01T13:26:33.000Z</time>
      </trkpt>
      <trkpt lat="46.13496" lon="6.79541">
        <ele>2325.9</ele>
        <time>2000-01-01T13:26:43.000Z</time>
      </trkpt>
      <trkpt lat="46.13496" lon="6.79546">
        <ele>2326</ele>
        <time>2000-01-01T13:26:53.000Z</time>
      </trkpt>
      <trkpt lat="46.13498" lon="6.79549">
        <ele>2327.6</ele>
        <time>2000-01-01T13:27:03.000Z</time>
      </trkpt>
      <trkpt lat="46.13499" lon="6.79552">
        <ele>2328.3</ele>
        <time>2000-01-01T13:27:13.000Z</time>
      </trkpt>
      <trkpt lat="46.13498" lon="6.79557">
        <ele>2328.8</ele>
        <time>2000-01-01T13:27:23.000Z</time>
      </trkpt>
      <trkpt lat="46.13499" lon="6.79562">
        <ele>2329.9</ele>
        <time>2000-01-01T13:27:33.000Z</time>
      </trkpt>
      <trkpt lat="46.13498" lon="6.79573">
        <ele>2331</ele>
        <time>2000-01-01T13:27:43.000Z</time>
      </trkpt>
      <trkpt lat="46.13495" lon="6.7959">
        <ele>2333.7</ele>
        <time>2000-01-01T13:27:53.000Z</time>
      </trkpt>
      <trkpt lat="46.13494" lon="6.79606">
        <ele>2335</ele>
        <time>2000-01-01T13:28:03.000Z</time>
      </trkpt>
      <trkpt lat="46.13493" lon="6.7962">
        <ele>2336.8</ele>
        <time>2000-01-01T13:28:13.000Z</time>
      </trkpt>
      <trkpt lat="46.13494" lon="6.79632">
        <ele>2338.3</ele>
        <time>2000-01-01T13:28:23.000Z</time>
      </trkpt>
      <trkpt lat="46.13497" lon="6.79649">
        <ele>2339</ele>
        <time>2000-01-01T13:28:33.000Z</time>
      </trkpt>
      <trkpt lat="46.13498" lon="6.79668">
        <ele>2341.8</ele>
        <time>2000-01-01T13:28:43.000Z</time>
      </trkpt>
      <trkpt lat="46.13498" lon="6.79682">
        <ele>2342</ele>
        <time>2000-01-01T13:28:53.000Z</time>
      </trkpt>
      <trkpt lat="46.13499" lon="6.7969">
        <ele>2344.3</ele>
        <time>2000-01-01T13:29:03.000Z</time>
      </trkpt>
      <trkpt lat="46.135" lon="6.79698">
        <ele>2345.4</ele>
        <time>2000-01-01T13:29:13.000Z</time>
      </trkpt>
      <trkpt lat="46.13501" lon="6.79708">
        <ele>2346.6</ele>
        <time>2000-01-01T13:29:23.000Z</time>
      </trkpt>
      <trkpt lat="46.13501" lon="6.79721">
        <ele>2347</ele>
        <time>2000-01-01T13:29:33.000Z</time>
      </trkpt>
      <trkpt lat="46.13501" lon="6.79729">
        <ele>2349.2</ele>
        <time>2000-01-01T13:29:43.000Z</time>
      </trkpt>
      <trkpt lat="46.13503" lon="6.79734">
        <ele>2350.2</ele>
        <time>2000-01-01T13:29:53.000Z</time>
      </trkpt>
      <trkpt lat="46.13501" lon="6.79741">
        <ele>2350.9</ele>
        <time>2000-01-01T13:30:03.000Z</time>
      </trkpt>
      <trkpt lat="46.13501" lon="6.79752">
        <ele>2352</ele>
        <time>2000-01-01T13:30:13.000Z</time>
      </trkpt>
      <trkpt lat="46.13501" lon="6.79762">
        <ele>2354.4</ele>
        <time>2000-01-01T13:30:23.000Z</time>
      </trkpt>
      <trkpt lat="46.135" lon="6.7977">
        <ele>2355.6</ele>
        <time>2000-01-01T13:30:33.000Z</time>
      </trkpt>
      <trkpt lat="46.135" lon="6.79785">
        <ele>2354</ele>
        <time>2000-01-01T13:30:43.000Z</time>
      </trkpt>
      <trkpt lat="46.13501" lon="6.79796">
        <ele>2360.5</ele>
        <time>2000-01-01T13:30:53.000Z</time>
      </trkpt>
      <trkpt lat="46.135" lon="6.79803">
        <ele>2361.5</ele>
        <time>2000-01-01T13:31:03.000Z</time>
      </trkpt>
      <trkpt lat="46.135" lon="6.79812">
        <ele>2358</ele>
        <time>2000-01-01T13:31:13.000Z</time>
      </trkpt>
      <trkpt lat="46.135" lon="6.79824">
        <ele>2365.3</ele>
        <time>2000-01-01T13:31:23.000Z</time>
      </trkpt>
      <trkpt lat="46.13501" lon="6.79842">
        <ele>2368</ele>
        <time>2000-01-01T13:31:33.000Z</time>
      </trkpt>
      <trkpt lat="46.13501" lon="6.79846">
        <ele>2369.6</ele>
        <time>2000-01-01T13:31:43.000Z</time>
      </trkpt>
      <trkpt lat="46.13499" lon="6.79851">
        <ele>2369.6</ele>
        <time>2000-01-01T13:31:53.000Z</time>
      </trkpt>
      <trkpt lat="46.13498" lon="6.79854">
        <ele>2369.5</ele>
        <time>2000-01-01T13:32:03.000Z</time>
      </trkpt>
      <trkpt lat="46.13497" lon="6.79863">
        <ele>2370.4</ele>
        <time>2000-01-01T13:32:13.000Z</time>
      </trkpt>
      <trkpt lat="46.13497" lon="6.79863">
        <ele>2370.4</ele>
        <time>2000-01-01T13:32:23.000Z</time>
      </trkpt>
      <trkpt lat="46.13496" lon="6.79864">
        <ele>2370</ele>
        <time>2000-01-01T13:32:33.000Z</time>
      </trkpt>
      <trkpt lat="46.13495" lon="6.79872">
        <ele>2369</ele>
        <time>2000-01-01T13:32:43.000Z</time>
      </trkpt>
      <trkpt lat="46.13494" lon="6.79881">
        <ele>2371</ele>
        <time>2000-01-01T13:32:53.000Z</time>
      </trkpt>
      <trkpt lat="46.13494" lon="6.79892">
        <ele>2372.7</ele>
        <time>2000-01-01T13:33:03.000Z</time>
      </trkpt>
      <trkpt lat="46.13492" lon="6.79905">
        <ele>2370</ele>
        <time>2000-01-01T13:33:13.000Z</time>
      </trkpt>
      <trkpt lat="46.1349" lon="6.79914">
        <ele>2374.4</ele>
        <time>2000-01-01T13:33:23.000Z</time>
      </trkpt>
      <trkpt lat="46.13489" lon="6.79926">
        <ele>2375.1</ele>
        <time>2000-01-01T13:33:33.000Z</time>
      </trkpt>
      <trkpt lat="46.13487" lon="6.79939">
        <ele>2371</ele>
        <time>2000-01-01T13:33:43.000Z</time>
      </trkpt>
      <trkpt lat="46.13485" lon="6.79949">
        <ele>2374.9</ele>
        <time>2000-01-01T13:33:53.000Z</time>
      </trkpt>
      <trkpt lat="46.13485" lon="6.79968">
        <ele>2373</ele>
        <time>2000-01-01T13:34:03.000Z</time>
      </trkpt>
      <trkpt lat="46.13486" lon="6.79989">
        <ele>2379.4</ele>
        <time>2000-01-01T13:34:13.000Z</time>
      </trkpt>
      <trkpt lat="46.13486" lon="6.80007">
        <ele>2374</ele>
        <time>2000-01-01T13:34:23.000Z</time>
      </trkpt>
      <trkpt lat="46.13487" lon="6.80027">
        <ele>2381.1</ele>
        <time>2000-01-01T13:34:33.000Z</time>
      </trkpt>
      <trkpt lat="46.13488" lon="6.8004">
        <ele>2375</ele>
        <time>2000-01-01T13:34:43.000Z</time>
      </trkpt>
      <trkpt lat="46.13488" lon="6.80052">
        <ele>2380.5</ele>
        <time>2000-01-01T13:34:53.000Z</time>
      </trkpt>
      <trkpt lat="46.13489" lon="6.80066">
        <ele>2380.7</ele>
        <time>2000-01-01T13:35:03.000Z</time>
      </trkpt>
      <trkpt lat="46.13493" lon="6.80083">
        <ele>2383</ele>
        <time>2000-01-01T13:35:13.000Z</time>
      </trkpt>
      <trkpt lat="46.13494" lon="6.80091">
        <ele>2383.1</ele>
        <time>2000-01-01T13:35:23.000Z</time>
      </trkpt>
      <trkpt lat="46.13499" lon="6.80098">
        <ele>2386.2</ele>
        <time>2000-01-01T13:35:33.000Z</time>
      </trkpt>
      <trkpt lat="46.13504" lon="6.80106">
        <ele>2382</ele>
        <time>2000-01-01T13:35:43.000Z</time>
      </trkpt>
      <trkpt lat="46.13504" lon="6.8011">
        <ele>2387.4</ele>
        <time>2000-01-01T13:35:53.000Z</time>
      </trkpt>
      <trkpt lat="46.13502" lon="6.80119">
        <ele>2384.2</ele>
        <time>2000-01-01T13:36:03.000Z</time>
      </trkpt>
      <trkpt lat="46.13504" lon="6.80126">
        <ele>2382.8</ele>
        <time>2000-01-01T13:36:13.000Z</time>
      </trkpt>
      <trkpt lat="46.13504" lon="6.80132">
        <ele>2381</ele>
        <time>2000-01-01T13:36:23.000Z</time>
      </trkpt>
      <trkpt lat="46.13503" lon="6.80138">
        <ele>2378.7</ele>
        <time>2000-01-01T13:36:33.000Z</time>
      </trkpt>
      <trkpt lat="46.13503" lon="6.80148">
        <ele>2374.4</ele>
        <time>2000-01-01T13:36:43.000Z</time>
      </trkpt>
      <trkpt lat="46.13504" lon="6.80154">
        <ele>2372.3</ele>
        <time>2000-01-01T13:36:53.000Z</time>
      </trkpt>
      <trkpt lat="46.13506" lon="6.80162">
        <ele>2368</ele>
        <time>2000-01-01T13:37:03.000Z</time>
      </trkpt>
      <trkpt lat="46.13508" lon="6.80169">
        <ele>2367.5</ele>
        <time>2000-01-01T13:37:13.000Z</time>
      </trkpt>
      <trkpt lat="46.1351" lon="6.80178">
        <ele>2364.8</ele>
        <time>2000-01-01T13:37:23.000Z</time>
      </trkpt>
      <trkpt lat="46.13512" lon="6.80189">
        <ele>2364</ele>
        <time>2000-01-01T13:37:33.000Z</time>
      </trkpt>
      <trkpt lat="46.13516" lon="6.80202">
        <ele>2358.4</ele>
        <time>2000-01-01T13:37:43.000Z</time>
      </trkpt>
      <trkpt lat="46.13519" lon="6.80211">
        <ele>2356.9</ele>
        <time>2000-01-01T13:37:53.000Z</time>
      </trkpt>
      <trkpt lat="46.13523" lon="6.80219">
        <ele>2359</ele>
        <time>2000-01-01T13:38:03.000Z</time>
      </trkpt>
      <trkpt lat="46.13526" lon="6.80229">
        <ele>2355.3</ele>
        <time>2000-01-01T13:38:13.000Z</time>
      </trkpt>
      <trkpt lat="46.13528" lon="6.80239">
        <ele>2353.7</ele>
        <time>2000-01-01T13:38:23.000Z</time>
      </trkpt>
      <trkpt lat="46.13528" lon="6.80251">
        <ele>2344</ele>
        <time>2000-01-01T13:38:33.000Z</time>
      </trkpt>
      <trkpt lat="46.13528" lon="6.80263">
        <ele>2346.3</ele>
        <time>2000-01-01T13:38:43.000Z</time>
      </trkpt>
      <trkpt lat="46.1353" lon="6.80271">
        <ele>2343.2</ele>
        <time>2000-01-01T13:38:53.000Z</time>
      </trkpt>
      <trkpt lat="46.13533" lon="6.8028">
        <ele>2340</ele>
        <time>2000-01-01T13:39:03.000Z</time>
      </trkpt>
      <trkpt lat="46.13536" lon="6.8029">
        <ele>2338.8</ele>
        <time>2000-01-01T13:39:13.000Z</time>
      </trkpt>
      <trkpt lat="46.1354" lon="6.80301">
        <ele>2338</ele>
        <time>2000-01-01T13:39:23.000Z</time>
      </trkpt>
      <trkpt lat="46.13542" lon="6.80308">
        <ele>2339</ele>
        <time>2000-01-01T13:39:33.000Z</time>
      </trkpt>
      <trkpt lat="46.13542" lon="6.80316">
        <ele>2338.6</ele>
        <time>2000-01-01T13:39:43.000Z</time>
      </trkpt>
      <trkpt lat="46.13541" lon="6.80325">
        <ele>2338.9</ele>
        <time>2000-01-01T13:39:53.000Z</time>
      </trkpt>
      <trkpt lat="46.13541" lon="6.80335">
        <ele>2338</ele>
        <time>2000-01-01T13:40:03.000Z</time>
      </trkpt>
      <trkpt lat="46.1354" lon="6.80346">
        <ele>2339.3</ele>
        <time>2000-01-01T13:40:13.000Z</time>
      </trkpt>
      <trkpt lat="46.13539" lon="6.80363">
        <ele>2338</ele>
        <time>2000-01-01T13:40:23.000Z</time>
      </trkpt>
      <trkpt lat="46.13539" lon="6.80369">
        <ele>2339.1</ele>
        <time>2000-01-01T13:40:33.000Z</time>
      </trkpt>
      <trkpt lat="46.13542" lon="6.80387">
        <ele>2339.2</ele>
        <time>2000-01-01T13:40:43.000Z</time>
      </trkpt>
      <trkpt lat="46.13543" lon="6.80394">
        <ele>2336</ele>
        <time>2000-01-01T13:40:53.000Z</time>
      </trkpt>
      <trkpt lat="46.13543" lon="6.80402">
        <ele>2339.4</ele>
        <time>2000-01-01T13:41:03.000Z</time>
      </trkpt>
      <trkpt lat="46.13542" lon="6.80412">
        <ele>2339.1</ele>
        <time>2000-01-01T13:41:13.000Z</time>
      </trkpt>
      <trkpt lat="46.1354" lon="6.8042">
        <ele>2338.6</ele>
        <time>2000-01-01T13:41:23.000Z</time>
      </trkpt>
      <trkpt lat="46.1354" lon="6.80433">
        <ele>2336</ele>
        <time>2000-01-01T13:41:33.000Z</time>
      </trkpt>
      <trkpt lat="46.1354" lon="6.80444">
        <ele>2339</ele>
        <time>2000-01-01T13:41:43.000Z</time>
      </trkpt>
      <trkpt lat="46.13541" lon="6.80455">
        <ele>2338.9</ele>
        <time>2000-01-01T13:41:53.000Z</time>
      </trkpt>
      <trkpt lat="46.13541" lon="6.80468">
        <ele>2334</ele>
        <time>2000-01-01T13:42:03.000Z</time>
      </trkpt>
      <trkpt lat="46.13542" lon="6.80487">
        <ele>2337</ele>
        <time>2000-01-01T13:42:13.000Z</time>
      </trkpt>
      <trkpt lat="46.13543" lon="6.80502">
        <ele>2333</ele>
        <time>2000-01-01T13:42:23.000Z</time>
      </trkpt>
      <trkpt lat="46.13541" lon="6.80522">
        <ele>2334.4</ele>
        <time>2000-01-01T13:42:33.000Z</time>
      </trkpt>
      <trkpt lat="46.13539" lon="6.80535">
        <ele>2328</ele>
        <time>2000-01-01T13:42:43.000Z</time>
      </trkpt>
      <trkpt lat="46.13539" lon="6.80545">
        <ele>2335</ele>
        <time>2000-01-01T13:42:53.000Z</time>
      </trkpt>
      <trkpt lat="46.13538" lon="6.80554">
        <ele>2335.4</ele>
        <time>2000-01-01T13:43:03.000Z</time>
      </trkpt>
      <trkpt lat="46.13536" lon="6.80571">
        <ele>2328</ele>
        <time>2000-01-01T13:43:13.000Z</time>
      </trkpt>
      <trkpt lat="46.13535" lon="6.80582">
        <ele>2340.1</ele>
        <time>2000-01-01T13:43:23.000Z</time>
      </trkpt>
      <trkpt lat="46.13534" lon="6.8059">
        <ele>2340.8</ele>
        <time>2000-01-01T13:43:33.000Z</time>
      </trkpt>
      <trkpt lat="46.13532" lon="6.80599">
        <ele>2330</ele>
        <time>2000-01-01T13:43:43.000Z</time>
      </trkpt>
      <trkpt lat="46.1353" lon="6.80609">
        <ele>2341.1</ele>
        <time>2000-01-01T13:43:53.000Z</time>
      </trkpt>
      <trkpt lat="46.13528" lon="6.80616">
        <ele>2340.3</ele>
        <time>2000-01-01T13:44:03.000Z</time>
      </trkpt>
      <trkpt lat="46.13527" lon="6.80624">
        <ele>2339.9</ele>
        <time>2000-01-01T13:44:13.000Z</time>
      </trkpt>
      <trkpt lat="46.13526" lon="6.80634">
        <ele>2330</ele>
        <time>2000-01-01T13:44:23.000Z</time>
      </trkpt>
      <trkpt lat="46.13524" lon="6.80638">
        <ele>2337.9</ele>
        <time>2000-01-01T13:44:33.000Z</time>
      </trkpt>
      <trkpt lat="46.13524" lon="6.80647">
        <ele>2337.5</ele>
        <time>2000-01-01T13:44:43.000Z</time>
      </trkpt>
      <trkpt lat="46.13524" lon="6.80658">
        <ele>2337</ele>
        <time>2000-01-01T13:44:53.000Z</time>
      </trkpt>
      <trkpt lat="46.13526" lon="6.80664">
        <ele>2329</ele>
        <time>2000-01-01T13:45:03.000Z</time>
      </trkpt>
      <trkpt lat="46.13527" lon="6.80668">
        <ele>2339.3</ele>
        <time>2000-01-01T13:45:13.000Z</time>
      </trkpt>
      <trkpt lat="46.13526" lon="6.80685">
        <ele>2337.7</ele>
        <time>2000-01-01T13:45:23.000Z</time>
      </trkpt>
      <trkpt lat="46.13526" lon="6.80701">
        <ele>2329</ele>
        <time>2000-01-01T13:45:33.000Z</time>
      </trkpt>
      <trkpt lat="46.13525" lon="6.80709">
        <ele>2335.9</ele>
        <time>2000-01-01T13:45:43.000Z</time>
      </trkpt>
      <trkpt lat="46.13525" lon="6.80712">
        <ele>2335.8</ele>
        <time>2000-01-01T13:45:53.000Z</time>
      </trkpt>
      <trkpt lat="46.13525" lon="6.80718">
        <ele>2335.6</ele>
        <time>2000-01-01T13:46:03.000Z</time>
      </trkpt>
      <trkpt lat="46.13525" lon="6.80722">
        <ele>2335.5</ele>
        <time>2000-01-01T13:46:13.000Z</time>
      </trkpt>
      <trkpt lat="46.13526" lon="6.80727">
        <ele>2336.4</ele>
        <time>2000-01-01T13:46:23.000Z</time>
      </trkpt>
      <trkpt lat="46.13526" lon="6.80732">
        <ele>2327</ele>
        <time>2000-01-01T13:46:33.000Z</time>
      </trkpt>
      <trkpt lat="46.13526" lon="6.80744">
        <ele>2336.3</ele>
        <time>2000-01-01T13:46:43.000Z</time>
      </trkpt>
      <trkpt lat="46.13525" lon="6.80751">
        <ele>2335.5</ele>
        <time>2000-01-01T13:46:53.000Z</time>
      </trkpt>
      <trkpt lat="46.13525" lon="6.80761">
        <ele>2326</ele>
        <time>2000-01-01T13:47:03.000Z</time>
      </trkpt>
      <trkpt lat="46.13521" lon="6.80774">
        <ele>2333.4</ele>
        <time>2000-01-01T13:47:13.000Z</time>
      </trkpt>
      <trkpt lat="46.13521" lon="6.80785">
        <ele>2334.6</ele>
        <time>2000-01-01T13:47:23.000Z</time>
      </trkpt>
      <trkpt lat="46.13514" lon="6.80804">
        <ele>2317</ele>
        <time>2000-01-01T13:47:33.000Z</time>
      </trkpt>
      <trkpt lat="46.13509" lon="6.80816">
        <ele>2326.8</ele>
        <time>2000-01-01T13:47:43.000Z</time>
      </trkpt>
      <trkpt lat="46.13507" lon="6.80828">
        <ele>2326</ele>
        <time>2000-01-01T13:47:53.000Z</time>
      </trkpt>
      <trkpt lat="46.13507" lon="6.8084">
        <ele>2316</ele>
        <time>2000-01-01T13:48:03.000Z</time>
      </trkpt>
      <trkpt lat="46.13505" lon="6.80852">
        <ele>2324.9</ele>
        <time>2000-01-01T13:48:13.000Z</time>
      </trkpt>
      <trkpt lat="46.13504" lon="6.80861">
        <ele>2324.2</ele>
        <time>2000-01-01T13:48:23.000Z</time>
      </trkpt>
      <trkpt lat="46.13502" lon="6.80876">
        <ele>2315</ele>
        <time>2000-01-01T13:48:33.000Z</time>
      </trkpt>
      <trkpt lat="46.13498" lon="6.80889">
        <ele>2316.7</ele>
        <time>2000-01-01T13:48:43.000Z</time>
      </trkpt>
      <trkpt lat="46.13497" lon="6.80899">
        <ele>2314.3</ele>
        <time>2000-01-01T13:48:53.000Z</time>
      </trkpt>
      <trkpt lat="46.13494" lon="6.80908">
        <ele>2308</ele>
        <time>2000-01-01T13:49:03.000Z</time>
      </trkpt>
      <trkpt lat="46.1349" lon="6.80919">
        <ele>2306</ele>
        <time>2000-01-01T13:49:13.000Z</time>
      </trkpt>
      <trkpt lat="46.13485" lon="6.8093">
        <ele>2300.3</ele>
        <time>2000-01-01T13:49:23.000Z</time>
      </trkpt>
      <trkpt lat="46.13481" lon="6.80935">
        <ele>2301</ele>
        <time>2000-01-01T13:49:33.000Z</time>
      </trkpt>
      <trkpt lat="46.13474" lon="6.80944">
        <ele>2296.9</ele>
        <time>2000-01-01T13:49:43.000Z</time>
      </trkpt>
      <trkpt lat="46.13472" lon="6.80946">
        <ele>2296.2</ele>
        <time>2000-01-01T13:49:53.000Z</time>
      </trkpt>
      <trkpt lat="46.13468" lon="6.8095">
        <ele>2293.7</ele>
        <time>2000-01-01T13:50:03.000Z</time>
      </trkpt>
      <trkpt lat="46.13463" lon="6.80954">
        <ele>2294</ele>
        <time>2000-01-01T13:50:13.000Z</time>
      </trkpt>
      <trkpt lat="46.13459" lon="6.80962">
        <ele>2289.1</ele>
        <time>2000-01-01T13:50:23.000Z</time>
      </trkpt>
      <trkpt lat="46.13454" lon="6.80967">
        <ele>2288.2</ele>
        <time>2000-01-01T13:50:33.000Z</time>
      </trkpt>
      <trkpt lat="46.13449" lon="6.80968">
        <ele>2288.6</ele>
        <time>2000-01-01T13:50:43.000Z</time>
      </trkpt>
      <trkpt lat="46.13445" lon="6.8097">
        <ele>2290</ele>
        <time>2000-01-01T13:50:53.000Z</time>
      </trkpt>
      <trkpt lat="46.13442" lon="6.80973">
        <ele>2288.8</ele>
        <time>2000-01-01T13:51:03.000Z</time>
      </trkpt>
      <trkpt lat="46.13439" lon="6.80976">
        <ele>2288</ele>
        <time>2000-01-01T13:51:13.000Z</time>
      </trkpt>
      <trkpt lat="46.13436" lon="6.80978">
        <ele>2287.8</ele>
        <time>2000-01-01T13:51:23.000Z</time>
      </trkpt>
      <trkpt lat="46.13432" lon="6.80977">
        <ele>2288.2</ele>
        <time>2000-01-01T13:51:33.000Z</time>
      </trkpt>
      <trkpt lat="46.13428" lon="6.80976">
        <ele>2288.6</ele>
        <time>2000-01-01T13:51:43.000Z</time>
      </trkpt>
      <trkpt lat="46.13428" lon="6.80974">
        <ele>2289</ele>
        <time>2000-01-01T13:51:53.000Z</time>
      </trkpt>
      <trkpt lat="46.13429" lon="6.80968">
        <ele>2288.9</ele>
        <time>2000-01-01T13:52:03.000Z</time>
      </trkpt>
      <trkpt lat="46.13429" lon="6.80963">
        <ele>2288.8</ele>
        <time>2000-01-01T13:52:13.000Z</time>
      </trkpt>
      <trkpt lat="46.13426" lon="6.80956">
        <ele>2288.4</ele>
        <time>2000-01-01T13:52:23.000Z</time>
      </trkpt>
      <trkpt lat="46.13424" lon="6.8095">
        <ele>2288</ele>
        <time>2000-01-01T13:52:33.000Z</time>
      </trkpt>
      <trkpt lat="46.13423" lon="6.80945">
        <ele>2285</ele>
        <time>2000-01-01T13:52:43.000Z</time>
      </trkpt>
      <trkpt lat="46.13422" lon="6.80938">
        <ele>2286.3</ele>
        <time>2000-01-01T13:52:53.000Z</time>
      </trkpt>
      <trkpt lat="46.13421" lon="6.80935">
        <ele>2285.5</ele>
        <time>2000-01-01T13:53:03.000Z</time>
      </trkpt>
      <trkpt lat="46.13419" lon="6.80932">
        <ele>2284.6</ele>
        <time>2000-01-01T13:53:13.000Z</time>
      </trkpt>
      <trkpt lat="46.13419" lon="6.80929">
        <ele>2284</ele>
        <time>2000-01-01T13:53:23.000Z</time>
      </trkpt>
      <trkpt lat="46.1342" lon="6.80923">
        <ele>2282.9</ele>
        <time>2000-01-01T13:53:33.000Z</time>
      </trkpt>
      <trkpt lat="46.13419" lon="6.80918">
        <ele>2278</ele>
        <time>2000-01-01T13:53:43.000Z</time>
      </trkpt>
      <trkpt lat="46.1342" lon="6.80913">
        <ele>2281</ele>
        <time>2000-01-01T13:53:53.000Z</time>
      </trkpt>
      <trkpt lat="46.13423" lon="6.80904">
        <ele>2280.1</ele>
        <time>2000-01-01T13:54:03.000Z</time>
      </trkpt>
      <trkpt lat="46.13425" lon="6.80898">
        <ele>2279.5</ele>
        <time>2000-01-01T13:54:13.000Z</time>
      </trkpt>
      <trkpt lat="46.13427" lon="6.80886">
        <ele>2271</ele>
        <time>2000-01-01T13:54:23.000Z</time>
      </trkpt>
      <trkpt lat="46.13427" lon="6.80877">
        <ele>2276.1</ele>
        <time>2000-01-01T13:54:33.000Z</time>
      </trkpt>
      <trkpt lat="46.13426" lon="6.8087">
        <ele>2274.3</ele>
        <time>2000-01-01T13:54:43.000Z</time>
      </trkpt>
      <trkpt lat="46.13427" lon="6.80865">
        <ele>2273.5</ele>
        <time>2000-01-01T13:54:53.000Z</time>
      </trkpt>
      <trkpt lat="46.13429" lon="6.80857">
        <ele>2265</ele>
        <time>2000-01-01T13:55:03.000Z</time>
      </trkpt>
      <trkpt lat="46.13427" lon="6.80851">
        <ele>2270.3</ele>
        <time>2000-01-01T13:55:13.000Z</time>
      </trkpt>
      <trkpt lat="46.13428" lon="6.80844">
        <ele>2269.2</ele>
        <time>2000-01-01T13:55:23.000Z</time>
      </trkpt>
      <trkpt lat="46.13427" lon="6.80837">
        <ele>2267.1</ele>
        <time>2000-01-01T13:55:33.000Z</time>
      </trkpt>
      <trkpt lat="46.13426" lon="6.80833">
        <ele>2265.6</ele>
        <time>2000-01-01T13:55:43.000Z</time>
      </trkpt>
      <trkpt lat="46.13424" lon="6.80828">
        <ele>2256</ele>
        <time>2000-01-01T13:55:53.000Z</time>
      </trkpt>
      <trkpt lat="46.13424" lon="6.80822">
        <ele>2262.6</ele>
        <time>2000-01-01T13:56:03.000Z</time>
      </trkpt>
      <trkpt lat="46.13424" lon="6.80822">
        <ele>2262.6</ele>
        <time>2000-01-01T13:56:13.000Z</time>
      </trkpt>
      <trkpt lat="46.13425" lon="6.80815">
        <ele>2261.8</ele>
        <time>2000-01-01T13:56:23.000Z</time>
      </trkpt>
      <trkpt lat="46.13425" lon="6.80807">
        <ele>2260.4</ele>
        <time>2000-01-01T13:56:33.000Z</time>
      </trkpt>
      <trkpt lat="46.13425" lon="6.80801">
        <ele>2249</ele>
        <time>2000-01-01T13:56:43.000Z</time>
      </trkpt>
      <trkpt lat="46.1342" lon="6.80801">
        <ele>2256.3</ele>
        <time>2000-01-01T13:56:53.000Z</time>
      </trkpt>
      <trkpt lat="46.13416" lon="6.80801">
        <ele>2253.8</ele>
        <time>2000-01-01T13:57:03.000Z</time>
      </trkpt>
      <trkpt lat="46.13417" lon="6.80794">
        <ele>2253.1</ele>
        <time>2000-01-01T13:57:13.000Z</time>
      </trkpt>
      <trkpt lat="46.13417" lon="6.80794">
        <ele>2253.1</ele>
        <time>2000-01-01T13:57:23.000Z</time>
      </trkpt>
      <trkpt lat="46.13415" lon="6.80785">
        <ele>2240</ele>
        <time>2000-01-01T13:57:33.000Z</time>
      </trkpt>
      <trkpt lat="46.13415" lon="6.80785">
        <ele>2250.3</ele>
        <time>2000-01-01T13:57:43.000Z</time>
      </trkpt>
      <trkpt lat="46.13414" lon="6.80773">
        <ele>2247</ele>
        <time>2000-01-01T13:57:53.000Z</time>
      </trkpt>
      <trkpt lat="46.13412" lon="6.8077">
        <ele>2245</ele>
        <time>2000-01-01T13:58:03.000Z</time>
      </trkpt>
      <trkpt lat="46.13411" lon="6.80765">
        <ele>2243.2</ele>
        <time>2000-01-01T13:58:13.000Z</time>
      </trkpt>
      <trkpt lat="46.13406" lon="6.80752">
        <ele>2235</ele>
        <time>2000-01-01T13:58:23.000Z</time>
      </trkpt>
      <trkpt lat="46.13402" lon="6.80747">
        <ele>2235.5</ele>
        <time>2000-01-01T13:58:33.000Z</time>
      </trkpt>
      <trkpt lat="46.13398" lon="6.80741">
        <ele>2233.4</ele>
        <time>2000-01-01T13:58:43.000Z</time>
      </trkpt>
      <trkpt lat="46.13395" lon="6.80737">
        <ele>2231.8</ele>
        <time>2000-01-01T13:58:53.000Z</time>
      </trkpt>
      <trkpt lat="46.13392" lon="6.80733">
        <ele>2228</ele>
        <time>2000-01-01T13:59:03.000Z</time>
      </trkpt>
      <trkpt lat="46.13388" lon="6.80729">
        <ele>2228.3</ele>
        <time>2000-01-01T13:59:13.000Z</time>
      </trkpt>
      <trkpt lat="46.13386" lon="6.80724">
        <ele>2227.5</ele>
        <time>2000-01-01T13:59:23.000Z</time>
      </trkpt>
      <trkpt lat="46.13383" lon="6.80723">
        <ele>2226.8</ele>
        <time>2000-01-01T13:59:33.000Z</time>
      </trkpt>
      <trkpt lat="46.13379" lon="6.80722">
        <ele>2225.8</ele>
        <time>2000-01-01T13:59:43.000Z</time>
      </trkpt>
      <trkpt lat="46.13376" lon="6.80718">
        <ele>2219</ele>
        <time>2000-01-01T13:59:53.000Z</time>
      </trkpt>
      <trkpt lat="46.13377" lon="6.80715">
        <ele>2223.1</ele>
        <time>2000-01-01T14:00:03.000Z</time>
      </trkpt>
      <trkpt lat="46.13379" lon="6.80708">
        <ele>2221.3</ele>
        <time>2000-01-01T14:00:13.000Z</time>
      </trkpt>
      <trkpt lat="46.13382" lon="6.80698">
        <ele>2218.7</ele>
        <time>2000-01-01T14:00:23.000Z</time>
      </trkpt>
      <trkpt lat="46.13386" lon="6.80696">
        <ele>2215</ele>
        <time>2000-01-01T14:00:33.000Z</time>
      </trkpt>
      <trkpt lat="46.13388" lon="6.80695">
        <ele>2219</ele>
        <time>2000-01-01T14:00:43.000Z</time>
      </trkpt>
      <trkpt lat="46.13389" lon="6.80693">
        <ele>2218.8</ele>
        <time>2000-01-01T14:00:53.000Z</time>
      </trkpt>
      <trkpt lat="46.13388" lon="6.80689">
        <ele>2217.8</ele>
        <time>2000-01-01T14:01:03.000Z</time>
      </trkpt>
      <trkpt lat="46.13386" lon="6.80685">
        <ele>2216.4</ele>
        <time>2000-01-01T14:01:13.000Z</time>
      </trkpt>
      <trkpt lat="46.13386" lon="6.80678">
        <ele>2214.9</ele>
        <time>2000-01-01T14:01:23.000Z</time>
      </trkpt>
      <trkpt lat="46.13385" lon="6.80672">
        <ele>2209</ele>
        <time>2000-01-01T14:01:33.000Z</time>
      </trkpt>
      <trkpt lat="46.13382" lon="6.80667">
        <ele>2210.6</ele>
        <time>2000-01-01T14:01:43.000Z</time>
      </trkpt>
      <trkpt lat="46.1338" lon="6.80666">
        <ele>2209.4</ele>
        <time>2000-01-01T14:01:53.000Z</time>
      </trkpt>
      <trkpt lat="46.13375" lon="6.80665">
        <ele>2206.6</ele>
        <time>2000-01-01T14:02:03.000Z</time>
      </trkpt>
      <trkpt lat="46.13372" lon="6.8066">
        <ele>2204</ele>
        <time>2000-01-01T14:02:13.000Z</time>
      </trkpt>
      <trkpt lat="46.1337" lon="6.8066">
        <ele>2203</ele>
        <time>2000-01-01T14:02:23.000Z</time>
      </trkpt>
      <trkpt lat="46.13364" lon="6.80663">
        <ele>2198</ele>
        <time>2000-01-01T14:02:33.000Z</time>
      </trkpt>
      <trkpt lat="46.13359" lon="6.80662">
        <ele>2198.3</ele>
        <time>2000-01-01T14:02:43.000Z</time>
      </trkpt>
      <trkpt lat="46.13355" lon="6.80663">
        <ele>2197.5</ele>
        <time>2000-01-01T14:02:53.000Z</time>
      </trkpt>
      <trkpt lat="46.13351" lon="6.80663">
        <ele>2196.5</ele>
        <time>2000-01-01T14:03:03.000Z</time>
      </trkpt>
      <trkpt lat="46.13349" lon="6.80661">
        <ele>2195.4</ele>
        <time>2000-01-01T14:03:13.000Z</time>
      </trkpt>
      <trkpt lat="46.13349" lon="6.80655">
        <ele>2188</ele>
        <time>2000-01-01T14:03:23.000Z</time>
      </trkpt>
      <trkpt lat="46.13347" lon="6.80653">
        <ele>2192.8</ele>
        <time>2000-01-01T14:03:33.000Z</time>
      </trkpt>
      <trkpt lat="46.13346" lon="6.80653">
        <ele>2192.5</ele>
        <time>2000-01-01T14:03:43.000Z</time>
      </trkpt>
      <trkpt lat="46.13345" lon="6.8065">
        <ele>2191.4</ele>
        <time>2000-01-01T14:03:53.000Z</time>
      </trkpt>
      <trkpt lat="46.13346" lon="6.80645">
        <ele>2190.3</ele>
        <time>2000-01-01T14:04:03.000Z</time>
      </trkpt>
      <trkpt lat="46.13346" lon="6.80643">
        <ele>2189.8</ele>
        <time>2000-01-01T14:04:13.000Z</time>
      </trkpt>
      <trkpt lat="46.13342" lon="6.80643">
        <ele>2188.6</ele>
        <time>2000-01-01T14:04:23.000Z</time>
      </trkpt>
      <trkpt lat="46.13337" lon="6.80644">
        <ele>2184</ele>
        <time>2000-01-01T14:04:33.000Z</time>
      </trkpt>
      <trkpt lat="46.13335" lon="6.80642">
        <ele>2186.4</ele>
        <time>2000-01-01T14:04:43.000Z</time>
      </trkpt>
      <trkpt lat="46.13332" lon="6.80639">
        <ele>2184.8</ele>
        <time>2000-01-01T14:04:53.000Z</time>
      </trkpt>
      <trkpt lat="46.13332" lon="6.80638">
        <ele>2184.5</ele>
        <time>2000-01-01T14:05:03.000Z</time>
      </trkpt>
      <trkpt lat="46.13331" lon="6.80637">
        <ele>2184.1</ele>
        <time>2000-01-01T14:05:13.000Z</time>
      </trkpt>
      <trkpt lat="46.13333" lon="6.80632">
        <ele>2183</ele>
        <time>2000-01-01T14:05:23.000Z</time>
      </trkpt>
      <trkpt lat="46.13328" lon="6.8063">
        <ele>2181.7</ele>
        <time>2000-01-01T14:05:33.000Z</time>
      </trkpt>
      <trkpt lat="46.13324" lon="6.80628">
        <ele>2178</ele>
        <time>2000-01-01T14:05:43.000Z</time>
      </trkpt>
      <trkpt lat="46.13324" lon="6.80628">
        <ele>2180.6</ele>
        <time>2000-01-01T14:05:53.000Z</time>
      </trkpt>
      <trkpt lat="46.13319" lon="6.80624">
        <ele>2179</ele>
        <time>2000-01-01T14:06:03.000Z</time>
      </trkpt>
      <trkpt lat="46.13315" lon="6.80622">
        <ele>2178</ele>
        <time>2000-01-01T14:06:13.000Z</time>
      </trkpt>
      <trkpt lat="46.1331" lon="6.80618">
        <ele>2176.7</ele>
        <time>2000-01-01T14:06:23.000Z</time>
      </trkpt>
      <trkpt lat="46.13309" lon="6.80612">
        <ele>2174</ele>
        <time>2000-01-01T14:06:33.000Z</time>
      </trkpt>
      <trkpt lat="46.13305" lon="6.80608">
        <ele>2174.6</ele>
        <time>2000-01-01T14:06:43.000Z</time>
      </trkpt>
      <trkpt lat="46.133" lon="6.80612">
        <ele>2175.8</ele>
        <time>2000-01-01T14:06:53.000Z</time>
      </trkpt>
      <trkpt lat="46.13293" lon="6.8061">
        <ele>2176.1</ele>
        <time>2000-01-01T14:07:03.000Z</time>
      </trkpt>
      <trkpt lat="46.1329" lon="6.80608">
        <ele>2171</ele>
        <time>2000-01-01T14:07:13.000Z</time>
      </trkpt>
      <trkpt lat="46.13285" lon="6.806">
        <ele>2173.5</ele>
        <time>2000-01-01T14:07:23.000Z</time>
      </trkpt>
      <trkpt lat="46.13278" lon="6.80594">
        <ele>2171.2</ele>
        <time>2000-01-01T14:07:33.000Z</time>
      </trkpt>
      <trkpt lat="46.13277" lon="6.80586">
        <ele>2168</ele>
        <time>2000-01-01T14:07:43.000Z</time>
      </trkpt>
      <trkpt lat="46.13272" lon="6.80577">
        <ele>2167.4</ele>
        <time>2000-01-01T14:07:53.000Z</time>
      </trkpt>
      <trkpt lat="46.1327" lon="6.8057">
        <ele>2166.6</ele>
        <time>2000-01-01T14:08:03.000Z</time>
      </trkpt>
      <trkpt lat="46.13267" lon="6.80563">
        <ele>2163</ele>
        <time>2000-01-01T14:08:13.000Z</time>
      </trkpt>
      <trkpt lat="46.13264" lon="6.80553">
        <ele>2163.5</ele>
        <time>2000-01-01T14:08:23.000Z</time>
      </trkpt>
      <trkpt lat="46.13262" lon="6.80541">
        <ele>2161.2</ele>
        <time>2000-01-01T14:08:33.000Z</time>
      </trkpt>
      <trkpt lat="46.13257" lon="6.80536">
        <ele>2157</ele>
        <time>2000-01-01T14:08:43.000Z</time>
      </trkpt>
      <trkpt lat="46.13255" lon="6.80526">
        <ele>2157.5</ele>
        <time>2000-01-01T14:08:53.000Z</time>
      </trkpt>
      <trkpt lat="46.13252" lon="6.80522">
        <ele>2156.5</ele>
        <time>2000-01-01T14:09:03.000Z</time>
      </trkpt>
      <trkpt lat="46.13249" lon="6.80515">
        <ele>2155.5</ele>
        <time>2000-01-01T14:09:13.000Z</time>
      </trkpt>
      <trkpt lat="46.13249" lon="6.80515">
        <ele>2155.5</ele>
        <time>2000-01-01T14:09:23.000Z</time>
      </trkpt>
      <trkpt lat="46.13247" lon="6.80506">
        <ele>2152</ele>
        <time>2000-01-01T14:09:33.000Z</time>
      </trkpt>
      <trkpt lat="46.13244" lon="6.80499">
        <ele>2153.9</ele>
        <time>2000-01-01T14:09:43.000Z</time>
      </trkpt>
      <trkpt lat="46.1323" lon="6.80469">
        <ele>2143</ele>
        <time>2000-01-01T14:09:53.000Z</time>
      </trkpt>
      <trkpt lat="46.13226" lon="6.80461">
        <ele>2145.9</ele>
        <time>2000-01-01T14:10:03.000Z</time>
      </trkpt>
      <trkpt lat="46.13221" lon="6.80449">
        <ele>2142.5</ele>
        <time>2000-01-01T14:10:13.000Z</time>
      </trkpt>
      <trkpt lat="46.13218" lon="6.8044">
        <ele>2143</ele>
        <time>2000-01-01T14:10:23.000Z</time>
      </trkpt>
      <trkpt lat="46.13216" lon="6.8043">
        <ele>2139.3</ele>
        <time>2000-01-01T14:10:33.000Z</time>
      </trkpt>
      <trkpt lat="46.13218" lon="6.80423">
        <ele>2137.5</ele>
        <time>2000-01-01T14:10:43.000Z</time>
      </trkpt>
      <trkpt lat="46.13219" lon="6.80415">
        <ele>2135.6</ele>
        <time>2000-01-01T14:10:53.000Z</time>
      </trkpt>
      <trkpt lat="46.1322" lon="6.80408">
        <ele>2130</ele>
        <time>2000-01-01T14:11:03.000Z</time>
      </trkpt>
      <trkpt lat="46.13221" lon="6.80399">
        <ele>2130.9</ele>
        <time>2000-01-01T14:11:13.000Z</time>
      </trkpt>
      <trkpt lat="46.13221" lon="6.80393">
        <ele>2129.2</ele>
        <time>2000-01-01T14:11:23.000Z</time>
      </trkpt>
      <trkpt lat="46.13225" lon="6.80387">
        <ele>2128.6</ele>
        <time>2000-01-01T14:11:33.000Z</time>
      </trkpt>
      <trkpt lat="46.13228" lon="6.80381">
        <ele>2125</ele>
        <time>2000-01-01T14:11:43.000Z</time>
      </trkpt>
      <trkpt lat="46.13229" lon="6.80372">
        <ele>2126.6</ele>
        <time>2000-01-01T14:11:53.000Z</time>
      </trkpt>
      <trkpt lat="46.13228" lon="6.80364">
        <ele>2124.2</ele>
        <time>2000-01-01T14:12:03.000Z</time>
      </trkpt>
      <trkpt lat="46.13221" lon="6.8035">
        <ele>2119</ele>
        <time>2000-01-01T14:12:13.000Z</time>
      </trkpt>
      <trkpt lat="46.13218" lon="6.80345">
        <ele>2119.2</ele>
        <time>2000-01-01T14:12:23.000Z</time>
      </trkpt>
      <trkpt lat="46.13216" lon="6.80339">
        <ele>2118.2</ele>
        <time>2000-01-01T14:12:33.000Z</time>
      </trkpt>
      <trkpt lat="46.13216" lon="6.80327">
        <ele>2117.6</ele>
        <time>2000-01-01T14:12:43.000Z</time>
      </trkpt>
      <trkpt lat="46.13214" lon="6.80322">
        <ele>2113</ele>
        <time>2000-01-01T14:12:53.000Z</time>
      </trkpt>
      <trkpt lat="46.1321" lon="6.80318">
        <ele>2115.3</ele>
        <time>2000-01-01T14:13:03.000Z</time>
      </trkpt>
      <trkpt lat="46.13199" lon="6.80318">
        <ele>2111.5</ele>
        <time>2000-01-01T14:13:13.000Z</time>
      </trkpt>
      <trkpt lat="46.1319" lon="6.80318">
        <ele>2104</ele>
        <time>2000-01-01T14:13:23.000Z</time>
      </trkpt>
      <trkpt lat="46.1318" lon="6.80316">
        <ele>2107.5</ele>
        <time>2000-01-01T14:13:33.000Z</time>
      </trkpt>
      <trkpt lat="46.13172" lon="6.80314">
        <ele>2105.9</ele>
        <time>2000-01-01T14:13:43.000Z</time>
      </trkpt>
      <trkpt lat="46.13167" lon="6.8031">
        <ele>2104</ele>
        <time>2000-01-01T14:13:53.000Z</time>
      </trkpt>
      <trkpt lat="46.13161" lon="6.80298">
        <ele>2104.3</ele>
        <time>2000-01-01T14:14:03.000Z</time>
      </trkpt>
      <trkpt lat="46.13158" lon="6.80287">
        <ele>2105.3</ele>
        <time>2000-01-01T14:14:13.000Z</time>
      </trkpt>
      <trkpt lat="46.13154" lon="6.80273">
        <ele>2104</ele>
        <time>2000-01-01T14:14:23.000Z</time>
      </trkpt>
      <trkpt lat="46.13151" lon="6.80263">
        <ele>2108.5</ele>
        <time>2000-01-01T14:14:33.000Z</time>
      </trkpt>
      <trkpt lat="46.13147" lon="6.80251">
        <ele>2110.8</ele>
        <time>2000-01-01T14:14:43.000Z</time>
      </trkpt>
      <trkpt lat="46.13143" lon="6.80238">
        <ele>2111</ele>
        <time>2000-01-01T14:14:53.000Z</time>
      </trkpt>
      <trkpt lat="46.13139" lon="6.80227">
        <ele>2111.5</ele>
        <time>2000-01-01T14:15:03.000Z</time>
      </trkpt>
      <trkpt lat="46.13135" lon="6.8022">
        <ele>2111.9</ele>
        <time>2000-01-01T14:15:13.000Z</time>
      </trkpt>
      <trkpt lat="46.13134" lon="6.80214">
        <ele>2112</ele>
        <time>2000-01-01T14:15:23.000Z</time>
      </trkpt>
      <trkpt lat="46.13131" lon="6.80211">
        <ele>2109</ele>
        <time>2000-01-01T14:15:33.000Z</time>
      </trkpt>
      <trkpt lat="46.13129" lon="6.80205">
        <ele>2111.8</ele>
        <time>2000-01-01T14:15:43.000Z</time>
      </trkpt>
      <trkpt lat="46.13128" lon="6.802">
        <ele>2111.8</ele>
        <time>2000-01-01T14:15:53.000Z</time>
      </trkpt>
      <trkpt lat="46.13124" lon="6.80193">
        <ele>2111.3</ele>
        <time>2000-01-01T14:16:03.000Z</time>
      </trkpt>
      <trkpt lat="46.1312" lon="6.80188">
        <ele>2108</ele>
        <time>2000-01-01T14:16:13.000Z</time>
      </trkpt>
      <trkpt lat="46.13119" lon="6.80185">
        <ele>2109.9</ele>
        <time>2000-01-01T14:16:23.000Z</time>
      </trkpt>
      <trkpt lat="46.13115" lon="6.80184">
        <ele>2109.3</ele>
        <time>2000-01-01T14:16:33.000Z</time>
      </trkpt>
      <trkpt lat="46.13115" lon="6.80184">
        <ele>2109.3</ele>
        <time>2000-01-01T14:16:43.000Z</time>
      </trkpt>
      <trkpt lat="46.13115" lon="6.80184">
        <ele>2109.3</ele>
        <time>2000-01-01T14:16:53.000Z</time>
      </trkpt>
      <trkpt lat="46.13113" lon="6.80179">
        <ele>2108.6</ele>
        <time>2000-01-01T14:17:03.000Z</time>
      </trkpt>
      <trkpt lat="46.13111" lon="6.80173">
        <ele>2107.7</ele>
        <time>2000-01-01T14:17:13.000Z</time>
      </trkpt>
      <trkpt lat="46.13109" lon="6.80166">
        <ele>2106</ele>
        <time>2000-01-01T14:17:23.000Z</time>
      </trkpt>
      <trkpt lat="46.13109" lon="6.80162">
        <ele>2106.5</ele>
        <time>2000-01-01T14:17:33.000Z</time>
      </trkpt>
      <trkpt lat="46.13107" lon="6.80158">
        <ele>2106.1</ele>
        <time>2000-01-01T14:17:43.000Z</time>
      </trkpt>
      <trkpt lat="46.13108" lon="6.80155">
        <ele>2106</ele>
        <time>2000-01-01T14:17:53.000Z</time>
      </trkpt>
      <trkpt lat="46.13107" lon="6.80152">
        <ele>2105.7</ele>
        <time>2000-01-01T14:18:03.000Z</time>
      </trkpt>
      <trkpt lat="46.13107" lon="6.80148">
        <ele>2105.5</ele>
        <time>2000-01-01T14:18:13.000Z</time>
      </trkpt>
      <trkpt lat="46.13109" lon="6.80144">
        <ele>2105.3</ele>
        <time>2000-01-01T14:18:23.000Z</time>
      </trkpt>
      <trkpt lat="46.13111" lon="6.80139">
        <ele>2103</ele>
        <time>2000-01-01T14:18:33.000Z</time>
      </trkpt>
      <trkpt lat="46.13113" lon="6.80134">
        <ele>2104.5</ele>
        <time>2000-01-01T14:18:43.000Z</time>
      </trkpt>
      <trkpt lat="46.13114" lon="6.80131">
        <ele>2104.2</ele>
        <time>2000-01-01T14:18:53.000Z</time>
      </trkpt>
      <trkpt lat="46.13113" lon="6.80127">
        <ele>2103.5</ele>
        <time>2000-01-01T14:19:03.000Z</time>
      </trkpt>
      <trkpt lat="46.13114" lon="6.80122">
        <ele>2103</ele>
        <time>2000-01-01T14:19:13.000Z</time>
      </trkpt>
      <trkpt lat="46.13116" lon="6.80121">
        <ele>2103.1</ele>
        <time>2000-01-01T14:19:23.000Z</time>
      </trkpt>
      <trkpt lat="46.13118" lon="6.80121">
        <ele>2103.4</ele>
        <time>2000-01-01T14:19:33.000Z</time>
      </trkpt>
      <trkpt lat="46.13118" lon="6.80118">
        <ele>2103</ele>
        <time>2000-01-01T14:19:43.000Z</time>
      </trkpt>
      <trkpt lat="46.13114" lon="6.80113">
        <ele>2101</ele>
        <time>2000-01-01T14:19:53.000Z</time>
      </trkpt>
      <trkpt lat="46.13113" lon="6.8011">
        <ele>2101.2</ele>
        <time>2000-01-01T14:20:03.000Z</time>
      </trkpt>
      <trkpt lat="46.13114" lon="6.80103">
        <ele>2100.4</ele>
        <time>2000-01-01T14:20:13.000Z</time>
      </trkpt>
      <trkpt lat="46.13115" lon="6.80095">
        <ele>2099.5</ele>
        <time>2000-01-01T14:20:23.000Z</time>
      </trkpt>
      <trkpt lat="46.13114" lon="6.8009">
        <ele>2098.6</ele>
        <time>2000-01-01T14:20:33.000Z</time>
      </trkpt>
      <trkpt lat="46.13115" lon="6.80086">
        <ele>2095</ele>
        <time>2000-01-01T14:20:43.000Z</time>
      </trkpt>
      <trkpt lat="46.13114" lon="6.80082">
        <ele>2097.2</ele>
        <time>2000-01-01T14:20:53.000Z</time>
      </trkpt>
      <trkpt lat="46.13111" lon="6.80081">
        <ele>2096.2</ele>
        <time>2000-01-01T14:21:03.000Z</time>
      </trkpt>
      <trkpt lat="46.13107" lon="6.8008">
        <ele>2096.5</ele>
        <time>2000-01-01T14:21:13.000Z</time>
      </trkpt>
      <trkpt lat="46.13105" lon="6.80078">
        <ele>2096.1</ele>
        <time>2000-01-01T14:21:23.000Z</time>
      </trkpt>
      <trkpt lat="46.13104" lon="6.80072">
        <ele>2094.1</ele>
        <time>2000-01-01T14:21:33.000Z</time>
      </trkpt>
      <trkpt lat="46.13104" lon="6.80067">
        <ele>2088</ele>
        <time>2000-01-01T14:21:43.000Z</time>
      </trkpt>
      <trkpt lat="46.13103" lon="6.80062">
        <ele>2090.6</ele>
        <time>2000-01-01T14:21:53.000Z</time>
      </trkpt>
      <trkpt lat="46.13102" lon="6.80054">
        <ele>2088</ele>
        <time>2000-01-01T14:22:03.000Z</time>
      </trkpt>
      <trkpt lat="46.13101" lon="6.80051">
        <ele>2087.4</ele>
        <time>2000-01-01T14:22:13.000Z</time>
      </trkpt>
      <trkpt lat="46.13098" lon="6.80049">
        <ele>2087.2</ele>
        <time>2000-01-01T14:22:23.000Z</time>
      </trkpt>
      <trkpt lat="46.13094" lon="6.80042">
        <ele>2084</ele>
        <time>2000-01-01T14:22:33.000Z</time>
      </trkpt>
      <trkpt lat="46.13093" lon="6.80037">
        <ele>2083.9</ele>
        <time>2000-01-01T14:22:43.000Z</time>
      </trkpt>
      <trkpt lat="46.13092" lon="6.80031">
        <ele>2082</ele>
        <time>2000-01-01T14:22:53.000Z</time>
      </trkpt>
      <trkpt lat="46.13092" lon="6.80027">
        <ele>2080.8</ele>
        <time>2000-01-01T14:23:03.000Z</time>
      </trkpt>
      <trkpt lat="46.13091" lon="6.80022">
        <ele>2079.6</ele>
        <time>2000-01-01T14:23:13.000Z</time>
      </trkpt>
      <trkpt lat="46.13087" lon="6.80018">
        <ele>2074</ele>
        <time>2000-01-01T14:23:23.000Z</time>
      </trkpt>
      <trkpt lat="46.13087" lon="6.80012">
        <ele>2076.5</ele>
        <time>2000-01-01T14:23:33.000Z</time>
      </trkpt>
      <trkpt lat="46.13084" lon="6.80009">
        <ele>2074.8</ele>
        <time>2000-01-01T14:23:43.000Z</time>
      </trkpt>
      <trkpt lat="46.13081" lon="6.80005">
        <ele>2073.7</ele>
        <time>2000-01-01T14:23:53.000Z</time>
      </trkpt>
      <trkpt lat="46.13076" lon="6.80002">
        <ele>2073.2</ele>
        <time>2000-01-01T14:24:03.000Z</time>
      </trkpt>
      <trkpt lat="46.13074" lon="6.79997">
        <ele>2068</ele>
        <time>2000-01-01T14:24:13.000Z</time>
      </trkpt>
      <trkpt lat="46.13073" lon="6.79992">
        <ele>2069.9</ele>
        <time>2000-01-01T14:24:23.000Z</time>
      </trkpt>
      <trkpt lat="46.13071" lon="6.7999">
        <ele>2069.1</ele>
        <time>2000-01-01T14:24:33.000Z</time>
      </trkpt>
      <trkpt lat="46.13067" lon="6.79986">
        <ele>2067.3</ele>
        <time>2000-01-01T14:24:43.000Z</time>
      </trkpt>
      <trkpt lat="46.13064" lon="6.7998">
        <ele>2064.3</ele>
        <time>2000-01-01T14:24:53.000Z</time>
      </trkpt>
      <trkpt lat="46.13062" lon="6.79975">
        <ele>2057</ele>
        <time>2000-01-01T14:25:03.000Z</time>
      </trkpt>
      <trkpt lat="46.13061" lon="6.79972">
        <ele>2060.1</ele>
        <time>2000-01-01T14:25:13.000Z</time>
      </trkpt>
      <trkpt lat="46.13058" lon="6.79971">
        <ele>2059.2</ele>
        <time>2000-01-01T14:25:23.000Z</time>
      </trkpt>
      <trkpt lat="46.13057" lon="6.79967">
        <ele>2057.7</ele>
        <time>2000-01-01T14:25:33.000Z</time>
      </trkpt>
      <trkpt lat="46.13055" lon="6.79962">
        <ele>2055.8</ele>
        <time>2000-01-01T14:25:43.000Z</time>
      </trkpt>
      <trkpt lat="46.1305" lon="6.79958">
        <ele>2055.4</ele>
        <time>2000-01-01T14:25:53.000Z</time>
      </trkpt>
      <trkpt lat="46.13047" lon="6.79957">
        <ele>2049</ele>
        <time>2000-01-01T14:26:03.000Z</time>
      </trkpt>
      <trkpt lat="46.13046" lon="6.79952">
        <ele>2053.4</ele>
        <time>2000-01-01T14:26:13.000Z</time>
      </trkpt>
      <trkpt lat="46.13044" lon="6.79949">
        <ele>2052.2</ele>
        <time>2000-01-01T14:26:23.000Z</time>
      </trkpt>
      <trkpt lat="46.13043" lon="6.79942">
        <ele>2049.2</ele>
        <time>2000-01-01T14:26:33.000Z</time>
      </trkpt>
      <trkpt lat="46.13041" lon="6.79937">
        <ele>2047.6</ele>
        <time>2000-01-01T14:26:43.000Z</time>
      </trkpt>
      <trkpt lat="46.13038" lon="6.79935">
        <ele>2046.8</ele>
        <time>2000-01-01T14:26:53.000Z</time>
      </trkpt>
      <trkpt lat="46.13034" lon="6.79933">
        <ele>2043</ele>
        <time>2000-01-01T14:27:03.000Z</time>
      </trkpt>
      <trkpt lat="46.13033" lon="6.7993">
        <ele>2044.7</ele>
        <time>2000-01-01T14:27:13.000Z</time>
      </trkpt>
      <trkpt lat="46.1303" lon="6.79924">
        <ele>2042.1</ele>
        <time>2000-01-01T14:27:23.000Z</time>
      </trkpt>
      <trkpt lat="46.13028" lon="6.79919">
        <ele>2040</ele>
        <time>2000-01-01T14:27:33.000Z</time>
      </trkpt>
      <trkpt lat="46.13025" lon="6.79914">
        <ele>2038.1</ele>
        <time>2000-01-01T14:27:43.000Z</time>
      </trkpt>
      <trkpt lat="46.13022" lon="6.79913">
        <ele>2035</ele>
        <time>2000-01-01T14:27:53.000Z</time>
      </trkpt>
      <trkpt lat="46.1302" lon="6.79909">
        <ele>2036.1</ele>
        <time>2000-01-01T14:28:03.000Z</time>
      </trkpt>
      <trkpt lat="46.13015" lon="6.79906">
        <ele>2034.6</ele>
        <time>2000-01-01T14:28:13.000Z</time>
      </trkpt>
      <trkpt lat="46.13012" lon="6.79904">
        <ele>2033.5</ele>
        <time>2000-01-01T14:28:23.000Z</time>
      </trkpt>
      <trkpt lat="46.13007" lon="6.79903">
        <ele>2032.5</ele>
        <time>2000-01-01T14:28:33.000Z</time>
      </trkpt>
      <trkpt lat="46.13001" lon="6.79903">
        <ele>2028</ele>
        <time>2000-01-01T14:28:43.000Z</time>
      </trkpt>
      <trkpt lat="46.12998" lon="6.79901">
        <ele>2030.6</ele>
        <time>2000-01-01T14:28:53.000Z</time>
      </trkpt>
      <trkpt lat="46.12991" lon="6.79896">
        <ele>2028.2</ele>
        <time>2000-01-01T14:29:03.000Z</time>
      </trkpt>
      <trkpt lat="46.12987" lon="6.79892">
        <ele>2026.4</ele>
        <time>2000-01-01T14:29:13.000Z</time>
      </trkpt>
      <trkpt lat="46.12981" lon="6.79886">
        <ele>2024</ele>
        <time>2000-01-01T14:29:23.000Z</time>
      </trkpt>
      <trkpt lat="46.12978" lon="6.79884">
        <ele>2024.8</ele>
        <time>2000-01-01T14:29:33.000Z</time>
      </trkpt>
      <trkpt lat="46.12974" lon="6.79883">
        <ele>2024.9</ele>
        <time>2000-01-01T14:29:43.000Z</time>
      </trkpt>
      <trkpt lat="46.12971" lon="6.7988">
        <ele>2024.9</ele>
        <time>2000-01-01T14:29:53.000Z</time>
      </trkpt>
      <trkpt lat="46.12968" lon="6.79872">
        <ele>2024.6</ele>
        <time>2000-01-01T14:30:03.000Z</time>
      </trkpt>
      <trkpt lat="46.12966" lon="6.79866">
        <ele>2024</ele>
        <time>2000-01-01T14:30:13.000Z</time>
      </trkpt>
      <trkpt lat="46.12964" lon="6.7986">
        <ele>2024.2</ele>
        <time>2000-01-01T14:30:23.000Z</time>
      </trkpt>
      <trkpt lat="46.12962" lon="6.79856">
        <ele>2024.2</ele>
        <time>2000-01-01T14:30:33.000Z</time>
      </trkpt>
      <trkpt lat="46.12959" lon="6.79853">
        <ele>2024.1</ele>
        <time>2000-01-01T14:30:43.000Z</time>
      </trkpt>
      <trkpt lat="46.12954" lon="6.79852">
        <ele>2023.9</ele>
        <time>2000-01-01T14:30:53.000Z</time>
      </trkpt>
      <trkpt lat="46.1295" lon="6.79851">
        <ele>2021</ele>
        <time>2000-01-01T14:31:03.000Z</time>
      </trkpt>
      <trkpt lat="46.12947" lon="6.79852">
        <ele>2023.5</ele>
        <time>2000-01-01T14:31:13.000Z</time>
      </trkpt>
      <trkpt lat="46.12943" lon="6.79852">
        <ele>2023.1</ele>
        <time>2000-01-01T14:31:23.000Z</time>
      </trkpt>
      <trkpt lat="46.1294" lon="6.79853">
        <ele>2022.5</ele>
        <time>2000-01-01T14:31:33.000Z</time>
      </trkpt>
      <trkpt lat="46.12937" lon="6.7985">
        <ele>2022.3</ele>
        <time>2000-01-01T14:31:43.000Z</time>
      </trkpt>
      <trkpt lat="46.12933" lon="6.79845">
        <ele>2019</ele>
        <time>2000-01-01T14:31:53.000Z</time>
      </trkpt>
      <trkpt lat="46.1293" lon="6.7984">
        <ele>2021.2</ele>
        <time>2000-01-01T14:32:03.000Z</time>
      </trkpt>
      <trkpt lat="46.12926" lon="6.79835">
        <ele>2020.1</ele>
        <time>2000-01-01T14:32:13.000Z</time>
      </trkpt>
      <trkpt lat="46.12921" lon="6.79828">
        <ele>2019</ele>
        <time>2000-01-01T14:32:23.000Z</time>
      </trkpt>
      <trkpt lat="46.12917" lon="6.79822">
        <ele>2017</ele>
        <time>2000-01-01T14:32:33.000Z</time>
      </trkpt>
      <trkpt lat="46.12915" lon="6.79815">
        <ele>2018.6</ele>
        <time>2000-01-01T14:32:43.000Z</time>
      </trkpt>
      <trkpt lat="46.12912" lon="6.79806">
        <ele>2018.8</ele>
        <time>2000-01-01T14:32:53.000Z</time>
      </trkpt>
      <trkpt lat="46.12909" lon="6.79799">
        <ele>2017.9</ele>
        <time>2000-01-01T14:33:03.000Z</time>
      </trkpt>
      <trkpt lat="46.12905" lon="6.79794">
        <ele>2013</ele>
        <time>2000-01-01T14:33:13.000Z</time>
      </trkpt>
      <trkpt lat="46.12903" lon="6.79793">
        <ele>2015.7</ele>
        <time>2000-01-01T14:33:23.000Z</time>
      </trkpt>
      <trkpt lat="46.12901" lon="6.79793">
        <ele>2015</ele>
        <time>2000-01-01T14:33:33.000Z</time>
      </trkpt>
      <trkpt lat="46.12898" lon="6.7979">
        <ele>2013.6</ele>
        <time>2000-01-01T14:33:43.000Z</time>
      </trkpt>
      <trkpt lat="46.12896" lon="6.79787">
        <ele>2012.5</ele>
        <time>2000-01-01T14:33:53.000Z</time>
      </trkpt>
      <trkpt lat="46.12897" lon="6.79784">
        <ele>2012.5</ele>
        <time>2000-01-01T14:34:03.000Z</time>
      </trkpt>
      <trkpt lat="46.12897" lon="6.7978">
        <ele>2012.1</ele>
        <time>2000-01-01T14:34:13.000Z</time>
      </trkpt>
      <trkpt lat="46.12895" lon="6.79774">
        <ele>2008</ele>
        <time>2000-01-01T14:34:23.000Z</time>
      </trkpt>
      <trkpt lat="46.12894" lon="6.79771">
        <ele>2010.1</ele>
        <time>2000-01-01T14:34:33.000Z</time>
      </trkpt>
      <trkpt lat="46.12892" lon="6.79768">
        <ele>2009.1</ele>
        <time>2000-01-01T14:34:43.000Z</time>
      </trkpt>
      <trkpt lat="46.12889" lon="6.79764">
        <ele>2007.6</ele>
        <time>2000-01-01T14:34:53.000Z</time>
      </trkpt>
      <trkpt lat="46.12888" lon="6.79761">
        <ele>2007.3</ele>
        <time>2000-01-01T14:35:03.000Z</time>
      </trkpt>
      <trkpt lat="46.12885" lon="6.7976">
        <ele>2006.9</ele>
        <time>2000-01-01T14:35:13.000Z</time>
      </trkpt>
      <trkpt lat="46.12884" lon="6.79758">
        <ele>2006.8</ele>
        <time>2000-01-01T14:35:23.000Z</time>
      </trkpt>
      <trkpt lat="46.12886" lon="6.79752">
        <ele>2006</ele>
        <time>2000-01-01T14:35:33.000Z</time>
      </trkpt>
      <trkpt lat="46.12887" lon="6.79746">
        <ele>2006.5</ele>
        <time>2000-01-01T14:35:43.000Z</time>
      </trkpt>
      <trkpt lat="46.12886" lon="6.79739">
        <ele>2005.7</ele>
        <time>2000-01-01T14:35:53.000Z</time>
      </trkpt>
      <trkpt lat="46.12884" lon="6.7973">
        <ele>2004.5</ele>
        <time>2000-01-01T14:36:03.000Z</time>
      </trkpt>
      <trkpt lat="46.12881" lon="6.7972">
        <ele>2000</ele>
        <time>2000-01-01T14:36:13.000Z</time>
      </trkpt>
      <trkpt lat="46.12882" lon="6.79712">
        <ele>2001.8</ele>
        <time>2000-01-01T14:36:23.000Z</time>
      </trkpt>
      <trkpt lat="46.12883" lon="6.79704">
        <ele>2000.9</ele>
        <time>2000-01-01T14:36:33.000Z</time>
      </trkpt>
      <trkpt lat="46.12881" lon="6.79703">
        <ele>2000.2</ele>
        <time>2000-01-01T14:36:43.000Z</time>
      </trkpt>
      <trkpt lat="46.12878" lon="6.79703">
        <ele>1999.5</ele>
        <time>2000-01-01T14:36:53.000Z</time>
      </trkpt>
      <trkpt lat="46.12875" lon="6.797">
        <ele>1994</ele>
        <time>2000-01-01T14:37:03.000Z</time>
      </trkpt>
      <trkpt lat="46.12874" lon="6.79695">
        <ele>1997.3</ele>
        <time>2000-01-01T14:37:13.000Z</time>
      </trkpt>
      <trkpt lat="46.12876" lon="6.79692">
        <ele>1997.2</ele>
        <time>2000-01-01T14:37:23.000Z</time>
      </trkpt>
      <trkpt lat="46.12877" lon="6.79685">
        <ele>1995.7</ele>
        <time>2000-01-01T14:37:33.000Z</time>
      </trkpt>
      <trkpt lat="46.12878" lon="6.79678">
        <ele>1994.2</ele>
        <time>2000-01-01T14:37:43.000Z</time>
      </trkpt>
      <trkpt lat="46.1288" lon="6.7967">
        <ele>1987</ele>
        <time>2000-01-01T14:37:53.000Z</time>
      </trkpt>
      <trkpt lat="46.12883" lon="6.79666">
        <ele>1991.9</ele>
        <time>2000-01-01T14:38:03.000Z</time>
      </trkpt>
      <trkpt lat="46.12884" lon="6.79661">
        <ele>1990.5</ele>
        <time>2000-01-01T14:38:13.000Z</time>
      </trkpt>
      <trkpt lat="46.12883" lon="6.79658">
        <ele>1989.4</ele>
        <time>2000-01-01T14:38:23.000Z</time>
      </trkpt>
      <trkpt lat="46.1288" lon="6.79657">
        <ele>1988.7</ele>
        <time>2000-01-01T14:38:33.000Z</time>
      </trkpt>
      <trkpt lat="46.1288" lon="6.79656">
        <ele>1988.4</ele>
        <time>2000-01-01T14:38:43.000Z</time>
      </trkpt>
      <trkpt lat="46.12879" lon="6.7965">
        <ele>1986.4</ele>
        <time>2000-01-01T14:38:53.000Z</time>
      </trkpt>
      <trkpt lat="46.12875" lon="6.79648">
        <ele>1980</ele>
        <time>2000-01-01T14:39:03.000Z</time>
      </trkpt>
      <trkpt lat="46.12872" lon="6.79644">
        <ele>1983.7</ele>
        <time>2000-01-01T14:39:13.000Z</time>
      </trkpt>
      <trkpt lat="46.1287" lon="6.79642">
        <ele>1982.9</ele>
        <time>2000-01-01T14:39:23.000Z</time>
      </trkpt>
      <trkpt lat="46.12869" lon="6.79641">
        <ele>1982.5</ele>
        <time>2000-01-01T14:39:33.000Z</time>
      </trkpt>
      <trkpt lat="46.12871" lon="6.79636">
        <ele>1980.6</ele>
        <time>2000-01-01T14:39:43.000Z</time>
      </trkpt>
      <trkpt lat="46.12873" lon="6.79633">
        <ele>1979.4</ele>
        <time>2000-01-01T14:39:53.000Z</time>
      </trkpt>
      <trkpt lat="46.12875" lon="6.79631">
        <ele>1978.7</ele>
        <time>2000-01-01T14:40:03.000Z</time>
      </trkpt>
      <trkpt lat="46.12875" lon="6.79628">
        <ele>1977.2</ele>
        <time>2000-01-01T14:40:13.000Z</time>
      </trkpt>
      <trkpt lat="46.12872" lon="6.79628">
        <ele>1971</ele>
        <time>2000-01-01T14:40:23.000Z</time>
      </trkpt>
      <trkpt lat="46.12871" lon="6.79626">
        <ele>1975.7</ele>
        <time>2000-01-01T14:40:33.000Z</time>
      </trkpt>
      <trkpt lat="46.12868" lon="6.79622">
        <ele>1973.4</ele>
        <time>2000-01-01T14:40:43.000Z</time>
      </trkpt>
      <trkpt lat="46.12867" lon="6.7962">
        <ele>1972.3</ele>
        <time>2000-01-01T14:40:53.000Z</time>
      </trkpt>
      <trkpt lat="46.12868" lon="6.79618">
        <ele>1971.4</ele>
        <time>2000-01-01T14:41:03.000Z</time>
      </trkpt>
      <trkpt lat="46.12871" lon="6.79615">
        <ele>1970.3</ele>
        <time>2000-01-01T14:41:13.000Z</time>
      </trkpt>
      <trkpt lat="46.12872" lon="6.79613">
        <ele>1969.5</ele>
        <time>2000-01-01T14:41:23.000Z</time>
      </trkpt>
      <trkpt lat="46.12871" lon="6.79611">
        <ele>1968.4</ele>
        <time>2000-01-01T14:41:33.000Z</time>
      </trkpt>
      <trkpt lat="46.12865" lon="6.79609">
        <ele>1959</ele>
        <time>2000-01-01T14:41:43.000Z</time>
      </trkpt>
      <trkpt lat="46.12862" lon="6.79608">
        <ele>1965.9</ele>
        <time>2000-01-01T14:41:53.000Z</time>
      </trkpt>
      <trkpt lat="46.12861" lon="6.79604">
        <ele>1964.2</ele>
        <time>2000-01-01T14:42:03.000Z</time>
      </trkpt>
      <trkpt lat="46.12861" lon="6.79601">
        <ele>1963</ele>
        <time>2000-01-01T14:42:13.000Z</time>
      </trkpt>
      <trkpt lat="46.12863" lon="6.79596">
        <ele>1961.3</ele>
        <time>2000-01-01T14:42:23.000Z</time>
      </trkpt>
      <trkpt lat="46.12863" lon="6.79595">
        <ele>1960.9</ele>
        <time>2000-01-01T14:42:33.000Z</time>
      </trkpt>
      <trkpt lat="46.12865" lon="6.79595">
        <ele>1961.3</ele>
        <time>2000-01-01T14:42:43.000Z</time>
      </trkpt>
      <trkpt lat="46.12865" lon="6.79592">
        <ele>1960.1</ele>
        <time>2000-01-01T14:42:53.000Z</time>
      </trkpt>
      <trkpt lat="46.12864" lon="6.79588">
        <ele>1957</ele>
        <time>2000-01-01T14:43:03.000Z</time>
      </trkpt>
      <trkpt lat="46.12861" lon="6.79589">
        <ele>1958.3</ele>
        <time>2000-01-01T14:43:13.000Z</time>
      </trkpt>
      <trkpt lat="46.1286" lon="6.79588">
        <ele>1958</ele>
        <time>2000-01-01T14:43:23.000Z</time>
      </trkpt>
      <trkpt lat="46.12857" lon="6.79586">
        <ele>1957.7</ele>
        <time>2000-01-01T14:43:33.000Z</time>
      </trkpt>
      <trkpt lat="46.12856" lon="6.79579">
        <ele>1956.6</ele>
        <time>2000-01-01T14:43:43.000Z</time>
      </trkpt>
      <trkpt lat="46.12856" lon="6.79575">
        <ele>1956.2</ele>
        <time>2000-01-01T14:43:53.000Z</time>
      </trkpt>
      <trkpt lat="46.12853" lon="6.79571">
        <ele>1956.3</ele>
        <time>2000-01-01T14:44:03.000Z</time>
      </trkpt>
      <trkpt lat="46.12849" lon="6.79569">
        <ele>1956</ele>
        <time>2000-01-01T14:44:13.000Z</time>
      </trkpt>
      <trkpt lat="46.12845" lon="6.79563">
        <ele>1956.6</ele>
        <time>2000-01-01T14:44:23.000Z</time>
      </trkpt>
      <trkpt lat="46.12842" lon="6.79559">
        <ele>1956.5</ele>
        <time>2000-01-01T14:44:33.000Z</time>
      </trkpt>
      <trkpt lat="46.1284" lon="6.79555">
        <ele>1956.2</ele>
        <time>2000-01-01T14:44:43.000Z</time>
      </trkpt>
      <trkpt lat="46.12838" lon="6.79547">
        <ele>1955</ele>
        <time>2000-01-01T14:44:53.000Z</time>
      </trkpt>
      <trkpt lat="46.12835" lon="6.79545">
        <ele>1955.6</ele>
        <time>2000-01-01T14:45:03.000Z</time>
      </trkpt>
      <trkpt lat="46.12833" lon="6.79541">
        <ele>1955.5</ele>
        <time>2000-01-01T14:45:13.000Z</time>
      </trkpt>
      <trkpt lat="46.12831" lon="6.79535">
        <ele>1955.2</ele>
        <time>2000-01-01T14:45:23.000Z</time>
      </trkpt>
      <trkpt lat="46.12832" lon="6.79531">
        <ele>1954.5</ele>
        <time>2000-01-01T14:45:33.000Z</time>
      </trkpt>
      <trkpt lat="46.1283" lon="6.79526">
        <ele>1953.8</ele>
        <time>2000-01-01T14:45:43.000Z</time>
      </trkpt>
      <trkpt lat="46.1283" lon="6.79521">
        <ele>1953</ele>
        <time>2000-01-01T14:45:53.000Z</time>
      </trkpt>
      <trkpt lat="46.12831" lon="6.79517">
        <ele>1950.5</ele>
        <time>2000-01-01T14:46:03.000Z</time>
      </trkpt>
      <trkpt lat="46.12832" lon="6.7951">
        <ele>1947.9</ele>
        <time>2000-01-01T14:46:13.000Z</time>
      </trkpt>
      <trkpt lat="46.12831" lon="6.79505">
        <ele>1946.3</ele>
        <time>2000-01-01T14:46:23.000Z</time>
      </trkpt>
      <trkpt lat="46.1283" lon="6.79498">
        <ele>1944.5</ele>
        <time>2000-01-01T14:46:33.000Z</time>
      </trkpt>
      <trkpt lat="46.12828" lon="6.79493">
        <ele>1951</ele>
        <time>2000-01-01T14:46:43.000Z</time>
      </trkpt>
      <trkpt lat="46.12826" lon="6.7949">
        <ele>1944.2</ele>
        <time>2000-01-01T14:46:53.000Z</time>
      </trkpt>
      <trkpt lat="46.12821" lon="6.79492">
        <ele>1945.9</ele>
        <time>2000-01-01T14:47:03.000Z</time>
      </trkpt>
      <trkpt lat="46.12817" lon="6.79492">
        <ele>1947</ele>
        <time>2000-01-01T14:47:13.000Z</time>
      </trkpt>
      <trkpt lat="46.12814" lon="6.79489">
        <ele>1947.4</ele>
        <time>2000-01-01T14:47:23.000Z</time>
      </trkpt>
      <trkpt lat="46.12811" lon="6.79489">
        <ele>1948.3</ele>
        <time>2000-01-01T14:47:33.000Z</time>
      </trkpt>
      <trkpt lat="46.12809" lon="6.79492">
        <ele>1952</ele>
        <time>2000-01-01T14:47:43.000Z</time>
      </trkpt>
      <trkpt lat="46.12807" lon="6.79492">
        <ele>1949.7</ele>
        <time>2000-01-01T14:47:53.000Z</time>
      </trkpt>
      <trkpt lat="46.12805" lon="6.79492">
        <ele>1950.4</ele>
        <time>2000-01-01T14:48:03.000Z</time>
      </trkpt>
      <trkpt lat="46.12802" lon="6.79494">
        <ele>1951.9</ele>
        <time>2000-01-01T14:48:13.000Z</time>
      </trkpt>
      <trkpt lat="46.12799" lon="6.79494">
        <ele>1953.2</ele>
        <time>2000-01-01T14:48:23.000Z</time>
      </trkpt>
      <trkpt lat="46.12796" lon="6.7949">
        <ele>1953.8</ele>
        <time>2000-01-01T14:48:33.000Z</time>
      </trkpt>
      <trkpt lat="46.12793" lon="6.79489">
        <ele>1954.8</ele>
        <time>2000-01-01T14:48:43.000Z</time>
      </trkpt>
      <trkpt lat="46.12791" lon="6.79489">
        <ele>1953</ele>
        <time>2000-01-01T14:48:53.000Z</time>
      </trkpt>
      <trkpt lat="46.12788" lon="6.79484">
        <ele>1955.7</ele>
        <time>2000-01-01T14:49:03.000Z</time>
      </trkpt>
      <trkpt lat="46.12785" lon="6.7948">
        <ele>1955.8</ele>
        <time>2000-01-01T14:49:13.000Z</time>
      </trkpt>
      <trkpt lat="46.12781" lon="6.79477">
        <ele>1956.3</ele>
        <time>2000-01-01T14:49:23.000Z</time>
      </trkpt>
      <trkpt lat="46.12777" lon="6.79473">
        <ele>1956.6</ele>
        <time>2000-01-01T14:49:33.000Z</time>
      </trkpt>
      <trkpt lat="46.12774" lon="6.79465">
        <ele>1953</ele>
        <time>2000-01-01T14:49:43.000Z</time>
      </trkpt>
      <trkpt lat="46.12774" lon="6.79459">
        <ele>1953</ele>
        <time>2000-01-01T14:49:53.000Z</time>
      </trkpt>
      <trkpt lat="46.12773" lon="6.79449">
        <ele>1949.9</ele>
        <time>2000-01-01T14:50:03.000Z</time>
      </trkpt>
      <trkpt lat="46.12772" lon="6.7944">
        <ele>1947.4</ele>
        <time>2000-01-01T14:50:13.000Z</time>
      </trkpt>
      <trkpt lat="46.12771" lon="6.7943">
        <ele>1944</ele>
        <time>2000-01-01T14:50:23.000Z</time>
      </trkpt>
      <trkpt lat="46.12768" lon="6.79424">
        <ele>1944.7</ele>
        <time>2000-01-01T14:50:33.000Z</time>
      </trkpt>
      <trkpt lat="46.12764" lon="6.79417">
        <ele>1944.5</ele>
        <time>2000-01-01T14:50:43.000Z</time>
      </trkpt>
      <trkpt lat="46.12763" lon="6.79409">
        <ele>1943.8</ele>
        <time>2000-01-01T14:50:53.000Z</time>
      </trkpt>
      <trkpt lat="46.12762" lon="6.79405">
        <ele>1944</ele>
        <time>2000-01-01T14:51:03.000Z</time>
      </trkpt>
      <trkpt lat="46.12759" lon="6.79404">
        <ele>1944.5</ele>
        <time>2000-01-01T14:51:13.000Z</time>
      </trkpt>
      <trkpt lat="46.12756" lon="6.79401">
        <ele>1945</ele>
        <time>2000-01-01T14:51:23.000Z</time>
      </trkpt>
      <trkpt lat="46.12753" lon="6.79398">
        <ele>1945.3</ele>
        <time>2000-01-01T14:51:33.000Z</time>
      </trkpt>
      <trkpt lat="46.12751" lon="6.79395">
        <ele>1945.2</ele>
        <time>2000-01-01T14:51:43.000Z</time>
      </trkpt>
      <trkpt lat="46.12752" lon="6.79392">
        <ele>1944.2</ele>
        <time>2000-01-01T14:51:53.000Z</time>
      </trkpt>
      <trkpt lat="46.12752" lon="6.79387">
        <ele>1942</ele>
        <time>2000-01-01T14:52:03.000Z</time>
      </trkpt>
      <trkpt lat="46.12749" lon="6.79382">
        <ele>1942.8</ele>
        <time>2000-01-01T14:52:13.000Z</time>
      </trkpt>
      <trkpt lat="46.12746" lon="6.79378">
        <ele>1942.9</ele>
        <time>2000-01-01T14:52:23.000Z</time>
      </trkpt>
      <trkpt lat="46.12745" lon="6.79374">
        <ele>1942.3</ele>
        <time>2000-01-01T14:52:33.000Z</time>
      </trkpt>
      <trkpt lat="46.12748" lon="6.79369">
        <ele>1940.3</ele>
        <time>2000-01-01T14:52:43.000Z</time>
      </trkpt>
      <trkpt lat="46.12748" lon="6.79363">
        <ele>1940</ele>
        <time>2000-01-01T14:52:53.000Z</time>
      </trkpt>
      <trkpt lat="46.12746" lon="6.79357">
        <ele>1938</ele>
        <time>2000-01-01T14:53:03.000Z</time>
      </trkpt>
      <trkpt lat="46.12744" lon="6.79352">
        <ele>1937.1</ele>
        <time>2000-01-01T14:53:13.000Z</time>
      </trkpt>
      <trkpt lat="46.12747" lon="6.79346">
        <ele>1934.5</ele>
        <time>2000-01-01T14:53:23.000Z</time>
      </trkpt>
      <trkpt lat="46.1275" lon="6.7934">
        <ele>1931.9</ele>
        <time>2000-01-01T14:53:33.000Z</time>
      </trkpt>
      <trkpt lat="46.1275" lon="6.79333">
        <ele>1931</ele>
        <time>2000-01-01T14:53:43.000Z</time>
      </trkpt>
      <trkpt lat="46.12748" lon="6.79326">
        <ele>1927.7</ele>
        <time>2000-01-01T14:53:53.000Z</time>
      </trkpt>
      <trkpt lat="46.12746" lon="6.7932">
        <ele>1926.1</ele>
        <time>2000-01-01T14:54:03.000Z</time>
      </trkpt>
      <trkpt lat="46.12743" lon="6.79318">
        <ele>1926.5</ele>
        <time>2000-01-01T14:54:13.000Z</time>
      </trkpt>
      <trkpt lat="46.12741" lon="6.79315">
        <ele>1926.2</ele>
        <time>2000-01-01T14:54:23.000Z</time>
      </trkpt>
      <trkpt lat="46.12743" lon="6.79308">
        <ele>1921</ele>
        <time>2000-01-01T14:54:33.000Z</time>
      </trkpt>
      <trkpt lat="46.12741" lon="6.79302">
        <ele>1922.2</ele>
        <time>2000-01-01T14:54:43.000Z</time>
      </trkpt>
      <trkpt lat="46.1274" lon="6.79294">
        <ele>1921.2</ele>
        <time>2000-01-01T14:54:53.000Z</time>
      </trkpt>
      <trkpt lat="46.12739" lon="6.79292">
        <ele>1921.3</ele>
        <time>2000-01-01T14:55:03.000Z</time>
      </trkpt>
      <trkpt lat="46.12738" lon="6.79286">
        <ele>1920.7</ele>
        <time>2000-01-01T14:55:13.000Z</time>
      </trkpt>
      <trkpt lat="46.12738" lon="6.79281">
        <ele>1921</ele>
        <time>2000-01-01T14:55:23.000Z</time>
      </trkpt>
      <trkpt lat="46.12736" lon="6.79279">
        <ele>1920.3</ele>
        <time>2000-01-01T14:55:33.000Z</time>
      </trkpt>
      <trkpt lat="46.12735" lon="6.79277">
        <ele>1920.3</ele>
        <time>2000-01-01T14:55:43.000Z</time>
      </trkpt>
      <trkpt lat="46.12732" lon="6.79276">
        <ele>1921.3</ele>
        <time>2000-01-01T14:55:53.000Z</time>
      </trkpt>
      <trkpt lat="46.1273" lon="6.7927">
        <ele>1920.5</ele>
        <time>2000-01-01T14:56:03.000Z</time>
      </trkpt>
      <trkpt lat="46.12726" lon="6.79263">
        <ele>1919.7</ele>
        <time>2000-01-01T14:56:13.000Z</time>
      </trkpt>
      <trkpt lat="46.12725" lon="6.79255">
        <ele>1918</ele>
        <time>2000-01-01T14:56:23.000Z</time>
      </trkpt>
      <trkpt lat="46.12725" lon="6.79249">
        <ele>1915.4</ele>
        <time>2000-01-01T14:56:33.000Z</time>
      </trkpt>
      <trkpt lat="46.12721" lon="6.79241">
        <ele>1913.4</ele>
        <time>2000-01-01T14:56:43.000Z</time>
      </trkpt>
      <trkpt lat="46.12717" lon="6.79228">
        <ele>1918</ele>
        <time>2000-01-01T14:56:53.000Z</time>
      </trkpt>
      <trkpt lat="46.12715" lon="6.79222">
        <ele>1912</ele>
        <time>2000-01-01T14:57:03.000Z</time>
      </trkpt>
      <trkpt lat="46.12712" lon="6.79217">
        <ele>1913.6</ele>
        <time>2000-01-01T14:57:13.000Z</time>
      </trkpt>
      <trkpt lat="46.12711" lon="6.7921">
        <ele>1912.7</ele>
        <time>2000-01-01T14:57:23.000Z</time>
      </trkpt>
      <trkpt lat="46.12708" lon="6.79203">
        <ele>1918</ele>
        <time>2000-01-01T14:57:33.000Z</time>
      </trkpt>
      <trkpt lat="46.12705" lon="6.79197">
        <ele>1914.6</ele>
        <time>2000-01-01T14:57:43.000Z</time>
      </trkpt>
      <trkpt lat="46.12703" lon="6.79187">
        <ele>1912.6</ele>
        <time>2000-01-01T14:57:53.000Z</time>
      </trkpt>
      <trkpt lat="46.12701" lon="6.79182">
        <ele>1911.7</ele>
        <time>2000-01-01T14:58:03.000Z</time>
      </trkpt>
      <trkpt lat="46.12699" lon="6.79178">
        <ele>1915</ele>
        <time>2000-01-01T14:58:13.000Z</time>
      </trkpt>
      <trkpt lat="46.12699" lon="6.79171">
        <ele>1907.3</ele>
        <time>2000-01-01T14:58:23.000Z</time>
      </trkpt>
      <trkpt lat="46.12696" lon="6.79165">
        <ele>1904.9</ele>
        <time>2000-01-01T14:58:33.000Z</time>
      </trkpt>
      <trkpt lat="46.12696" lon="6.7916">
        <ele>1902.6</ele>
        <time>2000-01-01T14:58:43.000Z</time>
      </trkpt>
      <trkpt lat="46.12693" lon="6.79152">
        <ele>1903</ele>
        <time>2000-01-01T14:58:53.000Z</time>
      </trkpt>
      <trkpt lat="46.12693" lon="6.79144">
        <ele>1896.1</ele>
        <time>2000-01-01T14:59:03.000Z</time>
      </trkpt>
      <trkpt lat="46.12692" lon="6.7914">
        <ele>1895.3</ele>
        <time>2000-01-01T14:59:13.000Z</time>
      </trkpt>
      <trkpt lat="46.12686" lon="6.79124">
        <ele>1906</ele>
        <time>2000-01-01T14:59:23.000Z</time>
      </trkpt>
      <trkpt lat="46.12684" lon="6.7912">
        <ele>1896.7</ele>
        <time>2000-01-01T14:59:33.000Z</time>
      </trkpt>
      <trkpt lat="46.12678" lon="6.79114">
        <ele>1900</ele>
        <time>2000-01-01T14:59:43.000Z</time>
      </trkpt>
      <trkpt lat="46.12674" lon="6.79105">
        <ele>1900.4</ele>
        <time>2000-01-01T14:59:53.000Z</time>
      </trkpt>
      <trkpt lat="46.12668" lon="6.79092">
        <ele>1905</ele>
        <time>2000-01-01T15:00:03.000Z</time>
      </trkpt>
      <trkpt lat="46.12663" lon="6.79075">
        <ele>1896.5</ele>
        <time>2000-01-01T15:00:13.000Z</time>
      </trkpt>
      <trkpt lat="46.12662" lon="6.79068">
        <ele>1893.5</ele>
        <time>2000-01-01T15:00:23.000Z</time>
      </trkpt>
      <trkpt lat="46.1266" lon="6.79063">
        <ele>1904</ele>
        <time>2000-01-01T15:00:33.000Z</time>
      </trkpt>
      <trkpt lat="46.12658" lon="6.79057">
        <ele>1890.9</ele>
        <time>2000-01-01T15:00:43.000Z</time>
      </trkpt>
      <trkpt lat="46.12655" lon="6.7905">
        <ele>1890</ele>
        <time>2000-01-01T15:00:53.000Z</time>
      </trkpt>
      <trkpt lat="46.12654" lon="6.79043">
        <ele>1887.2</ele>
        <time>2000-01-01T15:01:03.000Z</time>
      </trkpt>
      <trkpt lat="46.12653" lon="6.79038">
        <ele>1880</ele>
        <time>2000-01-01T15:01:13.000Z</time>
      </trkpt>
      <trkpt lat="46.12653" lon="6.79035">
        <ele>1883.7</ele>
        <time>2000-01-01T15:01:23.000Z</time>
      </trkpt>
      <trkpt lat="46.12656" lon="6.79037">
        <ele>1882.4</ele>
        <time>2000-01-01T15:01:33.000Z</time>
      </trkpt>
      <trkpt lat="46.12656" lon="6.79029">
        <ele>1878.3</ele>
        <time>2000-01-01T15:01:43.000Z</time>
      </trkpt>
      <trkpt lat="46.12657" lon="6.79026">
        <ele>1876.4</ele>
        <time>2000-01-01T15:01:53.000Z</time>
      </trkpt>
      <trkpt lat="46.12658" lon="6.79024">
        <ele>1875.1</ele>
        <time>2000-01-01T15:02:03.000Z</time>
      </trkpt>
      <trkpt lat="46.1266" lon="6.79021">
        <ele>1873</ele>
        <time>2000-01-01T15:02:13.000Z</time>
      </trkpt>
      <trkpt lat="46.12661" lon="6.79016">
        <ele>1865</ele>
        <time>2000-01-01T15:02:23.000Z</time>
      </trkpt>
      <trkpt lat="46.12662" lon="6.79009">
        <ele>1868.8</ele>
        <time>2000-01-01T15:02:33.000Z</time>
      </trkpt>
      <trkpt lat="46.12661" lon="6.78996">
        <ele>1866.7</ele>
        <time>2000-01-01T15:02:43.000Z</time>
      </trkpt>
      <trkpt lat="46.12662" lon="6.78994">
        <ele>1866.2</ele>
        <time>2000-01-01T15:02:53.000Z</time>
      </trkpt>
      <trkpt lat="46.12663" lon="6.78991">
        <ele>1865.8</ele>
        <time>2000-01-01T15:03:03.000Z</time>
      </trkpt>
      <trkpt lat="46.12663" lon="6.78988">
        <ele>1864</ele>
        <time>2000-01-01T15:03:13.000Z</time>
      </trkpt>
      <trkpt lat="46.12664" lon="6.78983">
        <ele>1865.2</ele>
        <time>2000-01-01T15:03:23.000Z</time>
      </trkpt>
      <trkpt lat="46.12663" lon="6.78979">
        <ele>1865</ele>
        <time>2000-01-01T15:03:33.000Z</time>
      </trkpt>
      <trkpt lat="46.12664" lon="6.78976">
        <ele>1864.9</ele>
        <time>2000-01-01T15:03:43.000Z</time>
      </trkpt>
      <trkpt lat="46.12666" lon="6.78973">
        <ele>1864.9</ele>
        <time>2000-01-01T15:03:53.000Z</time>
      </trkpt>
      <trkpt lat="46.12665" lon="6.78972">
        <ele>1864.9</ele>
        <time>2000-01-01T15:04:03.000Z</time>
      </trkpt>
      <trkpt lat="46.12666" lon="6.78966">
        <ele>1866</ele>
        <time>2000-01-01T15:04:13.000Z</time>
      </trkpt>
      <trkpt lat="46.12667" lon="6.78964">
        <ele>1866.8</ele>
        <time>2000-01-01T15:04:23.000Z</time>
      </trkpt>
      <trkpt lat="46.12669" lon="6.78962">
        <ele>1867</ele>
        <time>2000-01-01T15:04:33.000Z</time>
      </trkpt>
      <trkpt lat="46.12669" lon="6.78961">
        <ele>1869.3</ele>
        <time>2000-01-01T15:04:43.000Z</time>
      </trkpt>
      <trkpt lat="46.1267" lon="6.78958">
        <ele>1870.9</ele>
        <time>2000-01-01T15:04:53.000Z</time>
      </trkpt>
      <trkpt lat="46.1267" lon="6.78953">
        <ele>1871.9</ele>
        <time>2000-01-01T15:05:03.000Z</time>
      </trkpt>
      <trkpt lat="46.1267" lon="6.78951">
        <ele>1872.3</ele>
        <time>2000-01-01T15:05:13.000Z</time>
      </trkpt>
      <trkpt lat="46.1267" lon="6.78949">
        <ele>1872.7</ele>
        <time>2000-01-01T15:05:23.000Z</time>
      </trkpt>
      <trkpt lat="46.12669" lon="6.78945">
        <ele>1872.4</ele>
        <time>2000-01-01T15:05:33.000Z</time>
      </trkpt>
      <trkpt lat="46.12668" lon="6.78941">
        <ele>1873</ele>
        <time>2000-01-01T15:05:43.000Z</time>
      </trkpt>
      <trkpt lat="46.12666" lon="6.78938">
        <ele>1872.7</ele>
        <time>2000-01-01T15:05:53.000Z</time>
      </trkpt>
      <trkpt lat="46.12661" lon="6.78931">
        <ele>1870</ele>
        <time>2000-01-01T15:06:03.000Z</time>
      </trkpt>
      <trkpt lat="46.12657" lon="6.78924">
        <ele>1874</ele>
        <time>2000-01-01T15:06:13.000Z</time>
      </trkpt>
      <trkpt lat="46.12656" lon="6.7892">
        <ele>1874.9</ele>
        <time>2000-01-01T15:06:23.000Z</time>
      </trkpt>
      <trkpt lat="46.12651" lon="6.78913">
        <ele>1874</ele>
        <time>2000-01-01T15:06:33.000Z</time>
      </trkpt>
      <trkpt lat="46.1265" lon="6.78913">
        <ele>1873.4</ele>
        <time>2000-01-01T15:06:43.000Z</time>
      </trkpt>
      <trkpt lat="46.1265" lon="6.78913">
        <ele>1873.4</ele>
        <time>2000-01-01T15:06:53.000Z</time>
      </trkpt>
      <trkpt lat="46.1265" lon="6.78913">
        <ele>1873.4</ele>
        <time>2000-01-01T15:07:03.000Z</time>
      </trkpt>
      <trkpt lat="46.12648" lon="6.7891">
        <ele>1870</ele>
        <time>2000-01-01T15:07:13.000Z</time>
      </trkpt>
      <trkpt lat="46.12646" lon="6.78907">
        <ele>1872.7</ele>
        <time>2000-01-01T15:07:23.000Z</time>
      </trkpt>
      <trkpt lat="46.12645" lon="6.78906">
        <ele>1872.4</ele>
        <time>2000-01-01T15:07:33.000Z</time>
      </trkpt>
      <trkpt lat="46.12643" lon="6.78901">
        <ele>1872.7</ele>
        <time>2000-01-01T15:07:43.000Z</time>
      </trkpt>
      <trkpt lat="46.1264" lon="6.78897">
        <ele>1872.1</ele>
        <time>2000-01-01T15:07:53.000Z</time>
      </trkpt>
      <trkpt lat="46.12638" lon="6.78895">
        <ele>1871.6</ele>
        <time>2000-01-01T15:08:03.000Z</time>
      </trkpt>
      <trkpt lat="46.12636" lon="6.78892">
        <ele>1871.7</ele>
        <time>2000-01-01T15:08:13.000Z</time>
      </trkpt>
      <trkpt lat="46.12635" lon="6.78887">
        <ele>1872</ele>
        <time>2000-01-01T15:08:23.000Z</time>
      </trkpt>
      <trkpt lat="46.12633" lon="6.78883">
        <ele>1872.7</ele>
        <time>2000-01-01T15:08:33.000Z</time>
      </trkpt>
      <trkpt lat="46.12631" lon="6.78881">
        <ele>1872.3</ele>
        <time>2000-01-01T15:08:43.000Z</time>
      </trkpt>
      <trkpt lat="46.12629" lon="6.78877">
        <ele>1872.4</ele>
        <time>2000-01-01T15:08:53.000Z</time>
      </trkpt>
      <trkpt lat="46.12627" lon="6.78872">
        <ele>1872.9</ele>
        <time>2000-01-01T15:09:03.000Z</time>
      </trkpt>
      <trkpt lat="46.12626" lon="6.78868">
        <ele>1873.5</ele>
        <time>2000-01-01T15:09:13.000Z</time>
      </trkpt>
      <trkpt lat="46.12624" lon="6.78866">
        <ele>1876</ele>
        <time>2000-01-01T15:09:23.000Z</time>
      </trkpt>
      <trkpt lat="46.12622" lon="6.78864">
        <ele>1872.7</ele>
        <time>2000-01-01T15:09:33.000Z</time>
      </trkpt>
      <trkpt lat="46.12619" lon="6.7886">
        <ele>1872.3</ele>
        <time>2000-01-01T15:09:43.000Z</time>
      </trkpt>
      <trkpt lat="46.12618" lon="6.78858">
        <ele>1872.5</ele>
        <time>2000-01-01T15:09:53.000Z</time>
      </trkpt>
      <trkpt lat="46.12617" lon="6.78854">
        <ele>1873.3</ele>
        <time>2000-01-01T15:10:03.000Z</time>
      </trkpt>
      <trkpt lat="46.12616" lon="6.78848">
        <ele>1874.8</ele>
        <time>2000-01-01T15:10:13.000Z</time>
      </trkpt>
      <trkpt lat="46.12615" lon="6.78845">
        <ele>1875.4</ele>
        <time>2000-01-01T15:10:23.000Z</time>
      </trkpt>
      <trkpt lat="46.12614" lon="6.78841">
        <ele>1877</ele>
        <time>2000-01-01T15:10:33.000Z</time>
      </trkpt>
      <trkpt lat="46.12613" lon="6.78836">
        <ele>1877.7</ele>
        <time>2000-01-01T15:10:43.000Z</time>
      </trkpt>
      <trkpt lat="46.12609" lon="6.78827">
        <ele>1877</ele>
        <time>2000-01-01T15:10:53.000Z</time>
      </trkpt>
      <trkpt lat="46.12608" lon="6.78825">
        <ele>1876.5</ele>
        <time>2000-01-01T15:11:03.000Z</time>
      </trkpt>
      <trkpt lat="46.12607" lon="6.78824">
        <ele>1876</ele>
        <time>2000-01-01T15:11:13.000Z</time>
      </trkpt>
      <trkpt lat="46.12606" lon="6.78823">
        <ele>1875.5</ele>
        <time>2000-01-01T15:11:23.000Z</time>
      </trkpt>
      <trkpt lat="46.12604" lon="6.78819">
        <ele>1874.8</ele>
        <time>2000-01-01T15:11:33.000Z</time>
      </trkpt>
      <trkpt lat="46.12604" lon="6.78818">
        <ele>1877</ele>
        <time>2000-01-01T15:11:43.000Z</time>
      </trkpt>
      <trkpt lat="46.12602" lon="6.78816">
        <ele>1874.2</ele>
        <time>2000-01-01T15:11:53.000Z</time>
      </trkpt>
      <trkpt lat="46.126" lon="6.78814">
        <ele>1873.4</ele>
        <time>2000-01-01T15:12:03.000Z</time>
      </trkpt>
      <trkpt lat="46.12599" lon="6.78812">
        <ele>1873.3</ele>
        <time>2000-01-01T15:12:13.000Z</time>
      </trkpt>
      <trkpt lat="46.12596" lon="6.78805">
        <ele>1873.1</ele>
        <time>2000-01-01T15:12:23.000Z</time>
      </trkpt>
      <trkpt lat="46.12593" lon="6.78796">
        <ele>1876</ele>
        <time>2000-01-01T15:12:33.000Z</time>
      </trkpt>
      <trkpt lat="46.12592" lon="6.7879">
        <ele>1873.7</ele>
        <time>2000-01-01T15:12:43.000Z</time>
      </trkpt>
      <trkpt lat="46.12591" lon="6.78788">
        <ele>1873.8</ele>
        <time>2000-01-01T15:12:53.000Z</time>
      </trkpt>
      <trkpt lat="46.1259" lon="6.78786">
        <ele>1873.9</ele>
        <time>2000-01-01T15:13:03.000Z</time>
      </trkpt>
      <trkpt lat="46.12589" lon="6.78785">
        <ele>1873.8</ele>
        <time>2000-01-01T15:13:13.000Z</time>
      </trkpt>
      <trkpt lat="46.12588" lon="6.78782">
        <ele>1874.1</ele>
        <time>2000-01-01T15:13:23.000Z</time>
      </trkpt>
      <trkpt lat="46.12587" lon="6.78781">
        <ele>1874.1</ele>
        <time>2000-01-01T15:13:33.000Z</time>
      </trkpt>
      <trkpt lat="46.12585" lon="6.78781">
        <ele>1873.6</ele>
        <time>2000-01-01T15:13:43.000Z</time>
      </trkpt>
      <trkpt lat="46.12584" lon="6.78778">
        <ele>1874.1</ele>
        <time>2000-01-01T15:13:53.000Z</time>
      </trkpt>
      <trkpt lat="46.12583" lon="6.78777">
        <ele>1873.8</ele>
        <time>2000-01-01T15:14:03.000Z</time>
      </trkpt>
      <trkpt lat="46.12582" lon="6.78773">
        <ele>1874</ele>
        <time>2000-01-01T15:14:13.000Z</time>
      </trkpt>
      <trkpt lat="46.12582" lon="6.78772">
        <ele>1873.3</ele>
        <time>2000-01-01T15:14:23.000Z</time>
      </trkpt>
      <trkpt lat="46.1258" lon="6.78771">
        <ele>1872.2</ele>
        <time>2000-01-01T15:14:33.000Z</time>
      </trkpt>
      <trkpt lat="46.1258" lon="6.7877">
        <ele>1872.2</ele>
        <time>2000-01-01T15:14:43.000Z</time>
      </trkpt>
      <trkpt lat="46.12578" lon="6.78764">
        <ele>1871.2</ele>
        <time>2000-01-01T15:14:53.000Z</time>
      </trkpt>
      <trkpt lat="46.12574" lon="6.78754">
        <ele>1869.2</ele>
        <time>2000-01-01T15:15:03.000Z</time>
      </trkpt>
      <trkpt lat="46.12572" lon="6.78752">
        <ele>1872</ele>
        <time>2000-01-01T15:15:13.000Z</time>
      </trkpt>
      <trkpt lat="46.12571" lon="6.78747">
        <ele>1867.9</ele>
        <time>2000-01-01T15:15:23.000Z</time>
      </trkpt>
      <trkpt lat="46.12569" lon="6.78746">
        <ele>1867</ele>
        <time>2000-01-01T15:15:33.000Z</time>
      </trkpt>
      <trkpt lat="46.12569" lon="6.78742">
        <ele>1867.2</ele>
        <time>2000-01-01T15:15:43.000Z</time>
      </trkpt>
      <trkpt lat="46.12569" lon="6.78739">
        <ele>1867.4</ele>
        <time>2000-01-01T15:15:53.000Z</time>
      </trkpt>
      <trkpt lat="46.12569" lon="6.78737">
        <ele>1867.5</ele>
        <time>2000-01-01T15:16:03.000Z</time>
      </trkpt>
      <trkpt lat="46.1257" lon="6.78735">
        <ele>1868.1</ele>
        <time>2000-01-01T15:16:13.000Z</time>
      </trkpt>
      <trkpt lat="46.12571" lon="6.78731">
        <ele>1868.7</ele>
        <time>2000-01-01T15:16:23.000Z</time>
      </trkpt>
      <trkpt lat="46.12572" lon="6.7873">
        <ele>1869.2</ele>
        <time>2000-01-01T15:16:33.000Z</time>
      </trkpt>
      <trkpt lat="46.12573" lon="6.78727">
        <ele>1870</ele>
        <time>2000-01-01T15:16:43.000Z</time>
      </trkpt>
      <trkpt lat="46.12571" lon="6.78714">
        <ele>1869.2</ele>
        <time>2000-01-01T15:16:53.000Z</time>
      </trkpt>
      <trkpt lat="46.12568" lon="6.78695">
        <ele>1865</ele>
        <time>2000-01-01T15:17:03.000Z</time>
      </trkpt>
      <trkpt lat="46.12567" lon="6.78693">
        <ele>1868</ele>
        <time>2000-01-01T15:17:13.000Z</time>
      </trkpt>
      <trkpt lat="46.12566" lon="6.78689">
        <ele>1867.2</ele>
        <time>2000-01-01T15:17:23.000Z</time>
      </trkpt>
      <trkpt lat="46.12566" lon="6.78687">
        <ele>1867.1</ele>
        <time>2000-01-01T15:17:33.000Z</time>
      </trkpt>
      <trkpt lat="46.12565" lon="6.78683">
        <ele>1866.3</ele>
        <time>2000-01-01T15:17:43.000Z</time>
      </trkpt>
      <trkpt lat="46.12565" lon="6.78677">
        <ele>1865.7</ele>
        <time>2000-01-01T15:17:53.000Z</time>
      </trkpt>
      <trkpt lat="46.12562" lon="6.78674">
        <ele>1864.3</ele>
        <time>2000-01-01T15:18:03.000Z</time>
      </trkpt>
      <trkpt lat="46.12558" lon="6.78672">
        <ele>1861</ele>
        <time>2000-01-01T15:18:13.000Z</time>
      </trkpt>
      <trkpt lat="46.12557" lon="6.78671">
        <ele>1862</ele>
        <time>2000-01-01T15:18:23.000Z</time>
      </trkpt>
      <trkpt lat="46.12556" lon="6.78669">
        <ele>1861.4</ele>
        <time>2000-01-01T15:18:33.000Z</time>
      </trkpt>
      <trkpt lat="46.12556" lon="6.78665">
        <ele>1860.8</ele>
        <time>2000-01-01T15:18:43.000Z</time>
      </trkpt>
      <trkpt lat="46.12554" lon="6.78662">
        <ele>1859.5</ele>
        <time>2000-01-01T15:18:53.000Z</time>
      </trkpt>
      <trkpt lat="46.12553" lon="6.78658">
        <ele>1858.3</ele>
        <time>2000-01-01T15:19:03.000Z</time>
      </trkpt>
      <trkpt lat="46.12553" lon="6.78649">
        <ele>1856.4</ele>
        <time>2000-01-01T15:19:13.000Z</time>
      </trkpt>
      <trkpt lat="46.12553" lon="6.78646">
        <ele>1857</ele>
        <time>2000-01-01T15:19:23.000Z</time>
      </trkpt>
      <trkpt lat="46.12554" lon="6.78644">
        <ele>1855.6</ele>
        <time>2000-01-01T15:19:33.000Z</time>
      </trkpt>
      <trkpt lat="46.12555" lon="6.78642">
        <ele>1855.5</ele>
        <time>2000-01-01T15:19:43.000Z</time>
      </trkpt>
      <trkpt lat="46.12557" lon="6.78641">
        <ele>1856.1</ele>
        <time>2000-01-01T15:19:53.000Z</time>
      </trkpt>
      <trkpt lat="46.12557" lon="6.7864">
        <ele>1855.9</ele>
        <time>2000-01-01T15:20:03.000Z</time>
      </trkpt>
      <trkpt lat="46.12558" lon="6.78635">
        <ele>1855.6</ele>
        <time>2000-01-01T15:20:13.000Z</time>
      </trkpt>
      <trkpt lat="46.12561" lon="6.78629">
        <ele>1856.1</ele>
        <time>2000-01-01T15:20:23.000Z</time>
      </trkpt>
      <trkpt lat="46.12566" lon="6.78623">
        <ele>1854</ele>
        <time>2000-01-01T15:20:33.000Z</time>
      </trkpt>
      <trkpt lat="46.12567" lon="6.7862">
        <ele>1857.1</ele>
        <time>2000-01-01T15:20:43.000Z</time>
      </trkpt>
      <trkpt lat="46.12568" lon="6.78615">
        <ele>1856.6</ele>
        <time>2000-01-01T15:20:53.000Z</time>
      </trkpt>
      <trkpt lat="46.12568" lon="6.78614">
        <ele>1856.5</ele>
        <time>2000-01-01T15:21:03.000Z</time>
      </trkpt>
      <trkpt lat="46.12569" lon="6.78613">
        <ele>1856.7</ele>
        <time>2000-01-01T15:21:13.000Z</time>
      </trkpt>
      <trkpt lat="46.1257" lon="6.7861">
        <ele>1856.6</ele>
        <time>2000-01-01T15:21:23.000Z</time>
      </trkpt>
      <trkpt lat="46.12571" lon="6.78608">
        <ele>1856.9</ele>
        <time>2000-01-01T15:21:33.000Z</time>
      </trkpt>
      <trkpt lat="46.12571" lon="6.78608">
        <ele>1856.9</ele>
        <time>2000-01-01T15:21:43.000Z</time>
      </trkpt>
      <trkpt lat="46.1257" lon="6.78606">
        <ele>1856.5</ele>
        <time>2000-01-01T15:21:53.000Z</time>
      </trkpt>
      <trkpt lat="46.12569" lon="6.78605">
        <ele>1856.1</ele>
        <time>2000-01-01T15:22:03.000Z</time>
      </trkpt>
      <trkpt lat="46.12567" lon="6.78605">
        <ele>1855.5</ele>
        <time>2000-01-01T15:22:13.000Z</time>
      </trkpt>
      <trkpt lat="46.12567" lon="6.78603">
        <ele>1855.4</ele>
        <time>2000-01-01T15:22:23.000Z</time>
      </trkpt>
      <trkpt lat="46.12566" lon="6.78599">
        <ele>1852</ele>
        <time>2000-01-01T15:22:33.000Z</time>
      </trkpt>
      <trkpt lat="46.12565" lon="6.78598">
        <ele>1854.6</ele>
        <time>2000-01-01T15:22:43.000Z</time>
      </trkpt>
      <trkpt lat="46.12564" lon="6.78597">
        <ele>1854.2</ele>
        <time>2000-01-01T15:22:53.000Z</time>
      </trkpt>
      <trkpt lat="46.12563" lon="6.78596">
        <ele>1853.9</ele>
        <time>2000-01-01T15:23:03.000Z</time>
      </trkpt>
      <trkpt lat="46.12562" lon="6.78595">
        <ele>1853.5</ele>
        <time>2000-01-01T15:23:13.000Z</time>
      </trkpt>
      <trkpt lat="46.12561" lon="6.78591">
        <ele>1853</ele>
        <time>2000-01-01T15:23:23.000Z</time>
      </trkpt>
      <trkpt lat="46.1256" lon="6.78589">
        <ele>1852.6</ele>
        <time>2000-01-01T15:23:33.000Z</time>
      </trkpt>
      <trkpt lat="46.1256" lon="6.78585">
        <ele>1852.5</ele>
        <time>2000-01-01T15:23:43.000Z</time>
      </trkpt>
      <trkpt lat="46.12561" lon="6.78573">
        <ele>1851</ele>
        <time>2000-01-01T15:23:53.000Z</time>
      </trkpt>
      <trkpt lat="46.1256" lon="6.78569">
        <ele>1852.2</ele>
        <time>2000-01-01T15:24:03.000Z</time>
      </trkpt>
      <trkpt lat="46.12559" lon="6.78564">
        <ele>1851.7</ele>
        <time>2000-01-01T15:24:13.000Z</time>
      </trkpt>
      <trkpt lat="46.12558" lon="6.7856">
        <ele>1851.2</ele>
        <time>2000-01-01T15:24:23.000Z</time>
      </trkpt>
      <trkpt lat="46.12556" lon="6.78555">
        <ele>1850.2</ele>
        <time>2000-01-01T15:24:33.000Z</time>
      </trkpt>
      <trkpt lat="46.12554" lon="6.78552">
        <ele>1849.7</ele>
        <time>2000-01-01T15:24:43.000Z</time>
      </trkpt>
      <trkpt lat="46.12552" lon="6.78547">
        <ele>1849</ele>
        <time>2000-01-01T15:24:53.000Z</time>
      </trkpt>
      <trkpt lat="46.12551" lon="6.78542">
        <ele>1849.3</ele>
        <time>2000-01-01T15:25:03.000Z</time>
      </trkpt>
      <trkpt lat="46.12551" lon="6.78537">
        <ele>1849.7</ele>
        <time>2000-01-01T15:25:13.000Z</time>
      </trkpt>
      <trkpt lat="46.1255" lon="6.78525">
        <ele>1850.2</ele>
        <time>2000-01-01T15:25:23.000Z</time>
      </trkpt>
      <trkpt lat="46.12549" lon="6.78519">
        <ele>1846</ele>
        <time>2000-01-01T15:25:33.000Z</time>
      </trkpt>
      <trkpt lat="46.12548" lon="6.78517">
        <ele>1850</ele>
        <time>2000-01-01T15:25:43.000Z</time>
      </trkpt>
      <trkpt lat="46.12546" lon="6.78513">
        <ele>1849.4</ele>
        <time>2000-01-01T15:25:53.000Z</time>
      </trkpt>
      <trkpt lat="46.12546" lon="6.78512">
        <ele>1849.5</ele>
        <time>2000-01-01T15:26:03.000Z</time>
      </trkpt>
      <trkpt lat="46.12545" lon="6.78508">
        <ele>1849.4</ele>
        <time>2000-01-01T15:26:13.000Z</time>
      </trkpt>
      <trkpt lat="46.12543" lon="6.78506">
        <ele>1848.7</ele>
        <time>2000-01-01T15:26:23.000Z</time>
      </trkpt>
      <trkpt lat="46.12541" lon="6.78504">
        <ele>1848</ele>
        <time>2000-01-01T15:26:33.000Z</time>
      </trkpt>
      <trkpt lat="46.12538" lon="6.78496">
        <ele>1845</ele>
        <time>2000-01-01T15:26:43.000Z</time>
      </trkpt>
      <trkpt lat="46.12536" lon="6.78485">
        <ele>1847.1</ele>
        <time>2000-01-01T15:26:53.000Z</time>
      </trkpt>
      <trkpt lat="46.12534" lon="6.78462">
        <ele>1845</ele>
        <time>2000-01-01T15:27:03.000Z</time>
      </trkpt>
      <trkpt lat="46.12534" lon="6.78443">
        <ele>1848</ele>
        <time>2000-01-01T15:27:13.000Z</time>
      </trkpt>
      <trkpt lat="46.12531" lon="6.78431">
        <ele>1844</ele>
        <time>2000-01-01T15:27:23.000Z</time>
      </trkpt>
      <trkpt lat="46.12531" lon="6.78414">
        <ele>1847.5</ele>
        <time>2000-01-01T15:27:33.000Z</time>
      </trkpt>
      <trkpt lat="46.1253" lon="6.78405">
        <ele>1847</ele>
        <time>2000-01-01T15:27:43.000Z</time>
      </trkpt>
      <trkpt lat="46.12529" lon="6.78397">
        <ele>1844</ele>
        <time>2000-01-01T15:27:53.000Z</time>
      </trkpt>
      <trkpt lat="46.12529" lon="6.78389">
        <ele>1846.5</ele>
        <time>2000-01-01T15:28:03.000Z</time>
      </trkpt>
      <trkpt lat="46.12528" lon="6.78383">
        <ele>1846.1</ele>
        <time>2000-01-01T15:28:13.000Z</time>
      </trkpt>
      <trkpt lat="46.12524" lon="6.78373">
        <ele>1844.4</ele>
        <time>2000-01-01T15:28:23.000Z</time>
      </trkpt>
      <trkpt lat="46.12521" lon="6.78362">
        <ele>1844</ele>
        <time>2000-01-01T15:28:33.000Z</time>
      </trkpt>
      <trkpt lat="46.12518" lon="6.78354">
        <ele>1841</ele>
        <time>2000-01-01T15:28:43.000Z</time>
      </trkpt>
      <trkpt lat="46.12517" lon="6.78352">
        <ele>1840.4</ele>
        <time>2000-01-01T15:28:53.000Z</time>
      </trkpt>
      <trkpt lat="46.12516" lon="6.7835">
        <ele>1839.8</ele>
        <time>2000-01-01T15:29:03.000Z</time>
      </trkpt>
      <trkpt lat="46.12515" lon="6.7835">
        <ele>1839.4</ele>
        <time>2000-01-01T15:29:13.000Z</time>
      </trkpt>
      <trkpt lat="46.12515" lon="6.78344">
        <ele>1838.9</ele>
        <time>2000-01-01T15:29:23.000Z</time>
      </trkpt>
      <trkpt lat="46.12512" lon="6.78343">
        <ele>1837.7</ele>
        <time>2000-01-01T15:29:33.000Z</time>
      </trkpt>
      <trkpt lat="46.12511" lon="6.78343">
        <ele>1837.3</ele>
        <time>2000-01-01T15:29:43.000Z</time>
      </trkpt>
      <trkpt lat="46.12512" lon="6.7834">
        <ele>1836</ele>
        <time>2000-01-01T15:29:53.000Z</time>
      </trkpt>
      <trkpt lat="46.12513" lon="6.78338">
        <ele>1837.6</ele>
        <time>2000-01-01T15:30:03.000Z</time>
      </trkpt>
      <trkpt lat="46.12514" lon="6.78338">
        <ele>1838</ele>
        <time>2000-01-01T15:30:13.000Z</time>
      </trkpt>
      <trkpt lat="46.12516" lon="6.78337">
        <ele>1838.5</ele>
        <time>2000-01-01T15:30:23.000Z</time>
      </trkpt>
      <trkpt lat="46.12516" lon="6.78336">
        <ele>1838.4</ele>
        <time>2000-01-01T15:30:33.000Z</time>
      </trkpt>
      <trkpt lat="46.12514" lon="6.78329">
        <ele>1837.1</ele>
        <time>2000-01-01T15:30:43.000Z</time>
      </trkpt>
      <trkpt lat="46.12511" lon="6.78319">
        <ele>1834.8</ele>
        <time>2000-01-01T15:30:53.000Z</time>
      </trkpt>
      <trkpt lat="46.1251" lon="6.78309">
        <ele>1826</ele>
        <time>2000-01-01T15:31:03.000Z</time>
      </trkpt>
      <trkpt lat="46.12509" lon="6.78305">
        <ele>1832.2</ele>
        <time>2000-01-01T15:31:13.000Z</time>
      </trkpt>
      <trkpt lat="46.12509" lon="6.783">
        <ele>1831.7</ele>
        <time>2000-01-01T15:31:23.000Z</time>
      </trkpt>
      <trkpt lat="46.12508" lon="6.78297">
        <ele>1831</ele>
        <time>2000-01-01T15:31:33.000Z</time>
      </trkpt>
      <trkpt lat="46.12507" lon="6.78291">
        <ele>1830</ele>
        <time>2000-01-01T15:31:43.000Z</time>
      </trkpt>
      <trkpt lat="46.12506" lon="6.78288">
        <ele>1829.2</ele>
        <time>2000-01-01T15:31:53.000Z</time>
      </trkpt>
      <trkpt lat="46.12505" lon="6.78286">
        <ele>1828.5</ele>
        <time>2000-01-01T15:32:03.000Z</time>
      </trkpt>
      <trkpt lat="46.12505" lon="6.78282">
        <ele>1825</ele>
        <time>2000-01-01T15:32:13.000Z</time>
      </trkpt>
      <trkpt lat="46.12504" lon="6.78278">
        <ele>1827.2</ele>
        <time>2000-01-01T15:32:23.000Z</time>
      </trkpt>
      <trkpt lat="46.12502" lon="6.78277">
        <ele>1826.2</ele>
        <time>2000-01-01T15:32:33.000Z</time>
      </trkpt>
      <trkpt lat="46.12501" lon="6.78275">
        <ele>1825.8</ele>
        <time>2000-01-01T15:32:43.000Z</time>
      </trkpt>
      <trkpt lat="46.125" lon="6.78267">
        <ele>1826.2</ele>
        <time>2000-01-01T15:32:53.000Z</time>
      </trkpt>
      <trkpt lat="46.125" lon="6.78264">
        <ele>1826.5</ele>
        <time>2000-01-01T15:33:03.000Z</time>
      </trkpt>
      <trkpt lat="46.12499" lon="6.78259">
        <ele>1826.6</ele>
        <time>2000-01-01T15:33:13.000Z</time>
      </trkpt>
      <trkpt lat="46.12496" lon="6.7825">
        <ele>1824</ele>
        <time>2000-01-01T15:33:23.000Z</time>
      </trkpt>
      <trkpt lat="46.12496" lon="6.78243">
        <ele>1826</ele>
        <time>2000-01-01T15:33:33.000Z</time>
      </trkpt>
      <trkpt lat="46.12495" lon="6.7823">
        <ele>1825.5</ele>
        <time>2000-01-01T15:33:43.000Z</time>
      </trkpt>
      <trkpt lat="46.12494" lon="6.78224">
        <ele>1825</ele>
        <time>2000-01-01T15:33:53.000Z</time>
      </trkpt>
      <trkpt lat="46.12494" lon="6.78211">
        <ele>1823</ele>
        <time>2000-01-01T15:34:03.000Z</time>
      </trkpt>
      <trkpt lat="46.12496" lon="6.78207">
        <ele>1824.7</ele>
        <time>2000-01-01T15:34:13.000Z</time>
      </trkpt>
      <trkpt lat="46.12496" lon="6.78201">
        <ele>1824.1</ele>
        <time>2000-01-01T15:34:23.000Z</time>
      </trkpt>
      <trkpt lat="46.12497" lon="6.78199">
        <ele>1824.3</ele>
        <time>2000-01-01T15:34:33.000Z</time>
      </trkpt>
      <trkpt lat="46.12497" lon="6.78197">
        <ele>1824.2</ele>
        <time>2000-01-01T15:34:43.000Z</time>
      </trkpt>
      <trkpt lat="46.12498" lon="6.78192">
        <ele>1824.2</ele>
        <time>2000-01-01T15:34:53.000Z</time>
      </trkpt>
      <trkpt lat="46.12495" lon="6.78189">
        <ele>1823</ele>
        <time>2000-01-01T15:35:03.000Z</time>
      </trkpt>
      <trkpt lat="46.12494" lon="6.78187">
        <ele>1821</ele>
        <time>2000-01-01T15:35:13.000Z</time>
      </trkpt>
      <trkpt lat="46.12493" lon="6.78184">
        <ele>1822.1</ele>
        <time>2000-01-01T15:35:23.000Z</time>
      </trkpt>
      <trkpt lat="46.12492" lon="6.78179">
        <ele>1821.6</ele>
        <time>2000-01-01T15:35:33.000Z</time>
      </trkpt>
      <trkpt lat="46.12491" lon="6.78176">
        <ele>1821.1</ele>
        <time>2000-01-01T15:35:43.000Z</time>
      </trkpt>
      <trkpt lat="46.1249" lon="6.78174">
        <ele>1820.7</ele>
        <time>2000-01-01T15:35:53.000Z</time>
      </trkpt>
      <trkpt lat="46.12488" lon="6.78171">
        <ele>1819.8</ele>
        <time>2000-01-01T15:36:03.000Z</time>
      </trkpt>
      <trkpt lat="46.12486" lon="6.78168">
        <ele>1819</ele>
        <time>2000-01-01T15:36:13.000Z</time>
      </trkpt>
      <trkpt lat="46.12485" lon="6.78166">
        <ele>1818.6</ele>
        <time>2000-01-01T15:36:23.000Z</time>
      </trkpt>
      <trkpt lat="46.12482" lon="6.78163">
        <ele>1814</ele>
        <time>2000-01-01T15:36:33.000Z</time>
      </trkpt>
      <trkpt lat="46.12479" lon="6.78158">
        <ele>1815.6</ele>
        <time>2000-01-01T15:36:43.000Z</time>
      </trkpt>
      <trkpt lat="46.12478" lon="6.78156">
        <ele>1814.9</ele>
        <time>2000-01-01T15:36:53.000Z</time>
      </trkpt>
      <trkpt lat="46.12478" lon="6.78153">
        <ele>1814.6</ele>
        <time>2000-01-01T15:37:03.000Z</time>
      </trkpt>
      <trkpt lat="46.12477" lon="6.78149">
        <ele>1813.7</ele>
        <time>2000-01-01T15:37:13.000Z</time>
      </trkpt>
      <trkpt lat="46.12477" lon="6.78141">
        <ele>1812.8</ele>
        <time>2000-01-01T15:37:23.000Z</time>
      </trkpt>
      <trkpt lat="46.12476" lon="6.78138">
        <ele>1812</ele>
        <time>2000-01-01T15:37:33.000Z</time>
      </trkpt>
      <trkpt lat="46.12474" lon="6.78137">
        <ele>1806</ele>
        <time>2000-01-01T15:37:43.000Z</time>
      </trkpt>
      <trkpt lat="46.12473" lon="6.78134">
        <ele>1809.9</ele>
        <time>2000-01-01T15:37:53.000Z</time>
      </trkpt>
      <trkpt lat="46.12472" lon="6.78131">
        <ele>1809.1</ele>
        <time>2000-01-01T15:38:03.000Z</time>
      </trkpt>
      <trkpt lat="46.12468" lon="6.78128">
        <ele>1807.6</ele>
        <time>2000-01-01T15:38:13.000Z</time>
      </trkpt>
      <trkpt lat="46.12464" lon="6.78121">
        <ele>1805.7</ele>
        <time>2000-01-01T15:38:23.000Z</time>
      </trkpt>
      <trkpt lat="46.12462" lon="6.78119">
        <ele>1804.9</ele>
        <time>2000-01-01T15:38:33.000Z</time>
      </trkpt>
      <trkpt lat="46.12457" lon="6.78118">
        <ele>1800</ele>
        <time>2000-01-01T15:38:43.000Z</time>
      </trkpt>
      <trkpt lat="46.12456" lon="6.78117">
        <ele>1803</ele>
        <time>2000-01-01T15:38:53.000Z</time>
      </trkpt>
      <trkpt lat="46.12455" lon="6.78115">
        <ele>1802.5</ele>
        <time>2000-01-01T15:39:03.000Z</time>
      </trkpt>
      <trkpt lat="46.12452" lon="6.78109">
        <ele>1801.1</ele>
        <time>2000-01-01T15:39:13.000Z</time>
      </trkpt>
      <trkpt lat="46.12449" lon="6.78103">
        <ele>1800</ele>
        <time>2000-01-01T15:39:23.000Z</time>
      </trkpt>
      <trkpt lat="46.12446" lon="6.78091">
        <ele>1797</ele>
        <time>2000-01-01T15:39:33.000Z</time>
      </trkpt>
      <trkpt lat="46.12445" lon="6.78087">
        <ele>1798.3</ele>
        <time>2000-01-01T15:39:43.000Z</time>
      </trkpt>
      <trkpt lat="46.12443" lon="6.78083">
        <ele>1797.4</ele>
        <time>2000-01-01T15:39:53.000Z</time>
      </trkpt>
      <trkpt lat="46.12443" lon="6.78076">
        <ele>1796.7</ele>
        <time>2000-01-01T15:40:03.000Z</time>
      </trkpt>
      <trkpt lat="46.12444" lon="6.7807">
        <ele>1796.4</ele>
        <time>2000-01-01T15:40:13.000Z</time>
      </trkpt>
      <trkpt lat="46.12448" lon="6.78062">
        <ele>1793</ele>
        <time>2000-01-01T15:40:23.000Z</time>
      </trkpt>
      <trkpt lat="46.12448" lon="6.78058">
        <ele>1796.5</ele>
        <time>2000-01-01T15:40:33.000Z</time>
      </trkpt>
      <trkpt lat="46.12446" lon="6.78056">
        <ele>1795.6</ele>
        <time>2000-01-01T15:40:43.000Z</time>
      </trkpt>
      <trkpt lat="46.12445" lon="6.78055">
        <ele>1795.2</ele>
        <time>2000-01-01T15:40:53.000Z</time>
      </trkpt>
      <trkpt lat="46.12444" lon="6.78053">
        <ele>1794.8</ele>
        <time>2000-01-01T15:41:03.000Z</time>
      </trkpt>
      <trkpt lat="46.12442" lon="6.78048">
        <ele>1793.8</ele>
        <time>2000-01-01T15:41:13.000Z</time>
      </trkpt>
      <trkpt lat="46.12441" lon="6.78045">
        <ele>1793.3</ele>
        <time>2000-01-01T15:41:23.000Z</time>
      </trkpt>
      <trkpt lat="46.1244" lon="6.7804">
        <ele>1792.6</ele>
        <time>2000-01-01T15:41:33.000Z</time>
      </trkpt>
      <trkpt lat="46.1244" lon="6.78039">
        <ele>1792.5</ele>
        <time>2000-01-01T15:41:43.000Z</time>
      </trkpt>
      <trkpt lat="46.12438" lon="6.78037">
        <ele>1788</ele>
        <time>2000-01-01T15:41:53.000Z</time>
      </trkpt>
      <trkpt lat="46.12433" lon="6.78032">
        <ele>1788.7</ele>
        <time>2000-01-01T15:42:03.000Z</time>
      </trkpt>
      <trkpt lat="46.12431" lon="6.7803">
        <ele>1787.5</ele>
        <time>2000-01-01T15:42:13.000Z</time>
      </trkpt>
      <trkpt lat="46.1243" lon="6.78028">
        <ele>1786.7</ele>
        <time>2000-01-01T15:42:23.000Z</time>
      </trkpt>
      <trkpt lat="46.12428" lon="6.78026">
        <ele>1785.6</ele>
        <time>2000-01-01T15:42:33.000Z</time>
      </trkpt>
      <trkpt lat="46.12426" lon="6.78022">
        <ele>1784.4</ele>
        <time>2000-01-01T15:42:43.000Z</time>
      </trkpt>
      <trkpt lat="46.12425" lon="6.78018">
        <ele>1779</ele>
        <time>2000-01-01T15:42:53.000Z</time>
      </trkpt>
      <trkpt lat="46.12426" lon="6.78015">
        <ele>1784.1</ele>
        <time>2000-01-01T15:43:03.000Z</time>
      </trkpt>
      <trkpt lat="46.12426" lon="6.78014">
        <ele>1784</ele>
        <time>2000-01-01T15:43:13.000Z</time>
      </trkpt>
      <trkpt lat="46.12425" lon="6.78012">
        <ele>1783.5</ele>
        <time>2000-01-01T15:43:23.000Z</time>
      </trkpt>
      <trkpt lat="46.12421" lon="6.78007">
        <ele>1781.3</ele>
        <time>2000-01-01T15:43:33.000Z</time>
      </trkpt>
      <trkpt lat="46.12416" lon="6.78002">
        <ele>1778.8</ele>
        <time>2000-01-01T15:43:43.000Z</time>
      </trkpt>
      <trkpt lat="46.12411" lon="6.77997">
        <ele>1776</ele>
        <time>2000-01-01T15:43:53.000Z</time>
      </trkpt>
      <trkpt lat="46.12406" lon="6.77991">
        <ele>1774.1</ele>
        <time>2000-01-01T15:44:03.000Z</time>
      </trkpt>
      <trkpt lat="46.124" lon="6.77986">
        <ele>1771.1</ele>
        <time>2000-01-01T15:44:13.000Z</time>
      </trkpt>
      <trkpt lat="46.12397" lon="6.77981">
        <ele>1769.5</ele>
        <time>2000-01-01T15:44:23.000Z</time>
      </trkpt>
      <trkpt lat="46.12395" lon="6.77978">
        <ele>1765</ele>
        <time>2000-01-01T15:44:33.000Z</time>
      </trkpt>
      <trkpt lat="46.12391" lon="6.77974">
        <ele>1766.2</ele>
        <time>2000-01-01T15:44:43.000Z</time>
      </trkpt>
      <trkpt lat="46.12383" lon="6.77966">
        <ele>1763.3</ele>
        <time>2000-01-01T15:44:53.000Z</time>
      </trkpt>
      <trkpt lat="46.12381" lon="6.77959">
        <ele>1762</ele>
        <time>2000-01-01T15:45:03.000Z</time>
      </trkpt>
      <trkpt lat="46.1238" lon="6.77946">
        <ele>1763.1</ele>
        <time>2000-01-01T15:45:13.000Z</time>
      </trkpt>
      <trkpt lat="46.12383" lon="6.77937">
        <ele>1764.1</ele>
        <time>2000-01-01T15:45:23.000Z</time>
      </trkpt>
      <trkpt lat="46.12386" lon="6.77933">
        <ele>1762</ele>
        <time>2000-01-01T15:45:33.000Z</time>
      </trkpt>
      <trkpt lat="46.12389" lon="6.7793">
        <ele>1766.1</ele>
        <time>2000-01-01T15:45:43.000Z</time>
      </trkpt>
      <trkpt lat="46.1239" lon="6.77927">
        <ele>1766.6</ele>
        <time>2000-01-01T15:45:53.000Z</time>
      </trkpt>
      <trkpt lat="46.1239" lon="6.77922">
        <ele>1766.6</ele>
        <time>2000-01-01T15:46:03.000Z</time>
      </trkpt>
      <trkpt lat="46.12388" lon="6.77918">
        <ele>1765.7</ele>
        <time>2000-01-01T15:46:13.000Z</time>
      </trkpt>
      <trkpt lat="46.12382" lon="6.77907">
        <ele>1758</ele>
        <time>2000-01-01T15:46:23.000Z</time>
      </trkpt>
      <trkpt lat="46.1238" lon="6.77903">
        <ele>1764.1</ele>
        <time>2000-01-01T15:46:33.000Z</time>
      </trkpt>
      <trkpt lat="46.12375" lon="6.77897">
        <ele>1762.6</ele>
        <time>2000-01-01T15:46:43.000Z</time>
      </trkpt>
      <trkpt lat="46.12373" lon="6.77894">
        <ele>1761.9</ele>
        <time>2000-01-01T15:46:53.000Z</time>
      </trkpt>
      <trkpt lat="46.12372" lon="6.77885">
        <ele>1761.8</ele>
        <time>2000-01-01T15:47:03.000Z</time>
      </trkpt>
      <trkpt lat="46.12367" lon="6.77863">
        <ele>1755</ele>
        <time>2000-01-01T15:47:13.000Z</time>
      </trkpt>
      <trkpt lat="46.12367" lon="6.77863">
        <ele>1759.9</ele>
        <time>2000-01-01T15:47:23.000Z</time>
      </trkpt>
      <trkpt lat="46.12366" lon="6.7786">
        <ele>1759.5</ele>
        <time>2000-01-01T15:47:33.000Z</time>
      </trkpt>
      <trkpt lat="46.12364" lon="6.77853">
        <ele>1758.5</ele>
        <time>2000-01-01T15:47:43.000Z</time>
      </trkpt>
      <trkpt lat="46.12361" lon="6.77851">
        <ele>1757</ele>
        <time>2000-01-01T15:47:53.000Z</time>
      </trkpt>
      <trkpt lat="46.12362" lon="6.77855">
        <ele>1757.5</ele>
        <time>2000-01-01T15:48:03.000Z</time>
      </trkpt>
      <trkpt lat="46.12361" lon="6.77862">
        <ele>1757</ele>
        <time>2000-01-01T15:48:13.000Z</time>
      </trkpt>
      <trkpt lat="46.1236" lon="6.77868">
        <ele>1752</ele>
        <time>2000-01-01T15:48:23.000Z</time>
      </trkpt>
      <trkpt lat="46.12354" lon="6.77882">
        <ele>1755.1</ele>
        <time>2000-01-01T15:48:33.000Z</time>
      </trkpt>
      <trkpt lat="46.12347" lon="6.77897">
        <ele>1752</ele>
        <time>2000-01-01T15:48:43.000Z</time>
      </trkpt>
      <trkpt lat="46.12341" lon="6.77906">
        <ele>1751.9</ele>
        <time>2000-01-01T15:48:53.000Z</time>
      </trkpt>
      <trkpt lat="46.12333" lon="6.77907">
        <ele>1749.9</ele>
        <time>2000-01-01T15:49:03.000Z</time>
      </trkpt>
      <trkpt lat="46.1233" lon="6.77914">
        <ele>1746</ele>
        <time>2000-01-01T15:49:13.000Z</time>
      </trkpt>
      <trkpt lat="46.12326" lon="6.77915">
        <ele>1748.9</ele>
        <time>2000-01-01T15:49:23.000Z</time>
      </trkpt>
      <trkpt lat="46.12321" lon="6.77915">
        <ele>1748.2</ele>
        <time>2000-01-01T15:49:33.000Z</time>
      </trkpt>
      <trkpt lat="46.12318" lon="6.77919">
        <ele>1747.8</ele>
        <time>2000-01-01T15:49:43.000Z</time>
      </trkpt>
      <trkpt lat="46.12315" lon="6.7793">
        <ele>1746</ele>
        <time>2000-01-01T15:49:53.000Z</time>
      </trkpt>
      <trkpt lat="46.12313" lon="6.77945">
        <ele>1747.1</ele>
        <time>2000-01-01T15:50:03.000Z</time>
      </trkpt>
      <trkpt lat="46.12304" lon="6.77953">
        <ele>1746</ele>
        <time>2000-01-01T15:50:13.000Z</time>
      </trkpt>
      <trkpt lat="46.12296" lon="6.7796">
        <ele>1747.3</ele>
        <time>2000-01-01T15:50:23.000Z</time>
      </trkpt>
      <trkpt lat="46.12293" lon="6.77963">
        <ele>1747.5</ele>
        <time>2000-01-01T15:50:33.000Z</time>
      </trkpt>
      <trkpt lat="46.12284" lon="6.77982">
        <ele>1747</ele>
        <time>2000-01-01T15:50:43.000Z</time>
      </trkpt>
      <trkpt lat="46.12277" lon="6.77978">
        <ele>1748.4</ele>
        <time>2000-01-01T15:50:53.000Z</time>
      </trkpt>
      <trkpt lat="46.12275" lon="6.77973">
        <ele>1748.6</ele>
        <time>2000-01-01T15:51:03.000Z</time>
      </trkpt>
      <trkpt lat="46.12272" lon="6.7797">
        <ele>1749.5</ele>
        <time>2000-01-01T15:51:13.000Z</time>
      </trkpt>
      <trkpt lat="46.1227" lon="6.77973">
        <ele>1749.8</ele>
        <time>2000-01-01T15:51:23.000Z</time>
      </trkpt>
      <trkpt lat="46.12268" lon="6.77974">
        <ele>1751</ele>
        <time>2000-01-01T15:51:33.000Z</time>
      </trkpt>
      <trkpt lat="46.12266" lon="6.77977">
        <ele>1751.2</ele>
        <time>2000-01-01T15:51:43.000Z</time>
      </trkpt>
      <trkpt lat="46.12263" lon="6.77979">
        <ele>1752.3</ele>
        <time>2000-01-01T15:51:53.000Z</time>
      </trkpt>
      <trkpt lat="46.12261" lon="6.77976">
        <ele>1752.3</ele>
        <time>2000-01-01T15:52:03.000Z</time>
      </trkpt>
      <trkpt lat="46.12258" lon="6.77972">
        <ele>1752.3</ele>
        <time>2000-01-01T15:52:13.000Z</time>
      </trkpt>
      <trkpt lat="46.12255" lon="6.77967">
        <ele>1753.4</ele>
        <time>2000-01-01T15:52:23.000Z</time>
      </trkpt>
      <trkpt lat="46.12252" lon="6.77964">
        <ele>1753</ele>
        <time>2000-01-01T15:52:33.000Z</time>
      </trkpt>
      <trkpt lat="46.12249" lon="6.7796">
        <ele>1755.4</ele>
        <time>2000-01-01T15:52:43.000Z</time>
      </trkpt>
      <trkpt lat="46.12246" lon="6.77957">
        <ele>1756.7</ele>
        <time>2000-01-01T15:52:53.000Z</time>
      </trkpt>
      <trkpt lat="46.12244" lon="6.77954">
        <ele>1757.3</ele>
        <time>2000-01-01T15:53:03.000Z</time>
      </trkpt>
      <trkpt lat="46.12243" lon="6.77949">
        <ele>1757.2</ele>
        <time>2000-01-01T15:53:13.000Z</time>
      </trkpt>
      <trkpt lat="46.12241" lon="6.77945">
        <ele>1757</ele>
        <time>2000-01-01T15:53:23.000Z</time>
      </trkpt>
      <trkpt lat="46.12239" lon="6.77943">
        <ele>1752</ele>
        <time>2000-01-01T15:53:33.000Z</time>
      </trkpt>
      <trkpt lat="46.12238" lon="6.7794">
        <ele>1757.2</ele>
        <time>2000-01-01T15:53:43.000Z</time>
      </trkpt>
      <trkpt lat="46.12237" lon="6.77938">
        <ele>1757.2</ele>
        <time>2000-01-01T15:53:53.000Z</time>
      </trkpt>
      <trkpt lat="46.12238" lon="6.77935">
        <ele>1757.2</ele>
        <time>2000-01-01T15:54:03.000Z</time>
      </trkpt>
      <trkpt lat="46.12237" lon="6.77932">
        <ele>1757.1</ele>
        <time>2000-01-01T15:54:13.000Z</time>
      </trkpt>
      <trkpt lat="46.12235" lon="6.77926">
        <ele>1756.7</ele>
        <time>2000-01-01T15:54:23.000Z</time>
      </trkpt>
      <trkpt lat="46.12233" lon="6.77923">
        <ele>1756.2</ele>
        <time>2000-01-01T15:54:33.000Z</time>
      </trkpt>
      <trkpt lat="46.12232" lon="6.77921">
        <ele>1755.9</ele>
        <time>2000-01-01T15:54:43.000Z</time>
      </trkpt>
      <trkpt lat="46.12231" lon="6.77918">
        <ele>1752</ele>
        <time>2000-01-01T15:54:53.000Z</time>
      </trkpt>
      <trkpt lat="46.1223" lon="6.77911">
        <ele>1754.6</ele>
        <time>2000-01-01T15:55:03.000Z</time>
      </trkpt>
      <trkpt lat="46.12229" lon="6.77907">
        <ele>1754.1</ele>
        <time>2000-01-01T15:55:13.000Z</time>
      </trkpt>
      <trkpt lat="46.12227" lon="6.77905">
        <ele>1753.4</ele>
        <time>2000-01-01T15:55:23.000Z</time>
      </trkpt>
      <trkpt lat="46.12226" lon="6.77901">
        <ele>1752.9</ele>
        <time>2000-01-01T15:55:33.000Z</time>
      </trkpt>
      <trkpt lat="46.12224" lon="6.77895">
        <ele>1751.9</ele>
        <time>2000-01-01T15:55:43.000Z</time>
      </trkpt>
      <trkpt lat="46.12223" lon="6.77892">
        <ele>1750</ele>
        <time>2000-01-01T15:55:53.000Z</time>
      </trkpt>
      <trkpt lat="46.12221" lon="6.77888">
        <ele>1751.5</ele>
        <time>2000-01-01T15:56:03.000Z</time>
      </trkpt>
      <trkpt lat="46.12219" lon="6.7788">
        <ele>1751.5</ele>
        <time>2000-01-01T15:56:13.000Z</time>
      </trkpt>
      <trkpt lat="46.12213" lon="6.77871">
        <ele>1752</ele>
        <time>2000-01-01T15:56:23.000Z</time>
      </trkpt>
      <trkpt lat="46.12212" lon="6.77868">
        <ele>1748</ele>
        <time>2000-01-01T15:56:33.000Z</time>
      </trkpt>
      <trkpt lat="46.12212" lon="6.77865">
        <ele>1751.2</ele>
        <time>2000-01-01T15:56:43.000Z</time>
      </trkpt>
      <trkpt lat="46.12211" lon="6.77861">
        <ele>1750.6</ele>
        <time>2000-01-01T15:56:53.000Z</time>
      </trkpt>
      <trkpt lat="46.12211" lon="6.77857">
        <ele>1750.1</ele>
        <time>2000-01-01T15:57:03.000Z</time>
      </trkpt>
      <trkpt lat="46.1221" lon="6.7785">
        <ele>1749.4</ele>
        <time>2000-01-01T15:57:13.000Z</time>
      </trkpt>
      <trkpt lat="46.12209" lon="6.77848">
        <ele>1749.1</ele>
        <time>2000-01-01T15:57:23.000Z</time>
      </trkpt>
      <trkpt lat="46.12209" lon="6.77846">
        <ele>1748.8</ele>
        <time>2000-01-01T15:57:33.000Z</time>
      </trkpt>
      <trkpt lat="46.12208" lon="6.77846">
        <ele>1748.8</ele>
        <time>2000-01-01T15:57:43.000Z</time>
      </trkpt>
      <trkpt lat="46.12206" lon="6.77843">
        <ele>1745</ele>
        <time>2000-01-01T15:57:53.000Z</time>
      </trkpt>
      <trkpt lat="46.12206" lon="6.77839">
        <ele>1747.6</ele>
        <time>2000-01-01T15:58:03.000Z</time>
      </trkpt>
      <trkpt lat="46.12205" lon="6.77836">
        <ele>1747</ele>
        <time>2000-01-01T15:58:13.000Z</time>
      </trkpt>
      <trkpt lat="46.12205" lon="6.77833">
        <ele>1746.5</ele>
        <time>2000-01-01T15:58:23.000Z</time>
      </trkpt>
      <trkpt lat="46.12203" lon="6.77828">
        <ele>1745.1</ele>
        <time>2000-01-01T15:58:33.000Z</time>
      </trkpt>
      <trkpt lat="46.12202" lon="6.77824">
        <ele>1744</ele>
        <time>2000-01-01T15:58:43.000Z</time>
      </trkpt>
      <trkpt lat="46.12201" lon="6.77822">
        <ele>1743.4</ele>
        <time>2000-01-01T15:58:53.000Z</time>
      </trkpt>
      <trkpt lat="46.12198" lon="6.77818">
        <ele>1738</ele>
        <time>2000-01-01T15:59:03.000Z</time>
      </trkpt>
      <trkpt lat="46.12198" lon="6.77813">
        <ele>1740.3</ele>
        <time>2000-01-01T15:59:13.000Z</time>
      </trkpt>
      <trkpt lat="46.12197" lon="6.77808">
        <ele>1738.7</ele>
        <time>2000-01-01T15:59:23.000Z</time>
      </trkpt>
      <trkpt lat="46.12196" lon="6.77802">
        <ele>1737</ele>
        <time>2000-01-01T15:59:33.000Z</time>
      </trkpt>
      <trkpt lat="46.12194" lon="6.77797">
        <ele>1735.6</ele>
        <time>2000-01-01T15:59:43.000Z</time>
      </trkpt>
      <trkpt lat="46.12188" lon="6.77786">
        <ele>1731</ele>
        <time>2000-01-01T15:59:53.000Z</time>
      </trkpt>
      <trkpt lat="46.12185" lon="6.77779">
        <ele>1733</ele>
        <time>2000-01-01T16:00:03.000Z</time>
      </trkpt>
      <trkpt lat="46.1218" lon="6.77772">
        <ele>1731.9</ele>
        <time>2000-01-01T16:00:13.000Z</time>
      </trkpt>
      <trkpt lat="46.12177" lon="6.77767">
        <ele>1730.9</ele>
        <time>2000-01-01T16:00:23.000Z</time>
      </trkpt>
      <trkpt lat="46.12175" lon="6.7776">
        <ele>1725</ele>
        <time>2000-01-01T16:00:33.000Z</time>
      </trkpt>
      <trkpt lat="46.12172" lon="6.77752">
        <ele>1727.1</ele>
        <time>2000-01-01T16:00:43.000Z</time>
      </trkpt>
      <trkpt lat="46.12171" lon="6.77746">
        <ele>1725.6</ele>
        <time>2000-01-01T16:00:53.000Z</time>
      </trkpt>
      <trkpt lat="46.1217" lon="6.77742">
        <ele>1724.5</ele>
        <time>2000-01-01T16:01:03.000Z</time>
      </trkpt>
      <trkpt lat="46.12168" lon="6.77732">
        <ele>1722</ele>
        <time>2000-01-01T16:01:13.000Z</time>
      </trkpt>
      <trkpt lat="46.12166" lon="6.77722">
        <ele>1719.2</ele>
        <time>2000-01-01T16:01:23.000Z</time>
      </trkpt>
      <trkpt lat="46.12165" lon="6.77717">
        <ele>1718.9</ele>
        <time>2000-01-01T16:01:33.000Z</time>
      </trkpt>
      <trkpt lat="46.12164" lon="6.77714">
        <ele>1718.8</ele>
        <time>2000-01-01T16:01:43.000Z</time>
      </trkpt>
      <trkpt lat="46.1216" lon="6.77707">
        <ele>1715</ele>
        <time>2000-01-01T16:01:53.000Z</time>
      </trkpt>
      <trkpt lat="46.12158" lon="6.77703">
        <ele>1718.3</ele>
        <time>2000-01-01T16:02:03.000Z</time>
      </trkpt>
      <trkpt lat="46.12153" lon="6.77693">
        <ele>1716.7</ele>
        <time>2000-01-01T16:02:13.000Z</time>
      </trkpt>
      <trkpt lat="46.12151" lon="6.77686">
        <ele>1715.2</ele>
        <time>2000-01-01T16:02:23.000Z</time>
      </trkpt>
      <trkpt lat="46.12149" lon="6.77684">
        <ele>1712</ele>
        <time>2000-01-01T16:02:33.000Z</time>
      </trkpt>
      <trkpt lat="46.12148" lon="6.7768">
        <ele>1713.7</ele>
        <time>2000-01-01T16:02:43.000Z</time>
      </trkpt>
      <trkpt lat="46.12143" lon="6.77672">
        <ele>1711.1</ele>
        <time>2000-01-01T16:02:53.000Z</time>
      </trkpt>
      <trkpt lat="46.12132" lon="6.77655">
        <ele>1704</ele>
        <time>2000-01-01T16:03:03.000Z</time>
      </trkpt>
      <trkpt lat="46.12129" lon="6.77648">
        <ele>1705.3</ele>
        <time>2000-01-01T16:03:13.000Z</time>
      </trkpt>
      <trkpt lat="46.12115" lon="6.77604">
        <ele>1691</ele>
        <time>2000-01-01T16:03:23.000Z</time>
      </trkpt>
      <trkpt lat="46.12103" lon="6.77559">
        <ele>1677</ele>
        <time>2000-01-01T16:03:33.000Z</time>
      </trkpt>
      <trkpt lat="46.121" lon="6.77551">
        <ele>1679.4</ele>
        <time>2000-01-01T16:03:43.000Z</time>
      </trkpt>
      <trkpt lat="46.121" lon="6.77538">
        <ele>1675.9</ele>
        <time>2000-01-01T16:03:53.000Z</time>
      </trkpt>
      <trkpt lat="46.12098" lon="6.77534">
        <ele>1671</ele>
        <time>2000-01-01T16:04:03.000Z</time>
      </trkpt>
      <trkpt lat="46.12097" lon="6.77521">
        <ele>1671.5</ele>
        <time>2000-01-01T16:04:13.000Z</time>
      </trkpt>
      <trkpt lat="46.12095" lon="6.77493">
        <ele>1664</ele>
        <time>2000-01-01T16:04:23.000Z</time>
      </trkpt>
      <trkpt lat="46.12093" lon="6.77487">
        <ele>1665.3</ele>
        <time>2000-01-01T16:04:33.000Z</time>
      </trkpt>
      <trkpt lat="46.12088" lon="6.77468">
        <ele>1659</ele>
        <time>2000-01-01T16:04:43.000Z</time>
      </trkpt>
      <trkpt lat="46.12081" lon="6.77453">
        <ele>1659.1</ele>
        <time>2000-01-01T16:04:53.000Z</time>
      </trkpt>
      <trkpt lat="46.12081" lon="6.77414">
        <ele>1654</ele>
        <time>2000-01-01T16:05:03.000Z</time>
      </trkpt>
      <trkpt lat="46.12079" lon="6.774">
        <ele>1653.2</ele>
        <time>2000-01-01T16:05:13.000Z</time>
      </trkpt>
      <trkpt lat="46.12077" lon="6.77397">
        <ele>1652.7</ele>
        <time>2000-01-01T16:05:23.000Z</time>
      </trkpt>
      <trkpt lat="46.12075" lon="6.77392">
        <ele>1652.1</ele>
        <time>2000-01-01T16:05:33.000Z</time>
      </trkpt>
      <trkpt lat="46.12074" lon="6.77379">
        <ele>1649</ele>
        <time>2000-01-01T16:05:43.000Z</time>
      </trkpt>
      <trkpt lat="46.12074" lon="6.77372">
        <ele>1649.2</ele>
        <time>2000-01-01T16:05:53.000Z</time>
      </trkpt>
      <trkpt lat="46.12068" lon="6.77367">
        <ele>1648.2</ele>
        <time>2000-01-01T16:06:03.000Z</time>
      </trkpt>
      <trkpt lat="46.12063" lon="6.77352">
        <ele>1646</ele>
        <time>2000-01-01T16:06:13.000Z</time>
      </trkpt>
      <trkpt lat="46.12061" lon="6.77333">
        <ele>1642.9</ele>
        <time>2000-01-01T16:06:23.000Z</time>
      </trkpt>
      <trkpt lat="46.1206" lon="6.77318">
        <ele>1636</ele>
        <time>2000-01-01T16:06:33.000Z</time>
      </trkpt>
      <trkpt lat="46.1205" lon="6.773">
        <ele>1635.2</ele>
        <time>2000-01-01T16:06:43.000Z</time>
      </trkpt>
      <trkpt lat="46.12048" lon="6.773">
        <ele>1634.7</ele>
        <time>2000-01-01T16:06:53.000Z</time>
      </trkpt>
      <trkpt lat="46.12046" lon="6.77297">
        <ele>1632</ele>
        <time>2000-01-01T16:07:03.000Z</time>
      </trkpt>
      <trkpt lat="46.12043" lon="6.77302">
        <ele>1633.8</ele>
        <time>2000-01-01T16:07:13.000Z</time>
      </trkpt>
      <trkpt lat="46.12041" lon="6.77299">
        <ele>1633</ele>
        <time>2000-01-01T16:07:23.000Z</time>
      </trkpt>
      <trkpt lat="46.12039" lon="6.77305">
        <ele>1633.4</ele>
        <time>2000-01-01T16:07:33.000Z</time>
      </trkpt>
      <trkpt lat="46.12037" lon="6.77307">
        <ele>1633.4</ele>
        <time>2000-01-01T16:07:43.000Z</time>
      </trkpt>
      <trkpt lat="46.12033" lon="6.77293">
        <ele>1628</ele>
        <time>2000-01-01T16:07:53.000Z</time>
      </trkpt>
      <trkpt lat="46.1203" lon="6.77272">
        <ele>1627.5</ele>
        <time>2000-01-01T16:08:03.000Z</time>
      </trkpt>
      <trkpt lat="46.12029" lon="6.77269">
        <ele>1627.3</ele>
        <time>2000-01-01T16:08:13.000Z</time>
      </trkpt>
      <trkpt lat="46.12027" lon="6.77261">
        <ele>1624</ele>
        <time>2000-01-01T16:08:23.000Z</time>
      </trkpt>
      <trkpt lat="46.12022" lon="6.77257">
        <ele>1625.2</ele>
        <time>2000-01-01T16:08:33.000Z</time>
      </trkpt>
      <trkpt lat="46.12019" lon="6.77248">
        <ele>1624.1</ele>
        <time>2000-01-01T16:08:43.000Z</time>
      </trkpt>
      <trkpt lat="46.12017" lon="6.77241">
        <ele>1623.2</ele>
        <time>2000-01-01T16:08:53.000Z</time>
      </trkpt>
      <trkpt lat="46.12016" lon="6.7724">
        <ele>1621</ele>
        <time>2000-01-01T16:09:03.000Z</time>
      </trkpt>
      <trkpt lat="46.12014" lon="6.77237">
        <ele>1622.1</ele>
        <time>2000-01-01T16:09:13.000Z</time>
      </trkpt>
      <trkpt lat="46.12001" lon="6.77221">
        <ele>1616</ele>
        <time>2000-01-01T16:09:23.000Z</time>
      </trkpt>
      <trkpt lat="46.11994" lon="6.7721">
        <ele>1613.9</ele>
        <time>2000-01-01T16:09:33.000Z</time>
      </trkpt>
      <trkpt lat="46.11983" lon="6.77204">
        <ele>1610</ele>
        <time>2000-01-01T16:09:43.000Z</time>
      </trkpt>
      <trkpt lat="46.11973" lon="6.77205">
        <ele>1608.7</ele>
        <time>2000-01-01T16:09:53.000Z</time>
      </trkpt>
      <trkpt lat="46.11975" lon="6.77201">
        <ele>1608.5</ele>
        <time>2000-01-01T16:10:03.000Z</time>
      </trkpt>
      <trkpt lat="46.11973" lon="6.77197">
        <ele>1607.5</ele>
        <time>2000-01-01T16:10:13.000Z</time>
      </trkpt>
      <trkpt lat="46.11974" lon="6.77193">
        <ele>1605</ele>
        <time>2000-01-01T16:10:23.000Z</time>
      </trkpt>
      <trkpt lat="46.11987" lon="6.77185">
        <ele>1608.5</ele>
        <time>2000-01-01T16:10:33.000Z</time>
      </trkpt>
      <trkpt lat="46.11978" lon="6.7718">
        <ele>1601</ele>
        <time>2000-01-01T16:10:43.000Z</time>
      </trkpt>
      <trkpt lat="46.11975" lon="6.77172">
        <ele>1602.9</ele>
        <time>2000-01-01T16:10:53.000Z</time>
      </trkpt>
      <trkpt lat="46.11973" lon="6.77172">
        <ele>1602.4</ele>
        <time>2000-01-01T16:11:03.000Z</time>
      </trkpt>
      <trkpt lat="46.11969" lon="6.7717">
        <ele>1601.2</ele>
        <time>2000-01-01T16:11:13.000Z</time>
      </trkpt>
      <trkpt lat="46.11966" lon="6.77164">
        <ele>1599.3</ele>
        <time>2000-01-01T16:11:23.000Z</time>
      </trkpt>
      <trkpt lat="46.11961" lon="6.77158">
        <ele>1594</ele>
        <time>2000-01-01T16:11:33.000Z</time>
      </trkpt>
      <trkpt lat="46.11955" lon="6.77161">
        <ele>1596.5</ele>
        <time>2000-01-01T16:11:43.000Z</time>
      </trkpt>
      <trkpt lat="46.11947" lon="6.77155">
        <ele>1593.2</ele>
        <time>2000-01-01T16:11:53.000Z</time>
      </trkpt>
      <trkpt lat="46.11946" lon="6.77146">
        <ele>1588</ele>
        <time>2000-01-01T16:12:03.000Z</time>
      </trkpt>
      <trkpt lat="46.11943" lon="6.77137">
        <ele>1588</ele>
        <time>2000-01-01T16:12:13.000Z</time>
      </trkpt>
      <trkpt lat="46.11936" lon="6.77135">
        <ele>1588.7</ele>
        <time>2000-01-01T16:12:23.000Z</time>
      </trkpt>
      <trkpt lat="46.11934" lon="6.7713">
        <ele>1588.2</ele>
        <time>2000-01-01T16:12:33.000Z</time>
      </trkpt>
      <trkpt lat="46.11931" lon="6.77129">
        <ele>1585</ele>
        <time>2000-01-01T16:12:43.000Z</time>
      </trkpt>
      <trkpt lat="46.11931" lon="6.77118">
        <ele>1586.6</ele>
        <time>2000-01-01T16:12:53.000Z</time>
      </trkpt>
      <trkpt lat="46.11929" lon="6.77114">
        <ele>1586</ele>
        <time>2000-01-01T16:13:03.000Z</time>
      </trkpt>
      <trkpt lat="46.11929" lon="6.77108">
        <ele>1585.1</ele>
        <time>2000-01-01T16:13:13.000Z</time>
      </trkpt>
      <trkpt lat="46.11934" lon="6.77102">
        <ele>1582</ele>
        <time>2000-01-01T16:13:23.000Z</time>
      </trkpt>
      <trkpt lat="46.11938" lon="6.77075">
        <ele>1579</ele>
        <time>2000-01-01T16:13:33.000Z</time>
      </trkpt>
      <trkpt lat="46.1194" lon="6.77051">
        <ele>1578.1</ele>
        <time>2000-01-01T16:13:43.000Z</time>
      </trkpt>
      <trkpt lat="46.11935" lon="6.77044">
        <ele>1574</ele>
        <time>2000-01-01T16:13:53.000Z</time>
      </trkpt>
      <trkpt lat="46.11928" lon="6.7703">
        <ele>1573.2</ele>
        <time>2000-01-01T16:14:03.000Z</time>
      </trkpt>
      <trkpt lat="46.11922" lon="6.77009">
        <ele>1565</ele>
        <time>2000-01-01T16:14:13.000Z</time>
      </trkpt>
      <trkpt lat="46.11924" lon="6.76992">
        <ele>1566.2</ele>
        <time>2000-01-01T16:14:23.000Z</time>
      </trkpt>
      <trkpt lat="46.11924" lon="6.76964">
        <ele>1561</ele>
        <time>2000-01-01T16:14:33.000Z</time>
      </trkpt>
      <trkpt lat="46.11915" lon="6.76936">
        <ele>1555</ele>
        <time>2000-01-01T16:14:43.000Z</time>
      </trkpt>
      <trkpt lat="46.11912" lon="6.76932">
        <ele>1557</ele>
        <time>2000-01-01T16:14:53.000Z</time>
      </trkpt>
      <trkpt lat="46.11909" lon="6.76919">
        <ele>1555.5</ele>
        <time>2000-01-01T16:15:03.000Z</time>
      </trkpt>
      <trkpt lat="46.11906" lon="6.7692">
        <ele>1554.1</ele>
        <time>2000-01-01T16:15:13.000Z</time>
      </trkpt>
      <trkpt lat="46.11905" lon="6.76919">
        <ele>1553.6</ele>
        <time>2000-01-01T16:15:23.000Z</time>
      </trkpt>
      <trkpt lat="46.11901" lon="6.7692">
        <ele>1550</ele>
        <time>2000-01-01T16:15:33.000Z</time>
      </trkpt>
      <trkpt lat="46.11897" lon="6.76923">
        <ele>1550.1</ele>
        <time>2000-01-01T16:15:43.000Z</time>
      </trkpt>
      <trkpt lat="46.11886" lon="6.76926">
        <ele>1545.9</ele>
        <time>2000-01-01T16:15:53.000Z</time>
      </trkpt>
      <trkpt lat="46.1188" lon="6.76926">
        <ele>1540</ele>
        <time>2000-01-01T16:16:03.000Z</time>
      </trkpt>
      <trkpt lat="46.11875" lon="6.76926">
        <ele>1543</ele>
        <time>2000-01-01T16:16:13.000Z</time>
      </trkpt>
      <trkpt lat="46.11872" lon="6.76923">
        <ele>1541.9</ele>
        <time>2000-01-01T16:16:23.000Z</time>
      </trkpt>
      <trkpt lat="46.1187" lon="6.76922">
        <ele>1541.2</ele>
        <time>2000-01-01T16:16:33.000Z</time>
      </trkpt>
      <trkpt lat="46.11869" lon="6.76921">
        <ele>1540.8</ele>
        <time>2000-01-01T16:16:43.000Z</time>
      </trkpt>
      <trkpt lat="46.11868" lon="6.7692">
        <ele>1540.4</ele>
        <time>2000-01-01T16:16:53.000Z</time>
      </trkpt>
      <trkpt lat="46.11857" lon="6.76919">
        <ele>1533</ele>
        <time>2000-01-01T16:17:03.000Z</time>
      </trkpt>
      <trkpt lat="46.11848" lon="6.76914">
        <ele>1535.1</ele>
        <time>2000-01-01T16:17:13.000Z</time>
      </trkpt>
      <trkpt lat="46.11841" lon="6.76912">
        <ele>1533.3</ele>
        <time>2000-01-01T16:17:23.000Z</time>
      </trkpt>
      <trkpt lat="46.1183" lon="6.76915">
        <ele>1530</ele>
        <time>2000-01-01T16:17:33.000Z</time>
      </trkpt>
      <trkpt lat="46.11823" lon="6.76909">
        <ele>1531.6</ele>
        <time>2000-01-01T16:17:43.000Z</time>
      </trkpt>
      <trkpt lat="46.11815" lon="6.76892">
        <ele>1525</ele>
        <time>2000-01-01T16:17:53.000Z</time>
      </trkpt>
      <trkpt lat="46.11808" lon="6.76881">
        <ele>1524</ele>
        <time>2000-01-01T16:18:03.000Z</time>
      </trkpt>
      <trkpt lat="46.11801" lon="6.76871">
        <ele>1522</ele>
        <time>2000-01-01T16:18:13.000Z</time>
      </trkpt>
      <trkpt lat="46.11785" lon="6.76854">
        <ele>1517</ele>
        <time>2000-01-01T16:18:23.000Z</time>
      </trkpt>
      <trkpt lat="46.11787" lon="6.76855">
        <ele>1519.2</ele>
        <time>2000-01-01T16:18:33.000Z</time>
      </trkpt>
      <trkpt lat="46.11787" lon="6.76852">
        <ele>1518.4</ele>
        <time>2000-01-01T16:18:43.000Z</time>
      </trkpt>
      <trkpt lat="46.11784" lon="6.76846">
        <ele>1516.8</ele>
        <time>2000-01-01T16:18:53.000Z</time>
      </trkpt>
      <trkpt lat="46.11781" lon="6.76837">
        <ele>1514.1</ele>
        <time>2000-01-01T16:19:03.000Z</time>
      </trkpt>
      <trkpt lat="46.11774" lon="6.76836">
        <ele>1512</ele>
        <time>2000-01-01T16:19:13.000Z</time>
      </trkpt>
      <trkpt lat="46.11774" lon="6.76834">
        <ele>1513.8</ele>
        <time>2000-01-01T16:19:23.000Z</time>
      </trkpt>
      <trkpt lat="46.11766" lon="6.76827">
        <ele>1512.9</ele>
        <time>2000-01-01T16:19:33.000Z</time>
      </trkpt>
      <trkpt lat="46.11775" lon="6.76823">
        <ele>1509</ele>
        <time>2000-01-01T16:19:43.000Z</time>
      </trkpt>
      <trkpt lat="46.11766" lon="6.76813">
        <ele>1509</ele>
        <time>2000-01-01T16:19:53.000Z</time>
      </trkpt>
      <trkpt lat="46.1176" lon="6.76805">
        <ele>1505</ele>
        <time>2000-01-01T16:20:03.000Z</time>
      </trkpt>
      <trkpt lat="46.11758" lon="6.76792">
        <ele>1504.3</ele>
        <time>2000-01-01T16:20:13.000Z</time>
      </trkpt>
      <trkpt lat="46.11755" lon="6.76779">
        <ele>1501.3</ele>
        <time>2000-01-01T16:20:23.000Z</time>
      </trkpt>
      <trkpt lat="46.11753" lon="6.76767">
        <ele>1497</ele>
        <time>2000-01-01T16:20:33.000Z</time>
      </trkpt>
      <trkpt lat="46.1175" lon="6.76761">
        <ele>1498</ele>
        <time>2000-01-01T16:20:43.000Z</time>
      </trkpt>
      <trkpt lat="46.11753" lon="6.76752">
        <ele>1496.4</ele>
        <time>2000-01-01T16:20:53.000Z</time>
      </trkpt>
      <trkpt lat="46.11754" lon="6.7674">
        <ele>1493</ele>
        <time>2000-01-01T16:21:03.000Z</time>
      </trkpt>
      <trkpt lat="46.11752" lon="6.76732">
        <ele>1492.9</ele>
        <time>2000-01-01T16:21:13.000Z</time>
      </trkpt>
      <trkpt lat="46.11755" lon="6.7672">
        <ele>1491.1</ele>
        <time>2000-01-01T16:21:23.000Z</time>
      </trkpt>
      <trkpt lat="46.11754" lon="6.76708">
        <ele>1488</ele>
        <time>2000-01-01T16:21:33.000Z</time>
      </trkpt>
      <trkpt lat="46.11756" lon="6.76705">
        <ele>1489.4</ele>
        <time>2000-01-01T16:21:43.000Z</time>
      </trkpt>
      <trkpt lat="46.11756" lon="6.76696">
        <ele>1488.3</ele>
        <time>2000-01-01T16:21:53.000Z</time>
      </trkpt>
      <trkpt lat="46.11757" lon="6.76673">
        <ele>1483</ele>
        <time>2000-01-01T16:22:03.000Z</time>
      </trkpt>
      <trkpt lat="46.11756" lon="6.76665">
        <ele>1484.3</ele>
        <time>2000-01-01T16:22:13.000Z</time>
      </trkpt>
      <trkpt lat="46.11757" lon="6.76655">
        <ele>1483.3</ele>
        <time>2000-01-01T16:22:23.000Z</time>
      </trkpt>
      <trkpt lat="46.11755" lon="6.76652">
        <ele>1482.3</ele>
        <time>2000-01-01T16:22:33.000Z</time>
      </trkpt>
      <trkpt lat="46.1175" lon="6.76647">
        <ele>1479</ele>
        <time>2000-01-01T16:22:43.000Z</time>
      </trkpt>
      <trkpt lat="46.11749" lon="6.76638">
        <ele>1478.6</ele>
        <time>2000-01-01T16:22:53.000Z</time>
      </trkpt>
      <trkpt lat="46.11753" lon="6.76625">
        <ele>1478.4</ele>
        <time>2000-01-01T16:23:03.000Z</time>
      </trkpt>
      <trkpt lat="46.11759" lon="6.76614">
        <ele>1475</ele>
        <time>2000-01-01T16:23:13.000Z</time>
      </trkpt>
      <trkpt lat="46.11762" lon="6.76606">
        <ele>1478.6</ele>
        <time>2000-01-01T16:23:23.000Z</time>
      </trkpt>
      <trkpt lat="46.1176" lon="6.76603">
        <ele>1477.7</ele>
        <time>2000-01-01T16:23:33.000Z</time>
      </trkpt>
      <trkpt lat="46.11762" lon="6.76598">
        <ele>1477.8</ele>
        <time>2000-01-01T16:23:43.000Z</time>
      </trkpt>
      <trkpt lat="46.1176" lon="6.76592">
        <ele>1476.7</ele>
        <time>2000-01-01T16:23:53.000Z</time>
      </trkpt>
      <trkpt lat="46.11759" lon="6.76589">
        <ele>1472</ele>
        <time>2000-01-01T16:24:03.000Z</time>
      </trkpt>
      <trkpt lat="46.11761" lon="6.76578">
        <ele>1475.9</ele>
        <time>2000-01-01T16:24:13.000Z</time>
      </trkpt>
      <trkpt lat="46.11754" lon="6.76567">
        <ele>1473.5</ele>
        <time>2000-01-01T16:24:23.000Z</time>
      </trkpt>
      <trkpt lat="46.11747" lon="6.76548">
        <ele>1468</ele>
        <time>2000-01-01T16:24:33.000Z</time>
      </trkpt>
      <trkpt lat="46.11743" lon="6.76534">
        <ele>1468.4</ele>
        <time>2000-01-01T16:24:43.000Z</time>
      </trkpt>
      <trkpt lat="46.1174" lon="6.76527">
        <ele>1467.1</ele>
        <time>2000-01-01T16:24:53.000Z</time>
      </trkpt>
      <trkpt lat="46.11736" lon="6.76516">
        <ele>1462</ele>
        <time>2000-01-01T16:25:03.000Z</time>
      </trkpt>
      <trkpt lat="46.11736" lon="6.7651">
        <ele>1464.7</ele>
        <time>2000-01-01T16:25:13.000Z</time>
      </trkpt>
      <trkpt lat="46.11739" lon="6.76505">
        <ele>1465.2</ele>
        <time>2000-01-01T16:25:23.000Z</time>
      </trkpt>
      <trkpt lat="46.11737" lon="6.76498">
        <ele>1464.1</ele>
        <time>2000-01-01T16:25:33.000Z</time>
      </trkpt>
      <trkpt lat="46.11731" lon="6.76492">
        <ele>1461</ele>
        <time>2000-01-01T16:25:43.000Z</time>
      </trkpt>
      <trkpt lat="46.11721" lon="6.76481">
        <ele>1458.9</ele>
        <time>2000-01-01T16:25:53.000Z</time>
      </trkpt>
      <trkpt lat="46.11717" lon="6.76472">
        <ele>1455</ele>
        <time>2000-01-01T16:26:03.000Z</time>
      </trkpt>
      <trkpt lat="46.11716" lon="6.76457">
        <ele>1456.6</ele>
        <time>2000-01-01T16:26:13.000Z</time>
      </trkpt>
      <trkpt lat="46.11717" lon="6.76445">
        <ele>1454</ele>
        <time>2000-01-01T16:26:23.000Z</time>
      </trkpt>
      <trkpt lat="46.11714" lon="6.76432">
        <ele>1454.9</ele>
        <time>2000-01-01T16:26:33.000Z</time>
      </trkpt>
      <trkpt lat="46.11706" lon="6.76406">
        <ele>1448</ele>
        <time>2000-01-01T16:26:43.000Z</time>
      </trkpt>
      <trkpt lat="46.11696" lon="6.76373">
        <ele>1442</ele>
        <time>2000-01-01T16:26:53.000Z</time>
      </trkpt>
      <trkpt lat="46.11683" lon="6.76331">
        <ele>1436</ele>
        <time>2000-01-01T16:27:03.000Z</time>
      </trkpt>
      <trkpt lat="46.1168" lon="6.76322">
        <ele>1434.4</ele>
        <time>2000-01-01T16:27:13.000Z</time>
      </trkpt>
      <trkpt lat="46.11674" lon="6.76296">
        <ele>1428</ele>
        <time>2000-01-01T16:27:23.000Z</time>
      </trkpt>
      <trkpt lat="46.1167" lon="6.76288">
        <ele>1428.6</ele>
        <time>2000-01-01T16:27:33.000Z</time>
      </trkpt>
      <trkpt lat="46.11664" lon="6.76286">
        <ele>1427.1</ele>
        <time>2000-01-01T16:27:43.000Z</time>
      </trkpt>
      <trkpt lat="46.11659" lon="6.76289">
        <ele>1425.8</ele>
        <time>2000-01-01T16:27:53.000Z</time>
      </trkpt>
      <trkpt lat="46.11657" lon="6.76292">
        <ele>1423</ele>
        <time>2000-01-01T16:28:03.000Z</time>
      </trkpt>
      <trkpt lat="46.11656" lon="6.76295">
        <ele>1425.3</ele>
        <time>2000-01-01T16:28:13.000Z</time>
      </trkpt>
      <trkpt lat="46.11655" lon="6.76298">
        <ele>1425.2</ele>
        <time>2000-01-01T16:28:23.000Z</time>
      </trkpt>
      <trkpt lat="46.11654" lon="6.76301">
        <ele>1425.1</ele>
        <time>2000-01-01T16:28:33.000Z</time>
      </trkpt>
      <trkpt lat="46.11653" lon="6.76303">
        <ele>1424.9</ele>
        <time>2000-01-01T16:28:43.000Z</time>
      </trkpt>
      <trkpt lat="46.11651" lon="6.76305">
        <ele>1424.3</ele>
        <time>2000-01-01T16:28:53.000Z</time>
      </trkpt>
      <trkpt lat="46.1165" lon="6.7631">
        <ele>1424.3</ele>
        <time>2000-01-01T16:29:03.000Z</time>
      </trkpt>
      <trkpt lat="46.11648" lon="6.76313">
        <ele>1423.8</ele>
        <time>2000-01-01T16:29:13.000Z</time>
      </trkpt>
      <trkpt lat="46.11647" lon="6.76316">
        <ele>1421</ele>
        <time>2000-01-01T16:29:23.000Z</time>
      </trkpt>
      <trkpt lat="46.11645" lon="6.76318">
        <ele>1423.1</ele>
        <time>2000-01-01T16:29:33.000Z</time>
      </trkpt>
      <trkpt lat="46.11644" lon="6.76323">
        <ele>1423.1</ele>
        <time>2000-01-01T16:29:43.000Z</time>
      </trkpt>
      <trkpt lat="46.11642" lon="6.76328">
        <ele>1422.7</ele>
        <time>2000-01-01T16:29:53.000Z</time>
      </trkpt>
      <trkpt lat="46.11641" lon="6.76331">
        <ele>1422.6</ele>
        <time>2000-01-01T16:30:03.000Z</time>
      </trkpt>
      <trkpt lat="46.1164" lon="6.76333">
        <ele>1422.4</ele>
        <time>2000-01-01T16:30:13.000Z</time>
      </trkpt>
      <trkpt lat="46.11639" lon="6.76335">
        <ele>1422.2</ele>
        <time>2000-01-01T16:30:23.000Z</time>
      </trkpt>
      <trkpt lat="46.11637" lon="6.76337">
        <ele>1421.9</ele>
        <time>2000-01-01T16:30:33.000Z</time>
      </trkpt>
      <trkpt lat="46.11634" lon="6.7634">
        <ele>1419</ele>
        <time>2000-01-01T16:30:43.000Z</time>
      </trkpt>
      <trkpt lat="46.11632" lon="6.76342">
        <ele>1421.3</ele>
        <time>2000-01-01T16:30:53.000Z</time>
      </trkpt>
      <trkpt lat="46.11631" lon="6.76344">
        <ele>1421.3</ele>
        <time>2000-01-01T16:31:03.000Z</time>
      </trkpt>
      <trkpt lat="46.1163" lon="6.76348">
        <ele>1421.5</ele>
        <time>2000-01-01T16:31:13.000Z</time>
      </trkpt>
      <trkpt lat="46.11628" lon="6.76354">
        <ele>1421.8</ele>
        <time>2000-01-01T16:31:23.000Z</time>
      </trkpt>
      <trkpt lat="46.11627" lon="6.76356">
        <ele>1421.8</ele>
        <time>2000-01-01T16:31:33.000Z</time>
      </trkpt>
      <trkpt lat="46.11625" lon="6.76358">
        <ele>1421.6</ele>
        <time>2000-01-01T16:31:43.000Z</time>
      </trkpt>
      <trkpt lat="46.11624" lon="6.76357">
        <ele>1421.3</ele>
        <time>2000-01-01T16:31:53.000Z</time>
      </trkpt>
      <trkpt lat="46.11623" lon="6.76354">
        <ele>1418</ele>
        <time>2000-01-01T16:32:03.000Z</time>
      </trkpt>
      <trkpt lat="46.11622" lon="6.76351">
        <ele>1420</ele>
        <time>2000-01-01T16:32:13.000Z</time>
      </trkpt>
      <trkpt lat="46.1162" lon="6.76344">
        <ele>1418.7</ele>
        <time>2000-01-01T16:32:23.000Z</time>
      </trkpt>
      <trkpt lat="46.11618" lon="6.76341">
        <ele>1417.8</ele>
        <time>2000-01-01T16:32:33.000Z</time>
      </trkpt>
      <trkpt lat="46.11616" lon="6.7634">
        <ele>1417.1</ele>
        <time>2000-01-01T16:32:43.000Z</time>
      </trkpt>
      <trkpt lat="46.11615" lon="6.76337">
        <ele>1416.5</ele>
        <time>2000-01-01T16:32:53.000Z</time>
      </trkpt>
      <trkpt lat="46.11614" lon="6.76334">
        <ele>1415.8</ele>
        <time>2000-01-01T16:33:03.000Z</time>
      </trkpt>
      <trkpt lat="46.11613" lon="6.76331">
        <ele>1415.2</ele>
        <time>2000-01-01T16:33:13.000Z</time>
      </trkpt>
      <trkpt lat="46.11611" lon="6.76329">
        <ele>1412</ele>
        <time>2000-01-01T16:33:23.000Z</time>
      </trkpt>
      <trkpt lat="46.1161" lon="6.76326">
        <ele>1413.9</ele>
        <time>2000-01-01T16:33:33.000Z</time>
      </trkpt>
      <trkpt lat="46.11609" lon="6.76318">
        <ele>1412.6</ele>
        <time>2000-01-01T16:33:43.000Z</time>
      </trkpt>
      <trkpt lat="46.11607" lon="6.76313">
        <ele>1411.6</ele>
        <time>2000-01-01T16:33:53.000Z</time>
      </trkpt>
      <trkpt lat="46.11607" lon="6.7631">
        <ele>1411.1</ele>
        <time>2000-01-01T16:34:03.000Z</time>
      </trkpt>
      <trkpt lat="46.11607" lon="6.76308">
        <ele>1410.8</ele>
        <time>2000-01-01T16:34:13.000Z</time>
      </trkpt>
      <trkpt lat="46.11606" lon="6.76308">
        <ele>1410.7</ele>
        <time>2000-01-01T16:34:23.000Z</time>
      </trkpt>
      <trkpt lat="46.11603" lon="6.76305">
        <ele>1407</ele>
        <time>2000-01-01T16:34:33.000Z</time>
      </trkpt>
      <trkpt lat="46.11602" lon="6.76303">
        <ele>1409.3</ele>
        <time>2000-01-01T16:34:43.000Z</time>
      </trkpt>
      <trkpt lat="46.11602" lon="6.763">
        <ele>1408.8</ele>
        <time>2000-01-01T16:34:53.000Z</time>
      </trkpt>
      <trkpt lat="46.11601" lon="6.76298">
        <ele>1408.3</ele>
        <time>2000-01-01T16:35:03.000Z</time>
      </trkpt>
      <trkpt lat="46.116" lon="6.76297">
        <ele>1408</ele>
        <time>2000-01-01T16:35:13.000Z</time>
      </trkpt>
      <trkpt lat="46.11598" lon="6.76296">
        <ele>1407.4</ele>
        <time>2000-01-01T16:35:23.000Z</time>
      </trkpt>
      <trkpt lat="46.11597" lon="6.76295">
        <ele>1407.1</ele>
        <time>2000-01-01T16:35:33.000Z</time>
      </trkpt>
      <trkpt lat="46.11595" lon="6.76292">
        <ele>1406.1</ele>
        <time>2000-01-01T16:35:43.000Z</time>
      </trkpt>
      <trkpt lat="46.11593" lon="6.76291">
        <ele>1405.5</ele>
        <time>2000-01-01T16:35:53.000Z</time>
      </trkpt>
      <trkpt lat="46.11591" lon="6.76289">
        <ele>1404.6</ele>
        <time>2000-01-01T16:36:03.000Z</time>
      </trkpt>
      <trkpt lat="46.11589" lon="6.76287">
        <ele>1400</ele>
        <time>2000-01-01T16:36:13.000Z</time>
      </trkpt>
      <trkpt lat="46.11587" lon="6.76282">
        <ele>1402</ele>
        <time>2000-01-01T16:36:23.000Z</time>
      </trkpt>
      <trkpt lat="46.11587" lon="6.76277">
        <ele>1400.9</ele>
        <time>2000-01-01T16:36:33.000Z</time>
      </trkpt>
      <trkpt lat="46.11585" lon="6.76271">
        <ele>1399.3</ele>
        <time>2000-01-01T16:36:43.000Z</time>
      </trkpt>
      <trkpt lat="46.11586" lon="6.76267">
        <ele>1398.9</ele>
        <time>2000-01-01T16:36:53.000Z</time>
      </trkpt>
      <trkpt lat="46.11588" lon="6.76264">
        <ele>1399</ele>
        <time>2000-01-01T16:37:03.000Z</time>
      </trkpt>
      <trkpt lat="46.11589" lon="6.76261">
        <ele>1396</ele>
        <time>2000-01-01T16:37:13.000Z</time>
      </trkpt>
      <trkpt lat="46.11588" lon="6.76258">
        <ele>1398</ele>
        <time>2000-01-01T16:37:23.000Z</time>
      </trkpt>
      <trkpt lat="46.11585" lon="6.76253">
        <ele>1396.1</ele>
        <time>2000-01-01T16:37:33.000Z</time>
      </trkpt>
      <trkpt lat="46.11586" lon="6.76248">
        <ele>1395.6</ele>
        <time>2000-01-01T16:37:43.000Z</time>
      </trkpt>
      <trkpt lat="46.11586" lon="6.76243">
        <ele>1394.7</ele>
        <time>2000-01-01T16:37:53.000Z</time>
      </trkpt>
      <trkpt lat="46.11584" lon="6.76241">
        <ele>1393.6</ele>
        <time>2000-01-01T16:38:03.000Z</time>
      </trkpt>
      <trkpt lat="46.11583" lon="6.76239">
        <ele>1393</ele>
        <time>2000-01-01T16:38:13.000Z</time>
      </trkpt>
      <trkpt lat="46.11583" lon="6.76238">
        <ele>1392.8</ele>
        <time>2000-01-01T16:38:23.000Z</time>
      </trkpt>
      <trkpt lat="46.11583" lon="6.76235">
        <ele>1390</ele>
        <time>2000-01-01T16:38:33.000Z</time>
      </trkpt>
      <trkpt lat="46.11582" lon="6.76231">
        <ele>1391.4</ele>
        <time>2000-01-01T16:38:43.000Z</time>
      </trkpt>
      <trkpt lat="46.11582" lon="6.76229">
        <ele>1391.1</ele>
        <time>2000-01-01T16:38:53.000Z</time>
      </trkpt>
      <trkpt lat="46.11584" lon="6.76227">
        <ele>1391.1</ele>
        <time>2000-01-01T16:39:03.000Z</time>
      </trkpt>
      <trkpt lat="46.11583" lon="6.76225">
        <ele>1390.5</ele>
        <time>2000-01-01T16:39:13.000Z</time>
      </trkpt>
      <trkpt lat="46.11583" lon="6.76222">
        <ele>1389.9</ele>
        <time>2000-01-01T16:39:23.000Z</time>
      </trkpt>
      <trkpt lat="46.11583" lon="6.76219">
        <ele>1389.4</ele>
        <time>2000-01-01T16:39:33.000Z</time>
      </trkpt>
      <trkpt lat="46.11583" lon="6.76215">
        <ele>1388.6</ele>
        <time>2000-01-01T16:39:43.000Z</time>
      </trkpt>
      <trkpt lat="46.11582" lon="6.76212">
        <ele>1387.9</ele>
        <time>2000-01-01T16:39:53.000Z</time>
      </trkpt>
      <trkpt lat="46.11581" lon="6.76212">
        <ele>1387.7</ele>
        <time>2000-01-01T16:40:03.000Z</time>
      </trkpt>
      <trkpt lat="46.11579" lon="6.76212">
        <ele>1382</ele>
        <time>2000-01-01T16:40:13.000Z</time>
      </trkpt>
      <trkpt lat="46.11579" lon="6.7621">
        <ele>1386.9</ele>
        <time>2000-01-01T16:40:23.000Z</time>
      </trkpt>
      <trkpt lat="46.11579" lon="6.76206">
        <ele>1386.1</ele>
        <time>2000-01-01T16:40:33.000Z</time>
      </trkpt>
      <trkpt lat="46.11578" lon="6.76203">
        <ele>1385.2</ele>
        <time>2000-01-01T16:40:43.000Z</time>
      </trkpt>
      <trkpt lat="46.11577" lon="6.76198">
        <ele>1383.9</ele>
        <time>2000-01-01T16:40:53.000Z</time>
      </trkpt>
      <trkpt lat="46.11578" lon="6.76195">
        <ele>1383.6</ele>
        <time>2000-01-01T16:41:03.000Z</time>
      </trkpt>
      <trkpt lat="46.11576" lon="6.76192">
        <ele>1382.5</ele>
        <time>2000-01-01T16:41:13.000Z</time>
      </trkpt>
      <trkpt lat="46.11574" lon="6.76191">
        <ele>1381.7</ele>
        <time>2000-01-01T16:41:23.000Z</time>
      </trkpt>
      <trkpt lat="46.11573" lon="6.76188">
        <ele>1380.9</ele>
        <time>2000-01-01T16:41:33.000Z</time>
      </trkpt>
      <trkpt lat="46.11573" lon="6.76186">
        <ele>1376</ele>
        <time>2000-01-01T16:41:43.000Z</time>
      </trkpt>
      <trkpt lat="46.11573" lon="6.76185">
        <ele>1380.4</ele>
        <time>2000-01-01T16:41:53.000Z</time>
      </trkpt>
      <trkpt lat="46.11571" lon="6.76184">
        <ele>1379.6</ele>
        <time>2000-01-01T16:42:03.000Z</time>
      </trkpt>
      <trkpt lat="46.11569" lon="6.7618">
        <ele>1378.3</ele>
        <time>2000-01-01T16:42:13.000Z</time>
      </trkpt>
      <trkpt lat="46.11566" lon="6.76173">
        <ele>1376</ele>
        <time>2000-01-01T16:42:23.000Z</time>
      </trkpt>
      <trkpt lat="46.11566" lon="6.76171">
        <ele>1375.6</ele>
        <time>2000-01-01T16:42:33.000Z</time>
      </trkpt>
      <trkpt lat="46.11564" lon="6.76167">
        <ele>1374.1</ele>
        <time>2000-01-01T16:42:43.000Z</time>
      </trkpt>
      <trkpt lat="46.11562" lon="6.76164">
        <ele>1370</ele>
        <time>2000-01-01T16:42:53.000Z</time>
      </trkpt>
      <trkpt lat="46.11559" lon="6.76161">
        <ele>1371.3</ele>
        <time>2000-01-01T16:43:03.000Z</time>
      </trkpt>
      <trkpt lat="46.11557" lon="6.76158">
        <ele>1370</ele>
        <time>2000-01-01T16:43:13.000Z</time>
      </trkpt>
      <trkpt lat="46.11553" lon="6.76153">
        <ele>1368.5</ele>
        <time>2000-01-01T16:43:23.000Z</time>
      </trkpt>
      <trkpt lat="46.1155" lon="6.76151">
        <ele>1368</ele>
        <time>2000-01-01T16:43:33.000Z</time>
      </trkpt>
      <trkpt lat="46.11547" lon="6.76146">
        <ele>1363</ele>
        <time>2000-01-01T16:43:43.000Z</time>
      </trkpt>
      <trkpt lat="46.11545" lon="6.7614">
        <ele>1365.5</ele>
        <time>2000-01-01T16:43:53.000Z</time>
      </trkpt>
      <trkpt lat="46.11543" lon="6.76132">
        <ele>1364.1</ele>
        <time>2000-01-01T16:44:03.000Z</time>
      </trkpt>
      <trkpt lat="46.11542" lon="6.7613">
        <ele>1363.8</ele>
        <time>2000-01-01T16:44:13.000Z</time>
      </trkpt>
      <trkpt lat="46.11542" lon="6.76125">
        <ele>1363</ele>
        <time>2000-01-01T16:44:23.000Z</time>
      </trkpt>
      <trkpt lat="46.11542" lon="6.76118">
        <ele>1359</ele>
        <time>2000-01-01T16:44:33.000Z</time>
      </trkpt>
      <trkpt lat="46.11542" lon="6.76116">
        <ele>1361.7</ele>
        <time>2000-01-01T16:44:43.000Z</time>
      </trkpt>
      <trkpt lat="46.11542" lon="6.76112">
        <ele>1361.2</ele>
        <time>2000-01-01T16:44:53.000Z</time>
      </trkpt>
      <trkpt lat="46.11541" lon="6.76083">
        <ele>1355</ele>
        <time>2000-01-01T16:45:03.000Z</time>
      </trkpt>
      <trkpt lat="46.11541" lon="6.76062">
        <ele>1355.1</ele>
        <time>2000-01-01T16:45:13.000Z</time>
      </trkpt>
      <trkpt lat="46.11533" lon="6.76018">
        <ele>1344</ele>
        <time>2000-01-01T16:45:23.000Z</time>
      </trkpt>
      <trkpt lat="46.11523" lon="6.75977">
        <ele>1335</ele>
        <time>2000-01-01T16:45:33.000Z</time>
      </trkpt>
      <trkpt lat="46.1151" lon="6.75933">
        <ele>1324</ele>
        <time>2000-01-01T16:45:43.000Z</time>
      </trkpt>
      <trkpt lat="46.11499" lon="6.75926">
        <ele>1322.7</ele>
        <time>2000-01-01T16:45:53.000Z</time>
      </trkpt>
      <trkpt lat="46.11494" lon="6.75924">
        <ele>1322.2</ele>
        <time>2000-01-01T16:46:03.000Z</time>
      </trkpt>
      <trkpt lat="46.11491" lon="6.75923">
        <ele>1319</ele>
        <time>2000-01-01T16:46:13.000Z</time>
      </trkpt>
      <trkpt lat="46.11489" lon="6.7592">
        <ele>1321.3</ele>
        <time>2000-01-01T16:46:23.000Z</time>
      </trkpt>
      <trkpt lat="46.11488" lon="6.75917">
        <ele>1320.6</ele>
        <time>2000-01-01T16:46:33.000Z</time>
      </trkpt>
      <trkpt lat="46.11488" lon="6.75911">
        <ele>1319.7</ele>
        <time>2000-01-01T16:46:43.000Z</time>
      </trkpt>
      <trkpt lat="46.11488" lon="6.75905">
        <ele>1318.7</ele>
        <time>2000-01-01T16:46:53.000Z</time>
      </trkpt>
      <trkpt lat="46.11487" lon="6.75894">
        <ele>1314</ele>
        <time>2000-01-01T16:47:03.000Z</time>
      </trkpt>
      <trkpt lat="46.11487" lon="6.75886">
        <ele>1315.5</ele>
        <time>2000-01-01T16:47:13.000Z</time>
      </trkpt>
      <trkpt lat="46.11484" lon="6.7588">
        <ele>1314.1</ele>
        <time>2000-01-01T16:47:23.000Z</time>
      </trkpt>
      <trkpt lat="46.11482" lon="6.75872">
        <ele>1312.3</ele>
        <time>2000-01-01T16:47:33.000Z</time>
      </trkpt>
      <trkpt lat="46.11478" lon="6.75859">
        <ele>1306</ele>
        <time>2000-01-01T16:47:43.000Z</time>
      </trkpt>
      <trkpt lat="46.11476" lon="6.75853">
        <ele>1307.7</ele>
        <time>2000-01-01T16:47:53.000Z</time>
      </trkpt>
      <trkpt lat="46.11473" lon="6.75848">
        <ele>1306.3</ele>
        <time>2000-01-01T16:48:03.000Z</time>
      </trkpt>
      <trkpt lat="46.11469" lon="6.75841">
        <ele>1304.8</ele>
        <time>2000-01-01T16:48:13.000Z</time>
      </trkpt>
      <trkpt lat="46.11465" lon="6.75833">
        <ele>1301</ele>
        <time>2000-01-01T16:48:23.000Z</time>
      </trkpt>
      <trkpt lat="46.11464" lon="6.75832">
        <ele>1303</ele>
        <time>2000-01-01T16:48:33.000Z</time>
      </trkpt>
      <trkpt lat="46.11464" lon="6.75832">
        <ele>1303</ele>
        <time>2000-01-01T16:48:43.000Z</time>
      </trkpt>
      <trkpt lat="46.1146" lon="6.75829">
        <ele>1302.3</ele>
        <time>2000-01-01T16:48:53.000Z</time>
      </trkpt>
      <trkpt lat="46.11458" lon="6.75826">
        <ele>1301.7</ele>
        <time>2000-01-01T16:49:03.000Z</time>
      </trkpt>
      <trkpt lat="46.11453" lon="6.75822">
        <ele>1300.8</ele>
        <time>2000-01-01T16:49:13.000Z</time>
      </trkpt>
      <trkpt lat="46.11451" lon="6.75816">
        <ele>1297</ele>
        <time>2000-01-01T16:49:23.000Z</time>
      </trkpt>
      <trkpt lat="46.11453" lon="6.75809">
        <ele>1297.6</ele>
        <time>2000-01-01T16:49:33.000Z</time>
      </trkpt>
      <trkpt lat="46.11452" lon="6.75798">
        <ele>1294.6</ele>
        <time>2000-01-01T16:49:43.000Z</time>
      </trkpt>
      <trkpt lat="46.11452" lon="6.75787">
        <ele>1289</ele>
        <time>2000-01-01T16:49:53.000Z</time>
      </trkpt>
      <trkpt lat="46.11452" lon="6.75777">
        <ele>1288.8</ele>
        <time>2000-01-01T16:50:03.000Z</time>
      </trkpt>
      <trkpt lat="46.11453" lon="6.75767">
        <ele>1285.9</ele>
        <time>2000-01-01T16:50:13.000Z</time>
      </trkpt>
      <trkpt lat="46.11453" lon="6.7576">
        <ele>1281</ele>
        <time>2000-01-01T16:50:23.000Z</time>
      </trkpt>
      <trkpt lat="46.11453" lon="6.75751">
        <ele>1281.3</ele>
        <time>2000-01-01T16:50:33.000Z</time>
      </trkpt>
      <trkpt lat="46.11451" lon="6.75745">
        <ele>1279.5</ele>
        <time>2000-01-01T16:50:43.000Z</time>
      </trkpt>
      <trkpt lat="46.11448" lon="6.75738">
        <ele>1277.5</ele>
        <time>2000-01-01T16:50:53.000Z</time>
      </trkpt>
      <trkpt lat="46.11443" lon="6.75731">
        <ele>1275</ele>
        <time>2000-01-01T16:51:03.000Z</time>
      </trkpt>
      <trkpt lat="46.11442" lon="6.75726">
        <ele>1274.4</ele>
        <time>2000-01-01T16:51:13.000Z</time>
      </trkpt>
      <trkpt lat="46.11443" lon="6.75719">
        <ele>1272.3</ele>
        <time>2000-01-01T16:51:23.000Z</time>
      </trkpt>
      <trkpt lat="46.11443" lon="6.75708">
        <ele>1269.1</ele>
        <time>2000-01-01T16:51:33.000Z</time>
      </trkpt>
      <trkpt lat="46.11444" lon="6.75698">
        <ele>1263</ele>
        <time>2000-01-01T16:51:43.000Z</time>
      </trkpt>
      <trkpt lat="46.11443" lon="6.75691">
        <ele>1264</ele>
        <time>2000-01-01T16:51:53.000Z</time>
      </trkpt>
      <trkpt lat="46.11439" lon="6.75679">
        <ele>1260.6</ele>
        <time>2000-01-01T16:52:03.000Z</time>
      </trkpt>
      <trkpt lat="46.11435" lon="6.75669">
        <ele>1255</ele>
        <time>2000-01-01T16:52:13.000Z</time>
      </trkpt>
      <trkpt lat="46.11432" lon="6.75652">
        <ele>1252.4</ele>
        <time>2000-01-01T16:52:23.000Z</time>
      </trkpt>
      <trkpt lat="46.1143" lon="6.75638">
        <ele>1244</ele>
        <time>2000-01-01T16:52:33.000Z</time>
      </trkpt>
      <trkpt lat="46.11427" lon="6.75631">
        <ele>1245.5</ele>
        <time>2000-01-01T16:52:43.000Z</time>
      </trkpt>
      <trkpt lat="46.11425" lon="6.75611">
        <ele>1238</ele>
        <time>2000-01-01T16:52:53.000Z</time>
      </trkpt>
      <trkpt lat="46.11413" lon="6.75612">
        <ele>1239.5</ele>
        <time>2000-01-01T16:53:03.000Z</time>
      </trkpt>
      <trkpt lat="46.11397" lon="6.75605">
        <ele>1236</ele>
        <time>2000-01-01T16:53:13.000Z</time>
      </trkpt>
      <trkpt lat="46.1139" lon="6.75603">
        <ele>1237.1</ele>
        <time>2000-01-01T16:53:23.000Z</time>
      </trkpt>
      <trkpt lat="46.11382" lon="6.75596">
        <ele>1235.4</ele>
        <time>2000-01-01T16:53:33.000Z</time>
      </trkpt>
      <trkpt lat="46.11369" lon="6.75586">
        <ele>1235</ele>
        <time>2000-01-01T16:53:43.000Z</time>
      </trkpt>
      <trkpt lat="46.11363" lon="6.75581">
        <ele>1232.1</ele>
        <time>2000-01-01T16:53:53.000Z</time>
      </trkpt>
      <trkpt lat="46.11349" lon="6.75572">
        <ele>1234</ele>
        <time>2000-01-01T16:54:03.000Z</time>
      </trkpt>
      <trkpt lat="46.11333" lon="6.7556">
        <ele>1233.5</ele>
        <time>2000-01-01T16:54:13.000Z</time>
      </trkpt>
      <trkpt lat="46.11326" lon="6.75553">
        <ele>1233</ele>
        <time>2000-01-01T16:54:23.000Z</time>
      </trkpt>
      <trkpt lat="46.1132" lon="6.75545">
        <ele>1231.9</ele>
        <time>2000-01-01T16:54:33.000Z</time>
      </trkpt>
      <trkpt lat="46.11314" lon="6.75539">
        <ele>1231.5</ele>
        <time>2000-01-01T16:54:43.000Z</time>
      </trkpt>
      <trkpt lat="46.11307" lon="6.75529">
        <ele>1228</ele>
        <time>2000-01-01T16:54:53.000Z</time>
      </trkpt>
      <trkpt lat="46.11298" lon="6.75522">
        <ele>1229.6</ele>
        <time>2000-01-01T16:55:03.000Z</time>
      </trkpt>
      <trkpt lat="46.11286" lon="6.7551">
        <ele>1226</ele>
        <time>2000-01-01T16:55:13.000Z</time>
      </trkpt>
      <trkpt lat="46.11281" lon="6.755">
        <ele>1224.3</ele>
        <time>2000-01-01T16:55:23.000Z</time>
      </trkpt>
      <trkpt lat="46.11275" lon="6.75492">
        <ele>1222.8</ele>
        <time>2000-01-01T16:55:33.000Z</time>
      </trkpt>
      <trkpt lat="46.11268" lon="6.75485">
        <ele>1228</ele>
        <time>2000-01-01T16:55:43.000Z</time>
      </trkpt>
      <trkpt lat="46.11268" lon="6.75485">
        <ele>1223.6</ele>
        <time>2000-01-01T16:55:53.000Z</time>
      </trkpt>
      <trkpt lat="46.11268" lon="6.75485">
        <ele>1223.6</ele>
        <time>2000-01-01T16:56:03.000Z</time>
      </trkpt>
      <trkpt lat="46.1126" lon="6.75481">
        <ele>1226.6</ele>
        <time>2000-01-01T16:56:13.000Z</time>
      </trkpt>
      <trkpt lat="46.11254" lon="6.75475">
        <ele>1227.7</ele>
        <time>2000-01-01T16:56:23.000Z</time>
      </trkpt>
      <trkpt lat="46.11244" lon="6.75466">
        <ele>1228</ele>
        <time>2000-01-01T16:56:33.000Z</time>
      </trkpt>
      <trkpt lat="46.11238" lon="6.75454">
        <ele>1228.3</ele>
        <time>2000-01-01T16:56:43.000Z</time>
      </trkpt>
      <trkpt lat="46.11228" lon="6.75435">
        <ele>1224</ele>
        <time>2000-01-01T16:56:53.000Z</time>
      </trkpt>
      <trkpt lat="46.11223" lon="6.75418">
        <ele>1224</ele>
        <time>2000-01-01T16:57:03.000Z</time>
      </trkpt>
      <trkpt lat="46.11217" lon="6.75395">
        <ele>1221</ele>
        <time>2000-01-01T16:57:13.000Z</time>
      </trkpt>
      <trkpt lat="46.11212" lon="6.75372">
        <ele>1213.7</ele>
        <time>2000-01-01T16:57:23.000Z</time>
      </trkpt>
      <trkpt lat="46.11208" lon="6.75349">
        <ele>1207</ele>
        <time>2000-01-01T16:57:33.000Z</time>
      </trkpt>
      <trkpt lat="46.11208" lon="6.75338">
        <ele>1203.7</ele>
        <time>2000-01-01T16:57:43.000Z</time>
      </trkpt>
      <trkpt lat="46.11213" lon="6.75338">
        <ele>1201.9</ele>
        <time>2000-01-01T16:57:53.000Z</time>
      </trkpt>
      <trkpt lat="46.11229" lon="6.75345">
        <ele>1199</ele>
        <time>2000-01-01T16:58:03.000Z</time>
      </trkpt>
      <trkpt lat="46.11242" lon="6.75354">
        <ele>1192.9</ele>
        <time>2000-01-01T16:58:13.000Z</time>
      </trkpt>
      <trkpt lat="46.1125" lon="6.75359">
        <ele>1186</ele>
        <time>2000-01-01T16:58:23.000Z</time>
      </trkpt>
      <trkpt lat="46.11266" lon="6.75362">
        <ele>1179.8</ele>
        <time>2000-01-01T16:58:33.000Z</time>
      </trkpt>
      <trkpt lat="46.11283" lon="6.75364">
        <ele>1169</ele>
        <time>2000-01-01T16:58:43.000Z</time>
      </trkpt>
      <trkpt lat="46.1129" lon="6.75367">
        <ele>1169.4</ele>
        <time>2000-01-01T16:58:53.000Z</time>
      </trkpt>
      <trkpt lat="46.11293" lon="6.75365">
        <ele>1168.1</ele>
        <time>2000-01-01T16:59:03.000Z</time>
      </trkpt>
      <trkpt lat="46.11293" lon="6.75357">
        <ele>1166.2</ele>
        <time>2000-01-01T16:59:13.000Z</time>
      </trkpt>
      <trkpt lat="46.11289" lon="6.75347">
        <ele>1166</ele>
        <time>2000-01-01T16:59:23.000Z</time>
      </trkpt>
      <trkpt lat="46.1128" lon="6.75318">
        <ele>1163</ele>
        <time>2000-01-01T16:59:33.000Z</time>
      </trkpt>
      <trkpt lat="46.11278" lon="6.75312">
        <ele>1163.1</ele>
        <time>2000-01-01T16:59:43.000Z</time>
      </trkpt>
      <trkpt lat="46.11276" lon="6.75303">
        <ele>1162.3</ele>
        <time>2000-01-01T16:59:53.000Z</time>
      </trkpt>
      <trkpt lat="46.11273" lon="6.75292">
        <ele>1161</ele>
        <time>2000-01-01T17:00:03.000Z</time>
      </trkpt>
      <trkpt lat="46.11268" lon="6.75276">
        <ele>1159.1</ele>
        <time>2000-01-01T17:00:13.000Z</time>
      </trkpt>
      <trkpt lat="46.11262" lon="6.75262">
        <ele>1156</ele>
        <time>2000-01-01T17:00:23.000Z</time>
      </trkpt>
      <trkpt lat="46.11258" lon="6.75245">
        <ele>1153.4</ele>
        <time>2000-01-01T17:00:33.000Z</time>
      </trkpt>
      <trkpt lat="46.1125" lon="6.75228">
        <ele>1146</ele>
        <time>2000-01-01T17:00:43.000Z</time>
      </trkpt>
      <trkpt lat="46.11244" lon="6.75218">
        <ele>1147.2</ele>
        <time>2000-01-01T17:00:53.000Z</time>
      </trkpt>
      <trkpt lat="46.11238" lon="6.75203">
        <ele>1144</ele>
        <time>2000-01-01T17:01:03.000Z</time>
      </trkpt>
      <trkpt lat="46.11233" lon="6.75193">
        <ele>1141.6</ele>
        <time>2000-01-01T17:01:13.000Z</time>
      </trkpt>
      <trkpt lat="46.11222" lon="6.75176">
        <ele>1136</ele>
        <time>2000-01-01T17:01:23.000Z</time>
      </trkpt>
      <trkpt lat="46.11212" lon="6.75162">
        <ele>1136.3</ele>
        <time>2000-01-01T17:01:33.000Z</time>
      </trkpt>
      <trkpt lat="46.11203" lon="6.75145">
        <ele>1132</ele>
        <time>2000-01-01T17:01:43.000Z</time>
      </trkpt>
      <trkpt lat="46.11198" lon="6.75128">
        <ele>1129.6</ele>
        <time>2000-01-01T17:01:53.000Z</time>
      </trkpt>
      <trkpt lat="46.11191" lon="6.75112">
        <ele>1126</ele>
        <time>2000-01-01T17:02:03.000Z</time>
      </trkpt>
      <trkpt lat="46.11174" lon="6.75092">
        <ele>1125</ele>
        <time>2000-01-01T17:02:13.000Z</time>
      </trkpt>
      <trkpt lat="46.1115" lon="6.75066">
        <ele>1123</ele>
        <time>2000-01-01T17:02:23.000Z</time>
      </trkpt>
      <trkpt lat="46.1112" lon="6.75046">
        <ele>1123</ele>
        <time>2000-01-01T17:02:33.000Z</time>
      </trkpt>
      <trkpt lat="46.11099" lon="6.75031">
        <ele>1134</ele>
        <time>2000-01-01T17:02:43.000Z</time>
      </trkpt>
      <trkpt lat="46.11076" lon="6.75026">
        <ele>1139</ele>
        <time>2000-01-01T17:02:53.000Z</time>
      </trkpt>
      <trkpt lat="46.11059" lon="6.75017">
        <ele>1143</ele>
        <time>2000-01-01T17:03:03.000Z</time>
      </trkpt>
      <trkpt lat="46.11045" lon="6.75004">
        <ele>1145</ele>
        <time>2000-01-01T17:03:13.000Z</time>
      </trkpt>
      <trkpt lat="46.11031" lon="6.74987">
        <ele>1144.4</ele>
        <time>2000-01-01T17:03:23.000Z</time>
      </trkpt>
      <trkpt lat="46.11013" lon="6.74973">
        <ele>1146</ele>
        <time>2000-01-01T17:03:33.000Z</time>
      </trkpt>
      <trkpt lat="46.10971" lon="6.74949">
        <ele>1148</ele>
        <time>2000-01-01T17:03:43.000Z</time>
      </trkpt>
      <trkpt lat="46.10941" lon="6.74931">
        <ele>1153</ele>
        <time>2000-01-01T17:03:53.000Z</time>
      </trkpt>
      <trkpt lat="46.10919" lon="6.74928">
        <ele>1155</ele>
        <time>2000-01-01T17:04:03.000Z</time>
      </trkpt>
      <trkpt lat="46.10897" lon="6.74924">
        <ele>1158</ele>
        <time>2000-01-01T17:04:13.000Z</time>
      </trkpt>
      <trkpt lat="46.10875" lon="6.74913">
        <ele>1154</ele>
        <time>2000-01-01T17:04:23.000Z</time>
      </trkpt>
      <trkpt lat="46.10875" lon="6.74913">
        <ele>1159.2</ele>
        <time>2000-01-01T17:04:33.000Z</time>
      </trkpt>
      <trkpt lat="46.10875" lon="6.74913">
        <ele>1159.2</ele>
        <time>2000-01-01T17:04:43.000Z</time>
      </trkpt>
      <trkpt lat="46.10841" lon="6.74891">
        <ele>1151</ele>
        <time>2000-01-01T17:04:53.000Z</time>
      </trkpt>
      <trkpt lat="46.10817" lon="6.74877">
        <ele>1147</ele>
        <time>2000-01-01T17:05:03.000Z</time>
      </trkpt>
      <trkpt lat="46.10803" lon="6.74878">
        <ele>1150.9</ele>
        <time>2000-01-01T17:05:13.000Z</time>
      </trkpt>
      <trkpt lat="46.10781" lon="6.74876">
        <ele>1147</ele>
        <time>2000-01-01T17:05:23.000Z</time>
      </trkpt>
      <trkpt lat="46.10763" lon="6.74874">
        <ele>1148.6</ele>
        <time>2000-01-01T17:05:33.000Z</time>
      </trkpt>
      <trkpt lat="46.10747" lon="6.74875">
        <ele>1146</ele>
        <time>2000-01-01T17:05:43.000Z</time>
      </trkpt>
      <trkpt lat="46.10731" lon="6.74869">
        <ele>1145.4</ele>
        <time>2000-01-01T17:05:53.000Z</time>
      </trkpt>
      <trkpt lat="46.10717" lon="6.74857">
        <ele>1133</ele>
        <time>2000-01-01T17:06:03.000Z</time>
      </trkpt>
      <trkpt lat="46.10701" lon="6.74839">
        <ele>1126</ele>
        <time>2000-01-01T17:06:13.000Z</time>
      </trkpt>
      <trkpt lat="46.10672" lon="6.74813">
        <ele>1126</ele>
        <time>2000-01-01T17:06:23.000Z</time>
      </trkpt>
      <trkpt lat="46.1065" lon="6.74796">
        <ele>1118</ele>
        <time>2000-01-01T17:06:33.000Z</time>
      </trkpt>
      <trkpt lat="46.10624" lon="6.74776">
        <ele>1108</ele>
        <time>2000-01-01T17:06:43.000Z</time>
      </trkpt>
      <trkpt lat="46.10596" lon="6.74749">
        <ele>1090</ele>
        <time>2000-01-01T17:06:53.000Z</time>
      </trkpt>
      <trkpt lat="46.106" lon="6.74736">
        <ele>1090.5</ele>
        <time>2000-01-01T17:07:03.000Z</time>
      </trkpt>
      <trkpt lat="46.10607" lon="6.74727">
        <ele>1083</ele>
        <time>2000-01-01T17:07:13.000Z</time>
      </trkpt>
      <trkpt lat="46.10618" lon="6.74722">
        <ele>1086.4</ele>
        <time>2000-01-01T17:07:23.000Z</time>
      </trkpt>
      <trkpt lat="46.10625" lon="6.74718">
        <ele>1079</ele>
        <time>2000-01-01T17:07:33.000Z</time>
      </trkpt>
      <trkpt lat="46.10628" lon="6.74709">
        <ele>1079.6</ele>
        <time>2000-01-01T17:07:43.000Z</time>
      </trkpt>
      <trkpt lat="46.10628" lon="6.747">
        <ele>1074.4</ele>
        <time>2000-01-01T17:07:53.000Z</time>
      </trkpt>
      <trkpt lat="46.10625" lon="6.7469">
        <ele>1069</ele>
        <time>2000-01-01T17:08:03.000Z</time>
      </trkpt>
      <trkpt lat="46.10621" lon="6.74683">
        <ele>1065.5</ele>
        <time>2000-01-01T17:08:13.000Z</time>
      </trkpt>
      <trkpt lat="46.10619" lon="6.74676">
        <ele>1062.2</ele>
        <time>2000-01-01T17:08:23.000Z</time>
      </trkpt>
      <trkpt lat="46.10623" lon="6.74673">
        <ele>1060.9</ele>
        <time>2000-01-01T17:08:33.000Z</time>
      </trkpt>
      <trkpt lat="46.10629" lon="6.74676">
        <ele>1059</ele>
        <time>2000-01-01T17:08:43.000Z</time>
      </trkpt>
      <trkpt lat="46.10633" lon="6.7467">
        <ele>1059.6</ele>
        <time>2000-01-01T17:08:53.000Z</time>
      </trkpt>
      <trkpt lat="46.10634" lon="6.74663">
        <ele>1056.7</ele>
        <time>2000-01-01T17:09:03.000Z</time>
      </trkpt>
      <trkpt lat="46.10632" lon="6.74656">
        <ele>1054.2</ele>
        <time>2000-01-01T17:09:13.000Z</time>
      </trkpt>
      <trkpt lat="46.10627" lon="6.74645">
        <ele>1048</ele>
        <time>2000-01-01T17:09:23.000Z</time>
      </trkpt>
      <trkpt lat="46.10622" lon="6.74636">
        <ele>1047.1</ele>
        <time>2000-01-01T17:09:33.000Z</time>
      </trkpt>
      <trkpt lat="46.10619" lon="6.74625">
        <ele>1043.9</ele>
        <time>2000-01-01T17:09:43.000Z</time>
      </trkpt>
      <trkpt lat="46.1062" lon="6.74615">
        <ele>1039</ele>
        <time>2000-01-01T17:09:53.000Z</time>
      </trkpt>
      <trkpt lat="46.10619" lon="6.74605">
        <ele>1038</ele>
        <time>2000-01-01T17:10:03.000Z</time>
      </trkpt>
      <trkpt lat="46.10618" lon="6.74597">
        <ele>1035.7</ele>
        <time>2000-01-01T17:10:13.000Z</time>
      </trkpt>
      <trkpt lat="46.10614" lon="6.74589">
        <ele>1031</ele>
        <time>2000-01-01T17:10:23.000Z</time>
      </trkpt>
      <trkpt lat="46.10611" lon="6.74581">
        <ele>1031.4</ele>
        <time>2000-01-01T17:10:33.000Z</time>
      </trkpt>
      <trkpt lat="46.1061" lon="6.74572">
        <ele>1029.2</ele>
        <time>2000-01-01T17:10:43.000Z</time>
      </trkpt>
      <trkpt lat="46.10614" lon="6.74567">
        <ele>1027.8</ele>
        <time>2000-01-01T17:10:53.000Z</time>
      </trkpt>
      <trkpt lat="46.10622" lon="6.74568">
        <ele>1029</ele>
        <time>2000-01-01T17:11:03.000Z</time>
      </trkpt>
      <trkpt lat="46.10631" lon="6.7457">
        <ele>1028.3</ele>
        <time>2000-01-01T17:11:13.000Z</time>
      </trkpt>
      <trkpt lat="46.1064" lon="6.74577">
        <ele>1029</ele>
        <time>2000-01-01T17:11:23.000Z</time>
      </trkpt>
      <trkpt lat="46.1065" lon="6.74582">
        <ele>1030.3</ele>
        <time>2000-01-01T17:11:33.000Z</time>
      </trkpt>
      <trkpt lat="46.10659" lon="6.74585">
        <ele>1029</ele>
        <time>2000-01-01T17:11:43.000Z</time>
      </trkpt>
      <trkpt lat="46.1067" lon="6.74588">
        <ele>1031.3</ele>
        <time>2000-01-01T17:11:53.000Z</time>
      </trkpt>
      <trkpt lat="46.10686" lon="6.74589">
        <ele>1029</ele>
        <time>2000-01-01T17:12:03.000Z</time>
      </trkpt>
      <trkpt lat="46.10697" lon="6.74585">
        <ele>1030.3</ele>
        <time>2000-01-01T17:12:13.000Z</time>
      </trkpt>
      <trkpt lat="46.10704" lon="6.74581">
        <ele>1028</ele>
        <time>2000-01-01T17:12:23.000Z</time>
      </trkpt>
      <trkpt lat="46.1071" lon="6.74575">
        <ele>1027.3</ele>
        <time>2000-01-01T17:12:33.000Z</time>
      </trkpt>
      <trkpt lat="46.10719" lon="6.74557">
        <ele>1021</ele>
        <time>2000-01-01T17:12:43.000Z</time>
      </trkpt>
      <trkpt lat="46.1072" lon="6.74546">
        <ele>1020</ele>
        <time>2000-01-01T17:12:53.000Z</time>
      </trkpt>
      <trkpt lat="46.10722" lon="6.74534">
        <ele>1017.4</ele>
        <time>2000-01-01T17:13:03.000Z</time>
      </trkpt>
      <trkpt lat="46.1073" lon="6.74526">
        <ele>1014</ele>
        <time>2000-01-01T17:13:13.000Z</time>
      </trkpt>
      <trkpt lat="46.10735" lon="6.74513">
        <ele>1013.1</ele>
        <time>2000-01-01T17:13:23.000Z</time>
      </trkpt>
      <trkpt lat="46.10735" lon="6.74499">
        <ele>1008</ele>
        <time>2000-01-01T17:13:33.000Z</time>
      </trkpt>
      <trkpt lat="46.10731" lon="6.74487">
        <ele>1008</ele>
        <time>2000-01-01T17:13:43.000Z</time>
      </trkpt>
      <trkpt lat="46.10726" lon="6.7447">
        <ele>1007</ele>
        <time>2000-01-01T17:13:53.000Z</time>
      </trkpt>
      <trkpt lat="46.10711" lon="6.74476">
        <ele>1006.6</ele>
        <time>2000-01-01T17:14:03.000Z</time>
      </trkpt>
      <trkpt lat="46.10699" lon="6.74478">
        <ele>1007</ele>
        <time>2000-01-01T17:14:13.000Z</time>
      </trkpt>
      <trkpt lat="46.1069" lon="6.74476">
        <ele>1008.1</ele>
        <time>2000-01-01T17:14:23.000Z</time>
      </trkpt>
      <trkpt lat="46.10676" lon="6.74471">
        <ele>1007</ele>
        <time>2000-01-01T17:14:33.000Z</time>
      </trkpt>
      <trkpt lat="46.10666" lon="6.74468">
        <ele>1008</ele>
        <time>2000-01-01T17:14:43.000Z</time>
      </trkpt>
      <trkpt lat="46.10657" lon="6.7447">
        <ele>1007</ele>
        <time>2000-01-01T17:14:53.000Z</time>
      </trkpt>
      <trkpt lat="46.10651" lon="6.74472">
        <ele>1010.1</ele>
        <time>2000-01-01T17:15:03.000Z</time>
      </trkpt>
      <trkpt lat="46.10631" lon="6.7448">
        <ele>1009</ele>
        <time>2000-01-01T17:15:13.000Z</time>
      </trkpt>
      <trkpt lat="46.10617" lon="6.74486">
        <ele>1013.5</ele>
        <time>2000-01-01T17:15:23.000Z</time>
      </trkpt>
      <trkpt lat="46.10601" lon="6.74496">
        <ele>1014</ele>
        <time>2000-01-01T17:15:33.000Z</time>
      </trkpt>
      <trkpt lat="46.10584" lon="6.7451">
        <ele>1015</ele>
        <time>2000-01-01T17:15:43.000Z</time>
      </trkpt>
      <trkpt lat="46.10565" lon="6.74525">
        <ele>1018</ele>
        <time>2000-01-01T17:15:53.000Z</time>
      </trkpt>
      <trkpt lat="46.10552" lon="6.74533">
        <ele>1021</ele>
        <time>2000-01-01T17:16:03.000Z</time>
      </trkpt>
      <trkpt lat="46.10544" lon="6.74536">
        <ele>1018</ele>
        <time>2000-01-01T17:16:13.000Z</time>
      </trkpt>
      <trkpt lat="46.10531" lon="6.74539">
        <ele>1021.9</ele>
        <time>2000-01-01T17:16:23.000Z</time>
      </trkpt>
      <trkpt lat="46.10525" lon="6.74539">
        <ele>1018</ele>
        <time>2000-01-01T17:16:33.000Z</time>
      </trkpt>
      <trkpt lat="46.10508" lon="6.74539">
        <ele>1020.8</ele>
        <time>2000-01-01T17:16:43.000Z</time>
      </trkpt>
      <trkpt lat="46.10498" lon="6.74538">
        <ele>1018</ele>
        <time>2000-01-01T17:16:53.000Z</time>
      </trkpt>
      <trkpt lat="46.1049" lon="6.74541">
        <ele>1019.4</ele>
        <time>2000-01-01T17:17:03.000Z</time>
      </trkpt>
      <trkpt lat="46.10486" lon="6.74544">
        <ele>1019.4</ele>
        <time>2000-01-01T17:17:13.000Z</time>
      </trkpt>
      <trkpt lat="46.10483" lon="6.7455">
        <ele>1020</ele>
        <time>2000-01-01T17:17:23.000Z</time>
      </trkpt>
      <trkpt lat="46.10481" lon="6.74559">
        <ele>1019</ele>
        <time>2000-01-01T17:17:33.000Z</time>
      </trkpt>
      <trkpt lat="46.10482" lon="6.74568">
        <ele>1022.6</ele>
        <time>2000-01-01T17:17:43.000Z</time>
      </trkpt>
      <trkpt lat="46.10484" lon="6.74573">
        <ele>1023.6</ele>
        <time>2000-01-01T17:17:53.000Z</time>
      </trkpt>
      <trkpt lat="46.10486" lon="6.74576">
        <ele>1024.4</ele>
        <time>2000-01-01T17:18:03.000Z</time>
      </trkpt>
      <trkpt lat="46.10491" lon="6.74583">
        <ele>1026</ele>
        <time>2000-01-01T17:18:13.000Z</time>
      </trkpt>
      <trkpt lat="46.10496" lon="6.74589">
        <ele>1027.9</ele>
        <time>2000-01-01T17:18:23.000Z</time>
      </trkpt>
      <trkpt lat="46.105" lon="6.74596">
        <ele>1029.4</ele>
        <time>2000-01-01T17:18:33.000Z</time>
      </trkpt>
      <trkpt lat="46.105" lon="6.74609">
        <ele>1030</ele>
        <time>2000-01-01T17:18:43.000Z</time>
      </trkpt>
      <trkpt lat="46.105" lon="6.74617">
        <ele>1031.6</ele>
        <time>2000-01-01T17:18:53.000Z</time>
      </trkpt>
      <trkpt lat="46.10495" lon="6.7464">
        <ele>1032</ele>
        <time>2000-01-01T17:19:03.000Z</time>
      </trkpt>
      <trkpt lat="46.10473" lon="6.74678">
        <ele>1032</ele>
        <time>2000-01-01T17:19:13.000Z</time>
      </trkpt>
      <trkpt lat="46.10469" lon="6.74685">
        <ele>1033.9</ele>
        <time>2000-01-01T17:19:23.000Z</time>
      </trkpt>
      <trkpt lat="46.10462" lon="6.74698">
        <ele>1032.8</ele>
        <time>2000-01-01T17:19:33.000Z</time>
      </trkpt>
      <trkpt lat="46.10457" lon="6.74707">
        <ele>1031</ele>
        <time>2000-01-01T17:19:43.000Z</time>
      </trkpt>
      <trkpt lat="46.10456" lon="6.74709">
        <ele>1031.3</ele>
        <time>2000-01-01T17:19:53.000Z</time>
      </trkpt>
      <trkpt lat="46.10454" lon="6.74712">
        <ele>1030.6</ele>
        <time>2000-01-01T17:20:03.000Z</time>
      </trkpt>
      <trkpt lat="46.10454" lon="6.74724">
        <ele>1032.1</ele>
        <time>2000-01-01T17:20:13.000Z</time>
      </trkpt>
      <trkpt lat="46.10455" lon="6.74731">
        <ele>1033.6</ele>
        <time>2000-01-01T17:20:23.000Z</time>
      </trkpt>
      <trkpt lat="46.10456" lon="6.74741">
        <ele>1031</ele>
        <time>2000-01-01T17:20:33.000Z</time>
      </trkpt>
      <trkpt lat="46.10455" lon="6.74759">
        <ele>1036.8</ele>
        <time>2000-01-01T17:20:43.000Z</time>
      </trkpt>
      <trkpt lat="46.10457" lon="6.74769">
        <ele>1032</ele>
        <time>2000-01-01T17:20:53.000Z</time>
      </trkpt>
      <trkpt lat="46.10458" lon="6.74778">
        <ele>1040.3</ele>
        <time>2000-01-01T17:21:03.000Z</time>
      </trkpt>
      <trkpt lat="46.10454" lon="6.74799">
        <ele>1029</ele>
        <time>2000-01-01T17:21:13.000Z</time>
      </trkpt>
      <trkpt lat="46.10446" lon="6.74839">
        <ele>1027</ele>
        <time>2000-01-01T17:21:23.000Z</time>
      </trkpt>
      <trkpt lat="46.10443" lon="6.7486">
        <ele>1029.6</ele>
        <time>2000-01-01T17:21:33.000Z</time>
      </trkpt>
      <trkpt lat="46.10442" lon="6.74884">
        <ele>1027</ele>
        <time>2000-01-01T17:21:43.000Z</time>
      </trkpt>
      <trkpt lat="46.10442" lon="6.74897">
        <ele>1029</ele>
        <time>2000-01-01T17:21:53.000Z</time>
      </trkpt>
      <trkpt lat="46.10441" lon="6.74902">
        <ele>1028.1</ele>
        <time>2000-01-01T17:22:03.000Z</time>
      </trkpt>
      <trkpt lat="46.10437" lon="6.74908">
        <ele>1024.4</ele>
        <time>2000-01-01T17:22:13.000Z</time>
      </trkpt>
      <trkpt lat="46.10434" lon="6.74915">
        <ele>1019</ele>
        <time>2000-01-01T17:22:23.000Z</time>
      </trkpt>
      <trkpt lat="46.10431" lon="6.74923">
        <ele>1018.6</ele>
        <time>2000-01-01T17:22:33.000Z</time>
      </trkpt>
      <trkpt lat="46.10431" lon="6.74928">
        <ele>1018.7</ele>
        <time>2000-01-01T17:22:43.000Z</time>
      </trkpt>
      <trkpt lat="46.10433" lon="6.74934">
        <ele>1020.9</ele>
        <time>2000-01-01T17:22:53.000Z</time>
      </trkpt>
      <trkpt lat="46.10436" lon="6.74938">
        <ele>1024.3</ele>
        <time>2000-01-01T17:23:03.000Z</time>
      </trkpt>
      <trkpt lat="46.10437" lon="6.7494">
        <ele>1019</ele>
        <time>2000-01-01T17:23:13.000Z</time>
      </trkpt>
      <trkpt lat="46.10437" lon="6.74941">
        <ele>1025.5</ele>
        <time>2000-01-01T17:23:23.000Z</time>
      </trkpt>
      <trkpt lat="46.10437" lon="6.74947">
        <ele>1025.8</ele>
        <time>2000-01-01T17:23:33.000Z</time>
      </trkpt>
      <trkpt lat="46.10434" lon="6.74956">
        <ele>1022.8</ele>
        <time>2000-01-01T17:23:43.000Z</time>
      </trkpt>
      <trkpt lat="46.10433" lon="6.74962">
        <ele>1021.8</ele>
        <time>2000-01-01T17:23:53.000Z</time>
      </trkpt>
      <trkpt lat="46.10432" lon="6.7497">
        <ele>1020</ele>
        <time>2000-01-01T17:24:03.000Z</time>
      </trkpt>
      <trkpt lat="46.10431" lon="6.74979">
        <ele>1019.7</ele>
        <time>2000-01-01T17:24:13.000Z</time>
      </trkpt>
      <trkpt lat="46.10431" lon="6.74984">
        <ele>1019.8</ele>
        <time>2000-01-01T17:24:23.000Z</time>
      </trkpt>
      <trkpt lat="46.10432" lon="6.7499">
        <ele>1021.3</ele>
        <time>2000-01-01T17:24:33.000Z</time>
      </trkpt>
      <trkpt lat="46.10434" lon="6.74996">
        <ele>1020</ele>
        <time>2000-01-01T17:24:43.000Z</time>
      </trkpt>
      <trkpt lat="46.10435" lon="6.74999">
        <ele>1025.7</ele>
        <time>2000-01-01T17:24:53.000Z</time>
      </trkpt>
      <trkpt lat="46.10434" lon="6.75003">
        <ele>1024.4</ele>
        <time>2000-01-01T17:25:03.000Z</time>
      </trkpt>
      <trkpt lat="46.10434" lon="6.75007">
        <ele>1024.5</ele>
        <time>2000-01-01T17:25:13.000Z</time>
      </trkpt>
      <trkpt lat="46.10435" lon="6.75009">
        <ele>1026</ele>
        <time>2000-01-01T17:25:23.000Z</time>
      </trkpt>
      <trkpt lat="46.10435" lon="6.75014">
        <ele>1026.1</ele>
        <time>2000-01-01T17:25:33.000Z</time>
      </trkpt>
      <trkpt lat="46.10436" lon="6.7502">
        <ele>1027.6</ele>
        <time>2000-01-01T17:25:43.000Z</time>
      </trkpt>
      <trkpt lat="46.1044" lon="6.75031">
        <ele>1027</ele>
        <time>2000-01-01T17:25:53.000Z</time>
      </trkpt>
      <trkpt lat="46.10442" lon="6.75036">
        <ele>1036.9</ele>
        <time>2000-01-01T17:26:03.000Z</time>
      </trkpt>
      <trkpt lat="46.10444" lon="6.75044">
        <ele>1040</ele>
        <time>2000-01-01T17:26:13.000Z</time>
      </trkpt>
      <trkpt lat="46.10447" lon="6.75052">
        <ele>1045.2</ele>
        <time>2000-01-01T17:26:23.000Z</time>
      </trkpt>
      <trkpt lat="46.10449" lon="6.7506">
        <ele>1034</ele>
        <time>2000-01-01T17:26:33.000Z</time>
      </trkpt>
      <trkpt lat="46.10449" lon="6.75063">
        <ele>1050.3</ele>
        <time>2000-01-01T17:26:43.000Z</time>
      </trkpt>
      <trkpt lat="46.10451" lon="6.75067">
        <ele>1054.3</ele>
        <time>2000-01-01T17:26:53.000Z</time>
      </trkpt>
      <trkpt lat="46.10453" lon="6.75069">
        <ele>1057.8</ele>
        <time>2000-01-01T17:27:03.000Z</time>
      </trkpt>
      <trkpt lat="46.10454" lon="6.75073">
        <ele>1060.1</ele>
        <time>2000-01-01T17:27:13.000Z</time>
      </trkpt>
      <trkpt lat="46.10456" lon="6.75075">
        <ele>1063.4</ele>
        <time>2000-01-01T17:27:23.000Z</time>
      </trkpt>
      <trkpt lat="46.10456" lon="6.75081">
        <ele>1064.3</ele>
        <time>2000-01-01T17:27:33.000Z</time>
      </trkpt>
      <trkpt lat="46.10457" lon="6.75087">
        <ele>1053</ele>
        <time>2000-01-01T17:27:43.000Z</time>
      </trkpt>
      <trkpt lat="46.10456" lon="6.75091">
        <ele>1065.7</ele>
        <time>2000-01-01T17:27:53.000Z</time>
      </trkpt>
      <trkpt lat="46.10458" lon="6.75093">
        <ele>1068.6</ele>
        <time>2000-01-01T17:28:03.000Z</time>
      </trkpt>
      <trkpt lat="46.10459" lon="6.75096">
        <ele>1070.2</ele>
        <time>2000-01-01T17:28:13.000Z</time>
      </trkpt>
      <trkpt lat="46.10459" lon="6.75097">
        <ele>1070.3</ele>
        <time>2000-01-01T17:28:23.000Z</time>
      </trkpt>
      <trkpt lat="46.10458" lon="6.75099">
        <ele>1069.3</ele>
        <time>2000-01-01T17:28:33.000Z</time>
      </trkpt>
      <trkpt lat="46.10459" lon="6.75101">
        <ele>1070.7</ele>
        <time>2000-01-01T17:28:43.000Z</time>
      </trkpt>
      <trkpt lat="46.1046" lon="6.75102">
        <ele>1072.1</ele>
        <time>2000-01-01T17:28:53.000Z</time>
      </trkpt>
      <trkpt lat="46.10459" lon="6.75105">
        <ele>1071.2</ele>
        <time>2000-01-01T17:29:03.000Z</time>
      </trkpt>
      <trkpt lat="46.10458" lon="6.75107">
        <ele>1070.2</ele>
        <time>2000-01-01T17:29:13.000Z</time>
      </trkpt>
      <trkpt lat="46.10456" lon="6.75107">
        <ele>1067.8</ele>
        <time>2000-01-01T17:29:23.000Z</time>
      </trkpt>
      <trkpt lat="46.10455" lon="6.75107">
        <ele>1052</ele>
        <time>2000-01-01T17:29:33.000Z</time>
      </trkpt>
      <trkpt lat="46.10452" lon="6.75106">
        <ele>1062.8</ele>
        <time>2000-01-01T17:29:43.000Z</time>
      </trkpt>
      <trkpt lat="46.10451" lon="6.75103">
        <ele>1061.1</ele>
        <time>2000-01-01T17:29:53.000Z</time>
      </trkpt>
      <trkpt lat="46.10449" lon="6.75102">
        <ele>1058.4</ele>
        <time>2000-01-01T17:30:03.000Z</time>
      </trkpt>
      <trkpt lat="46.10446" lon="6.75104">
        <ele>1055.1</ele>
        <time>2000-01-01T17:30:13.000Z</time>
      </trkpt>
      <trkpt lat="46.10444" lon="6.75107">
        <ele>1053.5</ele>
        <time>2000-01-01T17:30:23.000Z</time>
      </trkpt>
      <trkpt lat="46.10443" lon="6.7511">
        <ele>1053.4</ele>
        <time>2000-01-01T17:30:33.000Z</time>
      </trkpt>
      <trkpt lat="46.10442" lon="6.75113">
        <ele>1053.4</ele>
        <time>2000-01-01T17:30:43.000Z</time>
      </trkpt>
      <trkpt lat="46.10442" lon="6.75116">
        <ele>1053</ele>
        <time>2000-01-01T17:30:53.000Z</time>
      </trkpt>
      <trkpt lat="46.1044" lon="6.75119">
        <ele>1053.8</ele>
        <time>2000-01-01T17:31:03.000Z</time>
      </trkpt>
      <trkpt lat="46.10439" lon="6.75122">
        <ele>1054.1</ele>
        <time>2000-01-01T17:31:13.000Z</time>
      </trkpt>
      <trkpt lat="46.10439" lon="6.75126">
        <ele>1055.6</ele>
        <time>2000-01-01T17:31:23.000Z</time>
      </trkpt>
      <trkpt lat="46.1044" lon="6.7513">
        <ele>1058</ele>
        <time>2000-01-01T17:31:33.000Z</time>
      </trkpt>
      <trkpt lat="46.1044" lon="6.75133">
        <ele>1059.1</ele>
        <time>2000-01-01T17:31:43.000Z</time>
      </trkpt>
      <trkpt lat="46.10438" lon="6.75138">
        <ele>1059.3</ele>
        <time>2000-01-01T17:31:53.000Z</time>
      </trkpt>
      <trkpt lat="46.10436" lon="6.75142">
        <ele>1055</ele>
        <time>2000-01-01T17:32:03.000Z</time>
      </trkpt>
      <trkpt lat="46.10436" lon="6.75147">
        <ele>1061.7</ele>
        <time>2000-01-01T17:32:13.000Z</time>
      </trkpt>
      <trkpt lat="46.10436" lon="6.75155">
        <ele>1065.3</ele>
        <time>2000-01-01T17:32:23.000Z</time>
      </trkpt>
      <trkpt lat="46.10436" lon="6.75158">
        <ele>1066.7</ele>
        <time>2000-01-01T17:32:33.000Z</time>
      </trkpt>
      <trkpt lat="46.10437" lon="6.75163">
        <ele>1069.7</ele>
        <time>2000-01-01T17:32:43.000Z</time>
      </trkpt>
      <trkpt lat="46.10436" lon="6.75167">
        <ele>1070.8</ele>
        <time>2000-01-01T17:32:53.000Z</time>
      </trkpt>
      <trkpt lat="46.10434" lon="6.75169">
        <ele>1063</ele>
        <time>2000-01-01T17:33:03.000Z</time>
      </trkpt>
      <trkpt lat="46.10431" lon="6.75169">
        <ele>1067.9</ele>
        <time>2000-01-01T17:33:13.000Z</time>
      </trkpt>
      <trkpt lat="46.10428" lon="6.75169">
        <ele>1065.6</ele>
        <time>2000-01-01T17:33:23.000Z</time>
      </trkpt>
      <trkpt lat="46.10426" lon="6.75172">
        <ele>1065.4</ele>
        <time>2000-01-01T17:33:33.000Z</time>
      </trkpt>
      <trkpt lat="46.10425" lon="6.75174">
        <ele>1065.5</ele>
        <time>2000-01-01T17:33:43.000Z</time>
      </trkpt>
      <trkpt lat="46.10426" lon="6.75177">
        <ele>1067.6</ele>
        <time>2000-01-01T17:33:53.000Z</time>
      </trkpt>
      <trkpt lat="46.10426" lon="6.75178">
        <ele>1068.1</ele>
        <time>2000-01-01T17:34:03.000Z</time>
      </trkpt>
      <trkpt lat="46.10426" lon="6.7518">
        <ele>1069</ele>
        <time>2000-01-01T17:34:13.000Z</time>
      </trkpt>
      <trkpt lat="46.10426" lon="6.75183">
        <ele>1070.3</ele>
        <time>2000-01-01T17:34:23.000Z</time>
      </trkpt>
      <trkpt lat="46.10426" lon="6.75186">
        <ele>1064</ele>
        <time>2000-01-01T17:34:33.000Z</time>
      </trkpt>
      <trkpt lat="46.10425" lon="6.75189">
        <ele>1072.2</ele>
        <time>2000-01-01T17:34:43.000Z</time>
      </trkpt>
      <trkpt lat="46.10424" lon="6.75193">
        <ele>1073.2</ele>
        <time>2000-01-01T17:34:53.000Z</time>
      </trkpt>
      <trkpt lat="46.10423" lon="6.75198">
        <ele>1074.7</ele>
        <time>2000-01-01T17:35:03.000Z</time>
      </trkpt>
      <trkpt lat="46.10423" lon="6.75203">
        <ele>1077.2</ele>
        <time>2000-01-01T17:35:13.000Z</time>
      </trkpt>
      <trkpt lat="46.10423" lon="6.75209">
        <ele>1080.1</ele>
        <time>2000-01-01T17:35:23.000Z</time>
      </trkpt>
      <trkpt lat="46.10422" lon="6.75218">
        <ele>1077</ele>
        <time>2000-01-01T17:35:33.000Z</time>
      </trkpt>
      <trkpt lat="46.1042" lon="6.75228">
        <ele>1086.8</ele>
        <time>2000-01-01T17:35:43.000Z</time>
      </trkpt>
      <trkpt lat="46.10417" lon="6.75237">
        <ele>1088.7</ele>
        <time>2000-01-01T17:35:53.000Z</time>
      </trkpt>
      <trkpt lat="46.10414" lon="6.75244">
        <ele>1075</ele>
        <time>2000-01-01T17:36:03.000Z</time>
      </trkpt>
      <trkpt lat="46.10413" lon="6.75248">
        <ele>1090.6</ele>
        <time>2000-01-01T17:36:13.000Z</time>
      </trkpt>
      <trkpt lat="46.10411" lon="6.75252">
        <ele>1090.9</ele>
        <time>2000-01-01T17:36:23.000Z</time>
      </trkpt>
      <trkpt lat="46.1041" lon="6.75252">
        <ele>1089.9</ele>
        <time>2000-01-01T17:36:33.000Z</time>
      </trkpt>
      <trkpt lat="46.10409" lon="6.75255">
        <ele>1090.7</ele>
        <time>2000-01-01T17:36:43.000Z</time>
      </trkpt>
      <trkpt lat="46.10406" lon="6.75259">
        <ele>1090.2</ele>
        <time>2000-01-01T17:36:53.000Z</time>
      </trkpt>
      <trkpt lat="46.10404" lon="6.75263">
        <ele>1090.5</ele>
        <time>2000-01-01T17:37:03.000Z</time>
      </trkpt>
      <trkpt lat="46.10399" lon="6.7527">
        <ele>1082</ele>
        <time>2000-01-01T17:37:13.000Z</time>
      </trkpt>
      <trkpt lat="46.10393" lon="6.75278">
        <ele>1087.4</ele>
        <time>2000-01-01T17:37:23.000Z</time>
      </trkpt>
      <trkpt lat="46.10388" lon="6.75288">
        <ele>1087.6</ele>
        <time>2000-01-01T17:37:33.000Z</time>
      </trkpt>
      <trkpt lat="46.1038" lon="6.75311">
        <ele>1090</ele>
        <time>2000-01-01T17:37:43.000Z</time>
      </trkpt>
      <trkpt lat="46.10373" lon="6.7534">
        <ele>1090</ele>
        <time>2000-01-01T17:37:53.000Z</time>
      </trkpt>
      <trkpt lat="46.10366" lon="6.75369">
        <ele>1091</ele>
        <time>2000-01-01T17:38:03.000Z</time>
      </trkpt>
      <trkpt lat="46.10357" lon="6.75409">
        <ele>1089</ele>
        <time>2000-01-01T17:38:13.000Z</time>
      </trkpt>
      <trkpt lat="46.10349" lon="6.75436">
        <ele>1093</ele>
        <time>2000-01-01T17:38:23.000Z</time>
      </trkpt>
      <trkpt lat="46.10341" lon="6.75469">
        <ele>1098</ele>
        <time>2000-01-01T17:38:33.000Z</time>
      </trkpt>
      <trkpt lat="46.10338" lon="6.75481">
        <ele>1102.6</ele>
        <time>2000-01-01T17:38:43.000Z</time>
      </trkpt>
      <trkpt lat="46.10338" lon="6.75488">
        <ele>1104.8</ele>
        <time>2000-01-01T17:38:53.000Z</time>
      </trkpt>
      <trkpt lat="46.1034" lon="6.75496">
        <ele>1109</ele>
        <time>2000-01-01T17:39:03.000Z</time>
      </trkpt>
      <trkpt lat="46.10342" lon="6.75523">
        <ele>1108</ele>
        <time>2000-01-01T17:39:13.000Z</time>
      </trkpt>
      <trkpt lat="46.1034" lon="6.75538">
        <ele>1119.7</ele>
        <time>2000-01-01T17:39:23.000Z</time>
      </trkpt>
      <trkpt lat="46.10339" lon="6.7554">
        <ele>1119</ele>
        <time>2000-01-01T17:39:33.000Z</time>
      </trkpt>
      <trkpt lat="46.10336" lon="6.75549">
        <ele>1107</ele>
        <time>2000-01-01T17:39:43.000Z</time>
      </trkpt>
      <trkpt lat="46.10332" lon="6.75561">
        <ele>1115.5</ele>
        <time>2000-01-01T17:39:53.000Z</time>
      </trkpt>
      <trkpt lat="46.10328" lon="6.7557">
        <ele>1112.8</ele>
        <time>2000-01-01T17:40:03.000Z</time>
      </trkpt>
      <trkpt lat="46.10327" lon="6.75586">
        <ele>1109</ele>
        <time>2000-01-01T17:40:13.000Z</time>
      </trkpt>
      <trkpt lat="46.10324" lon="6.75629">
        <ele>1111</ele>
        <time>2000-01-01T17:40:23.000Z</time>
      </trkpt>
      <trkpt lat="46.10323" lon="6.75668">
        <ele>1111</ele>
        <time>2000-01-01T17:40:33.000Z</time>
      </trkpt>
      <trkpt lat="46.10323" lon="6.75702">
        <ele>1110</ele>
        <time>2000-01-01T17:40:43.000Z</time>
      </trkpt>
      <trkpt lat="46.10323" lon="6.75762">
        <ele>1108</ele>
        <time>2000-01-01T17:40:53.000Z</time>
      </trkpt>
      <trkpt lat="46.10325" lon="6.75802">
        <ele>1108</ele>
        <time>2000-01-01T17:41:03.000Z</time>
      </trkpt>
      <trkpt lat="46.10324" lon="6.75837">
        <ele>1109</ele>
        <time>2000-01-01T17:41:13.000Z</time>
      </trkpt>
      <trkpt lat="46.10324" lon="6.75862">
        <ele>1116.4</ele>
        <time>2000-01-01T17:41:23.000Z</time>
      </trkpt>
      <trkpt lat="46.10327" lon="6.75892">
        <ele>1115</ele>
        <time>2000-01-01T17:41:33.000Z</time>
      </trkpt>
      <trkpt lat="46.1033" lon="6.75922">
        <ele>1118</ele>
        <time>2000-01-01T17:41:43.000Z</time>
      </trkpt>
      <trkpt lat="46.1033" lon="6.75964">
        <ele>1121</ele>
        <time>2000-01-01T17:41:53.000Z</time>
      </trkpt>
      <trkpt lat="46.10335" lon="6.75994">
        <ele>1128</ele>
        <time>2000-01-01T17:42:03.000Z</time>
      </trkpt>
      <trkpt lat="46.10335" lon="6.76015">
        <ele>1134.1</ele>
        <time>2000-01-01T17:42:13.000Z</time>
      </trkpt>
      <trkpt lat="46.10343" lon="6.76057">
        <ele>1133</ele>
        <time>2000-01-01T17:42:23.000Z</time>
      </trkpt>
      <trkpt lat="46.10339" lon="6.7609">
        <ele>1138</ele>
        <time>2000-01-01T17:42:33.000Z</time>
      </trkpt>
      <trkpt lat="46.10335" lon="6.76108">
        <ele>1144.5</ele>
        <time>2000-01-01T17:42:43.000Z</time>
      </trkpt>
      <trkpt lat="46.10331" lon="6.7612">
        <ele>1141</ele>
        <time>2000-01-01T17:42:53.000Z</time>
      </trkpt>
      <trkpt lat="46.10331" lon="6.76128">
        <ele>1145.8</ele>
        <time>2000-01-01T17:43:03.000Z</time>
      </trkpt>
      <trkpt lat="46.10334" lon="6.7613">
        <ele>1147.1</ele>
        <time>2000-01-01T17:43:13.000Z</time>
      </trkpt>
      <trkpt lat="46.10338" lon="6.76124">
        <ele>1148.6</ele>
        <time>2000-01-01T17:43:23.000Z</time>
      </trkpt>
      <trkpt lat="46.10338" lon="6.76123">
        <ele>1148.5</ele>
        <time>2000-01-01T17:43:33.000Z</time>
      </trkpt>
      <trkpt lat="46.10343" lon="6.76122">
        <ele>1150</ele>
        <time>2000-01-01T17:43:43.000Z</time>
      </trkpt>
      <trkpt lat="46.10346" lon="6.76121">
        <ele>1152.9</ele>
        <time>2000-01-01T17:43:53.000Z</time>
      </trkpt>
      <trkpt lat="46.10348" lon="6.76128">
        <ele>1155.2</ele>
        <time>2000-01-01T17:44:03.000Z</time>
      </trkpt>
      <trkpt lat="46.10346" lon="6.76137">
        <ele>1155.4</ele>
        <time>2000-01-01T17:44:13.000Z</time>
      </trkpt>
      <trkpt lat="46.10343" lon="6.76143">
        <ele>1153</ele>
        <time>2000-01-01T17:44:23.000Z</time>
      </trkpt>
      <trkpt lat="46.10341" lon="6.76152">
        <ele>1154.6</ele>
        <time>2000-01-01T17:44:33.000Z</time>
      </trkpt>
      <trkpt lat="46.1034" lon="6.76158">
        <ele>1154.8</ele>
        <time>2000-01-01T17:44:43.000Z</time>
      </trkpt>
      <trkpt lat="46.10342" lon="6.76166">
        <ele>1157.2</ele>
        <time>2000-01-01T17:44:53.000Z</time>
      </trkpt>
      <trkpt lat="46.10345" lon="6.76174">
        <ele>1156</ele>
        <time>2000-01-01T17:45:03.000Z</time>
      </trkpt>
      <trkpt lat="46.10352" lon="6.76168">
        <ele>1163.6</ele>
        <time>2000-01-01T17:45:13.000Z</time>
      </trkpt>
      <trkpt lat="46.1036" lon="6.76162">
        <ele>1167.6</ele>
        <time>2000-01-01T17:45:23.000Z</time>
      </trkpt>
      <trkpt lat="46.10366" lon="6.7616">
        <ele>1165</ele>
        <time>2000-01-01T17:45:33.000Z</time>
      </trkpt>
      <trkpt lat="46.10367" lon="6.76175">
        <ele>1172.8</ele>
        <time>2000-01-01T17:45:43.000Z</time>
      </trkpt>
      <trkpt lat="46.1037" lon="6.76186">
        <ele>1175</ele>
        <time>2000-01-01T17:45:53.000Z</time>
      </trkpt>
      <trkpt lat="46.10366" lon="6.76193">
        <ele>1168</ele>
        <time>2000-01-01T17:46:03.000Z</time>
      </trkpt>
      <trkpt lat="46.10366" lon="6.76198">
        <ele>1173.4</ele>
        <time>2000-01-01T17:46:13.000Z</time>
      </trkpt>
      <trkpt lat="46.10366" lon="6.76203">
        <ele>1173.9</ele>
        <time>2000-01-01T17:46:23.000Z</time>
      </trkpt>
      <trkpt lat="46.10367" lon="6.76206">
        <ele>1174.8</ele>
        <time>2000-01-01T17:46:33.000Z</time>
      </trkpt>
      <trkpt lat="46.10368" lon="6.7621">
        <ele>1175.8</ele>
        <time>2000-01-01T17:46:43.000Z</time>
      </trkpt>
      <trkpt lat="46.1037" lon="6.76216">
        <ele>1177.5</ele>
        <time>2000-01-01T17:46:53.000Z</time>
      </trkpt>
      <trkpt lat="46.10371" lon="6.7622">
        <ele>1177</ele>
        <time>2000-01-01T17:47:03.000Z</time>
      </trkpt>
      <trkpt lat="46.10373" lon="6.7622">
        <ele>1179.6</ele>
        <time>2000-01-01T17:47:13.000Z</time>
      </trkpt>
      <trkpt lat="46.10376" lon="6.76223">
        <ele>1181.7</ele>
        <time>2000-01-01T17:47:23.000Z</time>
      </trkpt>
      <trkpt lat="46.10378" lon="6.76228">
        <ele>1183.4</ele>
        <time>2000-01-01T17:47:33.000Z</time>
      </trkpt>
      <trkpt lat="46.1038" lon="6.76236">
        <ele>1185.3</ele>
        <time>2000-01-01T17:47:43.000Z</time>
      </trkpt>
      <trkpt lat="46.10382" lon="6.7624">
        <ele>1184</ele>
        <time>2000-01-01T17:47:53.000Z</time>
      </trkpt>
      <trkpt lat="46.10384" lon="6.76247">
        <ele>1188</ele>
        <time>2000-01-01T17:48:03.000Z</time>
      </trkpt>
      <trkpt lat="46.10386" lon="6.76254">
        <ele>1189.1</ele>
        <time>2000-01-01T17:48:13.000Z</time>
      </trkpt>
      <trkpt lat="46.10399" lon="6.76279">
        <ele>1189</ele>
        <time>2000-01-01T17:48:23.000Z</time>
      </trkpt>
      <trkpt lat="46.10401" lon="6.76285">
        <ele>1198.8</ele>
        <time>2000-01-01T17:48:33.000Z</time>
      </trkpt>
      <trkpt lat="46.10402" lon="6.76286">
        <ele>1199.5</ele>
        <time>2000-01-01T17:48:43.000Z</time>
      </trkpt>
      <trkpt lat="46.10403" lon="6.7629">
        <ele>1200.2</ele>
        <time>2000-01-01T17:48:53.000Z</time>
      </trkpt>
      <trkpt lat="46.10406" lon="6.76295">
        <ele>1202.2</ele>
        <time>2000-01-01T17:49:03.000Z</time>
      </trkpt>
      <trkpt lat="46.10416" lon="6.76321">
        <ele>1202</ele>
        <time>2000-01-01T17:49:13.000Z</time>
      </trkpt>
      <trkpt lat="46.10419" lon="6.76327">
        <ele>1211.1</ele>
        <time>2000-01-01T17:49:23.000Z</time>
      </trkpt>
      <trkpt lat="46.1042" lon="6.7633">
        <ele>1212</ele>
        <time>2000-01-01T17:49:33.000Z</time>
      </trkpt>
      <trkpt lat="46.10423" lon="6.76339">
        <ele>1214.7</ele>
        <time>2000-01-01T17:49:43.000Z</time>
      </trkpt>
      <trkpt lat="46.10424" lon="6.76343">
        <ele>1215.6</ele>
        <time>2000-01-01T17:49:53.000Z</time>
      </trkpt>
      <trkpt lat="46.10426" lon="6.76352">
        <ele>1211</ele>
        <time>2000-01-01T17:50:03.000Z</time>
      </trkpt>
      <trkpt lat="46.10428" lon="6.76357">
        <ele>1219.2</ele>
        <time>2000-01-01T17:50:13.000Z</time>
      </trkpt>
      <trkpt lat="46.10428" lon="6.76366">
        <ele>1219.4</ele>
        <time>2000-01-01T17:50:23.000Z</time>
      </trkpt>
      <trkpt lat="46.10429" lon="6.76371">
        <ele>1220.5</ele>
        <time>2000-01-01T17:50:33.000Z</time>
      </trkpt>
      <trkpt lat="46.10429" lon="6.76382">
        <ele>1212</ele>
        <time>2000-01-01T17:50:43.000Z</time>
      </trkpt>
      <trkpt lat="46.1043" lon="6.76397">
        <ele>1222.7</ele>
        <time>2000-01-01T17:50:53.000Z</time>
      </trkpt>
      <trkpt lat="46.1043" lon="6.76402">
        <ele>1223</ele>
        <time>2000-01-01T17:51:03.000Z</time>
      </trkpt>
      <trkpt lat="46.10431" lon="6.7641">
        <ele>1224</ele>
        <time>2000-01-01T17:51:13.000Z</time>
      </trkpt>
      <trkpt lat="46.10431" lon="6.76415">
        <ele>1224.7</ele>
        <time>2000-01-01T17:51:23.000Z</time>
      </trkpt>
      <trkpt lat="46.10432" lon="6.76422">
        <ele>1225.8</ele>
        <time>2000-01-01T17:51:33.000Z</time>
      </trkpt>
      <trkpt lat="46.10433" lon="6.76424">
        <ele>1226.5</ele>
        <time>2000-01-01T17:51:43.000Z</time>
      </trkpt>
      <trkpt lat="46.10432" lon="6.76428">
        <ele>1226.1</ele>
        <time>2000-01-01T17:51:53.000Z</time>
      </trkpt>
      <trkpt lat="46.10434" lon="6.76439">
        <ele>1224</ele>
        <time>2000-01-01T17:52:03.000Z</time>
      </trkpt>
      <trkpt lat="46.10434" lon="6.76445">
        <ele>1228.3</ele>
        <time>2000-01-01T17:52:13.000Z</time>
      </trkpt>
      <trkpt lat="46.10434" lon="6.76457">
        <ele>1229.8</ele>
        <time>2000-01-01T17:52:23.000Z</time>
      </trkpt>
      <trkpt lat="46.10435" lon="6.76461">
        <ele>1230.9</ele>
        <time>2000-01-01T17:52:33.000Z</time>
      </trkpt>
      <trkpt lat="46.10437" lon="6.76474">
        <ele>1227</ele>
        <time>2000-01-01T17:52:43.000Z</time>
      </trkpt>
      <trkpt lat="46.10437" lon="6.76478">
        <ele>1233.9</ele>
        <time>2000-01-01T17:52:53.000Z</time>
      </trkpt>
      <trkpt lat="46.10438" lon="6.76484">
        <ele>1235</ele>
        <time>2000-01-01T17:53:03.000Z</time>
      </trkpt>
      <trkpt lat="46.10442" lon="6.76498">
        <ele>1238</ele>
        <time>2000-01-01T17:53:13.000Z</time>
      </trkpt>
      <trkpt lat="46.10443" lon="6.76503">
        <ele>1235</ele>
        <time>2000-01-01T17:53:23.000Z</time>
      </trkpt>
      <trkpt lat="46.10445" lon="6.7651">
        <ele>1239.8</ele>
        <time>2000-01-01T17:53:33.000Z</time>
      </trkpt>
      <trkpt lat="46.10448" lon="6.76523">
        <ele>1242.4</ele>
        <time>2000-01-01T17:53:43.000Z</time>
      </trkpt>
      <trkpt lat="46.10448" lon="6.76531">
        <ele>1237</ele>
        <time>2000-01-01T17:53:53.000Z</time>
      </trkpt>
      <trkpt lat="46.1045" lon="6.76544">
        <ele>1245.5</ele>
        <time>2000-01-01T17:54:03.000Z</time>
      </trkpt>
      <trkpt lat="46.10449" lon="6.76551">
        <ele>1245.5</ele>
        <time>2000-01-01T17:54:13.000Z</time>
      </trkpt>
      <trkpt lat="46.10448" lon="6.7656">
        <ele>1239</ele>
        <time>2000-01-01T17:54:23.000Z</time>
      </trkpt>
      <trkpt lat="46.10446" lon="6.76561">
        <ele>1244.6</ele>
        <time>2000-01-01T17:54:33.000Z</time>
      </trkpt>
      <trkpt lat="46.10443" lon="6.76571">
        <ele>1244.7</ele>
        <time>2000-01-01T17:54:43.000Z</time>
      </trkpt>
      <trkpt lat="46.10443" lon="6.76583">
        <ele>1246.1</ele>
        <time>2000-01-01T17:54:53.000Z</time>
      </trkpt>
      <trkpt lat="46.10435" lon="6.76588">
        <ele>1243</ele>
        <time>2000-01-01T17:55:03.000Z</time>
      </trkpt>
      <trkpt lat="46.10429" lon="6.76598">
        <ele>1250.4</ele>
        <time>2000-01-01T17:55:13.000Z</time>
      </trkpt>
      <trkpt lat="46.10435" lon="6.7662">
        <ele>1250</ele>
        <time>2000-01-01T17:55:23.000Z</time>
      </trkpt>
      <trkpt lat="46.10432" lon="6.76643">
        <ele>1260.8</ele>
        <time>2000-01-01T17:55:33.000Z</time>
      </trkpt>
      <trkpt lat="46.10431" lon="6.76669">
        <ele>1266</ele>
        <time>2000-01-01T17:55:43.000Z</time>
      </trkpt>
      <trkpt lat="46.10434" lon="6.76679">
        <ele>1271.2</ele>
        <time>2000-01-01T17:55:53.000Z</time>
      </trkpt>
      <trkpt lat="46.10431" lon="6.76679">
        <ele>1272.7</ele>
        <time>2000-01-01T17:56:03.000Z</time>
      </trkpt>
      <trkpt lat="46.10424" lon="6.76673">
        <ele>1273.7</ele>
        <time>2000-01-01T17:56:13.000Z</time>
      </trkpt>
      <trkpt lat="46.10418" lon="6.76664">
        <ele>1267</ele>
        <time>2000-01-01T17:56:23.000Z</time>
      </trkpt>
      <trkpt lat="46.10414" lon="6.76654">
        <ele>1271.2</ele>
        <time>2000-01-01T17:56:33.000Z</time>
      </trkpt>
      <trkpt lat="46.10411" lon="6.76644">
        <ele>1269.3</ele>
        <time>2000-01-01T17:56:43.000Z</time>
      </trkpt>
      <trkpt lat="46.10406" lon="6.7664">
        <ele>1268</ele>
        <time>2000-01-01T17:56:53.000Z</time>
      </trkpt>
      <trkpt lat="46.10401" lon="6.76631">
        <ele>1270.3</ele>
        <time>2000-01-01T17:57:03.000Z</time>
      </trkpt>
      <trkpt lat="46.10397" lon="6.76628">
        <ele>1271.4</ele>
        <time>2000-01-01T17:57:13.000Z</time>
      </trkpt>
      <trkpt lat="46.10393" lon="6.76627">
        <ele>1273.1</ele>
        <time>2000-01-01T17:57:23.000Z</time>
      </trkpt>
      <trkpt lat="46.10383" lon="6.76614">
        <ele>1273</ele>
        <time>2000-01-01T17:57:33.000Z</time>
      </trkpt>
      <trkpt lat="46.10376" lon="6.76605">
        <ele>1275.3</ele>
        <time>2000-01-01T17:57:43.000Z</time>
      </trkpt>
      <trkpt lat="46.10369" lon="6.76591">
        <ele>1275</ele>
        <time>2000-01-01T17:57:53.000Z</time>
      </trkpt>
      <trkpt lat="46.10365" lon="6.76585">
        <ele>1274.5</ele>
        <time>2000-01-01T17:58:03.000Z</time>
      </trkpt>
      <trkpt lat="46.10362" lon="6.76582">
        <ele>1275.1</ele>
        <time>2000-01-01T17:58:13.000Z</time>
      </trkpt>
      <trkpt lat="46.1035" lon="6.76579">
        <ele>1278</ele>
        <time>2000-01-01T17:58:23.000Z</time>
      </trkpt>
      <trkpt lat="46.10335" lon="6.76569">
        <ele>1286.8</ele>
        <time>2000-01-01T17:58:33.000Z</time>
      </trkpt>
      <trkpt lat="46.10322" lon="6.76556">
        <ele>1287</ele>
        <time>2000-01-01T17:58:43.000Z</time>
      </trkpt>
      <trkpt lat="46.10309" lon="6.76534">
        <ele>1291</ele>
        <time>2000-01-01T17:58:53.000Z</time>
      </trkpt>
      <trkpt lat="46.10292" lon="6.76522">
        <ele>1293</ele>
        <time>2000-01-01T17:59:03.000Z</time>
      </trkpt>
      <trkpt lat="46.10268" lon="6.76507">
        <ele>1293</ele>
        <time>2000-01-01T17:59:13.000Z</time>
      </trkpt>
      <trkpt lat="46.1026" lon="6.76493">
        <ele>1301.3</ele>
        <time>2000-01-01T17:59:23.000Z</time>
      </trkpt>
      <trkpt lat="46.10251" lon="6.76476">
        <ele>1294</ele>
        <time>2000-01-01T17:59:33.000Z</time>
      </trkpt>
      <trkpt lat="46.10238" lon="6.76473">
        <ele>1305.7</ele>
        <time>2000-01-01T17:59:43.000Z</time>
      </trkpt>
      <trkpt lat="46.10241" lon="6.76479">
        <ele>1306.7</ele>
        <time>2000-01-01T17:59:53.000Z</time>
      </trkpt>
      <trkpt lat="46.10243" lon="6.76489">
        <ele>1308</ele>
        <time>2000-01-01T18:00:03.000Z</time>
      </trkpt>
      <trkpt lat="46.1025" lon="6.76499">
        <ele>1310.5</ele>
        <time>2000-01-01T18:00:13.000Z</time>
      </trkpt>
      <trkpt lat="46.10255" lon="6.76514">
        <ele>1314</ele>
        <time>2000-01-01T18:00:23.000Z</time>
      </trkpt>
      <trkpt lat="46.1026" lon="6.76527">
        <ele>1316.2</ele>
        <time>2000-01-01T18:00:33.000Z</time>
      </trkpt>
      <trkpt lat="46.10262" lon="6.76534">
        <ele>1318</ele>
        <time>2000-01-01T18:00:43.000Z</time>
      </trkpt>
      <trkpt lat="46.10268" lon="6.76546">
        <ele>1322</ele>
        <time>2000-01-01T18:00:53.000Z</time>
      </trkpt>
      <trkpt lat="46.10272" lon="6.7655">
        <ele>1319</ele>
        <time>2000-01-01T18:01:03.000Z</time>
      </trkpt>
      <trkpt lat="46.10276" lon="6.76563">
        <ele>1322.6</ele>
        <time>2000-01-01T18:01:13.000Z</time>
      </trkpt>
      <trkpt lat="46.10286" lon="6.76572">
        <ele>1322</ele>
        <time>2000-01-01T18:01:23.000Z</time>
      </trkpt>
      <trkpt lat="46.1029" lon="6.76577">
        <ele>1319.7</ele>
        <time>2000-01-01T18:01:33.000Z</time>
      </trkpt>
      <trkpt lat="46.10291" lon="6.76585">
        <ele>1322.8</ele>
        <time>2000-01-01T18:01:43.000Z</time>
      </trkpt>
      <trkpt lat="46.10296" lon="6.76589">
        <ele>1321.5</ele>
        <time>2000-01-01T18:01:53.000Z</time>
      </trkpt>
      <trkpt lat="46.103" lon="6.76596">
        <ele>1331</ele>
        <time>2000-01-01T18:02:03.000Z</time>
      </trkpt>
      <trkpt lat="46.10303" lon="6.76604">
        <ele>1324.8</ele>
        <time>2000-01-01T18:02:13.000Z</time>
      </trkpt>
      <trkpt lat="46.10307" lon="6.76619">
        <ele>1330</ele>
        <time>2000-01-01T18:02:23.000Z</time>
      </trkpt>
      <trkpt lat="46.1031" lon="6.76633">
        <ele>1341</ele>
        <time>2000-01-01T18:02:33.000Z</time>
      </trkpt>
      <trkpt lat="46.10314" lon="6.76651">
        <ele>1341.2</ele>
        <time>2000-01-01T18:02:43.000Z</time>
      </trkpt>
      <trkpt lat="46.10316" lon="6.7666">
        <ele>1343</ele>
        <time>2000-01-01T18:02:53.000Z</time>
      </trkpt>
      <trkpt lat="46.1032" lon="6.7667">
        <ele>1346.6</ele>
        <time>2000-01-01T18:03:03.000Z</time>
      </trkpt>
      <trkpt lat="46.10328" lon="6.76678">
        <ele>1345.4</ele>
        <time>2000-01-01T18:03:13.000Z</time>
      </trkpt>
      <trkpt lat="46.10333" lon="6.7668">
        <ele>1345</ele>
        <time>2000-01-01T18:03:23.000Z</time>
      </trkpt>
      <trkpt lat="46.10338" lon="6.76685">
        <ele>1342.3</ele>
        <time>2000-01-01T18:03:33.000Z</time>
      </trkpt>
      <trkpt lat="46.10341" lon="6.76688">
        <ele>1341.6</ele>
        <time>2000-01-01T18:03:43.000Z</time>
      </trkpt>
      <trkpt lat="46.10344" lon="6.76694">
        <ele>1342.5</ele>
        <time>2000-01-01T18:03:53.000Z</time>
      </trkpt>
      <trkpt lat="46.10348" lon="6.76701">
        <ele>1347</ele>
        <time>2000-01-01T18:04:03.000Z</time>
      </trkpt>
      <trkpt lat="46.10351" lon="6.76706">
        <ele>1343.3</ele>
        <time>2000-01-01T18:04:13.000Z</time>
      </trkpt>
      <trkpt lat="46.10357" lon="6.76722">
        <ele>1347.3</ele>
        <time>2000-01-01T18:04:23.000Z</time>
      </trkpt>
      <trkpt lat="46.10359" lon="6.76728">
        <ele>1351</ele>
        <time>2000-01-01T18:04:33.000Z</time>
      </trkpt>
      <trkpt lat="46.1036" lon="6.76732">
        <ele>1350.2</ele>
        <time>2000-01-01T18:04:43.000Z</time>
      </trkpt>
      <trkpt lat="46.10358" lon="6.76735">
        <ele>1352.7</ele>
        <time>2000-01-01T18:04:53.000Z</time>
      </trkpt>
      <trkpt lat="46.10355" lon="6.76737">
        <ele>1355.2</ele>
        <time>2000-01-01T18:05:03.000Z</time>
      </trkpt>
      <trkpt lat="46.10352" lon="6.76737">
        <ele>1356.8</ele>
        <time>2000-01-01T18:05:13.000Z</time>
      </trkpt>
      <trkpt lat="46.10349" lon="6.76736">
        <ele>1358</ele>
        <time>2000-01-01T18:05:23.000Z</time>
      </trkpt>
      <trkpt lat="46.10347" lon="6.76737">
        <ele>1359.5</ele>
        <time>2000-01-01T18:05:33.000Z</time>
      </trkpt>
      <trkpt lat="46.10339" lon="6.76738">
        <ele>1366</ele>
        <time>2000-01-01T18:05:43.000Z</time>
      </trkpt>
      <trkpt lat="46.10337" lon="6.76738">
        <ele>1365.3</ele>
        <time>2000-01-01T18:05:53.000Z</time>
      </trkpt>
      <trkpt lat="46.10331" lon="6.76737">
        <ele>1368.1</ele>
        <time>2000-01-01T18:06:03.000Z</time>
      </trkpt>
      <trkpt lat="46.10326" lon="6.7674">
        <ele>1372</ele>
        <time>2000-01-01T18:06:13.000Z</time>
      </trkpt>
      <trkpt lat="46.1033" lon="6.7675">
        <ele>1370</ele>
        <time>2000-01-01T18:06:23.000Z</time>
      </trkpt>
      <trkpt lat="46.10335" lon="6.76758">
        <ele>1374.6</ele>
        <time>2000-01-01T18:06:33.000Z</time>
      </trkpt>
      <trkpt lat="46.10338" lon="6.76764">
        <ele>1375.8</ele>
        <time>2000-01-01T18:06:43.000Z</time>
      </trkpt>
      <trkpt lat="46.10339" lon="6.76768">
        <ele>1377.1</ele>
        <time>2000-01-01T18:06:53.000Z</time>
      </trkpt>
      <trkpt lat="46.10341" lon="6.7677">
        <ele>1377</ele>
        <time>2000-01-01T18:07:03.000Z</time>
      </trkpt>
      <trkpt lat="46.10343" lon="6.76773">
        <ele>1375</ele>
        <time>2000-01-01T18:07:13.000Z</time>
      </trkpt>
      <trkpt lat="46.10346" lon="6.76778">
        <ele>1378.2</ele>
        <time>2000-01-01T18:07:23.000Z</time>
      </trkpt>
      <trkpt lat="46.10346" lon="6.76783">
        <ele>1380.8</ele>
        <time>2000-01-01T18:07:33.000Z</time>
      </trkpt>
      <trkpt lat="46.10348" lon="6.76787">
        <ele>1382</ele>
        <time>2000-01-01T18:07:43.000Z</time>
      </trkpt>
      <trkpt lat="46.10348" lon="6.76791">
        <ele>1384.1</ele>
        <time>2000-01-01T18:07:53.000Z</time>
      </trkpt>
      <trkpt lat="46.1035" lon="6.76796">
        <ele>1385.8</ele>
        <time>2000-01-01T18:08:03.000Z</time>
      </trkpt>
      <trkpt lat="46.10353" lon="6.76802">
        <ele>1386</ele>
        <time>2000-01-01T18:08:13.000Z</time>
      </trkpt>
      <trkpt lat="46.10358" lon="6.76809">
        <ele>1389.3</ele>
        <time>2000-01-01T18:08:23.000Z</time>
      </trkpt>
      <trkpt lat="46.10362" lon="6.76821">
        <ele>1394.4</ele>
        <time>2000-01-01T18:08:33.000Z</time>
      </trkpt>
      <trkpt lat="46.10364" lon="6.76826">
        <ele>1395</ele>
        <time>2000-01-01T18:08:43.000Z</time>
      </trkpt>
      <trkpt lat="46.10366" lon="6.7683">
        <ele>1397.6</ele>
        <time>2000-01-01T18:08:53.000Z</time>
      </trkpt>
      <trkpt lat="46.1037" lon="6.76837">
        <ele>1399.4</ele>
        <time>2000-01-01T18:09:03.000Z</time>
      </trkpt>
      <trkpt lat="46.10371" lon="6.7684">
        <ele>1400.5</ele>
        <time>2000-01-01T18:09:13.000Z</time>
      </trkpt>
      <trkpt lat="46.10372" lon="6.76843">
        <ele>1401.5</ele>
        <time>2000-01-01T18:09:23.000Z</time>
      </trkpt>
      <trkpt lat="46.10373" lon="6.76845">
        <ele>1402.1</ele>
        <time>2000-01-01T18:09:33.000Z</time>
      </trkpt>
      <trkpt lat="46.10376" lon="6.76847">
        <ele>1401</ele>
        <time>2000-01-01T18:09:43.000Z</time>
      </trkpt>
      <trkpt lat="46.10376" lon="6.76848">
        <ele>1402.2</ele>
        <time>2000-01-01T18:09:53.000Z</time>
      </trkpt>
      <trkpt lat="46.10379" lon="6.76849">
        <ele>1401.2</ele>
        <time>2000-01-01T18:10:03.000Z</time>
      </trkpt>
      <trkpt lat="46.10381" lon="6.76851">
        <ele>1401.3</ele>
        <time>2000-01-01T18:10:13.000Z</time>
      </trkpt>
      <trkpt lat="46.10383" lon="6.76853">
        <ele>1401.4</ele>
        <time>2000-01-01T18:10:23.000Z</time>
      </trkpt>
      <trkpt lat="46.10385" lon="6.76854">
        <ele>1401</ele>
        <time>2000-01-01T18:10:33.000Z</time>
      </trkpt>
      <trkpt lat="46.10388" lon="6.76855">
        <ele>1400.1</ele>
        <time>2000-01-01T18:10:43.000Z</time>
      </trkpt>
      <trkpt lat="46.10389" lon="6.76857">
        <ele>1400.7</ele>
        <time>2000-01-01T18:10:53.000Z</time>
      </trkpt>
      <trkpt lat="46.10391" lon="6.76859">
        <ele>1400.5</ele>
        <time>2000-01-01T18:11:03.000Z</time>
      </trkpt>
      <trkpt lat="46.10395" lon="6.76863">
        <ele>1402</ele>
        <time>2000-01-01T18:11:13.000Z</time>
      </trkpt>
      <trkpt lat="46.10397" lon="6.76866">
        <ele>1400.4</ele>
        <time>2000-01-01T18:11:23.000Z</time>
      </trkpt>
      <trkpt lat="46.10399" lon="6.76869">
        <ele>1400.7</ele>
        <time>2000-01-01T18:11:33.000Z</time>
      </trkpt>
      <trkpt lat="46.104" lon="6.76874">
        <ele>1402.9</ele>
        <time>2000-01-01T18:11:43.000Z</time>
      </trkpt>
      <trkpt lat="46.10403" lon="6.7688">
        <ele>1404.4</ele>
        <time>2000-01-01T18:11:53.000Z</time>
      </trkpt>
      <trkpt lat="46.10404" lon="6.76886">
        <ele>1407.2</ele>
        <time>2000-01-01T18:12:03.000Z</time>
      </trkpt>
      <trkpt lat="46.10405" lon="6.76888">
        <ele>1406</ele>
        <time>2000-01-01T18:12:13.000Z</time>
      </trkpt>
      <trkpt lat="46.10406" lon="6.76891">
        <ele>1408.8</ele>
        <time>2000-01-01T18:12:23.000Z</time>
      </trkpt>
      <trkpt lat="46.10409" lon="6.76898">
        <ele>1410.6</ele>
        <time>2000-01-01T18:12:33.000Z</time>
      </trkpt>
      <trkpt lat="46.1041" lon="6.76901">
        <ele>1411.6</ele>
        <time>2000-01-01T18:12:43.000Z</time>
      </trkpt>
      <trkpt lat="46.10411" lon="6.76904">
        <ele>1412.6</ele>
        <time>2000-01-01T18:12:53.000Z</time>
      </trkpt>
      <trkpt lat="46.10412" lon="6.76907">
        <ele>1413.5</ele>
        <time>2000-01-01T18:13:03.000Z</time>
      </trkpt>
      <trkpt lat="46.10414" lon="6.76909">
        <ele>1413.5</ele>
        <time>2000-01-01T18:13:13.000Z</time>
      </trkpt>
      <trkpt lat="46.10415" lon="6.76911">
        <ele>1416</ele>
        <time>2000-01-01T18:13:23.000Z</time>
      </trkpt>
      <trkpt lat="46.10416" lon="6.76914">
        <ele>1415</ele>
        <time>2000-01-01T18:13:33.000Z</time>
      </trkpt>
      <trkpt lat="46.10419" lon="6.76923">
        <ele>1417.1</ele>
        <time>2000-01-01T18:13:43.000Z</time>
      </trkpt>
      <trkpt lat="46.1042" lon="6.76926">
        <ele>1417.8</ele>
        <time>2000-01-01T18:13:53.000Z</time>
      </trkpt>
      <trkpt lat="46.10421" lon="6.7693">
        <ele>1418.9</ele>
        <time>2000-01-01T18:14:03.000Z</time>
      </trkpt>
      <trkpt lat="46.1042" lon="6.7693">
        <ele>1419.5</ele>
        <time>2000-01-01T18:14:13.000Z</time>
      </trkpt>
      <trkpt lat="46.10419" lon="6.76931">
        <ele>1420.6</ele>
        <time>2000-01-01T18:14:23.000Z</time>
      </trkpt>
      <trkpt lat="46.10417" lon="6.76929">
        <ele>1420</ele>
        <time>2000-01-01T18:14:33.000Z</time>
      </trkpt>
      <trkpt lat="46.10413" lon="6.76928">
        <ele>1422.7</ele>
        <time>2000-01-01T18:14:43.000Z</time>
      </trkpt>
      <trkpt lat="46.10411" lon="6.76927">
        <ele>1423.3</ele>
        <time>2000-01-01T18:14:53.000Z</time>
      </trkpt>
      <trkpt lat="46.10408" lon="6.76924">
        <ele>1423.5</ele>
        <time>2000-01-01T18:15:03.000Z</time>
      </trkpt>
      <trkpt lat="46.10405" lon="6.76923">
        <ele>1424.6</ele>
        <time>2000-01-01T18:15:13.000Z</time>
      </trkpt>
      <trkpt lat="46.10403" lon="6.76923">
        <ele>1425.6</ele>
        <time>2000-01-01T18:15:23.000Z</time>
      </trkpt>
      <trkpt lat="46.10401" lon="6.76921">
        <ele>1425.8</ele>
        <time>2000-01-01T18:15:33.000Z</time>
      </trkpt>
      <trkpt lat="46.10397" lon="6.76919">
        <ele>1426</ele>
        <time>2000-01-01T18:15:43.000Z</time>
      </trkpt>
      <trkpt lat="46.10393" lon="6.76918">
        <ele>1428.5</ele>
        <time>2000-01-01T18:15:53.000Z</time>
      </trkpt>
      <trkpt lat="46.1039" lon="6.76918">
        <ele>1430</ele>
        <time>2000-01-01T18:16:03.000Z</time>
      </trkpt>
      <trkpt lat="46.10387" lon="6.76916">
        <ele>1430.2</ele>
        <time>2000-01-01T18:16:13.000Z</time>
      </trkpt>
      <trkpt lat="46.10384" lon="6.76915">
        <ele>1430.6</ele>
        <time>2000-01-01T18:16:23.000Z</time>
      </trkpt>
      <trkpt lat="46.1038" lon="6.76914">
        <ele>1431.4</ele>
        <time>2000-01-01T18:16:33.000Z</time>
      </trkpt>
      <trkpt lat="46.10377" lon="6.76912">
        <ele>1432</ele>
        <time>2000-01-01T18:16:43.000Z</time>
      </trkpt>
      <trkpt lat="46.10368" lon="6.76912">
        <ele>1434.1</ele>
        <time>2000-01-01T18:16:53.000Z</time>
      </trkpt>
      <trkpt lat="46.10364" lon="6.76913">
        <ele>1435.7</ele>
        <time>2000-01-01T18:17:03.000Z</time>
      </trkpt>
      <trkpt lat="46.10362" lon="6.76915">
        <ele>1437.1</ele>
        <time>2000-01-01T18:17:13.000Z</time>
      </trkpt>
      <trkpt lat="46.10359" lon="6.76915">
        <ele>1438.3</ele>
        <time>2000-01-01T18:17:23.000Z</time>
      </trkpt>
      <trkpt lat="46.10357" lon="6.76917">
        <ele>1439</ele>
        <time>2000-01-01T18:17:33.000Z</time>
      </trkpt>
      <trkpt lat="46.10352" lon="6.76919">
        <ele>1443.3</ele>
        <time>2000-01-01T18:17:43.000Z</time>
      </trkpt>
      <trkpt lat="46.10347" lon="6.76916">
        <ele>1444.3</ele>
        <time>2000-01-01T18:17:53.000Z</time>
      </trkpt>
      <trkpt lat="46.10344" lon="6.76912">
        <ele>1444.1</ele>
        <time>2000-01-01T18:18:03.000Z</time>
      </trkpt>
      <trkpt lat="46.10342" lon="6.76909">
        <ele>1443.7</ele>
        <time>2000-01-01T18:18:13.000Z</time>
      </trkpt>
      <trkpt lat="46.10339" lon="6.76906">
        <ele>1442</ele>
        <time>2000-01-01T18:18:23.000Z</time>
      </trkpt>
      <trkpt lat="46.10334" lon="6.76902">
        <ele>1444.4</ele>
        <time>2000-01-01T18:18:33.000Z</time>
      </trkpt>
      <trkpt lat="46.10331" lon="6.76899">
        <ele>1444.6</ele>
        <time>2000-01-01T18:18:43.000Z</time>
      </trkpt>
      <trkpt lat="46.10329" lon="6.76898">
        <ele>1445.2</ele>
        <time>2000-01-01T18:18:53.000Z</time>
      </trkpt>
      <trkpt lat="46.10327" lon="6.76898">
        <ele>1446.2</ele>
        <time>2000-01-01T18:19:03.000Z</time>
      </trkpt>
      <trkpt lat="46.10323" lon="6.76895">
        <ele>1446.9</ele>
        <time>2000-01-01T18:19:13.000Z</time>
      </trkpt>
      <trkpt lat="46.10321" lon="6.76893">
        <ele>1445</ele>
        <time>2000-01-01T18:19:23.000Z</time>
      </trkpt>
      <trkpt lat="46.10319" lon="6.76891">
        <ele>1447.2</ele>
        <time>2000-01-01T18:19:33.000Z</time>
      </trkpt>
      <trkpt lat="46.10316" lon="6.76888">
        <ele>1447.3</ele>
        <time>2000-01-01T18:19:43.000Z</time>
      </trkpt>
      <trkpt lat="46.10313" lon="6.76885">
        <ele>1447.5</ele>
        <time>2000-01-01T18:19:53.000Z</time>
      </trkpt>
      <trkpt lat="46.10312" lon="6.76884">
        <ele>1447.5</ele>
        <time>2000-01-01T18:20:03.000Z</time>
      </trkpt>
      <trkpt lat="46.10309" lon="6.7688">
        <ele>1447.2</ele>
        <time>2000-01-01T18:20:13.000Z</time>
      </trkpt>
      <trkpt lat="46.10308" lon="6.76879">
        <ele>1447.2</ele>
        <time>2000-01-01T18:20:23.000Z</time>
      </trkpt>
      <trkpt lat="46.10304" lon="6.76874">
        <ele>1445</ele>
        <time>2000-01-01T18:20:33.000Z</time>
      </trkpt>
      <trkpt lat="46.10301" lon="6.76869">
        <ele>1445.9</ele>
        <time>2000-01-01T18:20:43.000Z</time>
      </trkpt>
      <trkpt lat="46.10298" lon="6.76866">
        <ele>1445.9</ele>
        <time>2000-01-01T18:20:53.000Z</time>
      </trkpt>
      <trkpt lat="46.10296" lon="6.76862">
        <ele>1444.9</ele>
        <time>2000-01-01T18:21:03.000Z</time>
      </trkpt>
      <trkpt lat="46.10293" lon="6.7686">
        <ele>1445.3</ele>
        <time>2000-01-01T18:21:13.000Z</time>
      </trkpt>
      <trkpt lat="46.10291" lon="6.76858">
        <ele>1445.2</ele>
        <time>2000-01-01T18:21:23.000Z</time>
      </trkpt>
      <trkpt lat="46.10287" lon="6.76856">
        <ele>1445</ele>
        <time>2000-01-01T18:21:33.000Z</time>
      </trkpt>
      <trkpt lat="46.10284" lon="6.76855">
        <ele>1447</ele>
        <time>2000-01-01T18:21:43.000Z</time>
      </trkpt>
      <trkpt lat="46.1028" lon="6.76852">
        <ele>1447.4</ele>
        <time>2000-01-01T18:21:53.000Z</time>
      </trkpt>
      <trkpt lat="46.10278" lon="6.7685">
        <ele>1447.3</ele>
        <time>2000-01-01T18:22:03.000Z</time>
      </trkpt>
      <trkpt lat="46.10276" lon="6.7685">
        <ele>1448.3</ele>
        <time>2000-01-01T18:22:13.000Z</time>
      </trkpt>
      <trkpt lat="46.10272" lon="6.76848">
        <ele>1449.3</ele>
        <time>2000-01-01T18:22:23.000Z</time>
      </trkpt>
      <trkpt lat="46.1027" lon="6.76848">
        <ele>1450.3</ele>
        <time>2000-01-01T18:22:33.000Z</time>
      </trkpt>
      <trkpt lat="46.10268" lon="6.76848">
        <ele>1451</ele>
        <time>2000-01-01T18:22:43.000Z</time>
      </trkpt>
      <trkpt lat="46.10266" lon="6.76846">
        <ele>1451.4</ele>
        <time>2000-01-01T18:22:53.000Z</time>
      </trkpt>
      <trkpt lat="46.10263" lon="6.76844">
        <ele>1451.9</ele>
        <time>2000-01-01T18:23:03.000Z</time>
      </trkpt>
      <trkpt lat="46.1026" lon="6.76844">
        <ele>1453.5</ele>
        <time>2000-01-01T18:23:13.000Z</time>
      </trkpt>
      <trkpt lat="46.10257" lon="6.76843">
        <ele>1454.6</ele>
        <time>2000-01-01T18:23:23.000Z</time>
      </trkpt>
      <trkpt lat="46.10254" lon="6.76842">
        <ele>1455.7</ele>
        <time>2000-01-01T18:23:33.000Z</time>
      </trkpt>
      <trkpt lat="46.10253" lon="6.7684">
        <ele>1455.3</ele>
        <time>2000-01-01T18:23:43.000Z</time>
      </trkpt>
      <trkpt lat="46.10249" lon="6.76836">
        <ele>1451</ele>
        <time>2000-01-01T18:23:53.000Z</time>
      </trkpt>
      <trkpt lat="46.10249" lon="6.76833">
        <ele>1454.4</ele>
        <time>2000-01-01T18:24:03.000Z</time>
      </trkpt>
      <trkpt lat="46.10247" lon="6.76829">
        <ele>1454.1</ele>
        <time>2000-01-01T18:24:13.000Z</time>
      </trkpt>
      <trkpt lat="46.10246" lon="6.76827">
        <ele>1453.9</ele>
        <time>2000-01-01T18:24:23.000Z</time>
      </trkpt>
      <trkpt lat="46.10244" lon="6.7682">
        <ele>1452.4</ele>
        <time>2000-01-01T18:24:33.000Z</time>
      </trkpt>
      <trkpt lat="46.10243" lon="6.76815">
        <ele>1451.2</ele>
        <time>2000-01-01T18:24:43.000Z</time>
      </trkpt>
      <trkpt lat="46.10242" lon="6.76811">
        <ele>1451</ele>
        <time>2000-01-01T18:24:53.000Z</time>
      </trkpt>
      <trkpt lat="46.10242" lon="6.76807">
        <ele>1448.8</ele>
        <time>2000-01-01T18:25:03.000Z</time>
      </trkpt>
      <trkpt lat="46.10242" lon="6.76802">
        <ele>1447.1</ele>
        <time>2000-01-01T18:25:13.000Z</time>
      </trkpt>
      <trkpt lat="46.10241" lon="6.76794">
        <ele>1444.8</ele>
        <time>2000-01-01T18:25:23.000Z</time>
      </trkpt>
      <trkpt lat="46.1024" lon="6.76787">
        <ele>1443</ele>
        <time>2000-01-01T18:25:33.000Z</time>
      </trkpt>
      <trkpt lat="46.10237" lon="6.76779">
        <ele>1450</ele>
        <time>2000-01-01T18:25:43.000Z</time>
      </trkpt>
      <trkpt lat="46.10235" lon="6.76774">
        <ele>1441.3</ele>
        <time>2000-01-01T18:25:53.000Z</time>
      </trkpt>
      <trkpt lat="46.10232" lon="6.76769">
        <ele>1441.2</ele>
        <time>2000-01-01T18:26:03.000Z</time>
      </trkpt>
      <trkpt lat="46.10228" lon="6.76769">
        <ele>1443.5</ele>
        <time>2000-01-01T18:26:13.000Z</time>
      </trkpt>
      <trkpt lat="46.10224" lon="6.76766">
        <ele>1444.7</ele>
        <time>2000-01-01T18:26:23.000Z</time>
      </trkpt>
      <trkpt lat="46.10217" lon="6.76763">
        <ele>1450</ele>
        <time>2000-01-01T18:26:33.000Z</time>
      </trkpt>
      <trkpt lat="46.10212" lon="6.76763">
        <ele>1449.5</ele>
        <time>2000-01-01T18:26:43.000Z</time>
      </trkpt>
      <trkpt lat="46.10205" lon="6.76762">
        <ele>1452.4</ele>
        <time>2000-01-01T18:26:53.000Z</time>
      </trkpt>
      <trkpt lat="46.10195" lon="6.76761">
        <ele>1458</ele>
        <time>2000-01-01T18:27:03.000Z</time>
      </trkpt>
      <trkpt lat="46.10183" lon="6.7676">
        <ele>1461.7</ele>
        <time>2000-01-01T18:27:13.000Z</time>
      </trkpt>
      <trkpt lat="46.10175" lon="6.76759">
        <ele>1464</ele>
        <time>2000-01-01T18:27:23.000Z</time>
      </trkpt>
      <trkpt lat="46.10166" lon="6.76758">
        <ele>1468.6</ele>
        <time>2000-01-01T18:27:33.000Z</time>
      </trkpt>
      <trkpt lat="46.10162" lon="6.76758">
        <ele>1470.3</ele>
        <time>2000-01-01T18:27:43.000Z</time>
      </trkpt>
      <trkpt lat="46.10157" lon="6.76756">
        <ele>1471.9</ele>
        <time>2000-01-01T18:27:53.000Z</time>
      </trkpt>
      <trkpt lat="46.10152" lon="6.76753">
        <ele>1473</ele>
        <time>2000-01-01T18:28:03.000Z</time>
      </trkpt>
      <trkpt lat="46.10147" lon="6.7675">
        <ele>1474.5</ele>
        <time>2000-01-01T18:28:13.000Z</time>
      </trkpt>
      <trkpt lat="46.10144" lon="6.76748">
        <ele>1475.1</ele>
        <time>2000-01-01T18:28:23.000Z</time>
      </trkpt>
      <trkpt lat="46.10134" lon="6.76742">
        <ele>1477</ele>
        <time>2000-01-01T18:28:33.000Z</time>
      </trkpt>
      <trkpt lat="46.10129" lon="6.76738">
        <ele>1478.2</ele>
        <time>2000-01-01T18:28:43.000Z</time>
      </trkpt>
      <trkpt lat="46.10124" lon="6.76734">
        <ele>1478.9</ele>
        <time>2000-01-01T18:28:53.000Z</time>
      </trkpt>
      <trkpt lat="46.10116" lon="6.76728">
        <ele>1480</ele>
        <time>2000-01-01T18:29:03.000Z</time>
      </trkpt>
      <trkpt lat="46.10114" lon="6.76726">
        <ele>1480.2</ele>
        <time>2000-01-01T18:29:13.000Z</time>
      </trkpt>
      <trkpt lat="46.10111" lon="6.76723">
        <ele>1480.3</ele>
        <time>2000-01-01T18:29:23.000Z</time>
      </trkpt>
      <trkpt lat="46.10109" lon="6.76722">
        <ele>1481</ele>
        <time>2000-01-01T18:29:33.000Z</time>
      </trkpt>
      <trkpt lat="46.10106" lon="6.7672">
        <ele>1481.8</ele>
        <time>2000-01-01T18:29:43.000Z</time>
      </trkpt>
      <trkpt lat="46.10104" lon="6.76722">
        <ele>1483.5</ele>
        <time>2000-01-01T18:29:53.000Z</time>
      </trkpt>
      <trkpt lat="46.10105" lon="6.76727">
        <ele>1484.8</ele>
        <time>2000-01-01T18:30:03.000Z</time>
      </trkpt>
      <trkpt lat="46.10106" lon="6.76732">
        <ele>1487</ele>
        <time>2000-01-01T18:30:13.000Z</time>
      </trkpt>
      <trkpt lat="46.10109" lon="6.76741">
        <ele>1487.8</ele>
        <time>2000-01-01T18:30:23.000Z</time>
      </trkpt>
      <trkpt lat="46.10111" lon="6.76746">
        <ele>1488.6</ele>
        <time>2000-01-01T18:30:33.000Z</time>
      </trkpt>
      <trkpt lat="46.10117" lon="6.76757">
        <ele>1490</ele>
        <time>2000-01-01T18:30:43.000Z</time>
      </trkpt>
      <trkpt lat="46.10118" lon="6.7676">
        <ele>1490.2</ele>
        <time>2000-01-01T18:30:53.000Z</time>
      </trkpt>
      <trkpt lat="46.10119" lon="6.76764">
        <ele>1491</ele>
        <time>2000-01-01T18:31:03.000Z</time>
      </trkpt>
      <trkpt lat="46.10121" lon="6.76769">
        <ele>1491.6</ele>
        <time>2000-01-01T18:31:13.000Z</time>
      </trkpt>
      <trkpt lat="46.10122" lon="6.76774">
        <ele>1492.7</ele>
        <time>2000-01-01T18:31:23.000Z</time>
      </trkpt>
      <trkpt lat="46.10122" lon="6.76778">
        <ele>1494</ele>
        <time>2000-01-01T18:31:33.000Z</time>
      </trkpt>
      <trkpt lat="46.10124" lon="6.76787">
        <ele>1496</ele>
        <time>2000-01-01T18:31:43.000Z</time>
      </trkpt>
      <trkpt lat="46.10124" lon="6.7679">
        <ele>1497.1</ele>
        <time>2000-01-01T18:31:53.000Z</time>
      </trkpt>
      <trkpt lat="46.10126" lon="6.76791">
        <ele>1496.6</ele>
        <time>2000-01-01T18:32:03.000Z</time>
      </trkpt>
      <trkpt lat="46.10127" lon="6.76792">
        <ele>1496.5</ele>
        <time>2000-01-01T18:32:13.000Z</time>
      </trkpt>
      <trkpt lat="46.10129" lon="6.76793">
        <ele>1496.1</ele>
        <time>2000-01-01T18:32:23.000Z</time>
      </trkpt>
      <trkpt lat="46.10131" lon="6.76795">
        <ele>1496</ele>
        <time>2000-01-01T18:32:33.000Z</time>
      </trkpt>
      <trkpt lat="46.10133" lon="6.76797">
        <ele>1495.9</ele>
        <time>2000-01-01T18:32:43.000Z</time>
      </trkpt>
      <trkpt lat="46.10135" lon="6.768">
        <ele>1496.3</ele>
        <time>2000-01-01T18:32:53.000Z</time>
      </trkpt>
      <trkpt lat="46.10137" lon="6.76803">
        <ele>1496.7</ele>
        <time>2000-01-01T18:33:03.000Z</time>
      </trkpt>
      <trkpt lat="46.10138" lon="6.76805">
        <ele>1497</ele>
        <time>2000-01-01T18:33:13.000Z</time>
      </trkpt>
      <trkpt lat="46.1014" lon="6.7681">
        <ele>1498</ele>
        <time>2000-01-01T18:33:23.000Z</time>
      </trkpt>
      <trkpt lat="46.10143" lon="6.76818">
        <ele>1499.5</ele>
        <time>2000-01-01T18:33:33.000Z</time>
      </trkpt>
      <trkpt lat="46.10147" lon="6.76829">
        <ele>1501.4</ele>
        <time>2000-01-01T18:33:43.000Z</time>
      </trkpt>
      <trkpt lat="46.10153" lon="6.76843">
        <ele>1504</ele>
        <time>2000-01-01T18:33:53.000Z</time>
      </trkpt>
      <trkpt lat="46.10158" lon="6.76858">
        <ele>1504</ele>
        <time>2000-01-01T18:34:03.000Z</time>
      </trkpt>
      <trkpt lat="46.1016" lon="6.76861">
        <ele>1503.9</ele>
        <time>2000-01-01T18:34:13.000Z</time>
      </trkpt>
      <trkpt lat="46.10162" lon="6.76864">
        <ele>1503.7</ele>
        <time>2000-01-01T18:34:23.000Z</time>
      </trkpt>
      <trkpt lat="46.10167" lon="6.76872">
        <ele>1504</ele>
        <time>2000-01-01T18:34:33.000Z</time>
      </trkpt>
      <trkpt lat="46.10177" lon="6.76885">
        <ele>1503.7</ele>
        <time>2000-01-01T18:34:43.000Z</time>
      </trkpt>
      <trkpt lat="46.10179" lon="6.76887">
        <ele>1503.5</ele>
        <time>2000-01-01T18:34:53.000Z</time>
      </trkpt>
      <trkpt lat="46.10182" lon="6.76891">
        <ele>1504</ele>
        <time>2000-01-01T18:35:03.000Z</time>
      </trkpt>
      <trkpt lat="46.10185" lon="6.76897">
        <ele>1504.2</ele>
        <time>2000-01-01T18:35:13.000Z</time>
      </trkpt>
      <trkpt lat="46.10186" lon="6.769">
        <ele>1504.7</ele>
        <time>2000-01-01T18:35:23.000Z</time>
      </trkpt>
      <trkpt lat="46.10189" lon="6.76903">
        <ele>1504.4</ele>
        <time>2000-01-01T18:35:33.000Z</time>
      </trkpt>
      <trkpt lat="46.10194" lon="6.76911">
        <ele>1504.7</ele>
        <time>2000-01-01T18:35:43.000Z</time>
      </trkpt>
      <trkpt lat="46.10196" lon="6.76917">
        <ele>1505</ele>
        <time>2000-01-01T18:35:53.000Z</time>
      </trkpt>
      <trkpt lat="46.10197" lon="6.76924">
        <ele>1506.9</ele>
        <time>2000-01-01T18:36:03.000Z</time>
      </trkpt>
      <trkpt lat="46.10197" lon="6.76929">
        <ele>1508.2</ele>
        <time>2000-01-01T18:36:13.000Z</time>
      </trkpt>
      <trkpt lat="46.102" lon="6.76936">
        <ele>1508.9</ele>
        <time>2000-01-01T18:36:23.000Z</time>
      </trkpt>
      <trkpt lat="46.10202" lon="6.76943">
        <ele>1506</ele>
        <time>2000-01-01T18:36:33.000Z</time>
      </trkpt>
      <trkpt lat="46.10205" lon="6.7695">
        <ele>1511</ele>
        <time>2000-01-01T18:36:43.000Z</time>
      </trkpt>
      <trkpt lat="46.10207" lon="6.76953">
        <ele>1511.3</ele>
        <time>2000-01-01T18:36:53.000Z</time>
      </trkpt>
      <trkpt lat="46.10209" lon="6.76954">
        <ele>1510.9</ele>
        <time>2000-01-01T18:37:03.000Z</time>
      </trkpt>
      <trkpt lat="46.1021" lon="6.76955">
        <ele>1510.8</ele>
        <time>2000-01-01T18:37:13.000Z</time>
      </trkpt>
      <trkpt lat="46.10211" lon="6.76956">
        <ele>1510.8</ele>
        <time>2000-01-01T18:37:23.000Z</time>
      </trkpt>
      <trkpt lat="46.10216" lon="6.76957">
        <ele>1509.3</ele>
        <time>2000-01-01T18:37:33.000Z</time>
      </trkpt>
      <trkpt lat="46.10219" lon="6.76957">
        <ele>1508</ele>
        <time>2000-01-01T18:37:43.000Z</time>
      </trkpt>
      <trkpt lat="46.1022" lon="6.76958">
        <ele>1508.2</ele>
        <time>2000-01-01T18:37:53.000Z</time>
      </trkpt>
      <trkpt lat="46.10222" lon="6.76959">
        <ele>1507.8</ele>
        <time>2000-01-01T18:38:03.000Z</time>
      </trkpt>
      <trkpt lat="46.10224" lon="6.76962">
        <ele>1508.3</ele>
        <time>2000-01-01T18:38:13.000Z</time>
      </trkpt>
      <trkpt lat="46.10226" lon="6.76966">
        <ele>1509.1</ele>
        <time>2000-01-01T18:38:23.000Z</time>
      </trkpt>
      <trkpt lat="46.10228" lon="6.7697">
        <ele>1509.9</ele>
        <time>2000-01-01T18:38:33.000Z</time>
      </trkpt>
      <trkpt lat="46.1023" lon="6.76972">
        <ele>1510</ele>
        <time>2000-01-01T18:38:43.000Z</time>
      </trkpt>
      <trkpt lat="46.10232" lon="6.76976">
        <ele>1508</ele>
        <time>2000-01-01T18:38:53.000Z</time>
      </trkpt>
      <trkpt lat="46.10234" lon="6.76979">
        <ele>1510.5</ele>
        <time>2000-01-01T18:39:03.000Z</time>
      </trkpt>
      <trkpt lat="46.10238" lon="6.76983">
        <ele>1510.3</ele>
        <time>2000-01-01T18:39:13.000Z</time>
      </trkpt>
      <trkpt lat="46.1024" lon="6.76986">
        <ele>1510.4</ele>
        <time>2000-01-01T18:39:23.000Z</time>
      </trkpt>
      <trkpt lat="46.10241" lon="6.76988">
        <ele>1510.5</ele>
        <time>2000-01-01T18:39:33.000Z</time>
      </trkpt>
      <trkpt lat="46.10242" lon="6.76991">
        <ele>1510.8</ele>
        <time>2000-01-01T18:39:43.000Z</time>
      </trkpt>
      <trkpt lat="46.10244" lon="6.76996">
        <ele>1511.2</ele>
        <time>2000-01-01T18:39:53.000Z</time>
      </trkpt>
      <trkpt lat="46.10245" lon="6.76997">
        <ele>1511</ele>
        <time>2000-01-01T18:40:03.000Z</time>
      </trkpt>
      <trkpt lat="46.10246" lon="6.76998">
        <ele>1510.9</ele>
        <time>2000-01-01T18:40:13.000Z</time>
      </trkpt>
      <trkpt lat="46.10247" lon="6.77003">
        <ele>1511.5</ele>
        <time>2000-01-01T18:40:23.000Z</time>
      </trkpt>
      <trkpt lat="46.10246" lon="6.77005">
        <ele>1512.2</ele>
        <time>2000-01-01T18:40:33.000Z</time>
      </trkpt>
      <trkpt lat="46.10245" lon="6.77007">
        <ele>1512.9</ele>
        <time>2000-01-01T18:40:43.000Z</time>
      </trkpt>
      <trkpt lat="46.10243" lon="6.77013">
        <ele>1514.7</ele>
        <time>2000-01-01T18:40:53.000Z</time>
      </trkpt>
      <trkpt lat="46.10242" lon="6.77016">
        <ele>1515.6</ele>
        <time>2000-01-01T18:41:03.000Z</time>
      </trkpt>
      <trkpt lat="46.10242" lon="6.77019">
        <ele>1516.2</ele>
        <time>2000-01-01T18:41:13.000Z</time>
      </trkpt>
      <trkpt lat="46.10242" lon="6.77024">
        <ele>1516</ele>
        <time>2000-01-01T18:41:23.000Z</time>
      </trkpt>
      <trkpt lat="46.10242" lon="6.77026">
        <ele>1517.5</ele>
        <time>2000-01-01T18:41:33.000Z</time>
      </trkpt>
      <trkpt lat="46.10243" lon="6.77028">
        <ele>1517.6</ele>
        <time>2000-01-01T18:41:43.000Z</time>
      </trkpt>
      <trkpt lat="46.10244" lon="6.7703">
        <ele>1517.9</ele>
        <time>2000-01-01T18:41:53.000Z</time>
      </trkpt>
      <trkpt lat="46.10245" lon="6.77032">
        <ele>1518.3</ele>
        <time>2000-01-01T18:42:03.000Z</time>
      </trkpt>
      <trkpt lat="46.10245" lon="6.77034">
        <ele>1519</ele>
        <time>2000-01-01T18:42:13.000Z</time>
      </trkpt>
      <trkpt lat="46.10247" lon="6.77037">
        <ele>1519.4</ele>
        <time>2000-01-01T18:42:23.000Z</time>
      </trkpt>
      <trkpt lat="46.10248" lon="6.77039">
        <ele>1519.7</ele>
        <time>2000-01-01T18:42:33.000Z</time>
      </trkpt>
      <trkpt lat="46.1025" lon="6.77043">
        <ele>1520.5</ele>
        <time>2000-01-01T18:42:43.000Z</time>
      </trkpt>
      <trkpt lat="46.10251" lon="6.77044">
        <ele>1520.6</ele>
        <time>2000-01-01T18:42:53.000Z</time>
      </trkpt>
      <trkpt lat="46.10253" lon="6.77048">
        <ele>1518</ele>
        <time>2000-01-01T18:43:03.000Z</time>
      </trkpt>
      <trkpt lat="46.10255" lon="6.77052">
        <ele>1522.2</ele>
        <time>2000-01-01T18:43:13.000Z</time>
      </trkpt>
      <trkpt lat="46.10256" lon="6.7706">
        <ele>1524.7</ele>
        <time>2000-01-01T18:43:23.000Z</time>
      </trkpt>
      <trkpt lat="46.10256" lon="6.77065">
        <ele>1526.5</ele>
        <time>2000-01-01T18:43:33.000Z</time>
      </trkpt>
      <trkpt lat="46.10257" lon="6.77069">
        <ele>1527.6</ele>
        <time>2000-01-01T18:43:43.000Z</time>
      </trkpt>
      <trkpt lat="46.10258" lon="6.77072">
        <ele>1528.3</ele>
        <time>2000-01-01T18:43:53.000Z</time>
      </trkpt>
      <trkpt lat="46.10259" lon="6.77074">
        <ele>1528</ele>
        <time>2000-01-01T18:44:03.000Z</time>
      </trkpt>
      <trkpt lat="46.10261" lon="6.77076">
        <ele>1528.8</ele>
        <time>2000-01-01T18:44:13.000Z</time>
      </trkpt>
      <trkpt lat="46.10265" lon="6.7708">
        <ele>1528.9</ele>
        <time>2000-01-01T18:44:23.000Z</time>
      </trkpt>
      <trkpt lat="46.1027" lon="6.77088">
        <ele>1530.1</ele>
        <time>2000-01-01T18:44:33.000Z</time>
      </trkpt>
      <trkpt lat="46.10272" lon="6.7709">
        <ele>1530</ele>
        <time>2000-01-01T18:44:43.000Z</time>
      </trkpt>
      <trkpt lat="46.10275" lon="6.77091">
        <ele>1528</ele>
        <time>2000-01-01T18:44:53.000Z</time>
      </trkpt>
      <trkpt lat="46.10278" lon="6.77092">
        <ele>1528.5</ele>
        <time>2000-01-01T18:45:03.000Z</time>
      </trkpt>
      <trkpt lat="46.1028" lon="6.77093">
        <ele>1528.6</ele>
        <time>2000-01-01T18:45:13.000Z</time>
      </trkpt>
      <trkpt lat="46.10283" lon="6.77094">
        <ele>1528.7</ele>
        <time>2000-01-01T18:45:23.000Z</time>
      </trkpt>
      <trkpt lat="46.10285" lon="6.77097">
        <ele>1529.3</ele>
        <time>2000-01-01T18:45:33.000Z</time>
      </trkpt>
      <trkpt lat="46.10286" lon="6.771">
        <ele>1530</ele>
        <time>2000-01-01T18:45:43.000Z</time>
      </trkpt>
      <trkpt lat="46.10287" lon="6.77102">
        <ele>1530.4</ele>
        <time>2000-01-01T18:45:53.000Z</time>
      </trkpt>
      <trkpt lat="46.10289" lon="6.77103">
        <ele>1530.4</ele>
        <time>2000-01-01T18:46:03.000Z</time>
      </trkpt>
      <trkpt lat="46.10291" lon="6.77104">
        <ele>1528</ele>
        <time>2000-01-01T18:46:13.000Z</time>
      </trkpt>
      <trkpt lat="46.10293" lon="6.77107">
        <ele>1530.9</ele>
        <time>2000-01-01T18:46:23.000Z</time>
      </trkpt>
      <trkpt lat="46.10294" lon="6.77109">
        <ele>1531.2</ele>
        <time>2000-01-01T18:46:33.000Z</time>
      </trkpt>
      <trkpt lat="46.10296" lon="6.77111">
        <ele>1531.4</ele>
        <time>2000-01-01T18:46:43.000Z</time>
      </trkpt>
      <trkpt lat="46.10297" lon="6.77111">
        <ele>1531.2</ele>
        <time>2000-01-01T18:46:53.000Z</time>
      </trkpt>
      <trkpt lat="46.10298" lon="6.77112">
        <ele>1531.3</ele>
        <time>2000-01-01T18:47:03.000Z</time>
      </trkpt>
      <trkpt lat="46.103" lon="6.77113">
        <ele>1531.1</ele>
        <time>2000-01-01T18:47:13.000Z</time>
      </trkpt>
      <trkpt lat="46.10302" lon="6.77114">
        <ele>1531</ele>
        <time>2000-01-01T18:47:23.000Z</time>
      </trkpt>
      <trkpt lat="46.10305" lon="6.77116">
        <ele>1530.8</ele>
        <time>2000-01-01T18:47:33.000Z</time>
      </trkpt>
      <trkpt lat="46.10309" lon="6.77119">
        <ele>1530</ele>
        <time>2000-01-01T18:47:43.000Z</time>
      </trkpt>
      <trkpt lat="46.10316" lon="6.77127">
        <ele>1532.1</ele>
        <time>2000-01-01T18:47:53.000Z</time>
      </trkpt>
      <trkpt lat="46.10318" lon="6.77128">
        <ele>1532.3</ele>
        <time>2000-01-01T18:48:03.000Z</time>
      </trkpt>
      <trkpt lat="46.10321" lon="6.77129">
        <ele>1532.4</ele>
        <time>2000-01-01T18:48:13.000Z</time>
      </trkpt>
      <trkpt lat="46.10322" lon="6.77131">
        <ele>1532.7</ele>
        <time>2000-01-01T18:48:23.000Z</time>
      </trkpt>
      <trkpt lat="46.10323" lon="6.77133">
        <ele>1533</ele>
        <time>2000-01-01T18:48:33.000Z</time>
      </trkpt>
      <trkpt lat="46.10327" lon="6.77142">
        <ele>1533</ele>
        <time>2000-01-01T18:48:43.000Z</time>
      </trkpt>
      <trkpt lat="46.10326" lon="6.77144">
        <ele>1535.2</ele>
        <time>2000-01-01T18:48:53.000Z</time>
      </trkpt>
      <trkpt lat="46.10326" lon="6.77146">
        <ele>1535.6</ele>
        <time>2000-01-01T18:49:03.000Z</time>
      </trkpt>
      <trkpt lat="46.10324" lon="6.7715">
        <ele>1536.7</ele>
        <time>2000-01-01T18:49:13.000Z</time>
      </trkpt>
      <trkpt lat="46.10324" lon="6.77152">
        <ele>1537.2</ele>
        <time>2000-01-01T18:49:23.000Z</time>
      </trkpt>
      <trkpt lat="46.10325" lon="6.77154">
        <ele>1537.5</ele>
        <time>2000-01-01T18:49:33.000Z</time>
      </trkpt>
      <trkpt lat="46.10326" lon="6.77156">
        <ele>1537.9</ele>
        <time>2000-01-01T18:49:43.000Z</time>
      </trkpt>
      <trkpt lat="46.10327" lon="6.77158">
        <ele>1538.2</ele>
        <time>2000-01-01T18:49:53.000Z</time>
      </trkpt>
      <trkpt lat="46.10328" lon="6.77159">
        <ele>1538.3</ele>
        <time>2000-01-01T18:50:03.000Z</time>
      </trkpt>
      <trkpt lat="46.10329" lon="6.77162">
        <ele>1538.8</ele>
        <time>2000-01-01T18:50:13.000Z</time>
      </trkpt>
      <trkpt lat="46.10331" lon="6.77165">
        <ele>1539.1</ele>
        <time>2000-01-01T18:50:23.000Z</time>
      </trkpt>
      <trkpt lat="46.10332" lon="6.77166">
        <ele>1537</ele>
        <time>2000-01-01T18:50:33.000Z</time>
      </trkpt>
      <trkpt lat="46.10333" lon="6.77169">
        <ele>1539.9</ele>
        <time>2000-01-01T18:50:43.000Z</time>
      </trkpt>
      <trkpt lat="46.10334" lon="6.77172">
        <ele>1540.9</ele>
        <time>2000-01-01T18:50:53.000Z</time>
      </trkpt>
      <trkpt lat="46.10335" lon="6.77174">
        <ele>1541.6</ele>
        <time>2000-01-01T18:51:03.000Z</time>
      </trkpt>
      <trkpt lat="46.10335" lon="6.77177">
        <ele>1542.6</ele>
        <time>2000-01-01T18:51:13.000Z</time>
      </trkpt>
      <trkpt lat="46.10336" lon="6.77177">
        <ele>1542.6</ele>
        <time>2000-01-01T18:51:23.000Z</time>
      </trkpt>
      <trkpt lat="46.10338" lon="6.77179">
        <ele>1543.1</ele>
        <time>2000-01-01T18:51:33.000Z</time>
      </trkpt>
      <trkpt lat="46.10339" lon="6.7718">
        <ele>1543.4</ele>
        <time>2000-01-01T18:51:43.000Z</time>
      </trkpt>
      <trkpt lat="46.10343" lon="6.77184">
        <ele>1544.4</ele>
        <time>2000-01-01T18:51:53.000Z</time>
      </trkpt>
      <trkpt lat="46.10344" lon="6.77185">
        <ele>1542</ele>
        <time>2000-01-01T18:52:03.000Z</time>
      </trkpt>
      <trkpt lat="46.10346" lon="6.77188">
        <ele>1545.3</ele>
        <time>2000-01-01T18:52:13.000Z</time>
      </trkpt>
      <trkpt lat="46.10348" lon="6.77191">
        <ele>1545.9</ele>
        <time>2000-01-01T18:52:23.000Z</time>
      </trkpt>
      <trkpt lat="46.10348" lon="6.77193">
        <ele>1546.5</ele>
        <time>2000-01-01T18:52:33.000Z</time>
      </trkpt>
      <trkpt lat="46.1035" lon="6.77193">
        <ele>1546.2</ele>
        <time>2000-01-01T18:52:43.000Z</time>
      </trkpt>
      <trkpt lat="46.10352" lon="6.77193">
        <ele>1545.9</ele>
        <time>2000-01-01T18:52:53.000Z</time>
      </trkpt>
      <trkpt lat="46.10354" lon="6.77194">
        <ele>1545.9</ele>
        <time>2000-01-01T18:53:03.000Z</time>
      </trkpt>
      <trkpt lat="46.10356" lon="6.77196">
        <ele>1546.1</ele>
        <time>2000-01-01T18:53:13.000Z</time>
      </trkpt>
      <trkpt lat="46.10356" lon="6.77197">
        <ele>1546.4</ele>
        <time>2000-01-01T18:53:23.000Z</time>
      </trkpt>
      <trkpt lat="46.10356" lon="6.77199">
        <ele>1546.9</ele>
        <time>2000-01-01T18:53:33.000Z</time>
      </trkpt>
      <trkpt lat="46.10355" lon="6.77201">
        <ele>1548</ele>
        <time>2000-01-01T18:53:43.000Z</time>
      </trkpt>
      <trkpt lat="46.10355" lon="6.77205">
        <ele>1548.6</ele>
        <time>2000-01-01T18:53:53.000Z</time>
      </trkpt>
      <trkpt lat="46.10356" lon="6.77207">
        <ele>1549</ele>
        <time>2000-01-01T18:54:03.000Z</time>
      </trkpt>
      <trkpt lat="46.1036" lon="6.77215">
        <ele>1550.4</ele>
        <time>2000-01-01T18:54:13.000Z</time>
      </trkpt>
      <trkpt lat="46.10361" lon="6.77217">
        <ele>1550.7</ele>
        <time>2000-01-01T18:54:23.000Z</time>
      </trkpt>
      <trkpt lat="46.10362" lon="6.77218">
        <ele>1550.7</ele>
        <time>2000-01-01T18:54:33.000Z</time>
      </trkpt>
      <trkpt lat="46.10363" lon="6.7722">
        <ele>1550.9</ele>
        <time>2000-01-01T18:54:43.000Z</time>
      </trkpt>
      <trkpt lat="46.10362" lon="6.77222">
        <ele>1551.7</ele>
        <time>2000-01-01T18:54:53.000Z</time>
      </trkpt>
      <trkpt lat="46.1036" lon="6.77223">
        <ele>1551</ele>
        <time>2000-01-01T18:55:03.000Z</time>
      </trkpt>
      <trkpt lat="46.10358" lon="6.77225">
        <ele>1553.2</ele>
        <time>2000-01-01T18:55:13.000Z</time>
      </trkpt>
      <trkpt lat="46.10355" lon="6.7723">
        <ele>1554.8</ele>
        <time>2000-01-01T18:55:23.000Z</time>
      </trkpt>
      <trkpt lat="46.10353" lon="6.7723">
        <ele>1555.2</ele>
        <time>2000-01-01T18:55:33.000Z</time>
      </trkpt>
      <trkpt lat="46.1035" lon="6.7723">
        <ele>1555.8</ele>
        <time>2000-01-01T18:55:43.000Z</time>
      </trkpt>
      <trkpt lat="46.10345" lon="6.77228">
        <ele>1556.3</ele>
        <time>2000-01-01T18:55:53.000Z</time>
      </trkpt>
      <trkpt lat="46.10341" lon="6.77227">
        <ele>1554</ele>
        <time>2000-01-01T18:56:03.000Z</time>
      </trkpt>
      <trkpt lat="46.10334" lon="6.77226">
        <ele>1557.8</ele>
        <time>2000-01-01T18:56:13.000Z</time>
      </trkpt>
      <trkpt lat="46.10331" lon="6.77227">
        <ele>1558.9</ele>
        <time>2000-01-01T18:56:23.000Z</time>
      </trkpt>
      <trkpt lat="46.10329" lon="6.77229">
        <ele>1560</ele>
        <time>2000-01-01T18:56:33.000Z</time>
      </trkpt>
      <trkpt lat="46.10327" lon="6.77232">
        <ele>1561.4</ele>
        <time>2000-01-01T18:56:43.000Z</time>
      </trkpt>
      <trkpt lat="46.10326" lon="6.77233">
        <ele>1562</ele>
        <time>2000-01-01T18:56:53.000Z</time>
      </trkpt>
      <trkpt lat="46.10321" lon="6.77233">
        <ele>1562</ele>
        <time>2000-01-01T18:57:03.000Z</time>
      </trkpt>
      <trkpt lat="46.10322" lon="6.77234">
        <ele>1563.6</ele>
        <time>2000-01-01T18:57:13.000Z</time>
      </trkpt>
      <trkpt lat="46.10323" lon="6.77236">
        <ele>1563.8</ele>
        <time>2000-01-01T18:57:23.000Z</time>
      </trkpt>
      <trkpt lat="46.10326" lon="6.77239">
        <ele>1563.7</ele>
        <time>2000-01-01T18:57:33.000Z</time>
      </trkpt>
      <trkpt lat="46.10328" lon="6.77241">
        <ele>1563.5</ele>
        <time>2000-01-01T18:57:43.000Z</time>
      </trkpt>
      <trkpt lat="46.10329" lon="6.77241">
        <ele>1563.2</ele>
        <time>2000-01-01T18:57:53.000Z</time>
      </trkpt>
      <trkpt lat="46.1033" lon="6.77242">
        <ele>1563.1</ele>
        <time>2000-01-01T18:58:03.000Z</time>
      </trkpt>
      <trkpt lat="46.10331" lon="6.77243">
        <ele>1563</ele>
        <time>2000-01-01T18:58:13.000Z</time>
      </trkpt>
      <trkpt lat="46.10334" lon="6.77246">
        <ele>1562.9</ele>
        <time>2000-01-01T18:58:23.000Z</time>
      </trkpt>
      <trkpt lat="46.10336" lon="6.77249">
        <ele>1562</ele>
        <time>2000-01-01T18:58:33.000Z</time>
      </trkpt>
      <trkpt lat="46.10337" lon="6.7725">
        <ele>1563.2</ele>
        <time>2000-01-01T18:58:43.000Z</time>
      </trkpt>
      <trkpt lat="46.10338" lon="6.77252">
        <ele>1563.4</ele>
        <time>2000-01-01T18:58:53.000Z</time>
      </trkpt>
      <trkpt lat="46.1034" lon="6.77254">
        <ele>1563.5</ele>
        <time>2000-01-01T18:59:03.000Z</time>
      </trkpt>
      <trkpt lat="46.10341" lon="6.77256">
        <ele>1563.7</ele>
        <time>2000-01-01T18:59:13.000Z</time>
      </trkpt>
      <trkpt lat="46.10342" lon="6.77259">
        <ele>1564.2</ele>
        <time>2000-01-01T18:59:23.000Z</time>
      </trkpt>
      <trkpt lat="46.10343" lon="6.77262">
        <ele>1564.7</ele>
        <time>2000-01-01T18:59:33.000Z</time>
      </trkpt>
      <trkpt lat="46.10344" lon="6.77264">
        <ele>1564.9</ele>
        <time>2000-01-01T18:59:43.000Z</time>
      </trkpt>
      <trkpt lat="46.10346" lon="6.77265">
        <ele>1564.8</ele>
        <time>2000-01-01T18:59:53.000Z</time>
      </trkpt>
      <trkpt lat="46.10347" lon="6.77266">
        <ele>1564.8</ele>
        <time>2000-01-01T19:00:03.000Z</time>
      </trkpt>
      <trkpt lat="46.10347" lon="6.77269">
        <ele>1563</ele>
        <time>2000-01-01T19:00:13.000Z</time>
      </trkpt>
      <trkpt lat="46.10349" lon="6.7727">
        <ele>1565.3</ele>
        <time>2000-01-01T19:00:23.000Z</time>
      </trkpt>
      <trkpt lat="46.10352" lon="6.77272">
        <ele>1565.3</ele>
        <time>2000-01-01T19:00:33.000Z</time>
      </trkpt>
      <trkpt lat="46.10354" lon="6.77274">
        <ele>1565.4</ele>
        <time>2000-01-01T19:00:43.000Z</time>
      </trkpt>
      <trkpt lat="46.10357" lon="6.77277">
        <ele>1565.5</ele>
        <time>2000-01-01T19:00:53.000Z</time>
      </trkpt>
      <trkpt lat="46.1036" lon="6.7728">
        <ele>1566.2</ele>
        <time>2000-01-01T19:01:03.000Z</time>
      </trkpt>
      <trkpt lat="46.10361" lon="6.77281">
        <ele>1566.4</ele>
        <time>2000-01-01T19:01:13.000Z</time>
      </trkpt>
      <trkpt lat="46.10362" lon="6.77283">
        <ele>1567.2</ele>
        <time>2000-01-01T19:01:23.000Z</time>
      </trkpt>
      <trkpt lat="46.10363" lon="6.77286">
        <ele>1565</ele>
        <time>2000-01-01T19:01:33.000Z</time>
      </trkpt>
      <trkpt lat="46.10364" lon="6.77287">
        <ele>1568.8</ele>
        <time>2000-01-01T19:01:43.000Z</time>
      </trkpt>
      <trkpt lat="46.10365" lon="6.77287">
        <ele>1568.8</ele>
        <time>2000-01-01T19:01:53.000Z</time>
      </trkpt>
      <trkpt lat="46.10366" lon="6.77288">
        <ele>1569.2</ele>
        <time>2000-01-01T19:02:03.000Z</time>
      </trkpt>
      <trkpt lat="46.10366" lon="6.77288">
        <ele>1569.2</ele>
        <time>2000-01-01T19:02:13.000Z</time>
      </trkpt>
      <trkpt lat="46.10368" lon="6.7729">
        <ele>1569.8</ele>
        <time>2000-01-01T19:02:23.000Z</time>
      </trkpt>
      <trkpt lat="46.10372" lon="6.77291">
        <ele>1570</ele>
        <time>2000-01-01T19:02:33.000Z</time>
      </trkpt>
      <trkpt lat="46.10373" lon="6.77291">
        <ele>1569.9</ele>
        <time>2000-01-01T19:02:43.000Z</time>
      </trkpt>
      <trkpt lat="46.10375" lon="6.77292">
        <ele>1570.1</ele>
        <time>2000-01-01T19:02:53.000Z</time>
      </trkpt>
      <trkpt lat="46.10377" lon="6.77293">
        <ele>1570.3</ele>
        <time>2000-01-01T19:03:03.000Z</time>
      </trkpt>
      <trkpt lat="46.10379" lon="6.77296">
        <ele>1571.2</ele>
        <time>2000-01-01T19:03:13.000Z</time>
      </trkpt>
      <trkpt lat="46.10379" lon="6.773">
        <ele>1572</ele>
        <time>2000-01-01T19:03:23.000Z</time>
      </trkpt>
      <trkpt lat="46.1038" lon="6.77302">
        <ele>1573.1</ele>
        <time>2000-01-01T19:03:33.000Z</time>
      </trkpt>
      <trkpt lat="46.1038" lon="6.77304">
        <ele>1573.8</ele>
        <time>2000-01-01T19:03:43.000Z</time>
      </trkpt>
      <trkpt lat="46.10381" lon="6.77306">
        <ele>1574.3</ele>
        <time>2000-01-01T19:03:53.000Z</time>
      </trkpt>
      <trkpt lat="46.10382" lon="6.77307">
        <ele>1574.5</ele>
        <time>2000-01-01T19:04:03.000Z</time>
      </trkpt>
      <trkpt lat="46.10381" lon="6.77311">
        <ele>1576.1</ele>
        <time>2000-01-01T19:04:13.000Z</time>
      </trkpt>
      <trkpt lat="46.10382" lon="6.77313">
        <ele>1576.7</ele>
        <time>2000-01-01T19:04:23.000Z</time>
      </trkpt>
      <trkpt lat="46.10383" lon="6.77314">
        <ele>1576.8</ele>
        <time>2000-01-01T19:04:33.000Z</time>
      </trkpt>
      <trkpt lat="46.10384" lon="6.77314">
        <ele>1576.6</ele>
        <time>2000-01-01T19:04:43.000Z</time>
      </trkpt>
      <trkpt lat="46.10386" lon="6.77318">
        <ele>1577.4</ele>
        <time>2000-01-01T19:04:53.000Z</time>
      </trkpt>
      <trkpt lat="46.10387" lon="6.77318">
        <ele>1577.1</ele>
        <time>2000-01-01T19:05:03.000Z</time>
      </trkpt>
      <trkpt lat="46.10388" lon="6.77319">
        <ele>1577.1</ele>
        <time>2000-01-01T19:05:13.000Z</time>
      </trkpt>
      <trkpt lat="46.10388" lon="6.77321">
        <ele>1574</ele>
        <time>2000-01-01T19:05:23.000Z</time>
      </trkpt>
      <trkpt lat="46.1039" lon="6.77323">
        <ele>1577.8</ele>
        <time>2000-01-01T19:05:33.000Z</time>
      </trkpt>
      <trkpt lat="46.10392" lon="6.77324">
        <ele>1577.7</ele>
        <time>2000-01-01T19:05:43.000Z</time>
      </trkpt>
      <trkpt lat="46.10393" lon="6.77325">
        <ele>1577.8</ele>
        <time>2000-01-01T19:05:53.000Z</time>
      </trkpt>
      <trkpt lat="46.10394" lon="6.77326">
        <ele>1577.9</ele>
        <time>2000-01-01T19:06:03.000Z</time>
      </trkpt>
      <trkpt lat="46.10396" lon="6.77327">
        <ele>1577.8</ele>
        <time>2000-01-01T19:06:13.000Z</time>
      </trkpt>
      <trkpt lat="46.10398" lon="6.77328">
        <ele>1577.6</ele>
        <time>2000-01-01T19:06:23.000Z</time>
      </trkpt>
      <trkpt lat="46.104" lon="6.77329">
        <ele>1577.5</ele>
        <time>2000-01-01T19:06:33.000Z</time>
      </trkpt>
      <trkpt lat="46.10402" lon="6.7733">
        <ele>1577.3</ele>
        <time>2000-01-01T19:06:43.000Z</time>
      </trkpt>
      <trkpt lat="46.10405" lon="6.77332">
        <ele>1577.2</ele>
        <time>2000-01-01T19:06:53.000Z</time>
      </trkpt>
      <trkpt lat="46.10406" lon="6.77334">
        <ele>1577</ele>
        <time>2000-01-01T19:07:03.000Z</time>
      </trkpt>
      <trkpt lat="46.10411" lon="6.77339">
        <ele>1578.1</ele>
        <time>2000-01-01T19:07:13.000Z</time>
      </trkpt>
      <trkpt lat="46.10413" lon="6.77343">
        <ele>1579</ele>
        <time>2000-01-01T19:07:23.000Z</time>
      </trkpt>
      <trkpt lat="46.10414" lon="6.77346">
        <ele>1579.8</ele>
        <time>2000-01-01T19:07:33.000Z</time>
      </trkpt>
      <trkpt lat="46.10418" lon="6.77352">
        <ele>1580.7</ele>
        <time>2000-01-01T19:07:43.000Z</time>
      </trkpt>
      <trkpt lat="46.10419" lon="6.77357">
        <ele>1578</ele>
        <time>2000-01-01T19:07:53.000Z</time>
      </trkpt>
      <trkpt lat="46.1042" lon="6.7736">
        <ele>1582.7</ele>
        <time>2000-01-01T19:08:03.000Z</time>
      </trkpt>
      <trkpt lat="46.10421" lon="6.77361">
        <ele>1582.7</ele>
        <time>2000-01-01T19:08:13.000Z</time>
      </trkpt>
      <trkpt lat="46.10422" lon="6.77363">
        <ele>1583.3</ele>
        <time>2000-01-01T19:08:23.000Z</time>
      </trkpt>
      <trkpt lat="46.10424" lon="6.77364">
        <ele>1583.2</ele>
        <time>2000-01-01T19:08:33.000Z</time>
      </trkpt>
      <trkpt lat="46.10426" lon="6.77364">
        <ele>1582.6</ele>
        <time>2000-01-01T19:08:43.000Z</time>
      </trkpt>
      <trkpt lat="46.10427" lon="6.77363">
        <ele>1581.8</ele>
        <time>2000-01-01T19:08:53.000Z</time>
      </trkpt>
      <trkpt lat="46.10429" lon="6.77365">
        <ele>1582.1</ele>
        <time>2000-01-01T19:09:03.000Z</time>
      </trkpt>
      <trkpt lat="46.10431" lon="6.77367">
        <ele>1582.3</ele>
        <time>2000-01-01T19:09:13.000Z</time>
      </trkpt>
      <trkpt lat="46.10434" lon="6.77372">
        <ele>1579</ele>
        <time>2000-01-01T19:09:23.000Z</time>
      </trkpt>
      <trkpt lat="46.10435" lon="6.77374">
        <ele>1583.8</ele>
        <time>2000-01-01T19:09:33.000Z</time>
      </trkpt>
      <trkpt lat="46.10437" lon="6.77376">
        <ele>1583.9</ele>
        <time>2000-01-01T19:09:43.000Z</time>
      </trkpt>
      <trkpt lat="46.10439" lon="6.77377">
        <ele>1583.6</ele>
        <time>2000-01-01T19:09:53.000Z</time>
      </trkpt>
      <trkpt lat="46.10439" lon="6.77379">
        <ele>1584.4</ele>
        <time>2000-01-01T19:10:03.000Z</time>
      </trkpt>
      <trkpt lat="46.1044" lon="6.77384">
        <ele>1585.9</ele>
        <time>2000-01-01T19:10:13.000Z</time>
      </trkpt>
      <trkpt lat="46.10443" lon="6.77389">
        <ele>1586.6</ele>
        <time>2000-01-01T19:10:23.000Z</time>
      </trkpt>
      <trkpt lat="46.10443" lon="6.77391">
        <ele>1587.3</ele>
        <time>2000-01-01T19:10:33.000Z</time>
      </trkpt>
      <trkpt lat="46.10443" lon="6.77393">
        <ele>1588.1</ele>
        <time>2000-01-01T19:10:43.000Z</time>
      </trkpt>
      <trkpt lat="46.10443" lon="6.77395">
        <ele>1587</ele>
        <time>2000-01-01T19:10:53.000Z</time>
      </trkpt>
      <trkpt lat="46.10443" lon="6.77397">
        <ele>1589.5</ele>
        <time>2000-01-01T19:11:03.000Z</time>
      </trkpt>
      <trkpt lat="46.10444" lon="6.77398">
        <ele>1589.5</ele>
        <time>2000-01-01T19:11:13.000Z</time>
      </trkpt>
      <trkpt lat="46.10445" lon="6.774">
        <ele>1589.8</ele>
        <time>2000-01-01T19:11:23.000Z</time>
      </trkpt>
      <trkpt lat="46.10445" lon="6.77403">
        <ele>1590.9</ele>
        <time>2000-01-01T19:11:33.000Z</time>
      </trkpt>
      <trkpt lat="46.1045" lon="6.77414">
        <ele>1593.3</ele>
        <time>2000-01-01T19:11:43.000Z</time>
      </trkpt>
      <trkpt lat="46.10451" lon="6.77417">
        <ele>1594</ele>
        <time>2000-01-01T19:11:53.000Z</time>
      </trkpt>
      <trkpt lat="46.10453" lon="6.77419">
        <ele>1590</ele>
        <time>2000-01-01T19:12:03.000Z</time>
      </trkpt>
      <trkpt lat="46.10456" lon="6.77422">
        <ele>1593.7</ele>
        <time>2000-01-01T19:12:13.000Z</time>
      </trkpt>
      <trkpt lat="46.10458" lon="6.77422">
        <ele>1593.1</ele>
        <time>2000-01-01T19:12:23.000Z</time>
      </trkpt>
      <trkpt lat="46.10459" lon="6.77424">
        <ele>1593.2</ele>
        <time>2000-01-01T19:12:33.000Z</time>
      </trkpt>
      <trkpt lat="46.10461" lon="6.77427">
        <ele>1593.3</ele>
        <time>2000-01-01T19:12:43.000Z</time>
      </trkpt>
      <trkpt lat="46.10462" lon="6.77431">
        <ele>1594</ele>
        <time>2000-01-01T19:12:53.000Z</time>
      </trkpt>
      <trkpt lat="46.10463" lon="6.77436">
        <ele>1594.9</ele>
        <time>2000-01-01T19:13:03.000Z</time>
      </trkpt>
      <trkpt lat="46.10463" lon="6.77438">
        <ele>1595.4</ele>
        <time>2000-01-01T19:13:13.000Z</time>
      </trkpt>
      <trkpt lat="46.10464" lon="6.7744">
        <ele>1595</ele>
        <time>2000-01-01T19:13:23.000Z</time>
      </trkpt>
      <trkpt lat="46.10465" lon="6.77442">
        <ele>1595.5</ele>
        <time>2000-01-01T19:13:33.000Z</time>
      </trkpt>
      <trkpt lat="46.10467" lon="6.77446">
        <ele>1595.6</ele>
        <time>2000-01-01T19:13:43.000Z</time>
      </trkpt>
      <trkpt lat="46.10468" lon="6.7745">
        <ele>1596</ele>
        <time>2000-01-01T19:13:53.000Z</time>
      </trkpt>
      <trkpt lat="46.10468" lon="6.77454">
        <ele>1596.8</ele>
        <time>2000-01-01T19:14:03.000Z</time>
      </trkpt>
      <trkpt lat="46.10469" lon="6.77459">
        <ele>1597.3</ele>
        <time>2000-01-01T19:14:13.000Z</time>
      </trkpt>
      <trkpt lat="46.1047" lon="6.77462">
        <ele>1597.4</ele>
        <time>2000-01-01T19:14:23.000Z</time>
      </trkpt>
      <trkpt lat="46.1047" lon="6.77464">
        <ele>1597.8</ele>
        <time>2000-01-01T19:14:33.000Z</time>
      </trkpt>
      <trkpt lat="46.10471" lon="6.77466">
        <ele>1596</ele>
        <time>2000-01-01T19:14:43.000Z</time>
      </trkpt>
      <trkpt lat="46.10472" lon="6.77466">
        <ele>1597</ele>
        <time>2000-01-01T19:14:53.000Z</time>
      </trkpt>
      <trkpt lat="46.10474" lon="6.77468">
        <ele>1596.9</ele>
        <time>2000-01-01T19:15:03.000Z</time>
      </trkpt>
      <trkpt lat="46.10476" lon="6.77471">
        <ele>1597</ele>
        <time>2000-01-01T19:15:13.000Z</time>
      </trkpt>
      <trkpt lat="46.10477" lon="6.77473">
        <ele>1597.3</ele>
        <time>2000-01-01T19:15:23.000Z</time>
      </trkpt>
      <trkpt lat="46.10479" lon="6.77475">
        <ele>1597.7</ele>
        <time>2000-01-01T19:15:33.000Z</time>
      </trkpt>
      <trkpt lat="46.10481" lon="6.7748">
        <ele>1599.3</ele>
        <time>2000-01-01T19:15:43.000Z</time>
      </trkpt>
      <trkpt lat="46.10482" lon="6.77485">
        <ele>1601.1</ele>
        <time>2000-01-01T19:15:53.000Z</time>
      </trkpt>
      <trkpt lat="46.10483" lon="6.77487">
        <ele>1597</ele>
        <time>2000-01-01T19:16:03.000Z</time>
      </trkpt>
      <trkpt lat="46.10483" lon="6.77489">
        <ele>1602.4</ele>
        <time>2000-01-01T19:16:13.000Z</time>
      </trkpt>
      <trkpt lat="46.10484" lon="6.77491">
        <ele>1602.8</ele>
        <time>2000-01-01T19:16:23.000Z</time>
      </trkpt>
      <trkpt lat="46.10487" lon="6.77499">
        <ele>1604.8</ele>
        <time>2000-01-01T19:16:33.000Z</time>
      </trkpt>
      <trkpt lat="46.10491" lon="6.77507">
        <ele>1606</ele>
        <time>2000-01-01T19:16:43.000Z</time>
      </trkpt>
      <trkpt lat="46.10496" lon="6.77512">
        <ele>1600</ele>
        <time>2000-01-01T19:16:53.000Z</time>
      </trkpt>
      <trkpt lat="46.10502" lon="6.77513">
        <ele>1604.2</ele>
        <time>2000-01-01T19:17:03.000Z</time>
      </trkpt>
      <trkpt lat="46.10505" lon="6.77517">
        <ele>1604.7</ele>
        <time>2000-01-01T19:17:13.000Z</time>
      </trkpt>
      <trkpt lat="46.10508" lon="6.77522">
        <ele>1605.3</ele>
        <time>2000-01-01T19:17:23.000Z</time>
      </trkpt>
      <trkpt lat="46.10512" lon="6.77524">
        <ele>1603</ele>
        <time>2000-01-01T19:17:33.000Z</time>
      </trkpt>
      <trkpt lat="46.10516" lon="6.77526">
        <ele>1603.8</ele>
        <time>2000-01-01T19:17:43.000Z</time>
      </trkpt>
      <trkpt lat="46.10516" lon="6.77527">
        <ele>1604</ele>
        <time>2000-01-01T19:17:53.000Z</time>
      </trkpt>
      <trkpt lat="46.10517" lon="6.77527">
        <ele>1603.7</ele>
        <time>2000-01-01T19:18:03.000Z</time>
      </trkpt>
      <trkpt lat="46.10519" lon="6.77532">
        <ele>1604.4</ele>
        <time>2000-01-01T19:18:13.000Z</time>
      </trkpt>
      <trkpt lat="46.10519" lon="6.77534">
        <ele>1605</ele>
        <time>2000-01-01T19:18:23.000Z</time>
      </trkpt>
      <trkpt lat="46.1052" lon="6.77537">
        <ele>1605.6</ele>
        <time>2000-01-01T19:18:33.000Z</time>
      </trkpt>
      <trkpt lat="46.10521" lon="6.77539">
        <ele>1605.9</ele>
        <time>2000-01-01T19:18:43.000Z</time>
      </trkpt>
      <trkpt lat="46.10522" lon="6.77542">
        <ele>1606.5</ele>
        <time>2000-01-01T19:18:53.000Z</time>
      </trkpt>
      <trkpt lat="46.10523" lon="6.77543">
        <ele>1606.5</ele>
        <time>2000-01-01T19:19:03.000Z</time>
      </trkpt>
      <trkpt lat="46.10523" lon="6.77545">
        <ele>1605</ele>
        <time>2000-01-01T19:19:13.000Z</time>
      </trkpt>
      <trkpt lat="46.10525" lon="6.77546">
        <ele>1606.8</ele>
        <time>2000-01-01T19:19:23.000Z</time>
      </trkpt>
      <trkpt lat="46.10527" lon="6.7755">
        <ele>1607.4</ele>
        <time>2000-01-01T19:19:33.000Z</time>
      </trkpt>
      <trkpt lat="46.10527" lon="6.77553">
        <ele>1608.4</ele>
        <time>2000-01-01T19:19:43.000Z</time>
      </trkpt>
      <trkpt lat="46.10528" lon="6.77556">
        <ele>1609.1</ele>
        <time>2000-01-01T19:19:53.000Z</time>
      </trkpt>
      <trkpt lat="46.10528" lon="6.77559">
        <ele>1610</ele>
        <time>2000-01-01T19:20:03.000Z</time>
      </trkpt>
      <trkpt lat="46.10527" lon="6.7756">
        <ele>1610.5</ele>
        <time>2000-01-01T19:20:13.000Z</time>
      </trkpt>
      <trkpt lat="46.10525" lon="6.77561">
        <ele>1611.4</ele>
        <time>2000-01-01T19:20:23.000Z</time>
      </trkpt>
      <trkpt lat="46.10524" lon="6.77563">
        <ele>1612.3</ele>
        <time>2000-01-01T19:20:33.000Z</time>
      </trkpt>
      <trkpt lat="46.10525" lon="6.77565">
        <ele>1612.6</ele>
        <time>2000-01-01T19:20:43.000Z</time>
      </trkpt>
      <trkpt lat="46.10526" lon="6.77568">
        <ele>1610</ele>
        <time>2000-01-01T19:20:53.000Z</time>
      </trkpt>
      <trkpt lat="46.10527" lon="6.7757">
        <ele>1613.4</ele>
        <time>2000-01-01T19:21:03.000Z</time>
      </trkpt>
      <trkpt lat="46.10528" lon="6.77571">
        <ele>1613.4</ele>
        <time>2000-01-01T19:21:13.000Z</time>
      </trkpt>
      <trkpt lat="46.1053" lon="6.77573">
        <ele>1614</ele>
        <time>2000-01-01T19:21:23.000Z</time>
      </trkpt>
      <trkpt lat="46.10532" lon="6.77572">
        <ele>1613.7</ele>
        <time>2000-01-01T19:21:33.000Z</time>
      </trkpt>
      <trkpt lat="46.10533" lon="6.77571">
        <ele>1613.4</ele>
        <time>2000-01-01T19:21:43.000Z</time>
      </trkpt>
      <trkpt lat="46.10534" lon="6.7757">
        <ele>1613.1</ele>
        <time>2000-01-01T19:21:53.000Z</time>
      </trkpt>
      <trkpt lat="46.10536" lon="6.77569">
        <ele>1612.7</ele>
        <time>2000-01-01T19:22:03.000Z</time>
      </trkpt>
      <trkpt lat="46.10537" lon="6.7757">
        <ele>1613</ele>
        <time>2000-01-01T19:22:13.000Z</time>
      </trkpt>
      <trkpt lat="46.10538" lon="6.77573">
        <ele>1613.9</ele>
        <time>2000-01-01T19:22:23.000Z</time>
      </trkpt>
      <trkpt lat="46.10539" lon="6.7758">
        <ele>1612</ele>
        <time>2000-01-01T19:22:33.000Z</time>
      </trkpt>
      <trkpt lat="46.10541" lon="6.77581">
        <ele>1616.3</ele>
        <time>2000-01-01T19:22:43.000Z</time>
      </trkpt>
      <trkpt lat="46.10541" lon="6.77582">
        <ele>1616.6</ele>
        <time>2000-01-01T19:22:53.000Z</time>
      </trkpt>
      <trkpt lat="46.10542" lon="6.77583">
        <ele>1616.9</ele>
        <time>2000-01-01T19:23:03.000Z</time>
      </trkpt>
      <trkpt lat="46.10542" lon="6.77585">
        <ele>1617.5</ele>
        <time>2000-01-01T19:23:13.000Z</time>
      </trkpt>
      <trkpt lat="46.10543" lon="6.7759">
        <ele>1619</ele>
        <time>2000-01-01T19:23:23.000Z</time>
      </trkpt>
      <trkpt lat="46.10546" lon="6.77592">
        <ele>1619.5</ele>
        <time>2000-01-01T19:23:33.000Z</time>
      </trkpt>
      <trkpt lat="46.10546" lon="6.77595">
        <ele>1620.4</ele>
        <time>2000-01-01T19:23:43.000Z</time>
      </trkpt>
      <trkpt lat="46.10547" lon="6.77598">
        <ele>1621.2</ele>
        <time>2000-01-01T19:23:53.000Z</time>
      </trkpt>
      <trkpt lat="46.10548" lon="6.77602">
        <ele>1620</ele>
        <time>2000-01-01T19:24:03.000Z</time>
      </trkpt>
      <trkpt lat="46.10549" lon="6.77603">
        <ele>1622.5</ele>
        <time>2000-01-01T19:24:13.000Z</time>
      </trkpt>
      <trkpt lat="46.1055" lon="6.77606">
        <ele>1623.2</ele>
        <time>2000-01-01T19:24:23.000Z</time>
      </trkpt>
      <trkpt lat="46.10551" lon="6.77608">
        <ele>1623.7</ele>
        <time>2000-01-01T19:24:33.000Z</time>
      </trkpt>
      <trkpt lat="46.10553" lon="6.7761">
        <ele>1624</ele>
        <time>2000-01-01T19:24:43.000Z</time>
      </trkpt>
      <trkpt lat="46.10553" lon="6.77612">
        <ele>1624.5</ele>
        <time>2000-01-01T19:24:53.000Z</time>
      </trkpt>
      <trkpt lat="46.10554" lon="6.77613">
        <ele>1624.6</ele>
        <time>2000-01-01T19:25:03.000Z</time>
      </trkpt>
      <trkpt lat="46.10555" lon="6.77616">
        <ele>1625.3</ele>
        <time>2000-01-01T19:25:13.000Z</time>
      </trkpt>
      <trkpt lat="46.10558" lon="6.77618">
        <ele>1626.2</ele>
        <time>2000-01-01T19:25:23.000Z</time>
      </trkpt>
      <trkpt lat="46.10559" lon="6.7762">
        <ele>1626.9</ele>
        <time>2000-01-01T19:25:33.000Z</time>
      </trkpt>
      <trkpt lat="46.1056" lon="6.77621">
        <ele>1627.3</ele>
        <time>2000-01-01T19:25:43.000Z</time>
      </trkpt>
      <trkpt lat="46.1056" lon="6.77623">
        <ele>1626</ele>
        <time>2000-01-01T19:25:53.000Z</time>
      </trkpt>
      <trkpt lat="46.10561" lon="6.77625">
        <ele>1628.5</ele>
        <time>2000-01-01T19:26:03.000Z</time>
      </trkpt>
      <trkpt lat="46.10562" lon="6.77625">
        <ele>1628.7</ele>
        <time>2000-01-01T19:26:13.000Z</time>
      </trkpt>
      <trkpt lat="46.10563" lon="6.77627">
        <ele>1629.3</ele>
        <time>2000-01-01T19:26:23.000Z</time>
      </trkpt>
      <trkpt lat="46.10564" lon="6.77629">
        <ele>1629.9</ele>
        <time>2000-01-01T19:26:33.000Z</time>
      </trkpt>
      <trkpt lat="46.10565" lon="6.77633">
        <ele>1631</ele>
        <time>2000-01-01T19:26:43.000Z</time>
      </trkpt>
      <trkpt lat="46.10565" lon="6.77634">
        <ele>1631.2</ele>
        <time>2000-01-01T19:26:53.000Z</time>
      </trkpt>
      <trkpt lat="46.10564" lon="6.77637">
        <ele>1631.8</ele>
        <time>2000-01-01T19:27:03.000Z</time>
      </trkpt>
      <trkpt lat="46.10561" lon="6.77639">
        <ele>1631.8</ele>
        <time>2000-01-01T19:27:13.000Z</time>
      </trkpt>
      <trkpt lat="46.10561" lon="6.7764">
        <ele>1632</ele>
        <time>2000-01-01T19:27:23.000Z</time>
      </trkpt>
      <trkpt lat="46.10561" lon="6.77642">
        <ele>1632.5</ele>
        <time>2000-01-01T19:27:33.000Z</time>
      </trkpt>
      <trkpt lat="46.10562" lon="6.77642">
        <ele>1632.6</ele>
        <time>2000-01-01T19:27:43.000Z</time>
      </trkpt>
      <trkpt lat="46.10564" lon="6.77645">
        <ele>1631</ele>
        <time>2000-01-01T19:27:53.000Z</time>
      </trkpt>
      <trkpt lat="46.10567" lon="6.77648">
        <ele>1634.3</ele>
        <time>2000-01-01T19:28:03.000Z</time>
      </trkpt>
      <trkpt lat="46.10567" lon="6.77649">
        <ele>1634.5</ele>
        <time>2000-01-01T19:28:13.000Z</time>
      </trkpt>
      <trkpt lat="46.10567" lon="6.77651">
        <ele>1634.9</ele>
        <time>2000-01-01T19:28:23.000Z</time>
      </trkpt>
      <trkpt lat="46.10565" lon="6.77655">
        <ele>1635.6</ele>
        <time>2000-01-01T19:28:33.000Z</time>
      </trkpt>
      <trkpt lat="46.10563" lon="6.77656">
        <ele>1635.8</ele>
        <time>2000-01-01T19:28:43.000Z</time>
      </trkpt>
      <trkpt lat="46.10561" lon="6.77657">
        <ele>1636.1</ele>
        <time>2000-01-01T19:28:53.000Z</time>
      </trkpt>
      <trkpt lat="46.10561" lon="6.77658">
        <ele>1636.3</ele>
        <time>2000-01-01T19:29:03.000Z</time>
      </trkpt>
      <trkpt lat="46.1056" lon="6.7766">
        <ele>1636.9</ele>
        <time>2000-01-01T19:29:13.000Z</time>
      </trkpt>
      <trkpt lat="46.10561" lon="6.77663">
        <ele>1637.5</ele>
        <time>2000-01-01T19:29:23.000Z</time>
      </trkpt>
      <trkpt lat="46.10561" lon="6.77667">
        <ele>1636</ele>
        <time>2000-01-01T19:29:33.000Z</time>
      </trkpt>
      <trkpt lat="46.10562" lon="6.77671">
        <ele>1639.7</ele>
        <time>2000-01-01T19:29:43.000Z</time>
      </trkpt>
      <trkpt lat="46.10562" lon="6.77673">
        <ele>1640.4</ele>
        <time>2000-01-01T19:29:53.000Z</time>
      </trkpt>
      <trkpt lat="46.10562" lon="6.77681">
        <ele>1643</ele>
        <time>2000-01-01T19:30:03.000Z</time>
      </trkpt>
      <trkpt lat="46.10563" lon="6.77684">
        <ele>1643.8</ele>
        <time>2000-01-01T19:30:13.000Z</time>
      </trkpt>
      <trkpt lat="46.10564" lon="6.77686">
        <ele>1644.2</ele>
        <time>2000-01-01T19:30:23.000Z</time>
      </trkpt>
      <trkpt lat="46.10565" lon="6.77688">
        <ele>1644.6</ele>
        <time>2000-01-01T19:30:33.000Z</time>
      </trkpt>
      <trkpt lat="46.10566" lon="6.77691">
        <ele>1645.3</ele>
        <time>2000-01-01T19:30:43.000Z</time>
      </trkpt>
      <trkpt lat="46.10566" lon="6.77695">
        <ele>1646</ele>
        <time>2000-01-01T19:30:53.000Z</time>
      </trkpt>
      <trkpt lat="46.10567" lon="6.77698">
        <ele>1647.1</ele>
        <time>2000-01-01T19:31:03.000Z</time>
      </trkpt>
      <trkpt lat="46.10569" lon="6.777">
        <ele>1647.2</ele>
        <time>2000-01-01T19:31:13.000Z</time>
      </trkpt>
      <trkpt lat="46.1057" lon="6.77702">
        <ele>1647.5</ele>
        <time>2000-01-01T19:31:23.000Z</time>
      </trkpt>
      <trkpt lat="46.1057" lon="6.77703">
        <ele>1647.8</ele>
        <time>2000-01-01T19:31:33.000Z</time>
      </trkpt>
      <trkpt lat="46.10571" lon="6.77704">
        <ele>1647.9</ele>
        <time>2000-01-01T19:31:43.000Z</time>
      </trkpt>
      <trkpt lat="46.10573" lon="6.77705">
        <ele>1647.6</ele>
        <time>2000-01-01T19:31:53.000Z</time>
      </trkpt>
      <trkpt lat="46.10574" lon="6.77707">
        <ele>1648</ele>
        <time>2000-01-01T19:32:03.000Z</time>
      </trkpt>
      <trkpt lat="46.10572" lon="6.7771">
        <ele>1649.3</ele>
        <time>2000-01-01T19:32:13.000Z</time>
      </trkpt>
      <trkpt lat="46.10575" lon="6.77713">
        <ele>1649.4</ele>
        <time>2000-01-01T19:32:23.000Z</time>
      </trkpt>
      <trkpt lat="46.10574" lon="6.77715">
        <ele>1649</ele>
        <time>2000-01-01T19:32:33.000Z</time>
      </trkpt>
      <trkpt lat="46.10574" lon="6.77717">
        <ele>1650.8</ele>
        <time>2000-01-01T19:32:43.000Z</time>
      </trkpt>
      <trkpt lat="46.10573" lon="6.77719">
        <ele>1651.7</ele>
        <time>2000-01-01T19:32:53.000Z</time>
      </trkpt>
      <trkpt lat="46.10572" lon="6.77723">
        <ele>1653.1</ele>
        <time>2000-01-01T19:33:03.000Z</time>
      </trkpt>
      <trkpt lat="46.10574" lon="6.77724">
        <ele>1653</ele>
        <time>2000-01-01T19:33:13.000Z</time>
      </trkpt>
      <trkpt lat="46.10572" lon="6.77726">
        <ele>1654.2</ele>
        <time>2000-01-01T19:33:23.000Z</time>
      </trkpt>
      <trkpt lat="46.10572" lon="6.77727">
        <ele>1654.5</ele>
        <time>2000-01-01T19:33:33.000Z</time>
      </trkpt>
      <trkpt lat="46.10572" lon="6.7773">
        <ele>1655.6</ele>
        <time>2000-01-01T19:33:43.000Z</time>
      </trkpt>
      <trkpt lat="46.10572" lon="6.77731">
        <ele>1656</ele>
        <time>2000-01-01T19:33:53.000Z</time>
      </trkpt>
      <trkpt lat="46.10574" lon="6.77732">
        <ele>1655.8</ele>
        <time>2000-01-01T19:34:03.000Z</time>
      </trkpt>
      <trkpt lat="46.10574" lon="6.77733">
        <ele>1656.1</ele>
        <time>2000-01-01T19:34:13.000Z</time>
      </trkpt>
      <trkpt lat="46.10575" lon="6.77734">
        <ele>1656.2</ele>
        <time>2000-01-01T19:34:23.000Z</time>
      </trkpt>
      <trkpt lat="46.10576" lon="6.77736">
        <ele>1656.6</ele>
        <time>2000-01-01T19:34:33.000Z</time>
      </trkpt>
      <trkpt lat="46.10577" lon="6.77737">
        <ele>1655</ele>
        <time>2000-01-01T19:34:43.000Z</time>
      </trkpt>
      <trkpt lat="46.10577" lon="6.77738">
        <ele>1657</ele>
        <time>2000-01-01T19:34:53.000Z</time>
      </trkpt>
      <trkpt lat="46.10577" lon="6.77739">
        <ele>1657.3</ele>
        <time>2000-01-01T19:35:03.000Z</time>
      </trkpt>
      <trkpt lat="46.10578" lon="6.7774">
        <ele>1657.3</ele>
        <time>2000-01-01T19:35:13.000Z</time>
      </trkpt>
      <trkpt lat="46.10579" lon="6.77742">
        <ele>1657.7</ele>
        <time>2000-01-01T19:35:23.000Z</time>
      </trkpt>
      <trkpt lat="46.10579" lon="6.77743">
        <ele>1658.1</ele>
        <time>2000-01-01T19:35:33.000Z</time>
      </trkpt>
      <trkpt lat="46.1058" lon="6.77743">
        <ele>1657.8</ele>
        <time>2000-01-01T19:35:43.000Z</time>
      </trkpt>
      <trkpt lat="46.10582" lon="6.77744">
        <ele>1657.5</ele>
        <time>2000-01-01T19:35:53.000Z</time>
      </trkpt>
      <trkpt lat="46.10583" lon="6.77747">
        <ele>1658.1</ele>
        <time>2000-01-01T19:36:03.000Z</time>
      </trkpt>
      <trkpt lat="46.10584" lon="6.77749">
        <ele>1658.6</ele>
        <time>2000-01-01T19:36:13.000Z</time>
      </trkpt>
      <trkpt lat="46.10585" lon="6.77751">
        <ele>1659.3</ele>
        <time>2000-01-01T19:36:23.000Z</time>
      </trkpt>
      <trkpt lat="46.10586" lon="6.77753">
        <ele>1660.2</ele>
        <time>2000-01-01T19:36:33.000Z</time>
      </trkpt>
      <trkpt lat="46.10587" lon="6.77755">
        <ele>1661</ele>
        <time>2000-01-01T19:36:43.000Z</time>
      </trkpt>
      <trkpt lat="46.10588" lon="6.77759">
        <ele>1659</ele>
        <time>2000-01-01T19:36:53.000Z</time>
      </trkpt>
      <trkpt lat="46.10589" lon="6.77761">
        <ele>1663.5</ele>
        <time>2000-01-01T19:37:03.000Z</time>
      </trkpt>
      <trkpt lat="46.1059" lon="6.77762">
        <ele>1663.8</ele>
        <time>2000-01-01T19:37:13.000Z</time>
      </trkpt>
      <trkpt lat="46.10592" lon="6.77764">
        <ele>1664.3</ele>
        <time>2000-01-01T19:37:23.000Z</time>
      </trkpt>
      <trkpt lat="46.10593" lon="6.77767">
        <ele>1665.5</ele>
        <time>2000-01-01T19:37:33.000Z</time>
      </trkpt>
      <trkpt lat="46.10594" lon="6.7777">
        <ele>1666.5</ele>
        <time>2000-01-01T19:37:43.000Z</time>
      </trkpt>
      <trkpt lat="46.10595" lon="6.77772">
        <ele>1667.2</ele>
        <time>2000-01-01T19:37:53.000Z</time>
      </trkpt>
      <trkpt lat="46.10597" lon="6.77774">
        <ele>1667.5</ele>
        <time>2000-01-01T19:38:03.000Z</time>
      </trkpt>
      <trkpt lat="46.10599" lon="6.77777">
        <ele>1668.2</ele>
        <time>2000-01-01T19:38:13.000Z</time>
      </trkpt>
      <trkpt lat="46.106" lon="6.77779">
        <ele>1668.7</ele>
        <time>2000-01-01T19:38:23.000Z</time>
      </trkpt>
      <trkpt lat="46.10601" lon="6.7778">
        <ele>1667</ele>
        <time>2000-01-01T19:38:33.000Z</time>
      </trkpt>
      <trkpt lat="46.10602" lon="6.77782">
        <ele>1669.4</ele>
        <time>2000-01-01T19:38:43.000Z</time>
      </trkpt>
      <trkpt lat="46.10603" lon="6.77784">
        <ele>1669.9</ele>
        <time>2000-01-01T19:38:53.000Z</time>
      </trkpt>
      <trkpt lat="46.10603" lon="6.77785">
        <ele>1670.3</ele>
        <time>2000-01-01T19:39:03.000Z</time>
      </trkpt>
      <trkpt lat="46.10605" lon="6.77786">
        <ele>1670</ele>
        <time>2000-01-01T19:39:13.000Z</time>
      </trkpt>
      <trkpt lat="46.10607" lon="6.77787">
        <ele>1669.7</ele>
        <time>2000-01-01T19:39:23.000Z</time>
      </trkpt>
      <trkpt lat="46.10608" lon="6.77789">
        <ele>1670.2</ele>
        <time>2000-01-01T19:39:33.000Z</time>
      </trkpt>
      <trkpt lat="46.1061" lon="6.7779">
        <ele>1669.8</ele>
        <time>2000-01-01T19:39:43.000Z</time>
      </trkpt>
      <trkpt lat="46.10611" lon="6.7779">
        <ele>1669.4</ele>
        <time>2000-01-01T19:39:53.000Z</time>
      </trkpt>
      <trkpt lat="46.10613" lon="6.77791">
        <ele>1669.3</ele>
        <time>2000-01-01T19:40:03.000Z</time>
      </trkpt>
      <trkpt lat="46.10614" lon="6.77791">
        <ele>1669</ele>
        <time>2000-01-01T19:40:13.000Z</time>
      </trkpt>
      <trkpt lat="46.10615" lon="6.77793">
        <ele>1669.5</ele>
        <time>2000-01-01T19:40:23.000Z</time>
      </trkpt>
      <trkpt lat="46.10617" lon="6.77796">
        <ele>1669</ele>
        <time>2000-01-01T19:40:33.000Z</time>
      </trkpt>
      <trkpt lat="46.10618" lon="6.77796">
        <ele>1669.7</ele>
        <time>2000-01-01T19:40:43.000Z</time>
      </trkpt>
      <trkpt lat="46.10619" lon="6.77798">
        <ele>1670</ele>
        <time>2000-01-01T19:40:53.000Z</time>
      </trkpt>
      <trkpt lat="46.1062" lon="6.77802">
        <ele>1671</ele>
        <time>2000-01-01T19:41:03.000Z</time>
      </trkpt>
      <trkpt lat="46.10621" lon="6.77803">
        <ele>1671</ele>
        <time>2000-01-01T19:41:13.000Z</time>
      </trkpt>
      <trkpt lat="46.10622" lon="6.77803">
        <ele>1670.7</ele>
        <time>2000-01-01T19:41:23.000Z</time>
      </trkpt>
      <trkpt lat="46.10624" lon="6.77804">
        <ele>1670.4</ele>
        <time>2000-01-01T19:41:33.000Z</time>
      </trkpt>
      <trkpt lat="46.10627" lon="6.77809">
        <ele>1670.7</ele>
        <time>2000-01-01T19:41:43.000Z</time>
      </trkpt>
      <trkpt lat="46.10629" lon="6.77811">
        <ele>1670.5</ele>
        <time>2000-01-01T19:41:53.000Z</time>
      </trkpt>
      <trkpt lat="46.1063" lon="6.77813">
        <ele>1670.7</ele>
        <time>2000-01-01T19:42:03.000Z</time>
      </trkpt>
      <trkpt lat="46.10633" lon="6.77817">
        <ele>1670</ele>
        <time>2000-01-01T19:42:13.000Z</time>
      </trkpt>
      <trkpt lat="46.10634" lon="6.7782">
        <ele>1670.9</ele>
        <time>2000-01-01T19:42:23.000Z</time>
      </trkpt>
      <trkpt lat="46.10635" lon="6.77822">
        <ele>1671</ele>
        <time>2000-01-01T19:42:33.000Z</time>
      </trkpt>
      <trkpt lat="46.10635" lon="6.77825">
        <ele>1671.7</ele>
        <time>2000-01-01T19:42:43.000Z</time>
      </trkpt>
      <trkpt lat="46.10635" lon="6.77826">
        <ele>1671.9</ele>
        <time>2000-01-01T19:42:53.000Z</time>
      </trkpt>
      <trkpt lat="46.10637" lon="6.77828">
        <ele>1671.6</ele>
        <time>2000-01-01T19:43:03.000Z</time>
      </trkpt>
      <trkpt lat="46.10638" lon="6.77831">
        <ele>1671.8</ele>
        <time>2000-01-01T19:43:13.000Z</time>
      </trkpt>
      <trkpt lat="46.10638" lon="6.77836">
        <ele>1673</ele>
        <time>2000-01-01T19:43:23.000Z</time>
      </trkpt>
      <trkpt lat="46.10638" lon="6.77837">
        <ele>1673.3</ele>
        <time>2000-01-01T19:43:33.000Z</time>
      </trkpt>
      <trkpt lat="46.1064" lon="6.77838">
        <ele>1672.7</ele>
        <time>2000-01-01T19:43:43.000Z</time>
      </trkpt>
      <trkpt lat="46.10641" lon="6.77841">
        <ele>1674</ele>
        <time>2000-01-01T19:43:53.000Z</time>
      </trkpt>
      <trkpt lat="46.10642" lon="6.77847">
        <ele>1674.1</ele>
        <time>2000-01-01T19:44:03.000Z</time>
      </trkpt>
      <trkpt lat="46.10642" lon="6.77848">
        <ele>1674.4</ele>
        <time>2000-01-01T19:44:13.000Z</time>
      </trkpt>
      <trkpt lat="46.10643" lon="6.77852">
        <ele>1674.9</ele>
        <time>2000-01-01T19:44:23.000Z</time>
      </trkpt>
      <trkpt lat="46.10642" lon="6.77855">
        <ele>1676.1</ele>
        <time>2000-01-01T19:44:33.000Z</time>
      </trkpt>
      <trkpt lat="46.10642" lon="6.77858">
        <ele>1676.9</ele>
        <time>2000-01-01T19:44:43.000Z</time>
      </trkpt>
      <trkpt lat="46.10642" lon="6.7786">
        <ele>1677.4</ele>
        <time>2000-01-01T19:44:53.000Z</time>
      </trkpt>
      <trkpt lat="46.10642" lon="6.77863">
        <ele>1678.1</ele>
        <time>2000-01-01T19:45:03.000Z</time>
      </trkpt>
      <trkpt lat="46.10642" lon="6.77865">
        <ele>1678.7</ele>
        <time>2000-01-01T19:45:13.000Z</time>
      </trkpt>
      <trkpt lat="46.10643" lon="6.77867">
        <ele>1678.7</ele>
        <time>2000-01-01T19:45:23.000Z</time>
      </trkpt>
      <trkpt lat="46.10644" lon="6.77868">
        <ele>1679</ele>
        <time>2000-01-01T19:45:33.000Z</time>
      </trkpt>
      <trkpt lat="46.10645" lon="6.7787">
        <ele>1678.7</ele>
        <time>2000-01-01T19:45:43.000Z</time>
      </trkpt>
      <trkpt lat="46.10645" lon="6.77873">
        <ele>1679.5</ele>
        <time>2000-01-01T19:45:53.000Z</time>
      </trkpt>
      <trkpt lat="46.10646" lon="6.77875">
        <ele>1679.6</ele>
        <time>2000-01-01T19:46:03.000Z</time>
      </trkpt>
      <trkpt lat="46.10646" lon="6.77878">
        <ele>1680.3</ele>
        <time>2000-01-01T19:46:13.000Z</time>
      </trkpt>
      <trkpt lat="46.10646" lon="6.77881">
        <ele>1681.1</ele>
        <time>2000-01-01T19:46:23.000Z</time>
      </trkpt>
      <trkpt lat="46.10646" lon="6.77883">
        <ele>1681.6</ele>
        <time>2000-01-01T19:46:33.000Z</time>
      </trkpt>
      <trkpt lat="46.10647" lon="6.77885">
        <ele>1681.8</ele>
        <time>2000-01-01T19:46:43.000Z</time>
      </trkpt>
      <trkpt lat="46.10647" lon="6.77888">
        <ele>1682.6</ele>
        <time>2000-01-01T19:46:53.000Z</time>
      </trkpt>
      <trkpt lat="46.10648" lon="6.77891">
        <ele>1683</ele>
        <time>2000-01-01T19:47:03.000Z</time>
      </trkpt>
      <trkpt lat="46.10649" lon="6.77894">
        <ele>1683.5</ele>
        <time>2000-01-01T19:47:13.000Z</time>
      </trkpt>
      <trkpt lat="46.1065" lon="6.77896">
        <ele>1681</ele>
        <time>2000-01-01T19:47:23.000Z</time>
      </trkpt>
      <trkpt lat="46.10651" lon="6.77898">
        <ele>1684</ele>
        <time>2000-01-01T19:47:33.000Z</time>
      </trkpt>
      <trkpt lat="46.10653" lon="6.779">
        <ele>1683.8</ele>
        <time>2000-01-01T19:47:43.000Z</time>
      </trkpt>
      <trkpt lat="46.10655" lon="6.77904">
        <ele>1684.3</ele>
        <time>2000-01-01T19:47:53.000Z</time>
      </trkpt>
      <trkpt lat="46.10655" lon="6.77904">
        <ele>1684.3</ele>
        <time>2000-01-01T19:48:03.000Z</time>
      </trkpt>
      <trkpt lat="46.10657" lon="6.77907">
        <ele>1684.5</ele>
        <time>2000-01-01T19:48:13.000Z</time>
      </trkpt>
      <trkpt lat="46.10658" lon="6.77908">
        <ele>1684.4</ele>
        <time>2000-01-01T19:48:23.000Z</time>
      </trkpt>
      <trkpt lat="46.1066" lon="6.7791">
        <ele>1684.3</ele>
        <time>2000-01-01T19:48:33.000Z</time>
      </trkpt>
      <trkpt lat="46.10663" lon="6.77916">
        <ele>1685</ele>
        <time>2000-01-01T19:48:43.000Z</time>
      </trkpt>
      <trkpt lat="46.10663" lon="6.77917">
        <ele>1685.4</ele>
        <time>2000-01-01T19:48:53.000Z</time>
      </trkpt>
      <trkpt lat="46.10664" lon="6.7792">
        <ele>1685.5</ele>
        <time>2000-01-01T19:49:03.000Z</time>
      </trkpt>
      <trkpt lat="46.10664" lon="6.77922">
        <ele>1685.8</ele>
        <time>2000-01-01T19:49:13.000Z</time>
      </trkpt>
      <trkpt lat="46.10664" lon="6.77925">
        <ele>1686.2</ele>
        <time>2000-01-01T19:49:23.000Z</time>
      </trkpt>
      <trkpt lat="46.10665" lon="6.7793">
        <ele>1686.6</ele>
        <time>2000-01-01T19:49:33.000Z</time>
      </trkpt>
      <trkpt lat="46.10665" lon="6.77931">
        <ele>1686.8</ele>
        <time>2000-01-01T19:49:43.000Z</time>
      </trkpt>
      <trkpt lat="46.10665" lon="6.77933">
        <ele>1687.1</ele>
        <time>2000-01-01T19:49:53.000Z</time>
      </trkpt>
      <trkpt lat="46.10666" lon="6.77935">
        <ele>1686.9</ele>
        <time>2000-01-01T19:50:03.000Z</time>
      </trkpt>
      <trkpt lat="46.10666" lon="6.77938">
        <ele>1687.4</ele>
        <time>2000-01-01T19:50:13.000Z</time>
      </trkpt>
      <trkpt lat="46.10667" lon="6.77942">
        <ele>1687.5</ele>
        <time>2000-01-01T19:50:23.000Z</time>
      </trkpt>
      <trkpt lat="46.10666" lon="6.77944">
        <ele>1686</ele>
        <time>2000-01-01T19:50:33.000Z</time>
      </trkpt>
      <trkpt lat="46.10666" lon="6.77946">
        <ele>1688.4</ele>
        <time>2000-01-01T19:50:43.000Z</time>
      </trkpt>
      <trkpt lat="46.10666" lon="6.77948">
        <ele>1688.5</ele>
        <time>2000-01-01T19:50:53.000Z</time>
      </trkpt>
      <trkpt lat="46.10667" lon="6.77951">
        <ele>1688</ele>
        <time>2000-01-01T19:51:03.000Z</time>
      </trkpt>
      <trkpt lat="46.10667" lon="6.77953">
        <ele>1688.1</ele>
        <time>2000-01-01T19:51:13.000Z</time>
      </trkpt>
      <trkpt lat="46.10672" lon="6.77963">
        <ele>1685.9</ele>
        <time>2000-01-01T19:51:23.000Z</time>
      </trkpt>
      <trkpt lat="46.10672" lon="6.77964">
        <ele>1685.9</ele>
        <time>2000-01-01T19:51:33.000Z</time>
      </trkpt>
      <trkpt lat="46.10675" lon="6.77967">
        <ele>1683</ele>
        <time>2000-01-01T19:51:43.000Z</time>
      </trkpt>
      <trkpt lat="46.10676" lon="6.77969">
        <ele>1684.1</ele>
        <time>2000-01-01T19:51:53.000Z</time>
      </trkpt>
      <trkpt lat="46.10676" lon="6.77971">
        <ele>1684.2</ele>
        <time>2000-01-01T19:52:03.000Z</time>
      </trkpt>
      <trkpt lat="46.10677" lon="6.77973">
        <ele>1684</ele>
        <time>2000-01-01T19:52:13.000Z</time>
      </trkpt>
      <trkpt lat="46.10679" lon="6.77975">
        <ele>1683.5</ele>
        <time>2000-01-01T19:52:23.000Z</time>
      </trkpt>
      <trkpt lat="46.10681" lon="6.77976">
        <ele>1682.7</ele>
        <time>2000-01-01T19:52:33.000Z</time>
      </trkpt>
      <trkpt lat="46.10682" lon="6.77978">
        <ele>1682.7</ele>
        <time>2000-01-01T19:52:43.000Z</time>
      </trkpt>
      <trkpt lat="46.10684" lon="6.7798">
        <ele>1682.3</ele>
        <time>2000-01-01T19:52:53.000Z</time>
      </trkpt>
      <trkpt lat="46.10684" lon="6.77981">
        <ele>1682.6</ele>
        <time>2000-01-01T19:53:03.000Z</time>
      </trkpt>
      <trkpt lat="46.10685" lon="6.77985">
        <ele>1683.1</ele>
        <time>2000-01-01T19:53:13.000Z</time>
      </trkpt>
      <trkpt lat="46.10686" lon="6.77988">
        <ele>1683.5</ele>
        <time>2000-01-01T19:53:23.000Z</time>
      </trkpt>
      <trkpt lat="46.10688" lon="6.7799">
        <ele>1682</ele>
        <time>2000-01-01T19:53:33.000Z</time>
      </trkpt>
      <trkpt lat="46.10691" lon="6.77992">
        <ele>1682.3</ele>
        <time>2000-01-01T19:53:43.000Z</time>
      </trkpt>
      <trkpt lat="46.10691" lon="6.77993">
        <ele>1682.5</ele>
        <time>2000-01-01T19:53:53.000Z</time>
      </trkpt>
      <trkpt lat="46.10692" lon="6.77995">
        <ele>1682.6</ele>
        <time>2000-01-01T19:54:03.000Z</time>
      </trkpt>
      <trkpt lat="46.10693" lon="6.77996">
        <ele>1682.5</ele>
        <time>2000-01-01T19:54:13.000Z</time>
      </trkpt>
      <trkpt lat="46.10696" lon="6.77998">
        <ele>1682.2</ele>
        <time>2000-01-01T19:54:23.000Z</time>
      </trkpt>
      <trkpt lat="46.10698" lon="6.78001">
        <ele>1682.8</ele>
        <time>2000-01-01T19:54:33.000Z</time>
      </trkpt>
      <trkpt lat="46.107" lon="6.78003">
        <ele>1683.2</ele>
        <time>2000-01-01T19:54:43.000Z</time>
      </trkpt>
      <trkpt lat="46.10702" lon="6.78007">
        <ele>1684.2</ele>
        <time>2000-01-01T19:54:53.000Z</time>
      </trkpt>
      <trkpt lat="46.10704" lon="6.78009">
        <ele>1682</ele>
        <time>2000-01-01T19:55:03.000Z</time>
      </trkpt>
      <trkpt lat="46.10705" lon="6.7801">
        <ele>1684.7</ele>
        <time>2000-01-01T19:55:13.000Z</time>
      </trkpt>
      <trkpt lat="46.10707" lon="6.78016">
        <ele>1686.4</ele>
        <time>2000-01-01T19:55:23.000Z</time>
      </trkpt>
      <trkpt lat="46.10708" lon="6.78017">
        <ele>1686.6</ele>
        <time>2000-01-01T19:55:33.000Z</time>
      </trkpt>
      <trkpt lat="46.10709" lon="6.7802">
        <ele>1687.4</ele>
        <time>2000-01-01T19:55:43.000Z</time>
      </trkpt>
      <trkpt lat="46.10712" lon="6.78025">
        <ele>1688.6</ele>
        <time>2000-01-01T19:55:53.000Z</time>
      </trkpt>
      <trkpt lat="46.10713" lon="6.78027">
        <ele>1689.1</ele>
        <time>2000-01-01T19:56:03.000Z</time>
      </trkpt>
      <trkpt lat="46.10714" lon="6.7803">
        <ele>1690</ele>
        <time>2000-01-01T19:56:13.000Z</time>
      </trkpt>
      <trkpt lat="46.10715" lon="6.78033">
        <ele>1690</ele>
        <time>2000-01-01T19:56:23.000Z</time>
      </trkpt>
      <trkpt lat="46.10716" lon="6.78035">
        <ele>1691.5</ele>
        <time>2000-01-01T19:56:33.000Z</time>
      </trkpt>
      <trkpt lat="46.10717" lon="6.78039">
        <ele>1692.8</ele>
        <time>2000-01-01T19:56:43.000Z</time>
      </trkpt>
      <trkpt lat="46.10718" lon="6.7804">
        <ele>1692.9</ele>
        <time>2000-01-01T19:56:53.000Z</time>
      </trkpt>
      <trkpt lat="46.10719" lon="6.78043">
        <ele>1693.7</ele>
        <time>2000-01-01T19:57:03.000Z</time>
      </trkpt>
      <trkpt lat="46.10722" lon="6.78046">
        <ele>1694</ele>
        <time>2000-01-01T19:57:13.000Z</time>
      </trkpt>
      <trkpt lat="46.10723" lon="6.78048">
        <ele>1694.4</ele>
        <time>2000-01-01T19:57:23.000Z</time>
      </trkpt>
      <trkpt lat="46.10725" lon="6.7805">
        <ele>1694.8</ele>
        <time>2000-01-01T19:57:33.000Z</time>
      </trkpt>
      <trkpt lat="46.10726" lon="6.78054">
        <ele>1696</ele>
        <time>2000-01-01T19:57:43.000Z</time>
      </trkpt>
      <trkpt lat="46.10727" lon="6.78057">
        <ele>1696.8</ele>
        <time>2000-01-01T19:57:53.000Z</time>
      </trkpt>
      <trkpt lat="46.10727" lon="6.7806">
        <ele>1697.7</ele>
        <time>2000-01-01T19:58:03.000Z</time>
      </trkpt>
      <trkpt lat="46.10729" lon="6.78063">
        <ele>1698.4</ele>
        <time>2000-01-01T19:58:13.000Z</time>
      </trkpt>
      <trkpt lat="46.1073" lon="6.78065">
        <ele>1698.8</ele>
        <time>2000-01-01T19:58:23.000Z</time>
      </trkpt>
      <trkpt lat="46.10731" lon="6.78068">
        <ele>1699.6</ele>
        <time>2000-01-01T19:58:33.000Z</time>
      </trkpt>
      <trkpt lat="46.10734" lon="6.7807">
        <ele>1699.8</ele>
        <time>2000-01-01T19:58:43.000Z</time>
      </trkpt>
      <trkpt lat="46.10736" lon="6.78072">
        <ele>1700.1</ele>
        <time>2000-01-01T19:58:53.000Z</time>
      </trkpt>
      <trkpt lat="46.10738" lon="6.78073">
        <ele>1700</ele>
        <time>2000-01-01T19:59:03.000Z</time>
      </trkpt>
      <trkpt lat="46.1074" lon="6.78076">
        <ele>1700.6</ele>
        <time>2000-01-01T19:59:13.000Z</time>
      </trkpt>
      <trkpt lat="46.10742" lon="6.78079">
        <ele>1701.1</ele>
        <time>2000-01-01T19:59:23.000Z</time>
      </trkpt>
      <trkpt lat="46.10745" lon="6.7808">
        <ele>1700.9</ele>
        <time>2000-01-01T19:59:33.000Z</time>
      </trkpt>
      <trkpt lat="46.10747" lon="6.78082">
        <ele>1701.2</ele>
        <time>2000-01-01T19:59:43.000Z</time>
      </trkpt>
      <trkpt lat="46.10748" lon="6.78085">
        <ele>1701.9</ele>
        <time>2000-01-01T19:59:53.000Z</time>
      </trkpt>
      <trkpt lat="46.1075" lon="6.78088">
        <ele>1702.5</ele>
        <time>2000-01-01T20:00:03.000Z</time>
      </trkpt>
      <trkpt lat="46.10752" lon="6.78091">
        <ele>1703</ele>
        <time>2000-01-01T20:00:13.000Z</time>
      </trkpt>
      <trkpt lat="46.10754" lon="6.78094">
        <ele>1703.4</ele>
        <time>2000-01-01T20:00:23.000Z</time>
      </trkpt>
      <trkpt lat="46.10755" lon="6.78096">
        <ele>1703.8</ele>
        <time>2000-01-01T20:00:33.000Z</time>
      </trkpt>
      <trkpt lat="46.10756" lon="6.78097">
        <ele>1703.9</ele>
        <time>2000-01-01T20:00:43.000Z</time>
      </trkpt>
      <trkpt lat="46.10756" lon="6.78101">
        <ele>1705.2</ele>
        <time>2000-01-01T20:00:53.000Z</time>
      </trkpt>
      <trkpt lat="46.10757" lon="6.78103">
        <ele>1705.6</ele>
        <time>2000-01-01T20:01:03.000Z</time>
      </trkpt>
      <trkpt lat="46.10757" lon="6.78104">
        <ele>1705.9</ele>
        <time>2000-01-01T20:01:13.000Z</time>
      </trkpt>
      <trkpt lat="46.10759" lon="6.78107">
        <ele>1706.4</ele>
        <time>2000-01-01T20:01:23.000Z</time>
      </trkpt>
      <trkpt lat="46.1076" lon="6.7811">
        <ele>1707.1</ele>
        <time>2000-01-01T20:01:33.000Z</time>
      </trkpt>
      <trkpt lat="46.10761" lon="6.78113">
        <ele>1707.8</ele>
        <time>2000-01-01T20:01:43.000Z</time>
      </trkpt>
      <trkpt lat="46.10762" lon="6.78115">
        <ele>1707</ele>
        <time>2000-01-01T20:01:53.000Z</time>
      </trkpt>
      <trkpt lat="46.10764" lon="6.78119">
        <ele>1708.7</ele>
        <time>2000-01-01T20:02:03.000Z</time>
      </trkpt>
      <trkpt lat="46.10765" lon="6.78124">
        <ele>1710</ele>
        <time>2000-01-01T20:02:13.000Z</time>
      </trkpt>
      <trkpt lat="46.10765" lon="6.78126">
        <ele>1710.6</ele>
        <time>2000-01-01T20:02:23.000Z</time>
      </trkpt>
      <trkpt lat="46.10766" lon="6.78128">
        <ele>1710.9</ele>
        <time>2000-01-01T20:02:33.000Z</time>
      </trkpt>
      <trkpt lat="46.10767" lon="6.78129">
        <ele>1711</ele>
        <time>2000-01-01T20:02:43.000Z</time>
      </trkpt>
      <trkpt lat="46.10769" lon="6.78134">
        <ele>1712.1</ele>
        <time>2000-01-01T20:02:53.000Z</time>
      </trkpt>
      <trkpt lat="46.1077" lon="6.78135">
        <ele>1712.2</ele>
        <time>2000-01-01T20:03:03.000Z</time>
      </trkpt>
      <trkpt lat="46.10771" lon="6.78137">
        <ele>1712.6</ele>
        <time>2000-01-01T20:03:13.000Z</time>
      </trkpt>
      <trkpt lat="46.10774" lon="6.7814">
        <ele>1709</ele>
        <time>2000-01-01T20:03:23.000Z</time>
      </trkpt>
      <trkpt lat="46.10775" lon="6.7814">
        <ele>1712.9</ele>
        <time>2000-01-01T20:03:33.000Z</time>
      </trkpt>
      <trkpt lat="46.10777" lon="6.78141">
        <ele>1712.8</ele>
        <time>2000-01-01T20:03:43.000Z</time>
      </trkpt>
      <trkpt lat="46.10779" lon="6.78142">
        <ele>1712.9</ele>
        <time>2000-01-01T20:03:53.000Z</time>
      </trkpt>
      <trkpt lat="46.10782" lon="6.78143">
        <ele>1712.9</ele>
        <time>2000-01-01T20:04:03.000Z</time>
      </trkpt>
      <trkpt lat="46.10783" lon="6.78144">
        <ele>1713.1</ele>
        <time>2000-01-01T20:04:13.000Z</time>
      </trkpt>
      <trkpt lat="46.10786" lon="6.78148">
        <ele>1714</ele>
        <time>2000-01-01T20:04:23.000Z</time>
      </trkpt>
      <trkpt lat="46.1079" lon="6.78151">
        <ele>1714.4</ele>
        <time>2000-01-01T20:04:33.000Z</time>
      </trkpt>
      <trkpt lat="46.10793" lon="6.78154">
        <ele>1713</ele>
        <time>2000-01-01T20:04:43.000Z</time>
      </trkpt>
      <trkpt lat="46.10795" lon="6.78155">
        <ele>1715</ele>
        <time>2000-01-01T20:04:53.000Z</time>
      </trkpt>
      <trkpt lat="46.10797" lon="6.78156">
        <ele>1715</ele>
        <time>2000-01-01T20:05:03.000Z</time>
      </trkpt>
      <trkpt lat="46.10798" lon="6.78157">
        <ele>1715.2</ele>
        <time>2000-01-01T20:05:13.000Z</time>
      </trkpt>
      <trkpt lat="46.10799" lon="6.78159">
        <ele>1715.7</ele>
        <time>2000-01-01T20:05:23.000Z</time>
      </trkpt>
      <trkpt lat="46.108" lon="6.78161">
        <ele>1716.1</ele>
        <time>2000-01-01T20:05:33.000Z</time>
      </trkpt>
      <trkpt lat="46.10802" lon="6.78162">
        <ele>1716.1</ele>
        <time>2000-01-01T20:05:43.000Z</time>
      </trkpt>
      <trkpt lat="46.10803" lon="6.78165">
        <ele>1716.9</ele>
        <time>2000-01-01T20:05:53.000Z</time>
      </trkpt>
      <trkpt lat="46.10804" lon="6.78168">
        <ele>1717.7</ele>
        <time>2000-01-01T20:06:03.000Z</time>
      </trkpt>
      <trkpt lat="46.10805" lon="6.78169">
        <ele>1717.8</ele>
        <time>2000-01-01T20:06:13.000Z</time>
      </trkpt>
      <trkpt lat="46.10806" lon="6.7817">
        <ele>1718.1</ele>
        <time>2000-01-01T20:06:23.000Z</time>
      </trkpt>
      <trkpt lat="46.10808" lon="6.78171">
        <ele>1719</ele>
        <time>2000-01-01T20:06:33.000Z</time>
      </trkpt>
      <trkpt lat="46.1081" lon="6.78172">
        <ele>1718.4</ele>
        <time>2000-01-01T20:06:43.000Z</time>
      </trkpt>
      <trkpt lat="46.10813" lon="6.78174">
        <ele>1718.8</ele>
        <time>2000-01-01T20:06:53.000Z</time>
      </trkpt>
      <trkpt lat="46.10814" lon="6.78175">
        <ele>1719</ele>
        <time>2000-01-01T20:07:03.000Z</time>
      </trkpt>
      <trkpt lat="46.10814" lon="6.78176">
        <ele>1719.3</ele>
        <time>2000-01-01T20:07:13.000Z</time>
      </trkpt>
      <trkpt lat="46.10815" lon="6.78179">
        <ele>1720.1</ele>
        <time>2000-01-01T20:07:23.000Z</time>
      </trkpt>
      <trkpt lat="46.10816" lon="6.7818">
        <ele>1720.2</ele>
        <time>2000-01-01T20:07:33.000Z</time>
      </trkpt>
      <trkpt lat="46.10818" lon="6.78182">
        <ele>1720.5</ele>
        <time>2000-01-01T20:07:43.000Z</time>
      </trkpt>
      <trkpt lat="46.10819" lon="6.78185">
        <ele>1721.2</ele>
        <time>2000-01-01T20:07:53.000Z</time>
      </trkpt>
      <trkpt lat="46.1082" lon="6.78189">
        <ele>1722</ele>
        <time>2000-01-01T20:08:03.000Z</time>
      </trkpt>
      <trkpt lat="46.10821" lon="6.78191">
        <ele>1721</ele>
        <time>2000-01-01T20:08:13.000Z</time>
      </trkpt>
      <trkpt lat="46.10822" lon="6.78195">
        <ele>1723.2</ele>
        <time>2000-01-01T20:08:23.000Z</time>
      </trkpt>
      <trkpt lat="46.10825" lon="6.78198">
        <ele>1723.5</ele>
        <time>2000-01-01T20:08:33.000Z</time>
      </trkpt>
      <trkpt lat="46.10826" lon="6.78201">
        <ele>1724.2</ele>
        <time>2000-01-01T20:08:43.000Z</time>
      </trkpt>
      <trkpt lat="46.10826" lon="6.78206">
        <ele>1725.7</ele>
        <time>2000-01-01T20:08:53.000Z</time>
      </trkpt>
      <trkpt lat="46.10828" lon="6.78208">
        <ele>1725.8</ele>
        <time>2000-01-01T20:09:03.000Z</time>
      </trkpt>
      <trkpt lat="46.10829" lon="6.7821">
        <ele>1726</ele>
        <time>2000-01-01T20:09:13.000Z</time>
      </trkpt>
      <trkpt lat="46.10831" lon="6.78217">
        <ele>1724</ele>
        <time>2000-01-01T20:09:23.000Z</time>
      </trkpt>
      <trkpt lat="46.10831" lon="6.78221">
        <ele>1728.4</ele>
        <time>2000-01-01T20:09:33.000Z</time>
      </trkpt>
      <trkpt lat="46.10832" lon="6.78223">
        <ele>1728.7</ele>
        <time>2000-01-01T20:09:43.000Z</time>
      </trkpt>
      <trkpt lat="46.10834" lon="6.78226">
        <ele>1729.3</ele>
        <time>2000-01-01T20:09:53.000Z</time>
      </trkpt>
      <trkpt lat="46.10835" lon="6.78228">
        <ele>1730</ele>
        <time>2000-01-01T20:10:03.000Z</time>
      </trkpt>
      <trkpt lat="46.10837" lon="6.78229">
        <ele>1730.2</ele>
        <time>2000-01-01T20:10:13.000Z</time>
      </trkpt>
      <trkpt lat="46.10839" lon="6.78229">
        <ele>1730</ele>
        <time>2000-01-01T20:10:23.000Z</time>
      </trkpt>
      <trkpt lat="46.10841" lon="6.7823">
        <ele>1730.2</ele>
        <time>2000-01-01T20:10:33.000Z</time>
      </trkpt>
      <trkpt lat="46.10843" lon="6.78233">
        <ele>1731.2</ele>
        <time>2000-01-01T20:10:43.000Z</time>
      </trkpt>
      <trkpt lat="46.10844" lon="6.78235">
        <ele>1730</ele>
        <time>2000-01-01T20:10:53.000Z</time>
      </trkpt>
      <trkpt lat="46.10845" lon="6.78239">
        <ele>1733.2</ele>
        <time>2000-01-01T20:11:03.000Z</time>
      </trkpt>
      <trkpt lat="46.10846" lon="6.78242">
        <ele>1734.2</ele>
        <time>2000-01-01T20:11:13.000Z</time>
      </trkpt>
      <trkpt lat="46.10847" lon="6.78244">
        <ele>1734.9</ele>
        <time>2000-01-01T20:11:23.000Z</time>
      </trkpt>
      <trkpt lat="46.10849" lon="6.78246">
        <ele>1735.4</ele>
        <time>2000-01-01T20:11:33.000Z</time>
      </trkpt>
      <trkpt lat="46.10851" lon="6.78248">
        <ele>1736</ele>
        <time>2000-01-01T20:11:43.000Z</time>
      </trkpt>
      <trkpt lat="46.10851" lon="6.78251">
        <ele>1737.1</ele>
        <time>2000-01-01T20:11:53.000Z</time>
      </trkpt>
      <trkpt lat="46.10852" lon="6.78253">
        <ele>1737.6</ele>
        <time>2000-01-01T20:12:03.000Z</time>
      </trkpt>
      <trkpt lat="46.10852" lon="6.78264">
        <ele>1739</ele>
        <time>2000-01-01T20:12:13.000Z</time>
      </trkpt>
      <trkpt lat="46.10852" lon="6.78266">
        <ele>1741.8</ele>
        <time>2000-01-01T20:12:23.000Z</time>
      </trkpt>
      <trkpt lat="46.10854" lon="6.78268">
        <ele>1742.2</ele>
        <time>2000-01-01T20:12:33.000Z</time>
      </trkpt>
      <trkpt lat="46.10856" lon="6.7827">
        <ele>1742.5</ele>
        <time>2000-01-01T20:12:43.000Z</time>
      </trkpt>
      <trkpt lat="46.10857" lon="6.78271">
        <ele>1742.7</ele>
        <time>2000-01-01T20:12:53.000Z</time>
      </trkpt>
      <trkpt lat="46.10859" lon="6.78272">
        <ele>1742.7</ele>
        <time>2000-01-01T20:13:03.000Z</time>
      </trkpt>
      <trkpt lat="46.10861" lon="6.78273">
        <ele>1742.6</ele>
        <time>2000-01-01T20:13:13.000Z</time>
      </trkpt>
      <trkpt lat="46.10863" lon="6.78275">
        <ele>1743.1</ele>
        <time>2000-01-01T20:13:23.000Z</time>
      </trkpt>
      <trkpt lat="46.10866" lon="6.78277">
        <ele>1743.6</ele>
        <time>2000-01-01T20:13:33.000Z</time>
      </trkpt>
      <trkpt lat="46.10868" lon="6.78279">
        <ele>1741</ele>
        <time>2000-01-01T20:13:43.000Z</time>
      </trkpt>
      <trkpt lat="46.1087" lon="6.78282">
        <ele>1745.1</ele>
        <time>2000-01-01T20:13:53.000Z</time>
      </trkpt>
      <trkpt lat="46.10873" lon="6.78286">
        <ele>1746.1</ele>
        <time>2000-01-01T20:14:03.000Z</time>
      </trkpt>
      <trkpt lat="46.10874" lon="6.78287">
        <ele>1746.3</ele>
        <time>2000-01-01T20:14:13.000Z</time>
      </trkpt>
      <trkpt lat="46.10876" lon="6.78288">
        <ele>1746.3</ele>
        <time>2000-01-01T20:14:23.000Z</time>
      </trkpt>
      <trkpt lat="46.10878" lon="6.7829">
        <ele>1746.6</ele>
        <time>2000-01-01T20:14:33.000Z</time>
      </trkpt>
      <trkpt lat="46.10881" lon="6.78294">
        <ele>1747.2</ele>
        <time>2000-01-01T20:14:43.000Z</time>
      </trkpt>
      <trkpt lat="46.10882" lon="6.78295">
        <ele>1747.3</ele>
        <time>2000-01-01T20:14:53.000Z</time>
      </trkpt>
      <trkpt lat="46.10882" lon="6.78297">
        <ele>1747</ele>
        <time>2000-01-01T20:15:03.000Z</time>
      </trkpt>
      <trkpt lat="46.10882" lon="6.78301">
        <ele>1748.7</ele>
        <time>2000-01-01T20:15:13.000Z</time>
      </trkpt>
      <trkpt lat="46.10882" lon="6.78306">
        <ele>1749.9</ele>
        <time>2000-01-01T20:15:23.000Z</time>
      </trkpt>
      <trkpt lat="46.10882" lon="6.78309">
        <ele>1750.8</ele>
        <time>2000-01-01T20:15:33.000Z</time>
      </trkpt>
      <trkpt lat="46.10884" lon="6.78312">
        <ele>1751.2</ele>
        <time>2000-01-01T20:15:43.000Z</time>
      </trkpt>
      <trkpt lat="46.10886" lon="6.78317">
        <ele>1752.2</ele>
        <time>2000-01-01T20:15:53.000Z</time>
      </trkpt>
      <trkpt lat="46.10888" lon="6.7832">
        <ele>1752.4</ele>
        <time>2000-01-01T20:16:03.000Z</time>
      </trkpt>
      <trkpt lat="46.1089" lon="6.78323">
        <ele>1755</ele>
        <time>2000-01-01T20:16:13.000Z</time>
      </trkpt>
      <trkpt lat="46.10892" lon="6.78328">
        <ele>1754</ele>
        <time>2000-01-01T20:16:23.000Z</time>
      </trkpt>
      <trkpt lat="46.10895" lon="6.78334">
        <ele>1755.6</ele>
        <time>2000-01-01T20:16:33.000Z</time>
      </trkpt>
      <trkpt lat="46.10897" lon="6.78337">
        <ele>1756.6</ele>
        <time>2000-01-01T20:16:43.000Z</time>
      </trkpt>
      <trkpt lat="46.10898" lon="6.78339">
        <ele>1757.3</ele>
        <time>2000-01-01T20:16:53.000Z</time>
      </trkpt>
      <trkpt lat="46.10898" lon="6.78343">
        <ele>1759</ele>
        <time>2000-01-01T20:17:03.000Z</time>
      </trkpt>
      <trkpt lat="46.10899" lon="6.78345">
        <ele>1759.7</ele>
        <time>2000-01-01T20:17:13.000Z</time>
      </trkpt>
      <trkpt lat="46.10899" lon="6.78346">
        <ele>1756</ele>
        <time>2000-01-01T20:17:23.000Z</time>
      </trkpt>
      <trkpt lat="46.10901" lon="6.78349">
        <ele>1761.1</ele>
        <time>2000-01-01T20:17:33.000Z</time>
      </trkpt>
      <trkpt lat="46.10902" lon="6.78353">
        <ele>1762.7</ele>
        <time>2000-01-01T20:17:43.000Z</time>
      </trkpt>
      <trkpt lat="46.10903" lon="6.78354">
        <ele>1763</ele>
        <time>2000-01-01T20:17:53.000Z</time>
      </trkpt>
      <trkpt lat="46.10903" lon="6.78356">
        <ele>1763.9</ele>
        <time>2000-01-01T20:18:03.000Z</time>
      </trkpt>
      <trkpt lat="46.10904" lon="6.78357">
        <ele>1764.2</ele>
        <time>2000-01-01T20:18:13.000Z</time>
      </trkpt>
      <trkpt lat="46.10906" lon="6.78363">
        <ele>1766.4</ele>
        <time>2000-01-01T20:18:23.000Z</time>
      </trkpt>
      <trkpt lat="46.10906" lon="6.78365">
        <ele>1767.2</ele>
        <time>2000-01-01T20:18:33.000Z</time>
      </trkpt>
      <trkpt lat="46.10906" lon="6.7837">
        <ele>1768.9</ele>
        <time>2000-01-01T20:18:43.000Z</time>
      </trkpt>
      <trkpt lat="46.10907" lon="6.78374">
        <ele>1765</ele>
        <time>2000-01-01T20:18:53.000Z</time>
      </trkpt>
      <trkpt lat="46.10908" lon="6.78375">
        <ele>1770.4</ele>
        <time>2000-01-01T20:19:03.000Z</time>
      </trkpt>
      <trkpt lat="46.10909" lon="6.78378">
        <ele>1771.3</ele>
        <time>2000-01-01T20:19:13.000Z</time>
      </trkpt>
      <trkpt lat="46.10911" lon="6.78381">
        <ele>1771.9</ele>
        <time>2000-01-01T20:19:23.000Z</time>
      </trkpt>
      <trkpt lat="46.10913" lon="6.78384">
        <ele>1772.4</ele>
        <time>2000-01-01T20:19:33.000Z</time>
      </trkpt>
      <trkpt lat="46.10915" lon="6.78387">
        <ele>1772.9</ele>
        <time>2000-01-01T20:19:43.000Z</time>
      </trkpt>
      <trkpt lat="46.10916" lon="6.78389">
        <ele>1773.2</ele>
        <time>2000-01-01T20:19:53.000Z</time>
      </trkpt>
      <trkpt lat="46.10919" lon="6.78392">
        <ele>1774.1</ele>
        <time>2000-01-01T20:20:03.000Z</time>
      </trkpt>
      <trkpt lat="46.10922" lon="6.78397">
        <ele>1773</ele>
        <time>2000-01-01T20:20:13.000Z</time>
      </trkpt>
      <trkpt lat="46.10923" lon="6.78401">
        <ele>1776.9</ele>
        <time>2000-01-01T20:20:23.000Z</time>
      </trkpt>
      <trkpt lat="46.10926" lon="6.78408">
        <ele>1778.7</ele>
        <time>2000-01-01T20:20:33.000Z</time>
      </trkpt>
      <trkpt lat="46.10925" lon="6.78413">
        <ele>1780.4</ele>
        <time>2000-01-01T20:20:43.000Z</time>
      </trkpt>
      <trkpt lat="46.10926" lon="6.78417">
        <ele>1781.4</ele>
        <time>2000-01-01T20:20:53.000Z</time>
      </trkpt>
      <trkpt lat="46.10926" lon="6.7842">
        <ele>1782.4</ele>
        <time>2000-01-01T20:21:03.000Z</time>
      </trkpt>
      <trkpt lat="46.10926" lon="6.78425">
        <ele>1783</ele>
        <time>2000-01-01T20:21:13.000Z</time>
      </trkpt>
      <trkpt lat="46.10926" lon="6.78427">
        <ele>1784.8</ele>
        <time>2000-01-01T20:21:23.000Z</time>
      </trkpt>
      <trkpt lat="46.10927" lon="6.78429">
        <ele>1785.2</ele>
        <time>2000-01-01T20:21:33.000Z</time>
      </trkpt>
      <trkpt lat="46.10928" lon="6.7843">
        <ele>1785.3</ele>
        <time>2000-01-01T20:21:43.000Z</time>
      </trkpt>
      <trkpt lat="46.10929" lon="6.78431">
        <ele>1785.3</ele>
        <time>2000-01-01T20:21:53.000Z</time>
      </trkpt>
      <trkpt lat="46.10929" lon="6.78433">
        <ele>1785.9</ele>
        <time>2000-01-01T20:22:03.000Z</time>
      </trkpt>
      <trkpt lat="46.1093" lon="6.78435">
        <ele>1786.3</ele>
        <time>2000-01-01T20:22:13.000Z</time>
      </trkpt>
      <trkpt lat="46.1093" lon="6.78437">
        <ele>1786.9</ele>
        <time>2000-01-01T20:22:23.000Z</time>
      </trkpt>
      <trkpt lat="46.10931" lon="6.78438">
        <ele>1786.9</ele>
        <time>2000-01-01T20:22:33.000Z</time>
      </trkpt>
      <trkpt lat="46.10932" lon="6.78441">
        <ele>1787.5</ele>
        <time>2000-01-01T20:22:43.000Z</time>
      </trkpt>
      <trkpt lat="46.10933" lon="6.78444">
        <ele>1788</ele>
        <time>2000-01-01T20:22:53.000Z</time>
      </trkpt>
      <trkpt lat="46.10934" lon="6.78445">
        <ele>1788.1</ele>
        <time>2000-01-01T20:23:03.000Z</time>
      </trkpt>
      <trkpt lat="46.10936" lon="6.78445">
        <ele>1787.3</ele>
        <time>2000-01-01T20:23:13.000Z</time>
      </trkpt>
      <trkpt lat="46.10937" lon="6.78446">
        <ele>1786</ele>
        <time>2000-01-01T20:23:23.000Z</time>
      </trkpt>
      <trkpt lat="46.10939" lon="6.78447">
        <ele>1787.2</ele>
        <time>2000-01-01T20:23:33.000Z</time>
      </trkpt>
      <trkpt lat="46.10941" lon="6.78449">
        <ele>1787.5</ele>
        <time>2000-01-01T20:23:43.000Z</time>
      </trkpt>
      <trkpt lat="46.10945" lon="6.78455">
        <ele>1788.9</ele>
        <time>2000-01-01T20:23:53.000Z</time>
      </trkpt>
      <trkpt lat="46.10945" lon="6.78457">
        <ele>1789.8</ele>
        <time>2000-01-01T20:24:03.000Z</time>
      </trkpt>
      <trkpt lat="46.10945" lon="6.78459">
        <ele>1790.7</ele>
        <time>2000-01-01T20:24:13.000Z</time>
      </trkpt>
      <trkpt lat="46.10946" lon="6.7846">
        <ele>1791</ele>
        <time>2000-01-01T20:24:23.000Z</time>
      </trkpt>
      <trkpt lat="46.10948" lon="6.78462">
        <ele>1791.6</ele>
        <time>2000-01-01T20:24:33.000Z</time>
      </trkpt>
      <trkpt lat="46.10949" lon="6.78464">
        <ele>1792.2</ele>
        <time>2000-01-01T20:24:43.000Z</time>
      </trkpt>
      <trkpt lat="46.1095" lon="6.78467">
        <ele>1790</ele>
        <time>2000-01-01T20:24:53.000Z</time>
      </trkpt>
      <trkpt lat="46.1095" lon="6.78469">
        <ele>1794.2</ele>
        <time>2000-01-01T20:25:03.000Z</time>
      </trkpt>
      <trkpt lat="46.10951" lon="6.78471">
        <ele>1794.8</ele>
        <time>2000-01-01T20:25:13.000Z</time>
      </trkpt>
      <trkpt lat="46.10952" lon="6.78473">
        <ele>1795.4</ele>
        <time>2000-01-01T20:25:23.000Z</time>
      </trkpt>
      <trkpt lat="46.10953" lon="6.78476">
        <ele>1796.4</ele>
        <time>2000-01-01T20:25:33.000Z</time>
      </trkpt>
      <trkpt lat="46.10954" lon="6.78479">
        <ele>1797.4</ele>
        <time>2000-01-01T20:25:43.000Z</time>
      </trkpt>
      <trkpt lat="46.10955" lon="6.78481">
        <ele>1798</ele>
        <time>2000-01-01T20:25:53.000Z</time>
      </trkpt>
      <trkpt lat="46.10957" lon="6.78486">
        <ele>1799.6</ele>
        <time>2000-01-01T20:26:03.000Z</time>
      </trkpt>
      <trkpt lat="46.10958" lon="6.78488">
        <ele>1800.1</ele>
        <time>2000-01-01T20:26:13.000Z</time>
      </trkpt>
      <trkpt lat="46.10959" lon="6.78491">
        <ele>1802</ele>
        <time>2000-01-01T20:26:23.000Z</time>
      </trkpt>
      <trkpt lat="46.1096" lon="6.78493">
        <ele>1801.6</ele>
        <time>2000-01-01T20:26:33.000Z</time>
      </trkpt>
      <trkpt lat="46.10961" lon="6.78494">
        <ele>1801.8</ele>
        <time>2000-01-01T20:26:43.000Z</time>
      </trkpt>
      <trkpt lat="46.10961" lon="6.78496">
        <ele>1802.6</ele>
        <time>2000-01-01T20:26:53.000Z</time>
      </trkpt>
      <trkpt lat="46.10961" lon="6.78498">
        <ele>1803.4</ele>
        <time>2000-01-01T20:27:03.000Z</time>
      </trkpt>
      <trkpt lat="46.10963" lon="6.785">
        <ele>1803.7</ele>
        <time>2000-01-01T20:27:13.000Z</time>
      </trkpt>
      <trkpt lat="46.10964" lon="6.78502">
        <ele>1804.2</ele>
        <time>2000-01-01T20:27:23.000Z</time>
      </trkpt>
      <trkpt lat="46.10966" lon="6.78502">
        <ele>1803.6</ele>
        <time>2000-01-01T20:27:33.000Z</time>
      </trkpt>
      <trkpt lat="46.10967" lon="6.78503">
        <ele>1803.7</ele>
        <time>2000-01-01T20:27:43.000Z</time>
      </trkpt>
      <trkpt lat="46.10969" lon="6.78503">
        <ele>1803.1</ele>
        <time>2000-01-01T20:27:53.000Z</time>
      </trkpt>
      <trkpt lat="46.1097" lon="6.78504">
        <ele>1803.2</ele>
        <time>2000-01-01T20:28:03.000Z</time>
      </trkpt>
      <trkpt lat="46.1097" lon="6.78506">
        <ele>1804.1</ele>
        <time>2000-01-01T20:28:13.000Z</time>
      </trkpt>
      <trkpt lat="46.10969" lon="6.78508">
        <ele>1805.2</ele>
        <time>2000-01-01T20:28:23.000Z</time>
      </trkpt>
      <trkpt lat="46.10968" lon="6.78508">
        <ele>1802</ele>
        <time>2000-01-01T20:28:33.000Z</time>
      </trkpt>
      <trkpt lat="46.10967" lon="6.78509">
        <ele>1806.2</ele>
        <time>2000-01-01T20:28:43.000Z</time>
      </trkpt>
      <trkpt lat="46.10966" lon="6.7851">
        <ele>1806.9</ele>
        <time>2000-01-01T20:28:53.000Z</time>
      </trkpt>
      <trkpt lat="46.10965" lon="6.78511">
        <ele>1807.6</ele>
        <time>2000-01-01T20:29:03.000Z</time>
      </trkpt>
      <trkpt lat="46.10965" lon="6.78513">
        <ele>1808.5</ele>
        <time>2000-01-01T20:29:13.000Z</time>
      </trkpt>
      <trkpt lat="46.10965" lon="6.78514">
        <ele>1808.9</ele>
        <time>2000-01-01T20:29:23.000Z</time>
      </trkpt>
      <trkpt lat="46.10967" lon="6.78515">
        <ele>1808.6</ele>
        <time>2000-01-01T20:29:33.000Z</time>
      </trkpt>
      <trkpt lat="46.10968" lon="6.78515">
        <ele>1808.3</ele>
        <time>2000-01-01T20:29:43.000Z</time>
      </trkpt>
      <trkpt lat="46.10969" lon="6.78515">
        <ele>1808</ele>
        <time>2000-01-01T20:29:53.000Z</time>
      </trkpt>
      <trkpt lat="46.1097" lon="6.78516">
        <ele>1808.1</ele>
        <time>2000-01-01T20:30:03.000Z</time>
      </trkpt>
      <trkpt lat="46.10971" lon="6.78518">
        <ele>1808.5</ele>
        <time>2000-01-01T20:30:13.000Z</time>
      </trkpt>
      <trkpt lat="46.10974" lon="6.78518">
        <ele>1807.7</ele>
        <time>2000-01-01T20:30:23.000Z</time>
      </trkpt>
      <trkpt lat="46.10975" lon="6.78518">
        <ele>1807.5</ele>
        <time>2000-01-01T20:30:33.000Z</time>
      </trkpt>
      <trkpt lat="46.10977" lon="6.78518">
        <ele>1807.1</ele>
        <time>2000-01-01T20:30:43.000Z</time>
      </trkpt>
      <trkpt lat="46.10978" lon="6.78519">
        <ele>1804</ele>
        <time>2000-01-01T20:30:53.000Z</time>
      </trkpt>
      <trkpt lat="46.10978" lon="6.7852">
        <ele>1807.7</ele>
        <time>2000-01-01T20:31:03.000Z</time>
      </trkpt>
      <trkpt lat="46.10979" lon="6.78521">
        <ele>1807.9</ele>
        <time>2000-01-01T20:31:13.000Z</time>
      </trkpt>
      <trkpt lat="46.10979" lon="6.78522">
        <ele>1808.2</ele>
        <time>2000-01-01T20:31:23.000Z</time>
      </trkpt>
      <trkpt lat="46.1098" lon="6.78523">
        <ele>1808.4</ele>
        <time>2000-01-01T20:31:33.000Z</time>
      </trkpt>
      <trkpt lat="46.1098" lon="6.78524">
        <ele>1808.8</ele>
        <time>2000-01-01T20:31:43.000Z</time>
      </trkpt>
      <trkpt lat="46.1098" lon="6.78525">
        <ele>1809.2</ele>
        <time>2000-01-01T20:31:53.000Z</time>
      </trkpt>
      <trkpt lat="46.10979" lon="6.78527">
        <ele>1810.2</ele>
        <time>2000-01-01T20:32:03.000Z</time>
      </trkpt>
      <trkpt lat="46.1098" lon="6.78528">
        <ele>1810.4</ele>
        <time>2000-01-01T20:32:13.000Z</time>
      </trkpt>
      <trkpt lat="46.1098" lon="6.78531">
        <ele>1811.5</ele>
        <time>2000-01-01T20:32:23.000Z</time>
      </trkpt>
      <trkpt lat="46.10981" lon="6.78531">
        <ele>1811.3</ele>
        <time>2000-01-01T20:32:33.000Z</time>
      </trkpt>
      <trkpt lat="46.10981" lon="6.78535">
        <ele>1812.7</ele>
        <time>2000-01-01T20:32:43.000Z</time>
      </trkpt>
      <trkpt lat="46.10981" lon="6.78544">
        <ele>1814</ele>
        <time>2000-01-01T20:32:53.000Z</time>
      </trkpt>
      <trkpt lat="46.10981" lon="6.78546">
        <ele>1816.7</ele>
        <time>2000-01-01T20:33:03.000Z</time>
      </trkpt>
      <trkpt lat="46.10982" lon="6.78549">
        <ele>1817.5</ele>
        <time>2000-01-01T20:33:13.000Z</time>
      </trkpt>
      <trkpt lat="46.10982" lon="6.78552">
        <ele>1818.6</ele>
        <time>2000-01-01T20:33:23.000Z</time>
      </trkpt>
      <trkpt lat="46.10983" lon="6.78554">
        <ele>1819.1</ele>
        <time>2000-01-01T20:33:33.000Z</time>
      </trkpt>
      <trkpt lat="46.10984" lon="6.78556">
        <ele>1819.6</ele>
        <time>2000-01-01T20:33:43.000Z</time>
      </trkpt>
      <trkpt lat="46.10985" lon="6.78557">
        <ele>1819.7</ele>
        <time>2000-01-01T20:33:53.000Z</time>
      </trkpt>
      <trkpt lat="46.10985" lon="6.7856">
        <ele>1820.5</ele>
        <time>2000-01-01T20:34:03.000Z</time>
      </trkpt>
      <trkpt lat="46.10987" lon="6.78561">
        <ele>1820.4</ele>
        <time>2000-01-01T20:34:13.000Z</time>
      </trkpt>
      <trkpt lat="46.10988" lon="6.78563">
        <ele>1820.8</ele>
        <time>2000-01-01T20:34:23.000Z</time>
      </trkpt>
      <trkpt lat="46.10989" lon="6.78564">
        <ele>1820.9</ele>
        <time>2000-01-01T20:34:33.000Z</time>
      </trkpt>
      <trkpt lat="46.1099" lon="6.78566">
        <ele>1821.3</ele>
        <time>2000-01-01T20:34:43.000Z</time>
      </trkpt>
      <trkpt lat="46.10991" lon="6.78566">
        <ele>1818</ele>
        <time>2000-01-01T20:34:53.000Z</time>
      </trkpt>
      <trkpt lat="46.10993" lon="6.78567">
        <ele>1821</ele>
        <time>2000-01-01T20:35:03.000Z</time>
      </trkpt>
      <trkpt lat="46.10993" lon="6.78568">
        <ele>1821.3</ele>
        <time>2000-01-01T20:35:13.000Z</time>
      </trkpt>
      <trkpt lat="46.10994" lon="6.78569">
        <ele>1821.4</ele>
        <time>2000-01-01T20:35:23.000Z</time>
      </trkpt>
      <trkpt lat="46.10995" lon="6.78573">
        <ele>1822.5</ele>
        <time>2000-01-01T20:35:33.000Z</time>
      </trkpt>
      <trkpt lat="46.10995" lon="6.78575">
        <ele>1823.1</ele>
        <time>2000-01-01T20:35:43.000Z</time>
      </trkpt>
      <trkpt lat="46.10996" lon="6.78577">
        <ele>1823.6</ele>
        <time>2000-01-01T20:35:53.000Z</time>
      </trkpt>
      <trkpt lat="46.10997" lon="6.78578">
        <ele>1823.7</ele>
        <time>2000-01-01T20:36:03.000Z</time>
      </trkpt>
      <trkpt lat="46.10997" lon="6.78579">
        <ele>1824.1</ele>
        <time>2000-01-01T20:36:13.000Z</time>
      </trkpt>
      <trkpt lat="46.10998" lon="6.7858">
        <ele>1824.2</ele>
        <time>2000-01-01T20:36:23.000Z</time>
      </trkpt>
      <trkpt lat="46.10999" lon="6.7858">
        <ele>1824.1</ele>
        <time>2000-01-01T20:36:33.000Z</time>
      </trkpt>
      <trkpt lat="46.11001" lon="6.78581">
        <ele>1824.2</ele>
        <time>2000-01-01T20:36:43.000Z</time>
      </trkpt>
      <trkpt lat="46.11003" lon="6.78584">
        <ele>1825.1</ele>
        <time>2000-01-01T20:36:53.000Z</time>
      </trkpt>
      <trkpt lat="46.11003" lon="6.78585">
        <ele>1824</ele>
        <time>2000-01-01T20:37:03.000Z</time>
      </trkpt>
      <trkpt lat="46.11004" lon="6.78591">
        <ele>1827.3</ele>
        <time>2000-01-01T20:37:13.000Z</time>
      </trkpt>
      <trkpt lat="46.11004" lon="6.78593">
        <ele>1828</ele>
        <time>2000-01-01T20:37:23.000Z</time>
      </trkpt>
      <trkpt lat="46.11004" lon="6.78595">
        <ele>1828.6</ele>
        <time>2000-01-01T20:37:33.000Z</time>
      </trkpt>
      <trkpt lat="46.11005" lon="6.78597">
        <ele>1829.2</ele>
        <time>2000-01-01T20:37:43.000Z</time>
      </trkpt>
      <trkpt lat="46.11006" lon="6.78597">
        <ele>1829.2</ele>
        <time>2000-01-01T20:37:53.000Z</time>
      </trkpt>
      <trkpt lat="46.11008" lon="6.786">
        <ele>1830.1</ele>
        <time>2000-01-01T20:38:03.000Z</time>
      </trkpt>
      <trkpt lat="46.11009" lon="6.78601">
        <ele>1830.4</ele>
        <time>2000-01-01T20:38:13.000Z</time>
      </trkpt>
      <trkpt lat="46.1101" lon="6.78602">
        <ele>1830.7</ele>
        <time>2000-01-01T20:38:23.000Z</time>
      </trkpt>
      <trkpt lat="46.11011" lon="6.78604">
        <ele>1831.3</ele>
        <time>2000-01-01T20:38:33.000Z</time>
      </trkpt>
      <trkpt lat="46.11012" lon="6.78606">
        <ele>1831.9</ele>
        <time>2000-01-01T20:38:43.000Z</time>
      </trkpt>
      <trkpt lat="46.11016" lon="6.78611">
        <ele>1831</ele>
        <time>2000-01-01T20:38:53.000Z</time>
      </trkpt>
      <trkpt lat="46.11017" lon="6.78614">
        <ele>1834.2</ele>
        <time>2000-01-01T20:39:03.000Z</time>
      </trkpt>
      <trkpt lat="46.11018" lon="6.78616">
        <ele>1834.8</ele>
        <time>2000-01-01T20:39:13.000Z</time>
      </trkpt>
      <trkpt lat="46.11019" lon="6.78617">
        <ele>1835</ele>
        <time>2000-01-01T20:39:23.000Z</time>
      </trkpt>
      <trkpt lat="46.1102" lon="6.78618">
        <ele>1835.3</ele>
        <time>2000-01-01T20:39:33.000Z</time>
      </trkpt>
      <trkpt lat="46.11021" lon="6.78619">
        <ele>1835.5</ele>
        <time>2000-01-01T20:39:43.000Z</time>
      </trkpt>
      <trkpt lat="46.11024" lon="6.78621">
        <ele>1836</ele>
        <time>2000-01-01T20:39:53.000Z</time>
      </trkpt>
      <trkpt lat="46.11025" lon="6.78621">
        <ele>1835.9</ele>
        <time>2000-01-01T20:40:03.000Z</time>
      </trkpt>
      <trkpt lat="46.11026" lon="6.7862">
        <ele>1835.6</ele>
        <time>2000-01-01T20:40:13.000Z</time>
      </trkpt>
      <trkpt lat="46.11026" lon="6.7862">
        <ele>1835.6</ele>
        <time>2000-01-01T20:40:23.000Z</time>
      </trkpt>
      <trkpt lat="46.11029" lon="6.78621">
        <ele>1835.8</ele>
        <time>2000-01-01T20:40:33.000Z</time>
      </trkpt>
      <trkpt lat="46.11031" lon="6.78621">
        <ele>1835.8</ele>
        <time>2000-01-01T20:40:43.000Z</time>
      </trkpt>
      <trkpt lat="46.11031" lon="6.78621">
        <ele>1835.8</ele>
        <time>2000-01-01T20:40:53.000Z</time>
      </trkpt>
      <trkpt lat="46.11031" lon="6.78623">
        <ele>1835</ele>
        <time>2000-01-01T20:41:03.000Z</time>
      </trkpt>
      <trkpt lat="46.11031" lon="6.78626">
        <ele>1837.2</ele>
        <time>2000-01-01T20:41:13.000Z</time>
      </trkpt>
      <trkpt lat="46.11031" lon="6.78628">
        <ele>1837.8</ele>
        <time>2000-01-01T20:41:23.000Z</time>
      </trkpt>
      <trkpt lat="46.11031" lon="6.78632">
        <ele>1839</ele>
        <time>2000-01-01T20:41:33.000Z</time>
      </trkpt>
      <trkpt lat="46.11033" lon="6.78633">
        <ele>1839.3</ele>
        <time>2000-01-01T20:41:43.000Z</time>
      </trkpt>
      <trkpt lat="46.11034" lon="6.78636">
        <ele>1840.1</ele>
        <time>2000-01-01T20:41:53.000Z</time>
      </trkpt>
      <trkpt lat="46.11034" lon="6.78638">
        <ele>1840.7</ele>
        <time>2000-01-01T20:42:03.000Z</time>
      </trkpt>
      <trkpt lat="46.11035" lon="6.78639">
        <ele>1841</ele>
        <time>2000-01-01T20:42:13.000Z</time>
      </trkpt>
      <trkpt lat="46.11036" lon="6.78642">
        <ele>1841.9</ele>
        <time>2000-01-01T20:42:23.000Z</time>
      </trkpt>
      <trkpt lat="46.11036" lon="6.78644">
        <ele>1842.4</ele>
        <time>2000-01-01T20:42:33.000Z</time>
      </trkpt>
      <trkpt lat="46.11036" lon="6.78647">
        <ele>1841</ele>
        <time>2000-01-01T20:42:43.000Z</time>
      </trkpt>
      <trkpt lat="46.11036" lon="6.78649">
        <ele>1843.8</ele>
        <time>2000-01-01T20:42:53.000Z</time>
      </trkpt>
      <trkpt lat="46.11036" lon="6.78651">
        <ele>1844.4</ele>
        <time>2000-01-01T20:43:03.000Z</time>
      </trkpt>
      <trkpt lat="46.11037" lon="6.78653">
        <ele>1844.9</ele>
        <time>2000-01-01T20:43:13.000Z</time>
      </trkpt>
      <trkpt lat="46.11037" lon="6.78656">
        <ele>1845.7</ele>
        <time>2000-01-01T20:43:23.000Z</time>
      </trkpt>
      <trkpt lat="46.11038" lon="6.78662">
        <ele>1847.3</ele>
        <time>2000-01-01T20:43:33.000Z</time>
      </trkpt>
      <trkpt lat="46.11038" lon="6.78664">
        <ele>1847.8</ele>
        <time>2000-01-01T20:43:43.000Z</time>
      </trkpt>
      <trkpt lat="46.1104" lon="6.78667">
        <ele>1848.3</ele>
        <time>2000-01-01T20:43:53.000Z</time>
      </trkpt>
      <trkpt lat="46.11041" lon="6.78669">
        <ele>1848.7</ele>
        <time>2000-01-01T20:44:03.000Z</time>
      </trkpt>
      <trkpt lat="46.11041" lon="6.78671">
        <ele>1849.2</ele>
        <time>2000-01-01T20:44:13.000Z</time>
      </trkpt>
      <trkpt lat="46.11042" lon="6.78674">
        <ele>1848</ele>
        <time>2000-01-01T20:44:23.000Z</time>
      </trkpt>
      <trkpt lat="46.11043" lon="6.78676">
        <ele>1850.1</ele>
        <time>2000-01-01T20:44:33.000Z</time>
      </trkpt>
      <trkpt lat="46.11044" lon="6.78677">
        <ele>1850.2</ele>
        <time>2000-01-01T20:44:43.000Z</time>
      </trkpt>
      <trkpt lat="46.11044" lon="6.7868">
        <ele>1850.9</ele>
        <time>2000-01-01T20:44:53.000Z</time>
      </trkpt>
      <trkpt lat="46.11045" lon="6.78683">
        <ele>1851.5</ele>
        <time>2000-01-01T20:45:03.000Z</time>
      </trkpt>
      <trkpt lat="46.11046" lon="6.78684">
        <ele>1851.5</ele>
        <time>2000-01-01T20:45:13.000Z</time>
      </trkpt>
      <trkpt lat="46.11047" lon="6.78687">
        <ele>1852.1</ele>
        <time>2000-01-01T20:45:23.000Z</time>
      </trkpt>
      <trkpt lat="46.11049" lon="6.78689">
        <ele>1852.1</ele>
        <time>2000-01-01T20:45:33.000Z</time>
      </trkpt>
      <trkpt lat="46.11049" lon="6.78692">
        <ele>1852.8</ele>
        <time>2000-01-01T20:45:43.000Z</time>
      </trkpt>
      <trkpt lat="46.11048" lon="6.78693">
        <ele>1853.3</ele>
        <time>2000-01-01T20:45:53.000Z</time>
      </trkpt>
      <trkpt lat="46.11049" lon="6.78696">
        <ele>1854</ele>
        <time>2000-01-01T20:46:03.000Z</time>
      </trkpt>
      <trkpt lat="46.1105" lon="6.78699">
        <ele>1851</ele>
        <time>2000-01-01T20:46:13.000Z</time>
      </trkpt>
      <trkpt lat="46.1105" lon="6.78702">
        <ele>1856</ele>
        <time>2000-01-01T20:46:23.000Z</time>
      </trkpt>
      <trkpt lat="46.11051" lon="6.78703">
        <ele>1856.2</ele>
        <time>2000-01-01T20:46:33.000Z</time>
      </trkpt>
      <trkpt lat="46.11053" lon="6.78704">
        <ele>1856.1</ele>
        <time>2000-01-01T20:46:43.000Z</time>
      </trkpt>
      <trkpt lat="46.11054" lon="6.78705">
        <ele>1856.2</ele>
        <time>2000-01-01T20:46:53.000Z</time>
      </trkpt>
      <trkpt lat="46.11055" lon="6.78707">
        <ele>1856.7</ele>
        <time>2000-01-01T20:47:03.000Z</time>
      </trkpt>
      <trkpt lat="46.11056" lon="6.78708">
        <ele>1856.8</ele>
        <time>2000-01-01T20:47:13.000Z</time>
      </trkpt>
      <trkpt lat="46.11058" lon="6.78709">
        <ele>1856.8</ele>
        <time>2000-01-01T20:47:23.000Z</time>
      </trkpt>
      <trkpt lat="46.1106" lon="6.78712">
        <ele>1857.6</ele>
        <time>2000-01-01T20:47:33.000Z</time>
      </trkpt>
      <trkpt lat="46.11062" lon="6.78712">
        <ele>1857.2</ele>
        <time>2000-01-01T20:47:43.000Z</time>
      </trkpt>
      <trkpt lat="46.11063" lon="6.78711">
        <ele>1856.7</ele>
        <time>2000-01-01T20:47:53.000Z</time>
      </trkpt>
      <trkpt lat="46.11064" lon="6.78712">
        <ele>1856</ele>
        <time>2000-01-01T20:48:03.000Z</time>
      </trkpt>
      <trkpt lat="46.11066" lon="6.78713">
        <ele>1856.9</ele>
        <time>2000-01-01T20:48:13.000Z</time>
      </trkpt>
      <trkpt lat="46.11066" lon="6.78713">
        <ele>1856.9</ele>
        <time>2000-01-01T20:48:23.000Z</time>
      </trkpt>
      <trkpt lat="46.11068" lon="6.78715">
        <ele>1857.3</ele>
        <time>2000-01-01T20:48:33.000Z</time>
      </trkpt>
      <trkpt lat="46.11071" lon="6.78721">
        <ele>1858.8</ele>
        <time>2000-01-01T20:48:43.000Z</time>
      </trkpt>
      <trkpt lat="46.11071" lon="6.78722">
        <ele>1859.1</ele>
        <time>2000-01-01T20:48:53.000Z</time>
      </trkpt>
      <trkpt lat="46.11071" lon="6.78725">
        <ele>1860.3</ele>
        <time>2000-01-01T20:49:03.000Z</time>
      </trkpt>
      <trkpt lat="46.11072" lon="6.78726">
        <ele>1860.5</ele>
        <time>2000-01-01T20:49:13.000Z</time>
      </trkpt>
      <trkpt lat="46.11073" lon="6.78728">
        <ele>1861</ele>
        <time>2000-01-01T20:49:23.000Z</time>
      </trkpt>
      <trkpt lat="46.11074" lon="6.78731">
        <ele>1861.9</ele>
        <time>2000-01-01T20:49:33.000Z</time>
      </trkpt>
      <trkpt lat="46.11078" lon="6.78735">
        <ele>1861</ele>
        <time>2000-01-01T20:49:43.000Z</time>
      </trkpt>
      <trkpt lat="46.11079" lon="6.78738">
        <ele>1863.5</ele>
        <time>2000-01-01T20:49:53.000Z</time>
      </trkpt>
      <trkpt lat="46.1108" lon="6.78742">
        <ele>1864.8</ele>
        <time>2000-01-01T20:50:03.000Z</time>
      </trkpt>
      <trkpt lat="46.11081" lon="6.78742">
        <ele>1864.6</ele>
        <time>2000-01-01T20:50:13.000Z</time>
      </trkpt>
      <trkpt lat="46.11083" lon="6.78743">
        <ele>1864.5</ele>
        <time>2000-01-01T20:50:23.000Z</time>
      </trkpt>
      <trkpt lat="46.11085" lon="6.78744">
        <ele>1864.6</ele>
        <time>2000-01-01T20:50:33.000Z</time>
      </trkpt>
      <trkpt lat="46.11087" lon="6.78747">
        <ele>1865.4</ele>
        <time>2000-01-01T20:50:43.000Z</time>
      </trkpt>
      <trkpt lat="46.1109" lon="6.78753">
        <ele>1867.2</ele>
        <time>2000-01-01T20:50:53.000Z</time>
      </trkpt>
      <trkpt lat="46.11091" lon="6.78755">
        <ele>1867</ele>
        <time>2000-01-01T20:51:03.000Z</time>
      </trkpt>
      <trkpt lat="46.11091" lon="6.78757">
        <ele>1868.6</ele>
        <time>2000-01-01T20:51:13.000Z</time>
      </trkpt>
      <trkpt lat="46.11091" lon="6.78761">
        <ele>1870.1</ele>
        <time>2000-01-01T20:51:23.000Z</time>
      </trkpt>
      <trkpt lat="46.11091" lon="6.78762">
        <ele>1870.5</ele>
        <time>2000-01-01T20:51:33.000Z</time>
      </trkpt>
      <trkpt lat="46.11091" lon="6.78765">
        <ele>1871.6</ele>
        <time>2000-01-01T20:51:43.000Z</time>
      </trkpt>
      <trkpt lat="46.11092" lon="6.78768">
        <ele>1872.6</ele>
        <time>2000-01-01T20:51:53.000Z</time>
      </trkpt>
      <trkpt lat="46.11093" lon="6.7877">
        <ele>1873.3</ele>
        <time>2000-01-01T20:52:03.000Z</time>
      </trkpt>
      <trkpt lat="46.11094" lon="6.78771">
        <ele>1873.6</ele>
        <time>2000-01-01T20:52:13.000Z</time>
      </trkpt>
      <trkpt lat="46.11095" lon="6.78773">
        <ele>1874.3</ele>
        <time>2000-01-01T20:52:23.000Z</time>
      </trkpt>
      <trkpt lat="46.11097" lon="6.78775">
        <ele>1874.9</ele>
        <time>2000-01-01T20:52:33.000Z</time>
      </trkpt>
      <trkpt lat="46.11098" lon="6.78777">
        <ele>1875.6</ele>
        <time>2000-01-01T20:52:43.000Z</time>
      </trkpt>
      <trkpt lat="46.11099" lon="6.78779">
        <ele>1872</ele>
        <time>2000-01-01T20:52:53.000Z</time>
      </trkpt>
      <trkpt lat="46.111" lon="6.78781">
        <ele>1876.9</ele>
        <time>2000-01-01T20:53:03.000Z</time>
      </trkpt>
      <trkpt lat="46.111" lon="6.78781">
        <ele>1876.9</ele>
        <time>2000-01-01T20:53:13.000Z</time>
      </trkpt>
      <trkpt lat="46.111" lon="6.78781">
        <ele>1876.9</ele>
        <time>2000-01-01T20:53:23.000Z</time>
      </trkpt>
      <trkpt lat="46.11101" lon="6.78782">
        <ele>1877.2</ele>
        <time>2000-01-01T20:53:33.000Z</time>
      </trkpt>
      <trkpt lat="46.11103" lon="6.78782">
        <ele>1877</ele>
        <time>2000-01-01T20:53:43.000Z</time>
      </trkpt>
      <trkpt lat="46.11104" lon="6.78783">
        <ele>1877.3</ele>
        <time>2000-01-01T20:53:53.000Z</time>
      </trkpt>
      <trkpt lat="46.11104" lon="6.78785">
        <ele>1877.9</ele>
        <time>2000-01-01T20:54:03.000Z</time>
      </trkpt>
      <trkpt lat="46.11105" lon="6.78786">
        <ele>1878.2</ele>
        <time>2000-01-01T20:54:13.000Z</time>
      </trkpt>
      <trkpt lat="46.11106" lon="6.78786">
        <ele>1878.1</ele>
        <time>2000-01-01T20:54:23.000Z</time>
      </trkpt>
      <trkpt lat="46.11106" lon="6.78786">
        <ele>1878.1</ele>
        <time>2000-01-01T20:54:33.000Z</time>
      </trkpt>
      <trkpt lat="46.11107" lon="6.78788">
        <ele>1878.7</ele>
        <time>2000-01-01T20:54:43.000Z</time>
      </trkpt>
      <trkpt lat="46.11109" lon="6.78791">
        <ele>1879.5</ele>
        <time>2000-01-01T20:54:53.000Z</time>
      </trkpt>
      <trkpt lat="46.11109" lon="6.78795">
        <ele>1880.8</ele>
        <time>2000-01-01T20:55:03.000Z</time>
      </trkpt>
      <trkpt lat="46.11111" lon="6.78796">
        <ele>1880.9</ele>
        <time>2000-01-01T20:55:13.000Z</time>
      </trkpt>
      <trkpt lat="46.11111" lon="6.78797">
        <ele>1880</ele>
        <time>2000-01-01T20:55:23.000Z</time>
      </trkpt>
      <trkpt lat="46.11112" lon="6.78799">
        <ele>1881.8</ele>
        <time>2000-01-01T20:55:33.000Z</time>
      </trkpt>
      <trkpt lat="46.11114" lon="6.78802">
        <ele>1882.6</ele>
        <time>2000-01-01T20:55:43.000Z</time>
      </trkpt>
      <trkpt lat="46.11116" lon="6.78803">
        <ele>1882.7</ele>
        <time>2000-01-01T20:55:53.000Z</time>
      </trkpt>
      <trkpt lat="46.11118" lon="6.78805">
        <ele>1883.3</ele>
        <time>2000-01-01T20:56:03.000Z</time>
      </trkpt>
      <trkpt lat="46.11119" lon="6.78806">
        <ele>1883.5</ele>
        <time>2000-01-01T20:56:13.000Z</time>
      </trkpt>
      <trkpt lat="46.11119" lon="6.78808">
        <ele>1884</ele>
        <time>2000-01-01T20:56:23.000Z</time>
      </trkpt>
      <trkpt lat="46.11119" lon="6.7881">
        <ele>1884.4</ele>
        <time>2000-01-01T20:56:33.000Z</time>
      </trkpt>
      <trkpt lat="46.11119" lon="6.78813">
        <ele>1885.1</ele>
        <time>2000-01-01T20:56:43.000Z</time>
      </trkpt>
      <trkpt lat="46.1112" lon="6.78816">
        <ele>1885.7</ele>
        <time>2000-01-01T20:56:53.000Z</time>
      </trkpt>
      <trkpt lat="46.11121" lon="6.78819">
        <ele>1885</ele>
        <time>2000-01-01T20:57:03.000Z</time>
      </trkpt>
      <trkpt lat="46.11121" lon="6.78822">
        <ele>1887.1</ele>
        <time>2000-01-01T20:57:13.000Z</time>
      </trkpt>
      <trkpt lat="46.11121" lon="6.78825">
        <ele>1887.7</ele>
        <time>2000-01-01T20:57:23.000Z</time>
      </trkpt>
      <trkpt lat="46.11122" lon="6.78827">
        <ele>1888.2</ele>
        <time>2000-01-01T20:57:33.000Z</time>
      </trkpt>
      <trkpt lat="46.11121" lon="6.7883">
        <ele>1888.9</ele>
        <time>2000-01-01T20:57:43.000Z</time>
      </trkpt>
      <trkpt lat="46.11122" lon="6.78835">
        <ele>1890</ele>
        <time>2000-01-01T20:57:53.000Z</time>
      </trkpt>
      <trkpt lat="46.11123" lon="6.78837">
        <ele>1890.5</ele>
        <time>2000-01-01T20:58:03.000Z</time>
      </trkpt>
      <trkpt lat="46.11124" lon="6.78839">
        <ele>1891</ele>
        <time>2000-01-01T20:58:13.000Z</time>
      </trkpt>
      <trkpt lat="46.11125" lon="6.78841">
        <ele>1891.4</ele>
        <time>2000-01-01T20:58:23.000Z</time>
      </trkpt>
      <trkpt lat="46.11126" lon="6.78844">
        <ele>1892.1</ele>
        <time>2000-01-01T20:58:33.000Z</time>
      </trkpt>
      <trkpt lat="46.11126" lon="6.78845">
        <ele>1890</ele>
        <time>2000-01-01T20:58:43.000Z</time>
      </trkpt>
      <trkpt lat="46.11127" lon="6.78847">
        <ele>1892.8</ele>
        <time>2000-01-01T20:58:53.000Z</time>
      </trkpt>
      <trkpt lat="46.11127" lon="6.7885">
        <ele>1893.5</ele>
        <time>2000-01-01T20:59:03.000Z</time>
      </trkpt>
      <trkpt lat="46.11128" lon="6.78853">
        <ele>1894.2</ele>
        <time>2000-01-01T20:59:13.000Z</time>
      </trkpt>
      <trkpt lat="46.11129" lon="6.78855">
        <ele>1894.6</ele>
        <time>2000-01-01T20:59:23.000Z</time>
      </trkpt>
      <trkpt lat="46.11129" lon="6.78857">
        <ele>1895.1</ele>
        <time>2000-01-01T20:59:33.000Z</time>
      </trkpt>
      <trkpt lat="46.1113" lon="6.78864">
        <ele>1896.7</ele>
        <time>2000-01-01T20:59:43.000Z</time>
      </trkpt>
      <trkpt lat="46.1113" lon="6.78867">
        <ele>1897.5</ele>
        <time>2000-01-01T20:59:53.000Z</time>
      </trkpt>
      <trkpt lat="46.11131" lon="6.78871">
        <ele>1898</ele>
        <time>2000-01-01T21:00:03.000Z</time>
      </trkpt>
      <trkpt lat="46.11133" lon="6.78874">
        <ele>1898.8</ele>
        <time>2000-01-01T21:00:13.000Z</time>
      </trkpt>
      <trkpt lat="46.11133" lon="6.78876">
        <ele>1899.3</ele>
        <time>2000-01-01T21:00:23.000Z</time>
      </trkpt>
      <trkpt lat="46.11134" lon="6.78878">
        <ele>1899.6</ele>
        <time>2000-01-01T21:00:33.000Z</time>
      </trkpt>
      <trkpt lat="46.11136" lon="6.7888">
        <ele>1899.7</ele>
        <time>2000-01-01T21:00:43.000Z</time>
      </trkpt>
      <trkpt lat="46.11138" lon="6.78881">
        <ele>1899.5</ele>
        <time>2000-01-01T21:00:53.000Z</time>
      </trkpt>
      <trkpt lat="46.11139" lon="6.78883">
        <ele>1899.7</ele>
        <time>2000-01-01T21:01:03.000Z</time>
      </trkpt>
      <trkpt lat="46.11141" lon="6.78885">
        <ele>1900</ele>
        <time>2000-01-01T21:01:13.000Z</time>
      </trkpt>
      <trkpt lat="46.11142" lon="6.78888">
        <ele>1900.6</ele>
        <time>2000-01-01T21:01:23.000Z</time>
      </trkpt>
      <trkpt lat="46.11143" lon="6.78889">
        <ele>1900.7</ele>
        <time>2000-01-01T21:01:33.000Z</time>
      </trkpt>
      <trkpt lat="46.11143" lon="6.7889">
        <ele>1901</ele>
        <time>2000-01-01T21:01:43.000Z</time>
      </trkpt>
      <trkpt lat="46.11144" lon="6.78891">
        <ele>1901</ele>
        <time>2000-01-01T21:01:53.000Z</time>
      </trkpt>
      <trkpt lat="46.11145" lon="6.78894">
        <ele>1901.9</ele>
        <time>2000-01-01T21:02:03.000Z</time>
      </trkpt>
      <trkpt lat="46.11145" lon="6.78895">
        <ele>1902.1</ele>
        <time>2000-01-01T21:02:13.000Z</time>
      </trkpt>
      <trkpt lat="46.11146" lon="6.78896">
        <ele>1902.3</ele>
        <time>2000-01-01T21:02:23.000Z</time>
      </trkpt>
      <trkpt lat="46.11147" lon="6.78898">
        <ele>1902.8</ele>
        <time>2000-01-01T21:02:33.000Z</time>
      </trkpt>
      <trkpt lat="46.11148" lon="6.78901">
        <ele>1903.5</ele>
        <time>2000-01-01T21:02:43.000Z</time>
      </trkpt>
      <trkpt lat="46.11148" lon="6.78904">
        <ele>1904.3</ele>
        <time>2000-01-01T21:02:53.000Z</time>
      </trkpt>
      <trkpt lat="46.11148" lon="6.78906">
        <ele>1904.9</ele>
        <time>2000-01-01T21:03:03.000Z</time>
      </trkpt>
      <trkpt lat="46.11148" lon="6.78908">
        <ele>1905.4</ele>
        <time>2000-01-01T21:03:13.000Z</time>
      </trkpt>
      <trkpt lat="46.11149" lon="6.78909">
        <ele>1905.6</ele>
        <time>2000-01-01T21:03:23.000Z</time>
      </trkpt>
      <trkpt lat="46.11151" lon="6.78911">
        <ele>1906</ele>
        <time>2000-01-01T21:03:33.000Z</time>
      </trkpt>
      <trkpt lat="46.11152" lon="6.78915">
        <ele>1906</ele>
        <time>2000-01-01T21:03:43.000Z</time>
      </trkpt>
      <trkpt lat="46.11152" lon="6.78918">
        <ele>1908</ele>
        <time>2000-01-01T21:03:53.000Z</time>
      </trkpt>
      <trkpt lat="46.11152" lon="6.78919">
        <ele>1908.3</ele>
        <time>2000-01-01T21:04:03.000Z</time>
      </trkpt>
      <trkpt lat="46.11153" lon="6.78921">
        <ele>1909</ele>
        <time>2000-01-01T21:04:13.000Z</time>
      </trkpt>
      <trkpt lat="46.11153" lon="6.78924">
        <ele>1910</ele>
        <time>2000-01-01T21:04:23.000Z</time>
      </trkpt>
      <trkpt lat="46.11153" lon="6.78926">
        <ele>1910.7</ele>
        <time>2000-01-01T21:04:33.000Z</time>
      </trkpt>
      <trkpt lat="46.11153" lon="6.78928">
        <ele>1911.4</ele>
        <time>2000-01-01T21:04:43.000Z</time>
      </trkpt>
      <trkpt lat="46.11155" lon="6.7893">
        <ele>1911.9</ele>
        <time>2000-01-01T21:04:53.000Z</time>
      </trkpt>
      <trkpt lat="46.11155" lon="6.78933">
        <ele>1913</ele>
        <time>2000-01-01T21:05:03.000Z</time>
      </trkpt>
      <trkpt lat="46.11155" lon="6.78936">
        <ele>1914</ele>
        <time>2000-01-01T21:05:13.000Z</time>
      </trkpt>
      <trkpt lat="46.11155" lon="6.7894">
        <ele>1915.3</ele>
        <time>2000-01-01T21:05:23.000Z</time>
      </trkpt>
      <trkpt lat="46.11156" lon="6.78944">
        <ele>1915</ele>
        <time>2000-01-01T21:05:33.000Z</time>
      </trkpt>
      <trkpt lat="46.11158" lon="6.78946">
        <ele>1917.2</ele>
        <time>2000-01-01T21:05:43.000Z</time>
      </trkpt>
      <trkpt lat="46.11158" lon="6.78948">
        <ele>1917.9</ele>
        <time>2000-01-01T21:05:53.000Z</time>
      </trkpt>
      <trkpt lat="46.11159" lon="6.78949">
        <ele>1918.2</ele>
        <time>2000-01-01T21:06:03.000Z</time>
      </trkpt>
      <trkpt lat="46.11159" lon="6.78951">
        <ele>1918.9</ele>
        <time>2000-01-01T21:06:13.000Z</time>
      </trkpt>
      <trkpt lat="46.1116" lon="6.78954">
        <ele>1919.8</ele>
        <time>2000-01-01T21:06:23.000Z</time>
      </trkpt>
      <trkpt lat="46.11159" lon="6.78955">
        <ele>1920.3</ele>
        <time>2000-01-01T21:06:33.000Z</time>
      </trkpt>
      <trkpt lat="46.11159" lon="6.78956">
        <ele>1920.6</ele>
        <time>2000-01-01T21:06:43.000Z</time>
      </trkpt>
      <trkpt lat="46.11156" lon="6.7896">
        <ele>1922.5</ele>
        <time>2000-01-01T21:06:53.000Z</time>
      </trkpt>
      <trkpt lat="46.11155" lon="6.78962">
        <ele>1923.3</ele>
        <time>2000-01-01T21:07:03.000Z</time>
      </trkpt>
      <trkpt lat="46.11156" lon="6.78964">
        <ele>1923.9</ele>
        <time>2000-01-01T21:07:13.000Z</time>
      </trkpt>
      <trkpt lat="46.11156" lon="6.78965">
        <ele>1924.3</ele>
        <time>2000-01-01T21:07:23.000Z</time>
      </trkpt>
      <trkpt lat="46.11158" lon="6.78967">
        <ele>1922</ele>
        <time>2000-01-01T21:07:33.000Z</time>
      </trkpt>
      <trkpt lat="46.11159" lon="6.78969">
        <ele>1925.2</ele>
        <time>2000-01-01T21:07:43.000Z</time>
      </trkpt>
      <trkpt lat="46.1116" lon="6.78971">
        <ele>1925.8</ele>
        <time>2000-01-01T21:07:53.000Z</time>
      </trkpt>
      <trkpt lat="46.1116" lon="6.78973">
        <ele>1926.5</ele>
        <time>2000-01-01T21:08:03.000Z</time>
      </trkpt>
      <trkpt lat="46.1116" lon="6.78975">
        <ele>1927.3</ele>
        <time>2000-01-01T21:08:13.000Z</time>
      </trkpt>
      <trkpt lat="46.1116" lon="6.78976">
        <ele>1927.7</ele>
        <time>2000-01-01T21:08:23.000Z</time>
      </trkpt>
      <trkpt lat="46.11162" lon="6.78978">
        <ele>1928</ele>
        <time>2000-01-01T21:08:33.000Z</time>
      </trkpt>
      <trkpt lat="46.11162" lon="6.7898">
        <ele>1928.8</ele>
        <time>2000-01-01T21:08:43.000Z</time>
      </trkpt>
      <trkpt lat="46.11161" lon="6.78981">
        <ele>1929.4</ele>
        <time>2000-01-01T21:08:53.000Z</time>
      </trkpt>
      <trkpt lat="46.11159" lon="6.78982">
        <ele>1930.2</ele>
        <time>2000-01-01T21:09:03.000Z</time>
      </trkpt>
      <trkpt lat="46.11158" lon="6.78983">
        <ele>1930.8</ele>
        <time>2000-01-01T21:09:13.000Z</time>
      </trkpt>
      <trkpt lat="46.11159" lon="6.78985">
        <ele>1931.4</ele>
        <time>2000-01-01T21:09:23.000Z</time>
      </trkpt>
      <trkpt lat="46.11159" lon="6.78986">
        <ele>1931.8</ele>
        <time>2000-01-01T21:09:33.000Z</time>
      </trkpt>
      <trkpt lat="46.1116" lon="6.78988">
        <ele>1929</ele>
        <time>2000-01-01T21:09:43.000Z</time>
      </trkpt>
      <trkpt lat="46.1116" lon="6.78989">
        <ele>1932.7</ele>
        <time>2000-01-01T21:09:53.000Z</time>
      </trkpt>
      <trkpt lat="46.11162" lon="6.78991">
        <ele>1932.9</ele>
        <time>2000-01-01T21:10:03.000Z</time>
      </trkpt>
      <trkpt lat="46.11161" lon="6.78992">
        <ele>1933.6</ele>
        <time>2000-01-01T21:10:13.000Z</time>
      </trkpt>
      <trkpt lat="46.1116" lon="6.78993">
        <ele>1934.2</ele>
        <time>2000-01-01T21:10:23.000Z</time>
      </trkpt>
      <trkpt lat="46.11159" lon="6.78996">
        <ele>1935.6</ele>
        <time>2000-01-01T21:10:33.000Z</time>
      </trkpt>
      <trkpt lat="46.11158" lon="6.78997">
        <ele>1936.3</ele>
        <time>2000-01-01T21:10:43.000Z</time>
      </trkpt>
      <trkpt lat="46.11158" lon="6.78999">
        <ele>1937.1</ele>
        <time>2000-01-01T21:10:53.000Z</time>
      </trkpt>
      <trkpt lat="46.11159" lon="6.79">
        <ele>1937.2</ele>
        <time>2000-01-01T21:11:03.000Z</time>
      </trkpt>
      <trkpt lat="46.11161" lon="6.79001">
        <ele>1937</ele>
        <time>2000-01-01T21:11:13.000Z</time>
      </trkpt>
      <trkpt lat="46.11162" lon="6.79002">
        <ele>1937.2</ele>
        <time>2000-01-01T21:11:23.000Z</time>
      </trkpt>
      <trkpt lat="46.11163" lon="6.79003">
        <ele>1937.3</ele>
        <time>2000-01-01T21:11:33.000Z</time>
      </trkpt>
      <trkpt lat="46.11164" lon="6.79005">
        <ele>1937.8</ele>
        <time>2000-01-01T21:11:43.000Z</time>
      </trkpt>
      <trkpt lat="46.11165" lon="6.79008">
        <ele>1935</ele>
        <time>2000-01-01T21:11:53.000Z</time>
      </trkpt>
      <trkpt lat="46.11166" lon="6.79012">
        <ele>1940</ele>
        <time>2000-01-01T21:12:03.000Z</time>
      </trkpt>
      <trkpt lat="46.11168" lon="6.79013">
        <ele>1939.8</ele>
        <time>2000-01-01T21:12:13.000Z</time>
      </trkpt>
      <trkpt lat="46.11169" lon="6.79014">
        <ele>1939.9</ele>
        <time>2000-01-01T21:12:23.000Z</time>
      </trkpt>
      <trkpt lat="46.1117" lon="6.79015">
        <ele>1940</ele>
        <time>2000-01-01T21:12:33.000Z</time>
      </trkpt>
      <trkpt lat="46.1117" lon="6.79018">
        <ele>1941.1</ele>
        <time>2000-01-01T21:12:43.000Z</time>
      </trkpt>
      <trkpt lat="46.1117" lon="6.79023">
        <ele>1943</ele>
        <time>2000-01-01T21:12:53.000Z</time>
      </trkpt>
      <trkpt lat="46.1117" lon="6.79024">
        <ele>1943.4</ele>
        <time>2000-01-01T21:13:03.000Z</time>
      </trkpt>
      <trkpt lat="46.11171" lon="6.79025">
        <ele>1943.4</ele>
        <time>2000-01-01T21:13:13.000Z</time>
      </trkpt>
      <trkpt lat="46.11172" lon="6.79025">
        <ele>1943.1</ele>
        <time>2000-01-01T21:13:23.000Z</time>
      </trkpt>
      <trkpt lat="46.11173" lon="6.79026">
        <ele>1943.1</ele>
        <time>2000-01-01T21:13:33.000Z</time>
      </trkpt>
      <trkpt lat="46.11172" lon="6.79027">
        <ele>1943.8</ele>
        <time>2000-01-01T21:13:43.000Z</time>
      </trkpt>
      <trkpt lat="46.11171" lon="6.79029">
        <ele>1945</ele>
        <time>2000-01-01T21:13:53.000Z</time>
      </trkpt>
      <trkpt lat="46.11171" lon="6.7903">
        <ele>1946</ele>
        <time>2000-01-01T21:14:03.000Z</time>
      </trkpt>
      <trkpt lat="46.11172" lon="6.79032">
        <ele>1946</ele>
        <time>2000-01-01T21:14:13.000Z</time>
      </trkpt>
      <trkpt lat="46.11173" lon="6.79033">
        <ele>1946.1</ele>
        <time>2000-01-01T21:14:23.000Z</time>
      </trkpt>
      <trkpt lat="46.11174" lon="6.79033">
        <ele>1945.8</ele>
        <time>2000-01-01T21:14:33.000Z</time>
      </trkpt>
      <trkpt lat="46.11174" lon="6.79035">
        <ele>1946.8</ele>
        <time>2000-01-01T21:14:43.000Z</time>
      </trkpt>
      <trkpt lat="46.11174" lon="6.79037">
        <ele>1947.7</ele>
        <time>2000-01-01T21:14:53.000Z</time>
      </trkpt>
      <trkpt lat="46.11173" lon="6.79039">
        <ele>1948.9</ele>
        <time>2000-01-01T21:15:03.000Z</time>
      </trkpt>
      <trkpt lat="46.11172" lon="6.79039">
        <ele>1949.2</ele>
        <time>2000-01-01T21:15:13.000Z</time>
      </trkpt>
      <trkpt lat="46.11171" lon="6.7904">
        <ele>1950</ele>
        <time>2000-01-01T21:15:23.000Z</time>
      </trkpt>
      <trkpt lat="46.11172" lon="6.79041">
        <ele>1950.2</ele>
        <time>2000-01-01T21:15:33.000Z</time>
      </trkpt>
      <trkpt lat="46.11173" lon="6.79042">
        <ele>1950.3</ele>
        <time>2000-01-01T21:15:43.000Z</time>
      </trkpt>
      <trkpt lat="46.11175" lon="6.79043">
        <ele>1950.2</ele>
        <time>2000-01-01T21:15:53.000Z</time>
      </trkpt>
      <trkpt lat="46.11176" lon="6.79043">
        <ele>1950</ele>
        <time>2000-01-01T21:16:03.000Z</time>
      </trkpt>
      <trkpt lat="46.11176" lon="6.79044">
        <ele>1950.4</ele>
        <time>2000-01-01T21:16:13.000Z</time>
      </trkpt>
      <trkpt lat="46.11177" lon="6.79045">
        <ele>1950.6</ele>
        <time>2000-01-01T21:16:23.000Z</time>
      </trkpt>
      <trkpt lat="46.1118" lon="6.79045">
        <ele>1949</ele>
        <time>2000-01-01T21:16:33.000Z</time>
      </trkpt>
      <trkpt lat="46.11181" lon="6.79046">
        <ele>1950.1</ele>
        <time>2000-01-01T21:16:43.000Z</time>
      </trkpt>
      <trkpt lat="46.11181" lon="6.79047">
        <ele>1950.6</ele>
        <time>2000-01-01T21:16:53.000Z</time>
      </trkpt>
      <trkpt lat="46.1118" lon="6.79047">
        <ele>1950.8</ele>
        <time>2000-01-01T21:17:03.000Z</time>
      </trkpt>
      <trkpt lat="46.11176" lon="6.79052">
        <ele>1954.3</ele>
        <time>2000-01-01T21:17:13.000Z</time>
      </trkpt>
      <trkpt lat="46.11175" lon="6.79053">
        <ele>1955</ele>
        <time>2000-01-01T21:17:23.000Z</time>
      </trkpt>
      <trkpt lat="46.11176" lon="6.79055">
        <ele>1955.7</ele>
        <time>2000-01-01T21:17:33.000Z</time>
      </trkpt>
      <trkpt lat="46.1118" lon="6.79056">
        <ele>1955.3</ele>
        <time>2000-01-01T21:17:43.000Z</time>
      </trkpt>
      <trkpt lat="46.1118" lon="6.79057">
        <ele>1955.7</ele>
        <time>2000-01-01T21:17:53.000Z</time>
      </trkpt>
      <trkpt lat="46.11179" lon="6.79058">
        <ele>1956.4</ele>
        <time>2000-01-01T21:18:03.000Z</time>
      </trkpt>
      <trkpt lat="46.11178" lon="6.79059">
        <ele>1957</ele>
        <time>2000-01-01T21:18:13.000Z</time>
      </trkpt>
      <trkpt lat="46.11176" lon="6.7906">
        <ele>1957.8</ele>
        <time>2000-01-01T21:18:23.000Z</time>
      </trkpt>
      <trkpt lat="46.11176" lon="6.79061">
        <ele>1958</ele>
        <time>2000-01-01T21:18:33.000Z</time>
      </trkpt>
      <trkpt lat="46.11176" lon="6.79063">
        <ele>1959</ele>
        <time>2000-01-01T21:18:43.000Z</time>
      </trkpt>
      <trkpt lat="46.11176" lon="6.79065">
        <ele>1959.8</ele>
        <time>2000-01-01T21:18:53.000Z</time>
      </trkpt>
      <trkpt lat="46.11175" lon="6.79065">
        <ele>1960</ele>
        <time>2000-01-01T21:19:03.000Z</time>
      </trkpt>
      <trkpt lat="46.11173" lon="6.79069">
        <ele>1961.9</ele>
        <time>2000-01-01T21:19:13.000Z</time>
      </trkpt>
      <trkpt lat="46.11173" lon="6.7907">
        <ele>1962.3</ele>
        <time>2000-01-01T21:19:23.000Z</time>
      </trkpt>
      <trkpt lat="46.11174" lon="6.79074">
        <ele>1963.8</ele>
        <time>2000-01-01T21:19:33.000Z</time>
      </trkpt>
      <trkpt lat="46.11174" lon="6.79075">
        <ele>1964.2</ele>
        <time>2000-01-01T21:19:43.000Z</time>
      </trkpt>
      <trkpt lat="46.11176" lon="6.79076">
        <ele>1964.3</ele>
        <time>2000-01-01T21:19:53.000Z</time>
      </trkpt>
      <trkpt lat="46.11178" lon="6.79077">
        <ele>1964.5</ele>
        <time>2000-01-01T21:20:03.000Z</time>
      </trkpt>
      <trkpt lat="46.1118" lon="6.79077">
        <ele>1964.3</ele>
        <time>2000-01-01T21:20:13.000Z</time>
      </trkpt>
      <trkpt lat="46.11181" lon="6.79079">
        <ele>1961</ele>
        <time>2000-01-01T21:20:23.000Z</time>
      </trkpt>
      <trkpt lat="46.11183" lon="6.79079">
        <ele>1964.9</ele>
        <time>2000-01-01T21:20:33.000Z</time>
      </trkpt>
      <trkpt lat="46.11183" lon="6.79079">
        <ele>1964.9</ele>
        <time>2000-01-01T21:20:43.000Z</time>
      </trkpt>
      <trkpt lat="46.11183" lon="6.79081">
        <ele>1965.8</ele>
        <time>2000-01-01T21:20:53.000Z</time>
      </trkpt>
      <trkpt lat="46.11182" lon="6.79085">
        <ele>1967.4</ele>
        <time>2000-01-01T21:21:03.000Z</time>
      </trkpt>
      <trkpt lat="46.11183" lon="6.79089">
        <ele>1968.7</ele>
        <time>2000-01-01T21:21:13.000Z</time>
      </trkpt>
      <trkpt lat="46.11184" lon="6.79092">
        <ele>1969.6</ele>
        <time>2000-01-01T21:21:23.000Z</time>
      </trkpt>
      <trkpt lat="46.11185" lon="6.79095">
        <ele>1970.5</ele>
        <time>2000-01-01T21:21:33.000Z</time>
      </trkpt>
      <trkpt lat="46.11185" lon="6.79097">
        <ele>1971.1</ele>
        <time>2000-01-01T21:21:43.000Z</time>
      </trkpt>
      <trkpt lat="46.11186" lon="6.791">
        <ele>1972</ele>
        <time>2000-01-01T21:21:53.000Z</time>
      </trkpt>
      <trkpt lat="46.11187" lon="6.79102">
        <ele>1971</ele>
        <time>2000-01-01T21:22:03.000Z</time>
      </trkpt>
      <trkpt lat="46.11189" lon="6.79104">
        <ele>1973.1</ele>
        <time>2000-01-01T21:22:13.000Z</time>
      </trkpt>
      <trkpt lat="46.11191" lon="6.79106">
        <ele>1973.6</ele>
        <time>2000-01-01T21:22:23.000Z</time>
      </trkpt>
      <trkpt lat="46.11193" lon="6.79108">
        <ele>1974.1</ele>
        <time>2000-01-01T21:22:33.000Z</time>
      </trkpt>
      <trkpt lat="46.11194" lon="6.7911">
        <ele>1974.7</ele>
        <time>2000-01-01T21:22:43.000Z</time>
      </trkpt>
      <trkpt lat="46.11196" lon="6.79112">
        <ele>1975.3</ele>
        <time>2000-01-01T21:22:53.000Z</time>
      </trkpt>
      <trkpt lat="46.11201" lon="6.79115">
        <ele>1976.2</ele>
        <time>2000-01-01T21:23:03.000Z</time>
      </trkpt>
      <trkpt lat="46.11202" lon="6.79116">
        <ele>1976.5</ele>
        <time>2000-01-01T21:23:13.000Z</time>
      </trkpt>
      <trkpt lat="46.11203" lon="6.79119">
        <ele>1975</ele>
        <time>2000-01-01T21:23:23.000Z</time>
      </trkpt>
      <trkpt lat="46.11203" lon="6.79119">
        <ele>1977.5</ele>
        <time>2000-01-01T21:23:33.000Z</time>
      </trkpt>
      <trkpt lat="46.11204" lon="6.7912">
        <ele>1977.8</ele>
        <time>2000-01-01T21:23:43.000Z</time>
      </trkpt>
      <trkpt lat="46.11205" lon="6.79121">
        <ele>1978.1</ele>
        <time>2000-01-01T21:23:53.000Z</time>
      </trkpt>
      <trkpt lat="46.11207" lon="6.79122">
        <ele>1978.4</ele>
        <time>2000-01-01T21:24:03.000Z</time>
      </trkpt>
      <trkpt lat="46.11207" lon="6.79127">
        <ele>1979.9</ele>
        <time>2000-01-01T21:24:13.000Z</time>
      </trkpt>
      <trkpt lat="46.11208" lon="6.7913">
        <ele>1980.8</ele>
        <time>2000-01-01T21:24:23.000Z</time>
      </trkpt>
      <trkpt lat="46.11208" lon="6.79133">
        <ele>1981.7</ele>
        <time>2000-01-01T21:24:33.000Z</time>
      </trkpt>
      <trkpt lat="46.11209" lon="6.79135">
        <ele>1982.3</ele>
        <time>2000-01-01T21:24:43.000Z</time>
      </trkpt>
      <trkpt lat="46.1121" lon="6.79138">
        <ele>1983.2</ele>
        <time>2000-01-01T21:24:53.000Z</time>
      </trkpt>
      <trkpt lat="46.11211" lon="6.7914">
        <ele>1983.7</ele>
        <time>2000-01-01T21:25:03.000Z</time>
      </trkpt>
      <trkpt lat="46.11212" lon="6.79142">
        <ele>1983</ele>
        <time>2000-01-01T21:25:13.000Z</time>
      </trkpt>
      <trkpt lat="46.11213" lon="6.79144">
        <ele>1984.4</ele>
        <time>2000-01-01T21:25:23.000Z</time>
      </trkpt>
      <trkpt lat="46.11214" lon="6.79147">
        <ele>1985</ele>
        <time>2000-01-01T21:25:33.000Z</time>
      </trkpt>
      <trkpt lat="46.11215" lon="6.79151">
        <ele>1985.8</ele>
        <time>2000-01-01T21:25:43.000Z</time>
      </trkpt>
      <trkpt lat="46.11216" lon="6.79152">
        <ele>1985.9</ele>
        <time>2000-01-01T21:25:53.000Z</time>
      </trkpt>
      <trkpt lat="46.11218" lon="6.79153">
        <ele>1985.9</ele>
        <time>2000-01-01T21:26:03.000Z</time>
      </trkpt>
      <trkpt lat="46.11219" lon="6.79156">
        <ele>1986.4</ele>
        <time>2000-01-01T21:26:13.000Z</time>
      </trkpt>
      <trkpt lat="46.11221" lon="6.79166">
        <ele>1986</ele>
        <time>2000-01-01T21:26:23.000Z</time>
      </trkpt>
      <trkpt lat="46.11222" lon="6.79171">
        <ele>1989.3</ele>
        <time>2000-01-01T21:26:33.000Z</time>
      </trkpt>
      <trkpt lat="46.11221" lon="6.79175">
        <ele>1990.6</ele>
        <time>2000-01-01T21:26:43.000Z</time>
      </trkpt>
      <trkpt lat="46.11221" lon="6.79176">
        <ele>1990.9</ele>
        <time>2000-01-01T21:26:53.000Z</time>
      </trkpt>
      <trkpt lat="46.11221" lon="6.79178">
        <ele>1991.5</ele>
        <time>2000-01-01T21:27:03.000Z</time>
      </trkpt>
      <trkpt lat="46.11223" lon="6.79184">
        <ele>1992.9</ele>
        <time>2000-01-01T21:27:13.000Z</time>
      </trkpt>
      <trkpt lat="46.11224" lon="6.79186">
        <ele>1993.4</ele>
        <time>2000-01-01T21:27:23.000Z</time>
      </trkpt>
      <trkpt lat="46.11225" lon="6.79187">
        <ele>1993.6</ele>
        <time>2000-01-01T21:27:33.000Z</time>
      </trkpt>
      <trkpt lat="46.11227" lon="6.7919">
        <ele>1993</ele>
        <time>2000-01-01T21:27:43.000Z</time>
      </trkpt>
      <trkpt lat="46.11229" lon="6.79192">
        <ele>1994.8</ele>
        <time>2000-01-01T21:27:53.000Z</time>
      </trkpt>
      <trkpt lat="46.1123" lon="6.79193">
        <ele>1995</ele>
        <time>2000-01-01T21:28:03.000Z</time>
      </trkpt>
      <trkpt lat="46.11231" lon="6.79195">
        <ele>1995.5</ele>
        <time>2000-01-01T21:28:13.000Z</time>
      </trkpt>
      <trkpt lat="46.11232" lon="6.79196">
        <ele>1995.8</ele>
        <time>2000-01-01T21:28:23.000Z</time>
      </trkpt>
      <trkpt lat="46.11233" lon="6.79196">
        <ele>1995.7</ele>
        <time>2000-01-01T21:28:33.000Z</time>
      </trkpt>
      <trkpt lat="46.11235" lon="6.79196">
        <ele>1995.6</ele>
        <time>2000-01-01T21:28:43.000Z</time>
      </trkpt>
      <trkpt lat="46.11236" lon="6.79196">
        <ele>1995.5</ele>
        <time>2000-01-01T21:28:53.000Z</time>
      </trkpt>
      <trkpt lat="46.11238" lon="6.79198">
        <ele>1995.9</ele>
        <time>2000-01-01T21:29:03.000Z</time>
      </trkpt>
      <trkpt lat="46.11241" lon="6.79201">
        <ele>1996.6</ele>
        <time>2000-01-01T21:29:13.000Z</time>
      </trkpt>
      <trkpt lat="46.11241" lon="6.79203">
        <ele>1997.2</ele>
        <time>2000-01-01T21:29:23.000Z</time>
      </trkpt>
      <trkpt lat="46.11243" lon="6.79206">
        <ele>1997</ele>
        <time>2000-01-01T21:29:33.000Z</time>
      </trkpt>
      <trkpt lat="46.11244" lon="6.79208">
        <ele>1998.4</ele>
        <time>2000-01-01T21:29:43.000Z</time>
      </trkpt>
      <trkpt lat="46.11245" lon="6.79212">
        <ele>1999.5</ele>
        <time>2000-01-01T21:29:53.000Z</time>
      </trkpt>
      <trkpt lat="46.11246" lon="6.79213">
        <ele>1999.7</ele>
        <time>2000-01-01T21:30:03.000Z</time>
      </trkpt>
      <trkpt lat="46.11248" lon="6.79215">
        <ele>2000.1</ele>
        <time>2000-01-01T21:30:13.000Z</time>
      </trkpt>
      <trkpt lat="46.11248" lon="6.79217">
        <ele>2000.7</ele>
        <time>2000-01-01T21:30:23.000Z</time>
      </trkpt>
      <trkpt lat="46.11249" lon="6.7922">
        <ele>2001.5</ele>
        <time>2000-01-01T21:30:33.000Z</time>
      </trkpt>
      <trkpt lat="46.11249" lon="6.79222">
        <ele>2002</ele>
        <time>2000-01-01T21:30:43.000Z</time>
      </trkpt>
      <trkpt lat="46.11249" lon="6.79225">
        <ele>2002.9</ele>
        <time>2000-01-01T21:30:53.000Z</time>
      </trkpt>
      <trkpt lat="46.11248" lon="6.79227">
        <ele>2003.6</ele>
        <time>2000-01-01T21:31:03.000Z</time>
      </trkpt>
      <trkpt lat="46.11249" lon="6.79231">
        <ele>2006</ele>
        <time>2000-01-01T21:31:13.000Z</time>
      </trkpt>
      <trkpt lat="46.11249" lon="6.79233">
        <ele>2005.2</ele>
        <time>2000-01-01T21:31:23.000Z</time>
      </trkpt>
      <trkpt lat="46.11252" lon="6.79244">
        <ele>2007.6</ele>
        <time>2000-01-01T21:31:33.000Z</time>
      </trkpt>
      <trkpt lat="46.11253" lon="6.79246">
        <ele>2007.8</ele>
        <time>2000-01-01T21:31:43.000Z</time>
      </trkpt>
      <trkpt lat="46.11254" lon="6.79247">
        <ele>2007.7</ele>
        <time>2000-01-01T21:31:53.000Z</time>
      </trkpt>
      <trkpt lat="46.11255" lon="6.79251">
        <ele>2008.4</ele>
        <time>2000-01-01T21:32:03.000Z</time>
      </trkpt>
      <trkpt lat="46.11256" lon="6.79254">
        <ele>2008.7</ele>
        <time>2000-01-01T21:32:13.000Z</time>
      </trkpt>
      <trkpt lat="46.11257" lon="6.79257">
        <ele>2008</ele>
        <time>2000-01-01T21:32:23.000Z</time>
      </trkpt>
      <trkpt lat="46.11258" lon="6.79261">
        <ele>2009.6</ele>
        <time>2000-01-01T21:32:33.000Z</time>
      </trkpt>
      <trkpt lat="46.11257" lon="6.79263">
        <ele>2010.4</ele>
        <time>2000-01-01T21:32:43.000Z</time>
      </trkpt>
      <trkpt lat="46.11258" lon="6.79265">
        <ele>2010.5</ele>
        <time>2000-01-01T21:32:53.000Z</time>
      </trkpt>
      <trkpt lat="46.11258" lon="6.79267">
        <ele>2011</ele>
        <time>2000-01-01T21:33:03.000Z</time>
      </trkpt>
      <trkpt lat="46.11258" lon="6.7927">
        <ele>2011.6</ele>
        <time>2000-01-01T21:33:13.000Z</time>
      </trkpt>
      <trkpt lat="46.11259" lon="6.79274">
        <ele>2012.2</ele>
        <time>2000-01-01T21:33:23.000Z</time>
      </trkpt>
      <trkpt lat="46.11258" lon="6.79275">
        <ele>2012.8</ele>
        <time>2000-01-01T21:33:33.000Z</time>
      </trkpt>
      <trkpt lat="46.11257" lon="6.79276">
        <ele>2013.3</ele>
        <time>2000-01-01T21:33:43.000Z</time>
      </trkpt>
      <trkpt lat="46.11256" lon="6.79278">
        <ele>2014.1</ele>
        <time>2000-01-01T21:33:53.000Z</time>
      </trkpt>
      <trkpt lat="46.11256" lon="6.79281">
        <ele>2014.7</ele>
        <time>2000-01-01T21:34:03.000Z</time>
      </trkpt>
      <trkpt lat="46.11255" lon="6.79288">
        <ele>2015</ele>
        <time>2000-01-01T21:34:13.000Z</time>
      </trkpt>
      <trkpt lat="46.11255" lon="6.79292">
        <ele>2017.1</ele>
        <time>2000-01-01T21:34:23.000Z</time>
      </trkpt>
      <trkpt lat="46.11256" lon="6.79296">
        <ele>2017.6</ele>
        <time>2000-01-01T21:34:33.000Z</time>
      </trkpt>
      <trkpt lat="46.11257" lon="6.79298">
        <ele>2017.7</ele>
        <time>2000-01-01T21:34:43.000Z</time>
      </trkpt>
      <trkpt lat="46.11258" lon="6.79299">
        <ele>2017.7</ele>
        <time>2000-01-01T21:34:53.000Z</time>
      </trkpt>
      <trkpt lat="46.1126" lon="6.79301">
        <ele>2017.5</ele>
        <time>2000-01-01T21:35:03.000Z</time>
      </trkpt>
      <trkpt lat="46.1126" lon="6.79304">
        <ele>2018.2</ele>
        <time>2000-01-01T21:35:13.000Z</time>
      </trkpt>
      <trkpt lat="46.1126" lon="6.79305">
        <ele>2018.4</ele>
        <time>2000-01-01T21:35:23.000Z</time>
      </trkpt>
      <trkpt lat="46.1126" lon="6.79306">
        <ele>2018.6</ele>
        <time>2000-01-01T21:35:33.000Z</time>
      </trkpt>
      <trkpt lat="46.1126" lon="6.79309">
        <ele>2019.7</ele>
        <time>2000-01-01T21:35:43.000Z</time>
      </trkpt>
      <trkpt lat="46.11261" lon="6.79312">
        <ele>2018</ele>
        <time>2000-01-01T21:35:53.000Z</time>
      </trkpt>
      <trkpt lat="46.11262" lon="6.79314">
        <ele>2020.8</ele>
        <time>2000-01-01T21:36:03.000Z</time>
      </trkpt>
      <trkpt lat="46.11265" lon="6.79322">
        <ele>2022.5</ele>
        <time>2000-01-01T21:36:13.000Z</time>
      </trkpt>
      <trkpt lat="46.11265" lon="6.79323">
        <ele>2022.8</ele>
        <time>2000-01-01T21:36:23.000Z</time>
      </trkpt>
      <trkpt lat="46.11267" lon="6.79332">
        <ele>2024.9</ele>
        <time>2000-01-01T21:36:33.000Z</time>
      </trkpt>
      <trkpt lat="46.11268" lon="6.79336">
        <ele>2025.6</ele>
        <time>2000-01-01T21:36:43.000Z</time>
      </trkpt>
      <trkpt lat="46.11269" lon="6.79338">
        <ele>2024</ele>
        <time>2000-01-01T21:36:53.000Z</time>
      </trkpt>
      <trkpt lat="46.1127" lon="6.79341">
        <ele>2026.2</ele>
        <time>2000-01-01T21:37:03.000Z</time>
      </trkpt>
      <trkpt lat="46.11272" lon="6.79344">
        <ele>2026.3</ele>
        <time>2000-01-01T21:37:13.000Z</time>
      </trkpt>
      <trkpt lat="46.11273" lon="6.79347">
        <ele>2026.7</ele>
        <time>2000-01-01T21:37:23.000Z</time>
      </trkpt>
      <trkpt lat="46.11272" lon="6.79349">
        <ele>2027.7</ele>
        <time>2000-01-01T21:37:33.000Z</time>
      </trkpt>
      <trkpt lat="46.11272" lon="6.7935">
        <ele>2028</ele>
        <time>2000-01-01T21:37:43.000Z</time>
      </trkpt>
      <trkpt lat="46.11272" lon="6.79352">
        <ele>2028.5</ele>
        <time>2000-01-01T21:37:53.000Z</time>
      </trkpt>
      <trkpt lat="46.11273" lon="6.79355">
        <ele>2029</ele>
        <time>2000-01-01T21:38:03.000Z</time>
      </trkpt>
      <trkpt lat="46.11274" lon="6.79358">
        <ele>2029.5</ele>
        <time>2000-01-01T21:38:13.000Z</time>
      </trkpt>
      <trkpt lat="46.11275" lon="6.79359">
        <ele>2029.4</ele>
        <time>2000-01-01T21:38:23.000Z</time>
      </trkpt>
      <trkpt lat="46.11277" lon="6.7936">
        <ele>2028</ele>
        <time>2000-01-01T21:38:33.000Z</time>
      </trkpt>
      <trkpt lat="46.11278" lon="6.79362">
        <ele>2029.3</ele>
        <time>2000-01-01T21:38:43.000Z</time>
      </trkpt>
      <trkpt lat="46.11279" lon="6.79365">
        <ele>2030.2</ele>
        <time>2000-01-01T21:38:53.000Z</time>
      </trkpt>
      <trkpt lat="46.1128" lon="6.79366">
        <ele>2030.5</ele>
        <time>2000-01-01T21:39:03.000Z</time>
      </trkpt>
      <trkpt lat="46.11281" lon="6.79368">
        <ele>2031</ele>
        <time>2000-01-01T21:39:13.000Z</time>
      </trkpt>
      <trkpt lat="46.11282" lon="6.79369">
        <ele>2031.3</ele>
        <time>2000-01-01T21:39:23.000Z</time>
      </trkpt>
      <trkpt lat="46.11283" lon="6.7937">
        <ele>2031.5</ele>
        <time>2000-01-01T21:39:33.000Z</time>
      </trkpt>
      <trkpt lat="46.11283" lon="6.79373">
        <ele>2032.6</ele>
        <time>2000-01-01T21:39:43.000Z</time>
      </trkpt>
      <trkpt lat="46.11284" lon="6.79376">
        <ele>2033.6</ele>
        <time>2000-01-01T21:39:53.000Z</time>
      </trkpt>
      <trkpt lat="46.11285" lon="6.79377">
        <ele>2033.8</ele>
        <time>2000-01-01T21:40:03.000Z</time>
      </trkpt>
      <trkpt lat="46.11286" lon="6.7938">
        <ele>2034.8</ele>
        <time>2000-01-01T21:40:13.000Z</time>
      </trkpt>
      <trkpt lat="46.11287" lon="6.79382">
        <ele>2036</ele>
        <time>2000-01-01T21:40:23.000Z</time>
      </trkpt>
      <trkpt lat="46.11289" lon="6.79385">
        <ele>2036.3</ele>
        <time>2000-01-01T21:40:33.000Z</time>
      </trkpt>
      <trkpt lat="46.11291" lon="6.79388">
        <ele>2037.2</ele>
        <time>2000-01-01T21:40:43.000Z</time>
      </trkpt>
      <trkpt lat="46.11292" lon="6.79396">
        <ele>2040.3</ele>
        <time>2000-01-01T21:40:53.000Z</time>
      </trkpt>
      <trkpt lat="46.11293" lon="6.79399">
        <ele>2041.3</ele>
        <time>2000-01-01T21:41:03.000Z</time>
      </trkpt>
      <trkpt lat="46.11294" lon="6.79399">
        <ele>2041.1</ele>
        <time>2000-01-01T21:41:13.000Z</time>
      </trkpt>
      <trkpt lat="46.11297" lon="6.79401">
        <ele>2041.2</ele>
        <time>2000-01-01T21:41:23.000Z</time>
      </trkpt>
      <trkpt lat="46.113" lon="6.79403">
        <ele>2039</ele>
        <time>2000-01-01T21:41:33.000Z</time>
      </trkpt>
      <trkpt lat="46.11302" lon="6.79404">
        <ele>2041.2</ele>
        <time>2000-01-01T21:41:43.000Z</time>
      </trkpt>
      <trkpt lat="46.11303" lon="6.79406">
        <ele>2041.5</ele>
        <time>2000-01-01T21:41:53.000Z</time>
      </trkpt>
      <trkpt lat="46.11304" lon="6.79414">
        <ele>2043.7</ele>
        <time>2000-01-01T21:42:03.000Z</time>
      </trkpt>
      <trkpt lat="46.11305" lon="6.79416">
        <ele>2044</ele>
        <time>2000-01-01T21:42:13.000Z</time>
      </trkpt>
      <trkpt lat="46.11307" lon="6.7942">
        <ele>2044.8</ele>
        <time>2000-01-01T21:42:23.000Z</time>
      </trkpt>
      <trkpt lat="46.11308" lon="6.79421">
        <ele>2044.9</ele>
        <time>2000-01-01T21:42:33.000Z</time>
      </trkpt>
      <trkpt lat="46.11309" lon="6.79422">
        <ele>2045.1</ele>
        <time>2000-01-01T21:42:43.000Z</time>
      </trkpt>
      <trkpt lat="46.11309" lon="6.79425">
        <ele>2045.9</ele>
        <time>2000-01-01T21:42:53.000Z</time>
      </trkpt>
      <trkpt lat="46.1131" lon="6.79426">
        <ele>2045</ele>
        <time>2000-01-01T21:43:03.000Z</time>
      </trkpt>
      <trkpt lat="46.11311" lon="6.79427">
        <ele>2046.2</ele>
        <time>2000-01-01T21:43:13.000Z</time>
      </trkpt>
      <trkpt lat="46.11313" lon="6.79428">
        <ele>2046.1</ele>
        <time>2000-01-01T21:43:23.000Z</time>
      </trkpt>
      <trkpt lat="46.11316" lon="6.7943">
        <ele>2046.2</ele>
        <time>2000-01-01T21:43:33.000Z</time>
      </trkpt>
      <trkpt lat="46.11321" lon="6.79434">
        <ele>2046.3</ele>
        <time>2000-01-01T21:43:43.000Z</time>
      </trkpt>
      <trkpt lat="46.11324" lon="6.7944">
        <ele>2047.1</ele>
        <time>2000-01-01T21:43:53.000Z</time>
      </trkpt>
      <trkpt lat="46.11331" lon="6.79455">
        <ele>2048</ele>
        <time>2000-01-01T21:44:03.000Z</time>
      </trkpt>
      <trkpt lat="46.11334" lon="6.79462">
        <ele>2050.9</ele>
        <time>2000-01-01T21:44:13.000Z</time>
      </trkpt>
      <trkpt lat="46.11336" lon="6.79466">
        <ele>2051.5</ele>
        <time>2000-01-01T21:44:23.000Z</time>
      </trkpt>
      <trkpt lat="46.11337" lon="6.79468">
        <ele>2051.8</ele>
        <time>2000-01-01T21:44:33.000Z</time>
      </trkpt>
      <trkpt lat="46.11339" lon="6.79469">
        <ele>2051.5</ele>
        <time>2000-01-01T21:44:43.000Z</time>
      </trkpt>
      <trkpt lat="46.1134" lon="6.79471">
        <ele>2051.7</ele>
        <time>2000-01-01T21:44:53.000Z</time>
      </trkpt>
      <trkpt lat="46.11341" lon="6.79474">
        <ele>2052.4</ele>
        <time>2000-01-01T21:45:03.000Z</time>
      </trkpt>
      <trkpt lat="46.11341" lon="6.79475">
        <ele>2052.7</ele>
        <time>2000-01-01T21:45:13.000Z</time>
      </trkpt>
      <trkpt lat="46.11342" lon="6.79477">
        <ele>2051</ele>
        <time>2000-01-01T21:45:23.000Z</time>
      </trkpt>
      <trkpt lat="46.11343" lon="6.79482">
        <ele>2054.5</ele>
        <time>2000-01-01T21:45:33.000Z</time>
      </trkpt>
      <trkpt lat="46.11343" lon="6.79483">
        <ele>2054.8</ele>
        <time>2000-01-01T21:45:43.000Z</time>
      </trkpt>
      <trkpt lat="46.11344" lon="6.79485">
        <ele>2055.2</ele>
        <time>2000-01-01T21:45:53.000Z</time>
      </trkpt>
      <trkpt lat="46.11345" lon="6.79487">
        <ele>2055.7</ele>
        <time>2000-01-01T21:46:03.000Z</time>
      </trkpt>
      <trkpt lat="46.11346" lon="6.79489">
        <ele>2056.1</ele>
        <time>2000-01-01T21:46:13.000Z</time>
      </trkpt>
      <trkpt lat="46.11346" lon="6.7949">
        <ele>2056.4</ele>
        <time>2000-01-01T21:46:23.000Z</time>
      </trkpt>
      <trkpt lat="46.11347" lon="6.79495">
        <ele>2057.8</ele>
        <time>2000-01-01T21:46:33.000Z</time>
      </trkpt>
      <trkpt lat="46.11348" lon="6.79498">
        <ele>2058.6</ele>
        <time>2000-01-01T21:46:43.000Z</time>
      </trkpt>
      <trkpt lat="46.11349" lon="6.79499">
        <ele>2058.7</ele>
        <time>2000-01-01T21:46:53.000Z</time>
      </trkpt>
      <trkpt lat="46.1135" lon="6.79501">
        <ele>2058</ele>
        <time>2000-01-01T21:47:03.000Z</time>
      </trkpt>
      <trkpt lat="46.11352" lon="6.79504">
        <ele>2059.8</ele>
        <time>2000-01-01T21:47:13.000Z</time>
      </trkpt>
      <trkpt lat="46.11354" lon="6.79508">
        <ele>2060.8</ele>
        <time>2000-01-01T21:47:23.000Z</time>
      </trkpt>
      <trkpt lat="46.11357" lon="6.79515">
        <ele>2062.6</ele>
        <time>2000-01-01T21:47:33.000Z</time>
      </trkpt>
      <trkpt lat="46.11357" lon="6.79518">
        <ele>2063.7</ele>
        <time>2000-01-01T21:47:43.000Z</time>
      </trkpt>
      <trkpt lat="46.11359" lon="6.79521">
        <ele>2064.2</ele>
        <time>2000-01-01T21:47:53.000Z</time>
      </trkpt>
      <trkpt lat="46.11361" lon="6.79523">
        <ele>2063</ele>
        <time>2000-01-01T21:48:03.000Z</time>
      </trkpt>
      <trkpt lat="46.11362" lon="6.79524">
        <ele>2064.4</ele>
        <time>2000-01-01T21:48:13.000Z</time>
      </trkpt>
      <trkpt lat="46.11364" lon="6.79526">
        <ele>2064.6</ele>
        <time>2000-01-01T21:48:23.000Z</time>
      </trkpt>
      <trkpt lat="46.11366" lon="6.79527">
        <ele>2064.5</ele>
        <time>2000-01-01T21:48:33.000Z</time>
      </trkpt>
      <trkpt lat="46.11368" lon="6.79528">
        <ele>2064.3</ele>
        <time>2000-01-01T21:48:43.000Z</time>
      </trkpt>
      <trkpt lat="46.1137" lon="6.79531">
        <ele>2064.9</ele>
        <time>2000-01-01T21:48:53.000Z</time>
      </trkpt>
      <trkpt lat="46.11373" lon="6.79535">
        <ele>2065.4</ele>
        <time>2000-01-01T21:49:03.000Z</time>
      </trkpt>
      <trkpt lat="46.11374" lon="6.79538">
        <ele>2066.1</ele>
        <time>2000-01-01T21:49:13.000Z</time>
      </trkpt>
      <trkpt lat="46.11377" lon="6.79544">
        <ele>2067</ele>
        <time>2000-01-01T21:49:23.000Z</time>
      </trkpt>
      <trkpt lat="46.11378" lon="6.79547">
        <ele>2067.7</ele>
        <time>2000-01-01T21:49:33.000Z</time>
      </trkpt>
      <trkpt lat="46.11379" lon="6.79549">
        <ele>2067.9</ele>
        <time>2000-01-01T21:49:43.000Z</time>
      </trkpt>
      <trkpt lat="46.11379" lon="6.79554">
        <ele>2069.4</ele>
        <time>2000-01-01T21:49:53.000Z</time>
      </trkpt>
      <trkpt lat="46.1138" lon="6.79557">
        <ele>2070.1</ele>
        <time>2000-01-01T21:50:03.000Z</time>
      </trkpt>
      <trkpt lat="46.11381" lon="6.7956">
        <ele>2070.9</ele>
        <time>2000-01-01T21:50:13.000Z</time>
      </trkpt>
      <trkpt lat="46.11383" lon="6.79563">
        <ele>2071.3</ele>
        <time>2000-01-01T21:50:23.000Z</time>
      </trkpt>
      <trkpt lat="46.11384" lon="6.79566">
        <ele>2072.1</ele>
        <time>2000-01-01T21:50:33.000Z</time>
      </trkpt>
      <trkpt lat="46.11384" lon="6.79568">
        <ele>2070</ele>
        <time>2000-01-01T21:50:43.000Z</time>
      </trkpt>
      <trkpt lat="46.11386" lon="6.7957">
        <ele>2072.9</ele>
        <time>2000-01-01T21:50:53.000Z</time>
      </trkpt>
      <trkpt lat="46.11387" lon="6.79574">
        <ele>2074.1</ele>
        <time>2000-01-01T21:51:03.000Z</time>
      </trkpt>
      <trkpt lat="46.11387" lon="6.79576">
        <ele>2074.9</ele>
        <time>2000-01-01T21:51:13.000Z</time>
      </trkpt>
      <trkpt lat="46.11387" lon="6.7958">
        <ele>2076.5</ele>
        <time>2000-01-01T21:51:23.000Z</time>
      </trkpt>
      <trkpt lat="46.11387" lon="6.79581">
        <ele>2076.9</ele>
        <time>2000-01-01T21:51:33.000Z</time>
      </trkpt>
      <trkpt lat="46.11389" lon="6.79584">
        <ele>2077.2</ele>
        <time>2000-01-01T21:51:43.000Z</time>
      </trkpt>
      <trkpt lat="46.11391" lon="6.79586">
        <ele>2077.6</ele>
        <time>2000-01-01T21:51:53.000Z</time>
      </trkpt>
      <trkpt lat="46.11392" lon="6.79589">
        <ele>2078.5</ele>
        <time>2000-01-01T21:52:03.000Z</time>
      </trkpt>
      <trkpt lat="46.11394" lon="6.79592">
        <ele>2079</ele>
        <time>2000-01-01T21:52:13.000Z</time>
      </trkpt>
      <trkpt lat="46.11395" lon="6.79595">
        <ele>2079.9</ele>
        <time>2000-01-01T21:52:23.000Z</time>
      </trkpt>
      <trkpt lat="46.11396" lon="6.79597">
        <ele>2080.4</ele>
        <time>2000-01-01T21:52:33.000Z</time>
      </trkpt>
      <trkpt lat="46.11399" lon="6.796">
        <ele>2080.5</ele>
        <time>2000-01-01T21:52:43.000Z</time>
      </trkpt>
      <trkpt lat="46.11401" lon="6.79602">
        <ele>2080.6</ele>
        <time>2000-01-01T21:52:53.000Z</time>
      </trkpt>
      <trkpt lat="46.11403" lon="6.79606">
        <ele>2081.3</ele>
        <time>2000-01-01T21:53:03.000Z</time>
      </trkpt>
      <trkpt lat="46.11405" lon="6.7961">
        <ele>2081.9</ele>
        <time>2000-01-01T21:53:13.000Z</time>
      </trkpt>
      <trkpt lat="46.11407" lon="6.79613">
        <ele>2081</ele>
        <time>2000-01-01T21:53:23.000Z</time>
      </trkpt>
      <trkpt lat="46.11408" lon="6.79616">
        <ele>2083</ele>
        <time>2000-01-01T21:53:33.000Z</time>
      </trkpt>
      <trkpt lat="46.11409" lon="6.79618">
        <ele>2083.4</ele>
        <time>2000-01-01T21:53:43.000Z</time>
      </trkpt>
      <trkpt lat="46.1141" lon="6.79621">
        <ele>2084.1</ele>
        <time>2000-01-01T21:53:53.000Z</time>
      </trkpt>
      <trkpt lat="46.11412" lon="6.79627">
        <ele>2085.6</ele>
        <time>2000-01-01T21:54:03.000Z</time>
      </trkpt>
      <trkpt lat="46.11417" lon="6.79639">
        <ele>2086</ele>
        <time>2000-01-01T21:54:13.000Z</time>
      </trkpt>
      <trkpt lat="46.11421" lon="6.79645">
        <ele>2089.6</ele>
        <time>2000-01-01T21:54:23.000Z</time>
      </trkpt>
      <trkpt lat="46.11423" lon="6.79648">
        <ele>2090.4</ele>
        <time>2000-01-01T21:54:33.000Z</time>
      </trkpt>
      <trkpt lat="46.11424" lon="6.7965">
        <ele>2090.9</ele>
        <time>2000-01-01T21:54:43.000Z</time>
      </trkpt>
      <trkpt lat="46.11425" lon="6.79651">
        <ele>2091.2</ele>
        <time>2000-01-01T21:54:53.000Z</time>
      </trkpt>
      <trkpt lat="46.11426" lon="6.79652">
        <ele>2091.4</ele>
        <time>2000-01-01T21:55:03.000Z</time>
      </trkpt>
      <trkpt lat="46.11427" lon="6.79653">
        <ele>2091.6</ele>
        <time>2000-01-01T21:55:13.000Z</time>
      </trkpt>
      <trkpt lat="46.11428" lon="6.79655">
        <ele>2092.2</ele>
        <time>2000-01-01T21:55:23.000Z</time>
      </trkpt>
      <trkpt lat="46.11428" lon="6.79656">
        <ele>2092.5</ele>
        <time>2000-01-01T21:55:33.000Z</time>
      </trkpt>
      <trkpt lat="46.11429" lon="6.79659">
        <ele>2090</ele>
        <time>2000-01-01T21:55:43.000Z</time>
      </trkpt>
      <trkpt lat="46.11429" lon="6.79661">
        <ele>2094.2</ele>
        <time>2000-01-01T21:55:53.000Z</time>
      </trkpt>
      <trkpt lat="46.11431" lon="6.79662">
        <ele>2094.3</ele>
        <time>2000-01-01T21:56:03.000Z</time>
      </trkpt>
      <trkpt lat="46.11432" lon="6.79663">
        <ele>2094.5</ele>
        <time>2000-01-01T21:56:13.000Z</time>
      </trkpt>
      <trkpt lat="46.11436" lon="6.79666">
        <ele>2095</ele>
        <time>2000-01-01T21:56:23.000Z</time>
      </trkpt>
      <trkpt lat="46.11438" lon="6.79669">
        <ele>2095.7</ele>
        <time>2000-01-01T21:56:33.000Z</time>
      </trkpt>
      <trkpt lat="46.11439" lon="6.79671">
        <ele>2096.1</ele>
        <time>2000-01-01T21:56:43.000Z</time>
      </trkpt>
      <trkpt lat="46.11439" lon="6.79675">
        <ele>2097.3</ele>
        <time>2000-01-01T21:56:53.000Z</time>
      </trkpt>
      <trkpt lat="46.11439" lon="6.79677">
        <ele>2097.9</ele>
        <time>2000-01-01T21:57:03.000Z</time>
      </trkpt>
      <trkpt lat="46.1144" lon="6.79679">
        <ele>2095</ele>
        <time>2000-01-01T21:57:13.000Z</time>
      </trkpt>
      <trkpt lat="46.1144" lon="6.79684">
        <ele>2099.7</ele>
        <time>2000-01-01T21:57:23.000Z</time>
      </trkpt>
      <trkpt lat="46.1144" lon="6.79686">
        <ele>2100.3</ele>
        <time>2000-01-01T21:57:33.000Z</time>
      </trkpt>
      <trkpt lat="46.11442" lon="6.79688">
        <ele>2100.2</ele>
        <time>2000-01-01T21:57:43.000Z</time>
      </trkpt>
      <trkpt lat="46.11442" lon="6.79691">
        <ele>2101</ele>
        <time>2000-01-01T21:57:53.000Z</time>
      </trkpt>
      <trkpt lat="46.11442" lon="6.79694">
        <ele>2101.8</ele>
        <time>2000-01-01T21:58:03.000Z</time>
      </trkpt>
      <trkpt lat="46.11444" lon="6.79695">
        <ele>2101.4</ele>
        <time>2000-01-01T21:58:13.000Z</time>
      </trkpt>
      <trkpt lat="46.11445" lon="6.79698">
        <ele>2102.6</ele>
        <time>2000-01-01T21:58:23.000Z</time>
      </trkpt>
      <trkpt lat="46.11445" lon="6.797">
        <ele>2103.5</ele>
        <time>2000-01-01T21:58:33.000Z</time>
      </trkpt>
      <trkpt lat="46.11446" lon="6.79702">
        <ele>2104.3</ele>
        <time>2000-01-01T21:58:43.000Z</time>
      </trkpt>
      <trkpt lat="46.11448" lon="6.79704">
        <ele>2103</ele>
        <time>2000-01-01T21:58:53.000Z</time>
      </trkpt>
      <trkpt lat="46.1145" lon="6.79706">
        <ele>2105.6</ele>
        <time>2000-01-01T21:59:03.000Z</time>
      </trkpt>
      <trkpt lat="46.11452" lon="6.79709">
        <ele>2106.6</ele>
        <time>2000-01-01T21:59:13.000Z</time>
      </trkpt>
      <trkpt lat="46.11454" lon="6.79712">
        <ele>2107.4</ele>
        <time>2000-01-01T21:59:23.000Z</time>
      </trkpt>
      <trkpt lat="46.11455" lon="6.79715">
        <ele>2108.5</ele>
        <time>2000-01-01T21:59:33.000Z</time>
      </trkpt>
      <trkpt lat="46.11457" lon="6.79717">
        <ele>2108.8</ele>
        <time>2000-01-01T21:59:43.000Z</time>
      </trkpt>
      <trkpt lat="46.1146" lon="6.79719">
        <ele>2108.9</ele>
        <time>2000-01-01T21:59:53.000Z</time>
      </trkpt>
      <trkpt lat="46.11461" lon="6.79719">
        <ele>2108.7</ele>
        <time>2000-01-01T22:00:03.000Z</time>
      </trkpt>
      <trkpt lat="46.11463" lon="6.7972">
        <ele>2103</ele>
        <time>2000-01-01T22:00:13.000Z</time>
      </trkpt>
      <trkpt lat="46.11464" lon="6.7972">
        <ele>2108.3</ele>
        <time>2000-01-01T22:00:23.000Z</time>
      </trkpt>
      <trkpt lat="46.11466" lon="6.79721">
        <ele>2108.2</ele>
        <time>2000-01-01T22:00:33.000Z</time>
      </trkpt>
      <trkpt lat="46.1147" lon="6.79722">
        <ele>2107.5</ele>
        <time>2000-01-01T22:00:43.000Z</time>
      </trkpt>
      <trkpt lat="46.11479" lon="6.79728">
        <ele>2109.1</ele>
        <time>2000-01-01T22:00:53.000Z</time>
      </trkpt>
      <trkpt lat="46.1148" lon="6.7973">
        <ele>2108</ele>
        <time>2000-01-01T22:01:03.000Z</time>
      </trkpt>
      <trkpt lat="46.11483" lon="6.79732">
        <ele>2110.5</ele>
        <time>2000-01-01T22:01:13.000Z</time>
      </trkpt>
      <trkpt lat="46.11484" lon="6.79733">
        <ele>2110.9</ele>
        <time>2000-01-01T22:01:23.000Z</time>
      </trkpt>
      <trkpt lat="46.11486" lon="6.79737">
        <ele>2112.4</ele>
        <time>2000-01-01T22:01:33.000Z</time>
      </trkpt>
      <trkpt lat="46.11488" lon="6.79739">
        <ele>2113</ele>
        <time>2000-01-01T22:01:43.000Z</time>
      </trkpt>
      <trkpt lat="46.11495" lon="6.79742">
        <ele>2113.4</ele>
        <time>2000-01-01T22:01:53.000Z</time>
      </trkpt>
      <trkpt lat="46.11497" lon="6.79743">
        <ele>2111</ele>
        <time>2000-01-01T22:02:03.000Z</time>
      </trkpt>
      <trkpt lat="46.11501" lon="6.79742">
        <ele>2112.7</ele>
        <time>2000-01-01T22:02:13.000Z</time>
      </trkpt>
      <trkpt lat="46.11503" lon="6.79743">
        <ele>2113</ele>
        <time>2000-01-01T22:02:23.000Z</time>
      </trkpt>
      <trkpt lat="46.11504" lon="6.79744">
        <ele>2113.3</ele>
        <time>2000-01-01T22:02:33.000Z</time>
      </trkpt>
      <trkpt lat="46.11504" lon="6.79745">
        <ele>2113.7</ele>
        <time>2000-01-01T22:02:43.000Z</time>
      </trkpt>
      <trkpt lat="46.11505" lon="6.79748">
        <ele>2114.8</ele>
        <time>2000-01-01T22:02:53.000Z</time>
      </trkpt>
      <trkpt lat="46.11505" lon="6.79749">
        <ele>2115.2</ele>
        <time>2000-01-01T22:03:03.000Z</time>
      </trkpt>
      <trkpt lat="46.11506" lon="6.79751">
        <ele>2115.9</ele>
        <time>2000-01-01T22:03:13.000Z</time>
      </trkpt>
      <trkpt lat="46.11506" lon="6.79753">
        <ele>2116.6</ele>
        <time>2000-01-01T22:03:23.000Z</time>
      </trkpt>
      <trkpt lat="46.11507" lon="6.79753">
        <ele>2116.5</ele>
        <time>2000-01-01T22:03:33.000Z</time>
      </trkpt>
      <trkpt lat="46.11508" lon="6.79755">
        <ele>2117.2</ele>
        <time>2000-01-01T22:03:43.000Z</time>
      </trkpt>
      <trkpt lat="46.11509" lon="6.79757">
        <ele>2117.8</ele>
        <time>2000-01-01T22:03:53.000Z</time>
      </trkpt>
      <trkpt lat="46.1151" lon="6.79759">
        <ele>2116</ele>
        <time>2000-01-01T22:04:03.000Z</time>
      </trkpt>
      <trkpt lat="46.11512" lon="6.7976">
        <ele>2118.6</ele>
        <time>2000-01-01T22:04:13.000Z</time>
      </trkpt>
      <trkpt lat="46.11512" lon="6.7976">
        <ele>2118.6</ele>
        <time>2000-01-01T22:04:23.000Z</time>
      </trkpt>
      <trkpt lat="46.11515" lon="6.79761">
        <ele>2118.7</ele>
        <time>2000-01-01T22:04:33.000Z</time>
      </trkpt>
      <trkpt lat="46.11516" lon="6.79762">
        <ele>2118.9</ele>
        <time>2000-01-01T22:04:43.000Z</time>
      </trkpt>
      <trkpt lat="46.11518" lon="6.79761">
        <ele>2118.4</ele>
        <time>2000-01-01T22:04:53.000Z</time>
      </trkpt>
      <trkpt lat="46.11519" lon="6.79761">
        <ele>2118.3</ele>
        <time>2000-01-01T22:05:03.000Z</time>
      </trkpt>
      <trkpt lat="46.11522" lon="6.79762">
        <ele>2118.4</ele>
        <time>2000-01-01T22:05:13.000Z</time>
      </trkpt>
      <trkpt lat="46.11526" lon="6.79765">
        <ele>2119</ele>
        <time>2000-01-01T22:05:23.000Z</time>
      </trkpt>
      <trkpt lat="46.11528" lon="6.79767">
        <ele>2118</ele>
        <time>2000-01-01T22:05:33.000Z</time>
      </trkpt>
      <trkpt lat="46.11529" lon="6.79768">
        <ele>2119.7</ele>
        <time>2000-01-01T22:05:43.000Z</time>
      </trkpt>
      <trkpt lat="46.11533" lon="6.79765">
        <ele>2118.4</ele>
        <time>2000-01-01T22:05:53.000Z</time>
      </trkpt>
      <trkpt lat="46.11536" lon="6.79769">
        <ele>2119.5</ele>
        <time>2000-01-01T22:06:03.000Z</time>
      </trkpt>
      <trkpt lat="46.1154" lon="6.79774">
        <ele>2120.8</ele>
        <time>2000-01-01T22:06:13.000Z</time>
      </trkpt>
      <trkpt lat="46.11544" lon="6.79778">
        <ele>2119</ele>
        <time>2000-01-01T22:06:23.000Z</time>
      </trkpt>
      <trkpt lat="46.1155" lon="6.7978">
        <ele>2122</ele>
        <time>2000-01-01T22:06:33.000Z</time>
      </trkpt>
      <trkpt lat="46.11551" lon="6.79786">
        <ele>2123.6</ele>
        <time>2000-01-01T22:06:43.000Z</time>
      </trkpt>
      <trkpt lat="46.11556" lon="6.79787">
        <ele>2123.6</ele>
        <time>2000-01-01T22:06:53.000Z</time>
      </trkpt>
      <trkpt lat="46.1156" lon="6.79791">
        <ele>2123</ele>
        <time>2000-01-01T22:07:03.000Z</time>
      </trkpt>
      <trkpt lat="46.11564" lon="6.79795">
        <ele>2125.6</ele>
        <time>2000-01-01T22:07:13.000Z</time>
      </trkpt>
      <trkpt lat="46.11568" lon="6.798">
        <ele>2126.7</ele>
        <time>2000-01-01T22:07:23.000Z</time>
      </trkpt>
      <trkpt lat="46.11572" lon="6.79804">
        <ele>2127.4</ele>
        <time>2000-01-01T22:07:33.000Z</time>
      </trkpt>
      <trkpt lat="46.11576" lon="6.79809">
        <ele>2125</ele>
        <time>2000-01-01T22:07:43.000Z</time>
      </trkpt>
      <trkpt lat="46.11581" lon="6.79812">
        <ele>2129.6</ele>
        <time>2000-01-01T22:07:53.000Z</time>
      </trkpt>
      <trkpt lat="46.11587" lon="6.79817">
        <ele>2131.1</ele>
        <time>2000-01-01T22:08:03.000Z</time>
      </trkpt>
      <trkpt lat="46.11594" lon="6.79819">
        <ele>2126</ele>
        <time>2000-01-01T22:08:13.000Z</time>
      </trkpt>
      <trkpt lat="46.11592" lon="6.79827">
        <ele>2134.1</ele>
        <time>2000-01-01T22:08:23.000Z</time>
      </trkpt>
      <trkpt lat="46.11589" lon="6.79834">
        <ele>2136.7</ele>
        <time>2000-01-01T22:08:33.000Z</time>
      </trkpt>
      <trkpt lat="46.11586" lon="6.79838">
        <ele>2138.7</ele>
        <time>2000-01-01T22:08:43.000Z</time>
      </trkpt>
      <trkpt lat="46.11586" lon="6.79838">
        <ele>2138.7</ele>
        <time>2000-01-01T22:08:53.000Z</time>
      </trkpt>
      <trkpt lat="46.11582" lon="6.79845">
        <ele>2141</ele>
        <time>2000-01-01T22:09:03.000Z</time>
      </trkpt>
      <trkpt lat="46.11579" lon="6.79849">
        <ele>2145.4</ele>
        <time>2000-01-01T22:09:13.000Z</time>
      </trkpt>
      <trkpt lat="46.11579" lon="6.79855">
        <ele>2148.2</ele>
        <time>2000-01-01T22:09:23.000Z</time>
      </trkpt>
      <trkpt lat="46.11583" lon="6.7986">
        <ele>2148.7</ele>
        <time>2000-01-01T22:09:33.000Z</time>
      </trkpt>
      <trkpt lat="46.11586" lon="6.79867">
        <ele>2148</ele>
        <time>2000-01-01T22:09:43.000Z</time>
      </trkpt>
      <trkpt lat="46.11589" lon="6.79875">
        <ele>2152.6</ele>
        <time>2000-01-01T22:09:53.000Z</time>
      </trkpt>
      <trkpt lat="46.11592" lon="6.79881">
        <ele>2153.8</ele>
        <time>2000-01-01T22:10:03.000Z</time>
      </trkpt>
      <trkpt lat="46.11594" lon="6.79886">
        <ele>2155</ele>
        <time>2000-01-01T22:10:13.000Z</time>
      </trkpt>
      <trkpt lat="46.11598" lon="6.79894">
        <ele>2156</ele>
        <time>2000-01-01T22:10:23.000Z</time>
      </trkpt>
      <trkpt lat="46.11601" lon="6.79901">
        <ele>2157</ele>
        <time>2000-01-01T22:10:33.000Z</time>
      </trkpt>
      <trkpt lat="46.11605" lon="6.79906">
        <ele>2157.1</ele>
        <time>2000-01-01T22:10:43.000Z</time>
      </trkpt>
      <trkpt lat="46.11608" lon="6.79912">
        <ele>2157.7</ele>
        <time>2000-01-01T22:10:53.000Z</time>
      </trkpt>
      <trkpt lat="46.11611" lon="6.7992">
        <ele>2158</ele>
        <time>2000-01-01T22:11:03.000Z</time>
      </trkpt>
      <trkpt lat="46.11614" lon="6.79927">
        <ele>2161.3</ele>
        <time>2000-01-01T22:11:13.000Z</time>
      </trkpt>
      <trkpt lat="46.11614" lon="6.79927">
        <ele>2161.3</ele>
        <time>2000-01-01T22:11:23.000Z</time>
      </trkpt>
      <trkpt lat="46.11615" lon="6.79942">
        <ele>2165.7</ele>
        <time>2000-01-01T22:11:33.000Z</time>
      </trkpt>
      <trkpt lat="46.11618" lon="6.79947">
        <ele>2165</ele>
        <time>2000-01-01T22:11:43.000Z</time>
      </trkpt>
      <trkpt lat="46.11621" lon="6.79956">
        <ele>2168.6</ele>
        <time>2000-01-01T22:11:53.000Z</time>
      </trkpt>
      <trkpt lat="46.11625" lon="6.79962">
        <ele>2169.4</ele>
        <time>2000-01-01T22:12:03.000Z</time>
      </trkpt>
      <trkpt lat="46.11636" lon="6.79994">
        <ele>2176</ele>
        <time>2000-01-01T22:12:13.000Z</time>
      </trkpt>
      <trkpt lat="46.11636" lon="6.79994">
        <ele>2175.4</ele>
        <time>2000-01-01T22:12:23.000Z</time>
      </trkpt>
      <trkpt lat="46.11636" lon="6.79994">
        <ele>2175.4</ele>
        <time>2000-01-01T22:12:33.000Z</time>
      </trkpt>
      <trkpt lat="46.11645" lon="6.80018">
        <ele>2180.5</ele>
        <time>2000-01-01T22:12:43.000Z</time>
      </trkpt>
      <trkpt lat="46.11645" lon="6.80018">
        <ele>2180.5</ele>
        <time>2000-01-01T22:12:53.000Z</time>
      </trkpt>
      <trkpt lat="46.11651" lon="6.80054">
        <ele>2188</ele>
        <time>2000-01-01T22:13:03.000Z</time>
      </trkpt>
      <trkpt lat="46.11651" lon="6.80054">
        <ele>2189.7</ele>
        <time>2000-01-01T22:13:13.000Z</time>
      </trkpt>
      <trkpt lat="46.11651" lon="6.80054">
        <ele>2189.7</ele>
        <time>2000-01-01T22:13:23.000Z</time>
      </trkpt>
      <trkpt lat="46.11664" lon="6.80071">
        <ele>2192.6</ele>
        <time>2000-01-01T22:13:33.000Z</time>
      </trkpt>
      <trkpt lat="46.11664" lon="6.80071">
        <ele>2192.6</ele>
        <time>2000-01-01T22:13:43.000Z</time>
      </trkpt>
      <trkpt lat="46.11682" lon="6.80095">
        <ele>2196</ele>
        <time>2000-01-01T22:13:53.000Z</time>
      </trkpt>
      <trkpt lat="46.11682" lon="6.80095">
        <ele>2199.5</ele>
        <time>2000-01-01T22:14:03.000Z</time>
      </trkpt>
      <trkpt lat="46.11699" lon="6.80095">
        <ele>2200.8</ele>
        <time>2000-01-01T22:14:13.000Z</time>
      </trkpt>
      <trkpt lat="46.11704" lon="6.80121">
        <ele>2205</ele>
        <time>2000-01-01T22:14:23.000Z</time>
      </trkpt>
      <trkpt lat="46.11704" lon="6.80121">
        <ele>2206.9</ele>
        <time>2000-01-01T22:14:33.000Z</time>
      </trkpt>
      <trkpt lat="46.11704" lon="6.80121">
        <ele>2206.9</ele>
        <time>2000-01-01T22:14:43.000Z</time>
      </trkpt>
      <trkpt lat="46.11716" lon="6.80153">
        <ele>2215</ele>
        <time>2000-01-01T22:14:53.000Z</time>
      </trkpt>
      <trkpt lat="46.11718" lon="6.80185">
        <ele>2222</ele>
        <time>2000-01-01T22:15:03.000Z</time>
      </trkpt>
      <trkpt lat="46.11718" lon="6.80185">
        <ele>2225.4</ele>
        <time>2000-01-01T22:15:13.000Z</time>
      </trkpt>
      <trkpt lat="46.11728" lon="6.80211">
        <ele>2231</ele>
        <time>2000-01-01T22:15:23.000Z</time>
      </trkpt>
      <trkpt lat="46.11728" lon="6.80211">
        <ele>2230.5</ele>
        <time>2000-01-01T22:15:33.000Z</time>
      </trkpt>
      <trkpt lat="46.11748" lon="6.80239">
        <ele>2232</ele>
        <time>2000-01-01T22:15:43.000Z</time>
      </trkpt>
      <trkpt lat="46.11748" lon="6.80239">
        <ele>2231.3</ele>
        <time>2000-01-01T22:15:53.000Z</time>
      </trkpt>
      <trkpt lat="46.11763" lon="6.8026">
        <ele>2232</ele>
        <time>2000-01-01T22:16:03.000Z</time>
      </trkpt>
      <trkpt lat="46.11777" lon="6.80271">
        <ele>2231.1</ele>
        <time>2000-01-01T22:16:13.000Z</time>
      </trkpt>
      <trkpt lat="46.11789" lon="6.80286">
        <ele>2232</ele>
        <time>2000-01-01T22:16:23.000Z</time>
      </trkpt>
      <trkpt lat="46.11789" lon="6.80286">
        <ele>2232.2</ele>
        <time>2000-01-01T22:16:33.000Z</time>
      </trkpt>
      <trkpt lat="46.11798" lon="6.80316">
        <ele>2233</ele>
        <time>2000-01-01T22:16:43.000Z</time>
      </trkpt>
      <trkpt lat="46.11798" lon="6.80316">
        <ele>2233.8</ele>
        <time>2000-01-01T22:16:53.000Z</time>
      </trkpt>
      <trkpt lat="46.11803" lon="6.80337">
        <ele>2234.9</ele>
        <time>2000-01-01T22:17:03.000Z</time>
      </trkpt>
      <trkpt lat="46.11803" lon="6.80337">
        <ele>2234.9</ele>
        <time>2000-01-01T22:17:13.000Z</time>
      </trkpt>
      <trkpt lat="46.1181" lon="6.80359">
        <ele>2235</ele>
        <time>2000-01-01T22:17:23.000Z</time>
      </trkpt>
      <trkpt lat="46.11816" lon="6.8038">
        <ele>2238.1</ele>
        <time>2000-01-01T22:17:33.000Z</time>
      </trkpt>
      <trkpt lat="46.11804" lon="6.80393">
        <ele>2237</ele>
        <time>2000-01-01T22:17:43.000Z</time>
      </trkpt>
      <trkpt lat="46.11804" lon="6.80393">
        <ele>2237.6</ele>
        <time>2000-01-01T22:17:53.000Z</time>
      </trkpt>
      <trkpt lat="46.11801" lon="6.80425">
        <ele>2237</ele>
        <time>2000-01-01T22:18:03.000Z</time>
      </trkpt>
      <trkpt lat="46.11803" lon="6.8046">
        <ele>2238</ele>
        <time>2000-01-01T22:18:13.000Z</time>
      </trkpt>
      <trkpt lat="46.11803" lon="6.80494">
        <ele>2236</ele>
        <time>2000-01-01T22:18:23.000Z</time>
      </trkpt>
      <trkpt lat="46.11807" lon="6.80516">
        <ele>2237.2</ele>
        <time>2000-01-01T22:18:33.000Z</time>
      </trkpt>
      <trkpt lat="46.11819" lon="6.80533">
        <ele>2236</ele>
        <time>2000-01-01T22:18:43.000Z</time>
      </trkpt>
      <trkpt lat="46.11819" lon="6.80533">
        <ele>2238.4</ele>
        <time>2000-01-01T22:18:53.000Z</time>
      </trkpt>
      <trkpt lat="46.11819" lon="6.80561">
        <ele>2236</ele>
        <time>2000-01-01T22:19:03.000Z</time>
      </trkpt>
      <trkpt lat="46.11819" lon="6.80608">
        <ele>2238</ele>
        <time>2000-01-01T22:19:13.000Z</time>
      </trkpt>
      <trkpt lat="46.11834" lon="6.80623">
        <ele>2235.5</ele>
        <time>2000-01-01T22:19:23.000Z</time>
      </trkpt>
      <trkpt lat="46.11829" lon="6.80651">
        <ele>2237</ele>
        <time>2000-01-01T22:19:33.000Z</time>
      </trkpt>
      <trkpt lat="46.11823" lon="6.80683">
        <ele>2236</ele>
        <time>2000-01-01T22:19:43.000Z</time>
      </trkpt>
      <trkpt lat="46.11816" lon="6.80704">
        <ele>2237.4</ele>
        <time>2000-01-01T22:19:53.000Z</time>
      </trkpt>
      <trkpt lat="46.11832" lon="6.80721">
        <ele>2229</ele>
        <time>2000-01-01T22:20:03.000Z</time>
      </trkpt>
      <trkpt lat="46.11832" lon="6.80721">
        <ele>2228.7</ele>
        <time>2000-01-01T22:20:13.000Z</time>
      </trkpt>
      <trkpt lat="46.11847" lon="6.80732">
        <ele>2226.2</ele>
        <time>2000-01-01T22:20:23.000Z</time>
      </trkpt>
      <trkpt lat="46.11847" lon="6.80732">
        <ele>2226.2</ele>
        <time>2000-01-01T22:20:33.000Z</time>
      </trkpt>
      <trkpt lat="46.11847" lon="6.80732">
        <ele>2226.2</ele>
        <time>2000-01-01T22:20:43.000Z</time>
      </trkpt>
      <trkpt lat="46.11858" lon="6.80749">
        <ele>2227</ele>
        <time>2000-01-01T22:20:53.000Z</time>
      </trkpt>
      <trkpt lat="46.11858" lon="6.80749">
        <ele>2224.6</ele>
        <time>2000-01-01T22:21:03.000Z</time>
      </trkpt>
      <trkpt lat="46.11862" lon="6.80777">
        <ele>2231</ele>
        <time>2000-01-01T22:21:13.000Z</time>
      </trkpt>
      <trkpt lat="46.11859" lon="6.80803">
        <ele>2234.5</ele>
        <time>2000-01-01T22:21:23.000Z</time>
      </trkpt>
      <trkpt lat="46.11859" lon="6.80803">
        <ele>2234.5</ele>
        <time>2000-01-01T22:21:33.000Z</time>
      </trkpt>
      <trkpt lat="46.11868" lon="6.80824">
        <ele>2235</ele>
        <time>2000-01-01T22:21:43.000Z</time>
      </trkpt>
      <trkpt lat="46.11868" lon="6.80824">
        <ele>2236.7</ele>
        <time>2000-01-01T22:21:53.000Z</time>
      </trkpt>
      <trkpt lat="46.11886" lon="6.80857">
        <ele>2240</ele>
        <time>2000-01-01T22:22:03.000Z</time>
      </trkpt>
      <trkpt lat="46.11886" lon="6.80857">
        <ele>2241.5</ele>
        <time>2000-01-01T22:22:13.000Z</time>
      </trkpt>
      <trkpt lat="46.11893" lon="6.80882">
        <ele>2243</ele>
        <time>2000-01-01T22:22:23.000Z</time>
      </trkpt>
      <trkpt lat="46.11893" lon="6.80906">
        <ele>2245.3</ele>
        <time>2000-01-01T22:22:33.000Z</time>
      </trkpt>
      <trkpt lat="46.1189" lon="6.8094">
        <ele>2247</ele>
        <time>2000-01-01T22:22:43.000Z</time>
      </trkpt>
      <trkpt lat="46.11887" lon="6.80962">
        <ele>2250</ele>
        <time>2000-01-01T22:22:53.000Z</time>
      </trkpt>
      <trkpt lat="46.11889" lon="6.81003">
        <ele>2250</ele>
        <time>2000-01-01T22:23:03.000Z</time>
      </trkpt>
      <trkpt lat="46.11889" lon="6.81003">
        <ele>2253.3</ele>
        <time>2000-01-01T22:23:13.000Z</time>
      </trkpt>
      <trkpt lat="46.1189" lon="6.8103">
        <ele>2254</ele>
        <time>2000-01-01T22:23:23.000Z</time>
      </trkpt>
      <trkpt lat="46.11895" lon="6.81058">
        <ele>2257</ele>
        <time>2000-01-01T22:23:33.000Z</time>
      </trkpt>
      <trkpt lat="46.11905" lon="6.8108">
        <ele>2261.9</ele>
        <time>2000-01-01T22:23:43.000Z</time>
      </trkpt>
      <trkpt lat="46.11914" lon="6.81101">
        <ele>2261</ele>
        <time>2000-01-01T22:23:53.000Z</time>
      </trkpt>
      <trkpt lat="46.11922" lon="6.81131">
        <ele>2264</ele>
        <time>2000-01-01T22:24:03.000Z</time>
      </trkpt>
      <trkpt lat="46.11931" lon="6.81155">
        <ele>2268.1</ele>
        <time>2000-01-01T22:24:13.000Z</time>
      </trkpt>
      <trkpt lat="46.11931" lon="6.81155">
        <ele>2268.1</ele>
        <time>2000-01-01T22:24:23.000Z</time>
      </trkpt>
      <trkpt lat="46.11931" lon="6.81155">
        <ele>2268.1</ele>
        <time>2000-01-01T22:24:33.000Z</time>
      </trkpt>
      <trkpt lat="46.11942" lon="6.81179">
        <ele>2269</ele>
        <time>2000-01-01T22:24:43.000Z</time>
      </trkpt>
      <trkpt lat="46.11942" lon="6.81179">
        <ele>2270.5</ele>
        <time>2000-01-01T22:24:53.000Z</time>
      </trkpt>
      <trkpt lat="46.11953" lon="6.81202">
        <ele>2272</ele>
        <time>2000-01-01T22:25:03.000Z</time>
      </trkpt>
      <trkpt lat="46.11953" lon="6.81202">
        <ele>2272</ele>
        <time>2000-01-01T22:25:13.000Z</time>
      </trkpt>
      <trkpt lat="46.1196" lon="6.81232">
        <ele>2273</ele>
        <time>2000-01-01T22:25:23.000Z</time>
      </trkpt>
      <trkpt lat="46.1196" lon="6.81262">
        <ele>2276</ele>
        <time>2000-01-01T22:25:33.000Z</time>
      </trkpt>
      <trkpt lat="46.11963" lon="6.81294">
        <ele>2276</ele>
        <time>2000-01-01T22:25:43.000Z</time>
      </trkpt>
      <trkpt lat="46.11963" lon="6.81294">
        <ele>2278.7</ele>
        <time>2000-01-01T22:25:53.000Z</time>
      </trkpt>
      <trkpt lat="46.11971" lon="6.81327">
        <ele>2276</ele>
        <time>2000-01-01T22:26:03.000Z</time>
      </trkpt>
      <trkpt lat="46.11973" lon="6.81334">
        <ele>2274</ele>
        <time>2000-01-01T22:26:13.000Z</time>
      </trkpt>
      <trkpt lat="46.1198" lon="6.81339">
        <ele>2274.3</ele>
        <time>2000-01-01T22:26:23.000Z</time>
      </trkpt>
      <trkpt lat="46.11985" lon="6.81343">
        <ele>2275</ele>
        <time>2000-01-01T22:26:33.000Z</time>
      </trkpt>
      <trkpt lat="46.11989" lon="6.81345">
        <ele>2274.5</ele>
        <time>2000-01-01T22:26:43.000Z</time>
      </trkpt>
      <trkpt lat="46.11994" lon="6.81348">
        <ele>2274.5</ele>
        <time>2000-01-01T22:26:53.000Z</time>
      </trkpt>
      <trkpt lat="46.11999" lon="6.81349">
        <ele>2274.7</ele>
        <time>2000-01-01T22:27:03.000Z</time>
      </trkpt>
      <trkpt lat="46.12003" lon="6.8135">
        <ele>2275.9</ele>
        <time>2000-01-01T22:27:13.000Z</time>
      </trkpt>
      <trkpt lat="46.12007" lon="6.81353">
        <ele>2275</ele>
        <time>2000-01-01T22:27:23.000Z</time>
      </trkpt>
      <trkpt lat="46.12007" lon="6.81362">
        <ele>2276.5</ele>
        <time>2000-01-01T22:27:33.000Z</time>
      </trkpt>
      <trkpt lat="46.12009" lon="6.81369">
        <ele>2276.9</ele>
        <time>2000-01-01T22:27:43.000Z</time>
      </trkpt>
      <trkpt lat="46.1201" lon="6.81377">
        <ele>2276.7</ele>
        <time>2000-01-01T22:27:53.000Z</time>
      </trkpt>
      <trkpt lat="46.12011" lon="6.81381">
        <ele>2274</ele>
        <time>2000-01-01T22:28:03.000Z</time>
      </trkpt>
      <trkpt lat="46.12011" lon="6.81398">
        <ele>2275.4</ele>
        <time>2000-01-01T22:28:13.000Z</time>
      </trkpt>
      <trkpt lat="46.12007" lon="6.81404">
        <ele>2273.1</ele>
        <time>2000-01-01T22:28:23.000Z</time>
      </trkpt>
      <trkpt lat="46.12011" lon="6.81406">
        <ele>2274</ele>
        <time>2000-01-01T22:28:33.000Z</time>
      </trkpt>
      <trkpt lat="46.12008" lon="6.81417">
        <ele>2272.4</ele>
        <time>2000-01-01T22:28:43.000Z</time>
      </trkpt>
      <trkpt lat="46.12013" lon="6.81432">
        <ele>2269</ele>
        <time>2000-01-01T22:28:53.000Z</time>
      </trkpt>
      <trkpt lat="46.12" lon="6.81442">
        <ele>2266.3</ele>
        <time>2000-01-01T22:29:03.000Z</time>
      </trkpt>
      <trkpt lat="46.11999" lon="6.81448">
        <ele>2265</ele>
        <time>2000-01-01T22:29:13.000Z</time>
      </trkpt>
      <trkpt lat="46.12011" lon="6.81459">
        <ele>2265.5</ele>
        <time>2000-01-01T22:29:23.000Z</time>
      </trkpt>
      <trkpt lat="46.12006" lon="6.81462">
        <ele>2262</ele>
        <time>2000-01-01T22:29:33.000Z</time>
      </trkpt>
      <trkpt lat="46.12005" lon="6.81469">
        <ele>2260.4</ele>
        <time>2000-01-01T22:29:43.000Z</time>
      </trkpt>
      <trkpt lat="46.12009" lon="6.81479">
        <ele>2257.4</ele>
        <time>2000-01-01T22:29:53.000Z</time>
      </trkpt>
      <trkpt lat="46.12019" lon="6.815">
        <ele>2246</ele>
        <time>2000-01-01T22:30:03.000Z</time>
      </trkpt>
      <trkpt lat="46.12026" lon="6.81505">
        <ele>2248.9</ele>
        <time>2000-01-01T22:30:13.000Z</time>
      </trkpt>
      <trkpt lat="46.12034" lon="6.81514">
        <ele>2247.8</ele>
        <time>2000-01-01T22:30:23.000Z</time>
      </trkpt>
      <trkpt lat="46.12033" lon="6.81522">
        <ele>2242</ele>
        <time>2000-01-01T22:30:33.000Z</time>
      </trkpt>
      <trkpt lat="46.12035" lon="6.81536">
        <ele>2241.6</ele>
        <time>2000-01-01T22:30:43.000Z</time>
      </trkpt>
      <trkpt lat="46.12028" lon="6.8156">
        <ele>2231</ele>
        <time>2000-01-01T22:30:53.000Z</time>
      </trkpt>
      <trkpt lat="46.1203" lon="6.81566">
        <ele>2233.5</ele>
        <time>2000-01-01T22:31:03.000Z</time>
      </trkpt>
      <trkpt lat="46.12034" lon="6.8157">
        <ele>2234</ele>
        <time>2000-01-01T22:31:13.000Z</time>
      </trkpt>
      <trkpt lat="46.12033" lon="6.81573">
        <ele>2233</ele>
        <time>2000-01-01T22:31:23.000Z</time>
      </trkpt>
      <trkpt lat="46.12043" lon="6.81602">
        <ele>2228</ele>
        <time>2000-01-01T22:31:33.000Z</time>
      </trkpt>
      <trkpt lat="46.12061" lon="6.81612">
        <ele>2228</ele>
        <time>2000-01-01T22:31:43.000Z</time>
      </trkpt>
      <trkpt lat="46.12067" lon="6.81625">
        <ele>2220.1</ele>
        <time>2000-01-01T22:31:53.000Z</time>
      </trkpt>
      <trkpt lat="46.12074" lon="6.81627">
        <ele>2217.5</ele>
        <time>2000-01-01T22:32:03.000Z</time>
      </trkpt>
      <trkpt lat="46.1208" lon="6.81626">
        <ele>2224</ele>
        <time>2000-01-01T22:32:13.000Z</time>
      </trkpt>
      <trkpt lat="46.12095" lon="6.81615">
        <ele>2216.6</ele>
        <time>2000-01-01T22:32:23.000Z</time>
      </trkpt>
      <trkpt lat="46.121" lon="6.81615">
        <ele>2220</ele>
        <time>2000-01-01T22:32:33.000Z</time>
      </trkpt>
      <trkpt lat="46.121" lon="6.81626">
        <ele>2210.5</ele>
        <time>2000-01-01T22:32:43.000Z</time>
      </trkpt>
      <trkpt lat="46.12096" lon="6.81643">
        <ele>2207</ele>
        <time>2000-01-01T22:32:53.000Z</time>
      </trkpt>
      <trkpt lat="46.12089" lon="6.81677">
        <ele>2195</ele>
        <time>2000-01-01T22:33:03.000Z</time>
      </trkpt>
      <trkpt lat="46.12088" lon="6.8169">
        <ele>2188.2</ele>
        <time>2000-01-01T22:33:13.000Z</time>
      </trkpt>
      <trkpt lat="46.12096" lon="6.81707">
        <ele>2184</ele>
        <time>2000-01-01T22:33:23.000Z</time>
      </trkpt>
      <trkpt lat="46.12104" lon="6.81718">
        <ele>2180.7</ele>
        <time>2000-01-01T22:33:33.000Z</time>
      </trkpt>
      <trkpt lat="46.12113" lon="6.81734">
        <ele>2178</ele>
        <time>2000-01-01T22:33:43.000Z</time>
      </trkpt>
      <trkpt lat="46.12117" lon="6.8174">
        <ele>2177.2</ele>
        <time>2000-01-01T22:33:53.000Z</time>
      </trkpt>
      <trkpt lat="46.12122" lon="6.81745">
        <ele>2176.7</ele>
        <time>2000-01-01T22:34:03.000Z</time>
      </trkpt>
      <trkpt lat="46.12118" lon="6.81748">
        <ele>2175.9</ele>
        <time>2000-01-01T22:34:13.000Z</time>
      </trkpt>
      <trkpt lat="46.12114" lon="6.81758">
        <ele>2174</ele>
        <time>2000-01-01T22:34:23.000Z</time>
      </trkpt>
      <trkpt lat="46.12119" lon="6.8178">
        <ele>2171</ele>
        <time>2000-01-01T22:34:33.000Z</time>
      </trkpt>
      <trkpt lat="46.12124" lon="6.81794">
        <ele>2169</ele>
        <time>2000-01-01T22:34:43.000Z</time>
      </trkpt>
      <trkpt lat="46.1214" lon="6.81804">
        <ele>2162.5</ele>
        <time>2000-01-01T22:34:53.000Z</time>
      </trkpt>
      <trkpt lat="46.12132" lon="6.81817">
        <ele>2161</ele>
        <time>2000-01-01T22:35:03.000Z</time>
      </trkpt>
      <trkpt lat="46.12132" lon="6.81826">
        <ele>2157.9</ele>
        <time>2000-01-01T22:35:13.000Z</time>
      </trkpt>
      <trkpt lat="46.12135" lon="6.81833">
        <ele>2155.2</ele>
        <time>2000-01-01T22:35:23.000Z</time>
      </trkpt>
      <trkpt lat="46.12137" lon="6.81833">
        <ele>2154.6</ele>
        <time>2000-01-01T22:35:33.000Z</time>
      </trkpt>
      <trkpt lat="46.1214" lon="6.81835">
        <ele>2153.5</ele>
        <time>2000-01-01T22:35:43.000Z</time>
      </trkpt>
      <trkpt lat="46.12144" lon="6.81838">
        <ele>2155</ele>
        <time>2000-01-01T22:35:53.000Z</time>
      </trkpt>
      <trkpt lat="46.12145" lon="6.81842">
        <ele>2151.5</ele>
        <time>2000-01-01T22:36:03.000Z</time>
      </trkpt>
      <trkpt lat="46.12144" lon="6.81848">
        <ele>2149.4</ele>
        <time>2000-01-01T22:36:13.000Z</time>
      </trkpt>
      <trkpt lat="46.12143" lon="6.81854">
        <ele>2147.2</ele>
        <time>2000-01-01T22:36:23.000Z</time>
      </trkpt>
      <trkpt lat="46.12144" lon="6.81859">
        <ele>2145.6</ele>
        <time>2000-01-01T22:36:33.000Z</time>
      </trkpt>
      <trkpt lat="46.12147" lon="6.81864">
        <ele>2145</ele>
        <time>2000-01-01T22:36:43.000Z</time>
      </trkpt>
      <trkpt lat="46.12148" lon="6.8187">
        <ele>2142.7</ele>
        <time>2000-01-01T22:36:53.000Z</time>
      </trkpt>
      <trkpt lat="46.12151" lon="6.81878">
        <ele>2140.3</ele>
        <time>2000-01-01T22:37:03.000Z</time>
      </trkpt>
      <trkpt lat="46.12153" lon="6.81882">
        <ele>2139</ele>
        <time>2000-01-01T22:37:13.000Z</time>
      </trkpt>
      <trkpt lat="46.12153" lon="6.81885">
        <ele>2137.9</ele>
        <time>2000-01-01T22:37:23.000Z</time>
      </trkpt>
      <trkpt lat="46.12153" lon="6.81888">
        <ele>2136.8</ele>
        <time>2000-01-01T22:37:33.000Z</time>
      </trkpt>
      <trkpt lat="46.12152" lon="6.81889">
        <ele>2139</ele>
        <time>2000-01-01T22:37:43.000Z</time>
      </trkpt>
      <trkpt lat="46.12149" lon="6.81891">
        <ele>2135.6</ele>
        <time>2000-01-01T22:37:53.000Z</time>
      </trkpt>
      <trkpt lat="46.1215" lon="6.81896">
        <ele>2133.7</ele>
        <time>2000-01-01T22:38:03.000Z</time>
      </trkpt>
      <trkpt lat="46.1215" lon="6.81899">
        <ele>2132.5</ele>
        <time>2000-01-01T22:38:13.000Z</time>
      </trkpt>
      <trkpt lat="46.12152" lon="6.81901">
        <ele>2131.7</ele>
        <time>2000-01-01T22:38:23.000Z</time>
      </trkpt>
      <trkpt lat="46.12154" lon="6.81903">
        <ele>2130.9</ele>
        <time>2000-01-01T22:38:33.000Z</time>
      </trkpt>
      <trkpt lat="46.12156" lon="6.8191">
        <ele>2127.9</ele>
        <time>2000-01-01T22:38:43.000Z</time>
      </trkpt>
      <trkpt lat="46.12164" lon="6.8192">
        <ele>2123</ele>
        <time>2000-01-01T22:38:53.000Z</time>
      </trkpt>
      <trkpt lat="46.12166" lon="6.81924">
        <ele>2120.7</ele>
        <time>2000-01-01T22:39:03.000Z</time>
      </trkpt>
      <trkpt lat="46.12166" lon="6.81926">
        <ele>2119.7</ele>
        <time>2000-01-01T22:39:13.000Z</time>
      </trkpt>
      <trkpt lat="46.12165" lon="6.81931">
        <ele>2117.6</ele>
        <time>2000-01-01T22:39:23.000Z</time>
      </trkpt>
      <trkpt lat="46.12165" lon="6.81936">
        <ele>2115.3</ele>
        <time>2000-01-01T22:39:33.000Z</time>
      </trkpt>
      <trkpt lat="46.12172" lon="6.81935">
        <ele>2114.7</ele>
        <time>2000-01-01T22:39:43.000Z</time>
      </trkpt>
      <trkpt lat="46.12174" lon="6.81936">
        <ele>2116</ele>
        <time>2000-01-01T22:39:53.000Z</time>
      </trkpt>
      <trkpt lat="46.1218" lon="6.81937">
        <ele>2112.6</ele>
        <time>2000-01-01T22:40:03.000Z</time>
      </trkpt>
      <trkpt lat="46.12176" lon="6.81942">
        <ele>2110.8</ele>
        <time>2000-01-01T22:40:13.000Z</time>
      </trkpt>
      <trkpt lat="46.12175" lon="6.81947">
        <ele>2108.6</ele>
        <time>2000-01-01T22:40:23.000Z</time>
      </trkpt>
      <trkpt lat="46.12175" lon="6.8195">
        <ele>2107.1</ele>
        <time>2000-01-01T22:40:33.000Z</time>
      </trkpt>
      <trkpt lat="46.12175" lon="6.81953">
        <ele>2108</ele>
        <time>2000-01-01T22:40:43.000Z</time>
      </trkpt>
      <trkpt lat="46.12173" lon="6.81959">
        <ele>2103.2</ele>
        <time>2000-01-01T22:40:53.000Z</time>
      </trkpt>
      <trkpt lat="46.12172" lon="6.81961">
        <ele>2102.4</ele>
        <time>2000-01-01T22:41:03.000Z</time>
      </trkpt>
      <trkpt lat="46.12174" lon="6.81963">
        <ele>2101.1</ele>
        <time>2000-01-01T22:41:13.000Z</time>
      </trkpt>
      <trkpt lat="46.12176" lon="6.81963">
        <ele>2100.7</ele>
        <time>2000-01-01T22:41:23.000Z</time>
      </trkpt>
      <trkpt lat="46.12183" lon="6.81962">
        <ele>2100.1</ele>
        <time>2000-01-01T22:41:33.000Z</time>
      </trkpt>
      <trkpt lat="46.12186" lon="6.81962">
        <ele>2101</ele>
        <time>2000-01-01T22:41:43.000Z</time>
      </trkpt>
      <trkpt lat="46.12186" lon="6.81964">
        <ele>2098.6</ele>
        <time>2000-01-01T22:41:53.000Z</time>
      </trkpt>
      <trkpt lat="46.12183" lon="6.81965">
        <ele>2098.6</ele>
        <time>2000-01-01T22:42:03.000Z</time>
      </trkpt>
      <trkpt lat="46.12182" lon="6.81972">
        <ele>2095.3</ele>
        <time>2000-01-01T22:42:13.000Z</time>
      </trkpt>
      <trkpt lat="46.1218" lon="6.81974">
        <ele>2094.8</ele>
        <time>2000-01-01T22:42:23.000Z</time>
      </trkpt>
      <trkpt lat="46.1218" lon="6.81977">
        <ele>2093.5</ele>
        <time>2000-01-01T22:42:33.000Z</time>
      </trkpt>
      <trkpt lat="46.12172" lon="6.81981">
        <ele>2095</ele>
        <time>2000-01-01T22:42:43.000Z</time>
      </trkpt>
      <trkpt lat="46.12171" lon="6.81981">
        <ele>2093.2</ele>
        <time>2000-01-01T22:42:53.000Z</time>
      </trkpt>
      <trkpt lat="46.12169" lon="6.81983">
        <ele>2092.6</ele>
        <time>2000-01-01T22:43:03.000Z</time>
      </trkpt>
      <trkpt lat="46.12167" lon="6.81985">
        <ele>2092</ele>
        <time>2000-01-01T22:43:13.000Z</time>
      </trkpt>
      <trkpt lat="46.12165" lon="6.81989">
        <ele>2090.7</ele>
        <time>2000-01-01T22:43:23.000Z</time>
      </trkpt>
      <trkpt lat="46.12166" lon="6.8199">
        <ele>2089.9</ele>
        <time>2000-01-01T22:43:33.000Z</time>
      </trkpt>
      <trkpt lat="46.12167" lon="6.81989">
        <ele>2090.1</ele>
        <time>2000-01-01T22:43:43.000Z</time>
      </trkpt>
      <trkpt lat="46.12173" lon="6.81987">
        <ele>2090.2</ele>
        <time>2000-01-01T22:43:53.000Z</time>
      </trkpt>
      <trkpt lat="46.12174" lon="6.81992">
        <ele>2088</ele>
        <time>2000-01-01T22:44:03.000Z</time>
      </trkpt>
      <trkpt lat="46.12174" lon="6.81994">
        <ele>2086.9</ele>
        <time>2000-01-01T22:44:13.000Z</time>
      </trkpt>
      <trkpt lat="46.12176" lon="6.82001">
        <ele>2083.6</ele>
        <time>2000-01-01T22:44:23.000Z</time>
      </trkpt>
      <trkpt lat="46.12175" lon="6.82003">
        <ele>2082.8</ele>
        <time>2000-01-01T22:44:33.000Z</time>
      </trkpt>
      <trkpt lat="46.12174" lon="6.82008">
        <ele>2080.6</ele>
        <time>2000-01-01T22:44:43.000Z</time>
      </trkpt>
      <trkpt lat="46.12174" lon="6.82013">
        <ele>2078.3</ele>
        <time>2000-01-01T22:44:53.000Z</time>
      </trkpt>
      <trkpt lat="46.12177" lon="6.82014">
        <ele>2079</ele>
        <time>2000-01-01T22:45:03.000Z</time>
      </trkpt>
      <trkpt lat="46.12177" lon="6.82015">
        <ele>2077.9</ele>
        <time>2000-01-01T22:45:13.000Z</time>
      </trkpt>
      <trkpt lat="46.12174" lon="6.82015">
        <ele>2077.4</ele>
        <time>2000-01-01T22:45:23.000Z</time>
      </trkpt>
      <trkpt lat="46.12174" lon="6.82018">
        <ele>2076.1</ele>
        <time>2000-01-01T22:45:33.000Z</time>
      </trkpt>
      <trkpt lat="46.12175" lon="6.82021">
        <ele>2075</ele>
        <time>2000-01-01T22:45:43.000Z</time>
      </trkpt>
      <trkpt lat="46.12171" lon="6.82023">
        <ele>2073</ele>
        <time>2000-01-01T22:45:53.000Z</time>
      </trkpt>
      <trkpt lat="46.12169" lon="6.82026">
        <ele>2070.8</ele>
        <time>2000-01-01T22:46:03.000Z</time>
      </trkpt>
      <trkpt lat="46.12166" lon="6.82029">
        <ele>2068.8</ele>
        <time>2000-01-01T22:46:13.000Z</time>
      </trkpt>
      <trkpt lat="46.12167" lon="6.8203">
        <ele>2069</ele>
        <time>2000-01-01T22:46:23.000Z</time>
      </trkpt>
      <trkpt lat="46.12165" lon="6.82034">
        <ele>2067.3</ele>
        <time>2000-01-01T22:46:33.000Z</time>
      </trkpt>
      <trkpt lat="46.1216" lon="6.82039">
        <ele>2067.3</ele>
        <time>2000-01-01T22:46:43.000Z</time>
      </trkpt>
      <trkpt lat="46.12162" lon="6.82041">
        <ele>2065.6</ele>
        <time>2000-01-01T22:46:53.000Z</time>
      </trkpt>
      <trkpt lat="46.12165" lon="6.8204">
        <ele>2064.8</ele>
        <time>2000-01-01T22:47:03.000Z</time>
      </trkpt>
      <trkpt lat="46.12168" lon="6.82042">
        <ele>2064</ele>
        <time>2000-01-01T22:47:13.000Z</time>
      </trkpt>
      <trkpt lat="46.12167" lon="6.82044">
        <ele>2062</ele>
        <time>2000-01-01T22:47:23.000Z</time>
      </trkpt>
      <trkpt lat="46.12163" lon="6.82046">
        <ele>2063.1</ele>
        <time>2000-01-01T22:47:33.000Z</time>
      </trkpt>
      <trkpt lat="46.12166" lon="6.82056">
        <ele>2058.1</ele>
        <time>2000-01-01T22:47:43.000Z</time>
      </trkpt>
      <trkpt lat="46.12162" lon="6.82067">
        <ele>2054</ele>
        <time>2000-01-01T22:47:53.000Z</time>
      </trkpt>
      <trkpt lat="46.12161" lon="6.82077">
        <ele>2052.5</ele>
        <time>2000-01-01T22:48:03.000Z</time>
      </trkpt>
      <trkpt lat="46.1216" lon="6.82083">
        <ele>2050.4</ele>
        <time>2000-01-01T22:48:13.000Z</time>
      </trkpt>
      <trkpt lat="46.12162" lon="6.82091">
        <ele>2048.2</ele>
        <time>2000-01-01T22:48:23.000Z</time>
      </trkpt>
      <trkpt lat="46.12164" lon="6.82102">
        <ele>2043</ele>
        <time>2000-01-01T22:48:33.000Z</time>
      </trkpt>
      <trkpt lat="46.12167" lon="6.82112">
        <ele>2041.9</ele>
        <time>2000-01-01T22:48:43.000Z</time>
      </trkpt>
      <trkpt lat="46.12171" lon="6.82118">
        <ele>2041.2</ele>
        <time>2000-01-01T22:48:53.000Z</time>
      </trkpt>
      <trkpt lat="46.12171" lon="6.82125">
        <ele>2039</ele>
        <time>2000-01-01T22:49:03.000Z</time>
      </trkpt>
      <trkpt lat="46.1217" lon="6.82135">
        <ele>2037</ele>
        <time>2000-01-01T22:49:13.000Z</time>
      </trkpt>
      <trkpt lat="46.12171" lon="6.82141">
        <ele>2033.8</ele>
        <time>2000-01-01T22:49:23.000Z</time>
      </trkpt>
      <trkpt lat="46.1218" lon="6.82145">
        <ele>2033.2</ele>
        <time>2000-01-01T22:49:33.000Z</time>
      </trkpt>
      <trkpt lat="46.12172" lon="6.82148">
        <ele>2033</ele>
        <time>2000-01-01T22:49:43.000Z</time>
      </trkpt>
      <trkpt lat="46.12176" lon="6.82156">
        <ele>2027.9</ele>
        <time>2000-01-01T22:49:53.000Z</time>
      </trkpt>
      <trkpt lat="46.12181" lon="6.8216">
        <ele>2026.5</ele>
        <time>2000-01-01T22:50:03.000Z</time>
      </trkpt>
      <trkpt lat="46.12179" lon="6.82162">
        <ele>2025.5</ele>
        <time>2000-01-01T22:50:13.000Z</time>
      </trkpt>
      <trkpt lat="46.12185" lon="6.8217">
        <ele>2027</ele>
        <time>2000-01-01T22:50:23.000Z</time>
      </trkpt>
      <trkpt lat="46.12179" lon="6.82173">
        <ele>2021.4</ele>
        <time>2000-01-01T22:50:33.000Z</time>
      </trkpt>
      <trkpt lat="46.12182" lon="6.82177">
        <ele>2020.2</ele>
        <time>2000-01-01T22:50:43.000Z</time>
      </trkpt>
      <trkpt lat="46.12175" lon="6.82184">
        <ele>2018</ele>
        <time>2000-01-01T22:50:53.000Z</time>
      </trkpt>
      <trkpt lat="46.12177" lon="6.82193">
        <ele>2015.1</ele>
        <time>2000-01-01T22:51:03.000Z</time>
      </trkpt>
      <trkpt lat="46.12181" lon="6.82197">
        <ele>2014</ele>
        <time>2000-01-01T22:51:13.000Z</time>
      </trkpt>
      <trkpt lat="46.12189" lon="6.82215">
        <ele>2011</ele>
        <time>2000-01-01T22:51:23.000Z</time>
      </trkpt>
      <trkpt lat="46.12202" lon="6.82223">
        <ele>2009.5</ele>
        <time>2000-01-01T22:51:33.000Z</time>
      </trkpt>
      <trkpt lat="46.122" lon="6.82238">
        <ele>2007</ele>
        <time>2000-01-01T22:51:43.000Z</time>
      </trkpt>
      <trkpt lat="46.12201" lon="6.82244">
        <ele>2007.1</ele>
        <time>2000-01-01T22:51:53.000Z</time>
      </trkpt>
      <trkpt lat="46.12205" lon="6.82259">
        <ele>2006</ele>
        <time>2000-01-01T22:52:03.000Z</time>
      </trkpt>
      <trkpt lat="46.12212" lon="6.82297">
        <ele>2003</ele>
        <time>2000-01-01T22:52:13.000Z</time>
      </trkpt>
      <trkpt lat="46.12212" lon="6.82311">
        <ele>2002.7</ele>
        <time>2000-01-01T22:52:23.000Z</time>
      </trkpt>
      <trkpt lat="46.12212" lon="6.82329">
        <ele>2001</ele>
        <time>2000-01-01T22:52:33.000Z</time>
      </trkpt>
      <trkpt lat="46.12213" lon="6.82345">
        <ele>2001.2</ele>
        <time>2000-01-01T22:52:43.000Z</time>
      </trkpt>
      <trkpt lat="46.12214" lon="6.82353">
        <ele>2001</ele>
        <time>2000-01-01T22:52:53.000Z</time>
      </trkpt>
      <trkpt lat="46.12215" lon="6.82364">
        <ele>2001</ele>
        <time>2000-01-01T22:53:03.000Z</time>
      </trkpt>
      <trkpt lat="46.12218" lon="6.82373">
        <ele>2001.9</ele>
        <time>2000-01-01T22:53:13.000Z</time>
      </trkpt>
      <trkpt lat="46.12217" lon="6.82387">
        <ele>2003.1</ele>
        <time>2000-01-01T22:53:23.000Z</time>
      </trkpt>
      <trkpt lat="46.12216" lon="6.8241">
        <ele>2002</ele>
        <time>2000-01-01T22:53:33.000Z</time>
      </trkpt>
      <trkpt lat="46.12212" lon="6.82435">
        <ele>2005.9</ele>
        <time>2000-01-01T22:53:43.000Z</time>
      </trkpt>
      <trkpt lat="46.12209" lon="6.8244">
        <ele>2002</ele>
        <time>2000-01-01T22:53:53.000Z</time>
      </trkpt>
      <trkpt lat="46.12206" lon="6.82458">
        <ele>2005.4</ele>
        <time>2000-01-01T22:54:03.000Z</time>
      </trkpt>
      <trkpt lat="46.12202" lon="6.82471">
        <ele>2002</ele>
        <time>2000-01-01T22:54:13.000Z</time>
      </trkpt>
      <trkpt lat="46.12202" lon="6.82486">
        <ele>2004.7</ele>
        <time>2000-01-01T22:54:23.000Z</time>
      </trkpt>
      <trkpt lat="46.12205" lon="6.82513">
        <ele>2002</ele>
        <time>2000-01-01T22:54:33.000Z</time>
      </trkpt>
      <trkpt lat="46.122" lon="6.82518">
        <ele>2003.7</ele>
        <time>2000-01-01T22:54:43.000Z</time>
      </trkpt>
      <trkpt lat="46.12199" lon="6.82532">
        <ele>2003.6</ele>
        <time>2000-01-01T22:54:53.000Z</time>
      </trkpt>
      <trkpt lat="46.122" lon="6.82539">
        <ele>2002</ele>
        <time>2000-01-01T22:55:03.000Z</time>
      </trkpt>
      <trkpt lat="46.12199" lon="6.82545">
        <ele>2005.1</ele>
        <time>2000-01-01T22:55:13.000Z</time>
      </trkpt>
      <trkpt lat="46.12194" lon="6.82556">
        <ele>2003</ele>
        <time>2000-01-01T22:55:23.000Z</time>
      </trkpt>
      <trkpt lat="46.12188" lon="6.8257">
        <ele>2001</ele>
        <time>2000-01-01T22:55:33.000Z</time>
      </trkpt>
      <trkpt lat="46.12186" lon="6.82578">
        <ele>2005.7</ele>
        <time>2000-01-01T22:55:43.000Z</time>
      </trkpt>
      <trkpt lat="46.12184" lon="6.82584">
        <ele>2006</ele>
        <time>2000-01-01T22:55:53.000Z</time>
      </trkpt>
      <trkpt lat="46.12175" lon="6.82599">
        <ele>2001</ele>
        <time>2000-01-01T22:56:03.000Z</time>
      </trkpt>
      <trkpt lat="46.12168" lon="6.82613">
        <ele>2003</ele>
        <time>2000-01-01T22:56:13.000Z</time>
      </trkpt>
      <trkpt lat="46.12164" lon="6.82622">
        <ele>2000</ele>
        <time>2000-01-01T22:56:23.000Z</time>
      </trkpt>
      <trkpt lat="46.12152" lon="6.82653">
        <ele>2000</ele>
        <time>2000-01-01T22:56:33.000Z</time>
      </trkpt>
      <trkpt lat="46.1215" lon="6.82655">
        <ele>2003.8</ele>
        <time>2000-01-01T22:56:43.000Z</time>
      </trkpt>
      <trkpt lat="46.12148" lon="6.82663">
        <ele>2004.8</ele>
        <time>2000-01-01T22:56:53.000Z</time>
      </trkpt>
      <trkpt lat="46.12131" lon="6.82687">
        <ele>1999</ele>
        <time>2000-01-01T22:57:03.000Z</time>
      </trkpt>
      <trkpt lat="46.12115" lon="6.82706">
        <ele>2000</ele>
        <time>2000-01-01T22:57:13.000Z</time>
      </trkpt>
      <trkpt lat="46.12097" lon="6.82741">
        <ele>2001</ele>
        <time>2000-01-01T22:57:23.000Z</time>
      </trkpt>
      <trkpt lat="46.12073" lon="6.82777">
        <ele>2001</ele>
        <time>2000-01-01T22:57:33.000Z</time>
      </trkpt>
      <trkpt lat="46.12051" lon="6.82799">
        <ele>2001</ele>
        <time>2000-01-01T22:57:43.000Z</time>
      </trkpt>
      <trkpt lat="46.12042" lon="6.82841">
        <ele>2001</ele>
        <time>2000-01-01T22:57:53.000Z</time>
      </trkpt>
      <trkpt lat="46.1203" lon="6.82855">
        <ele>2005.1</ele>
        <time>2000-01-01T22:58:03.000Z</time>
      </trkpt>
      <trkpt lat="46.12019" lon="6.82877">
        <ele>2001</ele>
        <time>2000-01-01T22:58:13.000Z</time>
      </trkpt>
      <trkpt lat="46.12013" lon="6.82887">
        <ele>2005</ele>
        <time>2000-01-01T22:58:23.000Z</time>
      </trkpt>
      <trkpt lat="46.12004" lon="6.82893">
        <ele>2001</ele>
        <time>2000-01-01T22:58:33.000Z</time>
      </trkpt>
      <trkpt lat="46.12004" lon="6.82893">
        <ele>2002.9</ele>
        <time>2000-01-01T22:58:43.000Z</time>
      </trkpt>
      <trkpt lat="46.12004" lon="6.82893">
        <ele>2002.9</ele>
        <time>2000-01-01T22:58:53.000Z</time>
      </trkpt>
      <trkpt lat="46.11995" lon="6.8289">
        <ele>2001.3</ele>
        <time>2000-01-01T22:59:03.000Z</time>
      </trkpt>
      <trkpt lat="46.11965" lon="6.82876">
        <ele>2000</ele>
        <time>2000-01-01T22:59:13.000Z</time>
      </trkpt>
      <trkpt lat="46.11947" lon="6.82883">
        <ele>2000.5</ele>
        <time>2000-01-01T22:59:23.000Z</time>
      </trkpt>
      <trkpt lat="46.11937" lon="6.82899">
        <ele>1999</ele>
        <time>2000-01-01T22:59:33.000Z</time>
      </trkpt>
      <trkpt lat="46.11931" lon="6.82902">
        <ele>2000.9</ele>
        <time>2000-01-01T22:59:43.000Z</time>
      </trkpt>
      <trkpt lat="46.11923" lon="6.82913">
        <ele>2001.9</ele>
        <time>2000-01-01T22:59:53.000Z</time>
      </trkpt>
      <trkpt lat="46.11909" lon="6.82918">
        <ele>1995</ele>
        <time>2000-01-01T23:00:03.000Z</time>
      </trkpt>
      <trkpt lat="46.11903" lon="6.82928">
        <ele>2000.2</ele>
        <time>2000-01-01T23:00:13.000Z</time>
      </trkpt>
      <trkpt lat="46.11897" lon="6.82932">
        <ele>1999.3</ele>
        <time>2000-01-01T23:00:23.000Z</time>
      </trkpt>
      <trkpt lat="46.11888" lon="6.82937">
        <ele>1995</ele>
        <time>2000-01-01T23:00:33.000Z</time>
      </trkpt>
      <trkpt lat="46.11879" lon="6.82941">
        <ele>1998.6</ele>
        <time>2000-01-01T23:00:43.000Z</time>
      </trkpt>
      <trkpt lat="46.11871" lon="6.82946">
        <ele>1995</ele>
        <time>2000-01-01T23:00:53.000Z</time>
      </trkpt>
      <trkpt lat="46.11864" lon="6.82952">
        <ele>1997.5</ele>
        <time>2000-01-01T23:01:03.000Z</time>
      </trkpt>
      <trkpt lat="46.11857" lon="6.82959">
        <ele>1997.8</ele>
        <time>2000-01-01T23:01:13.000Z</time>
      </trkpt>
      <trkpt lat="46.11854" lon="6.82963">
        <ele>1996</ele>
        <time>2000-01-01T23:01:23.000Z</time>
      </trkpt>
      <trkpt lat="46.1185" lon="6.82967">
        <ele>1999.2</ele>
        <time>2000-01-01T23:01:33.000Z</time>
      </trkpt>
      <trkpt lat="46.11844" lon="6.82978">
        <ele>1999.8</ele>
        <time>2000-01-01T23:01:43.000Z</time>
      </trkpt>
      <trkpt lat="46.11834" lon="6.8299">
        <ele>1998</ele>
        <time>2000-01-01T23:01:53.000Z</time>
      </trkpt>
      <trkpt lat="46.11826" lon="6.82997">
        <ele>1999.2</ele>
        <time>2000-01-01T23:02:03.000Z</time>
      </trkpt>
      <trkpt lat="46.11818" lon="6.83009">
        <ele>2003</ele>
        <time>2000-01-01T23:02:13.000Z</time>
      </trkpt>
      <trkpt lat="46.1181" lon="6.83016">
        <ele>1999</ele>
        <time>2000-01-01T23:02:23.000Z</time>
      </trkpt>
      <trkpt lat="46.11799" lon="6.83025">
        <ele>2003</ele>
        <time>2000-01-01T23:02:33.000Z</time>
      </trkpt>
      <trkpt lat="46.11788" lon="6.83034">
        <ele>1999</ele>
        <time>2000-01-01T23:02:43.000Z</time>
      </trkpt>
      <trkpt lat="46.11779" lon="6.83042">
        <ele>2001</ele>
        <time>2000-01-01T23:02:53.000Z</time>
      </trkpt>
      <trkpt lat="46.11766" lon="6.83051">
        <ele>1998.4</ele>
        <time>2000-01-01T23:03:03.000Z</time>
      </trkpt>
      <trkpt lat="46.1176" lon="6.83054">
        <ele>1998</ele>
        <time>2000-01-01T23:03:13.000Z</time>
      </trkpt>
      <trkpt lat="46.11755" lon="6.8306">
        <ele>1997.3</ele>
        <time>2000-01-01T23:03:23.000Z</time>
      </trkpt>
      <trkpt lat="46.11746" lon="6.83072">
        <ele>1997</ele>
        <time>2000-01-01T23:03:33.000Z</time>
      </trkpt>
      <trkpt lat="46.11742" lon="6.83081">
        <ele>1994.3</ele>
        <time>2000-01-01T23:03:43.000Z</time>
      </trkpt>
      <trkpt lat="46.11733" lon="6.831">
        <ele>1993</ele>
        <time>2000-01-01T23:03:53.000Z</time>
      </trkpt>
      <trkpt lat="46.11721" lon="6.8312">
        <ele>1988.2</ele>
        <time>2000-01-01T23:04:03.000Z</time>
      </trkpt>
      <trkpt lat="46.11707" lon="6.83139">
        <ele>1989</ele>
        <time>2000-01-01T23:04:13.000Z</time>
      </trkpt>
      <trkpt lat="46.11686" lon="6.83162">
        <ele>1983</ele>
        <time>2000-01-01T23:04:23.000Z</time>
      </trkpt>
      <trkpt lat="46.11669" lon="6.8318">
        <ele>1980</ele>
        <time>2000-01-01T23:04:33.000Z</time>
      </trkpt>
      <trkpt lat="46.11649" lon="6.83198">
        <ele>1977</ele>
        <time>2000-01-01T23:04:43.000Z</time>
      </trkpt>
      <trkpt lat="46.1163" lon="6.83216">
        <ele>1974</ele>
        <time>2000-01-01T23:04:53.000Z</time>
      </trkpt>
      <trkpt lat="46.11595" lon="6.8325">
        <ele>1969</ele>
        <time>2000-01-01T23:05:03.000Z</time>
      </trkpt>
      <trkpt lat="46.11575" lon="6.83273">
        <ele>1968</ele>
        <time>2000-01-01T23:05:13.000Z</time>
      </trkpt>
      <trkpt lat="46.11554" lon="6.83292">
        <ele>1967</ele>
        <time>2000-01-01T23:05:23.000Z</time>
      </trkpt>
      <trkpt lat="46.1154" lon="6.83307">
        <ele>1966.5</ele>
        <time>2000-01-01T23:05:33.000Z</time>
      </trkpt>
      <trkpt lat="46.11524" lon="6.83332">
        <ele>1967</ele>
        <time>2000-01-01T23:05:43.000Z</time>
      </trkpt>
      <trkpt lat="46.11506" lon="6.83355">
        <ele>1967</ele>
        <time>2000-01-01T23:05:53.000Z</time>
      </trkpt>
      <trkpt lat="46.11491" lon="6.83371">
        <ele>1967</ele>
        <time>2000-01-01T23:06:03.000Z</time>
      </trkpt>
      <trkpt lat="46.1148" lon="6.83384">
        <ele>1967.8</ele>
        <time>2000-01-01T23:06:13.000Z</time>
      </trkpt>
      <trkpt lat="46.11464" lon="6.83396">
        <ele>1968</ele>
        <time>2000-01-01T23:06:23.000Z</time>
      </trkpt>
      <trkpt lat="46.11453" lon="6.83408">
        <ele>1967.8</ele>
        <time>2000-01-01T23:06:33.000Z</time>
      </trkpt>
      <trkpt lat="46.11451" lon="6.8341">
        <ele>1967.8</ele>
        <time>2000-01-01T23:06:43.000Z</time>
      </trkpt>
      <trkpt lat="46.11442" lon="6.8342">
        <ele>1968</ele>
        <time>2000-01-01T23:06:53.000Z</time>
      </trkpt>
      <trkpt lat="46.11436" lon="6.8343">
        <ele>1968.5</ele>
        <time>2000-01-01T23:07:03.000Z</time>
      </trkpt>
      <trkpt lat="46.11424" lon="6.83439">
        <ele>1968</ele>
        <time>2000-01-01T23:07:13.000Z</time>
      </trkpt>
      <trkpt lat="46.11413" lon="6.83445">
        <ele>1968</ele>
        <time>2000-01-01T23:07:23.000Z</time>
      </trkpt>
      <trkpt lat="46.11401" lon="6.83447">
        <ele>1966</ele>
        <time>2000-01-01T23:07:33.000Z</time>
      </trkpt>
      <trkpt lat="46.11394" lon="6.83447">
        <ele>1968.3</ele>
        <time>2000-01-01T23:07:43.000Z</time>
      </trkpt>
      <trkpt lat="46.11389" lon="6.83451">
        <ele>1967.6</ele>
        <time>2000-01-01T23:07:53.000Z</time>
      </trkpt>
      <trkpt lat="46.1138" lon="6.8346">
        <ele>1965</ele>
        <time>2000-01-01T23:08:03.000Z</time>
      </trkpt>
      <trkpt lat="46.11363" lon="6.83477">
        <ele>1963</ele>
        <time>2000-01-01T23:08:13.000Z</time>
      </trkpt>
      <trkpt lat="46.11352" lon="6.83484">
        <ele>1962.1</ele>
        <time>2000-01-01T23:08:23.000Z</time>
      </trkpt>
      <trkpt lat="46.11343" lon="6.83492">
        <ele>1960</ele>
        <time>2000-01-01T23:08:33.000Z</time>
      </trkpt>
      <trkpt lat="46.11335" lon="6.83504">
        <ele>1957.1</ele>
        <time>2000-01-01T23:08:43.000Z</time>
      </trkpt>
      <trkpt lat="46.11329" lon="6.83516">
        <ele>1956</ele>
        <time>2000-01-01T23:08:53.000Z</time>
      </trkpt>
      <trkpt lat="46.11319" lon="6.83535">
        <ele>1950.5</ele>
        <time>2000-01-01T23:09:03.000Z</time>
      </trkpt>
      <trkpt lat="46.11309" lon="6.83547">
        <ele>1950</ele>
        <time>2000-01-01T23:09:13.000Z</time>
      </trkpt>
      <trkpt lat="46.11302" lon="6.83554">
        <ele>1945.4</ele>
        <time>2000-01-01T23:09:23.000Z</time>
      </trkpt>
      <trkpt lat="46.11297" lon="6.83556">
        <ele>1944.5</ele>
        <time>2000-01-01T23:09:33.000Z</time>
      </trkpt>
      <trkpt lat="46.11287" lon="6.83559">
        <ele>1947</ele>
        <time>2000-01-01T23:09:43.000Z</time>
      </trkpt>
      <trkpt lat="46.11281" lon="6.83561">
        <ele>1941.4</ele>
        <time>2000-01-01T23:09:53.000Z</time>
      </trkpt>
      <trkpt lat="46.11275" lon="6.8356">
        <ele>1942.4</ele>
        <time>2000-01-01T23:10:03.000Z</time>
      </trkpt>
      <trkpt lat="46.11271" lon="6.83561">
        <ele>1942.7</ele>
        <time>2000-01-01T23:10:13.000Z</time>
      </trkpt>
      <trkpt lat="46.11268" lon="6.83565">
        <ele>1941</ele>
        <time>2000-01-01T23:10:23.000Z</time>
      </trkpt>
      <trkpt lat="46.11262" lon="6.8358">
        <ele>1935.1</ele>
        <time>2000-01-01T23:10:33.000Z</time>
      </trkpt>
      <trkpt lat="46.11256" lon="6.83598">
        <ele>1930</ele>
        <time>2000-01-01T23:10:43.000Z</time>
      </trkpt>
      <trkpt lat="46.11251" lon="6.83612">
        <ele>1920.7</ele>
        <time>2000-01-01T23:10:53.000Z</time>
      </trkpt>
      <trkpt lat="46.11245" lon="6.83619">
        <ele>1924</ele>
        <time>2000-01-01T23:11:03.000Z</time>
      </trkpt>
      <trkpt lat="46.11237" lon="6.83626">
        <ele>1919.8</ele>
        <time>2000-01-01T23:11:13.000Z</time>
      </trkpt>
      <trkpt lat="46.11233" lon="6.83634">
        <ele>1916.5</ele>
        <time>2000-01-01T23:11:23.000Z</time>
      </trkpt>
      <trkpt lat="46.11227" lon="6.83646">
        <ele>1915</ele>
        <time>2000-01-01T23:11:33.000Z</time>
      </trkpt>
      <trkpt lat="46.11219" lon="6.8366">
        <ele>1908.9</ele>
        <time>2000-01-01T23:11:43.000Z</time>
      </trkpt>
      <trkpt lat="46.11215" lon="6.83671">
        <ele>1907</ele>
        <time>2000-01-01T23:11:53.000Z</time>
      </trkpt>
      <trkpt lat="46.11213" lon="6.83678">
        <ele>1905.1</ele>
        <time>2000-01-01T23:12:03.000Z</time>
      </trkpt>
      <trkpt lat="46.11211" lon="6.83687">
        <ele>1903.2</ele>
        <time>2000-01-01T23:12:13.000Z</time>
      </trkpt>
      <trkpt lat="46.11208" lon="6.83695">
        <ele>1901.5</ele>
        <time>2000-01-01T23:12:23.000Z</time>
      </trkpt>
      <trkpt lat="46.11204" lon="6.83703">
        <ele>1901</ele>
        <time>2000-01-01T23:12:33.000Z</time>
      </trkpt>
      <trkpt lat="46.11202" lon="6.83707">
        <ele>1901.3</ele>
        <time>2000-01-01T23:12:43.000Z</time>
      </trkpt>
      <trkpt lat="46.11195" lon="6.83717">
        <ele>1901.2</ele>
        <time>2000-01-01T23:12:53.000Z</time>
      </trkpt>
      <trkpt lat="46.11184" lon="6.83725">
        <ele>1900</ele>
        <time>2000-01-01T23:13:03.000Z</time>
      </trkpt>
      <trkpt lat="46.11164" lon="6.83737">
        <ele>1899</ele>
        <time>2000-01-01T23:13:13.000Z</time>
      </trkpt>
      <trkpt lat="46.11155" lon="6.83742">
        <ele>1897.9</ele>
        <time>2000-01-01T23:13:23.000Z</time>
      </trkpt>
      <trkpt lat="46.11151" lon="6.83743">
        <ele>1897.8</ele>
        <time>2000-01-01T23:13:33.000Z</time>
      </trkpt>
      <trkpt lat="46.11147" lon="6.8374">
        <ele>1899</ele>
        <time>2000-01-01T23:13:43.000Z</time>
      </trkpt>
      <trkpt lat="46.11143" lon="6.83737">
        <ele>1898.4</ele>
        <time>2000-01-01T23:13:53.000Z</time>
      </trkpt>
      <trkpt lat="46.11137" lon="6.83727">
        <ele>1899.6</ele>
        <time>2000-01-01T23:14:03.000Z</time>
      </trkpt>
      <trkpt lat="46.11131" lon="6.83722">
        <ele>1900</ele>
        <time>2000-01-01T23:14:13.000Z</time>
      </trkpt>
      <trkpt lat="46.11124" lon="6.83724">
        <ele>1900.7</ele>
        <time>2000-01-01T23:14:23.000Z</time>
      </trkpt>
      <trkpt lat="46.11117" lon="6.83725">
        <ele>1900.9</ele>
        <time>2000-01-01T23:14:33.000Z</time>
      </trkpt>
      <trkpt lat="46.11109" lon="6.83727">
        <ele>1897</ele>
        <time>2000-01-01T23:14:43.000Z</time>
      </trkpt>
      <trkpt lat="46.11102" lon="6.83727">
        <ele>1899.7</ele>
        <time>2000-01-01T23:14:53.000Z</time>
      </trkpt>
      <trkpt lat="46.11091" lon="6.8373">
        <ele>1897.5</ele>
        <time>2000-01-01T23:15:03.000Z</time>
      </trkpt>
      <trkpt lat="46.11083" lon="6.83737">
        <ele>1895</ele>
        <time>2000-01-01T23:15:13.000Z</time>
      </trkpt>
      <trkpt lat="46.11076" lon="6.83741">
        <ele>1889.8</ele>
        <time>2000-01-01T23:15:23.000Z</time>
      </trkpt>
      <trkpt lat="46.11067" lon="6.83743">
        <ele>1886.3</ele>
        <time>2000-01-01T23:15:33.000Z</time>
      </trkpt>
      <trkpt lat="46.11047" lon="6.83746">
        <ele>1880</ele>
        <time>2000-01-01T23:15:43.000Z</time>
      </trkpt>
      <trkpt lat="46.11025" lon="6.83748">
        <ele>1874</ele>
        <time>2000-01-01T23:15:53.000Z</time>
      </trkpt>
      <trkpt lat="46.10979" lon="6.83748">
        <ele>1865</ele>
        <time>2000-01-01T23:16:03.000Z</time>
      </trkpt>
      <trkpt lat="46.10955" lon="6.83744">
        <ele>1862</ele>
        <time>2000-01-01T23:16:13.000Z</time>
      </trkpt>
      <trkpt lat="46.10931" lon="6.83741">
        <ele>1858</ele>
        <time>2000-01-01T23:16:23.000Z</time>
      </trkpt>
      <trkpt lat="46.10904" lon="6.83736">
        <ele>1851</ele>
        <time>2000-01-01T23:16:33.000Z</time>
      </trkpt>
      <trkpt lat="46.1089" lon="6.83725">
        <ele>1847.2</ele>
        <time>2000-01-01T23:16:43.000Z</time>
      </trkpt>
      <trkpt lat="46.10876" lon="6.83717">
        <ele>1858</ele>
        <time>2000-01-01T23:16:53.000Z</time>
      </trkpt>
      <trkpt lat="46.10869" lon="6.83707">
        <ele>1844.1</ele>
        <time>2000-01-01T23:17:03.000Z</time>
      </trkpt>
      <trkpt lat="46.10861" lon="6.83689">
        <ele>1857</ele>
        <time>2000-01-01T23:17:13.000Z</time>
      </trkpt>
      <trkpt lat="46.10848" lon="6.83677">
        <ele>1859.8</ele>
        <time>2000-01-01T23:17:23.000Z</time>
      </trkpt>
      <trkpt lat="46.10833" lon="6.83671">
        <ele>1856</ele>
        <time>2000-01-01T23:17:33.000Z</time>
      </trkpt>
      <trkpt lat="46.10816" lon="6.83667">
        <ele>1849.2</ele>
        <time>2000-01-01T23:17:43.000Z</time>
      </trkpt>
      <trkpt lat="46.10803" lon="6.83663">
        <ele>1844</ele>
        <time>2000-01-01T23:17:53.000Z</time>
      </trkpt>
      <trkpt lat="46.10795" lon="6.83662">
        <ele>1839.1</ele>
        <time>2000-01-01T23:18:03.000Z</time>
      </trkpt>
      <trkpt lat="46.10787" lon="6.83662">
        <ele>1833.4</ele>
        <time>2000-01-01T23:18:13.000Z</time>
      </trkpt>
      <trkpt lat="46.10781" lon="6.83663">
        <ele>1828</ele>
        <time>2000-01-01T23:18:23.000Z</time>
      </trkpt>
      <trkpt lat="46.10778" lon="6.83666">
        <ele>1823.7</ele>
        <time>2000-01-01T23:18:33.000Z</time>
      </trkpt>
      <trkpt lat="46.10773" lon="6.83665">
        <ele>1821.8</ele>
        <time>2000-01-01T23:18:43.000Z</time>
      </trkpt>
      <trkpt lat="46.10768" lon="6.83665">
        <ele>1819</ele>
        <time>2000-01-01T23:18:53.000Z</time>
      </trkpt>
      <trkpt lat="46.10764" lon="6.83666">
        <ele>1816.1</ele>
        <time>2000-01-01T23:19:03.000Z</time>
      </trkpt>
      <trkpt lat="46.10765" lon="6.83671">
        <ele>1809</ele>
        <time>2000-01-01T23:19:13.000Z</time>
      </trkpt>
      <trkpt lat="46.10763" lon="6.83674">
        <ele>1810.2</ele>
        <time>2000-01-01T23:19:23.000Z</time>
      </trkpt>
      <trkpt lat="46.10757" lon="6.8368">
        <ele>1803.5</ele>
        <time>2000-01-01T23:19:33.000Z</time>
      </trkpt>
      <trkpt lat="46.10752" lon="6.83688">
        <ele>1796.5</ele>
        <time>2000-01-01T23:19:43.000Z</time>
      </trkpt>
      <trkpt lat="46.10746" lon="6.83695">
        <ele>1793</ele>
        <time>2000-01-01T23:19:53.000Z</time>
      </trkpt>
      <trkpt lat="46.10742" lon="6.837">
        <ele>1790.4</ele>
        <time>2000-01-01T23:20:03.000Z</time>
      </trkpt>
      <trkpt lat="46.10735" lon="6.83705">
        <ele>1788.6</ele>
        <time>2000-01-01T23:20:13.000Z</time>
      </trkpt>
      <trkpt lat="46.10728" lon="6.83712">
        <ele>1787</ele>
        <time>2000-01-01T23:20:23.000Z</time>
      </trkpt>
      <trkpt lat="46.10723" lon="6.83719">
        <ele>1781.8</ele>
        <time>2000-01-01T23:20:33.000Z</time>
      </trkpt>
      <trkpt lat="46.10721" lon="6.83727">
        <ele>1778.5</ele>
        <time>2000-01-01T23:20:43.000Z</time>
      </trkpt>
      <trkpt lat="46.10718" lon="6.83731">
        <ele>1777.4</ele>
        <time>2000-01-01T23:20:53.000Z</time>
      </trkpt>
      <trkpt lat="46.1071" lon="6.83735">
        <ele>1776</ele>
        <time>2000-01-01T23:21:03.000Z</time>
      </trkpt>
      <trkpt lat="46.10703" lon="6.83737">
        <ele>1776.3</ele>
        <time>2000-01-01T23:21:13.000Z</time>
      </trkpt>
      <trkpt lat="46.107" lon="6.83743">
        <ele>1773.1</ele>
        <time>2000-01-01T23:21:23.000Z</time>
      </trkpt>
      <trkpt lat="46.10697" lon="6.83745">
        <ele>1772</ele>
        <time>2000-01-01T23:21:33.000Z</time>
      </trkpt>
      <trkpt lat="46.10696" lon="6.8375">
        <ele>1775</ele>
        <time>2000-01-01T23:21:43.000Z</time>
      </trkpt>
      <trkpt lat="46.10691" lon="6.8375">
        <ele>1770</ele>
        <time>2000-01-01T23:21:53.000Z</time>
      </trkpt>
      <trkpt lat="46.10685" lon="6.83748">
        <ele>1773.1</ele>
        <time>2000-01-01T23:22:03.000Z</time>
      </trkpt>
      <trkpt lat="46.10681" lon="6.83752">
        <ele>1771.9</ele>
        <time>2000-01-01T23:22:13.000Z</time>
      </trkpt>
      <trkpt lat="46.10678" lon="6.83754">
        <ele>1775</ele>
        <time>2000-01-01T23:22:23.000Z</time>
      </trkpt>
      <trkpt lat="46.10676" lon="6.83751">
        <ele>1773.8</ele>
        <time>2000-01-01T23:22:33.000Z</time>
      </trkpt>
      <trkpt lat="46.10674" lon="6.83747">
        <ele>1777.3</ele>
        <time>2000-01-01T23:22:43.000Z</time>
      </trkpt>
      <trkpt lat="46.10669" lon="6.83747">
        <ele>1778.9</ele>
        <time>2000-01-01T23:22:53.000Z</time>
      </trkpt>
      <trkpt lat="46.10663" lon="6.83749">
        <ele>1777.6</ele>
        <time>2000-01-01T23:23:03.000Z</time>
      </trkpt>
      <trkpt lat="46.10659" lon="6.83753">
        <ele>1767</ele>
        <time>2000-01-01T23:23:13.000Z</time>
      </trkpt>
      <trkpt lat="46.10654" lon="6.83761">
        <ele>1768.4</ele>
        <time>2000-01-01T23:23:23.000Z</time>
      </trkpt>
      <trkpt lat="46.10648" lon="6.83769">
        <ele>1762</ele>
        <time>2000-01-01T23:23:33.000Z</time>
      </trkpt>
      <trkpt lat="46.10642" lon="6.83776">
        <ele>1760</ele>
        <time>2000-01-01T23:23:43.000Z</time>
      </trkpt>
      <trkpt lat="46.10637" lon="6.83781">
        <ele>1751.2</ele>
        <time>2000-01-01T23:23:53.000Z</time>
      </trkpt>
      <trkpt lat="46.10631" lon="6.83783">
        <ele>1747.5</ele>
        <time>2000-01-01T23:24:03.000Z</time>
      </trkpt>
      <trkpt lat="46.10627" lon="6.83788">
        <ele>1742.7</ele>
        <time>2000-01-01T23:24:13.000Z</time>
      </trkpt>
      <trkpt lat="46.10626" lon="6.83791">
        <ele>1739</ele>
        <time>2000-01-01T23:24:23.000Z</time>
      </trkpt>
      <trkpt lat="46.10628" lon="6.83793">
        <ele>1739.8</ele>
        <time>2000-01-01T23:24:33.000Z</time>
      </trkpt>
      <trkpt lat="46.10632" lon="6.83798">
        <ele>1738.2</ele>
        <time>2000-01-01T23:24:43.000Z</time>
      </trkpt>
      <trkpt lat="46.10631" lon="6.83801">
        <ele>1735.8</ele>
        <time>2000-01-01T23:24:53.000Z</time>
      </trkpt>
      <trkpt lat="46.10628" lon="6.838">
        <ele>1735.3</ele>
        <time>2000-01-01T23:25:03.000Z</time>
      </trkpt>
      <trkpt lat="46.10626" lon="6.83805">
        <ele>1731.3</ele>
        <time>2000-01-01T23:25:13.000Z</time>
      </trkpt>
      <trkpt lat="46.10621" lon="6.83809">
        <ele>1733</ele>
        <time>2000-01-01T23:25:23.000Z</time>
      </trkpt>
      <trkpt lat="46.10613" lon="6.83813">
        <ele>1722.3</ele>
        <time>2000-01-01T23:25:33.000Z</time>
      </trkpt>
      <trkpt lat="46.1061" lon="6.83811">
        <ele>1722.1</ele>
        <time>2000-01-01T23:25:43.000Z</time>
      </trkpt>
      <trkpt lat="46.10608" lon="6.83812">
        <ele>1720.9</ele>
        <time>2000-01-01T23:25:53.000Z</time>
      </trkpt>
      <trkpt lat="46.10608" lon="6.83816">
        <ele>1719</ele>
        <time>2000-01-01T23:26:03.000Z</time>
      </trkpt>
      <trkpt lat="46.10605" lon="6.83818">
        <ele>1717</ele>
        <time>2000-01-01T23:26:13.000Z</time>
      </trkpt>
      <trkpt lat="46.10601" lon="6.83817">
        <ele>1716</ele>
        <time>2000-01-01T23:26:23.000Z</time>
      </trkpt>
      <trkpt lat="46.10596" lon="6.83812">
        <ele>1716.5</ele>
        <time>2000-01-01T23:26:33.000Z</time>
      </trkpt>
      <trkpt lat="46.10587" lon="6.83811">
        <ele>1713.8</ele>
        <time>2000-01-01T23:26:43.000Z</time>
      </trkpt>
      <trkpt lat="46.10578" lon="6.83811">
        <ele>1708</ele>
        <time>2000-01-01T23:26:53.000Z</time>
      </trkpt>
      <trkpt lat="46.10561" lon="6.83806">
        <ele>1708.4</ele>
        <time>2000-01-01T23:27:03.000Z</time>
      </trkpt>
      <trkpt lat="46.10551" lon="6.83801">
        <ele>1708</ele>
        <time>2000-01-01T23:27:13.000Z</time>
      </trkpt>
      <trkpt lat="46.10543" lon="6.83796">
        <ele>1706.2</ele>
        <time>2000-01-01T23:27:23.000Z</time>
      </trkpt>
      <trkpt lat="46.1053" lon="6.83788">
        <ele>1705</ele>
        <time>2000-01-01T23:27:33.000Z</time>
      </trkpt>
      <trkpt lat="46.10524" lon="6.83784">
        <ele>1703.7</ele>
        <time>2000-01-01T23:27:43.000Z</time>
      </trkpt>
      <trkpt lat="46.10519" lon="6.8378">
        <ele>1704.1</ele>
        <time>2000-01-01T23:27:53.000Z</time>
      </trkpt>
      <trkpt lat="46.10514" lon="6.83781">
        <ele>1703.2</ele>
        <time>2000-01-01T23:28:03.000Z</time>
      </trkpt>
      <trkpt lat="46.10508" lon="6.83785">
        <ele>1701</ele>
        <time>2000-01-01T23:28:13.000Z</time>
      </trkpt>
      <trkpt lat="46.10502" lon="6.83789">
        <ele>1699.8</ele>
        <time>2000-01-01T23:28:23.000Z</time>
      </trkpt>
      <trkpt lat="46.10484" lon="6.83795">
        <ele>1697</ele>
        <time>2000-01-01T23:28:33.000Z</time>
      </trkpt>
      <trkpt lat="46.1046" lon="6.83802">
        <ele>1688</ele>
        <time>2000-01-01T23:28:43.000Z</time>
      </trkpt>
      <trkpt lat="46.10454" lon="6.83803">
        <ele>1688.9</ele>
        <time>2000-01-01T23:28:53.000Z</time>
      </trkpt>
      <trkpt lat="46.1045" lon="6.83798">
        <ele>1688</ele>
        <time>2000-01-01T23:29:03.000Z</time>
      </trkpt>
      <trkpt lat="46.10448" lon="6.8379">
        <ele>1687.7</ele>
        <time>2000-01-01T23:29:13.000Z</time>
      </trkpt>
      <trkpt lat="46.10449" lon="6.83781">
        <ele>1687</ele>
        <time>2000-01-01T23:29:23.000Z</time>
      </trkpt>
      <trkpt lat="46.10449" lon="6.83775">
        <ele>1689.3</ele>
        <time>2000-01-01T23:29:33.000Z</time>
      </trkpt>
      <trkpt lat="46.10443" lon="6.83769">
        <ele>1688.6</ele>
        <time>2000-01-01T23:29:43.000Z</time>
      </trkpt>
      <trkpt lat="46.10436" lon="6.83768">
        <ele>1687</ele>
        <time>2000-01-01T23:29:53.000Z</time>
      </trkpt>
      <trkpt lat="46.10428" lon="6.83767">
        <ele>1683.3</ele>
        <time>2000-01-01T23:30:03.000Z</time>
      </trkpt>
      <trkpt lat="46.10423" lon="6.83765">
        <ele>1682</ele>
        <time>2000-01-01T23:30:13.000Z</time>
      </trkpt>
      <trkpt lat="46.10419" lon="6.83764">
        <ele>1680.8</ele>
        <time>2000-01-01T23:30:23.000Z</time>
      </trkpt>
      <trkpt lat="46.10416" lon="6.8376">
        <ele>1682</ele>
        <time>2000-01-01T23:30:33.000Z</time>
      </trkpt>
      <trkpt lat="46.10414" lon="6.83753">
        <ele>1683.2</ele>
        <time>2000-01-01T23:30:43.000Z</time>
      </trkpt>
      <trkpt lat="46.10413" lon="6.83751">
        <ele>1683.6</ele>
        <time>2000-01-01T23:30:53.000Z</time>
      </trkpt>
      <trkpt lat="46.10408" lon="6.83753">
        <ele>1681.5</ele>
        <time>2000-01-01T23:31:03.000Z</time>
      </trkpt>
      <trkpt lat="46.10402" lon="6.83758">
        <ele>1680</ele>
        <time>2000-01-01T23:31:13.000Z</time>
      </trkpt>
      <trkpt lat="46.10393" lon="6.83762">
        <ele>1674.2</ele>
        <time>2000-01-01T23:31:23.000Z</time>
      </trkpt>
      <trkpt lat="46.10381" lon="6.83763">
        <ele>1671</ele>
        <time>2000-01-01T23:31:33.000Z</time>
      </trkpt>
      <trkpt lat="46.10374" lon="6.83762">
        <ele>1668.8</ele>
        <time>2000-01-01T23:31:43.000Z</time>
      </trkpt>
      <trkpt lat="46.10363" lon="6.83758">
        <ele>1666.6</ele>
        <time>2000-01-01T23:31:53.000Z</time>
      </trkpt>
      <trkpt lat="46.10357" lon="6.83754">
        <ele>1664</ele>
        <time>2000-01-01T23:32:03.000Z</time>
      </trkpt>
      <trkpt lat="46.10354" lon="6.83751">
        <ele>1665.5</ele>
        <time>2000-01-01T23:32:13.000Z</time>
      </trkpt>
      <trkpt lat="46.10349" lon="6.8375">
        <ele>1664.1</ele>
        <time>2000-01-01T23:32:23.000Z</time>
      </trkpt>
      <trkpt lat="46.10345" lon="6.83753">
        <ele>1662.1</ele>
        <time>2000-01-01T23:32:33.000Z</time>
      </trkpt>
      <trkpt lat="46.10334" lon="6.83759">
        <ele>1657</ele>
        <time>2000-01-01T23:32:43.000Z</time>
      </trkpt>
      <trkpt lat="46.10325" lon="6.83762">
        <ele>1653.7</ele>
        <time>2000-01-01T23:32:53.000Z</time>
      </trkpt>
      <trkpt lat="46.10314" lon="6.83767">
        <ele>1649</ele>
        <time>2000-01-01T23:33:03.000Z</time>
      </trkpt>
      <trkpt lat="46.10309" lon="6.8377">
        <ele>1646.8</ele>
        <time>2000-01-01T23:33:13.000Z</time>
      </trkpt>
      <trkpt lat="46.10302" lon="6.83776">
        <ele>1643.4</ele>
        <time>2000-01-01T23:33:23.000Z</time>
      </trkpt>
      <trkpt lat="46.10296" lon="6.83781">
        <ele>1638</ele>
        <time>2000-01-01T23:33:33.000Z</time>
      </trkpt>
      <trkpt lat="46.1029" lon="6.83782">
        <ele>1638.7</ele>
        <time>2000-01-01T23:33:43.000Z</time>
      </trkpt>
      <trkpt lat="46.10287" lon="6.83786">
        <ele>1637</ele>
        <time>2000-01-01T23:33:53.000Z</time>
      </trkpt>
      <trkpt lat="46.10284" lon="6.83791">
        <ele>1635</ele>
        <time>2000-01-01T23:34:03.000Z</time>
      </trkpt>
      <trkpt lat="46.10281" lon="6.83793">
        <ele>1633.7</ele>
        <time>2000-01-01T23:34:13.000Z</time>
      </trkpt>
      <trkpt lat="46.10275" lon="6.83796">
        <ele>1631</ele>
        <time>2000-01-01T23:34:23.000Z</time>
      </trkpt>
      <trkpt lat="46.10271" lon="6.83796">
        <ele>1630</ele>
        <time>2000-01-01T23:34:33.000Z</time>
      </trkpt>
      <trkpt lat="46.10267" lon="6.83792">
        <ele>1629.8</ele>
        <time>2000-01-01T23:34:43.000Z</time>
      </trkpt>
      <trkpt lat="46.10262" lon="6.83789">
        <ele>1629.3</ele>
        <time>2000-01-01T23:34:53.000Z</time>
      </trkpt>
      <trkpt lat="46.10259" lon="6.83786">
        <ele>1629.4</ele>
        <time>2000-01-01T23:35:03.000Z</time>
      </trkpt>
      <trkpt lat="46.10256" lon="6.83782">
        <ele>1629</ele>
        <time>2000-01-01T23:35:13.000Z</time>
      </trkpt>
      <trkpt lat="46.10252" lon="6.83781">
        <ele>1629.3</ele>
        <time>2000-01-01T23:35:23.000Z</time>
      </trkpt>
      <trkpt lat="46.10249" lon="6.83782">
        <ele>1628.4</ele>
        <time>2000-01-01T23:35:33.000Z</time>
      </trkpt>
      <trkpt lat="46.10246" lon="6.83786">
        <ele>1626.6</ele>
        <time>2000-01-01T23:35:43.000Z</time>
      </trkpt>
      <trkpt lat="46.10242" lon="6.83787">
        <ele>1625.8</ele>
        <time>2000-01-01T23:35:53.000Z</time>
      </trkpt>
      <trkpt lat="46.10237" lon="6.83791">
        <ele>1623</ele>
        <time>2000-01-01T23:36:03.000Z</time>
      </trkpt>
      <trkpt lat="46.10232" lon="6.83795">
        <ele>1621.9</ele>
        <time>2000-01-01T23:36:13.000Z</time>
      </trkpt>
      <trkpt lat="46.10231" lon="6.838">
        <ele>1619.9</ele>
        <time>2000-01-01T23:36:23.000Z</time>
      </trkpt>
      <trkpt lat="46.10228" lon="6.83806">
        <ele>1617.4</ele>
        <time>2000-01-01T23:36:33.000Z</time>
      </trkpt>
      <trkpt lat="46.10225" lon="6.8381">
        <ele>1615.4</ele>
        <time>2000-01-01T23:36:43.000Z</time>
      </trkpt>
      <trkpt lat="46.10225" lon="6.83812">
        <ele>1614</ele>
        <time>2000-01-01T23:36:53.000Z</time>
      </trkpt>
      <trkpt lat="46.10223" lon="6.83815">
        <ele>1613</ele>
        <time>2000-01-01T23:37:03.000Z</time>
      </trkpt>
      <trkpt lat="46.1022" lon="6.83817">
        <ele>1611.6</ele>
        <time>2000-01-01T23:37:13.000Z</time>
      </trkpt>
      <trkpt lat="46.10218" lon="6.83823">
        <ele>1608.6</ele>
        <time>2000-01-01T23:37:23.000Z</time>
      </trkpt>
      <trkpt lat="46.10217" lon="6.83827">
        <ele>1606.6</ele>
        <time>2000-01-01T23:37:33.000Z</time>
      </trkpt>
      <trkpt lat="46.10214" lon="6.83829">
        <ele>1605.1</ele>
        <time>2000-01-01T23:37:43.000Z</time>
      </trkpt>
      <trkpt lat="46.10211" lon="6.83827">
        <ele>1608</ele>
        <time>2000-01-01T23:37:53.000Z</time>
      </trkpt>
      <trkpt lat="46.10206" lon="6.83822">
        <ele>1606.4</ele>
        <time>2000-01-01T23:38:03.000Z</time>
      </trkpt>
      <trkpt lat="46.10201" lon="6.83823">
        <ele>1604.9</ele>
        <time>2000-01-01T23:38:13.000Z</time>
      </trkpt>
      <trkpt lat="46.10194" lon="6.83825">
        <ele>1602.4</ele>
        <time>2000-01-01T23:38:23.000Z</time>
      </trkpt>
      <trkpt lat="46.10186" lon="6.83829">
        <ele>1599</ele>
        <time>2000-01-01T23:38:33.000Z</time>
      </trkpt>
      <trkpt lat="46.10184" lon="6.83831">
        <ele>1595.5</ele>
        <time>2000-01-01T23:38:43.000Z</time>
      </trkpt>
      <trkpt lat="46.10185" lon="6.83835">
        <ele>1594.3</ele>
        <time>2000-01-01T23:38:53.000Z</time>
      </trkpt>
      <trkpt lat="46.10188" lon="6.83841">
        <ele>1593.2</ele>
        <time>2000-01-01T23:39:03.000Z</time>
      </trkpt>
      <trkpt lat="46.10192" lon="6.83849">
        <ele>1591.7</ele>
        <time>2000-01-01T23:39:13.000Z</time>
      </trkpt>
      <trkpt lat="46.10193" lon="6.83856">
        <ele>1591</ele>
        <time>2000-01-01T23:39:23.000Z</time>
      </trkpt>
      <trkpt lat="46.10192" lon="6.83866">
        <ele>1584.8</ele>
        <time>2000-01-01T23:39:33.000Z</time>
      </trkpt>
      <trkpt lat="46.1019" lon="6.83867">
        <ele>1583.5</ele>
        <time>2000-01-01T23:39:43.000Z</time>
      </trkpt>
      <trkpt lat="46.10187" lon="6.83867">
        <ele>1582.2</ele>
        <time>2000-01-01T23:39:53.000Z</time>
      </trkpt>
      <trkpt lat="46.10186" lon="6.8387">
        <ele>1580.4</ele>
        <time>2000-01-01T23:40:03.000Z</time>
      </trkpt>
      <trkpt lat="46.10189" lon="6.83875">
        <ele>1579</ele>
        <time>2000-01-01T23:40:13.000Z</time>
      </trkpt>
      <trkpt lat="46.1019" lon="6.83881">
        <ele>1577.4</ele>
        <time>2000-01-01T23:40:23.000Z</time>
      </trkpt>
      <trkpt lat="46.10192" lon="6.83888">
        <ele>1575.2</ele>
        <time>2000-01-01T23:40:33.000Z</time>
      </trkpt>
      <trkpt lat="46.10194" lon="6.83895">
        <ele>1572.7</ele>
        <time>2000-01-01T23:40:43.000Z</time>
      </trkpt>
      <trkpt lat="46.10195" lon="6.83899">
        <ele>1570.9</ele>
        <time>2000-01-01T23:40:53.000Z</time>
      </trkpt>
      <trkpt lat="46.10193" lon="6.83902">
        <ele>1569</ele>
        <time>2000-01-01T23:41:03.000Z</time>
      </trkpt>
      <trkpt lat="46.10193" lon="6.83907">
        <ele>1566.2</ele>
        <time>2000-01-01T23:41:13.000Z</time>
      </trkpt>
      <trkpt lat="46.10195" lon="6.83909">
        <ele>1565.8</ele>
        <time>2000-01-01T23:41:23.000Z</time>
      </trkpt>
      <trkpt lat="46.10197" lon="6.83916">
        <ele>1562.2</ele>
        <time>2000-01-01T23:41:33.000Z</time>
      </trkpt>
      <trkpt lat="46.10199" lon="6.83922">
        <ele>1559.1</ele>
        <time>2000-01-01T23:41:43.000Z</time>
      </trkpt>
      <trkpt lat="46.10202" lon="6.83923">
        <ele>1568</ele>
        <time>2000-01-01T23:41:53.000Z</time>
      </trkpt>
      <trkpt lat="46.10205" lon="6.83917">
        <ele>1561.1</ele>
        <time>2000-01-01T23:42:03.000Z</time>
      </trkpt>
      <trkpt lat="46.10209" lon="6.83913">
        <ele>1562.9</ele>
        <time>2000-01-01T23:42:13.000Z</time>
      </trkpt>
      <trkpt lat="46.10216" lon="6.83908">
        <ele>1565.3</ele>
        <time>2000-01-01T23:42:23.000Z</time>
      </trkpt>
      <trkpt lat="46.10222" lon="6.83909">
        <ele>1567</ele>
        <time>2000-01-01T23:42:33.000Z</time>
      </trkpt>
      <trkpt lat="46.10226" lon="6.83914">
        <ele>1563</ele>
        <time>2000-01-01T23:42:43.000Z</time>
      </trkpt>
      <trkpt lat="46.10226" lon="6.8392">
        <ele>1560.1</ele>
        <time>2000-01-01T23:42:53.000Z</time>
      </trkpt>
      <trkpt lat="46.10224" lon="6.83928">
        <ele>1556.1</ele>
        <time>2000-01-01T23:43:03.000Z</time>
      </trkpt>
      <trkpt lat="46.10222" lon="6.83936">
        <ele>1561</ele>
        <time>2000-01-01T23:43:13.000Z</time>
      </trkpt>
      <trkpt lat="46.10223" lon="6.8394">
        <ele>1550.9</ele>
        <time>2000-01-01T23:43:23.000Z</time>
      </trkpt>
      <trkpt lat="46.10228" lon="6.83945">
        <ele>1549.7</ele>
        <time>2000-01-01T23:43:33.000Z</time>
      </trkpt>
      <trkpt lat="46.10235" lon="6.83948">
        <ele>1549.3</ele>
        <time>2000-01-01T23:43:43.000Z</time>
      </trkpt>
      <trkpt lat="46.10242" lon="6.83947">
        <ele>1555</ele>
        <time>2000-01-01T23:43:53.000Z</time>
      </trkpt>
      <trkpt lat="46.10244" lon="6.8395">
        <ele>1550</ele>
        <time>2000-01-01T23:44:03.000Z</time>
      </trkpt>
      <trkpt lat="46.10245" lon="6.83959">
        <ele>1545.5</ele>
        <time>2000-01-01T23:44:13.000Z</time>
      </trkpt>
      <trkpt lat="46.10245" lon="6.83967">
        <ele>1541.3</ele>
        <time>2000-01-01T23:44:23.000Z</time>
      </trkpt>
      <trkpt lat="46.10248" lon="6.8397">
        <ele>1540.6</ele>
        <time>2000-01-01T23:44:33.000Z</time>
      </trkpt>
      <trkpt lat="46.10253" lon="6.83968">
        <ele>1545</ele>
        <time>2000-01-01T23:44:43.000Z</time>
      </trkpt>
      <trkpt lat="46.10258" lon="6.83966">
        <ele>1543.7</ele>
        <time>2000-01-01T23:44:53.000Z</time>
      </trkpt>
      <trkpt lat="46.10262" lon="6.83966">
        <ele>1544</ele>
        <time>2000-01-01T23:45:03.000Z</time>
      </trkpt>
      <trkpt lat="46.10266" lon="6.83971">
        <ele>1541.3</ele>
        <time>2000-01-01T23:45:13.000Z</time>
      </trkpt>
      <trkpt lat="46.10272" lon="6.8398">
        <ele>1541</ele>
        <time>2000-01-01T23:45:23.000Z</time>
      </trkpt>
      <trkpt lat="46.10276" lon="6.83983">
        <ele>1535.5</ele>
        <time>2000-01-01T23:45:33.000Z</time>
      </trkpt>
      <trkpt lat="46.10282" lon="6.83982">
        <ele>1538.2</ele>
        <time>2000-01-01T23:45:43.000Z</time>
      </trkpt>
      <trkpt lat="46.10286" lon="6.83982">
        <ele>1540.1</ele>
        <time>2000-01-01T23:45:53.000Z</time>
      </trkpt>
      <trkpt lat="46.10289" lon="6.83988">
        <ele>1538</ele>
        <time>2000-01-01T23:46:03.000Z</time>
      </trkpt>
      <trkpt lat="46.10293" lon="6.83993">
        <ele>1539.2</ele>
        <time>2000-01-01T23:46:13.000Z</time>
      </trkpt>
      <trkpt lat="46.10294" lon="6.84004">
        <ele>1535.4</ele>
        <time>2000-01-01T23:46:23.000Z</time>
      </trkpt>
      <trkpt lat="46.10295" lon="6.84009">
        <ele>1534.1</ele>
        <time>2000-01-01T23:46:33.000Z</time>
      </trkpt>
      <trkpt lat="46.10297" lon="6.84012">
        <ele>1532</ele>
        <time>2000-01-01T23:46:43.000Z</time>
      </trkpt>
      <trkpt lat="46.10297" lon="6.84015">
        <ele>1532.7</ele>
        <time>2000-01-01T23:46:53.000Z</time>
      </trkpt>
      <trkpt lat="46.10293" lon="6.84016">
        <ele>1530.4</ele>
        <time>2000-01-01T23:47:03.000Z</time>
      </trkpt>
      <trkpt lat="46.10289" lon="6.84018">
        <ele>1527.8</ele>
        <time>2000-01-01T23:47:13.000Z</time>
      </trkpt>
      <trkpt lat="46.10289" lon="6.84021">
        <ele>1526.7</ele>
        <time>2000-01-01T23:47:23.000Z</time>
      </trkpt>
      <trkpt lat="46.10293" lon="6.84023">
        <ele>1527.8</ele>
        <time>2000-01-01T23:47:33.000Z</time>
      </trkpt>
      <trkpt lat="46.10297" lon="6.84024">
        <ele>1528</ele>
        <time>2000-01-01T23:47:43.000Z</time>
      </trkpt>
      <trkpt lat="46.10302" lon="6.84032">
        <ele>1527.5</ele>
        <time>2000-01-01T23:47:53.000Z</time>
      </trkpt>
      <trkpt lat="46.10308" lon="6.84038">
        <ele>1527</ele>
        <time>2000-01-01T23:48:03.000Z</time>
      </trkpt>
      <trkpt lat="46.10315" lon="6.84046">
        <ele>1526</ele>
        <time>2000-01-01T23:48:13.000Z</time>
      </trkpt>
      <trkpt lat="46.10319" lon="6.84054">
        <ele>1524.5</ele>
        <time>2000-01-01T23:48:23.000Z</time>
      </trkpt>
      <trkpt lat="46.10319" lon="6.84063">
        <ele>1520.8</ele>
        <time>2000-01-01T23:48:33.000Z</time>
      </trkpt>
      <trkpt lat="46.10321" lon="6.84073">
        <ele>1519</ele>
        <time>2000-01-01T23:48:43.000Z</time>
      </trkpt>
      <trkpt lat="46.10323" lon="6.84084">
        <ele>1514.6</ele>
        <time>2000-01-01T23:48:53.000Z</time>
      </trkpt>
      <trkpt lat="46.10326" lon="6.84092">
        <ele>1513.3</ele>
        <time>2000-01-01T23:49:03.000Z</time>
      </trkpt>
      <trkpt lat="46.10328" lon="6.84097">
        <ele>1512.6</ele>
        <time>2000-01-01T23:49:13.000Z</time>
      </trkpt>
      <trkpt lat="46.10326" lon="6.84098">
        <ele>1511</ele>
        <time>2000-01-01T23:49:23.000Z</time>
      </trkpt>
      <trkpt lat="46.10322" lon="6.84096">
        <ele>1510.1</ele>
        <time>2000-01-01T23:49:33.000Z</time>
      </trkpt>
      <trkpt lat="46.10318" lon="6.84097">
        <ele>1507.9</ele>
        <time>2000-01-01T23:49:43.000Z</time>
      </trkpt>
      <trkpt lat="46.10315" lon="6.84099">
        <ele>1505.9</ele>
        <time>2000-01-01T23:49:53.000Z</time>
      </trkpt>
      <trkpt lat="46.10315" lon="6.84104">
        <ele>1504.3</ele>
        <time>2000-01-01T23:50:03.000Z</time>
      </trkpt>
      <trkpt lat="46.10313" lon="6.84108">
        <ele>1504</ele>
        <time>2000-01-01T23:50:13.000Z</time>
      </trkpt>
      <trkpt lat="46.10313" lon="6.84111">
        <ele>1501.3</ele>
        <time>2000-01-01T23:50:23.000Z</time>
      </trkpt>
      <trkpt lat="46.10317" lon="6.8412">
        <ele>1500.3</ele>
        <time>2000-01-01T23:50:33.000Z</time>
      </trkpt>
      <trkpt lat="46.10321" lon="6.84134">
        <ele>1499</ele>
        <time>2000-01-01T23:50:43.000Z</time>
      </trkpt>
      <trkpt lat="46.10322" lon="6.84151">
        <ele>1492.4</ele>
        <time>2000-01-01T23:50:53.000Z</time>
      </trkpt>
      <trkpt lat="46.10323" lon="6.84158">
        <ele>1490.5</ele>
        <time>2000-01-01T23:51:03.000Z</time>
      </trkpt>
      <trkpt lat="46.10326" lon="6.84164">
        <ele>1489</ele>
        <time>2000-01-01T23:51:13.000Z</time>
      </trkpt>
      <trkpt lat="46.10326" lon="6.84168">
        <ele>1488.2</ele>
        <time>2000-01-01T23:51:23.000Z</time>
      </trkpt>
      <trkpt lat="46.10324" lon="6.84171">
        <ele>1486.5</ele>
        <time>2000-01-01T23:51:33.000Z</time>
      </trkpt>
      <trkpt lat="46.10322" lon="6.84172">
        <ele>1485.4</ele>
        <time>2000-01-01T23:51:43.000Z</time>
      </trkpt>
      <trkpt lat="46.10321" lon="6.84175">
        <ele>1484</ele>
        <time>2000-01-01T23:51:53.000Z</time>
      </trkpt>
      <trkpt lat="46.10326" lon="6.84184">
        <ele>1482.7</ele>
        <time>2000-01-01T23:52:03.000Z</time>
      </trkpt>
      <trkpt lat="46.10327" lon="6.84187">
        <ele>1482</ele>
        <time>2000-01-01T23:52:13.000Z</time>
      </trkpt>
      <trkpt lat="46.10323" lon="6.84188">
        <ele>1480.2</ele>
        <time>2000-01-01T23:52:23.000Z</time>
      </trkpt>
      <trkpt lat="46.10314" lon="6.84187">
        <ele>1477.1</ele>
        <time>2000-01-01T23:52:33.000Z</time>
      </trkpt>
      <trkpt lat="46.10302" lon="6.84183">
        <ele>1474</ele>
        <time>2000-01-01T23:52:43.000Z</time>
      </trkpt>
      <trkpt lat="46.10299" lon="6.84182">
        <ele>1473.5</ele>
        <time>2000-01-01T23:52:53.000Z</time>
      </trkpt>
      <trkpt lat="46.103" lon="6.84188">
        <ele>1471.5</ele>
        <time>2000-01-01T23:53:03.000Z</time>
      </trkpt>
      <trkpt lat="46.10302" lon="6.84198">
        <ele>1468.6</ele>
        <time>2000-01-01T23:53:13.000Z</time>
      </trkpt>
      <trkpt lat="46.10307" lon="6.84209">
        <ele>1466</ele>
        <time>2000-01-01T23:53:23.000Z</time>
      </trkpt>
      <trkpt lat="46.1031" lon="6.84222">
        <ele>1463.7</ele>
        <time>2000-01-01T23:53:33.000Z</time>
      </trkpt>
      <trkpt lat="46.10316" lon="6.84235">
        <ele>1461</ele>
        <time>2000-01-01T23:53:43.000Z</time>
      </trkpt>
      <trkpt lat="46.10319" lon="6.84243">
        <ele>1459.7</ele>
        <time>2000-01-01T23:53:53.000Z</time>
      </trkpt>
      <trkpt lat="46.1032" lon="6.84248">
        <ele>1458.4</ele>
        <time>2000-01-01T23:54:03.000Z</time>
      </trkpt>
      <trkpt lat="46.1032" lon="6.84255">
        <ele>1456.5</ele>
        <time>2000-01-01T23:54:13.000Z</time>
      </trkpt>
      <trkpt lat="46.10321" lon="6.84261">
        <ele>1455</ele>
        <time>2000-01-01T23:54:23.000Z</time>
      </trkpt>
      <trkpt lat="46.10318" lon="6.84264">
        <ele>1453.7</ele>
        <time>2000-01-01T23:54:33.000Z</time>
      </trkpt>
      <trkpt lat="46.10316" lon="6.84266">
        <ele>1452.5</ele>
        <time>2000-01-01T23:54:43.000Z</time>
      </trkpt>
      <trkpt lat="46.10311" lon="6.84283">
        <ele>1447.5</ele>
        <time>2000-01-01T23:54:53.000Z</time>
      </trkpt>
      <trkpt lat="46.10309" lon="6.84292">
        <ele>1441</ele>
        <time>2000-01-01T23:55:03.000Z</time>
      </trkpt>
      <trkpt lat="46.10307" lon="6.84298">
        <ele>1445</ele>
        <time>2000-01-01T23:55:13.000Z</time>
      </trkpt>
      <trkpt lat="46.10304" lon="6.84307">
        <ele>1443</ele>
        <time>2000-01-01T23:55:23.000Z</time>
      </trkpt>
      <trkpt lat="46.10302" lon="6.84313">
        <ele>1441.2</ele>
        <time>2000-01-01T23:55:33.000Z</time>
      </trkpt>
      <trkpt lat="46.10303" lon="6.84317">
        <ele>1440</ele>
        <time>2000-01-01T23:55:43.000Z</time>
      </trkpt>
      <trkpt lat="46.10302" lon="6.8432">
        <ele>1440.3</ele>
        <time>2000-01-01T23:55:53.000Z</time>
      </trkpt>
      <trkpt lat="46.10299" lon="6.84321">
        <ele>1438.7</ele>
        <time>2000-01-01T23:56:03.000Z</time>
      </trkpt>
      <trkpt lat="46.10298" lon="6.84324">
        <ele>1437.9</ele>
        <time>2000-01-01T23:56:13.000Z</time>
      </trkpt>
      <trkpt lat="46.10297" lon="6.84329">
        <ele>1436.8</ele>
        <time>2000-01-01T23:56:23.000Z</time>
      </trkpt>
      <trkpt lat="46.10296" lon="6.84335">
        <ele>1435.5</ele>
        <time>2000-01-01T23:56:33.000Z</time>
      </trkpt>
      <trkpt lat="46.10292" lon="6.84336">
        <ele>1435</ele>
        <time>2000-01-01T23:56:43.000Z</time>
      </trkpt>
      <trkpt lat="46.10289" lon="6.84337">
        <ele>1432.2</ele>
        <time>2000-01-01T23:56:53.000Z</time>
      </trkpt>
      <trkpt lat="46.10288" lon="6.8434">
        <ele>1431.3</ele>
        <time>2000-01-01T23:57:03.000Z</time>
      </trkpt>
      <trkpt lat="46.10287" lon="6.84345">
        <ele>1430.2</ele>
        <time>2000-01-01T23:57:13.000Z</time>
      </trkpt>
      <trkpt lat="46.10283" lon="6.8435">
        <ele>1428</ele>
        <time>2000-01-01T23:57:23.000Z</time>
      </trkpt>
      <trkpt lat="46.10281" lon="6.84355">
        <ele>1426.7</ele>
        <time>2000-01-01T23:57:33.000Z</time>
      </trkpt>
      <trkpt lat="46.1028" lon="6.84363">
        <ele>1426</ele>
        <time>2000-01-01T23:57:43.000Z</time>
      </trkpt>
      <trkpt lat="46.10281" lon="6.84366">
        <ele>1425</ele>
        <time>2000-01-01T23:57:53.000Z</time>
      </trkpt>
      <trkpt lat="46.10278" lon="6.8437">
        <ele>1423.5</ele>
        <time>2000-01-01T23:58:03.000Z</time>
      </trkpt>
      <trkpt lat="46.10272" lon="6.84369">
        <ele>1421.1</ele>
        <time>2000-01-01T23:58:13.000Z</time>
      </trkpt>
      <trkpt lat="46.10268" lon="6.84367">
        <ele>1419.7</ele>
        <time>2000-01-01T23:58:23.000Z</time>
      </trkpt>
      <trkpt lat="46.10264" lon="6.84367">
        <ele>1416</ele>
        <time>2000-01-01T23:58:33.000Z</time>
      </trkpt>
      <trkpt lat="46.10258" lon="6.84368">
        <ele>1415.2</ele>
        <time>2000-01-01T23:58:43.000Z</time>
      </trkpt>
      <trkpt lat="46.1025" lon="6.84373">
        <ele>1411.6</ele>
        <time>2000-01-01T23:58:53.000Z</time>
      </trkpt>
      <trkpt lat="46.10244" lon="6.84378">
        <ele>1407</ele>
        <time>2000-01-01T23:59:03.000Z</time>
      </trkpt>
      <trkpt lat="46.10241" lon="6.84387">
        <ele>1407.8</ele>
        <time>2000-01-01T23:59:13.000Z</time>
      </trkpt>
      <trkpt lat="46.10239" lon="6.84403">
        <ele>1406.1</ele>
        <time>2000-01-01T23:59:23.000Z</time>
      </trkpt>
      <trkpt lat="46.10233" lon="6.84417">
        <ele>1403</ele>
        <time>2000-01-01T23:59:33.000Z</time>
      </trkpt>
      <trkpt lat="46.1023" lon="6.84434">
        <ele>1401.6</ele>
        <time>2000-01-01T23:59:43.000Z</time>
      </trkpt>
      <trkpt lat="46.10228" lon="6.84443">
        <ele>1400.7</ele>
        <time>2000-01-01T23:59:53.000Z</time>
      </trkpt>
      <trkpt lat="46.10224" lon="6.84446">
        <ele>1399</ele>
        <time>2000-01-02T00:00:03.000Z</time>
      </trkpt>
      <trkpt lat="46.10219" lon="6.8445">
        <ele>1398.2</ele>
        <time>2000-01-02T00:00:13.000Z</time>
      </trkpt>
      <trkpt lat="46.10218" lon="6.84456">
        <ele>1397.3</ele>
        <time>2000-01-02T00:00:23.000Z</time>
      </trkpt>
      <trkpt lat="46.10214" lon="6.8446">
        <ele>1395.7</ele>
        <time>2000-01-02T00:00:33.000Z</time>
      </trkpt>
      <trkpt lat="46.10211" lon="6.84473">
        <ele>1395</ele>
        <time>2000-01-02T00:00:43.000Z</time>
      </trkpt>
      <trkpt lat="46.10209" lon="6.84485">
        <ele>1392.7</ele>
        <time>2000-01-02T00:00:53.000Z</time>
      </trkpt>
      <trkpt lat="46.1021" lon="6.84492">
        <ele>1392.3</ele>
        <time>2000-01-02T00:01:03.000Z</time>
      </trkpt>
      <trkpt lat="46.10208" lon="6.84497">
        <ele>1391.7</ele>
        <time>2000-01-02T00:01:13.000Z</time>
      </trkpt>
      <trkpt lat="46.10206" lon="6.845">
        <ele>1391</ele>
        <time>2000-01-02T00:01:23.000Z</time>
      </trkpt>
      <trkpt lat="46.10202" lon="6.84499">
        <ele>1390.9</ele>
        <time>2000-01-02T00:01:33.000Z</time>
      </trkpt>
      <trkpt lat="46.10197" lon="6.84498">
        <ele>1390.3</ele>
        <time>2000-01-02T00:01:43.000Z</time>
      </trkpt>
      <trkpt lat="46.10192" lon="6.845">
        <ele>1388.9</ele>
        <time>2000-01-02T00:01:53.000Z</time>
      </trkpt>
      <trkpt lat="46.1019" lon="6.84505">
        <ele>1387.4</ele>
        <time>2000-01-02T00:02:03.000Z</time>
      </trkpt>
      <trkpt lat="46.10188" lon="6.84513">
        <ele>1390</ele>
        <time>2000-01-02T00:02:13.000Z</time>
      </trkpt>
      <trkpt lat="46.10187" lon="6.8452">
        <ele>1384.7</ele>
        <time>2000-01-02T00:02:23.000Z</time>
      </trkpt>
      <trkpt lat="46.10192" lon="6.84517">
        <ele>1387.1</ele>
        <time>2000-01-02T00:02:33.000Z</time>
      </trkpt>
      <trkpt lat="46.10201" lon="6.84522">
        <ele>1389</ele>
        <time>2000-01-02T00:02:43.000Z</time>
      </trkpt>
      <trkpt lat="46.10213" lon="6.84529">
        <ele>1387.4</ele>
        <time>2000-01-02T00:02:53.000Z</time>
      </trkpt>
      <trkpt lat="46.10221" lon="6.84529">
        <ele>1389</ele>
        <time>2000-01-02T00:03:03.000Z</time>
      </trkpt>
      <trkpt lat="46.1023" lon="6.84524">
        <ele>1389</ele>
        <time>2000-01-02T00:03:13.000Z</time>
      </trkpt>
      <trkpt lat="46.10236" lon="6.84523">
        <ele>1389.4</ele>
        <time>2000-01-02T00:03:23.000Z</time>
      </trkpt>
      <trkpt lat="46.10242" lon="6.84525">
        <ele>1388</ele>
        <time>2000-01-02T00:03:33.000Z</time>
      </trkpt>
      <trkpt lat="46.10246" lon="6.8453">
        <ele>1388.4</ele>
        <time>2000-01-02T00:03:43.000Z</time>
      </trkpt>
      <trkpt lat="46.10249" lon="6.84534">
        <ele>1387.8</ele>
        <time>2000-01-02T00:03:53.000Z</time>
      </trkpt>
      <trkpt lat="46.10258" lon="6.84537">
        <ele>1386.7</ele>
        <time>2000-01-02T00:04:03.000Z</time>
      </trkpt>
      <trkpt lat="46.10262" lon="6.84544">
        <ele>1388</ele>
        <time>2000-01-02T00:04:13.000Z</time>
      </trkpt>
      <trkpt lat="46.10265" lon="6.84547">
        <ele>1384.7</ele>
        <time>2000-01-02T00:04:23.000Z</time>
      </trkpt>
      <trkpt lat="46.1027" lon="6.84546">
        <ele>1384.5</ele>
        <time>2000-01-02T00:04:33.000Z</time>
      </trkpt>
      <trkpt lat="46.10276" lon="6.84532">
        <ele>1388</ele>
        <time>2000-01-02T00:04:43.000Z</time>
      </trkpt>
      <trkpt lat="46.10287" lon="6.84508">
        <ele>1386</ele>
        <time>2000-01-02T00:04:53.000Z</time>
      </trkpt>
      <trkpt lat="46.10293" lon="6.845">
        <ele>1387.6</ele>
        <time>2000-01-02T00:05:03.000Z</time>
      </trkpt>
      <trkpt lat="46.10302" lon="6.84495">
        <ele>1387.1</ele>
        <time>2000-01-02T00:05:13.000Z</time>
      </trkpt>
      <trkpt lat="46.10313" lon="6.8449">
        <ele>1385</ele>
        <time>2000-01-02T00:05:23.000Z</time>
      </trkpt>
      <trkpt lat="46.10319" lon="6.84484">
        <ele>1384.6</ele>
        <time>2000-01-02T00:05:33.000Z</time>
      </trkpt>
      <trkpt lat="46.10326" lon="6.84478">
        <ele>1382.8</ele>
        <time>2000-01-02T00:05:43.000Z</time>
      </trkpt>
      <trkpt lat="46.10333" lon="6.84472">
        <ele>1382</ele>
        <time>2000-01-02T00:05:53.000Z</time>
      </trkpt>
      <trkpt lat="46.10339" lon="6.84471">
        <ele>1382.8</ele>
        <time>2000-01-02T00:06:03.000Z</time>
      </trkpt>
      <trkpt lat="46.10341" lon="6.84476">
        <ele>1382.6</ele>
        <time>2000-01-02T00:06:13.000Z</time>
      </trkpt>
      <trkpt lat="46.10347" lon="6.84484">
        <ele>1383.8</ele>
        <time>2000-01-02T00:06:23.000Z</time>
      </trkpt>
      <trkpt lat="46.10346" lon="6.84491">
        <ele>1379</ele>
        <time>2000-01-02T00:06:33.000Z</time>
      </trkpt>
      <trkpt lat="46.10342" lon="6.84501">
        <ele>1378.6</ele>
        <time>2000-01-02T00:06:43.000Z</time>
      </trkpt>
      <trkpt lat="46.1034" lon="6.84512">
        <ele>1376.3</ele>
        <time>2000-01-02T00:06:53.000Z</time>
      </trkpt>
      <trkpt lat="46.10338" lon="6.8453">
        <ele>1375</ele>
        <time>2000-01-02T00:07:03.000Z</time>
      </trkpt>
      <trkpt lat="46.10338" lon="6.8454">
        <ele>1372.4</ele>
        <time>2000-01-02T00:07:13.000Z</time>
      </trkpt>
      <trkpt lat="46.10342" lon="6.84547">
        <ele>1372.8</ele>
        <time>2000-01-02T00:07:23.000Z</time>
      </trkpt>
      <trkpt lat="46.10347" lon="6.84553">
        <ele>1372</ele>
        <time>2000-01-02T00:07:33.000Z</time>
      </trkpt>
      <trkpt lat="46.10347" lon="6.84559">
        <ele>1372.5</ele>
        <time>2000-01-02T00:07:43.000Z</time>
      </trkpt>
      <trkpt lat="46.10348" lon="6.84569">
        <ele>1371.2</ele>
        <time>2000-01-02T00:07:53.000Z</time>
      </trkpt>
      <trkpt lat="46.10354" lon="6.84585">
        <ele>1370</ele>
        <time>2000-01-02T00:08:03.000Z</time>
      </trkpt>
      <trkpt lat="46.10355" lon="6.84596">
        <ele>1368.7</ele>
        <time>2000-01-02T00:08:13.000Z</time>
      </trkpt>
      <trkpt lat="46.10359" lon="6.84608">
        <ele>1367.3</ele>
        <time>2000-01-02T00:08:23.000Z</time>
      </trkpt>
      <trkpt lat="46.10361" lon="6.84615">
        <ele>1367</ele>
        <time>2000-01-02T00:08:33.000Z</time>
      </trkpt>
      <trkpt lat="46.10362" lon="6.84627">
        <ele>1364.8</ele>
        <time>2000-01-02T00:08:43.000Z</time>
      </trkpt>
      <trkpt lat="46.10366" lon="6.84633">
        <ele>1364.1</ele>
        <time>2000-01-02T00:08:53.000Z</time>
      </trkpt>
      <trkpt lat="46.10372" lon="6.8464">
        <ele>1363</ele>
        <time>2000-01-02T00:09:03.000Z</time>
      </trkpt>
      <trkpt lat="46.10375" lon="6.84649">
        <ele>1361.9</ele>
        <time>2000-01-02T00:09:13.000Z</time>
      </trkpt>
      <trkpt lat="46.10379" lon="6.84656">
        <ele>1361</ele>
        <time>2000-01-02T00:09:23.000Z</time>
      </trkpt>
      <trkpt lat="46.10378" lon="6.84662">
        <ele>1360</ele>
        <time>2000-01-02T00:09:33.000Z</time>
      </trkpt>
      <trkpt lat="46.10382" lon="6.84673">
        <ele>1359</ele>
        <time>2000-01-02T00:09:43.000Z</time>
      </trkpt>
      <trkpt lat="46.10384" lon="6.84687">
        <ele>1356.9</ele>
        <time>2000-01-02T00:09:53.000Z</time>
      </trkpt>
      <trkpt lat="46.10384" lon="6.84699">
        <ele>1354.9</ele>
        <time>2000-01-02T00:10:03.000Z</time>
      </trkpt>
      <trkpt lat="46.10387" lon="6.84708">
        <ele>1355</ele>
        <time>2000-01-02T00:10:13.000Z</time>
      </trkpt>
      <trkpt lat="46.10388" lon="6.84719">
        <ele>1351.5</ele>
        <time>2000-01-02T00:10:23.000Z</time>
      </trkpt>
      <trkpt lat="46.10392" lon="6.84727">
        <ele>1349.9</ele>
        <time>2000-01-02T00:10:33.000Z</time>
      </trkpt>
      <trkpt lat="46.10399" lon="6.84735">
        <ele>1349</ele>
        <time>2000-01-02T00:10:43.000Z</time>
      </trkpt>
      <trkpt lat="46.10407" lon="6.84737">
        <ele>1348.3</ele>
        <time>2000-01-02T00:10:53.000Z</time>
      </trkpt>
      <trkpt lat="46.10413" lon="6.8474">
        <ele>1347.9</ele>
        <time>2000-01-02T00:11:03.000Z</time>
      </trkpt>
      <trkpt lat="46.10421" lon="6.84744">
        <ele>1348</ele>
        <time>2000-01-02T00:11:13.000Z</time>
      </trkpt>
      <trkpt lat="46.10429" lon="6.84743">
        <ele>1348.3</ele>
        <time>2000-01-02T00:11:23.000Z</time>
      </trkpt>
      <trkpt lat="46.10433" lon="6.84744">
        <ele>1348.4</ele>
        <time>2000-01-02T00:11:33.000Z</time>
      </trkpt>
      <trkpt lat="46.10435" lon="6.84748">
        <ele>1348.2</ele>
        <time>2000-01-02T00:11:43.000Z</time>
      </trkpt>
      <trkpt lat="46.10435" lon="6.84762">
        <ele>1346</ele>
        <time>2000-01-02T00:11:53.000Z</time>
      </trkpt>
      <trkpt lat="46.10432" lon="6.84773">
        <ele>1346.9</ele>
        <time>2000-01-02T00:12:03.000Z</time>
      </trkpt>
      <trkpt lat="46.10432" lon="6.84781">
        <ele>1346.4</ele>
        <time>2000-01-02T00:12:13.000Z</time>
      </trkpt>
      <trkpt lat="46.10436" lon="6.84787">
        <ele>1350</ele>
        <time>2000-01-02T00:12:23.000Z</time>
      </trkpt>
      <trkpt lat="46.10444" lon="6.84795">
        <ele>1351.5</ele>
        <time>2000-01-02T00:12:33.000Z</time>
      </trkpt>
      <trkpt lat="46.10456" lon="6.84804">
        <ele>1354</ele>
        <time>2000-01-02T00:12:43.000Z</time>
      </trkpt>
      <trkpt lat="46.10467" lon="6.84819">
        <ele>1360.3</ele>
        <time>2000-01-02T00:12:53.000Z</time>
      </trkpt>
      <trkpt lat="46.10476" lon="6.84836">
        <ele>1360</ele>
        <time>2000-01-02T00:13:03.000Z</time>
      </trkpt>
      <trkpt lat="46.10491" lon="6.8488">
        <ele>1357</ele>
        <time>2000-01-02T00:13:13.000Z</time>
      </trkpt>
      <trkpt lat="46.10505" lon="6.84915">
        <ele>1358</ele>
        <time>2000-01-02T00:13:23.000Z</time>
      </trkpt>
      <trkpt lat="46.10523" lon="6.84961">
        <ele>1360</ele>
        <time>2000-01-02T00:13:33.000Z</time>
      </trkpt>
      <trkpt lat="46.10538" lon="6.84999">
        <ele>1362</ele>
        <time>2000-01-02T00:13:43.000Z</time>
      </trkpt>
      <trkpt lat="46.10553" lon="6.85039">
        <ele>1366</ele>
        <time>2000-01-02T00:13:53.000Z</time>
      </trkpt>
      <trkpt lat="46.1056" lon="6.85063">
        <ele>1365.9</ele>
        <time>2000-01-02T00:14:03.000Z</time>
      </trkpt>
      <trkpt lat="46.10571" lon="6.85098">
        <ele>1368</ele>
        <time>2000-01-02T00:14:13.000Z</time>
      </trkpt>
      <trkpt lat="46.10586" lon="6.85145">
        <ele>1368</ele>
        <time>2000-01-02T00:14:23.000Z</time>
      </trkpt>
      <trkpt lat="46.10599" lon="6.85187">
        <ele>1368</ele>
        <time>2000-01-02T00:14:33.000Z</time>
      </trkpt>
      <trkpt lat="46.10603" lon="6.85206">
        <ele>1367.3</ele>
        <time>2000-01-02T00:14:43.000Z</time>
      </trkpt>
      <trkpt lat="46.10606" lon="6.85214">
        <ele>1370</ele>
        <time>2000-01-02T00:14:53.000Z</time>
      </trkpt>
      <trkpt lat="46.10613" lon="6.85218">
        <ele>1369.1</ele>
        <time>2000-01-02T00:15:03.000Z</time>
      </trkpt>
      <trkpt lat="46.10623" lon="6.85225">
        <ele>1371</ele>
        <time>2000-01-02T00:15:13.000Z</time>
      </trkpt>
      <trkpt lat="46.10635" lon="6.85247">
        <ele>1372</ele>
        <time>2000-01-02T00:15:23.000Z</time>
      </trkpt>
      <trkpt lat="46.10638" lon="6.85252">
        <ele>1375.1</ele>
        <time>2000-01-02T00:15:33.000Z</time>
      </trkpt>
      <trkpt lat="46.10643" lon="6.85263">
        <ele>1375.5</ele>
        <time>2000-01-02T00:15:43.000Z</time>
      </trkpt>
      <trkpt lat="46.10653" lon="6.85281">
        <ele>1376</ele>
        <time>2000-01-02T00:15:53.000Z</time>
      </trkpt>
      <trkpt lat="46.10663" lon="6.85292">
        <ele>1379.4</ele>
        <time>2000-01-02T00:16:03.000Z</time>
      </trkpt>
      <trkpt lat="46.10674" lon="6.85308">
        <ele>1379</ele>
        <time>2000-01-02T00:16:13.000Z</time>
      </trkpt>
      <trkpt lat="46.10687" lon="6.85329">
        <ele>1379</ele>
        <time>2000-01-02T00:16:23.000Z</time>
      </trkpt>
      <trkpt lat="46.10699" lon="6.85343">
        <ele>1379.8</ele>
        <time>2000-01-02T00:16:33.000Z</time>
      </trkpt>
      <trkpt lat="46.10709" lon="6.8535">
        <ele>1378</ele>
        <time>2000-01-02T00:16:43.000Z</time>
      </trkpt>
      <trkpt lat="46.10722" lon="6.8536">
        <ele>1378.4</ele>
        <time>2000-01-02T00:16:53.000Z</time>
      </trkpt>
      <trkpt lat="46.10733" lon="6.85362">
        <ele>1378</ele>
        <time>2000-01-02T00:17:03.000Z</time>
      </trkpt>
      <trkpt lat="46.10738" lon="6.85359">
        <ele>1378.8</ele>
        <time>2000-01-02T00:17:13.000Z</time>
      </trkpt>
      <trkpt lat="46.10744" lon="6.85347">
        <ele>1383.9</ele>
        <time>2000-01-02T00:17:23.000Z</time>
      </trkpt>
      <trkpt lat="46.1075" lon="6.8534">
        <ele>1386</ele>
        <time>2000-01-02T00:17:33.000Z</time>
      </trkpt>
      <trkpt lat="46.10754" lon="6.85337">
        <ele>1390</ele>
        <time>2000-01-02T00:17:43.000Z</time>
      </trkpt>
      <trkpt lat="46.10758" lon="6.85334">
        <ele>1392.6</ele>
        <time>2000-01-02T00:17:53.000Z</time>
      </trkpt>
      <trkpt lat="46.1076" lon="6.85332">
        <ele>1394.3</ele>
        <time>2000-01-02T00:18:03.000Z</time>
      </trkpt>
      <trkpt lat="46.10763" lon="6.85334">
        <ele>1394.5</ele>
        <time>2000-01-02T00:18:13.000Z</time>
      </trkpt>
      <trkpt lat="46.10764" lon="6.85339">
        <ele>1392</ele>
        <time>2000-01-02T00:18:23.000Z</time>
      </trkpt>
      <trkpt lat="46.10766" lon="6.85341">
        <ele>1393.4</ele>
        <time>2000-01-02T00:18:33.000Z</time>
      </trkpt>
      <trkpt lat="46.1077" lon="6.85342">
        <ele>1394.8</ele>
        <time>2000-01-02T00:18:43.000Z</time>
      </trkpt>
      <trkpt lat="46.10772" lon="6.85342">
        <ele>1395.7</ele>
        <time>2000-01-02T00:18:53.000Z</time>
      </trkpt>
      <trkpt lat="46.10774" lon="6.85345">
        <ele>1395.8</ele>
        <time>2000-01-02T00:19:03.000Z</time>
      </trkpt>
      <trkpt lat="46.10778" lon="6.85351">
        <ele>1396.4</ele>
        <time>2000-01-02T00:19:13.000Z</time>
      </trkpt>
      <trkpt lat="46.10781" lon="6.85362">
        <ele>1395</ele>
        <time>2000-01-02T00:19:23.000Z</time>
      </trkpt>
      <trkpt lat="46.10786" lon="6.85372">
        <ele>1397.7</ele>
        <time>2000-01-02T00:19:33.000Z</time>
      </trkpt>
      <trkpt lat="46.10793" lon="6.85385">
        <ele>1397</ele>
        <time>2000-01-02T00:19:43.000Z</time>
      </trkpt>
      <trkpt lat="46.10803" lon="6.85398">
        <ele>1403.5</ele>
        <time>2000-01-02T00:19:53.000Z</time>
      </trkpt>
      <trkpt lat="46.10812" lon="6.85412">
        <ele>1403</ele>
        <time>2000-01-02T00:20:03.000Z</time>
      </trkpt>
      <trkpt lat="46.10822" lon="6.85429">
        <ele>1407.4</ele>
        <time>2000-01-02T00:20:13.000Z</time>
      </trkpt>
      <trkpt lat="46.10826" lon="6.85438">
        <ele>1405</ele>
        <time>2000-01-02T00:20:23.000Z</time>
      </trkpt>
      <trkpt lat="46.10829" lon="6.85451">
        <ele>1408.6</ele>
        <time>2000-01-02T00:20:33.000Z</time>
      </trkpt>
      <trkpt lat="46.10833" lon="6.85465">
        <ele>1410</ele>
        <time>2000-01-02T00:20:43.000Z</time>
      </trkpt>
      <trkpt lat="46.10838" lon="6.85481">
        <ele>1414</ele>
        <time>2000-01-02T00:20:53.000Z</time>
      </trkpt>
      <trkpt lat="46.10847" lon="6.85496">
        <ele>1413</ele>
        <time>2000-01-02T00:21:03.000Z</time>
      </trkpt>
      <trkpt lat="46.10855" lon="6.85513">
        <ele>1416.7</ele>
        <time>2000-01-02T00:21:13.000Z</time>
      </trkpt>
      <trkpt lat="46.10863" lon="6.85526">
        <ele>1414</ele>
        <time>2000-01-02T00:21:23.000Z</time>
      </trkpt>
      <trkpt lat="46.10875" lon="6.8554">
        <ele>1417</ele>
        <time>2000-01-02T00:21:33.000Z</time>
      </trkpt>
      <trkpt lat="46.10895" lon="6.85561">
        <ele>1413</ele>
        <time>2000-01-02T00:21:43.000Z</time>
      </trkpt>
      <trkpt lat="46.10898" lon="6.85565">
        <ele>1416.8</ele>
        <time>2000-01-02T00:21:53.000Z</time>
      </trkpt>
      <trkpt lat="46.10904" lon="6.85575">
        <ele>1415.4</ele>
        <time>2000-01-02T00:22:03.000Z</time>
      </trkpt>
      <trkpt lat="46.10908" lon="6.85582">
        <ele>1412</ele>
        <time>2000-01-02T00:22:13.000Z</time>
      </trkpt>
      <trkpt lat="46.10914" lon="6.85589">
        <ele>1413.8</ele>
        <time>2000-01-02T00:22:23.000Z</time>
      </trkpt>
      <trkpt lat="46.10917" lon="6.85596">
        <ele>1412.9</ele>
        <time>2000-01-02T00:22:33.000Z</time>
      </trkpt>
      <trkpt lat="46.10919" lon="6.85611">
        <ele>1409</ele>
        <time>2000-01-02T00:22:43.000Z</time>
      </trkpt>
      <trkpt lat="46.10923" lon="6.85624">
        <ele>1407.6</ele>
        <time>2000-01-02T00:22:53.000Z</time>
      </trkpt>
      <trkpt lat="46.10929" lon="6.85632">
        <ele>1407.6</ele>
        <time>2000-01-02T00:23:03.000Z</time>
      </trkpt>
      <trkpt lat="46.10933" lon="6.85635">
        <ele>1407</ele>
        <time>2000-01-02T00:23:13.000Z</time>
      </trkpt>
      <trkpt lat="46.10935" lon="6.8564">
        <ele>1408.1</ele>
        <time>2000-01-02T00:23:23.000Z</time>
      </trkpt>
      <trkpt lat="46.10939" lon="6.85653">
        <ele>1407.8</ele>
        <time>2000-01-02T00:23:33.000Z</time>
      </trkpt>
      <trkpt lat="46.10942" lon="6.8567">
        <ele>1406</ele>
        <time>2000-01-02T00:23:43.000Z</time>
      </trkpt>
      <trkpt lat="46.10947" lon="6.85687">
        <ele>1405.4</ele>
        <time>2000-01-02T00:23:53.000Z</time>
      </trkpt>
      <trkpt lat="46.10952" lon="6.85704">
        <ele>1404</ele>
        <time>2000-01-02T00:24:03.000Z</time>
      </trkpt>
      <trkpt lat="46.10958" lon="6.85725">
        <ele>1399.2</ele>
        <time>2000-01-02T00:24:13.000Z</time>
      </trkpt>
      <trkpt lat="46.1096" lon="6.85741">
        <ele>1395</ele>
        <time>2000-01-02T00:24:23.000Z</time>
      </trkpt>
      <trkpt lat="46.10966" lon="6.85751">
        <ele>1394.2</ele>
        <time>2000-01-02T00:24:33.000Z</time>
      </trkpt>
      <trkpt lat="46.10969" lon="6.8576">
        <ele>1392.5</ele>
        <time>2000-01-02T00:24:43.000Z</time>
      </trkpt>
      <trkpt lat="46.10975" lon="6.85769">
        <ele>1392</ele>
        <time>2000-01-02T00:24:53.000Z</time>
      </trkpt>
      <trkpt lat="46.10982" lon="6.85777">
        <ele>1389.3</ele>
        <time>2000-01-02T00:25:03.000Z</time>
      </trkpt>
      <trkpt lat="46.10986" lon="6.85781">
        <ele>1388.6</ele>
        <time>2000-01-02T00:25:13.000Z</time>
      </trkpt>
      <trkpt lat="46.1099" lon="6.85788">
        <ele>1388</ele>
        <time>2000-01-02T00:25:23.000Z</time>
      </trkpt>
      <trkpt lat="46.10996" lon="6.85798">
        <ele>1384.7</ele>
        <time>2000-01-02T00:25:33.000Z</time>
      </trkpt>
      <trkpt lat="46.11" lon="6.85799">
        <ele>1384.9</ele>
        <time>2000-01-02T00:25:43.000Z</time>
      </trkpt>
      <trkpt lat="46.11007" lon="6.85804">
        <ele>1384</ele>
        <time>2000-01-02T00:25:53.000Z</time>
      </trkpt>
      <trkpt lat="46.11009" lon="6.8581">
        <ele>1382.9</ele>
        <time>2000-01-02T00:26:03.000Z</time>
      </trkpt>
      <trkpt lat="46.11013" lon="6.85819">
        <ele>1380.7</ele>
        <time>2000-01-02T00:26:13.000Z</time>
      </trkpt>
      <trkpt lat="46.11017" lon="6.85827">
        <ele>1380</ele>
        <time>2000-01-02T00:26:23.000Z</time>
      </trkpt>
      <trkpt lat="46.11022" lon="6.85832">
        <ele>1378.4</ele>
        <time>2000-01-02T00:26:33.000Z</time>
      </trkpt>
      <trkpt lat="46.11028" lon="6.85839">
        <ele>1377.4</ele>
        <time>2000-01-02T00:26:43.000Z</time>
      </trkpt>
      <trkpt lat="46.11032" lon="6.85843">
        <ele>1376</ele>
        <time>2000-01-02T00:26:53.000Z</time>
      </trkpt>
      <trkpt lat="46.11037" lon="6.85853">
        <ele>1373.1</ele>
        <time>2000-01-02T00:27:03.000Z</time>
      </trkpt>
      <trkpt lat="46.11042" lon="6.85858">
        <ele>1371.4</ele>
        <time>2000-01-02T00:27:13.000Z</time>
      </trkpt>
      <trkpt lat="46.11047" lon="6.85859">
        <ele>1374</ele>
        <time>2000-01-02T00:27:23.000Z</time>
      </trkpt>
      <trkpt lat="46.11051" lon="6.85858">
        <ele>1371.2</ele>
        <time>2000-01-02T00:27:33.000Z</time>
      </trkpt>
      <trkpt lat="46.11054" lon="6.85858">
        <ele>1371.1</ele>
        <time>2000-01-02T00:27:43.000Z</time>
      </trkpt>
      <trkpt lat="46.11056" lon="6.85862">
        <ele>1370</ele>
        <time>2000-01-02T00:27:53.000Z</time>
      </trkpt>
      <trkpt lat="46.11061" lon="6.85875">
        <ele>1369</ele>
        <time>2000-01-02T00:28:03.000Z</time>
      </trkpt>
      <trkpt lat="46.11065" lon="6.85887">
        <ele>1369.9</ele>
        <time>2000-01-02T00:28:13.000Z</time>
      </trkpt>
      <trkpt lat="46.11066" lon="6.85892">
        <ele>1369.7</ele>
        <time>2000-01-02T00:28:23.000Z</time>
      </trkpt>
      <trkpt lat="46.11067" lon="6.85901">
        <ele>1369</ele>
        <time>2000-01-02T00:28:33.000Z</time>
      </trkpt>
      <trkpt lat="46.11069" lon="6.85911">
        <ele>1368.9</ele>
        <time>2000-01-02T00:28:43.000Z</time>
      </trkpt>
      <trkpt lat="46.11073" lon="6.85929">
        <ele>1370</ele>
        <time>2000-01-02T00:28:53.000Z</time>
      </trkpt>
      <trkpt lat="46.11074" lon="6.85936">
        <ele>1371.4</ele>
        <time>2000-01-02T00:29:03.000Z</time>
      </trkpt>
      <trkpt lat="46.11073" lon="6.85943">
        <ele>1371</ele>
        <time>2000-01-02T00:29:13.000Z</time>
      </trkpt>
      <trkpt lat="46.11074" lon="6.85951">
        <ele>1371.4</ele>
        <time>2000-01-02T00:29:23.000Z</time>
      </trkpt>
      <trkpt lat="46.11076" lon="6.85967">
        <ele>1372</ele>
        <time>2000-01-02T00:29:33.000Z</time>
      </trkpt>
      <trkpt lat="46.11079" lon="6.85975">
        <ele>1372.8</ele>
        <time>2000-01-02T00:29:43.000Z</time>
      </trkpt>
      <trkpt lat="46.11083" lon="6.8598">
        <ele>1373.9</ele>
        <time>2000-01-02T00:29:53.000Z</time>
      </trkpt>
      <trkpt lat="46.11089" lon="6.85988">
        <ele>1374</ele>
        <time>2000-01-02T00:30:03.000Z</time>
      </trkpt>
      <trkpt lat="46.11096" lon="6.85992">
        <ele>1374.9</ele>
        <time>2000-01-02T00:30:13.000Z</time>
      </trkpt>
      <trkpt lat="46.11102" lon="6.86001">
        <ele>1374.8</ele>
        <time>2000-01-02T00:30:23.000Z</time>
      </trkpt>
      <trkpt lat="46.11105" lon="6.86013">
        <ele>1374</ele>
        <time>2000-01-02T00:30:33.000Z</time>
      </trkpt>
      <trkpt lat="46.11109" lon="6.86031">
        <ele>1368.8</ele>
        <time>2000-01-02T00:30:43.000Z</time>
      </trkpt>
      <trkpt lat="46.11112" lon="6.86044">
        <ele>1366</ele>
        <time>2000-01-02T00:30:53.000Z</time>
      </trkpt>
      <trkpt lat="46.11116" lon="6.86056">
        <ele>1360.5</ele>
        <time>2000-01-02T00:31:03.000Z</time>
      </trkpt>
      <trkpt lat="46.11119" lon="6.86067">
        <ele>1355.4</ele>
        <time>2000-01-02T00:31:13.000Z</time>
      </trkpt>
      <trkpt lat="46.1112" lon="6.86075">
        <ele>1355</ele>
        <time>2000-01-02T00:31:23.000Z</time>
      </trkpt>
      <trkpt lat="46.11122" lon="6.86081">
        <ele>1348.5</ele>
        <time>2000-01-02T00:31:33.000Z</time>
      </trkpt>
      <trkpt lat="46.11124" lon="6.86084">
        <ele>1347.6</ele>
        <time>2000-01-02T00:31:43.000Z</time>
      </trkpt>
      <trkpt lat="46.11127" lon="6.86087">
        <ele>1347.9</ele>
        <time>2000-01-02T00:31:53.000Z</time>
      </trkpt>
      <trkpt lat="46.11133" lon="6.86091">
        <ele>1349.2</ele>
        <time>2000-01-02T00:32:03.000Z</time>
      </trkpt>
      <trkpt lat="46.11137" lon="6.86093">
        <ele>1346</ele>
        <time>2000-01-02T00:32:13.000Z</time>
      </trkpt>
      <trkpt lat="46.11142" lon="6.86097">
        <ele>1352.5</ele>
        <time>2000-01-02T00:32:23.000Z</time>
      </trkpt>
      <trkpt lat="46.11143" lon="6.86101">
        <ele>1353</ele>
        <time>2000-01-02T00:32:33.000Z</time>
      </trkpt>
      <trkpt lat="46.1114" lon="6.86104">
        <ele>1350.6</ele>
        <time>2000-01-02T00:32:43.000Z</time>
      </trkpt>
      <trkpt lat="46.1113" lon="6.86111">
        <ele>1344</ele>
        <time>2000-01-02T00:32:53.000Z</time>
      </trkpt>
      <trkpt lat="46.11127" lon="6.86118">
        <ele>1347.4</ele>
        <time>2000-01-02T00:33:03.000Z</time>
      </trkpt>
      <trkpt lat="46.11123" lon="6.86129">
        <ele>1351.2</ele>
        <time>2000-01-02T00:33:13.000Z</time>
      </trkpt>
      <trkpt lat="46.11119" lon="6.86134">
        <ele>1342</ele>
        <time>2000-01-02T00:33:23.000Z</time>
      </trkpt>
      <trkpt lat="46.11113" lon="6.86136">
        <ele>1348.1</ele>
        <time>2000-01-02T00:33:33.000Z</time>
      </trkpt>
      <trkpt lat="46.11105" lon="6.86136">
        <ele>1343.2</ele>
        <time>2000-01-02T00:33:43.000Z</time>
      </trkpt>
      <trkpt lat="46.11097" lon="6.86136">
        <ele>1331</ele>
        <time>2000-01-02T00:33:53.000Z</time>
      </trkpt>
      <trkpt lat="46.11088" lon="6.86134">
        <ele>1333.1</ele>
        <time>2000-01-02T00:34:03.000Z</time>
      </trkpt>
      <trkpt lat="46.1108" lon="6.86137">
        <ele>1328.2</ele>
        <time>2000-01-02T00:34:13.000Z</time>
      </trkpt>
      <trkpt lat="46.11072" lon="6.86146">
        <ele>1322</ele>
        <time>2000-01-02T00:34:23.000Z</time>
      </trkpt>
      <trkpt lat="46.11067" lon="6.86155">
        <ele>1318.8</ele>
        <time>2000-01-02T00:34:33.000Z</time>
      </trkpt>
      <trkpt lat="46.11064" lon="6.86167">
        <ele>1316.1</ele>
        <time>2000-01-02T00:34:43.000Z</time>
      </trkpt>
      <trkpt lat="46.11062" lon="6.86183">
        <ele>1308</ele>
        <time>2000-01-02T00:34:53.000Z</time>
      </trkpt>
      <trkpt lat="46.1106" lon="6.86197">
        <ele>1305.9</ele>
        <time>2000-01-02T00:35:03.000Z</time>
      </trkpt>
      <trkpt lat="46.11059" lon="6.86214">
        <ele>1306</ele>
        <time>2000-01-02T00:35:13.000Z</time>
      </trkpt>
      <trkpt lat="46.11059" lon="6.86227">
        <ele>1292.6</ele>
        <time>2000-01-02T00:35:23.000Z</time>
      </trkpt>
      <trkpt lat="46.11062" lon="6.86232">
        <ele>1293.7</ele>
        <time>2000-01-02T00:35:33.000Z</time>
      </trkpt>
      <trkpt lat="46.1107" lon="6.86237">
        <ele>1304</ele>
        <time>2000-01-02T00:35:43.000Z</time>
      </trkpt>
      <trkpt lat="46.11076" lon="6.86245">
        <ele>1303.8</ele>
        <time>2000-01-02T00:35:53.000Z</time>
      </trkpt>
      <trkpt lat="46.11079" lon="6.86253">
        <ele>1304.1</ele>
        <time>2000-01-02T00:36:03.000Z</time>
      </trkpt>
      <trkpt lat="46.11078" lon="6.8626">
        <ele>1297</ele>
        <time>2000-01-02T00:36:13.000Z</time>
      </trkpt>
      <trkpt lat="46.11076" lon="6.86263">
        <ele>1297.7</ele>
        <time>2000-01-02T00:36:23.000Z</time>
      </trkpt>
      <trkpt lat="46.1107" lon="6.86264">
        <ele>1290.4</ele>
        <time>2000-01-02T00:36:33.000Z</time>
      </trkpt>
      <trkpt lat="46.11066" lon="6.86265">
        <ele>1285.4</ele>
        <time>2000-01-02T00:36:43.000Z</time>
      </trkpt>
      <trkpt lat="46.11064" lon="6.86269">
        <ele>1281.8</ele>
        <time>2000-01-02T00:36:53.000Z</time>
      </trkpt>
      <trkpt lat="46.11064" lon="6.86273">
        <ele>1274</ele>
        <time>2000-01-02T00:37:03.000Z</time>
      </trkpt>
      <trkpt lat="46.11063" lon="6.86281">
        <ele>1277.5</ele>
        <time>2000-01-02T00:37:13.000Z</time>
      </trkpt>
      <trkpt lat="46.11062" lon="6.86289">
        <ele>1275.5</ele>
        <time>2000-01-02T00:37:23.000Z</time>
      </trkpt>
      <trkpt lat="46.1106" lon="6.86297">
        <ele>1272.3</ele>
        <time>2000-01-02T00:37:33.000Z</time>
      </trkpt>
      <trkpt lat="46.1106" lon="6.86303">
        <ele>1269</ele>
        <time>2000-01-02T00:37:43.000Z</time>
      </trkpt>
      <trkpt lat="46.11063" lon="6.86314">
        <ele>1274.8</ele>
        <time>2000-01-02T00:37:53.000Z</time>
      </trkpt>
      <trkpt lat="46.11064" lon="6.86323">
        <ele>1275.7</ele>
        <time>2000-01-02T00:38:03.000Z</time>
      </trkpt>
      <trkpt lat="46.11066" lon="6.86328">
        <ele>1278</ele>
        <time>2000-01-02T00:38:13.000Z</time>
      </trkpt>
      <trkpt lat="46.11066" lon="6.86334">
        <ele>1267</ele>
        <time>2000-01-02T00:38:23.000Z</time>
      </trkpt>
      <trkpt lat="46.11064" lon="6.8634">
        <ele>1274.9</ele>
        <time>2000-01-02T00:38:33.000Z</time>
      </trkpt>
      <trkpt lat="46.11064" lon="6.86345">
        <ele>1274.5</ele>
        <time>2000-01-02T00:38:43.000Z</time>
      </trkpt>
      <trkpt lat="46.11067" lon="6.86353">
        <ele>1277.6</ele>
        <time>2000-01-02T00:38:53.000Z</time>
      </trkpt>
      <trkpt lat="46.11067" lon="6.86361">
        <ele>1266</ele>
        <time>2000-01-02T00:39:03.000Z</time>
      </trkpt>
      <trkpt lat="46.11065" lon="6.86373">
        <ele>1273.1</ele>
        <time>2000-01-02T00:39:13.000Z</time>
      </trkpt>
      <trkpt lat="46.11063" lon="6.86387">
        <ele>1269.2</ele>
        <time>2000-01-02T00:39:23.000Z</time>
      </trkpt>
      <trkpt lat="46.11062" lon="6.86395">
        <ele>1263</ele>
        <time>2000-01-02T00:39:33.000Z</time>
      </trkpt>
      <trkpt lat="46.11061" lon="6.86401">
        <ele>1265.7</ele>
        <time>2000-01-02T00:39:43.000Z</time>
      </trkpt>
      <trkpt lat="46.1106" lon="6.86407">
        <ele>1264.1</ele>
        <time>2000-01-02T00:39:53.000Z</time>
      </trkpt>
      <trkpt lat="46.11058" lon="6.86409">
        <ele>1261.9</ele>
        <time>2000-01-02T00:40:03.000Z</time>
      </trkpt>
      <trkpt lat="46.11055" lon="6.86405">
        <ele>1259.5</ele>
        <time>2000-01-02T00:40:13.000Z</time>
      </trkpt>
      <trkpt lat="46.11052" lon="6.86398">
        <ele>1256</ele>
        <time>2000-01-02T00:40:23.000Z</time>
      </trkpt>
      <trkpt lat="46.11046" lon="6.86386">
        <ele>1254.6</ele>
        <time>2000-01-02T00:40:33.000Z</time>
      </trkpt>
      <trkpt lat="46.11043" lon="6.86374">
        <ele>1250</ele>
        <time>2000-01-02T00:40:43.000Z</time>
      </trkpt>
      <trkpt lat="46.11042" lon="6.86362">
        <ele>1252.7</ele>
        <time>2000-01-02T00:40:53.000Z</time>
      </trkpt>
      <trkpt lat="46.11041" lon="6.86354">
        <ele>1252.2</ele>
        <time>2000-01-02T00:41:03.000Z</time>
      </trkpt>
      <trkpt lat="46.11038" lon="6.86342">
        <ele>1242</ele>
        <time>2000-01-02T00:41:13.000Z</time>
      </trkpt>
      <trkpt lat="46.11033" lon="6.86327">
        <ele>1246.4</ele>
        <time>2000-01-02T00:41:23.000Z</time>
      </trkpt>
      <trkpt lat="46.11026" lon="6.86317">
        <ele>1237</ele>
        <time>2000-01-02T00:41:33.000Z</time>
      </trkpt>
      <trkpt lat="46.11018" lon="6.86305">
        <ele>1237.1</ele>
        <time>2000-01-02T00:41:43.000Z</time>
      </trkpt>
      <trkpt lat="46.11011" lon="6.86296">
        <ele>1232</ele>
        <time>2000-01-02T00:41:53.000Z</time>
      </trkpt>
      <trkpt lat="46.11006" lon="6.86286">
        <ele>1229.9</ele>
        <time>2000-01-02T00:42:03.000Z</time>
      </trkpt>
      <trkpt lat="46.11001" lon="6.86281">
        <ele>1226.8</ele>
        <time>2000-01-02T00:42:13.000Z</time>
      </trkpt>
      <trkpt lat="46.10996" lon="6.86278">
        <ele>1221</ele>
        <time>2000-01-02T00:42:23.000Z</time>
      </trkpt>
      <trkpt lat="46.10992" lon="6.86277">
        <ele>1223</ele>
        <time>2000-01-02T00:42:33.000Z</time>
      </trkpt>
      <trkpt lat="46.10989" lon="6.86275">
        <ele>1221.7</ele>
        <time>2000-01-02T00:42:43.000Z</time>
      </trkpt>
      <trkpt lat="46.10986" lon="6.86277">
        <ele>1220.8</ele>
        <time>2000-01-02T00:42:53.000Z</time>
      </trkpt>
      <trkpt lat="46.10983" lon="6.8628">
        <ele>1219.9</ele>
        <time>2000-01-02T00:43:03.000Z</time>
      </trkpt>
      <trkpt lat="46.1098" lon="6.86282">
        <ele>1218.9</ele>
        <time>2000-01-02T00:43:13.000Z</time>
      </trkpt>
      <trkpt lat="46.10978" lon="6.86288">
        <ele>1214</ele>
        <time>2000-01-02T00:43:23.000Z</time>
      </trkpt>
      <trkpt lat="46.10976" lon="6.8629">
        <ele>1217.5</ele>
        <time>2000-01-02T00:43:33.000Z</time>
      </trkpt>
      <trkpt lat="46.10972" lon="6.86289">
        <ele>1215.9</ele>
        <time>2000-01-02T00:43:43.000Z</time>
      </trkpt>
      <trkpt lat="46.10966" lon="6.86277">
        <ele>1213.2</ele>
        <time>2000-01-02T00:43:53.000Z</time>
      </trkpt>
      <trkpt lat="46.1096" lon="6.86267">
        <ele>1208</ele>
        <time>2000-01-02T00:44:03.000Z</time>
      </trkpt>
      <trkpt lat="46.10958" lon="6.86259">
        <ele>1207.2</ele>
        <time>2000-01-02T00:44:13.000Z</time>
      </trkpt>
      <trkpt lat="46.10958" lon="6.86248">
        <ele>1205.6</ele>
        <time>2000-01-02T00:44:23.000Z</time>
      </trkpt>
      <trkpt lat="46.10956" lon="6.86242">
        <ele>1204</ele>
        <time>2000-01-02T00:44:33.000Z</time>
      </trkpt>
      <trkpt lat="46.10951" lon="6.86239">
        <ele>1201</ele>
        <time>2000-01-02T00:44:43.000Z</time>
      </trkpt>
      <trkpt lat="46.10947" lon="6.8624">
        <ele>1201</ele>
        <time>2000-01-02T00:44:53.000Z</time>
      </trkpt>
      <trkpt lat="46.10942" lon="6.86236">
        <ele>1198.6</ele>
        <time>2000-01-02T00:45:03.000Z</time>
      </trkpt>
      <trkpt lat="46.10936" lon="6.86229">
        <ele>1195.6</ele>
        <time>2000-01-02T00:45:13.000Z</time>
      </trkpt>
      <trkpt lat="46.10935" lon="6.86223">
        <ele>1192</ele>
        <time>2000-01-02T00:45:23.000Z</time>
      </trkpt>
      <trkpt lat="46.10931" lon="6.86218">
        <ele>1192.3</ele>
        <time>2000-01-02T00:45:33.000Z</time>
      </trkpt>
      <trkpt lat="46.10928" lon="6.86214">
        <ele>1190.7</ele>
        <time>2000-01-02T00:45:43.000Z</time>
      </trkpt>
      <trkpt lat="46.10925" lon="6.86211">
        <ele>1189.3</ele>
        <time>2000-01-02T00:45:53.000Z</time>
      </trkpt>
      <trkpt lat="46.10924" lon="6.86201">
        <ele>1186</ele>
        <time>2000-01-02T00:46:03.000Z</time>
      </trkpt>
      <trkpt lat="46.10922" lon="6.86194">
        <ele>1185.3</ele>
        <time>2000-01-02T00:46:13.000Z</time>
      </trkpt>
      <trkpt lat="46.10918" lon="6.86193">
        <ele>1184.1</ele>
        <time>2000-01-02T00:46:23.000Z</time>
      </trkpt>
      <trkpt lat="46.10912" lon="6.86191">
        <ele>1182.1</ele>
        <time>2000-01-02T00:46:33.000Z</time>
      </trkpt>
      <trkpt lat="46.10907" lon="6.86188">
        <ele>1177</ele>
        <time>2000-01-02T00:46:43.000Z</time>
      </trkpt>
      <trkpt lat="46.10902" lon="6.86177">
        <ele>1177.3</ele>
        <time>2000-01-02T00:46:53.000Z</time>
      </trkpt>
      <trkpt lat="46.10895" lon="6.8617">
        <ele>1174.7</ele>
        <time>2000-01-02T00:47:03.000Z</time>
      </trkpt>
      <trkpt lat="46.10885" lon="6.86165">
        <ele>1168</ele>
        <time>2000-01-02T00:47:13.000Z</time>
      </trkpt>
      <trkpt lat="46.1088" lon="6.8616">
        <ele>1169</ele>
        <time>2000-01-02T00:47:23.000Z</time>
      </trkpt>
      <trkpt lat="46.1088" lon="6.86155">
        <ele>1168.2</ele>
        <time>2000-01-02T00:47:33.000Z</time>
      </trkpt>
      <trkpt lat="46.10877" lon="6.86151">
        <ele>1166.6</ele>
        <time>2000-01-02T00:47:43.000Z</time>
      </trkpt>
      <trkpt lat="46.10871" lon="6.86149">
        <ele>1162</ele>
        <time>2000-01-02T00:47:53.000Z</time>
      </trkpt>
      <trkpt lat="46.10863" lon="6.86143">
        <ele>1161.1</ele>
        <time>2000-01-02T00:48:03.000Z</time>
      </trkpt>
      <trkpt lat="46.10857" lon="6.86135">
        <ele>1158.4</ele>
        <time>2000-01-02T00:48:13.000Z</time>
      </trkpt>
      <trkpt lat="46.10854" lon="6.86122">
        <ele>1154</ele>
        <time>2000-01-02T00:48:23.000Z</time>
      </trkpt>
      <trkpt lat="46.10852" lon="6.86114">
        <ele>1154.4</ele>
        <time>2000-01-02T00:48:33.000Z</time>
      </trkpt>
      <trkpt lat="46.10849" lon="6.86111">
        <ele>1153.4</ele>
        <time>2000-01-02T00:48:43.000Z</time>
      </trkpt>
      <trkpt lat="46.10846" lon="6.86108">
        <ele>1152.3</ele>
        <time>2000-01-02T00:48:53.000Z</time>
      </trkpt>
      <trkpt lat="46.10845" lon="6.86103">
        <ele>1151.3</ele>
        <time>2000-01-02T00:49:03.000Z</time>
      </trkpt>
      <trkpt lat="46.10841" lon="6.86094">
        <ele>1147</ele>
        <time>2000-01-02T00:49:13.000Z</time>
      </trkpt>
      <trkpt lat="46.10835" lon="6.8609">
        <ele>1146.7</ele>
        <time>2000-01-02T00:49:23.000Z</time>
      </trkpt>
      <trkpt lat="46.1083" lon="6.86083">
        <ele>1144.2</ele>
        <time>2000-01-02T00:49:33.000Z</time>
      </trkpt>
      <trkpt lat="46.10831" lon="6.86074">
        <ele>1141</ele>
        <time>2000-01-02T00:49:43.000Z</time>
      </trkpt>
      <trkpt lat="46.10833" lon="6.86054">
        <ele>1141</ele>
        <time>2000-01-02T00:49:53.000Z</time>
      </trkpt>
      <trkpt lat="46.10832" lon="6.86039">
        <ele>1141</ele>
        <time>2000-01-02T00:50:03.000Z</time>
      </trkpt>
      <trkpt lat="46.10831" lon="6.86033">
        <ele>1141</ele>
        <time>2000-01-02T00:50:13.000Z</time>
      </trkpt>
      <trkpt lat="46.10826" lon="6.86031">
        <ele>1139.3</ele>
        <time>2000-01-02T00:50:23.000Z</time>
      </trkpt>
      <trkpt lat="46.10821" lon="6.86028">
        <ele>1137.6</ele>
        <time>2000-01-02T00:50:33.000Z</time>
      </trkpt>
      <trkpt lat="46.10813" lon="6.86023">
        <ele>1133</ele>
        <time>2000-01-02T00:50:43.000Z</time>
      </trkpt>
      <trkpt lat="46.10805" lon="6.86021">
        <ele>1132.4</ele>
        <time>2000-01-02T00:50:53.000Z</time>
      </trkpt>
      <trkpt lat="46.10798" lon="6.86017">
        <ele>1130.8</ele>
        <time>2000-01-02T00:51:03.000Z</time>
      </trkpt>
      <trkpt lat="46.10789" lon="6.8601">
        <ele>1125</ele>
        <time>2000-01-02T00:51:13.000Z</time>
      </trkpt>
      <trkpt lat="46.10783" lon="6.85999">
        <ele>1126.7</ele>
        <time>2000-01-02T00:51:23.000Z</time>
      </trkpt>
      <trkpt lat="46.10779" lon="6.85995">
        <ele>1125.4</ele>
        <time>2000-01-02T00:51:33.000Z</time>
      </trkpt>
      <trkpt lat="46.10771" lon="6.85991">
        <ele>1122</ele>
        <time>2000-01-02T00:51:43.000Z</time>
      </trkpt>
      <trkpt lat="46.10766" lon="6.85981">
        <ele>1121.5</ele>
        <time>2000-01-02T00:51:53.000Z</time>
      </trkpt>
      <trkpt lat="46.1076" lon="6.85973">
        <ele>1119.3</ele>
        <time>2000-01-02T00:52:03.000Z</time>
      </trkpt>
      <trkpt lat="46.10751" lon="6.85964">
        <ele>1114</ele>
        <time>2000-01-02T00:52:13.000Z</time>
      </trkpt>
      <trkpt lat="46.10745" lon="6.85957">
        <ele>1113.3</ele>
        <time>2000-01-02T00:52:23.000Z</time>
      </trkpt>
      <trkpt lat="46.10741" lon="6.85956">
        <ele>1112.3</ele>
        <time>2000-01-02T00:52:33.000Z</time>
      </trkpt>
      <trkpt lat="46.10736" lon="6.85952">
        <ele>1110.8</ele>
        <time>2000-01-02T00:52:43.000Z</time>
      </trkpt>
      <trkpt lat="46.10732" lon="6.85948">
        <ele>1107</ele>
        <time>2000-01-02T00:52:53.000Z</time>
      </trkpt>
      <trkpt lat="46.10728" lon="6.85947">
        <ele>1108.5</ele>
        <time>2000-01-02T00:53:03.000Z</time>
      </trkpt>
      <trkpt lat="46.10725" lon="6.85943">
        <ele>1107.6</ele>
        <time>2000-01-02T00:53:13.000Z</time>
      </trkpt>
      <trkpt lat="46.10723" lon="6.85938">
        <ele>1106.9</ele>
        <time>2000-01-02T00:53:23.000Z</time>
      </trkpt>
      <trkpt lat="46.10725" lon="6.85933">
        <ele>1107.2</ele>
        <time>2000-01-02T00:53:33.000Z</time>
      </trkpt>
      <trkpt lat="46.10729" lon="6.85928">
        <ele>1105</ele>
        <time>2000-01-02T00:53:43.000Z</time>
      </trkpt>
      <trkpt lat="46.1073" lon="6.85923">
        <ele>1108.1</ele>
        <time>2000-01-02T00:53:53.000Z</time>
      </trkpt>
      <trkpt lat="46.10726" lon="6.85919">
        <ele>1107</ele>
        <time>2000-01-02T00:54:03.000Z</time>
      </trkpt>
      <trkpt lat="46.1072" lon="6.85917">
        <ele>1105.5</ele>
        <time>2000-01-02T00:54:13.000Z</time>
      </trkpt>
      <trkpt lat="46.10717" lon="6.85912">
        <ele>1103</ele>
        <time>2000-01-02T00:54:23.000Z</time>
      </trkpt>
      <trkpt lat="46.10713" lon="6.8591">
        <ele>1104.6</ele>
        <time>2000-01-02T00:54:33.000Z</time>
      </trkpt>
      <trkpt lat="46.10706" lon="6.8591">
        <ele>1102.6</ele>
        <time>2000-01-02T00:54:43.000Z</time>
      </trkpt>
      <trkpt lat="46.107" lon="6.8591">
        <ele>1100.8</ele>
        <time>2000-01-02T00:54:53.000Z</time>
      </trkpt>
      <trkpt lat="46.10693" lon="6.8591">
        <ele>1097</ele>
        <time>2000-01-02T00:55:03.000Z</time>
      </trkpt>
      <trkpt lat="46.10682" lon="6.85908">
        <ele>1096.2</ele>
        <time>2000-01-02T00:55:13.000Z</time>
      </trkpt>
      <trkpt lat="46.10674" lon="6.85908">
        <ele>1093</ele>
        <time>2000-01-02T00:55:23.000Z</time>
      </trkpt>
      <trkpt lat="46.10668" lon="6.85904">
        <ele>1092.8</ele>
        <time>2000-01-02T00:55:33.000Z</time>
      </trkpt>
      <trkpt lat="46.10667" lon="6.859">
        <ele>1092.7</ele>
        <time>2000-01-02T00:55:43.000Z</time>
      </trkpt>
      <trkpt lat="46.10664" lon="6.85898">
        <ele>1092.1</ele>
        <time>2000-01-02T00:55:53.000Z</time>
      </trkpt>
      <trkpt lat="46.10657" lon="6.85897">
        <ele>1089</ele>
        <time>2000-01-02T00:56:03.000Z</time>
      </trkpt>
      <trkpt lat="46.10653" lon="6.85893">
        <ele>1089.8</ele>
        <time>2000-01-02T00:56:13.000Z</time>
      </trkpt>
      <trkpt lat="46.10647" lon="6.85886">
        <ele>1089.3</ele>
        <time>2000-01-02T00:56:23.000Z</time>
      </trkpt>
      <trkpt lat="46.10644" lon="6.85881">
        <ele>1089.6</ele>
        <time>2000-01-02T00:56:33.000Z</time>
      </trkpt>
      <trkpt lat="46.10636" lon="6.85877">
        <ele>1087</ele>
        <time>2000-01-02T00:56:43.000Z</time>
      </trkpt>
      <trkpt lat="46.1063" lon="6.85872">
        <ele>1087.4</ele>
        <time>2000-01-02T00:56:53.000Z</time>
      </trkpt>
      <trkpt lat="46.10625" lon="6.85866">
        <ele>1086.8</ele>
        <time>2000-01-02T00:57:03.000Z</time>
      </trkpt>
      <trkpt lat="46.1062" lon="6.85862">
        <ele>1082</ele>
        <time>2000-01-02T00:57:13.000Z</time>
      </trkpt>
      <trkpt lat="46.10614" lon="6.8586">
        <ele>1084</ele>
        <time>2000-01-02T00:57:23.000Z</time>
      </trkpt>
      <trkpt lat="46.10608" lon="6.85856">
        <ele>1082.7</ele>
        <time>2000-01-02T00:57:33.000Z</time>
      </trkpt>
      <trkpt lat="46.10604" lon="6.85857">
        <ele>1081.6</ele>
        <time>2000-01-02T00:57:43.000Z</time>
      </trkpt>
      <trkpt lat="46.106" lon="6.85861">
        <ele>1079</ele>
        <time>2000-01-02T00:57:53.000Z</time>
      </trkpt>
      <trkpt lat="46.10598" lon="6.85865">
        <ele>1079.4</ele>
        <time>2000-01-02T00:58:03.000Z</time>
      </trkpt>
      <trkpt lat="46.10593" lon="6.85866">
        <ele>1078.1</ele>
        <time>2000-01-02T00:58:13.000Z</time>
      </trkpt>
      <trkpt lat="46.10589" lon="6.85866">
        <ele>1077.2</ele>
        <time>2000-01-02T00:58:23.000Z</time>
      </trkpt>
      <trkpt lat="46.10585" lon="6.85866">
        <ele>1076.2</ele>
        <time>2000-01-02T00:58:33.000Z</time>
      </trkpt>
      <trkpt lat="46.10579" lon="6.85864">
        <ele>1072</ele>
        <time>2000-01-02T00:58:43.000Z</time>
      </trkpt>
      <trkpt lat="46.10574" lon="6.85856">
        <ele>1073.8</ele>
        <time>2000-01-02T00:58:53.000Z</time>
      </trkpt>
      <trkpt lat="46.10569" lon="6.8585">
        <ele>1072.6</ele>
        <time>2000-01-02T00:59:03.000Z</time>
      </trkpt>
      <trkpt lat="46.10565" lon="6.85849">
        <ele>1071.5</ele>
        <time>2000-01-02T00:59:13.000Z</time>
      </trkpt>
      <trkpt lat="46.10562" lon="6.85845">
        <ele>1070</ele>
        <time>2000-01-02T00:59:23.000Z</time>
      </trkpt>
      <trkpt lat="46.10559" lon="6.85841">
        <ele>1070</ele>
        <time>2000-01-02T00:59:33.000Z</time>
      </trkpt>
      <trkpt lat="46.10553" lon="6.85838">
        <ele>1068.4</ele>
        <time>2000-01-02T00:59:43.000Z</time>
      </trkpt>
      <trkpt lat="46.10551" lon="6.85829">
        <ele>1068</ele>
        <time>2000-01-02T00:59:53.000Z</time>
      </trkpt>
      <trkpt lat="46.10547" lon="6.85819">
        <ele>1065</ele>
        <time>2000-01-02T01:00:03.000Z</time>
      </trkpt>
      <trkpt lat="46.10538" lon="6.85807">
        <ele>1064.9</ele>
        <time>2000-01-02T01:00:13.000Z</time>
      </trkpt>
      <trkpt lat="46.10531" lon="6.85793">
        <ele>1062</ele>
        <time>2000-01-02T01:00:23.000Z</time>
      </trkpt>
      <trkpt lat="46.10523" lon="6.85782">
        <ele>1061.2</ele>
        <time>2000-01-02T01:00:33.000Z</time>
      </trkpt>
      <trkpt lat="46.10517" lon="6.85778">
        <ele>1060.1</ele>
        <time>2000-01-02T01:00:43.000Z</time>
      </trkpt>
      <trkpt lat="46.10511" lon="6.8577">
        <ele>1057</ele>
        <time>2000-01-02T01:00:53.000Z</time>
      </trkpt>
      <trkpt lat="46.10508" lon="6.85752">
        <ele>1057.2</ele>
        <time>2000-01-02T01:01:03.000Z</time>
      </trkpt>
      <trkpt lat="46.10507" lon="6.8574">
        <ele>1055</ele>
        <time>2000-01-02T01:01:13.000Z</time>
      </trkpt>
      <trkpt lat="46.10509" lon="6.85727">
        <ele>1056.7</ele>
        <time>2000-01-02T01:01:23.000Z</time>
      </trkpt>
      <trkpt lat="46.10509" lon="6.85711">
        <ele>1055</ele>
        <time>2000-01-02T01:01:33.000Z</time>
      </trkpt>
      <trkpt lat="46.1051" lon="6.85694">
        <ele>1057.9</ele>
        <time>2000-01-02T01:01:43.000Z</time>
      </trkpt>
      <trkpt lat="46.10509" lon="6.85685">
        <ele>1058.3</ele>
        <time>2000-01-02T01:01:53.000Z</time>
      </trkpt>
      <trkpt lat="46.10508" lon="6.85679">
        <ele>1055</ele>
        <time>2000-01-02T01:02:03.000Z</time>
      </trkpt>
      <trkpt lat="46.10507" lon="6.85675">
        <ele>1058.1</ele>
        <time>2000-01-02T01:02:13.000Z</time>
      </trkpt>
      <trkpt lat="46.10503" lon="6.85666">
        <ele>1056.6</ele>
        <time>2000-01-02T01:02:23.000Z</time>
      </trkpt>
      <trkpt lat="46.105" lon="6.85653">
        <ele>1055</ele>
        <time>2000-01-02T01:02:33.000Z</time>
      </trkpt>
      <trkpt lat="46.10493" lon="6.85637">
        <ele>1058.5</ele>
        <time>2000-01-02T01:02:43.000Z</time>
      </trkpt>
      <trkpt lat="46.10489" lon="6.8563">
        <ele>1055</ele>
        <time>2000-01-02T01:02:53.000Z</time>
      </trkpt>
      <trkpt lat="46.10485" lon="6.85624">
        <ele>1058</ele>
        <time>2000-01-02T01:03:03.000Z</time>
      </trkpt>
      <trkpt lat="46.10485" lon="6.85624">
        <ele>1058</ele>
        <time>2000-01-02T01:03:13.000Z</time>
      </trkpt>
      <trkpt lat="46.10481" lon="6.85619">
        <ele>1057.3</ele>
        <time>2000-01-02T01:03:23.000Z</time>
      </trkpt>
      <trkpt lat="46.10473" lon="6.85609">
        <ele>1054</ele>
        <time>2000-01-02T01:03:33.000Z</time>
      </trkpt>
      <trkpt lat="46.10467" lon="6.85598">
        <ele>1054.9</ele>
        <time>2000-01-02T01:03:43.000Z</time>
      </trkpt>
      <trkpt lat="46.10462" lon="6.8559">
        <ele>1054.4</ele>
        <time>2000-01-02T01:03:53.000Z</time>
      </trkpt>
      <trkpt lat="46.10455" lon="6.85582">
        <ele>1053</ele>
        <time>2000-01-02T01:04:03.000Z</time>
      </trkpt>
      <trkpt lat="46.10449" lon="6.85571">
        <ele>1052.9</ele>
        <time>2000-01-02T01:04:13.000Z</time>
      </trkpt>
      <trkpt lat="46.10445" lon="6.85562">
        <ele>1052.7</ele>
        <time>2000-01-02T01:04:23.000Z</time>
      </trkpt>
      <trkpt lat="46.1044" lon="6.85554">
        <ele>1052</ele>
        <time>2000-01-02T01:04:33.000Z</time>
      </trkpt>
      <trkpt lat="46.10432" lon="6.85542">
        <ele>1052.2</ele>
        <time>2000-01-02T01:04:43.000Z</time>
      </trkpt>
      <trkpt lat="46.10426" lon="6.85532">
        <ele>1050</ele>
        <time>2000-01-02T01:04:53.000Z</time>
      </trkpt>
      <trkpt lat="46.10421" lon="6.85527">
        <ele>1050.8</ele>
        <time>2000-01-02T01:05:03.000Z</time>
      </trkpt>
      <trkpt lat="46.10411" lon="6.85521">
        <ele>1049.6</ele>
        <time>2000-01-02T01:05:13.000Z</time>
      </trkpt>
      <trkpt lat="46.10404" lon="6.85514">
        <ele>1048</ele>
        <time>2000-01-02T01:05:23.000Z</time>
      </trkpt>
      <trkpt lat="46.10397" lon="6.85498">
        <ele>1048.3</ele>
        <time>2000-01-02T01:05:33.000Z</time>
      </trkpt>
      <trkpt lat="46.1039" lon="6.8548">
        <ele>1046</ele>
        <time>2000-01-02T01:05:43.000Z</time>
      </trkpt>
      <trkpt lat="46.10386" lon="6.85468">
        <ele>1048</ele>
        <time>2000-01-02T01:05:53.000Z</time>
      </trkpt>
      <trkpt lat="46.1038" lon="6.85458">
        <ele>1047.9</ele>
        <time>2000-01-02T01:06:03.000Z</time>
      </trkpt>
      <trkpt lat="46.10373" lon="6.85451">
        <ele>1046</ele>
        <time>2000-01-02T01:06:13.000Z</time>
      </trkpt>
      <trkpt lat="46.10367" lon="6.85446">
        <ele>1046.8</ele>
        <time>2000-01-02T01:06:23.000Z</time>
      </trkpt>
      <trkpt lat="46.10357" lon="6.85432">
        <ele>1044</ele>
        <time>2000-01-02T01:06:33.000Z</time>
      </trkpt>
      <trkpt lat="46.10345" lon="6.85423">
        <ele>1044.3</ele>
        <time>2000-01-02T01:06:43.000Z</time>
      </trkpt>
      <trkpt lat="46.10339" lon="6.85418">
        <ele>1042</ele>
        <time>2000-01-02T01:06:53.000Z</time>
      </trkpt>
      <trkpt lat="46.10332" lon="6.85407">
        <ele>1043.3</ele>
        <time>2000-01-02T01:07:03.000Z</time>
      </trkpt>
      <trkpt lat="46.10326" lon="6.85385">
        <ele>1042</ele>
        <time>2000-01-02T01:07:13.000Z</time>
      </trkpt>
      <trkpt lat="46.10321" lon="6.85373">
        <ele>1043.1</ele>
        <time>2000-01-02T01:07:23.000Z</time>
      </trkpt>
      <trkpt lat="46.10315" lon="6.85359">
        <ele>1042</ele>
        <time>2000-01-02T01:07:33.000Z</time>
      </trkpt>
      <trkpt lat="46.1031" lon="6.85351">
        <ele>1042.7</ele>
        <time>2000-01-02T01:07:43.000Z</time>
      </trkpt>
      <trkpt lat="46.10305" lon="6.85348">
        <ele>1042.4</ele>
        <time>2000-01-02T01:07:53.000Z</time>
      </trkpt>
      <trkpt lat="46.10296" lon="6.85349">
        <ele>1041</ele>
        <time>2000-01-02T01:08:03.000Z</time>
      </trkpt>
      <trkpt lat="46.10285" lon="6.85349">
        <ele>1040.6</ele>
        <time>2000-01-02T01:08:13.000Z</time>
      </trkpt>
      <trkpt lat="46.10276" lon="6.85347">
        <ele>1039</ele>
        <time>2000-01-02T01:08:23.000Z</time>
      </trkpt>
      <trkpt lat="46.10269" lon="6.85343">
        <ele>1039.7</ele>
        <time>2000-01-02T01:08:33.000Z</time>
      </trkpt>
      <trkpt lat="46.10266" lon="6.85338">
        <ele>1039.6</ele>
        <time>2000-01-02T01:08:43.000Z</time>
      </trkpt>
      <trkpt lat="46.10265" lon="6.85329">
        <ele>1039.6</ele>
        <time>2000-01-02T01:08:53.000Z</time>
      </trkpt>
      <trkpt lat="46.10266" lon="6.85323">
        <ele>1039</ele>
        <time>2000-01-02T01:09:03.000Z</time>
      </trkpt>
      <trkpt lat="46.10267" lon="6.85318">
        <ele>1039.9</ele>
        <time>2000-01-02T01:09:13.000Z</time>
      </trkpt>
      <trkpt lat="46.10265" lon="6.85312">
        <ele>1040</ele>
        <time>2000-01-02T01:09:23.000Z</time>
      </trkpt>
      <trkpt lat="46.10263" lon="6.85299">
        <ele>1040.2</ele>
        <time>2000-01-02T01:09:33.000Z</time>
      </trkpt>
      <trkpt lat="46.10263" lon="6.85286">
        <ele>1039</ele>
        <time>2000-01-02T01:09:43.000Z</time>
      </trkpt>
      <trkpt lat="46.10261" lon="6.85272">
        <ele>1040.7</ele>
        <time>2000-01-02T01:09:53.000Z</time>
      </trkpt>
      <trkpt lat="46.10258" lon="6.85259">
        <ele>1039</ele>
        <time>2000-01-02T01:10:03.000Z</time>
      </trkpt>
      <trkpt lat="46.10256" lon="6.85249">
        <ele>1040.1</ele>
        <time>2000-01-02T01:10:13.000Z</time>
      </trkpt>
      <trkpt lat="46.10252" lon="6.85238">
        <ele>1039.8</ele>
        <time>2000-01-02T01:10:23.000Z</time>
      </trkpt>
      <trkpt lat="46.10249" lon="6.85228">
        <ele>1039</ele>
        <time>2000-01-02T01:10:33.000Z</time>
      </trkpt>
      <trkpt lat="46.10243" lon="6.8522">
        <ele>1039.8</ele>
        <time>2000-01-02T01:10:43.000Z</time>
      </trkpt>
      <trkpt lat="46.10243" lon="6.85216">
        <ele>1039.9</ele>
        <time>2000-01-02T01:10:53.000Z</time>
      </trkpt>
      <trkpt lat="46.10243" lon="6.85209">
        <ele>1040.1</ele>
        <time>2000-01-02T01:11:03.000Z</time>
      </trkpt>
      <trkpt lat="46.10239" lon="6.85202">
        <ele>1039</ele>
        <time>2000-01-02T01:11:13.000Z</time>
      </trkpt>
      <trkpt lat="46.10234" lon="6.85195">
        <ele>1039.8</ele>
        <time>2000-01-02T01:11:23.000Z</time>
      </trkpt>
      <trkpt lat="46.10234" lon="6.85195">
        <ele>1039.8</ele>
        <time>2000-01-02T01:11:33.000Z</time>
      </trkpt>
      <trkpt lat="46.10227" lon="6.85189">
        <ele>1039.3</ele>
        <time>2000-01-02T01:11:43.000Z</time>
      </trkpt>
      <trkpt lat="46.10219" lon="6.85183">
        <ele>1039</ele>
        <time>2000-01-02T01:11:53.000Z</time>
      </trkpt>
      <trkpt lat="46.10213" lon="6.85178">
        <ele>1039.9</ele>
        <time>2000-01-02T01:12:03.000Z</time>
      </trkpt>
      <trkpt lat="46.10206" lon="6.85176">
        <ele>1040.7</ele>
        <time>2000-01-02T01:12:13.000Z</time>
      </trkpt>
      <trkpt lat="46.102" lon="6.85179">
        <ele>1041</ele>
        <time>2000-01-02T01:12:23.000Z</time>
      </trkpt>
      <trkpt lat="46.10194" lon="6.85187">
        <ele>1040.8</ele>
        <time>2000-01-02T01:12:33.000Z</time>
      </trkpt>
      <trkpt lat="46.10187" lon="6.85192">
        <ele>1040.8</ele>
        <time>2000-01-02T01:12:43.000Z</time>
      </trkpt>
      <trkpt lat="46.1018" lon="6.85193">
        <ele>1043</ele>
        <time>2000-01-02T01:12:53.000Z</time>
      </trkpt>
      <trkpt lat="46.10175" lon="6.85193">
        <ele>1041.6</ele>
        <time>2000-01-02T01:13:03.000Z</time>
      </trkpt>
      <trkpt lat="46.10169" lon="6.85193">
        <ele>1042</ele>
        <time>2000-01-02T01:13:13.000Z</time>
      </trkpt>
      <trkpt lat="46.10162" lon="6.85191">
        <ele>1043</ele>
        <time>2000-01-02T01:13:23.000Z</time>
      </trkpt>
      <trkpt lat="46.10158" lon="6.85189">
        <ele>1042.4</ele>
        <time>2000-01-02T01:13:33.000Z</time>
      </trkpt>
      <trkpt lat="46.10154" lon="6.85191">
        <ele>1042</ele>
        <time>2000-01-02T01:13:43.000Z</time>
      </trkpt>
      <trkpt lat="46.1015" lon="6.85192">
        <ele>1041.7</ele>
        <time>2000-01-02T01:13:53.000Z</time>
      </trkpt>
      <trkpt lat="46.10147" lon="6.85192">
        <ele>1041.6</ele>
        <time>2000-01-02T01:14:03.000Z</time>
      </trkpt>
      <trkpt lat="46.10139" lon="6.85194">
        <ele>1040</ele>
        <time>2000-01-02T01:14:13.000Z</time>
      </trkpt>
      <trkpt lat="46.10131" lon="6.85194">
        <ele>1040.5</ele>
        <time>2000-01-02T01:14:23.000Z</time>
      </trkpt>
      <trkpt lat="46.10121" lon="6.8519">
        <ele>1040.1</ele>
        <time>2000-01-02T01:14:33.000Z</time>
      </trkpt>
      <trkpt lat="46.10112" lon="6.85186">
        <ele>1039</ele>
        <time>2000-01-02T01:14:43.000Z</time>
      </trkpt>
      <trkpt lat="46.10106" lon="6.85179">
        <ele>1039.6</ele>
        <time>2000-01-02T01:14:53.000Z</time>
      </trkpt>
      <trkpt lat="46.10098" lon="6.85169">
        <ele>1039</ele>
        <time>2000-01-02T01:15:03.000Z</time>
      </trkpt>
      <trkpt lat="46.10088" lon="6.8516">
        <ele>1038.8</ele>
        <time>2000-01-02T01:15:13.000Z</time>
      </trkpt>
      <trkpt lat="46.10082" lon="6.85155">
        <ele>1038</ele>
        <time>2000-01-02T01:15:23.000Z</time>
      </trkpt>
      <trkpt lat="46.10076" lon="6.85148">
        <ele>1038</ele>
        <time>2000-01-02T01:15:33.000Z</time>
      </trkpt>
      <trkpt lat="46.10067" lon="6.85142">
        <ele>1037.2</ele>
        <time>2000-01-02T01:15:43.000Z</time>
      </trkpt>
      <trkpt lat="46.10056" lon="6.85139">
        <ele>1035</ele>
        <time>2000-01-02T01:15:53.000Z</time>
      </trkpt>
      <trkpt lat="46.1005" lon="6.85136">
        <ele>1035.7</ele>
        <time>2000-01-02T01:16:03.000Z</time>
      </trkpt>
      <trkpt lat="46.10045" lon="6.85132">
        <ele>1035.4</ele>
        <time>2000-01-02T01:16:13.000Z</time>
      </trkpt>
      <trkpt lat="46.1004" lon="6.85121">
        <ele>1034</ele>
        <time>2000-01-02T01:16:23.000Z</time>
      </trkpt>
      <trkpt lat="46.10027" lon="6.85087">
        <ele>1034</ele>
        <time>2000-01-02T01:16:33.000Z</time>
      </trkpt>
      <trkpt lat="46.10022" lon="6.85071">
        <ele>1034.9</ele>
        <time>2000-01-02T01:16:43.000Z</time>
      </trkpt>
      <trkpt lat="46.10019" lon="6.85067">
        <ele>1034.8</ele>
        <time>2000-01-02T01:16:53.000Z</time>
      </trkpt>
      <trkpt lat="46.10014" lon="6.85065">
        <ele>1034</ele>
        <time>2000-01-02T01:17:03.000Z</time>
      </trkpt>
      <trkpt lat="46.10007" lon="6.85064">
        <ele>1033.7</ele>
        <time>2000-01-02T01:17:13.000Z</time>
      </trkpt>
      <trkpt lat="46.10001" lon="6.85061">
        <ele>1033.1</ele>
        <time>2000-01-02T01:17:23.000Z</time>
      </trkpt>
      <trkpt lat="46.09997" lon="6.85055">
        <ele>1032</ele>
        <time>2000-01-02T01:17:33.000Z</time>
      </trkpt>
      <trkpt lat="46.09993" lon="6.85049">
        <ele>1032.9</ele>
        <time>2000-01-02T01:17:43.000Z</time>
      </trkpt>
      <trkpt lat="46.09988" lon="6.85046">
        <ele>1032.8</ele>
        <time>2000-01-02T01:17:53.000Z</time>
      </trkpt>
      <trkpt lat="46.09978" lon="6.85047">
        <ele>1031</ele>
        <time>2000-01-02T01:18:03.000Z</time>
      </trkpt>
      <trkpt lat="46.09971" lon="6.85048">
        <ele>1032</ele>
        <time>2000-01-02T01:18:13.000Z</time>
      </trkpt>
      <trkpt lat="46.09964" lon="6.85048">
        <ele>1031.7</ele>
        <time>2000-01-02T01:18:23.000Z</time>
      </trkpt>
      <trkpt lat="46.09961" lon="6.85044">
        <ele>1031</ele>
        <time>2000-01-02T01:18:33.000Z</time>
      </trkpt>
      <trkpt lat="46.09961" lon="6.85038">
        <ele>1031.6</ele>
        <time>2000-01-02T01:18:43.000Z</time>
      </trkpt>
      <trkpt lat="46.09959" lon="6.85032">
        <ele>1031.5</ele>
        <time>2000-01-02T01:18:53.000Z</time>
      </trkpt>
      <trkpt lat="46.09955" lon="6.8503">
        <ele>1031.4</ele>
        <time>2000-01-02T01:19:03.000Z</time>
      </trkpt>
      <trkpt lat="46.09945" lon="6.8503">
        <ele>1030</ele>
        <time>2000-01-02T01:19:13.000Z</time>
      </trkpt>
      <trkpt lat="46.09935" lon="6.85029">
        <ele>1030.7</ele>
        <time>2000-01-02T01:19:23.000Z</time>
      </trkpt>
      <trkpt lat="46.09929" lon="6.85027">
        <ele>1030.4</ele>
        <time>2000-01-02T01:19:33.000Z</time>
      </trkpt>
      <trkpt lat="46.09921" lon="6.85021">
        <ele>1030</ele>
        <time>2000-01-02T01:19:43.000Z</time>
      </trkpt>
      <trkpt lat="46.09912" lon="6.85012">
        <ele>1029.8</ele>
        <time>2000-01-02T01:19:53.000Z</time>
      </trkpt>
      <trkpt lat="46.09893" lon="6.84992">
        <ele>1029</ele>
        <time>2000-01-02T01:20:03.000Z</time>
      </trkpt>
      <trkpt lat="46.09878" lon="6.84979">
        <ele>1028.6</ele>
        <time>2000-01-02T01:20:13.000Z</time>
      </trkpt>
      <trkpt lat="46.09865" lon="6.8497">
        <ele>1028</ele>
        <time>2000-01-02T01:20:23.000Z</time>
      </trkpt>
      <trkpt lat="46.09851" lon="6.84962">
        <ele>1028.2</ele>
        <time>2000-01-02T01:20:33.000Z</time>
      </trkpt>
      <trkpt lat="46.09833" lon="6.84952">
        <ele>1027</ele>
        <time>2000-01-02T01:20:43.000Z</time>
      </trkpt>
      <trkpt lat="46.09822" lon="6.84943">
        <ele>1027.6</ele>
        <time>2000-01-02T01:20:53.000Z</time>
      </trkpt>
      <trkpt lat="46.09806" lon="6.84929">
        <ele>1027</ele>
        <time>2000-01-02T01:21:03.000Z</time>
      </trkpt>
      <trkpt lat="46.0979" lon="6.84918">
        <ele>1027.4</ele>
        <time>2000-01-02T01:21:13.000Z</time>
      </trkpt>
      <trkpt lat="46.09776" lon="6.84911">
        <ele>1026</ele>
        <time>2000-01-02T01:21:23.000Z</time>
      </trkpt>
      <trkpt lat="46.09765" lon="6.84903">
        <ele>1026.8</ele>
        <time>2000-01-02T01:21:33.000Z</time>
      </trkpt>
      <trkpt lat="46.09755" lon="6.84897">
        <ele>1026</ele>
        <time>2000-01-02T01:21:43.000Z</time>
      </trkpt>
      <trkpt lat="46.09745" lon="6.8489">
        <ele>1026.6</ele>
        <time>2000-01-02T01:21:53.000Z</time>
      </trkpt>
      <trkpt lat="46.09738" lon="6.84886">
        <ele>1026.3</ele>
        <time>2000-01-02T01:22:03.000Z</time>
      </trkpt>
      <trkpt lat="46.09727" lon="6.84879">
        <ele>1026</ele>
        <time>2000-01-02T01:22:13.000Z</time>
      </trkpt>
      <trkpt lat="46.09714" lon="6.84866">
        <ele>1026.1</ele>
        <time>2000-01-02T01:22:23.000Z</time>
      </trkpt>
      <trkpt lat="46.09701" lon="6.84851">
        <ele>1026</ele>
        <time>2000-01-02T01:22:33.000Z</time>
      </trkpt>
      <trkpt lat="46.09687" lon="6.84839">
        <ele>1026.1</ele>
        <time>2000-01-02T01:22:43.000Z</time>
      </trkpt>
      <trkpt lat="46.09678" lon="6.84832">
        <ele>1025</ele>
        <time>2000-01-02T01:22:53.000Z</time>
      </trkpt>
      <trkpt lat="46.09666" lon="6.84827">
        <ele>1025.4</ele>
        <time>2000-01-02T01:23:03.000Z</time>
      </trkpt>
      <trkpt lat="46.09658" lon="6.84822">
        <ele>1025</ele>
        <time>2000-01-02T01:23:13.000Z</time>
      </trkpt>
      <trkpt lat="46.09652" lon="6.84818">
        <ele>1025</ele>
        <time>2000-01-02T01:23:23.000Z</time>
      </trkpt>
      <trkpt lat="46.09643" lon="6.84808">
        <ele>1025.1</ele>
        <time>2000-01-02T01:23:33.000Z</time>
      </trkpt>
      <trkpt lat="46.09636" lon="6.84805">
        <ele>1025</ele>
        <time>2000-01-02T01:23:43.000Z</time>
      </trkpt>
      <trkpt lat="46.0963" lon="6.84803">
        <ele>1024.9</ele>
        <time>2000-01-02T01:23:53.000Z</time>
      </trkpt>
      <trkpt lat="46.09623" lon="6.84799">
        <ele>1024.9</ele>
        <time>2000-01-02T01:24:03.000Z</time>
      </trkpt>
      <trkpt lat="46.09616" lon="6.84791">
        <ele>1024</ele>
        <time>2000-01-02T01:24:13.000Z</time>
      </trkpt>
      <trkpt lat="46.09608" lon="6.8479">
        <ele>1024.8</ele>
        <time>2000-01-02T01:24:23.000Z</time>
      </trkpt>
      <trkpt lat="46.09598" lon="6.84788">
        <ele>1024</ele>
        <time>2000-01-02T01:24:33.000Z</time>
      </trkpt>
      <trkpt lat="46.09592" lon="6.84784">
        <ele>1023</ele>
        <time>2000-01-02T01:24:43.000Z</time>
      </trkpt>
      <trkpt lat="46.0958" lon="6.84774">
        <ele>1023.1</ele>
        <time>2000-01-02T01:24:53.000Z</time>
      </trkpt>
      <trkpt lat="46.09571" lon="6.84767">
        <ele>1022</ele>
        <time>2000-01-02T01:25:03.000Z</time>
      </trkpt>
      <trkpt lat="46.09563" lon="6.84761">
        <ele>1022.6</ele>
        <time>2000-01-02T01:25:13.000Z</time>
      </trkpt>
      <trkpt lat="46.09559" lon="6.84754">
        <ele>1022.3</ele>
        <time>2000-01-02T01:25:23.000Z</time>
      </trkpt>
      <trkpt lat="46.09548" lon="6.84733">
        <ele>1021</ele>
        <time>2000-01-02T01:25:33.000Z</time>
      </trkpt>
      <trkpt lat="46.09536" lon="6.84714">
        <ele>1022.8</ele>
        <time>2000-01-02T01:25:43.000Z</time>
      </trkpt>
      <trkpt lat="46.09529" lon="6.84703">
        <ele>1021</ele>
        <time>2000-01-02T01:25:53.000Z</time>
      </trkpt>
      <trkpt lat="46.09518" lon="6.84682">
        <ele>1022.6</ele>
        <time>2000-01-02T01:26:03.000Z</time>
      </trkpt>
      <trkpt lat="46.0951" lon="6.84663">
        <ele>1021</ele>
        <time>2000-01-02T01:26:13.000Z</time>
      </trkpt>
      <trkpt lat="46.09503" lon="6.8464">
        <ele>1022.3</ele>
        <time>2000-01-02T01:26:23.000Z</time>
      </trkpt>
      <trkpt lat="46.09497" lon="6.84622">
        <ele>1020</ele>
        <time>2000-01-02T01:26:33.000Z</time>
      </trkpt>
      <trkpt lat="46.09491" lon="6.84609">
        <ele>1021.4</ele>
        <time>2000-01-02T01:26:43.000Z</time>
      </trkpt>
      <trkpt lat="46.09485" lon="6.84596">
        <ele>1020</ele>
        <time>2000-01-02T01:26:53.000Z</time>
      </trkpt>
      <trkpt lat="46.09484" lon="6.84594">
        <ele>1021.2</ele>
        <time>2000-01-02T01:27:03.000Z</time>
      </trkpt>
      <trkpt lat="46.09481" lon="6.84595">
        <ele>1021</ele>
        <time>2000-01-02T01:27:13.000Z</time>
      </trkpt>
      <trkpt lat="46.09479" lon="6.84593">
        <ele>1021</ele>
        <time>2000-01-02T01:27:23.000Z</time>
      </trkpt>
      <trkpt lat="46.09478" lon="6.84583">
        <ele>1021.2</ele>
        <time>2000-01-02T01:27:33.000Z</time>
      </trkpt>
      <trkpt lat="46.09477" lon="6.84564">
        <ele>1021</ele>
        <time>2000-01-02T01:27:43.000Z</time>
      </trkpt>
      <trkpt lat="46.09473" lon="6.8456">
        <ele>1021.9</ele>
        <time>2000-01-02T01:27:53.000Z</time>
      </trkpt>
      <trkpt lat="46.09464" lon="6.84548">
        <ele>1022.6</ele>
        <time>2000-01-02T01:28:03.000Z</time>
      </trkpt>
      <trkpt lat="46.09455" lon="6.84537">
        <ele>1024</ele>
        <time>2000-01-02T01:28:13.000Z</time>
      </trkpt>
      <trkpt lat="46.09453" lon="6.84535">
        <ele>1024</ele>
        <time>2000-01-02T01:28:23.000Z</time>
      </trkpt>
      <trkpt lat="46.0944" lon="6.84521">
        <ele>1025.8</ele>
        <time>2000-01-02T01:28:33.000Z</time>
      </trkpt>
      <trkpt lat="46.09431" lon="6.84508">
        <ele>1028</ele>
        <time>2000-01-02T01:28:43.000Z</time>
      </trkpt>
      <trkpt lat="46.09424" lon="6.84495">
        <ele>1028.2</ele>
        <time>2000-01-02T01:28:53.000Z</time>
      </trkpt>
      <trkpt lat="46.09417" lon="6.84489">
        <ele>1027</ele>
        <time>2000-01-02T01:29:03.000Z</time>
      </trkpt>
      <trkpt lat="46.09411" lon="6.84484">
        <ele>1028.8</ele>
        <time>2000-01-02T01:29:13.000Z</time>
      </trkpt>
      <trkpt lat="46.09399" lon="6.84482">
        <ele>1026</ele>
        <time>2000-01-02T01:29:23.000Z</time>
      </trkpt>
      <trkpt lat="46.09387" lon="6.84478">
        <ele>1027</ele>
        <time>2000-01-02T01:29:33.000Z</time>
      </trkpt>
      <trkpt lat="46.0938" lon="6.84474">
        <ele>1026</ele>
        <time>2000-01-02T01:29:43.000Z</time>
      </trkpt>
      <trkpt lat="46.09371" lon="6.84461">
        <ele>1025.9</ele>
        <time>2000-01-02T01:29:53.000Z</time>
      </trkpt>
      <trkpt lat="46.09361" lon="6.84441">
        <ele>1026</ele>
        <time>2000-01-02T01:30:03.000Z</time>
      </trkpt>
      <trkpt lat="46.09351" lon="6.84417">
        <ele>1024</ele>
        <time>2000-01-02T01:30:13.000Z</time>
      </trkpt>
      <trkpt lat="46.09341" lon="6.84398">
        <ele>1025.6</ele>
        <time>2000-01-02T01:30:23.000Z</time>
      </trkpt>
      <trkpt lat="46.09334" lon="6.84388">
        <ele>1023</ele>
        <time>2000-01-02T01:30:33.000Z</time>
      </trkpt>
      <trkpt lat="46.09323" lon="6.84375">
        <ele>1022.5</ele>
        <time>2000-01-02T01:30:43.000Z</time>
      </trkpt>
      <trkpt lat="46.0931" lon="6.84362">
        <ele>1020</ele>
        <time>2000-01-02T01:30:53.000Z</time>
      </trkpt>
      <trkpt lat="46.09294" lon="6.84351">
        <ele>1018.3</ele>
        <time>2000-01-02T01:31:03.000Z</time>
      </trkpt>
      <trkpt lat="46.0928" lon="6.84339">
        <ele>1018</ele>
        <time>2000-01-02T01:31:13.000Z</time>
      </trkpt>
      <trkpt lat="46.09275" lon="6.84332">
        <ele>1017</ele>
        <time>2000-01-02T01:31:23.000Z</time>
      </trkpt>
      <trkpt lat="46.09265" lon="6.84316">
        <ele>1018</ele>
        <time>2000-01-02T01:31:33.000Z</time>
      </trkpt>
      <trkpt lat="46.09259" lon="6.84309">
        <ele>1019.4</ele>
        <time>2000-01-02T01:31:43.000Z</time>
      </trkpt>
      <trkpt lat="46.0925" lon="6.84302">
        <ele>1019.6</ele>
        <time>2000-01-02T01:31:53.000Z</time>
      </trkpt>
      <trkpt lat="46.09239" lon="6.84298">
        <ele>1017</ele>
        <time>2000-01-02T01:32:03.000Z</time>
      </trkpt>
      <trkpt lat="46.09239" lon="6.84298">
        <ele>1019.5</ele>
        <time>2000-01-02T01:32:13.000Z</time>
      </trkpt>
      <trkpt lat="46.09239" lon="6.84298">
        <ele>1019.5</ele>
        <time>2000-01-02T01:32:23.000Z</time>
      </trkpt>
      <trkpt lat="46.09233" lon="6.84299">
        <ele>1018.8</ele>
        <time>2000-01-02T01:32:33.000Z</time>
      </trkpt>
      <trkpt lat="46.09219" lon="6.843">
        <ele>1017</ele>
        <time>2000-01-02T01:32:43.000Z</time>
      </trkpt>
      <trkpt lat="46.09206" lon="6.84297">
        <ele>1016.1</ele>
        <time>2000-01-02T01:32:53.000Z</time>
      </trkpt>
      <trkpt lat="46.0919" lon="6.84289">
        <ele>1014</ele>
        <time>2000-01-02T01:33:03.000Z</time>
      </trkpt>
      <trkpt lat="46.0918" lon="6.84282">
        <ele>1014.6</ele>
        <time>2000-01-02T01:33:13.000Z</time>
      </trkpt>
      <trkpt lat="46.09171" lon="6.84272">
        <ele>1014</ele>
        <time>2000-01-02T01:33:23.000Z</time>
      </trkpt>
      <trkpt lat="46.09165" lon="6.84261">
        <ele>1014.6</ele>
        <time>2000-01-02T01:33:33.000Z</time>
      </trkpt>
      <trkpt lat="46.09157" lon="6.8425">
        <ele>1014</ele>
        <time>2000-01-02T01:33:43.000Z</time>
      </trkpt>
      <trkpt lat="46.09149" lon="6.8424">
        <ele>1015.1</ele>
        <time>2000-01-02T01:33:53.000Z</time>
      </trkpt>
      <trkpt lat="46.09137" lon="6.84229">
        <ele>1014</ele>
        <time>2000-01-02T01:34:03.000Z</time>
      </trkpt>
      <trkpt lat="46.09129" lon="6.84219">
        <ele>1014.7</ele>
        <time>2000-01-02T01:34:13.000Z</time>
      </trkpt>
      <trkpt lat="46.09117" lon="6.84204">
        <ele>1014</ele>
        <time>2000-01-02T01:34:23.000Z</time>
      </trkpt>
      <trkpt lat="46.09109" lon="6.84197">
        <ele>1015.5</ele>
        <time>2000-01-02T01:34:33.000Z</time>
      </trkpt>
      <trkpt lat="46.09097" lon="6.8419">
        <ele>1014</ele>
        <time>2000-01-02T01:34:43.000Z</time>
      </trkpt>
      <trkpt lat="46.09085" lon="6.84185">
        <ele>1014.9</ele>
        <time>2000-01-02T01:34:53.000Z</time>
      </trkpt>
      <trkpt lat="46.09074" lon="6.84182">
        <ele>1014</ele>
        <time>2000-01-02T01:35:03.000Z</time>
      </trkpt>
      <trkpt lat="46.09062" lon="6.84177">
        <ele>1014</ele>
        <time>2000-01-02T01:35:13.000Z</time>
      </trkpt>
      <trkpt lat="46.09051" lon="6.84172">
        <ele>1014</ele>
        <time>2000-01-02T01:35:23.000Z</time>
      </trkpt>
      <trkpt lat="46.09047" lon="6.84168">
        <ele>1014.1</ele>
        <time>2000-01-02T01:35:33.000Z</time>
      </trkpt>
      <trkpt lat="46.09042" lon="6.84161">
        <ele>1014.6</ele>
        <time>2000-01-02T01:35:43.000Z</time>
      </trkpt>
      <trkpt lat="46.09034" lon="6.84153">
        <ele>1015</ele>
        <time>2000-01-02T01:35:53.000Z</time>
      </trkpt>
      <trkpt lat="46.0902" lon="6.84142">
        <ele>1015.1</ele>
        <time>2000-01-02T01:36:03.000Z</time>
      </trkpt>
      <trkpt lat="46.09006" lon="6.84129">
        <ele>1015</ele>
        <time>2000-01-02T01:36:13.000Z</time>
      </trkpt>
      <trkpt lat="46.08998" lon="6.84119">
        <ele>1016.3</ele>
        <time>2000-01-02T01:36:23.000Z</time>
      </trkpt>
      <trkpt lat="46.08989" lon="6.84107">
        <ele>1016</ele>
        <time>2000-01-02T01:36:33.000Z</time>
      </trkpt>
      <trkpt lat="46.0898" lon="6.84094">
        <ele>1018.4</ele>
        <time>2000-01-02T01:36:43.000Z</time>
      </trkpt>
      <trkpt lat="46.08963" lon="6.84073">
        <ele>1020</ele>
        <time>2000-01-02T01:36:53.000Z</time>
      </trkpt>
      <trkpt lat="46.08951" lon="6.84063">
        <ele>1021.4</ele>
        <time>2000-01-02T01:37:03.000Z</time>
      </trkpt>
      <trkpt lat="46.08938" lon="6.84056">
        <ele>1020</ele>
        <time>2000-01-02T01:37:13.000Z</time>
      </trkpt>
      <trkpt lat="46.08928" lon="6.84052">
        <ele>1020.2</ele>
        <time>2000-01-02T01:37:23.000Z</time>
      </trkpt>
      <trkpt lat="46.08917" lon="6.8405">
        <ele>1019</ele>
        <time>2000-01-02T01:37:33.000Z</time>
      </trkpt>
      <trkpt lat="46.08903" lon="6.84045">
        <ele>1017.7</ele>
        <time>2000-01-02T01:37:43.000Z</time>
      </trkpt>
      <trkpt lat="46.08894" lon="6.84039">
        <ele>1019</ele>
        <time>2000-01-02T01:37:53.000Z</time>
      </trkpt>
      <trkpt lat="46.08881" lon="6.84027">
        <ele>1018.1</ele>
        <time>2000-01-02T01:38:03.000Z</time>
      </trkpt>
      <trkpt lat="46.08865" lon="6.84012">
        <ele>1020</ele>
        <time>2000-01-02T01:38:13.000Z</time>
      </trkpt>
      <trkpt lat="46.08855" lon="6.84003">
        <ele>1021.3</ele>
        <time>2000-01-02T01:38:23.000Z</time>
      </trkpt>
      <trkpt lat="46.08846" lon="6.83993">
        <ele>1021</ele>
        <time>2000-01-02T01:38:33.000Z</time>
      </trkpt>
      <trkpt lat="46.08837" lon="6.83987">
        <ele>1023</ele>
        <time>2000-01-02T01:38:43.000Z</time>
      </trkpt>
      <trkpt lat="46.08827" lon="6.8398">
        <ele>1021</ele>
        <time>2000-01-02T01:38:53.000Z</time>
      </trkpt>
      <trkpt lat="46.08812" lon="6.83973">
        <ele>1022</ele>
        <time>2000-01-02T01:39:03.000Z</time>
      </trkpt>
      <trkpt lat="46.08793" lon="6.83964">
        <ele>1021</ele>
        <time>2000-01-02T01:39:13.000Z</time>
      </trkpt>
      <trkpt lat="46.08774" lon="6.83952">
        <ele>1021</ele>
        <time>2000-01-02T01:39:23.000Z</time>
      </trkpt>
      <trkpt lat="46.08762" lon="6.83943">
        <ele>1021.2</ele>
        <time>2000-01-02T01:39:33.000Z</time>
      </trkpt>
      <trkpt lat="46.08753" lon="6.83935">
        <ele>1022</ele>
        <time>2000-01-02T01:39:43.000Z</time>
      </trkpt>
      <trkpt lat="46.08743" lon="6.83925">
        <ele>1024.5</ele>
        <time>2000-01-02T01:39:53.000Z</time>
      </trkpt>
      <trkpt lat="46.08735" lon="6.8392">
        <ele>1028</ele>
        <time>2000-01-02T01:40:03.000Z</time>
      </trkpt>
      <trkpt lat="46.08725" lon="6.83913">
        <ele>1026.9</ele>
        <time>2000-01-02T01:40:13.000Z</time>
      </trkpt>
      <trkpt lat="46.08708" lon="6.83904">
        <ele>1028</ele>
        <time>2000-01-02T01:40:23.000Z</time>
      </trkpt>
      <trkpt lat="46.08693" lon="6.83897">
        <ele>1029.7</ele>
        <time>2000-01-02T01:40:33.000Z</time>
      </trkpt>
      <trkpt lat="46.0868" lon="6.8389">
        <ele>1028</ele>
        <time>2000-01-02T01:40:43.000Z</time>
      </trkpt>
      <trkpt lat="46.08667" lon="6.83886">
        <ele>1030.7</ele>
        <time>2000-01-02T01:40:53.000Z</time>
      </trkpt>
      <trkpt lat="46.08647" lon="6.8388">
        <ele>1028</ele>
        <time>2000-01-02T01:41:03.000Z</time>
      </trkpt>
      <trkpt lat="46.08634" lon="6.83877">
        <ele>1030.6</ele>
        <time>2000-01-02T01:41:13.000Z</time>
      </trkpt>
      <trkpt lat="46.08617" lon="6.83877">
        <ele>1028</ele>
        <time>2000-01-02T01:41:23.000Z</time>
      </trkpt>
      <trkpt lat="46.08603" lon="6.83876">
        <ele>1025.6</ele>
        <time>2000-01-02T01:41:33.000Z</time>
      </trkpt>
      <trkpt lat="46.08587" lon="6.83876">
        <ele>1023</ele>
        <time>2000-01-02T01:41:43.000Z</time>
      </trkpt>
      <trkpt lat="46.08573" lon="6.83876">
        <ele>1020.5</ele>
        <time>2000-01-02T01:41:53.000Z</time>
      </trkpt>
      <trkpt lat="46.08563" lon="6.83878">
        <ele>1020</ele>
        <time>2000-01-02T01:42:03.000Z</time>
      </trkpt>
      <trkpt lat="46.08555" lon="6.83883">
        <ele>1015.6</ele>
        <time>2000-01-02T01:42:13.000Z</time>
      </trkpt>
      <trkpt lat="46.08547" lon="6.83888">
        <ele>1013.6</ele>
        <time>2000-01-02T01:42:23.000Z</time>
      </trkpt>
      <trkpt lat="46.08542" lon="6.83891">
        <ele>1013</ele>
        <time>2000-01-02T01:42:33.000Z</time>
      </trkpt>
      <trkpt lat="46.08535" lon="6.83894">
        <ele>1011.5</ele>
        <time>2000-01-02T01:42:43.000Z</time>
      </trkpt>
      <trkpt lat="46.08526" lon="6.83898">
        <ele>1010.3</ele>
        <time>2000-01-02T01:42:53.000Z</time>
      </trkpt>
      <trkpt lat="46.08511" lon="6.83896">
        <ele>1011</ele>
        <time>2000-01-02T01:43:03.000Z</time>
      </trkpt>
      <trkpt lat="46.08498" lon="6.83894">
        <ele>1009.9</ele>
        <time>2000-01-02T01:43:13.000Z</time>
      </trkpt>
      <trkpt lat="46.08484" lon="6.83896">
        <ele>1009</ele>
        <time>2000-01-02T01:43:23.000Z</time>
      </trkpt>
      <trkpt lat="46.08471" lon="6.83897">
        <ele>1007.4</ele>
        <time>2000-01-02T01:43:33.000Z</time>
      </trkpt>
      <trkpt lat="46.08457" lon="6.83896">
        <ele>1007</ele>
        <time>2000-01-02T01:43:43.000Z</time>
      </trkpt>
      <trkpt lat="46.08444" lon="6.83894">
        <ele>1005.9</ele>
        <time>2000-01-02T01:43:53.000Z</time>
      </trkpt>
      <trkpt lat="46.08431" lon="6.83887">
        <ele>1007</ele>
        <time>2000-01-02T01:44:03.000Z</time>
      </trkpt>
      <trkpt lat="46.08415" lon="6.83879">
        <ele>1006.3</ele>
        <time>2000-01-02T01:44:13.000Z</time>
      </trkpt>
      <trkpt lat="46.084" lon="6.83876">
        <ele>1005</ele>
        <time>2000-01-02T01:44:23.000Z</time>
      </trkpt>
      <trkpt lat="46.08387" lon="6.83873">
        <ele>1005.2</ele>
        <time>2000-01-02T01:44:33.000Z</time>
      </trkpt>
      <trkpt lat="46.08375" lon="6.83873">
        <ele>1004</ele>
        <time>2000-01-02T01:44:43.000Z</time>
      </trkpt>
      <trkpt lat="46.08361" lon="6.83869">
        <ele>1004.1</ele>
        <time>2000-01-02T01:44:53.000Z</time>
      </trkpt>
      <trkpt lat="46.08351" lon="6.83863">
        <ele>1004</ele>
        <time>2000-01-02T01:45:03.000Z</time>
      </trkpt>
      <trkpt lat="46.08341" lon="6.83852">
        <ele>1004.6</ele>
        <time>2000-01-02T01:45:13.000Z</time>
      </trkpt>
      <trkpt lat="46.08327" lon="6.83836">
        <ele>1005</ele>
        <time>2000-01-02T01:45:23.000Z</time>
      </trkpt>
      <trkpt lat="46.08304" lon="6.83813">
        <ele>1006</ele>
        <time>2000-01-02T01:45:33.000Z</time>
      </trkpt>
      <trkpt lat="46.08282" lon="6.83795">
        <ele>1010</ele>
        <time>2000-01-02T01:45:43.000Z</time>
      </trkpt>
      <trkpt lat="46.08267" lon="6.83785">
        <ele>1011.4</ele>
        <time>2000-01-02T01:45:53.000Z</time>
      </trkpt>
      <trkpt lat="46.08251" lon="6.8378">
        <ele>1011</ele>
        <time>2000-01-02T01:46:03.000Z</time>
      </trkpt>
      <trkpt lat="46.08232" lon="6.83777">
        <ele>1012</ele>
        <time>2000-01-02T01:46:13.000Z</time>
      </trkpt>
      <trkpt lat="46.08218" lon="6.83775">
        <ele>1013.3</ele>
        <time>2000-01-02T01:46:23.000Z</time>
      </trkpt>
      <trkpt lat="46.08203" lon="6.83774">
        <ele>1011</ele>
        <time>2000-01-02T01:46:33.000Z</time>
      </trkpt>
      <trkpt lat="46.08185" lon="6.8377">
        <ele>1011</ele>
        <time>2000-01-02T01:46:43.000Z</time>
      </trkpt>
      <trkpt lat="46.08159" lon="6.83765">
        <ele>1008</ele>
        <time>2000-01-02T01:46:53.000Z</time>
      </trkpt>
      <trkpt lat="46.08139" lon="6.83757">
        <ele>1006</ele>
        <time>2000-01-02T01:47:03.000Z</time>
      </trkpt>
      <trkpt lat="46.08118" lon="6.83746">
        <ele>1004</ele>
        <time>2000-01-02T01:47:13.000Z</time>
      </trkpt>
      <trkpt lat="46.08096" lon="6.83726">
        <ele>1002</ele>
        <time>2000-01-02T01:47:23.000Z</time>
      </trkpt>
      <trkpt lat="46.08068" lon="6.83701">
        <ele>997</ele>
        <time>2000-01-02T01:47:33.000Z</time>
      </trkpt>
      <trkpt lat="46.08049" lon="6.83684">
        <ele>994</ele>
        <time>2000-01-02T01:47:43.000Z</time>
      </trkpt>
      <trkpt lat="46.08028" lon="6.83663">
        <ele>989</ele>
        <time>2000-01-02T01:47:53.000Z</time>
      </trkpt>
      <trkpt lat="46.08003" lon="6.83647">
        <ele>984</ele>
        <time>2000-01-02T01:48:03.000Z</time>
      </trkpt>
      <trkpt lat="46.07984" lon="6.83634">
        <ele>979</ele>
        <time>2000-01-02T01:48:13.000Z</time>
      </trkpt>
      <trkpt lat="46.07972" lon="6.83624">
        <ele>977</ele>
        <time>2000-01-02T01:48:23.000Z</time>
      </trkpt>
      <trkpt lat="46.0796" lon="6.8361">
        <ele>974</ele>
        <time>2000-01-02T01:48:33.000Z</time>
      </trkpt>
      <trkpt lat="46.07941" lon="6.83587">
        <ele>971</ele>
        <time>2000-01-02T01:48:43.000Z</time>
      </trkpt>
      <trkpt lat="46.07939" lon="6.83585">
        <ele>971.6</ele>
        <time>2000-01-02T01:48:53.000Z</time>
      </trkpt>
      <trkpt lat="46.07922" lon="6.83566">
        <ele>970</ele>
        <time>2000-01-02T01:49:03.000Z</time>
      </trkpt>
      <trkpt lat="46.07914" lon="6.83557">
        <ele>970.3</ele>
        <time>2000-01-02T01:49:13.000Z</time>
      </trkpt>
      <trkpt lat="46.07907" lon="6.83553">
        <ele>969.7</ele>
        <time>2000-01-02T01:49:23.000Z</time>
      </trkpt>
      <trkpt lat="46.07897" lon="6.83552">
        <ele>967</ele>
        <time>2000-01-02T01:49:33.000Z</time>
      </trkpt>
      <trkpt lat="46.07883" lon="6.83554">
        <ele>965.2</ele>
        <time>2000-01-02T01:49:43.000Z</time>
      </trkpt>
      <trkpt lat="46.07873" lon="6.83553">
        <ele>963</ele>
        <time>2000-01-02T01:49:53.000Z</time>
      </trkpt>
      <trkpt lat="46.07866" lon="6.83552">
        <ele>962.4</ele>
        <time>2000-01-02T01:50:03.000Z</time>
      </trkpt>
      <trkpt lat="46.07855" lon="6.83547">
        <ele>961.1</ele>
        <time>2000-01-02T01:50:13.000Z</time>
      </trkpt>
      <trkpt lat="46.07839" lon="6.83535">
        <ele>958</ele>
        <time>2000-01-02T01:50:23.000Z</time>
      </trkpt>
      <trkpt lat="46.07831" lon="6.83527">
        <ele>958.6</ele>
        <time>2000-01-02T01:50:33.000Z</time>
      </trkpt>
      <trkpt lat="46.07823" lon="6.83517">
        <ele>957</ele>
        <time>2000-01-02T01:50:43.000Z</time>
      </trkpt>
      <trkpt lat="46.07814" lon="6.83507">
        <ele>957.3</ele>
        <time>2000-01-02T01:50:53.000Z</time>
      </trkpt>
      <trkpt lat="46.078" lon="6.8349">
        <ele>956</ele>
        <time>2000-01-02T01:51:03.000Z</time>
      </trkpt>
      <trkpt lat="46.07792" lon="6.83478">
        <ele>954.2</ele>
        <time>2000-01-02T01:51:13.000Z</time>
      </trkpt>
      <trkpt lat="46.07781" lon="6.83463">
        <ele>952</ele>
        <time>2000-01-02T01:51:23.000Z</time>
      </trkpt>
      <trkpt lat="46.0777" lon="6.83448">
        <ele>949.7</ele>
        <time>2000-01-02T01:51:33.000Z</time>
      </trkpt>
      <trkpt lat="46.07755" lon="6.83426">
        <ele>947</ele>
        <time>2000-01-02T01:51:43.000Z</time>
      </trkpt>
      <trkpt lat="46.07738" lon="6.834">
        <ele>946</ele>
        <time>2000-01-02T01:51:53.000Z</time>
      </trkpt>
      <trkpt lat="46.07728" lon="6.83385">
        <ele>946</ele>
        <time>2000-01-02T01:52:03.000Z</time>
      </trkpt>
      <trkpt lat="46.07723" lon="6.83377">
        <ele>946</ele>
        <time>2000-01-02T01:52:13.000Z</time>
      </trkpt>
      <trkpt lat="46.07717" lon="6.83367">
        <ele>943.7</ele>
        <time>2000-01-02T01:52:23.000Z</time>
      </trkpt>
      <trkpt lat="46.07708" lon="6.83353">
        <ele>939</ele>
        <time>2000-01-02T01:52:33.000Z</time>
      </trkpt>
      <trkpt lat="46.07699" lon="6.83341">
        <ele>939</ele>
        <time>2000-01-02T01:52:43.000Z</time>
      </trkpt>
      <trkpt lat="46.07691" lon="6.83327">
        <ele>937</ele>
        <time>2000-01-02T01:52:53.000Z</time>
      </trkpt>
      <trkpt lat="46.0768" lon="6.83307">
        <ele>933.7</ele>
        <time>2000-01-02T01:53:03.000Z</time>
      </trkpt>
      <trkpt lat="46.0767" lon="6.83284">
        <ele>924</ele>
        <time>2000-01-02T01:53:13.000Z</time>
      </trkpt>
      <trkpt lat="46.07664" lon="6.83268">
        <ele>926.3</ele>
        <time>2000-01-02T01:53:23.000Z</time>
      </trkpt>
      <trkpt lat="46.07656" lon="6.83249">
        <ele>921</ele>
        <time>2000-01-02T01:53:33.000Z</time>
      </trkpt>
      <trkpt lat="46.0765" lon="6.83231">
        <ele>920.8</ele>
        <time>2000-01-02T01:53:43.000Z</time>
      </trkpt>
      <trkpt lat="46.07644" lon="6.83216">
        <ele>916</ele>
        <time>2000-01-02T01:53:53.000Z</time>
      </trkpt>
      <trkpt lat="46.07639" lon="6.83206">
        <ele>916.1</ele>
        <time>2000-01-02T01:54:03.000Z</time>
      </trkpt>
      <trkpt lat="46.07631" lon="6.83193">
        <ele>913</ele>
        <time>2000-01-02T01:54:13.000Z</time>
      </trkpt>
      <trkpt lat="46.07625" lon="6.83185">
        <ele>913.7</ele>
        <time>2000-01-02T01:54:23.000Z</time>
      </trkpt>
      <trkpt lat="46.07616" lon="6.83181">
        <ele>911.8</ele>
        <time>2000-01-02T01:54:33.000Z</time>
      </trkpt>
      <trkpt lat="46.07601" lon="6.83186">
        <ele>907</ele>
        <time>2000-01-02T01:54:43.000Z</time>
      </trkpt>
      <trkpt lat="46.07595" lon="6.83191">
        <ele>907.9</ele>
        <time>2000-01-02T01:54:53.000Z</time>
      </trkpt>
      <trkpt lat="46.07589" lon="6.83193">
        <ele>907.4</ele>
        <time>2000-01-02T01:55:03.000Z</time>
      </trkpt>
      <trkpt lat="46.07581" lon="6.83196">
        <ele>906</ele>
        <time>2000-01-02T01:55:13.000Z</time>
      </trkpt>
      <trkpt lat="46.07571" lon="6.83199">
        <ele>906.7</ele>
        <time>2000-01-02T01:55:23.000Z</time>
      </trkpt>
      <trkpt lat="46.07569" lon="6.832">
        <ele>906.7</ele>
        <time>2000-01-02T01:55:33.000Z</time>
      </trkpt>
      <trkpt lat="46.07562" lon="6.83203">
        <ele>907</ele>
        <time>2000-01-02T01:55:43.000Z</time>
      </trkpt>
      <trkpt lat="46.07549" lon="6.83206">
        <ele>907.9</ele>
        <time>2000-01-02T01:55:53.000Z</time>
      </trkpt>
      <trkpt lat="46.07537" lon="6.83209">
        <ele>908</ele>
        <time>2000-01-02T01:56:03.000Z</time>
      </trkpt>
      <trkpt lat="46.07537" lon="6.83209">
        <ele>908.9</ele>
        <time>2000-01-02T01:56:13.000Z</time>
      </trkpt>
      <trkpt lat="46.07537" lon="6.83209">
        <ele>908.9</ele>
        <time>2000-01-02T01:56:23.000Z</time>
      </trkpt>
      <trkpt lat="46.07536" lon="6.83217">
        <ele>909.2</ele>
        <time>2000-01-02T01:56:33.000Z</time>
      </trkpt>
      <trkpt lat="46.07538" lon="6.83234">
        <ele>909.4</ele>
        <time>2000-01-02T01:56:43.000Z</time>
      </trkpt>
      <trkpt lat="46.07541" lon="6.83256">
        <ele>909</ele>
        <time>2000-01-02T01:56:53.000Z</time>
      </trkpt>
      <trkpt lat="46.07546" lon="6.8329">
        <ele>910</ele>
        <time>2000-01-02T01:57:03.000Z</time>
      </trkpt>
      <trkpt lat="46.07549" lon="6.83308">
        <ele>911.3</ele>
        <time>2000-01-02T01:57:13.000Z</time>
      </trkpt>
      <trkpt lat="46.07529" lon="6.83344">
        <ele>913</ele>
        <time>2000-01-02T01:57:23.000Z</time>
      </trkpt>
      <trkpt lat="46.07505" lon="6.83381">
        <ele>915</ele>
        <time>2000-01-02T01:57:33.000Z</time>
      </trkpt>
      <trkpt lat="46.07492" lon="6.83398">
        <ele>916.6</ele>
        <time>2000-01-02T01:57:43.000Z</time>
      </trkpt>
      <trkpt lat="46.07488" lon="6.83405">
        <ele>916</ele>
        <time>2000-01-02T01:57:53.000Z</time>
      </trkpt>
      <trkpt lat="46.07475" lon="6.83425">
        <ele>917</ele>
        <time>2000-01-02T01:58:03.000Z</time>
      </trkpt>
      <trkpt lat="46.07466" lon="6.8344">
        <ele>919.1</ele>
        <time>2000-01-02T01:58:13.000Z</time>
      </trkpt>
      <trkpt lat="46.07459" lon="6.83451">
        <ele>919</ele>
        <time>2000-01-02T01:58:23.000Z</time>
      </trkpt>
      <trkpt lat="46.07441" lon="6.83441">
        <ele>920</ele>
        <time>2000-01-02T01:58:33.000Z</time>
      </trkpt>
      <trkpt lat="46.07425" lon="6.83434">
        <ele>922.1</ele>
        <time>2000-01-02T01:58:43.000Z</time>
      </trkpt>
      <trkpt lat="46.07413" lon="6.83426">
        <ele>924</ele>
        <time>2000-01-02T01:58:53.000Z</time>
      </trkpt>
      <trkpt lat="46.07399" lon="6.83423">
        <ele>925.5</ele>
        <time>2000-01-02T01:59:03.000Z</time>
      </trkpt>
      <trkpt lat="46.07386" lon="6.83422">
        <ele>927</ele>
        <time>2000-01-02T01:59:13.000Z</time>
      </trkpt>
      <trkpt lat="46.07374" lon="6.83416">
        <ele>928.6</ele>
        <time>2000-01-02T01:59:23.000Z</time>
      </trkpt>
      <trkpt lat="46.07359" lon="6.83406">
        <ele>931</ele>
        <time>2000-01-02T01:59:33.000Z</time>
      </trkpt>
      <trkpt lat="46.07357" lon="6.83402">
        <ele>930.7</ele>
        <time>2000-01-02T01:59:43.000Z</time>
      </trkpt>
      <trkpt lat="46.07345" lon="6.83407">
        <ele>932.9</ele>
        <time>2000-01-02T01:59:53.000Z</time>
      </trkpt>
      <trkpt lat="46.07336" lon="6.83414">
        <ele>936</ele>
        <time>2000-01-02T02:00:03.000Z</time>
      </trkpt>
      <trkpt lat="46.07329" lon="6.83416">
        <ele>935.9</ele>
        <time>2000-01-02T02:00:13.000Z</time>
      </trkpt>
      <trkpt lat="46.07324" lon="6.83415">
        <ele>937.1</ele>
        <time>2000-01-02T02:00:23.000Z</time>
      </trkpt>
      <trkpt lat="46.07315" lon="6.8341">
        <ele>941</ele>
        <time>2000-01-02T02:00:33.000Z</time>
      </trkpt>
      <trkpt lat="46.07303" lon="6.83407">
        <ele>942</ele>
        <time>2000-01-02T02:00:43.000Z</time>
      </trkpt>
      <trkpt lat="46.07294" lon="6.83408">
        <ele>944</ele>
        <time>2000-01-02T02:00:53.000Z</time>
      </trkpt>
      <trkpt lat="46.07287" lon="6.83409">
        <ele>944</ele>
        <time>2000-01-02T02:01:03.000Z</time>
      </trkpt>
      <trkpt lat="46.07275" lon="6.83416">
        <ele>946</ele>
        <time>2000-01-02T02:01:13.000Z</time>
      </trkpt>
      <trkpt lat="46.07264" lon="6.83419">
        <ele>946.8</ele>
        <time>2000-01-02T02:01:23.000Z</time>
      </trkpt>
      <trkpt lat="46.07257" lon="6.8342">
        <ele>947.8</ele>
        <time>2000-01-02T02:01:33.000Z</time>
      </trkpt>
      <trkpt lat="46.07257" lon="6.8342">
        <ele>947.8</ele>
        <time>2000-01-02T02:01:43.000Z</time>
      </trkpt>
      <trkpt lat="46.07257" lon="6.8342">
        <ele>947.8</ele>
        <time>2000-01-02T02:01:53.000Z</time>
      </trkpt>
      <trkpt lat="46.07249" lon="6.83417">
        <ele>951</ele>
        <time>2000-01-02T02:02:03.000Z</time>
      </trkpt>
      <trkpt lat="46.07241" lon="6.83416">
        <ele>950.3</ele>
        <time>2000-01-02T02:02:13.000Z</time>
      </trkpt>
      <trkpt lat="46.07187" lon="6.83416">
        <ele>960</ele>
        <time>2000-01-02T02:02:23.000Z</time>
      </trkpt>
      <trkpt lat="46.07178" lon="6.83416">
        <ele>960.4</ele>
        <time>2000-01-02T02:02:33.000Z</time>
      </trkpt>
      <trkpt lat="46.0717" lon="6.83418">
        <ele>961.4</ele>
        <time>2000-01-02T02:02:43.000Z</time>
      </trkpt>
      <trkpt lat="46.07161" lon="6.8342">
        <ele>963</ele>
        <time>2000-01-02T02:02:53.000Z</time>
      </trkpt>
      <trkpt lat="46.07149" lon="6.83425">
        <ele>964.6</ele>
        <time>2000-01-02T02:03:03.000Z</time>
      </trkpt>
      <trkpt lat="46.0714" lon="6.83427">
        <ele>966</ele>
        <time>2000-01-02T02:03:13.000Z</time>
      </trkpt>
      <trkpt lat="46.07132" lon="6.83428">
        <ele>967.4</ele>
        <time>2000-01-02T02:03:23.000Z</time>
      </trkpt>
      <trkpt lat="46.07121" lon="6.83432">
        <ele>969</ele>
        <time>2000-01-02T02:03:33.000Z</time>
      </trkpt>
      <trkpt lat="46.07103" lon="6.83438">
        <ele>973</ele>
        <time>2000-01-02T02:03:43.000Z</time>
      </trkpt>
      <trkpt lat="46.07083" lon="6.83445">
        <ele>977</ele>
        <time>2000-01-02T02:03:53.000Z</time>
      </trkpt>
      <trkpt lat="46.07066" lon="6.83449">
        <ele>979.7</ele>
        <time>2000-01-02T02:04:03.000Z</time>
      </trkpt>
      <trkpt lat="46.07047" lon="6.8345">
        <ele>984</ele>
        <time>2000-01-02T02:04:13.000Z</time>
      </trkpt>
      <trkpt lat="46.07027" lon="6.8345">
        <ele>990</ele>
        <time>2000-01-02T02:04:23.000Z</time>
      </trkpt>
      <trkpt lat="46.07014" lon="6.8345">
        <ele>991.9</ele>
        <time>2000-01-02T02:04:33.000Z</time>
      </trkpt>
      <trkpt lat="46.07007" lon="6.83449">
        <ele>996</ele>
        <time>2000-01-02T02:04:43.000Z</time>
      </trkpt>
      <trkpt lat="46.07003" lon="6.83447">
        <ele>995.1</ele>
        <time>2000-01-02T02:04:53.000Z</time>
      </trkpt>
      <trkpt lat="46.06999" lon="6.8344">
        <ele>996.8</ele>
        <time>2000-01-02T02:05:03.000Z</time>
      </trkpt>
      <trkpt lat="46.06996" lon="6.83428">
        <ele>1001</ele>
        <time>2000-01-02T02:05:13.000Z</time>
      </trkpt>
      <trkpt lat="46.06992" lon="6.83409">
        <ele>1002.3</ele>
        <time>2000-01-02T02:05:23.000Z</time>
      </trkpt>
      <trkpt lat="46.06989" lon="6.83396">
        <ele>1007</ele>
        <time>2000-01-02T02:05:33.000Z</time>
      </trkpt>
      <trkpt lat="46.06984" lon="6.83387">
        <ele>1007.1</ele>
        <time>2000-01-02T02:05:43.000Z</time>
      </trkpt>
      <trkpt lat="46.06976" lon="6.8338">
        <ele>1009.1</ele>
        <time>2000-01-02T02:05:53.000Z</time>
      </trkpt>
      <trkpt lat="46.06964" lon="6.83375">
        <ele>1011</ele>
        <time>2000-01-02T02:06:03.000Z</time>
      </trkpt>
      <trkpt lat="46.06956" lon="6.83371">
        <ele>1012.2</ele>
        <time>2000-01-02T02:06:13.000Z</time>
      </trkpt>
      <trkpt lat="46.0695" lon="6.83364">
        <ele>1012.6</ele>
        <time>2000-01-02T02:06:23.000Z</time>
      </trkpt>
      <trkpt lat="46.06943" lon="6.83359">
        <ele>1012</ele>
        <time>2000-01-02T02:06:33.000Z</time>
      </trkpt>
      <trkpt lat="46.06931" lon="6.83358">
        <ele>1014.1</ele>
        <time>2000-01-02T02:06:43.000Z</time>
      </trkpt>
      <trkpt lat="46.0692" lon="6.83355">
        <ele>1013</ele>
        <time>2000-01-02T02:06:53.000Z</time>
      </trkpt>
      <trkpt lat="46.06914" lon="6.83353">
        <ele>1016.1</ele>
        <time>2000-01-02T02:07:03.000Z</time>
      </trkpt>
      <trkpt lat="46.06913" lon="6.8335">
        <ele>1016.1</ele>
        <time>2000-01-02T02:07:13.000Z</time>
      </trkpt>
      <trkpt lat="46.06915" lon="6.83342">
        <ele>1015</ele>
        <time>2000-01-02T02:07:23.000Z</time>
      </trkpt>
      <trkpt lat="46.0692" lon="6.83333">
        <ele>1016</ele>
        <time>2000-01-02T02:07:33.000Z</time>
      </trkpt>
      <trkpt lat="46.06927" lon="6.83329">
        <ele>1013</ele>
        <time>2000-01-02T02:07:43.000Z</time>
      </trkpt>
      <trkpt lat="46.06932" lon="6.83324">
        <ele>1012.9</ele>
        <time>2000-01-02T02:07:53.000Z</time>
      </trkpt>
      <trkpt lat="46.06935" lon="6.83318">
        <ele>1013.1</ele>
        <time>2000-01-02T02:08:03.000Z</time>
      </trkpt>
      <trkpt lat="46.06935" lon="6.83312">
        <ele>1016</ele>
        <time>2000-01-02T02:08:13.000Z</time>
      </trkpt>
      <trkpt lat="46.06933" lon="6.83309">
        <ele>1015.1</ele>
        <time>2000-01-02T02:08:23.000Z</time>
      </trkpt>
      <trkpt lat="46.06931" lon="6.83307">
        <ele>1016.1</ele>
        <time>2000-01-02T02:08:33.000Z</time>
      </trkpt>
      <trkpt lat="46.06927" lon="6.83308">
        <ele>1017.2</ele>
        <time>2000-01-02T02:08:43.000Z</time>
      </trkpt>
      <trkpt lat="46.06921" lon="6.83311">
        <ele>1018.3</ele>
        <time>2000-01-02T02:08:53.000Z</time>
      </trkpt>
      <trkpt lat="46.06913" lon="6.83313">
        <ele>1022</ele>
        <time>2000-01-02T02:09:03.000Z</time>
      </trkpt>
      <trkpt lat="46.06906" lon="6.83311">
        <ele>1022.5</ele>
        <time>2000-01-02T02:09:13.000Z</time>
      </trkpt>
      <trkpt lat="46.06899" lon="6.83308">
        <ele>1025.4</ele>
        <time>2000-01-02T02:09:23.000Z</time>
      </trkpt>
      <trkpt lat="46.06891" lon="6.83307">
        <ele>1030</ele>
        <time>2000-01-02T02:09:33.000Z</time>
      </trkpt>
      <trkpt lat="46.06884" lon="6.8331">
        <ele>1029.3</ele>
        <time>2000-01-02T02:09:43.000Z</time>
      </trkpt>
      <trkpt lat="46.06875" lon="6.83311">
        <ele>1032.2</ele>
        <time>2000-01-02T02:09:53.000Z</time>
      </trkpt>
      <trkpt lat="46.06872" lon="6.83309">
        <ele>1037</ele>
        <time>2000-01-02T02:10:03.000Z</time>
      </trkpt>
      <trkpt lat="46.0687" lon="6.83304">
        <ele>1036.3</ele>
        <time>2000-01-02T02:10:13.000Z</time>
      </trkpt>
      <trkpt lat="46.06867" lon="6.83295">
        <ele>1040.6</ele>
        <time>2000-01-02T02:10:23.000Z</time>
      </trkpt>
      <trkpt lat="46.06863" lon="6.83291">
        <ele>1043.5</ele>
        <time>2000-01-02T02:10:33.000Z</time>
      </trkpt>
      <trkpt lat="46.06859" lon="6.83291">
        <ele>1050</ele>
        <time>2000-01-02T02:10:43.000Z</time>
      </trkpt>
      <trkpt lat="46.06852" lon="6.83294">
        <ele>1047.3</ele>
        <time>2000-01-02T02:10:53.000Z</time>
      </trkpt>
      <trkpt lat="46.06842" lon="6.83301">
        <ele>1048.7</ele>
        <time>2000-01-02T02:11:03.000Z</time>
      </trkpt>
      <trkpt lat="46.06837" lon="6.83305">
        <ele>1053</ele>
        <time>2000-01-02T02:11:13.000Z</time>
      </trkpt>
      <trkpt lat="46.06834" lon="6.83305">
        <ele>1050</ele>
        <time>2000-01-02T02:11:23.000Z</time>
      </trkpt>
      <trkpt lat="46.06832" lon="6.83304">
        <ele>1051.3</ele>
        <time>2000-01-02T02:11:33.000Z</time>
      </trkpt>
      <trkpt lat="46.06832" lon="6.83299">
        <ele>1053.9</ele>
        <time>2000-01-02T02:11:43.000Z</time>
      </trkpt>
      <trkpt lat="46.06834" lon="6.83293">
        <ele>1056</ele>
        <time>2000-01-02T02:11:53.000Z</time>
      </trkpt>
      <trkpt lat="46.0684" lon="6.83281">
        <ele>1059</ele>
        <time>2000-01-02T02:12:03.000Z</time>
      </trkpt>
      <trkpt lat="46.06846" lon="6.83275">
        <ele>1057.9</ele>
        <time>2000-01-02T02:12:13.000Z</time>
      </trkpt>
      <trkpt lat="46.06854" lon="6.83269">
        <ele>1055.1</ele>
        <time>2000-01-02T02:12:23.000Z</time>
      </trkpt>
      <trkpt lat="46.06859" lon="6.83266">
        <ele>1060</ele>
        <time>2000-01-02T02:12:33.000Z</time>
      </trkpt>
      <trkpt lat="46.06861" lon="6.83262">
        <ele>1053</ele>
        <time>2000-01-02T02:12:43.000Z</time>
      </trkpt>
      <trkpt lat="46.06863" lon="6.83256">
        <ele>1053.7</ele>
        <time>2000-01-02T02:12:53.000Z</time>
      </trkpt>
      <trkpt lat="46.06862" lon="6.83248">
        <ele>1055.8</ele>
        <time>2000-01-02T02:13:03.000Z</time>
      </trkpt>
      <trkpt lat="46.06858" lon="6.83239">
        <ele>1064</ele>
        <time>2000-01-02T02:13:13.000Z</time>
      </trkpt>
      <trkpt lat="46.06852" lon="6.83236">
        <ele>1061.8</ele>
        <time>2000-01-02T02:13:23.000Z</time>
      </trkpt>
      <trkpt lat="46.06845" lon="6.83235">
        <ele>1065.5</ele>
        <time>2000-01-02T02:13:33.000Z</time>
      </trkpt>
      <trkpt lat="46.06836" lon="6.83232">
        <ele>1073</ele>
        <time>2000-01-02T02:13:43.000Z</time>
      </trkpt>
      <trkpt lat="46.0683" lon="6.83229">
        <ele>1073.3</ele>
        <time>2000-01-02T02:13:53.000Z</time>
      </trkpt>
      <trkpt lat="46.06821" lon="6.83227">
        <ele>1077.6</ele>
        <time>2000-01-02T02:14:03.000Z</time>
      </trkpt>
      <trkpt lat="46.06811" lon="6.83228">
        <ele>1083</ele>
        <time>2000-01-02T02:14:13.000Z</time>
      </trkpt>
      <trkpt lat="46.06802" lon="6.83237">
        <ele>1086.1</ele>
        <time>2000-01-02T02:14:23.000Z</time>
      </trkpt>
      <trkpt lat="46.06794" lon="6.83247">
        <ele>1092</ele>
        <time>2000-01-02T02:14:33.000Z</time>
      </trkpt>
      <trkpt lat="46.06784" lon="6.83251">
        <ele>1093.1</ele>
        <time>2000-01-02T02:14:43.000Z</time>
      </trkpt>
      <trkpt lat="46.06778" lon="6.83256">
        <ele>1094.4</ele>
        <time>2000-01-02T02:14:53.000Z</time>
      </trkpt>
      <trkpt lat="46.06775" lon="6.83259">
        <ele>1098</ele>
        <time>2000-01-02T02:15:03.000Z</time>
      </trkpt>
      <trkpt lat="46.06769" lon="6.8326">
        <ele>1098</ele>
        <time>2000-01-02T02:15:13.000Z</time>
      </trkpt>
      <trkpt lat="46.06764" lon="6.83256">
        <ele>1101.1</ele>
        <time>2000-01-02T02:15:23.000Z</time>
      </trkpt>
      <trkpt lat="46.06759" lon="6.83247">
        <ele>1108</ele>
        <time>2000-01-02T02:15:33.000Z</time>
      </trkpt>
      <trkpt lat="46.06755" lon="6.83228">
        <ele>1108.1</ele>
        <time>2000-01-02T02:15:43.000Z</time>
      </trkpt>
      <trkpt lat="46.0675" lon="6.83214">
        <ele>1111</ele>
        <time>2000-01-02T02:15:53.000Z</time>
      </trkpt>
      <trkpt lat="46.06748" lon="6.8321">
        <ele>1111.3</ele>
        <time>2000-01-02T02:16:03.000Z</time>
      </trkpt>
      <trkpt lat="46.06744" lon="6.83212">
        <ele>1113.7</ele>
        <time>2000-01-02T02:16:13.000Z</time>
      </trkpt>
      <trkpt lat="46.06739" lon="6.83222">
        <ele>1117.3</ele>
        <time>2000-01-02T02:16:23.000Z</time>
      </trkpt>
      <trkpt lat="46.06735" lon="6.83232">
        <ele>1122</ele>
        <time>2000-01-02T02:16:33.000Z</time>
      </trkpt>
      <trkpt lat="46.06733" lon="6.83238">
        <ele>1119.8</ele>
        <time>2000-01-02T02:16:43.000Z</time>
      </trkpt>
      <trkpt lat="46.06727" lon="6.83247">
        <ele>1123</ele>
        <time>2000-01-02T02:16:53.000Z</time>
      </trkpt>
      <trkpt lat="46.06721" lon="6.83255">
        <ele>1128</ele>
        <time>2000-01-02T02:17:03.000Z</time>
      </trkpt>
      <trkpt lat="46.06714" lon="6.83258">
        <ele>1132</ele>
        <time>2000-01-02T02:17:13.000Z</time>
      </trkpt>
      <trkpt lat="46.06709" lon="6.83253">
        <ele>1135.5</ele>
        <time>2000-01-02T02:17:23.000Z</time>
      </trkpt>
      <trkpt lat="46.06705" lon="6.83242">
        <ele>1139</ele>
        <time>2000-01-02T02:17:33.000Z</time>
      </trkpt>
      <trkpt lat="46.06702" lon="6.83229">
        <ele>1136.9</ele>
        <time>2000-01-02T02:17:43.000Z</time>
      </trkpt>
      <trkpt lat="46.06699" lon="6.83217">
        <ele>1143</ele>
        <time>2000-01-02T02:17:53.000Z</time>
      </trkpt>
      <trkpt lat="46.06696" lon="6.83214">
        <ele>1138.9</ele>
        <time>2000-01-02T02:18:03.000Z</time>
      </trkpt>
      <trkpt lat="46.06693" lon="6.83219">
        <ele>1140.3</ele>
        <time>2000-01-02T02:18:13.000Z</time>
      </trkpt>
      <trkpt lat="46.06689" lon="6.83231">
        <ele>1144.9</ele>
        <time>2000-01-02T02:18:23.000Z</time>
      </trkpt>
      <trkpt lat="46.06685" lon="6.83249">
        <ele>1150</ele>
        <time>2000-01-02T02:18:33.000Z</time>
      </trkpt>
      <trkpt lat="46.06681" lon="6.83256">
        <ele>1154</ele>
        <time>2000-01-02T02:18:43.000Z</time>
      </trkpt>
      <trkpt lat="46.06676" lon="6.83254">
        <ele>1157.1</ele>
        <time>2000-01-02T02:18:53.000Z</time>
      </trkpt>
      <trkpt lat="46.06672" lon="6.83248">
        <ele>1159.4</ele>
        <time>2000-01-02T02:19:03.000Z</time>
      </trkpt>
      <trkpt lat="46.06668" lon="6.83234">
        <ele>1156</ele>
        <time>2000-01-02T02:19:13.000Z</time>
      </trkpt>
      <trkpt lat="46.06664" lon="6.83222">
        <ele>1160.8</ele>
        <time>2000-01-02T02:19:23.000Z</time>
      </trkpt>
      <trkpt lat="46.06661" lon="6.83204">
        <ele>1162</ele>
        <time>2000-01-02T02:19:33.000Z</time>
      </trkpt>
      <trkpt lat="46.06659" lon="6.83198">
        <ele>1163.4</ele>
        <time>2000-01-02T02:19:43.000Z</time>
      </trkpt>
      <trkpt lat="46.06655" lon="6.832">
        <ele>1166.2</ele>
        <time>2000-01-02T02:19:53.000Z</time>
      </trkpt>
      <trkpt lat="46.06649" lon="6.83214">
        <ele>1178</ele>
        <time>2000-01-02T02:20:03.000Z</time>
      </trkpt>
      <trkpt lat="46.06644" lon="6.83231">
        <ele>1174.2</ele>
        <time>2000-01-02T02:20:13.000Z</time>
      </trkpt>
      <trkpt lat="46.06636" lon="6.83255">
        <ele>1181</ele>
        <time>2000-01-02T02:20:23.000Z</time>
      </trkpt>
      <trkpt lat="46.06628" lon="6.83278">
        <ele>1183.6</ele>
        <time>2000-01-02T02:20:33.000Z</time>
      </trkpt>
      <trkpt lat="46.06618" lon="6.833">
        <ele>1193</ele>
        <time>2000-01-02T02:20:43.000Z</time>
      </trkpt>
      <trkpt lat="46.06608" lon="6.83321">
        <ele>1189.8</ele>
        <time>2000-01-02T02:20:53.000Z</time>
      </trkpt>
      <trkpt lat="46.06606" lon="6.83326">
        <ele>1197</ele>
        <time>2000-01-02T02:21:03.000Z</time>
      </trkpt>
      <trkpt lat="46.06604" lon="6.83335">
        <ele>1190.2</ele>
        <time>2000-01-02T02:21:13.000Z</time>
      </trkpt>
      <trkpt lat="46.06603" lon="6.83347">
        <ele>1187.9</ele>
        <time>2000-01-02T02:21:23.000Z</time>
      </trkpt>
      <trkpt lat="46.06601" lon="6.83351">
        <ele>1188.6</ele>
        <time>2000-01-02T02:21:33.000Z</time>
      </trkpt>
      <trkpt lat="46.06599" lon="6.83352">
        <ele>1198</ele>
        <time>2000-01-02T02:21:43.000Z</time>
      </trkpt>
      <trkpt lat="46.06598" lon="6.83351">
        <ele>1191.2</ele>
        <time>2000-01-02T02:21:53.000Z</time>
      </trkpt>
      <trkpt lat="46.06596" lon="6.83344">
        <ele>1194.5</ele>
        <time>2000-01-02T02:22:03.000Z</time>
      </trkpt>
      <trkpt lat="46.06594" lon="6.83328">
        <ele>1198.9</ele>
        <time>2000-01-02T02:22:13.000Z</time>
      </trkpt>
      <trkpt lat="46.06593" lon="6.8331">
        <ele>1203</ele>
        <time>2000-01-02T02:22:23.000Z</time>
      </trkpt>
      <trkpt lat="46.06592" lon="6.83292">
        <ele>1202.8</ele>
        <time>2000-01-02T02:22:33.000Z</time>
      </trkpt>
      <trkpt lat="46.06591" lon="6.83259">
        <ele>1210</ele>
        <time>2000-01-02T02:22:43.000Z</time>
      </trkpt>
      <trkpt lat="46.06589" lon="6.83227">
        <ele>1222</ele>
        <time>2000-01-02T02:22:53.000Z</time>
      </trkpt>
      <trkpt lat="46.06589" lon="6.8321">
        <ele>1214.9</ele>
        <time>2000-01-02T02:23:03.000Z</time>
      </trkpt>
      <trkpt lat="46.06587" lon="6.83196">
        <ele>1221</ele>
        <time>2000-01-02T02:23:13.000Z</time>
      </trkpt>
      <trkpt lat="46.06582" lon="6.83184">
        <ele>1218.1</ele>
        <time>2000-01-02T02:23:23.000Z</time>
      </trkpt>
      <trkpt lat="46.06579" lon="6.83179">
        <ele>1219.3</ele>
        <time>2000-01-02T02:23:33.000Z</time>
      </trkpt>
      <trkpt lat="46.06572" lon="6.83169">
        <ele>1221</ele>
        <time>2000-01-02T02:23:43.000Z</time>
      </trkpt>
      <trkpt lat="46.06567" lon="6.83161">
        <ele>1226.6</ele>
        <time>2000-01-02T02:23:53.000Z</time>
      </trkpt>
      <trkpt lat="46.06567" lon="6.83153">
        <ele>1226.4</ele>
        <time>2000-01-02T02:24:03.000Z</time>
      </trkpt>
      <trkpt lat="46.06568" lon="6.83148">
        <ele>1225.7</ele>
        <time>2000-01-02T02:24:13.000Z</time>
      </trkpt>
      <trkpt lat="46.06572" lon="6.83141">
        <ele>1222</ele>
        <time>2000-01-02T02:24:23.000Z</time>
      </trkpt>
      <trkpt lat="46.06577" lon="6.8313">
        <ele>1225.3</ele>
        <time>2000-01-02T02:24:33.000Z</time>
      </trkpt>
      <trkpt lat="46.06579" lon="6.83122">
        <ele>1227.7</ele>
        <time>2000-01-02T02:24:43.000Z</time>
      </trkpt>
      <trkpt lat="46.06583" lon="6.83107">
        <ele>1237</ele>
        <time>2000-01-02T02:24:53.000Z</time>
      </trkpt>
      <trkpt lat="46.06585" lon="6.83095">
        <ele>1236.2</ele>
        <time>2000-01-02T02:25:03.000Z</time>
      </trkpt>
      <trkpt lat="46.06585" lon="6.83085">
        <ele>1240.5</ele>
        <time>2000-01-02T02:25:13.000Z</time>
      </trkpt>
      <trkpt lat="46.06584" lon="6.83079">
        <ele>1241</ele>
        <time>2000-01-02T02:25:23.000Z</time>
      </trkpt>
      <trkpt lat="46.06582" lon="6.83075">
        <ele>1248.1</ele>
        <time>2000-01-02T02:25:33.000Z</time>
      </trkpt>
      <trkpt lat="46.06579" lon="6.83076">
        <ele>1249.5</ele>
        <time>2000-01-02T02:25:43.000Z</time>
      </trkpt>
      <trkpt lat="46.06576" lon="6.83081">
        <ele>1248.3</ele>
        <time>2000-01-02T02:25:53.000Z</time>
      </trkpt>
      <trkpt lat="46.06571" lon="6.83092">
        <ele>1245</ele>
        <time>2000-01-02T02:26:03.000Z</time>
      </trkpt>
      <trkpt lat="46.06564" lon="6.83104">
        <ele>1243</ele>
        <time>2000-01-02T02:26:13.000Z</time>
      </trkpt>
      <trkpt lat="46.0656" lon="6.83111">
        <ele>1241</ele>
        <time>2000-01-02T02:26:23.000Z</time>
      </trkpt>
      <trkpt lat="46.06555" lon="6.83115">
        <ele>1250</ele>
        <time>2000-01-02T02:26:33.000Z</time>
      </trkpt>
      <trkpt lat="46.06552" lon="6.83116">
        <ele>1244.8</ele>
        <time>2000-01-02T02:26:43.000Z</time>
      </trkpt>
      <trkpt lat="46.06551" lon="6.83113">
        <ele>1247</ele>
        <time>2000-01-02T02:26:53.000Z</time>
      </trkpt>
      <trkpt lat="46.06551" lon="6.8311">
        <ele>1248.4</ele>
        <time>2000-01-02T02:27:03.000Z</time>
      </trkpt>
      <trkpt lat="46.06555" lon="6.83103">
        <ele>1248.5</ele>
        <time>2000-01-02T02:27:13.000Z</time>
      </trkpt>
      <trkpt lat="46.06557" lon="6.83096">
        <ele>1251.4</ele>
        <time>2000-01-02T02:27:23.000Z</time>
      </trkpt>
      <trkpt lat="46.06557" lon="6.8309">
        <ele>1262</ele>
        <time>2000-01-02T02:27:33.000Z</time>
      </trkpt>
      <trkpt lat="46.06556" lon="6.83074">
        <ele>1267.4</ele>
        <time>2000-01-02T02:27:43.000Z</time>
      </trkpt>
      <trkpt lat="46.06558" lon="6.83059">
        <ele>1277</ele>
        <time>2000-01-02T02:27:53.000Z</time>
      </trkpt>
      <trkpt lat="46.06566" lon="6.83045">
        <ele>1282.5</ele>
        <time>2000-01-02T02:28:03.000Z</time>
      </trkpt>
      <trkpt lat="46.06574" lon="6.83026">
        <ele>1281</ele>
        <time>2000-01-02T02:28:13.000Z</time>
      </trkpt>
      <trkpt lat="46.06578" lon="6.83016">
        <ele>1290.1</ele>
        <time>2000-01-02T02:28:23.000Z</time>
      </trkpt>
      <trkpt lat="46.06596" lon="6.83002">
        <ele>1281</ele>
        <time>2000-01-02T02:28:33.000Z</time>
      </trkpt>
      <trkpt lat="46.06607" lon="6.82993">
        <ele>1278.5</ele>
        <time>2000-01-02T02:28:43.000Z</time>
      </trkpt>
      <trkpt lat="46.06617" lon="6.82975">
        <ele>1281</ele>
        <time>2000-01-02T02:28:53.000Z</time>
      </trkpt>
      <trkpt lat="46.06624" lon="6.82959">
        <ele>1274.4</ele>
        <time>2000-01-02T02:29:03.000Z</time>
      </trkpt>
      <trkpt lat="46.06629" lon="6.82946">
        <ele>1281</ele>
        <time>2000-01-02T02:29:13.000Z</time>
      </trkpt>
      <trkpt lat="46.06631" lon="6.82941">
        <ele>1273.9</ele>
        <time>2000-01-02T02:29:23.000Z</time>
      </trkpt>
      <trkpt lat="46.06631" lon="6.82938">
        <ele>1274.5</ele>
        <time>2000-01-02T02:29:33.000Z</time>
      </trkpt>
      <trkpt lat="46.06629" lon="6.82937">
        <ele>1275.6</ele>
        <time>2000-01-02T02:29:43.000Z</time>
      </trkpt>
      <trkpt lat="46.06626" lon="6.82937">
        <ele>1276.9</ele>
        <time>2000-01-02T02:29:53.000Z</time>
      </trkpt>
      <trkpt lat="46.06622" lon="6.82943">
        <ele>1277.1</ele>
        <time>2000-01-02T02:30:03.000Z</time>
      </trkpt>
      <trkpt lat="46.06617" lon="6.82951">
        <ele>1281</ele>
        <time>2000-01-02T02:30:13.000Z</time>
      </trkpt>
      <trkpt lat="46.06612" lon="6.82959">
        <ele>1279.6</ele>
        <time>2000-01-02T02:30:23.000Z</time>
      </trkpt>
      <trkpt lat="46.06607" lon="6.82965">
        <ele>1282</ele>
        <time>2000-01-02T02:30:33.000Z</time>
      </trkpt>
      <trkpt lat="46.06603" lon="6.82968">
        <ele>1284.2</ele>
        <time>2000-01-02T02:30:43.000Z</time>
      </trkpt>
      <trkpt lat="46.066" lon="6.82968">
        <ele>1285</ele>
        <time>2000-01-02T02:30:53.000Z</time>
      </trkpt>
      <trkpt lat="46.06599" lon="6.82966">
        <ele>1286.8</ele>
        <time>2000-01-02T02:31:03.000Z</time>
      </trkpt>
      <trkpt lat="46.066" lon="6.8296">
        <ele>1286.5</ele>
        <time>2000-01-02T02:31:13.000Z</time>
      </trkpt>
      <trkpt lat="46.06603" lon="6.82954">
        <ele>1285.1</ele>
        <time>2000-01-02T02:31:23.000Z</time>
      </trkpt>
      <trkpt lat="46.06607" lon="6.82938">
        <ele>1289</ele>
        <time>2000-01-02T02:31:33.000Z</time>
      </trkpt>
      <trkpt lat="46.06615" lon="6.82912">
        <ele>1290</ele>
        <time>2000-01-02T02:31:43.000Z</time>
      </trkpt>
      <trkpt lat="46.06621" lon="6.82885">
        <ele>1291</ele>
        <time>2000-01-02T02:31:53.000Z</time>
      </trkpt>
      <trkpt lat="46.06627" lon="6.82861">
        <ele>1292.7</ele>
        <time>2000-01-02T02:32:03.000Z</time>
      </trkpt>
      <trkpt lat="46.0663" lon="6.82836">
        <ele>1302</ele>
        <time>2000-01-02T02:32:13.000Z</time>
      </trkpt>
      <trkpt lat="46.06633" lon="6.82815">
        <ele>1296.9</ele>
        <time>2000-01-02T02:32:23.000Z</time>
      </trkpt>
      <trkpt lat="46.06636" lon="6.82784">
        <ele>1304</ele>
        <time>2000-01-02T02:32:33.000Z</time>
      </trkpt>
      <trkpt lat="46.06639" lon="6.82753">
        <ele>1306</ele>
        <time>2000-01-02T02:32:43.000Z</time>
      </trkpt>
      <trkpt lat="46.06641" lon="6.82725">
        <ele>1306</ele>
        <time>2000-01-02T02:32:53.000Z</time>
      </trkpt>
      <trkpt lat="46.0665" lon="6.82685">
        <ele>1307</ele>
        <time>2000-01-02T02:33:03.000Z</time>
      </trkpt>
      <trkpt lat="46.06657" lon="6.82644">
        <ele>1312</ele>
        <time>2000-01-02T02:33:13.000Z</time>
      </trkpt>
      <trkpt lat="46.06664" lon="6.82619">
        <ele>1309.2</ele>
        <time>2000-01-02T02:33:23.000Z</time>
      </trkpt>
      <trkpt lat="46.0667" lon="6.82589">
        <ele>1313</ele>
        <time>2000-01-02T02:33:33.000Z</time>
      </trkpt>
      <trkpt lat="46.06674" lon="6.82561">
        <ele>1315</ele>
        <time>2000-01-02T02:33:43.000Z</time>
      </trkpt>
      <trkpt lat="46.06673" lon="6.82532">
        <ele>1318</ele>
        <time>2000-01-02T02:33:53.000Z</time>
      </trkpt>
      <trkpt lat="46.06668" lon="6.82497">
        <ele>1326</ele>
        <time>2000-01-02T02:34:03.000Z</time>
      </trkpt>
      <trkpt lat="46.06663" lon="6.82463">
        <ele>1327</ele>
        <time>2000-01-02T02:34:13.000Z</time>
      </trkpt>
      <trkpt lat="46.0666" lon="6.82429">
        <ele>1328</ele>
        <time>2000-01-02T02:34:23.000Z</time>
      </trkpt>
      <trkpt lat="46.06655" lon="6.82417">
        <ele>1331.3</ele>
        <time>2000-01-02T02:34:33.000Z</time>
      </trkpt>
      <trkpt lat="46.06646" lon="6.82398">
        <ele>1339</ele>
        <time>2000-01-02T02:34:43.000Z</time>
      </trkpt>
      <trkpt lat="46.06641" lon="6.82377">
        <ele>1339.3</ele>
        <time>2000-01-02T02:34:53.000Z</time>
      </trkpt>
      <trkpt lat="46.06637" lon="6.82355">
        <ele>1347</ele>
        <time>2000-01-02T02:35:03.000Z</time>
      </trkpt>
      <trkpt lat="46.06637" lon="6.8233">
        <ele>1343.5</ele>
        <time>2000-01-02T02:35:13.000Z</time>
      </trkpt>
      <trkpt lat="46.06637" lon="6.82306">
        <ele>1347</ele>
        <time>2000-01-02T02:35:23.000Z</time>
      </trkpt>
      <trkpt lat="46.06636" lon="6.82282">
        <ele>1344.7</ele>
        <time>2000-01-02T02:35:33.000Z</time>
      </trkpt>
      <trkpt lat="46.06634" lon="6.82266">
        <ele>1347</ele>
        <time>2000-01-02T02:35:43.000Z</time>
      </trkpt>
      <trkpt lat="46.0663" lon="6.82254">
        <ele>1346.1</ele>
        <time>2000-01-02T02:35:53.000Z</time>
      </trkpt>
      <trkpt lat="46.06622" lon="6.82244">
        <ele>1348</ele>
        <time>2000-01-02T02:36:03.000Z</time>
      </trkpt>
      <trkpt lat="46.06611" lon="6.82238">
        <ele>1353.9</ele>
        <time>2000-01-02T02:36:13.000Z</time>
      </trkpt>
      <trkpt lat="46.066" lon="6.82231">
        <ele>1363</ele>
        <time>2000-01-02T02:36:23.000Z</time>
      </trkpt>
      <trkpt lat="46.06594" lon="6.82226">
        <ele>1360.9</ele>
        <time>2000-01-02T02:36:33.000Z</time>
      </trkpt>
      <trkpt lat="46.06584" lon="6.82214">
        <ele>1364</ele>
        <time>2000-01-02T02:36:43.000Z</time>
      </trkpt>
      <trkpt lat="46.06578" lon="6.82203">
        <ele>1364.9</ele>
        <time>2000-01-02T02:36:53.000Z</time>
      </trkpt>
      <trkpt lat="46.06573" lon="6.82189">
        <ele>1365</ele>
        <time>2000-01-02T02:37:03.000Z</time>
      </trkpt>
      <trkpt lat="46.06561" lon="6.82167">
        <ele>1365</ele>
        <time>2000-01-02T02:37:13.000Z</time>
      </trkpt>
      <trkpt lat="46.06551" lon="6.82147">
        <ele>1369</ele>
        <time>2000-01-02T02:37:23.000Z</time>
      </trkpt>
      <trkpt lat="46.06542" lon="6.82123">
        <ele>1370</ele>
        <time>2000-01-02T02:37:33.000Z</time>
      </trkpt>
      <trkpt lat="46.06534" lon="6.82101">
        <ele>1370</ele>
        <time>2000-01-02T02:37:43.000Z</time>
      </trkpt>
      <trkpt lat="46.06524" lon="6.82082">
        <ele>1374</ele>
        <time>2000-01-02T02:37:53.000Z</time>
      </trkpt>
      <trkpt lat="46.06515" lon="6.82065">
        <ele>1373.8</ele>
        <time>2000-01-02T02:38:03.000Z</time>
      </trkpt>
      <trkpt lat="46.06502" lon="6.82048">
        <ele>1375</ele>
        <time>2000-01-02T02:38:13.000Z</time>
      </trkpt>
      <trkpt lat="46.06493" lon="6.82033">
        <ele>1379.5</ele>
        <time>2000-01-02T02:38:23.000Z</time>
      </trkpt>
      <trkpt lat="46.06486" lon="6.82023">
        <ele>1384</ele>
        <time>2000-01-02T02:38:33.000Z</time>
      </trkpt>
      <trkpt lat="46.06476" lon="6.82009">
        <ele>1383.4</ele>
        <time>2000-01-02T02:38:43.000Z</time>
      </trkpt>
      <trkpt lat="46.06468" lon="6.82003">
        <ele>1386</ele>
        <time>2000-01-02T02:38:53.000Z</time>
      </trkpt>
      <trkpt lat="46.06456" lon="6.81988">
        <ele>1390.3</ele>
        <time>2000-01-02T02:39:03.000Z</time>
      </trkpt>
      <trkpt lat="46.06444" lon="6.81969">
        <ele>1389</ele>
        <time>2000-01-02T02:39:13.000Z</time>
      </trkpt>
      <trkpt lat="46.06432" lon="6.81958">
        <ele>1396.4</ele>
        <time>2000-01-02T02:39:23.000Z</time>
      </trkpt>
      <trkpt lat="46.06417" lon="6.81942">
        <ele>1407</ele>
        <time>2000-01-02T02:39:33.000Z</time>
      </trkpt>
      <trkpt lat="46.06408" lon="6.8192">
        <ele>1402.8</ele>
        <time>2000-01-02T02:39:43.000Z</time>
      </trkpt>
      <trkpt lat="46.06398" lon="6.81892">
        <ele>1405</ele>
        <time>2000-01-02T02:39:53.000Z</time>
      </trkpt>
      <trkpt lat="46.06387" lon="6.8187">
        <ele>1403.7</ele>
        <time>2000-01-02T02:40:03.000Z</time>
      </trkpt>
      <trkpt lat="46.06377" lon="6.81845">
        <ele>1404</ele>
        <time>2000-01-02T02:40:13.000Z</time>
      </trkpt>
      <trkpt lat="46.06367" lon="6.81825">
        <ele>1401.2</ele>
        <time>2000-01-02T02:40:23.000Z</time>
      </trkpt>
      <trkpt lat="46.06353" lon="6.81801">
        <ele>1403</ele>
        <time>2000-01-02T02:40:33.000Z</time>
      </trkpt>
      <trkpt lat="46.06346" lon="6.81793">
        <ele>1402.7</ele>
        <time>2000-01-02T02:40:43.000Z</time>
      </trkpt>
      <trkpt lat="46.06339" lon="6.81783">
        <ele>1403.6</ele>
        <time>2000-01-02T02:40:53.000Z</time>
      </trkpt>
      <trkpt lat="46.0633" lon="6.81774">
        <ele>1403</ele>
        <time>2000-01-02T02:41:03.000Z</time>
      </trkpt>
      <trkpt lat="46.06321" lon="6.81769">
        <ele>1409.7</ele>
        <time>2000-01-02T02:41:13.000Z</time>
      </trkpt>
      <trkpt lat="46.0631" lon="6.81766">
        <ele>1411</ele>
        <time>2000-01-02T02:41:23.000Z</time>
      </trkpt>
      <trkpt lat="46.06295" lon="6.81761">
        <ele>1421.8</ele>
        <time>2000-01-02T02:41:33.000Z</time>
      </trkpt>
      <trkpt lat="46.06285" lon="6.81757">
        <ele>1424</ele>
        <time>2000-01-02T02:41:43.000Z</time>
      </trkpt>
      <trkpt lat="46.06278" lon="6.81752">
        <ele>1426.8</ele>
        <time>2000-01-02T02:41:53.000Z</time>
      </trkpt>
      <trkpt lat="46.06269" lon="6.81745">
        <ele>1426.9</ele>
        <time>2000-01-02T02:42:03.000Z</time>
      </trkpt>
      <trkpt lat="46.06257" lon="6.81739">
        <ele>1425</ele>
        <time>2000-01-02T02:42:13.000Z</time>
      </trkpt>
      <trkpt lat="46.06246" lon="6.81734">
        <ele>1429.6</ele>
        <time>2000-01-02T02:42:23.000Z</time>
      </trkpt>
      <trkpt lat="46.06228" lon="6.81726">
        <ele>1430</ele>
        <time>2000-01-02T02:42:33.000Z</time>
      </trkpt>
      <trkpt lat="46.06225" lon="6.81726">
        <ele>1432</ele>
        <time>2000-01-02T02:42:43.000Z</time>
      </trkpt>
      <trkpt lat="46.06221" lon="6.81725">
        <ele>1432.7</ele>
        <time>2000-01-02T02:42:53.000Z</time>
      </trkpt>
      <trkpt lat="46.06219" lon="6.81728">
        <ele>1434.6</ele>
        <time>2000-01-02T02:43:03.000Z</time>
      </trkpt>
      <trkpt lat="46.06219" lon="6.81733">
        <ele>1437.1</ele>
        <time>2000-01-02T02:43:13.000Z</time>
      </trkpt>
      <trkpt lat="46.06224" lon="6.81745">
        <ele>1438</ele>
        <time>2000-01-02T02:43:23.000Z</time>
      </trkpt>
      <trkpt lat="46.06233" lon="6.81762">
        <ele>1447.8</ele>
        <time>2000-01-02T02:43:33.000Z</time>
      </trkpt>
      <trkpt lat="46.06245" lon="6.81779">
        <ele>1449</ele>
        <time>2000-01-02T02:43:43.000Z</time>
      </trkpt>
      <trkpt lat="46.06257" lon="6.81796">
        <ele>1455.1</ele>
        <time>2000-01-02T02:43:53.000Z</time>
      </trkpt>
      <trkpt lat="46.06262" lon="6.81806">
        <ele>1455</ele>
        <time>2000-01-02T02:44:03.000Z</time>
      </trkpt>
      <trkpt lat="46.0626" lon="6.81809">
        <ele>1459.5</ele>
        <time>2000-01-02T02:44:13.000Z</time>
      </trkpt>
      <trkpt lat="46.06254" lon="6.81808">
        <ele>1461.5</ele>
        <time>2000-01-02T02:44:23.000Z</time>
      </trkpt>
      <trkpt lat="46.06245" lon="6.81802">
        <ele>1455</ele>
        <time>2000-01-02T02:44:33.000Z</time>
      </trkpt>
      <trkpt lat="46.0623" lon="6.81789">
        <ele>1461.3</ele>
        <time>2000-01-02T02:44:43.000Z</time>
      </trkpt>
      <trkpt lat="46.06215" lon="6.81776">
        <ele>1456</ele>
        <time>2000-01-02T02:44:53.000Z</time>
      </trkpt>
      <trkpt lat="46.06202" lon="6.81768">
        <ele>1458</ele>
        <time>2000-01-02T02:45:03.000Z</time>
      </trkpt>
      <trkpt lat="46.06189" lon="6.81764">
        <ele>1457</ele>
        <time>2000-01-02T02:45:13.000Z</time>
      </trkpt>
      <trkpt lat="46.06176" lon="6.81763">
        <ele>1460.1</ele>
        <time>2000-01-02T02:45:23.000Z</time>
      </trkpt>
      <trkpt lat="46.0616" lon="6.81767">
        <ele>1460</ele>
        <time>2000-01-02T02:45:33.000Z</time>
      </trkpt>
      <trkpt lat="46.0614" lon="6.81776">
        <ele>1469</ele>
        <time>2000-01-02T02:45:43.000Z</time>
      </trkpt>
      <trkpt lat="46.06125" lon="6.81784">
        <ele>1480</ele>
        <time>2000-01-02T02:45:53.000Z</time>
      </trkpt>
      <trkpt lat="46.06117" lon="6.81786">
        <ele>1482</ele>
        <time>2000-01-02T02:46:03.000Z</time>
      </trkpt>
      <trkpt lat="46.06111" lon="6.81788">
        <ele>1485.5</ele>
        <time>2000-01-02T02:46:13.000Z</time>
      </trkpt>
      <trkpt lat="46.06108" lon="6.81788">
        <ele>1486.9</ele>
        <time>2000-01-02T02:46:23.000Z</time>
      </trkpt>
      <trkpt lat="46.06105" lon="6.81787">
        <ele>1488</ele>
        <time>2000-01-02T02:46:33.000Z</time>
      </trkpt>
      <trkpt lat="46.06099" lon="6.81781">
        <ele>1484</ele>
        <time>2000-01-02T02:46:43.000Z</time>
      </trkpt>
      <trkpt lat="46.06093" lon="6.81775">
        <ele>1489.1</ele>
        <time>2000-01-02T02:46:53.000Z</time>
      </trkpt>
      <trkpt lat="46.06085" lon="6.81767">
        <ele>1490.3</ele>
        <time>2000-01-02T02:47:03.000Z</time>
      </trkpt>
      <trkpt lat="46.0608" lon="6.81759">
        <ele>1487</ele>
        <time>2000-01-02T02:47:13.000Z</time>
      </trkpt>
      <trkpt lat="46.06078" lon="6.81754">
        <ele>1489</ele>
        <time>2000-01-02T02:47:23.000Z</time>
      </trkpt>
      <trkpt lat="46.06075" lon="6.81749">
        <ele>1488.5</ele>
        <time>2000-01-02T02:47:33.000Z</time>
      </trkpt>
      <trkpt lat="46.06069" lon="6.81741">
        <ele>1488.1</ele>
        <time>2000-01-02T02:47:43.000Z</time>
      </trkpt>
      <trkpt lat="46.06065" lon="6.81738">
        <ele>1487</ele>
        <time>2000-01-02T02:47:53.000Z</time>
      </trkpt>
      <trkpt lat="46.06059" lon="6.81735">
        <ele>1489.6</ele>
        <time>2000-01-02T02:48:03.000Z</time>
      </trkpt>
      <trkpt lat="46.0605" lon="6.81734">
        <ele>1491.6</ele>
        <time>2000-01-02T02:48:13.000Z</time>
      </trkpt>
      <trkpt lat="46.06028" lon="6.81732">
        <ele>1494</ele>
        <time>2000-01-02T02:48:23.000Z</time>
      </trkpt>
      <trkpt lat="46.06017" lon="6.81732">
        <ele>1495.1</ele>
        <time>2000-01-02T02:48:33.000Z</time>
      </trkpt>
      <trkpt lat="46.06009" lon="6.81735">
        <ele>1497.1</ele>
        <time>2000-01-02T02:48:43.000Z</time>
      </trkpt>
      <trkpt lat="46.06" lon="6.8174">
        <ele>1494</ele>
        <time>2000-01-02T02:48:53.000Z</time>
      </trkpt>
      <trkpt lat="46.05988" lon="6.81749">
        <ele>1504.1</ele>
        <time>2000-01-02T02:49:03.000Z</time>
      </trkpt>
      <trkpt lat="46.05982" lon="6.81752">
        <ele>1504</ele>
        <time>2000-01-02T02:49:13.000Z</time>
      </trkpt>
      <trkpt lat="46.05972" lon="6.81759">
        <ele>1508.2</ele>
        <time>2000-01-02T02:49:23.000Z</time>
      </trkpt>
      <trkpt lat="46.0596" lon="6.81773">
        <ele>1512</ele>
        <time>2000-01-02T02:49:33.000Z</time>
      </trkpt>
      <trkpt lat="46.05949" lon="6.81785">
        <ele>1520.4</ele>
        <time>2000-01-02T02:49:43.000Z</time>
      </trkpt>
      <trkpt lat="46.05938" lon="6.81799">
        <ele>1524</ele>
        <time>2000-01-02T02:49:53.000Z</time>
      </trkpt>
      <trkpt lat="46.0593" lon="6.81813">
        <ele>1536.6</ele>
        <time>2000-01-02T02:50:03.000Z</time>
      </trkpt>
      <trkpt lat="46.05932" lon="6.81818">
        <ele>1538.6</ele>
        <time>2000-01-02T02:50:13.000Z</time>
      </trkpt>
      <trkpt lat="46.05939" lon="6.81818">
        <ele>1528</ele>
        <time>2000-01-02T02:50:23.000Z</time>
      </trkpt>
      <trkpt lat="46.0595" lon="6.81818">
        <ele>1536.4</ele>
        <time>2000-01-02T02:50:33.000Z</time>
      </trkpt>
      <trkpt lat="46.05966" lon="6.81817">
        <ele>1532</ele>
        <time>2000-01-02T02:50:43.000Z</time>
      </trkpt>
      <trkpt lat="46.05979" lon="6.81814">
        <ele>1535.4</ele>
        <time>2000-01-02T02:50:53.000Z</time>
      </trkpt>
      <trkpt lat="46.05996" lon="6.81811">
        <ele>1534</ele>
        <time>2000-01-02T02:51:03.000Z</time>
      </trkpt>
      <trkpt lat="46.06011" lon="6.81812">
        <ele>1535.8</ele>
        <time>2000-01-02T02:51:13.000Z</time>
      </trkpt>
      <trkpt lat="46.06017" lon="6.81814">
        <ele>1536</ele>
        <time>2000-01-02T02:51:23.000Z</time>
      </trkpt>
      <trkpt lat="46.06024" lon="6.81817">
        <ele>1537.6</ele>
        <time>2000-01-02T02:51:33.000Z</time>
      </trkpt>
      <trkpt lat="46.06026" lon="6.81819">
        <ele>1538.4</ele>
        <time>2000-01-02T02:51:43.000Z</time>
      </trkpt>
      <trkpt lat="46.06027" lon="6.8182">
        <ele>1538.7</ele>
        <time>2000-01-02T02:51:53.000Z</time>
      </trkpt>
      <trkpt lat="46.06028" lon="6.81822">
        <ele>1539.4</ele>
        <time>2000-01-02T02:52:03.000Z</time>
      </trkpt>
      <trkpt lat="46.06027" lon="6.81824">
        <ele>1540.3</ele>
        <time>2000-01-02T02:52:13.000Z</time>
      </trkpt>
      <trkpt lat="46.06024" lon="6.81825">
        <ele>1540.9</ele>
        <time>2000-01-02T02:52:23.000Z</time>
      </trkpt>
      <trkpt lat="46.06018" lon="6.81828">
        <ele>1540</ele>
        <time>2000-01-02T02:52:33.000Z</time>
      </trkpt>
      <trkpt lat="46.06008" lon="6.81838">
        <ele>1547.4</ele>
        <time>2000-01-02T02:52:43.000Z</time>
      </trkpt>
      <trkpt lat="46.05998" lon="6.81848">
        <ele>1549</ele>
        <time>2000-01-02T02:52:53.000Z</time>
      </trkpt>
      <trkpt lat="46.05985" lon="6.81858">
        <ele>1556.5</ele>
        <time>2000-01-02T02:53:03.000Z</time>
      </trkpt>
      <trkpt lat="46.05973" lon="6.81868">
        <ele>1556</ele>
        <time>2000-01-02T02:53:13.000Z</time>
      </trkpt>
      <trkpt lat="46.05957" lon="6.8188">
        <ele>1566</ele>
        <time>2000-01-02T02:53:23.000Z</time>
      </trkpt>
      <trkpt lat="46.05946" lon="6.81886">
        <ele>1565</ele>
        <time>2000-01-02T02:53:33.000Z</time>
      </trkpt>
      <trkpt lat="46.05934" lon="6.8189">
        <ele>1570.9</ele>
        <time>2000-01-02T02:53:43.000Z</time>
      </trkpt>
      <trkpt lat="46.0593" lon="6.81893">
        <ele>1572.3</ele>
        <time>2000-01-02T02:53:53.000Z</time>
      </trkpt>
      <trkpt lat="46.05925" lon="6.81897">
        <ele>1570</ele>
        <time>2000-01-02T02:54:03.000Z</time>
      </trkpt>
      <trkpt lat="46.05921" lon="6.81901">
        <ele>1576.1</ele>
        <time>2000-01-02T02:54:13.000Z</time>
      </trkpt>
      <trkpt lat="46.05916" lon="6.81906">
        <ele>1578.5</ele>
        <time>2000-01-02T02:54:23.000Z</time>
      </trkpt>
      <trkpt lat="46.05913" lon="6.81915">
        <ele>1583</ele>
        <time>2000-01-02T02:54:33.000Z</time>
      </trkpt>
      <trkpt lat="46.0591" lon="6.8192">
        <ele>1580</ele>
        <time>2000-01-02T02:54:43.000Z</time>
      </trkpt>
      <trkpt lat="46.05905" lon="6.81926">
        <ele>1588.3</ele>
        <time>2000-01-02T02:54:53.000Z</time>
      </trkpt>
      <trkpt lat="46.059" lon="6.81929">
        <ele>1590.2</ele>
        <time>2000-01-02T02:55:03.000Z</time>
      </trkpt>
      <trkpt lat="46.05896" lon="6.81929">
        <ele>1590.8</ele>
        <time>2000-01-02T02:55:13.000Z</time>
      </trkpt>
      <trkpt lat="46.05889" lon="6.81925">
        <ele>1584</ele>
        <time>2000-01-02T02:55:23.000Z</time>
      </trkpt>
      <trkpt lat="46.05881" lon="6.81913">
        <ele>1589.8</ele>
        <time>2000-01-02T02:55:33.000Z</time>
      </trkpt>
      <trkpt lat="46.05874" lon="6.81902">
        <ele>1586</ele>
        <time>2000-01-02T02:55:43.000Z</time>
      </trkpt>
      <trkpt lat="46.05866" lon="6.81893">
        <ele>1589.2</ele>
        <time>2000-01-02T02:55:53.000Z</time>
      </trkpt>
      <trkpt lat="46.05857" lon="6.81884">
        <ele>1588</ele>
        <time>2000-01-02T02:56:03.000Z</time>
      </trkpt>
      <trkpt lat="46.05851" lon="6.81883">
        <ele>1588.9</ele>
        <time>2000-01-02T02:56:13.000Z</time>
      </trkpt>
      <trkpt lat="46.05842" lon="6.81885">
        <ele>1591.1</ele>
        <time>2000-01-02T02:56:23.000Z</time>
      </trkpt>
      <trkpt lat="46.05822" lon="6.81896">
        <ele>1592</ele>
        <time>2000-01-02T02:56:33.000Z</time>
      </trkpt>
      <trkpt lat="46.05806" lon="6.81902">
        <ele>1597.3</ele>
        <time>2000-01-02T02:56:43.000Z</time>
      </trkpt>
      <trkpt lat="46.05797" lon="6.81905">
        <ele>1596</ele>
        <time>2000-01-02T02:56:53.000Z</time>
      </trkpt>
      <trkpt lat="46.05794" lon="6.81906">
        <ele>1599</ele>
        <time>2000-01-02T02:57:03.000Z</time>
      </trkpt>
      <trkpt lat="46.05798" lon="6.81911">
        <ele>1600.3</ele>
        <time>2000-01-02T02:57:13.000Z</time>
      </trkpt>
      <trkpt lat="46.05806" lon="6.81916">
        <ele>1601.8</ele>
        <time>2000-01-02T02:57:23.000Z</time>
      </trkpt>
      <trkpt lat="46.05815" lon="6.81919">
        <ele>1599</ele>
        <time>2000-01-02T02:57:33.000Z</time>
      </trkpt>
      <trkpt lat="46.05824" lon="6.81926">
        <ele>1605.8</ele>
        <time>2000-01-02T02:57:43.000Z</time>
      </trkpt>
      <trkpt lat="46.05829" lon="6.81931">
        <ele>1607.6</ele>
        <time>2000-01-02T02:57:53.000Z</time>
      </trkpt>
      <trkpt lat="46.05833" lon="6.81937">
        <ele>1607</ele>
        <time>2000-01-02T02:58:03.000Z</time>
      </trkpt>
      <trkpt lat="46.05844" lon="6.81947">
        <ele>1610.9</ele>
        <time>2000-01-02T02:58:13.000Z</time>
      </trkpt>
      <trkpt lat="46.05845" lon="6.8195">
        <ele>1611.7</ele>
        <time>2000-01-02T02:58:23.000Z</time>
      </trkpt>
      <trkpt lat="46.05839" lon="6.81952">
        <ele>1613</ele>
        <time>2000-01-02T02:58:33.000Z</time>
      </trkpt>
      <trkpt lat="46.05843" lon="6.81957">
        <ele>1614.3</ele>
        <time>2000-01-02T02:58:43.000Z</time>
      </trkpt>
      <trkpt lat="46.05832" lon="6.81959">
        <ele>1616.8</ele>
        <time>2000-01-02T02:58:53.000Z</time>
      </trkpt>
      <trkpt lat="46.05831" lon="6.81963">
        <ele>1617</ele>
        <time>2000-01-02T02:59:03.000Z</time>
      </trkpt>
      <trkpt lat="46.05837" lon="6.81978">
        <ele>1622.4</ele>
        <time>2000-01-02T02:59:13.000Z</time>
      </trkpt>
      <trkpt lat="46.05838" lon="6.81984">
        <ele>1624.3</ele>
        <time>2000-01-02T02:59:23.000Z</time>
      </trkpt>
      <trkpt lat="46.05831" lon="6.81984">
        <ele>1623</ele>
        <time>2000-01-02T02:59:33.000Z</time>
      </trkpt>
      <trkpt lat="46.05823" lon="6.81983">
        <ele>1625.9</ele>
        <time>2000-01-02T02:59:43.000Z</time>
      </trkpt>
      <trkpt lat="46.0582" lon="6.81986">
        <ele>1627.4</ele>
        <time>2000-01-02T02:59:53.000Z</time>
      </trkpt>
      <trkpt lat="46.05823" lon="6.81989">
        <ele>1628.2</ele>
        <time>2000-01-02T03:00:03.000Z</time>
      </trkpt>
      <trkpt lat="46.05816" lon="6.81994">
        <ele>1631</ele>
        <time>2000-01-02T03:00:13.000Z</time>
      </trkpt>
      <trkpt lat="46.05812" lon="6.81993">
        <ele>1631.2</ele>
        <time>2000-01-02T03:00:23.000Z</time>
      </trkpt>
      <trkpt lat="46.05805" lon="6.81996">
        <ele>1633.2</ele>
        <time>2000-01-02T03:00:33.000Z</time>
      </trkpt>
      <trkpt lat="46.05813" lon="6.82004">
        <ele>1634</ele>
        <time>2000-01-02T03:00:43.000Z</time>
      </trkpt>
      <trkpt lat="46.05816" lon="6.82012">
        <ele>1637.7</ele>
        <time>2000-01-02T03:00:53.000Z</time>
      </trkpt>
      <trkpt lat="46.05804" lon="6.82018">
        <ele>1637</ele>
        <time>2000-01-02T03:01:03.000Z</time>
      </trkpt>
      <trkpt lat="46.05798" lon="6.82023">
        <ele>1642.7</ele>
        <time>2000-01-02T03:01:13.000Z</time>
      </trkpt>
      <trkpt lat="46.05801" lon="6.82026">
        <ele>1644</ele>
        <time>2000-01-02T03:01:23.000Z</time>
      </trkpt>
      <trkpt lat="46.05806" lon="6.82029">
        <ele>1645.3</ele>
        <time>2000-01-02T03:01:33.000Z</time>
      </trkpt>
      <trkpt lat="46.05804" lon="6.82032">
        <ele>1646.1</ele>
        <time>2000-01-02T03:01:43.000Z</time>
      </trkpt>
      <trkpt lat="46.05796" lon="6.82032">
        <ele>1645</ele>
        <time>2000-01-02T03:01:53.000Z</time>
      </trkpt>
      <trkpt lat="46.05789" lon="6.82035">
        <ele>1646.2</ele>
        <time>2000-01-02T03:02:03.000Z</time>
      </trkpt>
      <trkpt lat="46.05792" lon="6.82039">
        <ele>1647.7</ele>
        <time>2000-01-02T03:02:13.000Z</time>
      </trkpt>
      <trkpt lat="46.05797" lon="6.82044">
        <ele>1649.4</ele>
        <time>2000-01-02T03:02:23.000Z</time>
      </trkpt>
      <trkpt lat="46.05801" lon="6.82044">
        <ele>1648</ele>
        <time>2000-01-02T03:02:33.000Z</time>
      </trkpt>
      <trkpt lat="46.05807" lon="6.82051">
        <ele>1651.4</ele>
        <time>2000-01-02T03:02:43.000Z</time>
      </trkpt>
      <trkpt lat="46.05809" lon="6.82056">
        <ele>1652.5</ele>
        <time>2000-01-02T03:02:53.000Z</time>
      </trkpt>
      <trkpt lat="46.0581" lon="6.82069">
        <ele>1654</ele>
        <time>2000-01-02T03:03:03.000Z</time>
      </trkpt>
      <trkpt lat="46.0581" lon="6.82081">
        <ele>1658.6</ele>
        <time>2000-01-02T03:03:13.000Z</time>
      </trkpt>
      <trkpt lat="46.05806" lon="6.82082">
        <ele>1659.6</ele>
        <time>2000-01-02T03:03:23.000Z</time>
      </trkpt>
      <trkpt lat="46.05807" lon="6.82093">
        <ele>1662</ele>
        <time>2000-01-02T03:03:33.000Z</time>
      </trkpt>
      <trkpt lat="46.05807" lon="6.82105">
        <ele>1666</ele>
        <time>2000-01-02T03:03:43.000Z</time>
      </trkpt>
      <trkpt lat="46.058" lon="6.82096">
        <ele>1664.1</ele>
        <time>2000-01-02T03:03:53.000Z</time>
      </trkpt>
      <trkpt lat="46.05799" lon="6.82096">
        <ele>1663</ele>
        <time>2000-01-02T03:04:03.000Z</time>
      </trkpt>
      <trkpt lat="46.058" lon="6.82101">
        <ele>1665.6</ele>
        <time>2000-01-02T03:04:13.000Z</time>
      </trkpt>
      <trkpt lat="46.05801" lon="6.82107">
        <ele>1667.3</ele>
        <time>2000-01-02T03:04:23.000Z</time>
      </trkpt>
      <trkpt lat="46.05798" lon="6.82105">
        <ele>1667</ele>
        <time>2000-01-02T03:04:33.000Z</time>
      </trkpt>
      <trkpt lat="46.05796" lon="6.82102">
        <ele>1666.3</ele>
        <time>2000-01-02T03:04:43.000Z</time>
      </trkpt>
      <trkpt lat="46.05797" lon="6.82108">
        <ele>1668</ele>
        <time>2000-01-02T03:04:53.000Z</time>
      </trkpt>
      <trkpt lat="46.05796" lon="6.8211">
        <ele>1670</ele>
        <time>2000-01-02T03:05:03.000Z</time>
      </trkpt>
      <trkpt lat="46.05792" lon="6.82109">
        <ele>1668.8</ele>
        <time>2000-01-02T03:05:13.000Z</time>
      </trkpt>
      <trkpt lat="46.05787" lon="6.82113">
        <ele>1670.6</ele>
        <time>2000-01-02T03:05:23.000Z</time>
      </trkpt>
      <trkpt lat="46.05785" lon="6.82117">
        <ele>1672</ele>
        <time>2000-01-02T03:05:33.000Z</time>
      </trkpt>
      <trkpt lat="46.0578" lon="6.82115">
        <ele>1671.9</ele>
        <time>2000-01-02T03:05:43.000Z</time>
      </trkpt>
      <trkpt lat="46.05773" lon="6.82112">
        <ele>1668</ele>
        <time>2000-01-02T03:05:53.000Z</time>
      </trkpt>
      <trkpt lat="46.05765" lon="6.82112">
        <ele>1670.8</ele>
        <time>2000-01-02T03:06:03.000Z</time>
      </trkpt>
      <trkpt lat="46.05759" lon="6.82111">
        <ele>1670.3</ele>
        <time>2000-01-02T03:06:13.000Z</time>
      </trkpt>
      <trkpt lat="46.05754" lon="6.82108">
        <ele>1668</ele>
        <time>2000-01-02T03:06:23.000Z</time>
      </trkpt>
      <trkpt lat="46.05751" lon="6.82108">
        <ele>1669</ele>
        <time>2000-01-02T03:06:33.000Z</time>
      </trkpt>
      <trkpt lat="46.05746" lon="6.82109">
        <ele>1669</ele>
        <time>2000-01-02T03:06:43.000Z</time>
      </trkpt>
      <trkpt lat="46.0574" lon="6.82113">
        <ele>1669.9</ele>
        <time>2000-01-02T03:06:53.000Z</time>
      </trkpt>
      <trkpt lat="46.05733" lon="6.82115">
        <ele>1668</ele>
        <time>2000-01-02T03:07:03.000Z</time>
      </trkpt>
      <trkpt lat="46.05726" lon="6.82116">
        <ele>1669.9</ele>
        <time>2000-01-02T03:07:13.000Z</time>
      </trkpt>
      <trkpt lat="46.05719" lon="6.82116">
        <ele>1669.6</ele>
        <time>2000-01-02T03:07:23.000Z</time>
      </trkpt>
      <trkpt lat="46.05712" lon="6.82114">
        <ele>1667</ele>
        <time>2000-01-02T03:07:33.000Z</time>
      </trkpt>
      <trkpt lat="46.05699" lon="6.82109">
        <ele>1667.2</ele>
        <time>2000-01-02T03:07:43.000Z</time>
      </trkpt>
      <trkpt lat="46.05691" lon="6.82105">
        <ele>1663</ele>
        <time>2000-01-02T03:07:53.000Z</time>
      </trkpt>
      <trkpt lat="46.05684" lon="6.82103">
        <ele>1665.9</ele>
        <time>2000-01-02T03:08:03.000Z</time>
      </trkpt>
      <trkpt lat="46.05679" lon="6.82101">
        <ele>1665.7</ele>
        <time>2000-01-02T03:08:13.000Z</time>
      </trkpt>
      <trkpt lat="46.05675" lon="6.821">
        <ele>1665.7</ele>
        <time>2000-01-02T03:08:23.000Z</time>
      </trkpt>
      <trkpt lat="46.05667" lon="6.82098">
        <ele>1663</ele>
        <time>2000-01-02T03:08:33.000Z</time>
      </trkpt>
      <trkpt lat="46.0566" lon="6.82098">
        <ele>1666</ele>
        <time>2000-01-02T03:08:43.000Z</time>
      </trkpt>
      <trkpt lat="46.05656" lon="6.82097">
        <ele>1665.8</ele>
        <time>2000-01-02T03:08:53.000Z</time>
      </trkpt>
      <trkpt lat="46.0565" lon="6.82095">
        <ele>1665.4</ele>
        <time>2000-01-02T03:09:03.000Z</time>
      </trkpt>
      <trkpt lat="46.0564" lon="6.82093">
        <ele>1664</ele>
        <time>2000-01-02T03:09:13.000Z</time>
      </trkpt>
      <trkpt lat="46.05635" lon="6.82096">
        <ele>1666.1</ele>
        <time>2000-01-02T03:09:23.000Z</time>
      </trkpt>
      <trkpt lat="46.05632" lon="6.821">
        <ele>1667.3</ele>
        <time>2000-01-02T03:09:33.000Z</time>
      </trkpt>
      <trkpt lat="46.05629" lon="6.82107">
        <ele>1669.2</ele>
        <time>2000-01-02T03:09:43.000Z</time>
      </trkpt>
      <trkpt lat="46.05624" lon="6.82122">
        <ele>1670</ele>
        <time>2000-01-02T03:09:53.000Z</time>
      </trkpt>
      <trkpt lat="46.05619" lon="6.82129">
        <ele>1673.7</ele>
        <time>2000-01-02T03:10:03.000Z</time>
      </trkpt>
      <trkpt lat="46.05618" lon="6.8213">
        <ele>1673.7</ele>
        <time>2000-01-02T03:10:13.000Z</time>
      </trkpt>
      <trkpt lat="46.05614" lon="6.82132">
        <ele>1673.4</ele>
        <time>2000-01-02T03:10:23.000Z</time>
      </trkpt>
      <trkpt lat="46.0561" lon="6.82132">
        <ele>1673</ele>
        <time>2000-01-02T03:10:33.000Z</time>
      </trkpt>
      <trkpt lat="46.05608" lon="6.82129">
        <ele>1672</ele>
        <time>2000-01-02T03:10:43.000Z</time>
      </trkpt>
      <trkpt lat="46.05604" lon="6.82121">
        <ele>1672.2</ele>
        <time>2000-01-02T03:10:53.000Z</time>
      </trkpt>
      <trkpt lat="46.05598" lon="6.82111">
        <ele>1671.8</ele>
        <time>2000-01-02T03:11:03.000Z</time>
      </trkpt>
      <trkpt lat="46.0559" lon="6.82102">
        <ele>1671</ele>
        <time>2000-01-02T03:11:13.000Z</time>
      </trkpt>
      <trkpt lat="46.05581" lon="6.8209">
        <ele>1672.2</ele>
        <time>2000-01-02T03:11:23.000Z</time>
      </trkpt>
      <trkpt lat="46.05567" lon="6.82076">
        <ele>1670</ele>
        <time>2000-01-02T03:11:33.000Z</time>
      </trkpt>
      <trkpt lat="46.05558" lon="6.82069">
        <ele>1670.7</ele>
        <time>2000-01-02T03:11:43.000Z</time>
      </trkpt>
      <trkpt lat="46.05548" lon="6.82064">
        <ele>1669</ele>
        <time>2000-01-02T03:11:53.000Z</time>
      </trkpt>
      <trkpt lat="46.05539" lon="6.82061">
        <ele>1670.4</ele>
        <time>2000-01-02T03:12:03.000Z</time>
      </trkpt>
      <trkpt lat="46.05535" lon="6.8206">
        <ele>1670.4</ele>
        <time>2000-01-02T03:12:13.000Z</time>
      </trkpt>
      <trkpt lat="46.0553" lon="6.8206">
        <ele>1669</ele>
        <time>2000-01-02T03:12:23.000Z</time>
      </trkpt>
      <trkpt lat="46.05525" lon="6.82056">
        <ele>1670.2</ele>
        <time>2000-01-02T03:12:33.000Z</time>
      </trkpt>
      <trkpt lat="46.05519" lon="6.82056">
        <ele>1670.4</ele>
        <time>2000-01-02T03:12:43.000Z</time>
      </trkpt>
      <trkpt lat="46.05515" lon="6.82056">
        <ele>1670.6</ele>
        <time>2000-01-02T03:12:53.000Z</time>
      </trkpt>
      <trkpt lat="46.05509" lon="6.82054">
        <ele>1669</ele>
        <time>2000-01-02T03:13:03.000Z</time>
      </trkpt>
      <trkpt lat="46.05505" lon="6.82053">
        <ele>1670.2</ele>
        <time>2000-01-02T03:13:13.000Z</time>
      </trkpt>
      <trkpt lat="46.055" lon="6.82051">
        <ele>1669.9</ele>
        <time>2000-01-02T03:13:23.000Z</time>
      </trkpt>
      <trkpt lat="46.05492" lon="6.82048">
        <ele>1669.5</ele>
        <time>2000-01-02T03:13:33.000Z</time>
      </trkpt>
      <trkpt lat="46.05487" lon="6.82046">
        <ele>1667</ele>
        <time>2000-01-02T03:13:43.000Z</time>
      </trkpt>
      <trkpt lat="46.05482" lon="6.82043">
        <ele>1668.8</ele>
        <time>2000-01-02T03:13:53.000Z</time>
      </trkpt>
      <trkpt lat="46.05477" lon="6.82041">
        <ele>1668.6</ele>
        <time>2000-01-02T03:14:03.000Z</time>
      </trkpt>
      <trkpt lat="46.05473" lon="6.82037">
        <ele>1667.9</ele>
        <time>2000-01-02T03:14:13.000Z</time>
      </trkpt>
      <trkpt lat="46.05469" lon="6.82035">
        <ele>1667</ele>
        <time>2000-01-02T03:14:23.000Z</time>
      </trkpt>
      <trkpt lat="46.05465" lon="6.82031">
        <ele>1668.1</ele>
        <time>2000-01-02T03:14:33.000Z</time>
      </trkpt>
      <trkpt lat="46.05461" lon="6.82026">
        <ele>1667.7</ele>
        <time>2000-01-02T03:14:43.000Z</time>
      </trkpt>
      <trkpt lat="46.05455" lon="6.82018">
        <ele>1667.1</ele>
        <time>2000-01-02T03:14:53.000Z</time>
      </trkpt>
      <trkpt lat="46.05453" lon="6.82012">
        <ele>1666</ele>
        <time>2000-01-02T03:15:03.000Z</time>
      </trkpt>
      <trkpt lat="46.05447" lon="6.82006">
        <ele>1665.9</ele>
        <time>2000-01-02T03:15:13.000Z</time>
      </trkpt>
      <trkpt lat="46.05443" lon="6.82002">
        <ele>1665.8</ele>
        <time>2000-01-02T03:15:23.000Z</time>
      </trkpt>
      <trkpt lat="46.0544" lon="6.81998">
        <ele>1665.7</ele>
        <time>2000-01-02T03:15:33.000Z</time>
      </trkpt>
      <trkpt lat="46.05434" lon="6.81993">
        <ele>1666</ele>
        <time>2000-01-02T03:15:43.000Z</time>
      </trkpt>
      <trkpt lat="46.0543" lon="6.81988">
        <ele>1665.6</ele>
        <time>2000-01-02T03:15:53.000Z</time>
      </trkpt>
      <trkpt lat="46.05426" lon="6.81984">
        <ele>1665.4</ele>
        <time>2000-01-02T03:16:03.000Z</time>
      </trkpt>
      <trkpt lat="46.05424" lon="6.81979">
        <ele>1664.5</ele>
        <time>2000-01-02T03:16:13.000Z</time>
      </trkpt>
      <trkpt lat="46.05419" lon="6.81974">
        <ele>1665</ele>
        <time>2000-01-02T03:16:23.000Z</time>
      </trkpt>
      <trkpt lat="46.05416" lon="6.81968">
        <ele>1663.4</ele>
        <time>2000-01-02T03:16:33.000Z</time>
      </trkpt>
      <trkpt lat="46.05413" lon="6.81961">
        <ele>1663.2</ele>
        <time>2000-01-02T03:16:43.000Z</time>
      </trkpt>
      <trkpt lat="46.05413" lon="6.81961">
        <ele>1663.2</ele>
        <time>2000-01-02T03:16:53.000Z</time>
      </trkpt>
      <trkpt lat="46.05408" lon="6.81956">
        <ele>1664.2</ele>
        <time>2000-01-02T03:17:03.000Z</time>
      </trkpt>
      <trkpt lat="46.05404" lon="6.81949">
        <ele>1663</ele>
        <time>2000-01-02T03:17:13.000Z</time>
      </trkpt>
      <trkpt lat="46.05402" lon="6.81941">
        <ele>1663.5</ele>
        <time>2000-01-02T03:17:23.000Z</time>
      </trkpt>
      <trkpt lat="46.05399" lon="6.81934">
        <ele>1663</ele>
        <time>2000-01-02T03:17:33.000Z</time>
      </trkpt>
      <trkpt lat="46.05397" lon="6.81927">
        <ele>1662.1</ele>
        <time>2000-01-02T03:17:43.000Z</time>
      </trkpt>
      <trkpt lat="46.05396" lon="6.81921">
        <ele>1663</ele>
        <time>2000-01-02T03:17:53.000Z</time>
      </trkpt>
      <trkpt lat="46.05394" lon="6.81912">
        <ele>1660.3</ele>
        <time>2000-01-02T03:18:03.000Z</time>
      </trkpt>
      <trkpt lat="46.05391" lon="6.81906">
        <ele>1660.9</ele>
        <time>2000-01-02T03:18:13.000Z</time>
      </trkpt>
      <trkpt lat="46.0539" lon="6.81901">
        <ele>1660.8</ele>
        <time>2000-01-02T03:18:23.000Z</time>
      </trkpt>
      <trkpt lat="46.05389" lon="6.81895">
        <ele>1663</ele>
        <time>2000-01-02T03:18:33.000Z</time>
      </trkpt>
      <trkpt lat="46.05387" lon="6.81888">
        <ele>1660.5</ele>
        <time>2000-01-02T03:18:43.000Z</time>
      </trkpt>
      <trkpt lat="46.05387" lon="6.81888">
        <ele>1660.5</ele>
        <time>2000-01-02T03:18:53.000Z</time>
      </trkpt>
      <trkpt lat="46.05383" lon="6.81879">
        <ele>1660.8</ele>
        <time>2000-01-02T03:19:03.000Z</time>
      </trkpt>
      <trkpt lat="46.05379" lon="6.8187">
        <ele>1663</ele>
        <time>2000-01-02T03:19:13.000Z</time>
      </trkpt>
      <trkpt lat="46.05378" lon="6.81861">
        <ele>1660.5</ele>
        <time>2000-01-02T03:19:23.000Z</time>
      </trkpt>
      <trkpt lat="46.05375" lon="6.81856">
        <ele>1660.7</ele>
        <time>2000-01-02T03:19:33.000Z</time>
      </trkpt>
      <trkpt lat="46.05372" lon="6.81847">
        <ele>1660.1</ele>
        <time>2000-01-02T03:19:43.000Z</time>
      </trkpt>
      <trkpt lat="46.05365" lon="6.81837">
        <ele>1660</ele>
        <time>2000-01-02T03:19:53.000Z</time>
      </trkpt>
      <trkpt lat="46.05363" lon="6.81829">
        <ele>1659.8</ele>
        <time>2000-01-02T03:20:03.000Z</time>
      </trkpt>
      <trkpt lat="46.05358" lon="6.81819">
        <ele>1659.7</ele>
        <time>2000-01-02T03:20:13.000Z</time>
      </trkpt>
      <trkpt lat="46.05356" lon="6.81811">
        <ele>1659</ele>
        <time>2000-01-02T03:20:23.000Z</time>
      </trkpt>
      <trkpt lat="46.05353" lon="6.81804">
        <ele>1658.8</ele>
        <time>2000-01-02T03:20:33.000Z</time>
      </trkpt>
      <trkpt lat="46.05353" lon="6.81796">
        <ele>1657.7</ele>
        <time>2000-01-02T03:20:43.000Z</time>
      </trkpt>
      <trkpt lat="46.05352" lon="6.81787">
        <ele>1656.6</ele>
        <time>2000-01-02T03:20:53.000Z</time>
      </trkpt>
      <trkpt lat="46.0535" lon="6.81781">
        <ele>1658</ele>
        <time>2000-01-02T03:21:03.000Z</time>
      </trkpt>
      <trkpt lat="46.0535" lon="6.81781">
        <ele>1656.3</ele>
        <time>2000-01-02T03:21:13.000Z</time>
      </trkpt>
      <trkpt lat="46.05347" lon="6.8177">
        <ele>1655.4</ele>
        <time>2000-01-02T03:21:23.000Z</time>
      </trkpt>
      <trkpt lat="46.05343" lon="6.81769">
        <ele>1656.3</ele>
        <time>2000-01-02T03:21:33.000Z</time>
      </trkpt>
      <trkpt lat="46.05338" lon="6.8176">
        <ele>1657</ele>
        <time>2000-01-02T03:21:43.000Z</time>
      </trkpt>
      <trkpt lat="46.05333" lon="6.81756">
        <ele>1657</ele>
        <time>2000-01-02T03:21:53.000Z</time>
      </trkpt>
      <trkpt lat="46.0533" lon="6.81752">
        <ele>1657.2</ele>
        <time>2000-01-02T03:22:03.000Z</time>
      </trkpt>
      <trkpt lat="46.05328" lon="6.81747">
        <ele>1657.2</ele>
        <time>2000-01-02T03:22:13.000Z</time>
      </trkpt>
      <trkpt lat="46.05326" lon="6.81737">
        <ele>1657</ele>
        <time>2000-01-02T03:22:23.000Z</time>
      </trkpt>
      <trkpt lat="46.05324" lon="6.81731">
        <ele>1656.6</ele>
        <time>2000-01-02T03:22:33.000Z</time>
      </trkpt>
      <trkpt lat="46.05321" lon="6.81721">
        <ele>1656.4</ele>
        <time>2000-01-02T03:22:43.000Z</time>
      </trkpt>
      <trkpt lat="46.05319" lon="6.81709">
        <ele>1656</ele>
        <time>2000-01-02T03:22:53.000Z</time>
      </trkpt>
      <trkpt lat="46.05318" lon="6.81701">
        <ele>1655.1</ele>
        <time>2000-01-02T03:23:03.000Z</time>
      </trkpt>
      <trkpt lat="46.05314" lon="6.81696">
        <ele>1655.7</ele>
        <time>2000-01-02T03:23:13.000Z</time>
      </trkpt>
      <trkpt lat="46.05314" lon="6.81689">
        <ele>1655.6</ele>
        <time>2000-01-02T03:23:23.000Z</time>
      </trkpt>
      <trkpt lat="46.05314" lon="6.81689">
        <ele>1655.6</ele>
        <time>2000-01-02T03:23:33.000Z</time>
      </trkpt>
      <trkpt lat="46.05314" lon="6.8168">
        <ele>1656</ele>
        <time>2000-01-02T03:23:43.000Z</time>
      </trkpt>
      <trkpt lat="46.05313" lon="6.81671">
        <ele>1655.9</ele>
        <time>2000-01-02T03:23:53.000Z</time>
      </trkpt>
      <trkpt lat="46.05313" lon="6.81657">
        <ele>1656.1</ele>
        <time>2000-01-02T03:24:03.000Z</time>
      </trkpt>
      <trkpt lat="46.05311" lon="6.81647">
        <ele>1656</ele>
        <time>2000-01-02T03:24:13.000Z</time>
      </trkpt>
      <trkpt lat="46.05309" lon="6.81632">
        <ele>1657.9</ele>
        <time>2000-01-02T03:24:23.000Z</time>
      </trkpt>
      <trkpt lat="46.05309" lon="6.81623">
        <ele>1657.9</ele>
        <time>2000-01-02T03:24:33.000Z</time>
      </trkpt>
      <trkpt lat="46.0531" lon="6.81612">
        <ele>1656</ele>
        <time>2000-01-02T03:24:43.000Z</time>
      </trkpt>
      <trkpt lat="46.05313" lon="6.81596">
        <ele>1656.9</ele>
        <time>2000-01-02T03:24:53.000Z</time>
      </trkpt>
      <trkpt lat="46.05314" lon="6.81584">
        <ele>1657</ele>
        <time>2000-01-02T03:25:03.000Z</time>
      </trkpt>
      <trkpt lat="46.05314" lon="6.81576">
        <ele>1656.6</ele>
        <time>2000-01-02T03:25:13.000Z</time>
      </trkpt>
      <trkpt lat="46.05312" lon="6.81565">
        <ele>1656.5</ele>
        <time>2000-01-02T03:25:23.000Z</time>
      </trkpt>
      <trkpt lat="46.0531" lon="6.81549">
        <ele>1657</ele>
        <time>2000-01-02T03:25:33.000Z</time>
      </trkpt>
      <trkpt lat="46.05309" lon="6.81536">
        <ele>1655.9</ele>
        <time>2000-01-02T03:25:43.000Z</time>
      </trkpt>
      <trkpt lat="46.05309" lon="6.81524">
        <ele>1655.4</ele>
        <time>2000-01-02T03:25:53.000Z</time>
      </trkpt>
      <trkpt lat="46.05308" lon="6.81511">
        <ele>1655</ele>
        <time>2000-01-02T03:26:03.000Z</time>
      </trkpt>
      <trkpt lat="46.05307" lon="6.81502">
        <ele>1654.1</ele>
        <time>2000-01-02T03:26:13.000Z</time>
      </trkpt>
      <trkpt lat="46.05304" lon="6.81487">
        <ele>1653.7</ele>
        <time>2000-01-02T03:26:23.000Z</time>
      </trkpt>
      <trkpt lat="46.05302" lon="6.81478">
        <ele>1653</ele>
        <time>2000-01-02T03:26:33.000Z</time>
      </trkpt>
      <trkpt lat="46.05302" lon="6.81465">
        <ele>1653.4</ele>
        <time>2000-01-02T03:26:43.000Z</time>
      </trkpt>
      <trkpt lat="46.05303" lon="6.81454">
        <ele>1653.3</ele>
        <time>2000-01-02T03:26:53.000Z</time>
      </trkpt>
      <trkpt lat="46.05302" lon="6.81442">
        <ele>1653</ele>
        <time>2000-01-02T03:27:03.000Z</time>
      </trkpt>
      <trkpt lat="46.05302" lon="6.81429">
        <ele>1654.1</ele>
        <time>2000-01-02T03:27:13.000Z</time>
      </trkpt>
      <trkpt lat="46.05303" lon="6.81417">
        <ele>1654.4</ele>
        <time>2000-01-02T03:27:23.000Z</time>
      </trkpt>
      <trkpt lat="46.05304" lon="6.814">
        <ele>1654</ele>
        <time>2000-01-02T03:27:33.000Z</time>
      </trkpt>
      <trkpt lat="46.05303" lon="6.81385">
        <ele>1654.4</ele>
        <time>2000-01-02T03:27:43.000Z</time>
      </trkpt>
      <trkpt lat="46.05303" lon="6.81364">
        <ele>1654</ele>
        <time>2000-01-02T03:27:53.000Z</time>
      </trkpt>
      <trkpt lat="46.05303" lon="6.8135">
        <ele>1654.3</ele>
        <time>2000-01-02T03:28:03.000Z</time>
      </trkpt>
      <trkpt lat="46.053" lon="6.81337">
        <ele>1653</ele>
        <time>2000-01-02T03:28:13.000Z</time>
      </trkpt>
      <trkpt lat="46.05298" lon="6.81328">
        <ele>1653.8</ele>
        <time>2000-01-02T03:28:23.000Z</time>
      </trkpt>
      <trkpt lat="46.05295" lon="6.8132">
        <ele>1652.8</ele>
        <time>2000-01-02T03:28:33.000Z</time>
      </trkpt>
      <trkpt lat="46.05292" lon="6.81316">
        <ele>1652.5</ele>
        <time>2000-01-02T03:28:43.000Z</time>
      </trkpt>
      <trkpt lat="46.0529" lon="6.8131">
        <ele>1652</ele>
        <time>2000-01-02T03:28:53.000Z</time>
      </trkpt>
      <trkpt lat="46.05286" lon="6.81296">
        <ele>1650.5</ele>
        <time>2000-01-02T03:29:03.000Z</time>
      </trkpt>
      <trkpt lat="46.05281" lon="6.81278">
        <ele>1648</ele>
        <time>2000-01-02T03:29:13.000Z</time>
      </trkpt>
      <trkpt lat="46.05278" lon="6.8127">
        <ele>1649.1</ele>
        <time>2000-01-02T03:29:23.000Z</time>
      </trkpt>
      <trkpt lat="46.05275" lon="6.81263">
        <ele>1648.9</ele>
        <time>2000-01-02T03:29:33.000Z</time>
      </trkpt>
      <trkpt lat="46.05273" lon="6.81252">
        <ele>1648</ele>
        <time>2000-01-02T03:29:43.000Z</time>
      </trkpt>
      <trkpt lat="46.05271" lon="6.81242">
        <ele>1647.6</ele>
        <time>2000-01-02T03:29:53.000Z</time>
      </trkpt>
      <trkpt lat="46.05269" lon="6.81233">
        <ele>1647.2</ele>
        <time>2000-01-02T03:30:03.000Z</time>
      </trkpt>
      <trkpt lat="46.05267" lon="6.81218">
        <ele>1646</ele>
        <time>2000-01-02T03:30:13.000Z</time>
      </trkpt>
      <trkpt lat="46.05263" lon="6.81206">
        <ele>1645.7</ele>
        <time>2000-01-02T03:30:23.000Z</time>
      </trkpt>
      <trkpt lat="46.05259" lon="6.81187">
        <ele>1645</ele>
        <time>2000-01-02T03:30:33.000Z</time>
      </trkpt>
      <trkpt lat="46.05256" lon="6.81173">
        <ele>1643.9</ele>
        <time>2000-01-02T03:30:43.000Z</time>
      </trkpt>
      <trkpt lat="46.05253" lon="6.8116">
        <ele>1642</ele>
        <time>2000-01-02T03:30:53.000Z</time>
      </trkpt>
      <trkpt lat="46.05252" lon="6.81151">
        <ele>1642.1</ele>
        <time>2000-01-02T03:31:03.000Z</time>
      </trkpt>
      <trkpt lat="46.05249" lon="6.81145">
        <ele>1641.8</ele>
        <time>2000-01-02T03:31:13.000Z</time>
      </trkpt>
      <trkpt lat="46.05246" lon="6.8114">
        <ele>1641.6</ele>
        <time>2000-01-02T03:31:23.000Z</time>
      </trkpt>
      <trkpt lat="46.05245" lon="6.81134">
        <ele>1640</ele>
        <time>2000-01-02T03:31:33.000Z</time>
      </trkpt>
      <trkpt lat="46.05245" lon="6.81131">
        <ele>1640.7</ele>
        <time>2000-01-02T03:31:43.000Z</time>
      </trkpt>
      <trkpt lat="46.05249" lon="6.81123">
        <ele>1639.4</ele>
        <time>2000-01-02T03:31:53.000Z</time>
      </trkpt>
      <trkpt lat="46.05252" lon="6.81115">
        <ele>1638.2</ele>
        <time>2000-01-02T03:32:03.000Z</time>
      </trkpt>
      <trkpt lat="46.05254" lon="6.81103">
        <ele>1636</ele>
        <time>2000-01-02T03:32:13.000Z</time>
      </trkpt>
      <trkpt lat="46.05256" lon="6.81091">
        <ele>1634.8</ele>
        <time>2000-01-02T03:32:23.000Z</time>
      </trkpt>
      <trkpt lat="46.05256" lon="6.8108">
        <ele>1633.5</ele>
        <time>2000-01-02T03:32:33.000Z</time>
      </trkpt>
      <trkpt lat="46.05257" lon="6.81069">
        <ele>1632</ele>
        <time>2000-01-02T03:32:43.000Z</time>
      </trkpt>
      <trkpt lat="46.05261" lon="6.81061">
        <ele>1630.3</ele>
        <time>2000-01-02T03:32:53.000Z</time>
      </trkpt>
      <trkpt lat="46.05262" lon="6.81052">
        <ele>1629</ele>
        <time>2000-01-02T03:33:03.000Z</time>
      </trkpt>
      <trkpt lat="46.05264" lon="6.81045">
        <ele>1627.6</ele>
        <time>2000-01-02T03:33:13.000Z</time>
      </trkpt>
      <trkpt lat="46.05266" lon="6.81036">
        <ele>1626</ele>
        <time>2000-01-02T03:33:23.000Z</time>
      </trkpt>
      <trkpt lat="46.05268" lon="6.81027">
        <ele>1624.1</ele>
        <time>2000-01-02T03:33:33.000Z</time>
      </trkpt>
      <trkpt lat="46.05269" lon="6.81021">
        <ele>1623.3</ele>
        <time>2000-01-02T03:33:43.000Z</time>
      </trkpt>
      <trkpt lat="46.05275" lon="6.81009">
        <ele>1621</ele>
        <time>2000-01-02T03:33:53.000Z</time>
      </trkpt>
      <trkpt lat="46.05279" lon="6.80995">
        <ele>1618.1</ele>
        <time>2000-01-02T03:34:03.000Z</time>
      </trkpt>
      <trkpt lat="46.05282" lon="6.80985">
        <ele>1616.2</ele>
        <time>2000-01-02T03:34:13.000Z</time>
      </trkpt>
      <trkpt lat="46.05282" lon="6.8098">
        <ele>1620</ele>
        <time>2000-01-02T03:34:23.000Z</time>
      </trkpt>
      <trkpt lat="46.05281" lon="6.80976">
        <ele>1615.5</ele>
        <time>2000-01-02T03:34:33.000Z</time>
      </trkpt>
      <trkpt lat="46.05278" lon="6.80973">
        <ele>1616</ele>
        <time>2000-01-02T03:34:43.000Z</time>
      </trkpt>
      <trkpt lat="46.05271" lon="6.80967">
        <ele>1617.8</ele>
        <time>2000-01-02T03:34:53.000Z</time>
      </trkpt>
      <trkpt lat="46.05265" lon="6.80964">
        <ele>1620</ele>
        <time>2000-01-02T03:35:03.000Z</time>
      </trkpt>
      <trkpt lat="46.05263" lon="6.80961">
        <ele>1620.2</ele>
        <time>2000-01-02T03:35:13.000Z</time>
      </trkpt>
      <trkpt lat="46.05262" lon="6.80955">
        <ele>1620.3</ele>
        <time>2000-01-02T03:35:23.000Z</time>
      </trkpt>
      <trkpt lat="46.05262" lon="6.80951">
        <ele>1620.1</ele>
        <time>2000-01-02T03:35:33.000Z</time>
      </trkpt>
      <trkpt lat="46.05263" lon="6.80944">
        <ele>1619.3</ele>
        <time>2000-01-02T03:35:43.000Z</time>
      </trkpt>
      <trkpt lat="46.05269" lon="6.80933">
        <ele>1619</ele>
        <time>2000-01-02T03:35:53.000Z</time>
      </trkpt>
      <trkpt lat="46.05274" lon="6.80921">
        <ele>1611.6</ele>
        <time>2000-01-02T03:36:03.000Z</time>
      </trkpt>
      <trkpt lat="46.05279" lon="6.8091">
        <ele>1607.7</ele>
        <time>2000-01-02T03:36:13.000Z</time>
      </trkpt>
      <trkpt lat="46.05283" lon="6.80893">
        <ele>1603</ele>
        <time>2000-01-02T03:36:23.000Z</time>
      </trkpt>
      <trkpt lat="46.05288" lon="6.80879">
        <ele>1600.1</ele>
        <time>2000-01-02T03:36:33.000Z</time>
      </trkpt>
      <trkpt lat="46.05292" lon="6.80861">
        <ele>1598</ele>
        <time>2000-01-02T03:36:43.000Z</time>
      </trkpt>
      <trkpt lat="46.05297" lon="6.80849">
        <ele>1595.2</ele>
        <time>2000-01-02T03:36:53.000Z</time>
      </trkpt>
      <trkpt lat="46.05301" lon="6.80836">
        <ele>1594</ele>
        <time>2000-01-02T03:37:03.000Z</time>
      </trkpt>
      <trkpt lat="46.05307" lon="6.80826">
        <ele>1590.2</ele>
        <time>2000-01-02T03:37:13.000Z</time>
      </trkpt>
      <trkpt lat="46.05312" lon="6.80818">
        <ele>1587.6</ele>
        <time>2000-01-02T03:37:23.000Z</time>
      </trkpt>
      <trkpt lat="46.05319" lon="6.80809">
        <ele>1587</ele>
        <time>2000-01-02T03:37:33.000Z</time>
      </trkpt>
      <trkpt lat="46.05324" lon="6.80799">
        <ele>1581.5</ele>
        <time>2000-01-02T03:37:43.000Z</time>
      </trkpt>
      <trkpt lat="46.05328" lon="6.80786">
        <ele>1579.4</ele>
        <time>2000-01-02T03:37:53.000Z</time>
      </trkpt>
      <trkpt lat="46.05329" lon="6.80774">
        <ele>1582</ele>
        <time>2000-01-02T03:38:03.000Z</time>
      </trkpt>
      <trkpt lat="46.05331" lon="6.80761">
        <ele>1577.4</ele>
        <time>2000-01-02T03:38:13.000Z</time>
      </trkpt>
      <trkpt lat="46.05334" lon="6.80747">
        <ele>1576</ele>
        <time>2000-01-02T03:38:23.000Z</time>
      </trkpt>
      <trkpt lat="46.05336" lon="6.80733">
        <ele>1574.3</ele>
        <time>2000-01-02T03:38:33.000Z</time>
      </trkpt>
      <trkpt lat="46.05338" lon="6.80723">
        <ele>1573.2</ele>
        <time>2000-01-02T03:38:43.000Z</time>
      </trkpt>
      <trkpt lat="46.05337" lon="6.80715">
        <ele>1575</ele>
        <time>2000-01-02T03:38:53.000Z</time>
      </trkpt>
      <trkpt lat="46.05335" lon="6.80706">
        <ele>1573.2</ele>
        <time>2000-01-02T03:39:03.000Z</time>
      </trkpt>
      <trkpt lat="46.05335" lon="6.80697">
        <ele>1572.6</ele>
        <time>2000-01-02T03:39:13.000Z</time>
      </trkpt>
      <trkpt lat="46.05337" lon="6.80688">
        <ele>1572</ele>
        <time>2000-01-02T03:39:23.000Z</time>
      </trkpt>
      <trkpt lat="46.05342" lon="6.80676">
        <ele>1567.9</ele>
        <time>2000-01-02T03:39:33.000Z</time>
      </trkpt>
      <trkpt lat="46.05347" lon="6.80663">
        <ele>1567</ele>
        <time>2000-01-02T03:39:43.000Z</time>
      </trkpt>
      <trkpt lat="46.05349" lon="6.80647">
        <ele>1561.8</ele>
        <time>2000-01-02T03:39:53.000Z</time>
      </trkpt>
      <trkpt lat="46.05351" lon="6.80636">
        <ele>1559</ele>
        <time>2000-01-02T03:40:03.000Z</time>
      </trkpt>
      <trkpt lat="46.05351" lon="6.80628">
        <ele>1558.7</ele>
        <time>2000-01-02T03:40:13.000Z</time>
      </trkpt>
      <trkpt lat="46.05351" lon="6.80612">
        <ele>1556.7</ele>
        <time>2000-01-02T03:40:23.000Z</time>
      </trkpt>
      <trkpt lat="46.05352" lon="6.80599">
        <ele>1553</ele>
        <time>2000-01-02T03:40:33.000Z</time>
      </trkpt>
      <trkpt lat="46.05355" lon="6.80585">
        <ele>1551.4</ele>
        <time>2000-01-02T03:40:43.000Z</time>
      </trkpt>
      <trkpt lat="46.05358" lon="6.8057">
        <ele>1551</ele>
        <time>2000-01-02T03:40:53.000Z</time>
      </trkpt>
      <trkpt lat="46.05361" lon="6.80563">
        <ele>1545.4</ele>
        <time>2000-01-02T03:41:03.000Z</time>
      </trkpt>
      <trkpt lat="46.05365" lon="6.80558">
        <ele>1542.9</ele>
        <time>2000-01-02T03:41:13.000Z</time>
      </trkpt>
      <trkpt lat="46.05369" lon="6.80557">
        <ele>1541.1</ele>
        <time>2000-01-02T03:41:23.000Z</time>
      </trkpt>
      <trkpt lat="46.05373" lon="6.80558">
        <ele>1545</ele>
        <time>2000-01-02T03:41:33.000Z</time>
      </trkpt>
      <trkpt lat="46.05376" lon="6.80563">
        <ele>1539.4</ele>
        <time>2000-01-02T03:41:43.000Z</time>
      </trkpt>
      <trkpt lat="46.05379" lon="6.80571">
        <ele>1539.7</ele>
        <time>2000-01-02T03:41:53.000Z</time>
      </trkpt>
      <trkpt lat="46.05382" lon="6.8058">
        <ele>1540.1</ele>
        <time>2000-01-02T03:42:03.000Z</time>
      </trkpt>
      <trkpt lat="46.05386" lon="6.80586">
        <ele>1540</ele>
        <time>2000-01-02T03:42:13.000Z</time>
      </trkpt>
      <trkpt lat="46.05394" lon="6.80591">
        <ele>1537.2</ele>
        <time>2000-01-02T03:42:23.000Z</time>
      </trkpt>
      <trkpt lat="46.05402" lon="6.80601">
        <ele>1537</ele>
        <time>2000-01-02T03:42:33.000Z</time>
      </trkpt>
      <trkpt lat="46.05406" lon="6.80605">
        <ele>1534.5</ele>
        <time>2000-01-02T03:42:43.000Z</time>
      </trkpt>
      <trkpt lat="46.05413" lon="6.8061">
        <ele>1532.3</ele>
        <time>2000-01-02T03:42:53.000Z</time>
      </trkpt>
      <trkpt lat="46.05422" lon="6.8061">
        <ele>1529</ele>
        <time>2000-01-02T03:43:03.000Z</time>
      </trkpt>
      <trkpt lat="46.05433" lon="6.80609">
        <ele>1524.4</ele>
        <time>2000-01-02T03:43:13.000Z</time>
      </trkpt>
      <trkpt lat="46.05443" lon="6.80604">
        <ele>1520</ele>
        <time>2000-01-02T03:43:23.000Z</time>
      </trkpt>
      <trkpt lat="46.05448" lon="6.806">
        <ele>1518.2</ele>
        <time>2000-01-02T03:43:33.000Z</time>
      </trkpt>
      <trkpt lat="46.05449" lon="6.80595">
        <ele>1517.6</ele>
        <time>2000-01-02T03:43:43.000Z</time>
      </trkpt>
      <trkpt lat="46.05448" lon="6.80587">
        <ele>1517.7</ele>
        <time>2000-01-02T03:43:53.000Z</time>
      </trkpt>
      <trkpt lat="46.05446" lon="6.8058">
        <ele>1519</ele>
        <time>2000-01-02T03:44:03.000Z</time>
      </trkpt>
      <trkpt lat="46.05445" lon="6.80574">
        <ele>1517.8</ele>
        <time>2000-01-02T03:44:13.000Z</time>
      </trkpt>
      <trkpt lat="46.05445" lon="6.8057">
        <ele>1517.3</ele>
        <time>2000-01-02T03:44:23.000Z</time>
      </trkpt>
      <trkpt lat="46.05449" lon="6.80562">
        <ele>1515</ele>
        <time>2000-01-02T03:44:33.000Z</time>
      </trkpt>
      <trkpt lat="46.05456" lon="6.80552">
        <ele>1512</ele>
        <time>2000-01-02T03:44:43.000Z</time>
      </trkpt>
      <trkpt lat="46.05459" lon="6.80547">
        <ele>1509.1</ele>
        <time>2000-01-02T03:44:53.000Z</time>
      </trkpt>
      <trkpt lat="46.0546" lon="6.80545">
        <ele>1508.4</ele>
        <time>2000-01-02T03:45:03.000Z</time>
      </trkpt>
      <trkpt lat="46.05466" lon="6.80536">
        <ele>1505</ele>
        <time>2000-01-02T03:45:13.000Z</time>
      </trkpt>
      <trkpt lat="46.0547" lon="6.80528">
        <ele>1500</ele>
        <time>2000-01-02T03:45:23.000Z</time>
      </trkpt>
      <trkpt lat="46.05473" lon="6.80521">
        <ele>1500.1</ele>
        <time>2000-01-02T03:45:33.000Z</time>
      </trkpt>
      <trkpt lat="46.05473" lon="6.80518">
        <ele>1499.3</ele>
        <time>2000-01-02T03:45:43.000Z</time>
      </trkpt>
      <trkpt lat="46.05475" lon="6.80512">
        <ele>1497.4</ele>
        <time>2000-01-02T03:45:53.000Z</time>
      </trkpt>
      <trkpt lat="46.05474" lon="6.80505">
        <ele>1495.9</ele>
        <time>2000-01-02T03:46:03.000Z</time>
      </trkpt>
      <trkpt lat="46.0547" lon="6.805">
        <ele>1498</ele>
        <time>2000-01-02T03:46:13.000Z</time>
      </trkpt>
      <trkpt lat="46.05462" lon="6.80492">
        <ele>1494.5</ele>
        <time>2000-01-02T03:46:23.000Z</time>
      </trkpt>
      <trkpt lat="46.05455" lon="6.80483">
        <ele>1492</ele>
        <time>2000-01-02T03:46:33.000Z</time>
      </trkpt>
      <trkpt lat="46.05449" lon="6.80475">
        <ele>1490.6</ele>
        <time>2000-01-02T03:46:43.000Z</time>
      </trkpt>
      <trkpt lat="46.05445" lon="6.8047">
        <ele>1489.2</ele>
        <time>2000-01-02T03:46:53.000Z</time>
      </trkpt>
      <trkpt lat="46.05439" lon="6.80467">
        <ele>1487</ele>
        <time>2000-01-02T03:47:03.000Z</time>
      </trkpt>
      <trkpt lat="46.05433" lon="6.80463">
        <ele>1488.5</ele>
        <time>2000-01-02T03:47:13.000Z</time>
      </trkpt>
      <trkpt lat="46.05425" lon="6.80458">
        <ele>1487.8</ele>
        <time>2000-01-02T03:47:23.000Z</time>
      </trkpt>
      <trkpt lat="46.05416" lon="6.80453">
        <ele>1487</ele>
        <time>2000-01-02T03:47:33.000Z</time>
      </trkpt>
      <trkpt lat="46.05412" lon="6.80449">
        <ele>1487.2</ele>
        <time>2000-01-02T03:47:43.000Z</time>
      </trkpt>
      <trkpt lat="46.05407" lon="6.80443">
        <ele>1486.7</ele>
        <time>2000-01-02T03:47:53.000Z</time>
      </trkpt>
      <trkpt lat="46.05403" lon="6.80437">
        <ele>1486.4</ele>
        <time>2000-01-02T03:48:03.000Z</time>
      </trkpt>
      <trkpt lat="46.05399" lon="6.80425">
        <ele>1486</ele>
        <time>2000-01-02T03:48:13.000Z</time>
      </trkpt>
      <trkpt lat="46.05398" lon="6.80416">
        <ele>1482.2</ele>
        <time>2000-01-02T03:48:23.000Z</time>
      </trkpt>
      <trkpt lat="46.05398" lon="6.80408">
        <ele>1480.6</ele>
        <time>2000-01-02T03:48:33.000Z</time>
      </trkpt>
      <trkpt lat="46.05396" lon="6.80395">
        <ele>1479</ele>
        <time>2000-01-02T03:48:43.000Z</time>
      </trkpt>
      <trkpt lat="46.05393" lon="6.80385">
        <ele>1477.2</ele>
        <time>2000-01-02T03:48:53.000Z</time>
      </trkpt>
      <trkpt lat="46.05391" lon="6.80376">
        <ele>1475.8</ele>
        <time>2000-01-02T03:49:03.000Z</time>
      </trkpt>
      <trkpt lat="46.05389" lon="6.80363">
        <ele>1474</ele>
        <time>2000-01-02T03:49:13.000Z</time>
      </trkpt>
      <trkpt lat="46.05385" lon="6.80352">
        <ele>1472</ele>
        <time>2000-01-02T03:49:23.000Z</time>
      </trkpt>
      <trkpt lat="46.05379" lon="6.80342">
        <ele>1471.1</ele>
        <time>2000-01-02T03:49:33.000Z</time>
      </trkpt>
      <trkpt lat="46.05376" lon="6.80335">
        <ele>1470</ele>
        <time>2000-01-02T03:49:43.000Z</time>
      </trkpt>
      <trkpt lat="46.05374" lon="6.80328">
        <ele>1469.1</ele>
        <time>2000-01-02T03:49:53.000Z</time>
      </trkpt>
      <trkpt lat="46.05374" lon="6.80327">
        <ele>1468.8</ele>
        <time>2000-01-02T03:50:03.000Z</time>
      </trkpt>
      <trkpt lat="46.05372" lon="6.80314">
        <ele>1466.3</ele>
        <time>2000-01-02T03:50:13.000Z</time>
      </trkpt>
      <trkpt lat="46.05369" lon="6.80298">
        <ele>1463</ele>
        <time>2000-01-02T03:50:23.000Z</time>
      </trkpt>
      <trkpt lat="46.05366" lon="6.80286">
        <ele>1460.4</ele>
        <time>2000-01-02T03:50:33.000Z</time>
      </trkpt>
      <trkpt lat="46.0536" lon="6.80271">
        <ele>1459</ele>
        <time>2000-01-02T03:50:43.000Z</time>
      </trkpt>
      <trkpt lat="46.05356" lon="6.80257">
        <ele>1455.5</ele>
        <time>2000-01-02T03:50:53.000Z</time>
      </trkpt>
      <trkpt lat="46.05352" lon="6.80234">
        <ele>1449</ele>
        <time>2000-01-02T03:51:03.000Z</time>
      </trkpt>
      <trkpt lat="46.05349" lon="6.80213">
        <ele>1446.9</ele>
        <time>2000-01-02T03:51:13.000Z</time>
      </trkpt>
      <trkpt lat="46.05346" lon="6.80192">
        <ele>1444</ele>
        <time>2000-01-02T03:51:23.000Z</time>
      </trkpt>
      <trkpt lat="46.05346" lon="6.80184">
        <ele>1442.2</ele>
        <time>2000-01-02T03:51:33.000Z</time>
      </trkpt>
      <trkpt lat="46.05348" lon="6.80171">
        <ele>1439.5</ele>
        <time>2000-01-02T03:51:43.000Z</time>
      </trkpt>
      <trkpt lat="46.05351" lon="6.80157">
        <ele>1435</ele>
        <time>2000-01-02T03:51:53.000Z</time>
      </trkpt>
      <trkpt lat="46.05354" lon="6.80146">
        <ele>1434.1</ele>
        <time>2000-01-02T03:52:03.000Z</time>
      </trkpt>
      <trkpt lat="46.05353" lon="6.80137">
        <ele>1433</ele>
        <time>2000-01-02T03:52:13.000Z</time>
      </trkpt>
      <trkpt lat="46.05352" lon="6.80128">
        <ele>1434</ele>
        <time>2000-01-02T03:52:23.000Z</time>
      </trkpt>
      <trkpt lat="46.05348" lon="6.80121">
        <ele>1431.6</ele>
        <time>2000-01-02T03:52:33.000Z</time>
      </trkpt>
      <trkpt lat="46.05342" lon="6.80115">
        <ele>1432.2</ele>
        <time>2000-01-02T03:52:43.000Z</time>
      </trkpt>
      <trkpt lat="46.05338" lon="6.80108">
        <ele>1433</ele>
        <time>2000-01-02T03:52:53.000Z</time>
      </trkpt>
      <trkpt lat="46.05336" lon="6.80099">
        <ele>1431.5</ele>
        <time>2000-01-02T03:53:03.000Z</time>
      </trkpt>
      <trkpt lat="46.05334" lon="6.80086">
        <ele>1430.2</ele>
        <time>2000-01-02T03:53:13.000Z</time>
      </trkpt>
      <trkpt lat="46.05329" lon="6.80078">
        <ele>1429</ele>
        <time>2000-01-02T03:53:23.000Z</time>
      </trkpt>
      <trkpt lat="46.05325" lon="6.8007">
        <ele>1428.9</ele>
        <time>2000-01-02T03:53:33.000Z</time>
      </trkpt>
      <trkpt lat="46.0532" lon="6.80063">
        <ele>1428.5</ele>
        <time>2000-01-02T03:53:43.000Z</time>
      </trkpt>
      <trkpt lat="46.05318" lon="6.80056">
        <ele>1427</ele>
        <time>2000-01-02T03:53:53.000Z</time>
      </trkpt>
      <trkpt lat="46.05317" lon="6.80053">
        <ele>1426.9</ele>
        <time>2000-01-02T03:54:03.000Z</time>
      </trkpt>
      <trkpt lat="46.05316" lon="6.80046">
        <ele>1425.5</ele>
        <time>2000-01-02T03:54:13.000Z</time>
      </trkpt>
      <trkpt lat="46.05315" lon="6.80038">
        <ele>1423.8</ele>
        <time>2000-01-02T03:54:23.000Z</time>
      </trkpt>
      <trkpt lat="46.05313" lon="6.80033">
        <ele>1422.9</ele>
        <time>2000-01-02T03:54:33.000Z</time>
      </trkpt>
      <trkpt lat="46.05308" lon="6.80028">
        <ele>1422</ele>
        <time>2000-01-02T03:54:43.000Z</time>
      </trkpt>
      <trkpt lat="46.05303" lon="6.80026">
        <ele>1423.1</ele>
        <time>2000-01-02T03:54:53.000Z</time>
      </trkpt>
      <trkpt lat="46.05299" lon="6.80023">
        <ele>1423.2</ele>
        <time>2000-01-02T03:55:03.000Z</time>
      </trkpt>
      <trkpt lat="46.05294" lon="6.80017">
        <ele>1422.6</ele>
        <time>2000-01-02T03:55:13.000Z</time>
      </trkpt>
      <trkpt lat="46.05292" lon="6.80012">
        <ele>1420</ele>
        <time>2000-01-02T03:55:23.000Z</time>
      </trkpt>
      <trkpt lat="46.05289" lon="6.80002">
        <ele>1419.5</ele>
        <time>2000-01-02T03:55:33.000Z</time>
      </trkpt>
      <trkpt lat="46.05285" lon="6.79994">
        <ele>1418.1</ele>
        <time>2000-01-02T03:55:43.000Z</time>
      </trkpt>
      <trkpt lat="46.0528" lon="6.79988">
        <ele>1418</ele>
        <time>2000-01-02T03:55:53.000Z</time>
      </trkpt>
      <trkpt lat="46.05272" lon="6.7998">
        <ele>1417.1</ele>
        <time>2000-01-02T03:56:03.000Z</time>
      </trkpt>
      <trkpt lat="46.05264" lon="6.79971">
        <ele>1416</ele>
        <time>2000-01-02T03:56:13.000Z</time>
      </trkpt>
      <trkpt lat="46.05259" lon="6.79961">
        <ele>1413.5</ele>
        <time>2000-01-02T03:56:23.000Z</time>
      </trkpt>
      <trkpt lat="46.05252" lon="6.79949">
        <ele>1407</ele>
        <time>2000-01-02T03:56:33.000Z</time>
      </trkpt>
      <trkpt lat="46.05247" lon="6.79942">
        <ele>1408</ele>
        <time>2000-01-02T03:56:43.000Z</time>
      </trkpt>
      <trkpt lat="46.05238" lon="6.79935">
        <ele>1405.1</ele>
        <time>2000-01-02T03:56:53.000Z</time>
      </trkpt>
      <trkpt lat="46.05232" lon="6.79934">
        <ele>1406</ele>
        <time>2000-01-02T03:57:03.000Z</time>
      </trkpt>
      <trkpt lat="46.05223" lon="6.79937">
        <ele>1405.8</ele>
        <time>2000-01-02T03:57:13.000Z</time>
      </trkpt>
      <trkpt lat="46.05215" lon="6.79942">
        <ele>1407.4</ele>
        <time>2000-01-02T03:57:23.000Z</time>
      </trkpt>
      <trkpt lat="46.05209" lon="6.79945">
        <ele>1405</ele>
        <time>2000-01-02T03:57:33.000Z</time>
      </trkpt>
      <trkpt lat="46.05201" lon="6.79945">
        <ele>1407.7</ele>
        <time>2000-01-02T03:57:43.000Z</time>
      </trkpt>
      <trkpt lat="46.05193" lon="6.79941">
        <ele>1405.3</ele>
        <time>2000-01-02T03:57:53.000Z</time>
      </trkpt>
      <trkpt lat="46.0518" lon="6.79936">
        <ele>1399</ele>
        <time>2000-01-02T03:58:03.000Z</time>
      </trkpt>
      <trkpt lat="46.05174" lon="6.79933">
        <ele>1400.5</ele>
        <time>2000-01-02T03:58:13.000Z</time>
      </trkpt>
      <trkpt lat="46.05168" lon="6.79927">
        <ele>1397.5</ele>
        <time>2000-01-02T03:58:23.000Z</time>
      </trkpt>
      <trkpt lat="46.05162" lon="6.79927">
        <ele>1397</ele>
        <time>2000-01-02T03:58:33.000Z</time>
      </trkpt>
      <trkpt lat="46.05154" lon="6.79927">
        <ele>1398.2</ele>
        <time>2000-01-02T03:58:43.000Z</time>
      </trkpt>
      <trkpt lat="46.05147" lon="6.79924">
        <ele>1397.4</ele>
        <time>2000-01-02T03:58:53.000Z</time>
      </trkpt>
      <trkpt lat="46.0514" lon="6.79921">
        <ele>1396</ele>
        <time>2000-01-02T03:59:03.000Z</time>
      </trkpt>
      <trkpt lat="46.0513" lon="6.79917">
        <ele>1396.4</ele>
        <time>2000-01-02T03:59:13.000Z</time>
      </trkpt>
      <trkpt lat="46.05121" lon="6.79915">
        <ele>1394</ele>
        <time>2000-01-02T03:59:23.000Z</time>
      </trkpt>
      <trkpt lat="46.05113" lon="6.79912">
        <ele>1397</ele>
        <time>2000-01-02T03:59:33.000Z</time>
      </trkpt>
      <trkpt lat="46.05106" lon="6.79907">
        <ele>1396.5</ele>
        <time>2000-01-02T03:59:43.000Z</time>
      </trkpt>
      <trkpt lat="46.05098" lon="6.79898">
        <ele>1393</ele>
        <time>2000-01-02T03:59:53.000Z</time>
      </trkpt>
      <trkpt lat="46.05094" lon="6.79888">
        <ele>1392.4</ele>
        <time>2000-01-02T04:00:03.000Z</time>
      </trkpt>
      <trkpt lat="46.05089" lon="6.79878">
        <ele>1390.2</ele>
        <time>2000-01-02T04:00:13.000Z</time>
      </trkpt>
      <trkpt lat="46.05083" lon="6.79873">
        <ele>1389</ele>
        <time>2000-01-02T04:00:23.000Z</time>
      </trkpt>
      <trkpt lat="46.05073" lon="6.79869">
        <ele>1389.3</ele>
        <time>2000-01-02T04:00:33.000Z</time>
      </trkpt>
      <trkpt lat="46.05058" lon="6.79861">
        <ele>1386</ele>
        <time>2000-01-02T04:00:43.000Z</time>
      </trkpt>
      <trkpt lat="46.05044" lon="6.79855">
        <ele>1385</ele>
        <time>2000-01-02T04:00:53.000Z</time>
      </trkpt>
      <trkpt lat="46.05027" lon="6.79847">
        <ele>1378</ele>
        <time>2000-01-02T04:01:03.000Z</time>
      </trkpt>
      <trkpt lat="46.05015" lon="6.79841">
        <ele>1378</ele>
        <time>2000-01-02T04:01:13.000Z</time>
      </trkpt>
      <trkpt lat="46.05007" lon="6.79836">
        <ele>1371</ele>
        <time>2000-01-02T04:01:23.000Z</time>
      </trkpt>
      <trkpt lat="46.04998" lon="6.7983">
        <ele>1372.6</ele>
        <time>2000-01-02T04:01:33.000Z</time>
      </trkpt>
      <trkpt lat="46.04991" lon="6.79824">
        <ele>1370</ele>
        <time>2000-01-02T04:01:43.000Z</time>
      </trkpt>
      <trkpt lat="46.04976" lon="6.79813">
        <ele>1365</ele>
        <time>2000-01-02T04:01:53.000Z</time>
      </trkpt>
      <trkpt lat="46.04966" lon="6.79803">
        <ele>1362.3</ele>
        <time>2000-01-02T04:02:03.000Z</time>
      </trkpt>
      <trkpt lat="46.04961" lon="6.79799">
        <ele>1362.2</ele>
        <time>2000-01-02T04:02:13.000Z</time>
      </trkpt>
      <trkpt lat="46.04956" lon="6.79798">
        <ele>1368</ele>
        <time>2000-01-02T04:02:23.000Z</time>
      </trkpt>
      <trkpt lat="46.04951" lon="6.79798">
        <ele>1364.3</ele>
        <time>2000-01-02T04:02:33.000Z</time>
      </trkpt>
      <trkpt lat="46.04945" lon="6.79799">
        <ele>1365.9</ele>
        <time>2000-01-02T04:02:43.000Z</time>
      </trkpt>
      <trkpt lat="46.0494" lon="6.79802">
        <ele>1369.4</ele>
        <time>2000-01-02T04:02:53.000Z</time>
      </trkpt>
      <trkpt lat="46.04936" lon="6.79803">
        <ele>1371</ele>
        <time>2000-01-02T04:03:03.000Z</time>
      </trkpt>
      <trkpt lat="46.04932" lon="6.798">
        <ele>1374.6</ele>
        <time>2000-01-02T04:03:13.000Z</time>
      </trkpt>
      <trkpt lat="46.04931" lon="6.79796">
        <ele>1375.4</ele>
        <time>2000-01-02T04:03:23.000Z</time>
      </trkpt>
      <trkpt lat="46.0493" lon="6.7979">
        <ele>1376.2</ele>
        <time>2000-01-02T04:03:33.000Z</time>
      </trkpt>
      <trkpt lat="46.0493" lon="6.79784">
        <ele>1376.4</ele>
        <time>2000-01-02T04:03:43.000Z</time>
      </trkpt>
      <trkpt lat="46.04932" lon="6.79779">
        <ele>1376</ele>
        <time>2000-01-02T04:03:53.000Z</time>
      </trkpt>
      <trkpt lat="46.04934" lon="6.79773">
        <ele>1373.4</ele>
        <time>2000-01-02T04:04:03.000Z</time>
      </trkpt>
      <trkpt lat="46.04935" lon="6.79767">
        <ele>1373.1</ele>
        <time>2000-01-02T04:04:13.000Z</time>
      </trkpt>
      <trkpt lat="46.04935" lon="6.79757">
        <ele>1374.4</ele>
        <time>2000-01-02T04:04:23.000Z</time>
      </trkpt>
      <trkpt lat="46.04938" lon="6.79743">
        <ele>1377</ele>
        <time>2000-01-02T04:04:33.000Z</time>
      </trkpt>
      <trkpt lat="46.04942" lon="6.7973">
        <ele>1369.9</ele>
        <time>2000-01-02T04:04:43.000Z</time>
      </trkpt>
      <trkpt lat="46.04943" lon="6.79718">
        <ele>1370.4</ele>
        <time>2000-01-02T04:04:53.000Z</time>
      </trkpt>
      <trkpt lat="46.04944" lon="6.79708">
        <ele>1378</ele>
        <time>2000-01-02T04:05:03.000Z</time>
      </trkpt>
      <trkpt lat="46.04943" lon="6.797">
        <ele>1373.5</ele>
        <time>2000-01-02T04:05:13.000Z</time>
      </trkpt>
      <trkpt lat="46.04944" lon="6.79693">
        <ele>1373.7</ele>
        <time>2000-01-02T04:05:23.000Z</time>
      </trkpt>
      <trkpt lat="46.04945" lon="6.79684">
        <ele>1374.3</ele>
        <time>2000-01-02T04:05:33.000Z</time>
      </trkpt>
      <trkpt lat="46.04947" lon="6.79673">
        <ele>1376</ele>
        <time>2000-01-02T04:05:43.000Z</time>
      </trkpt>
      <trkpt lat="46.04949" lon="6.79664">
        <ele>1373.5</ele>
        <time>2000-01-02T04:05:53.000Z</time>
      </trkpt>
      <trkpt lat="46.04952" lon="6.79654">
        <ele>1371.9</ele>
        <time>2000-01-02T04:06:03.000Z</time>
      </trkpt>
      <trkpt lat="46.04956" lon="6.79647">
        <ele>1374</ele>
        <time>2000-01-02T04:06:13.000Z</time>
      </trkpt>
      <trkpt lat="46.04961" lon="6.79638">
        <ele>1365.4</ele>
        <time>2000-01-02T04:06:23.000Z</time>
      </trkpt>
      <trkpt lat="46.04965" lon="6.79629">
        <ele>1361.9</ele>
        <time>2000-01-02T04:06:33.000Z</time>
      </trkpt>
      <trkpt lat="46.04966" lon="6.79621">
        <ele>1368</ele>
        <time>2000-01-02T04:06:43.000Z</time>
      </trkpt>
      <trkpt lat="46.04966" lon="6.79611">
        <ele>1362</ele>
        <time>2000-01-02T04:06:53.000Z</time>
      </trkpt>
      <trkpt lat="46.04964" lon="6.79594">
        <ele>1370</ele>
        <time>2000-01-02T04:07:03.000Z</time>
      </trkpt>
      <trkpt lat="46.04961" lon="6.79583">
        <ele>1365.9</ele>
        <time>2000-01-02T04:07:13.000Z</time>
      </trkpt>
      <trkpt lat="46.04959" lon="6.79567">
        <ele>1369</ele>
        <time>2000-01-02T04:07:23.000Z</time>
      </trkpt>
      <trkpt lat="46.04956" lon="6.79552">
        <ele>1367.8</ele>
        <time>2000-01-02T04:07:33.000Z</time>
      </trkpt>
      <trkpt lat="46.04955" lon="6.79539">
        <ele>1369</ele>
        <time>2000-01-02T04:07:43.000Z</time>
      </trkpt>
      <trkpt lat="46.04955" lon="6.79528">
        <ele>1366.1</ele>
        <time>2000-01-02T04:07:53.000Z</time>
      </trkpt>
      <trkpt lat="46.04955" lon="6.79513">
        <ele>1365.1</ele>
        <time>2000-01-02T04:08:03.000Z</time>
      </trkpt>
      <trkpt lat="46.04956" lon="6.79492">
        <ele>1368</ele>
        <time>2000-01-02T04:08:13.000Z</time>
      </trkpt>
      <trkpt lat="46.04957" lon="6.7948">
        <ele>1361.9</ele>
        <time>2000-01-02T04:08:23.000Z</time>
      </trkpt>
      <trkpt lat="46.04959" lon="6.79464">
        <ele>1367</ele>
        <time>2000-01-02T04:08:33.000Z</time>
      </trkpt>
      <trkpt lat="46.04962" lon="6.79453">
        <ele>1359.2</ele>
        <time>2000-01-02T04:08:43.000Z</time>
      </trkpt>
      <trkpt lat="46.04965" lon="6.79445">
        <ele>1357.7</ele>
        <time>2000-01-02T04:08:53.000Z</time>
      </trkpt>
      <trkpt lat="46.04967" lon="6.79437">
        <ele>1363</ele>
        <time>2000-01-02T04:09:03.000Z</time>
      </trkpt>
      <trkpt lat="46.0497" lon="6.79429">
        <ele>1356.4</ele>
        <time>2000-01-02T04:09:13.000Z</time>
      </trkpt>
      <trkpt lat="46.04974" lon="6.79419">
        <ele>1355.3</ele>
        <time>2000-01-02T04:09:23.000Z</time>
      </trkpt>
      <trkpt lat="46.04976" lon="6.79409">
        <ele>1360</ele>
        <time>2000-01-02T04:09:33.000Z</time>
      </trkpt>
      <trkpt lat="46.04978" lon="6.79396">
        <ele>1355.2</ele>
        <time>2000-01-02T04:09:43.000Z</time>
      </trkpt>
      <trkpt lat="46.04982" lon="6.79384">
        <ele>1353.5</ele>
        <time>2000-01-02T04:09:53.000Z</time>
      </trkpt>
      <trkpt lat="46.04984" lon="6.79373">
        <ele>1358</ele>
        <time>2000-01-02T04:10:03.000Z</time>
      </trkpt>
      <trkpt lat="46.04984" lon="6.79367">
        <ele>1351.7</ele>
        <time>2000-01-02T04:10:13.000Z</time>
      </trkpt>
      <trkpt lat="46.04982" lon="6.79361">
        <ele>1352.4</ele>
        <time>2000-01-02T04:10:23.000Z</time>
      </trkpt>
      <trkpt lat="46.04976" lon="6.79354">
        <ele>1353.5</ele>
        <time>2000-01-02T04:10:33.000Z</time>
      </trkpt>
      <trkpt lat="46.04972" lon="6.79351">
        <ele>1357</ele>
        <time>2000-01-02T04:10:43.000Z</time>
      </trkpt>
      <trkpt lat="46.04962" lon="6.79344">
        <ele>1356.7</ele>
        <time>2000-01-02T04:10:53.000Z</time>
      </trkpt>
      <trkpt lat="46.04959" lon="6.79341">
        <ele>1357.2</ele>
        <time>2000-01-02T04:11:03.000Z</time>
      </trkpt>
      <trkpt lat="46.04952" lon="6.79335">
        <ele>1357</ele>
        <time>2000-01-02T04:11:13.000Z</time>
      </trkpt>
      <trkpt lat="46.04946" lon="6.79326">
        <ele>1358</ele>
        <time>2000-01-02T04:11:23.000Z</time>
      </trkpt>
      <trkpt lat="46.04943" lon="6.7932">
        <ele>1357.1</ele>
        <time>2000-01-02T04:11:33.000Z</time>
      </trkpt>
      <trkpt lat="46.04938" lon="6.79313">
        <ele>1357</ele>
        <time>2000-01-02T04:11:43.000Z</time>
      </trkpt>
      <trkpt lat="46.04931" lon="6.79304">
        <ele>1355.3</ele>
        <time>2000-01-02T04:11:53.000Z</time>
      </trkpt>
      <trkpt lat="46.04924" lon="6.79294">
        <ele>1354</ele>
        <time>2000-01-02T04:12:03.000Z</time>
      </trkpt>
      <trkpt lat="46.04914" lon="6.79282">
        <ele>1352.9</ele>
        <time>2000-01-02T04:12:13.000Z</time>
      </trkpt>
      <trkpt lat="46.04904" lon="6.79273">
        <ele>1352</ele>
        <time>2000-01-02T04:12:23.000Z</time>
      </trkpt>
      <trkpt lat="46.04891" lon="6.79263">
        <ele>1352.2</ele>
        <time>2000-01-02T04:12:33.000Z</time>
      </trkpt>
      <trkpt lat="46.04875" lon="6.79251">
        <ele>1351</ele>
        <time>2000-01-02T04:12:43.000Z</time>
      </trkpt>
      <trkpt lat="46.04864" lon="6.79245">
        <ele>1351.1</ele>
        <time>2000-01-02T04:12:53.000Z</time>
      </trkpt>
      <trkpt lat="46.04859" lon="6.79242">
        <ele>1351.1</ele>
        <time>2000-01-02T04:13:03.000Z</time>
      </trkpt>
      <trkpt lat="46.04855" lon="6.79235">
        <ele>1349</ele>
        <time>2000-01-02T04:13:13.000Z</time>
      </trkpt>
      <trkpt lat="46.0485" lon="6.79228">
        <ele>1348.3</ele>
        <time>2000-01-02T04:13:23.000Z</time>
      </trkpt>
      <trkpt lat="46.04845" lon="6.79218">
        <ele>1345.9</ele>
        <time>2000-01-02T04:13:33.000Z</time>
      </trkpt>
      <trkpt lat="46.0484" lon="6.79213">
        <ele>1345</ele>
        <time>2000-01-02T04:13:43.000Z</time>
      </trkpt>
      <trkpt lat="46.04832" lon="6.79209">
        <ele>1344.8</ele>
        <time>2000-01-02T04:13:53.000Z</time>
      </trkpt>
      <trkpt lat="46.04828" lon="6.79207">
        <ele>1344.5</ele>
        <time>2000-01-02T04:14:03.000Z</time>
      </trkpt>
      <trkpt lat="46.04821" lon="6.79201">
        <ele>1343</ele>
        <time>2000-01-02T04:14:13.000Z</time>
      </trkpt>
      <trkpt lat="46.04816" lon="6.79195">
        <ele>1341.4</ele>
        <time>2000-01-02T04:14:23.000Z</time>
      </trkpt>
      <trkpt lat="46.04809" lon="6.7919">
        <ele>1340.1</ele>
        <time>2000-01-02T04:14:33.000Z</time>
      </trkpt>
      <trkpt lat="46.04803" lon="6.79187">
        <ele>1337</ele>
        <time>2000-01-02T04:14:43.000Z</time>
      </trkpt>
      <trkpt lat="46.04796" lon="6.79185">
        <ele>1338.9</ele>
        <time>2000-01-02T04:14:53.000Z</time>
      </trkpt>
      <trkpt lat="46.04785" lon="6.79179">
        <ele>1337.2</ele>
        <time>2000-01-02T04:15:03.000Z</time>
      </trkpt>
      <trkpt lat="46.04773" lon="6.79175">
        <ele>1334</ele>
        <time>2000-01-02T04:15:13.000Z</time>
      </trkpt>
      <trkpt lat="46.04766" lon="6.79174">
        <ele>1335.2</ele>
        <time>2000-01-02T04:15:23.000Z</time>
      </trkpt>
      <trkpt lat="46.04758" lon="6.79174">
        <ele>1334.9</ele>
        <time>2000-01-02T04:15:33.000Z</time>
      </trkpt>
      <trkpt lat="46.0475" lon="6.79175">
        <ele>1334</ele>
        <time>2000-01-02T04:15:43.000Z</time>
      </trkpt>
      <trkpt lat="46.04736" lon="6.79179">
        <ele>1335.8</ele>
        <time>2000-01-02T04:15:53.000Z</time>
      </trkpt>
      <trkpt lat="46.04728" lon="6.79182">
        <ele>1335</ele>
        <time>2000-01-02T04:16:03.000Z</time>
      </trkpt>
      <trkpt lat="46.04722" lon="6.79187">
        <ele>1337.1</ele>
        <time>2000-01-02T04:16:13.000Z</time>
      </trkpt>
      <trkpt lat="46.04718" lon="6.79192">
        <ele>1338.7</ele>
        <time>2000-01-02T04:16:23.000Z</time>
      </trkpt>
      <trkpt lat="46.04714" lon="6.79194">
        <ele>1339.5</ele>
        <time>2000-01-02T04:16:33.000Z</time>
      </trkpt>
      <trkpt lat="46.04711" lon="6.79194">
        <ele>1334</ele>
        <time>2000-01-02T04:16:43.000Z</time>
      </trkpt>
      <trkpt lat="46.04708" lon="6.79192">
        <ele>1339.4</ele>
        <time>2000-01-02T04:16:53.000Z</time>
      </trkpt>
      <trkpt lat="46.04705" lon="6.79187">
        <ele>1338.4</ele>
        <time>2000-01-02T04:17:03.000Z</time>
      </trkpt>
      <trkpt lat="46.04705" lon="6.79178">
        <ele>1336.1</ele>
        <time>2000-01-02T04:17:13.000Z</time>
      </trkpt>
      <trkpt lat="46.04705" lon="6.7917">
        <ele>1334</ele>
        <time>2000-01-02T04:17:23.000Z</time>
      </trkpt>
      <trkpt lat="46.04704" lon="6.79165">
        <ele>1332.9</ele>
        <time>2000-01-02T04:17:33.000Z</time>
      </trkpt>
      <trkpt lat="46.04701" lon="6.7916">
        <ele>1331.8</ele>
        <time>2000-01-02T04:17:43.000Z</time>
      </trkpt>
      <trkpt lat="46.04695" lon="6.79156">
        <ele>1331.3</ele>
        <time>2000-01-02T04:17:53.000Z</time>
      </trkpt>
      <trkpt lat="46.04686" lon="6.79151">
        <ele>1331</ele>
        <time>2000-01-02T04:18:03.000Z</time>
      </trkpt>
      <trkpt lat="46.04677" lon="6.79148">
        <ele>1331.4</ele>
        <time>2000-01-02T04:18:13.000Z</time>
      </trkpt>
      <trkpt lat="46.04667" lon="6.79146">
        <ele>1331</ele>
        <time>2000-01-02T04:18:23.000Z</time>
      </trkpt>
      <trkpt lat="46.04663" lon="6.79144">
        <ele>1331.7</ele>
        <time>2000-01-02T04:18:33.000Z</time>
      </trkpt>
      <trkpt lat="46.04663" lon="6.79141">
        <ele>1330.9</ele>
        <time>2000-01-02T04:18:43.000Z</time>
      </trkpt>
      <trkpt lat="46.04663" lon="6.79138">
        <ele>1330.1</ele>
        <time>2000-01-02T04:18:53.000Z</time>
      </trkpt>
      <trkpt lat="46.04663" lon="6.79135">
        <ele>1329.6</ele>
        <time>2000-01-02T04:19:03.000Z</time>
      </trkpt>
      <trkpt lat="46.04665" lon="6.79133">
        <ele>1329.1</ele>
        <time>2000-01-02T04:19:13.000Z</time>
      </trkpt>
      <trkpt lat="46.04668" lon="6.79134">
        <ele>1329</ele>
        <time>2000-01-02T04:19:23.000Z</time>
      </trkpt>
      <trkpt lat="46.04678" lon="6.79138">
        <ele>1327</ele>
        <time>2000-01-02T04:19:33.000Z</time>
      </trkpt>
      <trkpt lat="46.04687" lon="6.79139">
        <ele>1327.8</ele>
        <time>2000-01-02T04:19:43.000Z</time>
      </trkpt>
      <trkpt lat="46.04694" lon="6.79142">
        <ele>1327.8</ele>
        <time>2000-01-02T04:19:53.000Z</time>
      </trkpt>
      <trkpt lat="46.04702" lon="6.79145">
        <ele>1327</ele>
        <time>2000-01-02T04:20:03.000Z</time>
      </trkpt>
      <trkpt lat="46.04709" lon="6.79147">
        <ele>1328</ele>
        <time>2000-01-02T04:20:13.000Z</time>
      </trkpt>
      <trkpt lat="46.04712" lon="6.79146">
        <ele>1327.5</ele>
        <time>2000-01-02T04:20:23.000Z</time>
      </trkpt>
      <trkpt lat="46.04714" lon="6.79143">
        <ele>1326.6</ele>
        <time>2000-01-02T04:20:33.000Z</time>
      </trkpt>
      <trkpt lat="46.04714" lon="6.79135">
        <ele>1324.7</ele>
        <time>2000-01-02T04:20:43.000Z</time>
      </trkpt>
      <trkpt lat="46.04713" lon="6.79121">
        <ele>1321</ele>
        <time>2000-01-02T04:20:53.000Z</time>
      </trkpt>
      <trkpt lat="46.04712" lon="6.79109">
        <ele>1318.7</ele>
        <time>2000-01-02T04:21:03.000Z</time>
      </trkpt>
      <trkpt lat="46.04713" lon="6.791">
        <ele>1317</ele>
        <time>2000-01-02T04:21:13.000Z</time>
      </trkpt>
      <trkpt lat="46.04714" lon="6.79091">
        <ele>1315</ele>
        <time>2000-01-02T04:21:23.000Z</time>
      </trkpt>
      <trkpt lat="46.04713" lon="6.79083">
        <ele>1313.9</ele>
        <time>2000-01-02T04:21:33.000Z</time>
      </trkpt>
      <trkpt lat="46.0471" lon="6.79076">
        <ele>1312.5</ele>
        <time>2000-01-02T04:21:43.000Z</time>
      </trkpt>
      <trkpt lat="46.047" lon="6.79061">
        <ele>1309</ele>
        <time>2000-01-02T04:21:53.000Z</time>
      </trkpt>
      <trkpt lat="46.04689" lon="6.79046">
        <ele>1306.8</ele>
        <time>2000-01-02T04:22:03.000Z</time>
      </trkpt>
      <trkpt lat="46.04684" lon="6.79038">
        <ele>1302</ele>
        <time>2000-01-02T04:22:13.000Z</time>
      </trkpt>
      <trkpt lat="46.04681" lon="6.7903">
        <ele>1303.6</ele>
        <time>2000-01-02T04:22:23.000Z</time>
      </trkpt>
      <trkpt lat="46.0468" lon="6.79019">
        <ele>1301.6</ele>
        <time>2000-01-02T04:22:33.000Z</time>
      </trkpt>
      <trkpt lat="46.04681" lon="6.79">
        <ele>1298</ele>
        <time>2000-01-02T04:22:43.000Z</time>
      </trkpt>
      <trkpt lat="46.04681" lon="6.78981">
        <ele>1296.5</ele>
        <time>2000-01-02T04:22:53.000Z</time>
      </trkpt>
      <trkpt lat="46.0468" lon="6.78953">
        <ele>1290</ele>
        <time>2000-01-02T04:23:03.000Z</time>
      </trkpt>
      <trkpt lat="46.04679" lon="6.78951">
        <ele>1293</ele>
        <time>2000-01-02T04:23:13.000Z</time>
      </trkpt>
      <trkpt lat="46.04676" lon="6.78922">
        <ele>1287</ele>
        <time>2000-01-02T04:23:23.000Z</time>
      </trkpt>
      <trkpt lat="46.04671" lon="6.78884">
        <ele>1280</ele>
        <time>2000-01-02T04:23:33.000Z</time>
      </trkpt>
      <trkpt lat="46.04668" lon="6.78863">
        <ele>1276.5</ele>
        <time>2000-01-02T04:23:43.000Z</time>
      </trkpt>
      <trkpt lat="46.04668" lon="6.78856">
        <ele>1272</ele>
        <time>2000-01-02T04:23:53.000Z</time>
      </trkpt>
      <trkpt lat="46.04669" lon="6.78852">
        <ele>1273.9</ele>
        <time>2000-01-02T04:24:03.000Z</time>
      </trkpt>
      <trkpt lat="46.04671" lon="6.78849">
        <ele>1273.3</ele>
        <time>2000-01-02T04:24:13.000Z</time>
      </trkpt>
      <trkpt lat="46.04681" lon="6.78842">
        <ele>1272.2</ele>
        <time>2000-01-02T04:24:23.000Z</time>
      </trkpt>
      <trkpt lat="46.04693" lon="6.78838">
        <ele>1272</ele>
        <time>2000-01-02T04:24:33.000Z</time>
      </trkpt>
      <trkpt lat="46.04701" lon="6.78838">
        <ele>1271.5</ele>
        <time>2000-01-02T04:24:43.000Z</time>
      </trkpt>
      <trkpt lat="46.04709" lon="6.78838">
        <ele>1270.6</ele>
        <time>2000-01-02T04:24:53.000Z</time>
      </trkpt>
      <trkpt lat="46.04717" lon="6.78841">
        <ele>1272</ele>
        <time>2000-01-02T04:25:03.000Z</time>
      </trkpt>
      <trkpt lat="46.04729" lon="6.78844">
        <ele>1269.5</ele>
        <time>2000-01-02T04:25:13.000Z</time>
      </trkpt>
      <trkpt lat="46.04733" lon="6.78846">
        <ele>1269.3</ele>
        <time>2000-01-02T04:25:23.000Z</time>
      </trkpt>
      <trkpt lat="46.04739" lon="6.78845">
        <ele>1269</ele>
        <time>2000-01-02T04:25:33.000Z</time>
      </trkpt>
      <trkpt lat="46.04742" lon="6.78843">
        <ele>1266.9</ele>
        <time>2000-01-02T04:25:43.000Z</time>
      </trkpt>
      <trkpt lat="46.04746" lon="6.78841">
        <ele>1265.7</ele>
        <time>2000-01-02T04:25:53.000Z</time>
      </trkpt>
      <trkpt lat="46.04758" lon="6.78834">
        <ele>1261</ele>
        <time>2000-01-02T04:26:03.000Z</time>
      </trkpt>
      <trkpt lat="46.04764" lon="6.78831">
        <ele>1258.8</ele>
        <time>2000-01-02T04:26:13.000Z</time>
      </trkpt>
      <trkpt lat="46.04773" lon="6.78832">
        <ele>1256.9</ele>
        <time>2000-01-02T04:26:23.000Z</time>
      </trkpt>
      <trkpt lat="46.04781" lon="6.78835">
        <ele>1253</ele>
        <time>2000-01-02T04:26:33.000Z</time>
      </trkpt>
      <trkpt lat="46.04787" lon="6.78841">
        <ele>1255.4</ele>
        <time>2000-01-02T04:26:43.000Z</time>
      </trkpt>
      <trkpt lat="46.0479" lon="6.78843">
        <ele>1255.1</ele>
        <time>2000-01-02T04:26:53.000Z</time>
      </trkpt>
      <trkpt lat="46.04794" lon="6.78842">
        <ele>1253.7</ele>
        <time>2000-01-02T04:27:03.000Z</time>
      </trkpt>
      <trkpt lat="46.04795" lon="6.7884">
        <ele>1252.9</ele>
        <time>2000-01-02T04:27:13.000Z</time>
      </trkpt>
      <trkpt lat="46.04795" lon="6.78834">
        <ele>1251</ele>
        <time>2000-01-02T04:27:23.000Z</time>
      </trkpt>
      <trkpt lat="46.04793" lon="6.78828">
        <ele>1250.4</ele>
        <time>2000-01-02T04:27:33.000Z</time>
      </trkpt>
      <trkpt lat="46.04787" lon="6.78817">
        <ele>1249.4</ele>
        <time>2000-01-02T04:27:43.000Z</time>
      </trkpt>
      <trkpt lat="46.04779" lon="6.78803">
        <ele>1248</ele>
        <time>2000-01-02T04:27:53.000Z</time>
      </trkpt>
      <trkpt lat="46.04773" lon="6.78793">
        <ele>1246.9</ele>
        <time>2000-01-02T04:28:03.000Z</time>
      </trkpt>
      <trkpt lat="46.04771" lon="6.78786">
        <ele>1245.5</ele>
        <time>2000-01-02T04:28:13.000Z</time>
      </trkpt>
      <trkpt lat="46.0477" lon="6.78783">
        <ele>1245</ele>
        <time>2000-01-02T04:28:23.000Z</time>
      </trkpt>
      <trkpt lat="46.0477" lon="6.78782">
        <ele>1244.7</ele>
        <time>2000-01-02T04:28:33.000Z</time>
      </trkpt>
      <trkpt lat="46.04769" lon="6.78773">
        <ele>1244</ele>
        <time>2000-01-02T04:28:43.000Z</time>
      </trkpt>
      <trkpt lat="46.04766" lon="6.78761">
        <ele>1240.9</ele>
        <time>2000-01-02T04:28:53.000Z</time>
      </trkpt>
      <trkpt lat="46.04765" lon="6.78758">
        <ele>1240.5</ele>
        <time>2000-01-02T04:29:03.000Z</time>
      </trkpt>
      <trkpt lat="46.04764" lon="6.78753">
        <ele>1239.6</ele>
        <time>2000-01-02T04:29:13.000Z</time>
      </trkpt>
      <trkpt lat="46.04754" lon="6.78732">
        <ele>1236</ele>
        <time>2000-01-02T04:29:23.000Z</time>
      </trkpt>
      <trkpt lat="46.04746" lon="6.78712">
        <ele>1233.4</ele>
        <time>2000-01-02T04:29:33.000Z</time>
      </trkpt>
      <trkpt lat="46.04744" lon="6.78704">
        <ele>1231</ele>
        <time>2000-01-02T04:29:43.000Z</time>
      </trkpt>
      <trkpt lat="46.04743" lon="6.78699">
        <ele>1231</ele>
        <time>2000-01-02T04:29:53.000Z</time>
      </trkpt>
      <trkpt lat="46.04744" lon="6.78693">
        <ele>1229.6</ele>
        <time>2000-01-02T04:30:03.000Z</time>
      </trkpt>
      <trkpt lat="46.04747" lon="6.78686">
        <ele>1227.6</ele>
        <time>2000-01-02T04:30:13.000Z</time>
      </trkpt>
      <trkpt lat="46.04751" lon="6.78678">
        <ele>1223</ele>
        <time>2000-01-02T04:30:23.000Z</time>
      </trkpt>
      <trkpt lat="46.04754" lon="6.78672">
        <ele>1223.3</ele>
        <time>2000-01-02T04:30:33.000Z</time>
      </trkpt>
      <trkpt lat="46.04754" lon="6.78666">
        <ele>1222</ele>
        <time>2000-01-02T04:30:43.000Z</time>
      </trkpt>
      <trkpt lat="46.04753" lon="6.7866">
        <ele>1220.9</ele>
        <time>2000-01-02T04:30:53.000Z</time>
      </trkpt>
      <trkpt lat="46.04749" lon="6.78656">
        <ele>1220.8</ele>
        <time>2000-01-02T04:31:03.000Z</time>
      </trkpt>
      <trkpt lat="46.04744" lon="6.78651">
        <ele>1220</ele>
        <time>2000-01-02T04:31:13.000Z</time>
      </trkpt>
      <trkpt lat="46.0474" lon="6.78643">
        <ele>1219.3</ele>
        <time>2000-01-02T04:31:23.000Z</time>
      </trkpt>
      <trkpt lat="46.04739" lon="6.78633">
        <ele>1217.1</ele>
        <time>2000-01-02T04:31:33.000Z</time>
      </trkpt>
      <trkpt lat="46.04737" lon="6.78619">
        <ele>1212</ele>
        <time>2000-01-02T04:31:43.000Z</time>
      </trkpt>
      <trkpt lat="46.04735" lon="6.78613">
        <ele>1212.6</ele>
        <time>2000-01-02T04:31:53.000Z</time>
      </trkpt>
      <trkpt lat="46.04731" lon="6.78604">
        <ele>1210.8</ele>
        <time>2000-01-02T04:32:03.000Z</time>
      </trkpt>
      <trkpt lat="46.04728" lon="6.786">
        <ele>1210.1</ele>
        <time>2000-01-02T04:32:13.000Z</time>
      </trkpt>
      <trkpt lat="46.04724" lon="6.78596">
        <ele>1208</ele>
        <time>2000-01-02T04:32:23.000Z</time>
      </trkpt>
      <trkpt lat="46.04717" lon="6.7859">
        <ele>1208.1</ele>
        <time>2000-01-02T04:32:33.000Z</time>
      </trkpt>
      <trkpt lat="46.04713" lon="6.78588">
        <ele>1207.7</ele>
        <time>2000-01-02T04:32:43.000Z</time>
      </trkpt>
      <trkpt lat="46.04705" lon="6.78588">
        <ele>1205</ele>
        <time>2000-01-02T04:32:53.000Z</time>
      </trkpt>
      <trkpt lat="46.047" lon="6.78588">
        <ele>1208.1</ele>
        <time>2000-01-02T04:33:03.000Z</time>
      </trkpt>
      <trkpt lat="46.04692" lon="6.78587">
        <ele>1207.9</ele>
        <time>2000-01-02T04:33:13.000Z</time>
      </trkpt>
      <trkpt lat="46.04686" lon="6.78584">
        <ele>1204</ele>
        <time>2000-01-02T04:33:23.000Z</time>
      </trkpt>
      <trkpt lat="46.04675" lon="6.78577">
        <ele>1203.5</ele>
        <time>2000-01-02T04:33:33.000Z</time>
      </trkpt>
      <trkpt lat="46.04662" lon="6.78569">
        <ele>1195</ele>
        <time>2000-01-02T04:33:43.000Z</time>
      </trkpt>
      <trkpt lat="46.04655" lon="6.78565">
        <ele>1197</ele>
        <time>2000-01-02T04:33:53.000Z</time>
      </trkpt>
      <trkpt lat="46.0465" lon="6.78564">
        <ele>1195.7</ele>
        <time>2000-01-02T04:34:03.000Z</time>
      </trkpt>
      <trkpt lat="46.04646" lon="6.78564">
        <ele>1195</ele>
        <time>2000-01-02T04:34:13.000Z</time>
      </trkpt>
      <trkpt lat="46.04644" lon="6.78561">
        <ele>1192</ele>
        <time>2000-01-02T04:34:23.000Z</time>
      </trkpt>
      <trkpt lat="46.04643" lon="6.78559">
        <ele>1192.9</ele>
        <time>2000-01-02T04:34:33.000Z</time>
      </trkpt>
      <trkpt lat="46.04644" lon="6.78554">
        <ele>1191.5</ele>
        <time>2000-01-02T04:34:43.000Z</time>
      </trkpt>
      <trkpt lat="46.04646" lon="6.78548">
        <ele>1190</ele>
        <time>2000-01-02T04:34:53.000Z</time>
      </trkpt>
      <trkpt lat="46.04649" lon="6.78544">
        <ele>1189.3</ele>
        <time>2000-01-02T04:35:03.000Z</time>
      </trkpt>
      <trkpt lat="46.04652" lon="6.7854">
        <ele>1188.6</ele>
        <time>2000-01-02T04:35:13.000Z</time>
      </trkpt>
      <trkpt lat="46.0466" lon="6.78531">
        <ele>1185</ele>
        <time>2000-01-02T04:35:23.000Z</time>
      </trkpt>
      <trkpt lat="46.04663" lon="6.78529">
        <ele>1186.9</ele>
        <time>2000-01-02T04:35:33.000Z</time>
      </trkpt>
      <trkpt lat="46.0467" lon="6.78525">
        <ele>1186.4</ele>
        <time>2000-01-02T04:35:43.000Z</time>
      </trkpt>
      <trkpt lat="46.04677" lon="6.78518">
        <ele>1182</ele>
        <time>2000-01-02T04:35:53.000Z</time>
      </trkpt>
      <trkpt lat="46.04688" lon="6.78504">
        <ele>1181.7</ele>
        <time>2000-01-02T04:36:03.000Z</time>
      </trkpt>
      <trkpt lat="46.04691" lon="6.78501">
        <ele>1181</ele>
        <time>2000-01-02T04:36:13.000Z</time>
      </trkpt>
      <trkpt lat="46.04699" lon="6.78491">
        <ele>1177</ele>
        <time>2000-01-02T04:36:23.000Z</time>
      </trkpt>
      <trkpt lat="46.04708" lon="6.78483">
        <ele>1175.8</ele>
        <time>2000-01-02T04:36:33.000Z</time>
      </trkpt>
      <trkpt lat="46.04715" lon="6.78479">
        <ele>1174.4</ele>
        <time>2000-01-02T04:36:43.000Z</time>
      </trkpt>
      <trkpt lat="46.04724" lon="6.78475">
        <ele>1170</ele>
        <time>2000-01-02T04:36:53.000Z</time>
      </trkpt>
      <trkpt lat="46.04729" lon="6.78471">
        <ele>1171.2</ele>
        <time>2000-01-02T04:37:03.000Z</time>
      </trkpt>
      <trkpt lat="46.04734" lon="6.78464">
        <ele>1168.8</ele>
        <time>2000-01-02T04:37:13.000Z</time>
      </trkpt>
      <trkpt lat="46.04741" lon="6.78453">
        <ele>1164</ele>
        <time>2000-01-02T04:37:23.000Z</time>
      </trkpt>
      <trkpt lat="46.0475" lon="6.7844">
        <ele>1160.6</ele>
        <time>2000-01-02T04:37:33.000Z</time>
      </trkpt>
      <trkpt lat="46.04754" lon="6.78435">
        <ele>1158.6</ele>
        <time>2000-01-02T04:37:43.000Z</time>
      </trkpt>
      <trkpt lat="46.04758" lon="6.78429">
        <ele>1154</ele>
        <time>2000-01-02T04:37:53.000Z</time>
      </trkpt>
      <trkpt lat="46.04762" lon="6.78427">
        <ele>1155.3</ele>
        <time>2000-01-02T04:38:03.000Z</time>
      </trkpt>
      <trkpt lat="46.04764" lon="6.78426">
        <ele>1154.8</ele>
        <time>2000-01-02T04:38:13.000Z</time>
      </trkpt>
      <trkpt lat="46.04769" lon="6.78426">
        <ele>1154.4</ele>
        <time>2000-01-02T04:38:23.000Z</time>
      </trkpt>
      <trkpt lat="46.04777" lon="6.7843">
        <ele>1152</ele>
        <time>2000-01-02T04:38:33.000Z</time>
      </trkpt>
      <trkpt lat="46.0478" lon="6.78433">
        <ele>1155.3</ele>
        <time>2000-01-02T04:38:43.000Z</time>
      </trkpt>
      <trkpt lat="46.04783" lon="6.78434">
        <ele>1155.1</ele>
        <time>2000-01-02T04:38:53.000Z</time>
      </trkpt>
      <trkpt lat="46.04786" lon="6.78433">
        <ele>1154.3</ele>
        <time>2000-01-02T04:39:03.000Z</time>
      </trkpt>
      <trkpt lat="46.04789" lon="6.78429">
        <ele>1152.8</ele>
        <time>2000-01-02T04:39:13.000Z</time>
      </trkpt>
      <trkpt lat="46.0479" lon="6.78422">
        <ele>1150</ele>
        <time>2000-01-02T04:39:23.000Z</time>
      </trkpt>
      <trkpt lat="46.04791" lon="6.78415">
        <ele>1148.6</ele>
        <time>2000-01-02T04:39:33.000Z</time>
      </trkpt>
      <trkpt lat="46.04789" lon="6.78407">
        <ele>1146.6</ele>
        <time>2000-01-02T04:39:43.000Z</time>
      </trkpt>
      <trkpt lat="46.04783" lon="6.78389">
        <ele>1140</ele>
        <time>2000-01-02T04:39:53.000Z</time>
      </trkpt>
      <trkpt lat="46.0478" lon="6.78381">
        <ele>1140.4</ele>
        <time>2000-01-02T04:40:03.000Z</time>
      </trkpt>
      <trkpt lat="46.04777" lon="6.78376">
        <ele>1139.4</ele>
        <time>2000-01-02T04:40:13.000Z</time>
      </trkpt>
      <trkpt lat="46.04774" lon="6.78374">
        <ele>1139.1</ele>
        <time>2000-01-02T04:40:23.000Z</time>
      </trkpt>
      <trkpt lat="46.04771" lon="6.78373">
        <ele>1139.1</ele>
        <time>2000-01-02T04:40:33.000Z</time>
      </trkpt>
      <trkpt lat="46.04765" lon="6.78373">
        <ele>1139</ele>
        <time>2000-01-02T04:40:43.000Z</time>
      </trkpt>
      <trkpt lat="46.0476" lon="6.78372">
        <ele>1139.8</ele>
        <time>2000-01-02T04:40:53.000Z</time>
      </trkpt>
      <trkpt lat="46.04753" lon="6.78366">
        <ele>1138.9</ele>
        <time>2000-01-02T04:41:03.000Z</time>
      </trkpt>
      <trkpt lat="46.04749" lon="6.78362">
        <ele>1138.4</ele>
        <time>2000-01-02T04:41:13.000Z</time>
      </trkpt>
      <trkpt lat="46.04744" lon="6.78357">
        <ele>1137</ele>
        <time>2000-01-02T04:41:23.000Z</time>
      </trkpt>
      <trkpt lat="46.0474" lon="6.78349">
        <ele>1137.9</ele>
        <time>2000-01-02T04:41:33.000Z</time>
      </trkpt>
      <trkpt lat="46.04738" lon="6.78343">
        <ele>1137.2</ele>
        <time>2000-01-02T04:41:43.000Z</time>
      </trkpt>
      <trkpt lat="46.04738" lon="6.78343">
        <ele>1137.2</ele>
        <time>2000-01-02T04:41:53.000Z</time>
      </trkpt>
      <trkpt lat="46.04738" lon="6.78343">
        <ele>1137.2</ele>
        <time>2000-01-02T04:42:03.000Z</time>
      </trkpt>
      <trkpt lat="46.04737" lon="6.78333">
        <ele>1135.7</ele>
        <time>2000-01-02T04:42:13.000Z</time>
      </trkpt>
      <trkpt lat="46.04736" lon="6.78311">
        <ele>1133</ele>
        <time>2000-01-02T04:42:23.000Z</time>
      </trkpt>
      <trkpt lat="46.04736" lon="6.78258">
        <ele>1123</ele>
        <time>2000-01-02T04:42:33.000Z</time>
      </trkpt>
      <trkpt lat="46.04737" lon="6.78233">
        <ele>1117.1</ele>
        <time>2000-01-02T04:42:43.000Z</time>
      </trkpt>
      <trkpt lat="46.04738" lon="6.78216">
        <ele>1116</ele>
        <time>2000-01-02T04:42:53.000Z</time>
      </trkpt>
      <trkpt lat="46.0474" lon="6.78207">
        <ele>1110.9</ele>
        <time>2000-01-02T04:43:03.000Z</time>
      </trkpt>
      <trkpt lat="46.04742" lon="6.78202">
        <ele>1109</ele>
        <time>2000-01-02T04:43:13.000Z</time>
      </trkpt>
      <trkpt lat="46.04746" lon="6.782">
        <ele>1106.9</ele>
        <time>2000-01-02T04:43:23.000Z</time>
      </trkpt>
      <trkpt lat="46.0475" lon="6.78202">
        <ele>1105</ele>
        <time>2000-01-02T04:43:33.000Z</time>
      </trkpt>
      <trkpt lat="46.04762" lon="6.7821">
        <ele>1103.9</ele>
        <time>2000-01-02T04:43:43.000Z</time>
      </trkpt>
      <trkpt lat="46.0477" lon="6.78217">
        <ele>1104</ele>
        <time>2000-01-02T04:43:53.000Z</time>
      </trkpt>
      <trkpt lat="46.04779" lon="6.78224">
        <ele>1102.1</ele>
        <time>2000-01-02T04:44:03.000Z</time>
      </trkpt>
      <trkpt lat="46.04786" lon="6.78227">
        <ele>1101.3</ele>
        <time>2000-01-02T04:44:13.000Z</time>
      </trkpt>
      <trkpt lat="46.04792" lon="6.78228">
        <ele>1099</ele>
        <time>2000-01-02T04:44:23.000Z</time>
      </trkpt>
      <trkpt lat="46.04799" lon="6.78227">
        <ele>1098.4</ele>
        <time>2000-01-02T04:44:33.000Z</time>
      </trkpt>
      <trkpt lat="46.04804" lon="6.78225">
        <ele>1096.9</ele>
        <time>2000-01-02T04:44:43.000Z</time>
      </trkpt>
      <trkpt lat="46.04812" lon="6.78225">
        <ele>1094</ele>
        <time>2000-01-02T04:44:53.000Z</time>
      </trkpt>
      <trkpt lat="46.04821" lon="6.78227">
        <ele>1093.8</ele>
        <time>2000-01-02T04:45:03.000Z</time>
      </trkpt>
      <trkpt lat="46.0483" lon="6.78227">
        <ele>1091.9</ele>
        <time>2000-01-02T04:45:13.000Z</time>
      </trkpt>
      <trkpt lat="46.04838" lon="6.78226">
        <ele>1090</ele>
        <time>2000-01-02T04:45:23.000Z</time>
      </trkpt>
      <trkpt lat="46.04848" lon="6.78222">
        <ele>1087.3</ele>
        <time>2000-01-02T04:45:33.000Z</time>
      </trkpt>
      <trkpt lat="46.04861" lon="6.78217">
        <ele>1082</ele>
        <time>2000-01-02T04:45:43.000Z</time>
      </trkpt>
      <trkpt lat="46.04872" lon="6.78217">
        <ele>1081</ele>
        <time>2000-01-02T04:45:53.000Z</time>
      </trkpt>
      <trkpt lat="46.04882" lon="6.78218">
        <ele>1078</ele>
        <time>2000-01-02T04:46:03.000Z</time>
      </trkpt>
      <trkpt lat="46.0489" lon="6.78221">
        <ele>1076.5</ele>
        <time>2000-01-02T04:46:13.000Z</time>
      </trkpt>
      <trkpt lat="46.04896" lon="6.78226">
        <ele>1075.3</ele>
        <time>2000-01-02T04:46:23.000Z</time>
      </trkpt>
      <trkpt lat="46.04902" lon="6.78233">
        <ele>1075</ele>
        <time>2000-01-02T04:46:33.000Z</time>
      </trkpt>
      <trkpt lat="46.04911" lon="6.78238">
        <ele>1071.3</ele>
        <time>2000-01-02T04:46:43.000Z</time>
      </trkpt>
      <trkpt lat="46.04916" lon="6.78241">
        <ele>1069.6</ele>
        <time>2000-01-02T04:46:53.000Z</time>
      </trkpt>
      <trkpt lat="46.0492" lon="6.78242">
        <ele>1067.8</ele>
        <time>2000-01-02T04:47:03.000Z</time>
      </trkpt>
      <trkpt lat="46.04923" lon="6.78241">
        <ele>1067</ele>
        <time>2000-01-02T04:47:13.000Z</time>
      </trkpt>
      <trkpt lat="46.04926" lon="6.78236">
        <ele>1064.5</ele>
        <time>2000-01-02T04:47:23.000Z</time>
      </trkpt>
      <trkpt lat="46.04927" lon="6.78227">
        <ele>1063.4</ele>
        <time>2000-01-02T04:47:33.000Z</time>
      </trkpt>
      <trkpt lat="46.04927" lon="6.78213">
        <ele>1064</ele>
        <time>2000-01-02T04:47:43.000Z</time>
      </trkpt>
      <trkpt lat="46.0493" lon="6.78199">
        <ele>1058.8</ele>
        <time>2000-01-02T04:47:53.000Z</time>
      </trkpt>
      <trkpt lat="46.04931" lon="6.78187">
        <ele>1056.9</ele>
        <time>2000-01-02T04:48:03.000Z</time>
      </trkpt>
      <trkpt lat="46.04931" lon="6.78176">
        <ele>1055</ele>
        <time>2000-01-02T04:48:13.000Z</time>
      </trkpt>
      <trkpt lat="46.0493" lon="6.78166">
        <ele>1054.6</ele>
        <time>2000-01-02T04:48:23.000Z</time>
      </trkpt>
      <trkpt lat="46.04927" lon="6.78154">
        <ele>1053.8</ele>
        <time>2000-01-02T04:48:33.000Z</time>
      </trkpt>
      <trkpt lat="46.04921" lon="6.78144">
        <ele>1053</ele>
        <time>2000-01-02T04:48:43.000Z</time>
      </trkpt>
      <trkpt lat="46.04914" lon="6.78135">
        <ele>1054.8</ele>
        <time>2000-01-02T04:48:53.000Z</time>
      </trkpt>
      <trkpt lat="46.04904" lon="6.78119">
        <ele>1053</ele>
        <time>2000-01-02T04:49:03.000Z</time>
      </trkpt>
      <trkpt lat="46.04898" lon="6.78112">
        <ele>1053.9</ele>
        <time>2000-01-02T04:49:13.000Z</time>
      </trkpt>
      <trkpt lat="46.0489" lon="6.781">
        <ele>1053</ele>
        <time>2000-01-02T04:49:23.000Z</time>
      </trkpt>
      <trkpt lat="46.04884" lon="6.7809">
        <ele>1051.9</ele>
        <time>2000-01-02T04:49:33.000Z</time>
      </trkpt>
      <trkpt lat="46.04875" lon="6.78078">
        <ele>1049</ele>
        <time>2000-01-02T04:49:43.000Z</time>
      </trkpt>
      <trkpt lat="46.04866" lon="6.78067">
        <ele>1050.7</ele>
        <time>2000-01-02T04:49:53.000Z</time>
      </trkpt>
      <trkpt lat="46.04863" lon="6.78064">
        <ele>1050.7</ele>
        <time>2000-01-02T04:50:03.000Z</time>
      </trkpt>
      <trkpt lat="46.04861" lon="6.78059">
        <ele>1047</ele>
        <time>2000-01-02T04:50:13.000Z</time>
      </trkpt>
      <trkpt lat="46.0486" lon="6.78048">
        <ele>1047.3</ele>
        <time>2000-01-02T04:50:23.000Z</time>
      </trkpt>
      <trkpt lat="46.04857" lon="6.78026">
        <ele>1043</ele>
        <time>2000-01-02T04:50:33.000Z</time>
      </trkpt>
      <trkpt lat="46.04855" lon="6.78016">
        <ele>1040.9</ele>
        <time>2000-01-02T04:50:43.000Z</time>
      </trkpt>
      <trkpt lat="46.04854" lon="6.78008">
        <ele>1039.5</ele>
        <time>2000-01-02T04:50:53.000Z</time>
      </trkpt>
      <trkpt lat="46.04852" lon="6.78004">
        <ele>1039.1</ele>
        <time>2000-01-02T04:51:03.000Z</time>
      </trkpt>
      <trkpt lat="46.04847" lon="6.78">
        <ele>1041</ele>
        <time>2000-01-02T04:51:13.000Z</time>
      </trkpt>
      <trkpt lat="46.04838" lon="6.77997">
        <ele>1039.7</ele>
        <time>2000-01-02T04:51:23.000Z</time>
      </trkpt>
      <trkpt lat="46.04831" lon="6.77997">
        <ele>1040.6</ele>
        <time>2000-01-02T04:51:33.000Z</time>
      </trkpt>
      <trkpt lat="46.04827" lon="6.77997">
        <ele>1041</ele>
        <time>2000-01-02T04:51:43.000Z</time>
      </trkpt>
      <trkpt lat="46.04821" lon="6.77998">
        <ele>1041.9</ele>
        <time>2000-01-02T04:51:53.000Z</time>
      </trkpt>
      <trkpt lat="46.04815" lon="6.77997">
        <ele>1042.3</ele>
        <time>2000-01-02T04:52:03.000Z</time>
      </trkpt>
      <trkpt lat="46.04806" lon="6.77993">
        <ele>1041</ele>
        <time>2000-01-02T04:52:13.000Z</time>
      </trkpt>
      <trkpt lat="46.04797" lon="6.77987">
        <ele>1041.8</ele>
        <time>2000-01-02T04:52:23.000Z</time>
      </trkpt>
      <trkpt lat="46.0479" lon="6.77983">
        <ele>1041.6</ele>
        <time>2000-01-02T04:52:33.000Z</time>
      </trkpt>
      <trkpt lat="46.04783" lon="6.7798">
        <ele>1041</ele>
        <time>2000-01-02T04:52:43.000Z</time>
      </trkpt>
      <trkpt lat="46.04775" lon="6.77979">
        <ele>1042.4</ele>
        <time>2000-01-02T04:52:53.000Z</time>
      </trkpt>
      <trkpt lat="46.04772" lon="6.77976">
        <ele>1041.9</ele>
        <time>2000-01-02T04:53:03.000Z</time>
      </trkpt>
      <trkpt lat="46.0477" lon="6.77972">
        <ele>1041.1</ele>
        <time>2000-01-02T04:53:13.000Z</time>
      </trkpt>
      <trkpt lat="46.04769" lon="6.77967">
        <ele>1039.7</ele>
        <time>2000-01-02T04:53:23.000Z</time>
      </trkpt>
      <trkpt lat="46.04771" lon="6.77962">
        <ele>1037</ele>
        <time>2000-01-02T04:53:33.000Z</time>
      </trkpt>
      <trkpt lat="46.04774" lon="6.77957">
        <ele>1036.1</ele>
        <time>2000-01-02T04:53:43.000Z</time>
      </trkpt>
      <trkpt lat="46.04781" lon="6.77953">
        <ele>1034.2</ele>
        <time>2000-01-02T04:53:53.000Z</time>
      </trkpt>
      <trkpt lat="46.04792" lon="6.7795">
        <ele>1032</ele>
        <time>2000-01-02T04:54:03.000Z</time>
      </trkpt>
      <trkpt lat="46.04812" lon="6.77947">
        <ele>1028</ele>
        <time>2000-01-02T04:54:13.000Z</time>
      </trkpt>
      <trkpt lat="46.04821" lon="6.77945">
        <ele>1029</ele>
        <time>2000-01-02T04:54:23.000Z</time>
      </trkpt>
      <trkpt lat="46.04836" lon="6.7794">
        <ele>1027</ele>
        <time>2000-01-02T04:54:33.000Z</time>
      </trkpt>
      <trkpt lat="46.04842" lon="6.77939">
        <ele>1025.7</ele>
        <time>2000-01-02T04:54:43.000Z</time>
      </trkpt>
      <trkpt lat="46.0485" lon="6.77942">
        <ele>1025.6</ele>
        <time>2000-01-02T04:54:53.000Z</time>
      </trkpt>
      <trkpt lat="46.04861" lon="6.77948">
        <ele>1026</ele>
        <time>2000-01-02T04:55:03.000Z</time>
      </trkpt>
      <trkpt lat="46.04884" lon="6.77962">
        <ele>1025</ele>
        <time>2000-01-02T04:55:13.000Z</time>
      </trkpt>
      <trkpt lat="46.04912" lon="6.77981">
        <ele>1022</ele>
        <time>2000-01-02T04:55:23.000Z</time>
      </trkpt>
      <trkpt lat="46.04931" lon="6.77995">
        <ele>1019</ele>
        <time>2000-01-02T04:55:33.000Z</time>
      </trkpt>
      <trkpt lat="46.0494" lon="6.77998">
        <ele>1018.7</ele>
        <time>2000-01-02T04:55:43.000Z</time>
      </trkpt>
      <trkpt lat="46.04944" lon="6.77998">
        <ele>1017.8</ele>
        <time>2000-01-02T04:55:53.000Z</time>
      </trkpt>
      <trkpt lat="46.04948" lon="6.77995">
        <ele>1016.3</ele>
        <time>2000-01-02T04:56:03.000Z</time>
      </trkpt>
      <trkpt lat="46.04953" lon="6.7799">
        <ele>1012</ele>
        <time>2000-01-02T04:56:13.000Z</time>
      </trkpt>
      <trkpt lat="46.04954" lon="6.77983">
        <ele>1012.7</ele>
        <time>2000-01-02T04:56:23.000Z</time>
      </trkpt>
      <trkpt lat="46.04955" lon="6.77977">
        <ele>1011.3</ele>
        <time>2000-01-02T04:56:33.000Z</time>
      </trkpt>
      <trkpt lat="46.04954" lon="6.77972">
        <ele>1010.5</ele>
        <time>2000-01-02T04:56:43.000Z</time>
      </trkpt>
      <trkpt lat="46.04952" lon="6.77968">
        <ele>1010.2</ele>
        <time>2000-01-02T04:56:53.000Z</time>
      </trkpt>
      <trkpt lat="46.04946" lon="6.77961">
        <ele>1011</ele>
        <time>2000-01-02T04:57:03.000Z</time>
      </trkpt>
      <trkpt lat="46.04937" lon="6.77952">
        <ele>1010.2</ele>
        <time>2000-01-02T04:57:13.000Z</time>
      </trkpt>
      <trkpt lat="46.04934" lon="6.77945">
        <ele>1009.4</ele>
        <time>2000-01-02T04:57:23.000Z</time>
      </trkpt>
      <trkpt lat="46.0493" lon="6.77935">
        <ele>1007</ele>
        <time>2000-01-02T04:57:33.000Z</time>
      </trkpt>
      <trkpt lat="46.04922" lon="6.77912">
        <ele>1004.8</ele>
        <time>2000-01-02T04:57:43.000Z</time>
      </trkpt>
      <trkpt lat="46.04917" lon="6.77898">
        <ele>1002</ele>
        <time>2000-01-02T04:57:53.000Z</time>
      </trkpt>
      <trkpt lat="46.04911" lon="6.77886">
        <ele>1001.5</ele>
        <time>2000-01-02T04:58:03.000Z</time>
      </trkpt>
      <trkpt lat="46.049" lon="6.77866">
        <ele>998</ele>
        <time>2000-01-02T04:58:13.000Z</time>
      </trkpt>
      <trkpt lat="46.04886" lon="6.77842">
        <ele>995</ele>
        <time>2000-01-02T04:58:23.000Z</time>
      </trkpt>
      <trkpt lat="46.04875" lon="6.77826">
        <ele>991.3</ele>
        <time>2000-01-02T04:58:33.000Z</time>
      </trkpt>
      <trkpt lat="46.0487" lon="6.7782">
        <ele>990</ele>
        <time>2000-01-02T04:58:43.000Z</time>
      </trkpt>
      <trkpt lat="46.04864" lon="6.77816">
        <ele>989.1</ele>
        <time>2000-01-02T04:58:53.000Z</time>
      </trkpt>
      <trkpt lat="46.04864" lon="6.77816">
        <ele>989.1</ele>
        <time>2000-01-02T04:59:03.000Z</time>
      </trkpt>
      <trkpt lat="46.04864" lon="6.77816">
        <ele>989.1</ele>
        <time>2000-01-02T04:59:13.000Z</time>
      </trkpt>
      <trkpt lat="46.04858" lon="6.77815">
        <ele>989.3</ele>
        <time>2000-01-02T04:59:23.000Z</time>
      </trkpt>
      <trkpt lat="46.04846" lon="6.77814">
        <ele>989</ele>
        <time>2000-01-02T04:59:33.000Z</time>
      </trkpt>
      <trkpt lat="46.04831" lon="6.77811">
        <ele>990.1</ele>
        <time>2000-01-02T04:59:43.000Z</time>
      </trkpt>
      <trkpt lat="46.04821" lon="6.77805">
        <ele>987</ele>
        <time>2000-01-02T04:59:53.000Z</time>
      </trkpt>
      <trkpt lat="46.04814" lon="6.77799">
        <ele>988.9</ele>
        <time>2000-01-02T05:00:03.000Z</time>
      </trkpt>
      <trkpt lat="46.04803" lon="6.77787">
        <ele>985</ele>
        <time>2000-01-02T05:00:13.000Z</time>
      </trkpt>
      <trkpt lat="46.04795" lon="6.77776">
        <ele>985.8</ele>
        <time>2000-01-02T05:00:23.000Z</time>
      </trkpt>
      <trkpt lat="46.04787" lon="6.77757">
        <ele>982</ele>
        <time>2000-01-02T05:00:33.000Z</time>
      </trkpt>
      <trkpt lat="46.04781" lon="6.77743">
        <ele>979.7</ele>
        <time>2000-01-02T05:00:43.000Z</time>
      </trkpt>
      <trkpt lat="46.04775" lon="6.77723">
        <ele>975</ele>
        <time>2000-01-02T05:00:53.000Z</time>
      </trkpt>
      <trkpt lat="46.0477" lon="6.7771">
        <ele>972.6</ele>
        <time>2000-01-02T05:01:03.000Z</time>
      </trkpt>
      <trkpt lat="46.04766" lon="6.77703">
        <ele>971.1</ele>
        <time>2000-01-02T05:01:13.000Z</time>
      </trkpt>
      <trkpt lat="46.04761" lon="6.77698">
        <ele>968</ele>
        <time>2000-01-02T05:01:23.000Z</time>
      </trkpt>
      <trkpt lat="46.04755" lon="6.77694">
        <ele>969.5</ele>
        <time>2000-01-02T05:01:33.000Z</time>
      </trkpt>
      <trkpt lat="46.0474" lon="6.77689">
        <ele>967</ele>
        <time>2000-01-02T05:01:43.000Z</time>
      </trkpt>
      <trkpt lat="46.04722" lon="6.77686">
        <ele>968.6</ele>
        <time>2000-01-02T05:01:53.000Z</time>
      </trkpt>
      <trkpt lat="46.04711" lon="6.77685">
        <ele>966</ele>
        <time>2000-01-02T05:02:03.000Z</time>
      </trkpt>
      <trkpt lat="46.04701" lon="6.77681">
        <ele>967.9</ele>
        <time>2000-01-02T05:02:13.000Z</time>
      </trkpt>
      <trkpt lat="46.04694" lon="6.77676">
        <ele>966.7</ele>
        <time>2000-01-02T05:02:23.000Z</time>
      </trkpt>
      <trkpt lat="46.04687" lon="6.77672">
        <ele>966</ele>
        <time>2000-01-02T05:02:33.000Z</time>
      </trkpt>
      <trkpt lat="46.0468" lon="6.77666">
        <ele>965.4</ele>
        <time>2000-01-02T05:02:43.000Z</time>
      </trkpt>
      <trkpt lat="46.04675" lon="6.77658">
        <ele>963.9</ele>
        <time>2000-01-02T05:02:53.000Z</time>
      </trkpt>
      <trkpt lat="46.04671" lon="6.77648">
        <ele>960</ele>
        <time>2000-01-02T05:03:03.000Z</time>
      </trkpt>
      <trkpt lat="46.04665" lon="6.77621">
        <ele>956</ele>
        <time>2000-01-02T05:03:13.000Z</time>
      </trkpt>
      <trkpt lat="46.04658" lon="6.77603">
        <ele>953.1</ele>
        <time>2000-01-02T05:03:23.000Z</time>
      </trkpt>
      <trkpt lat="46.04655" lon="6.77601">
        <ele>952.9</ele>
        <time>2000-01-02T05:03:33.000Z</time>
      </trkpt>
      <trkpt lat="46.04646" lon="6.77595">
        <ele>951</ele>
        <time>2000-01-02T05:03:43.000Z</time>
      </trkpt>
      <trkpt lat="46.04635" lon="6.77589">
        <ele>951.7</ele>
        <time>2000-01-02T05:03:53.000Z</time>
      </trkpt>
      <trkpt lat="46.04621" lon="6.77587">
        <ele>950</ele>
        <time>2000-01-02T05:04:03.000Z</time>
      </trkpt>
      <trkpt lat="46.04609" lon="6.77586">
        <ele>952.6</ele>
        <time>2000-01-02T05:04:13.000Z</time>
      </trkpt>
      <trkpt lat="46.046" lon="6.77583">
        <ele>950</ele>
        <time>2000-01-02T05:04:23.000Z</time>
      </trkpt>
      <trkpt lat="46.04588" lon="6.77573">
        <ele>949.3</ele>
        <time>2000-01-02T05:04:33.000Z</time>
      </trkpt>
      <trkpt lat="46.04579" lon="6.77567">
        <ele>944</ele>
        <time>2000-01-02T05:04:43.000Z</time>
      </trkpt>
      <trkpt lat="46.04569" lon="6.77565">
        <ele>946</ele>
        <time>2000-01-02T05:04:53.000Z</time>
      </trkpt>
      <trkpt lat="46.04562" lon="6.77564">
        <ele>945.1</ele>
        <time>2000-01-02T05:05:03.000Z</time>
      </trkpt>
      <trkpt lat="46.04554" lon="6.77559">
        <ele>940</ele>
        <time>2000-01-02T05:05:13.000Z</time>
      </trkpt>
      <trkpt lat="46.04544" lon="6.77552">
        <ele>939.2</ele>
        <time>2000-01-02T05:05:23.000Z</time>
      </trkpt>
      <trkpt lat="46.04538" lon="6.77551">
        <ele>937.5</ele>
        <time>2000-01-02T05:05:33.000Z</time>
      </trkpt>
      <trkpt lat="46.04533" lon="6.77554">
        <ele>935</ele>
        <time>2000-01-02T05:05:43.000Z</time>
      </trkpt>
      <trkpt lat="46.04531" lon="6.77559">
        <ele>937.4</ele>
        <time>2000-01-02T05:05:53.000Z</time>
      </trkpt>
      <trkpt lat="46.04528" lon="6.77571">
        <ele>938.8</ele>
        <time>2000-01-02T05:06:03.000Z</time>
      </trkpt>
      <trkpt lat="46.04525" lon="6.77577">
        <ele>938.8</ele>
        <time>2000-01-02T05:06:13.000Z</time>
      </trkpt>
      <trkpt lat="46.04518" lon="6.77585">
        <ele>933</ele>
        <time>2000-01-02T05:06:23.000Z</time>
      </trkpt>
      <trkpt lat="46.04511" lon="6.77589">
        <ele>936</ele>
        <time>2000-01-02T05:06:33.000Z</time>
      </trkpt>
      <trkpt lat="46.04506" lon="6.77595">
        <ele>935.3</ele>
        <time>2000-01-02T05:06:43.000Z</time>
      </trkpt>
      <trkpt lat="46.045" lon="6.77608">
        <ele>933</ele>
        <time>2000-01-02T05:06:53.000Z</time>
      </trkpt>
      <trkpt lat="46.04492" lon="6.77624">
        <ele>936</ele>
        <time>2000-01-02T05:07:03.000Z</time>
      </trkpt>
      <trkpt lat="46.04486" lon="6.77632">
        <ele>933</ele>
        <time>2000-01-02T05:07:13.000Z</time>
      </trkpt>
      <trkpt lat="46.0448" lon="6.77635">
        <ele>934.5</ele>
        <time>2000-01-02T05:07:23.000Z</time>
      </trkpt>
      <trkpt lat="46.04469" lon="6.77636">
        <ele>932.1</ele>
        <time>2000-01-02T05:07:33.000Z</time>
      </trkpt>
      <trkpt lat="46.04463" lon="6.77635">
        <ele>929</ele>
        <time>2000-01-02T05:07:43.000Z</time>
      </trkpt>
      <trkpt lat="46.04459" lon="6.7763">
        <ele>930.1</ele>
        <time>2000-01-02T05:07:53.000Z</time>
      </trkpt>
      <trkpt lat="46.04456" lon="6.77621">
        <ele>928.4</ele>
        <time>2000-01-02T05:08:03.000Z</time>
      </trkpt>
      <trkpt lat="46.04454" lon="6.77609">
        <ele>924</ele>
        <time>2000-01-02T05:08:13.000Z</time>
      </trkpt>
      <trkpt lat="46.04452" lon="6.77595">
        <ele>924.1</ele>
        <time>2000-01-02T05:08:23.000Z</time>
      </trkpt>
      <trkpt lat="46.0445" lon="6.77588">
        <ele>922.9</ele>
        <time>2000-01-02T05:08:33.000Z</time>
      </trkpt>
      <trkpt lat="46.04446" lon="6.77583">
        <ele>921</ele>
        <time>2000-01-02T05:08:43.000Z</time>
      </trkpt>
      <trkpt lat="46.04439" lon="6.77582">
        <ele>922.2</ele>
        <time>2000-01-02T05:08:53.000Z</time>
      </trkpt>
      <trkpt lat="46.04431" lon="6.77579">
        <ele>922.3</ele>
        <time>2000-01-02T05:09:03.000Z</time>
      </trkpt>
      <trkpt lat="46.04425" lon="6.7757">
        <ele>920</ele>
        <time>2000-01-02T05:09:13.000Z</time>
      </trkpt>
      <trkpt lat="46.0442" lon="6.77557">
        <ele>920</ele>
        <time>2000-01-02T05:09:23.000Z</time>
      </trkpt>
      <trkpt lat="46.04417" lon="6.77549">
        <ele>919.3</ele>
        <time>2000-01-02T05:09:33.000Z</time>
      </trkpt>
      <trkpt lat="46.04417" lon="6.7754">
        <ele>919</ele>
        <time>2000-01-02T05:09:43.000Z</time>
      </trkpt>
      <trkpt lat="46.04419" lon="6.77533">
        <ele>917.3</ele>
        <time>2000-01-02T05:09:53.000Z</time>
      </trkpt>
      <trkpt lat="46.04423" lon="6.77528">
        <ele>916.3</ele>
        <time>2000-01-02T05:10:03.000Z</time>
      </trkpt>
      <trkpt lat="46.04428" lon="6.77525">
        <ele>915.4</ele>
        <time>2000-01-02T05:10:13.000Z</time>
      </trkpt>
      <trkpt lat="46.04431" lon="6.77523">
        <ele>914</ele>
        <time>2000-01-02T05:10:23.000Z</time>
      </trkpt>
      <trkpt lat="46.04434" lon="6.77521">
        <ele>914.2</ele>
        <time>2000-01-02T05:10:33.000Z</time>
      </trkpt>
      <trkpt lat="46.04442" lon="6.77517">
        <ele>912.7</ele>
        <time>2000-01-02T05:10:43.000Z</time>
      </trkpt>
      <trkpt lat="46.04448" lon="6.77511">
        <ele>912</ele>
        <time>2000-01-02T05:10:53.000Z</time>
      </trkpt>
      <trkpt lat="46.04452" lon="6.77504">
        <ele>910.6</ele>
        <time>2000-01-02T05:11:03.000Z</time>
      </trkpt>
      <trkpt lat="46.04453" lon="6.77495">
        <ele>909.4</ele>
        <time>2000-01-02T05:11:13.000Z</time>
      </trkpt>
      <trkpt lat="46.04454" lon="6.77483">
        <ele>907</ele>
        <time>2000-01-02T05:11:23.000Z</time>
      </trkpt>
      <trkpt lat="46.04452" lon="6.77468">
        <ele>906.1</ele>
        <time>2000-01-02T05:11:33.000Z</time>
      </trkpt>
      <trkpt lat="46.04452" lon="6.77454">
        <ele>902</ele>
        <time>2000-01-02T05:11:43.000Z</time>
      </trkpt>
      <trkpt lat="46.04452" lon="6.77447">
        <ele>902.8</ele>
        <time>2000-01-02T05:11:53.000Z</time>
      </trkpt>
      <trkpt lat="46.04455" lon="6.77439">
        <ele>901.4</ele>
        <time>2000-01-02T05:12:03.000Z</time>
      </trkpt>
      <trkpt lat="46.04458" lon="6.77431">
        <ele>899.9</ele>
        <time>2000-01-02T05:12:13.000Z</time>
      </trkpt>
      <trkpt lat="46.04462" lon="6.77423">
        <ele>897</ele>
        <time>2000-01-02T05:12:23.000Z</time>
      </trkpt>
      <trkpt lat="46.04466" lon="6.77421">
        <ele>897.4</ele>
        <time>2000-01-02T05:12:33.000Z</time>
      </trkpt>
      <trkpt lat="46.04472" lon="6.7742">
        <ele>896.6</ele>
        <time>2000-01-02T05:12:43.000Z</time>
      </trkpt>
      <trkpt lat="46.04478" lon="6.77419">
        <ele>896.4</ele>
        <time>2000-01-02T05:12:53.000Z</time>
      </trkpt>
      <trkpt lat="46.04485" lon="6.77415">
        <ele>894</ele>
        <time>2000-01-02T05:13:03.000Z</time>
      </trkpt>
      <trkpt lat="46.04491" lon="6.77408">
        <ele>894.5</ele>
        <time>2000-01-02T05:13:13.000Z</time>
      </trkpt>
      <trkpt lat="46.04496" lon="6.77391">
        <ele>891</ele>
        <time>2000-01-02T05:13:23.000Z</time>
      </trkpt>
      <trkpt lat="46.04502" lon="6.77378">
        <ele>889.4</ele>
        <time>2000-01-02T05:13:33.000Z</time>
      </trkpt>
      <trkpt lat="46.04507" lon="6.77371">
        <ele>888.3</ele>
        <time>2000-01-02T05:13:43.000Z</time>
      </trkpt>
      <trkpt lat="46.04513" lon="6.77368">
        <ele>886</ele>
        <time>2000-01-02T05:13:53.000Z</time>
      </trkpt>
      <trkpt lat="46.04523" lon="6.77367">
        <ele>887.2</ele>
        <time>2000-01-02T05:14:03.000Z</time>
      </trkpt>
      <trkpt lat="46.04528" lon="6.77364">
        <ele>886.5</ele>
        <time>2000-01-02T05:14:13.000Z</time>
      </trkpt>
      <trkpt lat="46.04534" lon="6.77358">
        <ele>883</ele>
        <time>2000-01-02T05:14:23.000Z</time>
      </trkpt>
      <trkpt lat="46.04548" lon="6.77345">
        <ele>881.9</ele>
        <time>2000-01-02T05:14:33.000Z</time>
      </trkpt>
      <trkpt lat="46.04559" lon="6.77328">
        <ele>877</ele>
        <time>2000-01-02T05:14:43.000Z</time>
      </trkpt>
      <trkpt lat="46.04565" lon="6.77317">
        <ele>875.5</ele>
        <time>2000-01-02T05:14:53.000Z</time>
      </trkpt>
      <trkpt lat="46.04566" lon="6.7731">
        <ele>874.1</ele>
        <time>2000-01-02T05:15:03.000Z</time>
      </trkpt>
      <trkpt lat="46.04566" lon="6.77302">
        <ele>873</ele>
        <time>2000-01-02T05:15:13.000Z</time>
      </trkpt>
      <trkpt lat="46.04563" lon="6.77292">
        <ele>871.9</ele>
        <time>2000-01-02T05:15:23.000Z</time>
      </trkpt>
      <trkpt lat="46.04563" lon="6.77283">
        <ele>870.8</ele>
        <time>2000-01-02T05:15:33.000Z</time>
      </trkpt>
      <trkpt lat="46.04563" lon="6.77275">
        <ele>869</ele>
        <time>2000-01-02T05:15:43.000Z</time>
      </trkpt>
      <trkpt lat="46.04565" lon="6.77259">
        <ele>867.3</ele>
        <time>2000-01-02T05:15:53.000Z</time>
      </trkpt>
      <trkpt lat="46.04565" lon="6.77247">
        <ele>865</ele>
        <time>2000-01-02T05:16:03.000Z</time>
      </trkpt>
      <trkpt lat="46.04564" lon="6.77241">
        <ele>865.1</ele>
        <time>2000-01-02T05:16:13.000Z</time>
      </trkpt>
      <trkpt lat="46.0456" lon="6.77232">
        <ele>864.6</ele>
        <time>2000-01-02T05:16:23.000Z</time>
      </trkpt>
      <trkpt lat="46.04559" lon="6.77222">
        <ele>863</ele>
        <time>2000-01-02T05:16:33.000Z</time>
      </trkpt>
      <trkpt lat="46.04561" lon="6.77216">
        <ele>862.6</ele>
        <time>2000-01-02T05:16:43.000Z</time>
      </trkpt>
      <trkpt lat="46.04565" lon="6.77211">
        <ele>861.5</ele>
        <time>2000-01-02T05:16:53.000Z</time>
      </trkpt>
      <trkpt lat="46.0457" lon="6.77208">
        <ele>860.7</ele>
        <time>2000-01-02T05:17:03.000Z</time>
      </trkpt>
      <trkpt lat="46.04577" lon="6.77207">
        <ele>859</ele>
        <time>2000-01-02T05:17:13.000Z</time>
      </trkpt>
      <trkpt lat="46.04611" lon="6.77211">
        <ele>857</ele>
        <time>2000-01-02T05:17:23.000Z</time>
      </trkpt>
      <trkpt lat="46.04627" lon="6.77213">
        <ele>854.7</ele>
        <time>2000-01-02T05:17:33.000Z</time>
      </trkpt>
      <trkpt lat="46.04636" lon="6.77217">
        <ele>854</ele>
        <time>2000-01-02T05:17:43.000Z</time>
      </trkpt>
      <trkpt lat="46.04642" lon="6.77221">
        <ele>853.4</ele>
        <time>2000-01-02T05:17:53.000Z</time>
      </trkpt>
      <trkpt lat="46.04649" lon="6.77231">
        <ele>853.5</ele>
        <time>2000-01-02T05:18:03.000Z</time>
      </trkpt>
      <trkpt lat="46.04656" lon="6.77234">
        <ele>853</ele>
        <time>2000-01-02T05:18:13.000Z</time>
      </trkpt>
      <trkpt lat="46.0466" lon="6.77234">
        <ele>852.2</ele>
        <time>2000-01-02T05:18:23.000Z</time>
      </trkpt>
      <trkpt lat="46.04663" lon="6.77231">
        <ele>851.5</ele>
        <time>2000-01-02T05:18:33.000Z</time>
      </trkpt>
      <trkpt lat="46.04665" lon="6.77225">
        <ele>850.5</ele>
        <time>2000-01-02T05:18:43.000Z</time>
      </trkpt>
      <trkpt lat="46.04667" lon="6.77218">
        <ele>849.5</ele>
        <time>2000-01-02T05:18:53.000Z</time>
      </trkpt>
      <trkpt lat="46.04667" lon="6.77209">
        <ele>848</ele>
        <time>2000-01-02T05:19:03.000Z</time>
      </trkpt>
      <trkpt lat="46.04667" lon="6.77191">
        <ele>846.7</ele>
        <time>2000-01-02T05:19:13.000Z</time>
      </trkpt>
      <trkpt lat="46.04668" lon="6.7718">
        <ele>846</ele>
        <time>2000-01-02T05:19:23.000Z</time>
      </trkpt>
      <trkpt lat="46.04671" lon="6.77169">
        <ele>844.5</ele>
        <time>2000-01-02T05:19:33.000Z</time>
      </trkpt>
      <trkpt lat="46.04675" lon="6.77155">
        <ele>842.7</ele>
        <time>2000-01-02T05:19:43.000Z</time>
      </trkpt>
      <trkpt lat="46.04676" lon="6.77146">
        <ele>842</ele>
        <time>2000-01-02T05:19:53.000Z</time>
      </trkpt>
      <trkpt lat="46.04676" lon="6.77144">
        <ele>841.5</ele>
        <time>2000-01-02T05:20:03.000Z</time>
      </trkpt>
      <trkpt lat="46.04684" lon="6.77139">
        <ele>840.1</ele>
        <time>2000-01-02T05:20:13.000Z</time>
      </trkpt>
      <trkpt lat="46.04692" lon="6.77134">
        <ele>838</ele>
        <time>2000-01-02T05:20:23.000Z</time>
      </trkpt>
      <trkpt lat="46.04703" lon="6.77125">
        <ele>836.8</ele>
        <time>2000-01-02T05:20:33.000Z</time>
      </trkpt>
      <trkpt lat="46.04708" lon="6.77116">
        <ele>836</ele>
        <time>2000-01-02T05:20:43.000Z</time>
      </trkpt>
      <trkpt lat="46.04715" lon="6.77108">
        <ele>833.8</ele>
        <time>2000-01-02T05:20:53.000Z</time>
      </trkpt>
      <trkpt lat="46.04724" lon="6.77101">
        <ele>832</ele>
        <time>2000-01-02T05:21:03.000Z</time>
      </trkpt>
      <trkpt lat="46.04733" lon="6.77097">
        <ele>830</ele>
        <time>2000-01-02T05:21:13.000Z</time>
      </trkpt>
      <trkpt lat="46.04742" lon="6.77095">
        <ele>829</ele>
        <time>2000-01-02T05:21:23.000Z</time>
      </trkpt>
      <trkpt lat="46.0475" lon="6.77092">
        <ele>827.6</ele>
        <time>2000-01-02T05:21:33.000Z</time>
      </trkpt>
      <trkpt lat="46.04754" lon="6.77091">
        <ele>827</ele>
        <time>2000-01-02T05:21:43.000Z</time>
      </trkpt>
      <trkpt lat="46.04757" lon="6.7709">
        <ele>826.4</ele>
        <time>2000-01-02T05:21:53.000Z</time>
      </trkpt>
      <trkpt lat="46.04763" lon="6.77085">
        <ele>825.2</ele>
        <time>2000-01-02T05:22:03.000Z</time>
      </trkpt>
      <trkpt lat="46.04765" lon="6.77082">
        <ele>824.7</ele>
        <time>2000-01-02T05:22:13.000Z</time>
      </trkpt>
      <trkpt lat="46.0477" lon="6.77076">
        <ele>823</ele>
        <time>2000-01-02T05:22:23.000Z</time>
      </trkpt>
      <trkpt lat="46.04773" lon="6.77074">
        <ele>823</ele>
        <time>2000-01-02T05:22:33.000Z</time>
      </trkpt>
      <trkpt lat="46.04776" lon="6.77073">
        <ele>822.5</ele>
        <time>2000-01-02T05:22:43.000Z</time>
      </trkpt>
      <trkpt lat="46.04781" lon="6.7707">
        <ele>821.6</ele>
        <time>2000-01-02T05:22:53.000Z</time>
      </trkpt>
      <trkpt lat="46.04781" lon="6.77069">
        <ele>821.5</ele>
        <time>2000-01-02T05:23:03.000Z</time>
      </trkpt>
      <trkpt lat="46.04782" lon="6.77069">
        <ele>821.4</ele>
        <time>2000-01-02T05:23:13.000Z</time>
      </trkpt>
      <trkpt lat="46.04789" lon="6.77065">
        <ele>821</ele>
        <time>2000-01-02T05:23:23.000Z</time>
      </trkpt>
      <trkpt lat="46.04792" lon="6.77061">
        <ele>819.3</ele>
        <time>2000-01-02T05:23:33.000Z</time>
      </trkpt>
      <trkpt lat="46.04798" lon="6.77056">
        <ele>818.1</ele>
        <time>2000-01-02T05:23:43.000Z</time>
      </trkpt>
      <trkpt lat="46.04795" lon="6.77046">
        <ele>818</ele>
        <time>2000-01-02T05:23:53.000Z</time>
      </trkpt>
      <trkpt lat="46.04793" lon="6.77036">
        <ele>818</ele>
        <time>2000-01-02T05:24:03.000Z</time>
      </trkpt>
      <trkpt lat="46.04801" lon="6.77038">
        <ele>816.9</ele>
        <time>2000-01-02T05:24:13.000Z</time>
      </trkpt>
      <trkpt lat="46.04808" lon="6.77039">
        <ele>816.1</ele>
        <time>2000-01-02T05:24:23.000Z</time>
      </trkpt>
      <trkpt lat="46.04816" lon="6.77039">
        <ele>815</ele>
        <time>2000-01-02T05:24:33.000Z</time>
      </trkpt>
      <trkpt lat="46.04824" lon="6.77038">
        <ele>813.7</ele>
        <time>2000-01-02T05:24:43.000Z</time>
      </trkpt>
      <trkpt lat="46.04833" lon="6.77039">
        <ele>812.5</ele>
        <time>2000-01-02T05:24:53.000Z</time>
      </trkpt>
      <trkpt lat="46.0484" lon="6.77053">
        <ele>813</ele>
        <time>2000-01-02T05:25:03.000Z</time>
      </trkpt>
      <trkpt lat="46.04844" lon="6.77068">
        <ele>812.4</ele>
        <time>2000-01-02T05:25:13.000Z</time>
      </trkpt>
      <trkpt lat="46.04851" lon="6.77076">
        <ele>811</ele>
        <time>2000-01-02T05:25:23.000Z</time>
      </trkpt>
      <trkpt lat="46.04858" lon="6.77085">
        <ele>811.5</ele>
        <time>2000-01-02T05:25:33.000Z</time>
      </trkpt>
      <trkpt lat="46.04866" lon="6.77094">
        <ele>810</ele>
        <time>2000-01-02T05:25:43.000Z</time>
      </trkpt>
      <trkpt lat="46.04875" lon="6.77105">
        <ele>808.9</ele>
        <time>2000-01-02T05:25:53.000Z</time>
      </trkpt>
      <trkpt lat="46.04885" lon="6.77112">
        <ele>808</ele>
        <time>2000-01-02T05:26:03.000Z</time>
      </trkpt>
      <trkpt lat="46.04891" lon="6.77118">
        <ele>806.9</ele>
        <time>2000-01-02T05:26:13.000Z</time>
      </trkpt>
      <trkpt lat="46.049" lon="6.77126">
        <ele>805.8</ele>
        <time>2000-01-02T05:26:23.000Z</time>
      </trkpt>
      <trkpt lat="46.0491" lon="6.77136">
        <ele>805</ele>
        <time>2000-01-02T05:26:33.000Z</time>
      </trkpt>
      <trkpt lat="46.04919" lon="6.77141">
        <ele>803.7</ele>
        <time>2000-01-02T05:26:43.000Z</time>
      </trkpt>
      <trkpt lat="46.04927" lon="6.7715">
        <ele>803</ele>
        <time>2000-01-02T05:26:53.000Z</time>
      </trkpt>
      <trkpt lat="46.04936" lon="6.77156">
        <ele>801.8</ele>
        <time>2000-01-02T05:27:03.000Z</time>
      </trkpt>
      <trkpt lat="46.04945" lon="6.77165">
        <ele>801</ele>
        <time>2000-01-02T05:27:13.000Z</time>
      </trkpt>
      <trkpt lat="46.04956" lon="6.77173">
        <ele>799.8</ele>
        <time>2000-01-02T05:27:23.000Z</time>
      </trkpt>
      <trkpt lat="46.04966" lon="6.77181">
        <ele>799</ele>
        <time>2000-01-02T05:27:33.000Z</time>
      </trkpt>
      <trkpt lat="46.04969" lon="6.77183">
        <ele>798.6</ele>
        <time>2000-01-02T05:27:43.000Z</time>
      </trkpt>
      <trkpt lat="46.04993" lon="6.77205">
        <ele>796</ele>
        <time>2000-01-02T05:27:53.000Z</time>
      </trkpt>
      <trkpt lat="46.05013" lon="6.77225">
        <ele>795</ele>
        <time>2000-01-02T05:28:03.000Z</time>
      </trkpt>
      <trkpt lat="46.05028" lon="6.77238">
        <ele>795.7</ele>
        <time>2000-01-02T05:28:13.000Z</time>
      </trkpt>
      <trkpt lat="46.05035" lon="6.77243">
        <ele>795</ele>
        <time>2000-01-02T05:28:23.000Z</time>
      </trkpt>
      <trkpt lat="46.05041" lon="6.77247">
        <ele>794.8</ele>
        <time>2000-01-02T05:28:33.000Z</time>
      </trkpt>
      <trkpt lat="46.05052" lon="6.77252">
        <ele>793</ele>
        <time>2000-01-02T05:28:43.000Z</time>
      </trkpt>
      <trkpt lat="46.05072" lon="6.77259">
        <ele>790</ele>
        <time>2000-01-02T05:28:53.000Z</time>
      </trkpt>
      <trkpt lat="46.05105" lon="6.77267">
        <ele>787</ele>
        <time>2000-01-02T05:29:03.000Z</time>
      </trkpt>
      <trkpt lat="46.05149" lon="6.77277">
        <ele>783</ele>
        <time>2000-01-02T05:29:13.000Z</time>
      </trkpt>
      <trkpt lat="46.05176" lon="6.77284">
        <ele>780</ele>
        <time>2000-01-02T05:29:23.000Z</time>
      </trkpt>
      <trkpt lat="46.05189" lon="6.77289">
        <ele>777.8</ele>
        <time>2000-01-02T05:29:33.000Z</time>
      </trkpt>
      <trkpt lat="46.05197" lon="6.77293">
        <ele>777</ele>
        <time>2000-01-02T05:29:43.000Z</time>
      </trkpt>
      <trkpt lat="46.05198" lon="6.77293">
        <ele>776</ele>
        <time>2000-01-02T05:29:53.000Z</time>
      </trkpt>
      <trkpt lat="46.05206" lon="6.77299">
        <ele>774.3</ele>
        <time>2000-01-02T05:30:03.000Z</time>
      </trkpt>
      <trkpt lat="46.05216" lon="6.7731">
        <ele>773</ele>
        <time>2000-01-02T05:30:13.000Z</time>
      </trkpt>
      <trkpt lat="46.05226" lon="6.77321">
        <ele>770.9</ele>
        <time>2000-01-02T05:30:23.000Z</time>
      </trkpt>
      <trkpt lat="46.05235" lon="6.77335">
        <ele>770</ele>
        <time>2000-01-02T05:30:33.000Z</time>
      </trkpt>
      <trkpt lat="46.05244" lon="6.77354">
        <ele>769.3</ele>
        <time>2000-01-02T05:30:43.000Z</time>
      </trkpt>
      <trkpt lat="46.05253" lon="6.77378">
        <ele>770</ele>
        <time>2000-01-02T05:30:53.000Z</time>
      </trkpt>
      <trkpt lat="46.05254" lon="6.77379">
        <ele>770</ele>
        <time>2000-01-02T05:31:03.000Z</time>
      </trkpt>
      <trkpt lat="46.05256" lon="6.77383">
        <ele>770.1</ele>
        <time>2000-01-02T05:31:13.000Z</time>
      </trkpt>
      <trkpt lat="46.0526" lon="6.7739">
        <ele>769.9</ele>
        <time>2000-01-02T05:31:23.000Z</time>
      </trkpt>
      <trkpt lat="46.05263" lon="6.77397">
        <ele>770.1</ele>
        <time>2000-01-02T05:31:33.000Z</time>
      </trkpt>
      <trkpt lat="46.05267" lon="6.77407">
        <ele>771</ele>
        <time>2000-01-02T05:31:43.000Z</time>
      </trkpt>
      <trkpt lat="46.05271" lon="6.77418">
        <ele>770.6</ele>
        <time>2000-01-02T05:31:53.000Z</time>
      </trkpt>
      <trkpt lat="46.05275" lon="6.77425">
        <ele>770</ele>
        <time>2000-01-02T05:32:03.000Z</time>
      </trkpt>
      <trkpt lat="46.05276" lon="6.77431">
        <ele>770</ele>
        <time>2000-01-02T05:32:13.000Z</time>
      </trkpt>
      <trkpt lat="46.05279" lon="6.77436">
        <ele>769.7</ele>
        <time>2000-01-02T05:32:23.000Z</time>
      </trkpt>
      <trkpt lat="46.05282" lon="6.77444">
        <ele>769.7</ele>
        <time>2000-01-02T05:32:33.000Z</time>
      </trkpt>
      <trkpt lat="46.05285" lon="6.7745">
        <ele>770</ele>
        <time>2000-01-02T05:32:43.000Z</time>
      </trkpt>
      <trkpt lat="46.05289" lon="6.77459">
        <ele>770</ele>
        <time>2000-01-02T05:32:53.000Z</time>
      </trkpt>
      <trkpt lat="46.05289" lon="6.77459">
        <ele>770.5</ele>
        <time>2000-01-02T05:33:03.000Z</time>
      </trkpt>
      <trkpt lat="46.05291" lon="6.77431">
        <ele>764</ele>
        <time>2000-01-02T05:33:13.000Z</time>
      </trkpt>
      <trkpt lat="46.05291" lon="6.77419">
        <ele>763.6</ele>
        <time>2000-01-02T05:33:23.000Z</time>
      </trkpt>
      <trkpt lat="46.05291" lon="6.77409">
        <ele>762.7</ele>
        <time>2000-01-02T05:33:33.000Z</time>
      </trkpt>
      <trkpt lat="46.05294" lon="6.77402">
        <ele>760</ele>
        <time>2000-01-02T05:33:43.000Z</time>
      </trkpt>
      <trkpt lat="46.05297" lon="6.77393">
        <ele>760</ele>
        <time>2000-01-02T05:33:53.000Z</time>
      </trkpt>
      <trkpt lat="46.05307" lon="6.77382">
        <ele>758</ele>
        <time>2000-01-02T05:34:03.000Z</time>
      </trkpt>
      <trkpt lat="46.05313" lon="6.77378">
        <ele>758</ele>
        <time>2000-01-02T05:34:13.000Z</time>
      </trkpt>
      <trkpt lat="46.05319" lon="6.7738">
        <ele>758</ele>
        <time>2000-01-02T05:34:23.000Z</time>
      </trkpt>
      <trkpt lat="46.05324" lon="6.77388">
        <ele>758</ele>
        <time>2000-01-02T05:34:33.000Z</time>
      </trkpt>
      <trkpt lat="46.05331" lon="6.774">
        <ele>758</ele>
        <time>2000-01-02T05:34:43.000Z</time>
      </trkpt>
      <trkpt lat="46.05336" lon="6.77408">
        <ele>758</ele>
        <time>2000-01-02T05:34:53.000Z</time>
      </trkpt>
      <trkpt lat="46.05343" lon="6.77414">
        <ele>758</ele>
        <time>2000-01-02T05:35:03.000Z</time>
      </trkpt>
      <trkpt lat="46.0535" lon="6.77414">
        <ele>758</ele>
        <time>2000-01-02T05:35:13.000Z</time>
      </trkpt>
      <trkpt lat="46.05357" lon="6.77412">
        <ele>758</ele>
        <time>2000-01-02T05:35:23.000Z</time>
      </trkpt>
      <trkpt lat="46.05361" lon="6.77408">
        <ele>758</ele>
        <time>2000-01-02T05:35:33.000Z</time>
      </trkpt>
      <trkpt lat="46.05368" lon="6.77406">
        <ele>758</ele>
        <time>2000-01-02T05:35:43.000Z</time>
      </trkpt>
      <trkpt lat="46.05376" lon="6.77402">
        <ele>758</ele>
        <time>2000-01-02T05:35:53.000Z</time>
      </trkpt>
      <trkpt lat="46.05378" lon="6.77402">
        <ele>758</ele>
        <time>2000-01-02T05:36:03.000Z</time>
      </trkpt>
      <trkpt lat="46.05382" lon="6.77399">
        <ele>758</ele>
        <time>2000-01-02T05:36:13.000Z</time>
      </trkpt>
      <trkpt lat="46.05387" lon="6.77398">
        <ele>758</ele>
        <time>2000-01-02T05:36:23.000Z</time>
      </trkpt>
      <trkpt lat="46.05394" lon="6.77395">
        <ele>758</ele>
        <time>2000-01-02T05:36:33.000Z</time>
      </trkpt>
      <trkpt lat="46.05394" lon="6.77389">
        <ele>758</ele>
        <time>2000-01-02T05:36:43.000Z</time>
      </trkpt>
      <trkpt lat="46.05396" lon="6.77381">
        <ele>757.9</ele>
        <time>2000-01-02T05:36:53.000Z</time>
      </trkpt>
      <trkpt lat="46.05397" lon="6.77374">
        <ele>758</ele>
        <time>2000-01-02T05:37:03.000Z</time>
      </trkpt>
      <trkpt lat="46.05399" lon="6.77367">
        <ele>757.7</ele>
        <time>2000-01-02T05:37:13.000Z</time>
      </trkpt>
      <trkpt lat="46.054" lon="6.77359">
        <ele>757.6</ele>
        <time>2000-01-02T05:37:23.000Z</time>
      </trkpt>
      <trkpt lat="46.05404" lon="6.77351">
        <ele>757.7</ele>
        <time>2000-01-02T05:37:33.000Z</time>
      </trkpt>
      <trkpt lat="46.05407" lon="6.77344">
        <ele>757</ele>
        <time>2000-01-02T05:37:43.000Z</time>
      </trkpt>
      <trkpt lat="46.0541" lon="6.77337">
        <ele>757.9</ele>
        <time>2000-01-02T05:37:53.000Z</time>
      </trkpt>
      <trkpt lat="46.05415" lon="6.77327">
        <ele>758</ele>
        <time>2000-01-02T05:38:03.000Z</time>
      </trkpt>
      <trkpt lat="46.0542" lon="6.77322">
        <ele>757</ele>
        <time>2000-01-02T05:38:13.000Z</time>
      </trkpt>
      <trkpt lat="46.05423" lon="6.77315">
        <ele>757.6</ele>
        <time>2000-01-02T05:38:23.000Z</time>
      </trkpt>
      <trkpt lat="46.05426" lon="6.77303">
        <ele>757.3</ele>
        <time>2000-01-02T05:38:33.000Z</time>
      </trkpt>
      <trkpt lat="46.05426" lon="6.77294">
        <ele>756</ele>
        <time>2000-01-02T05:38:43.000Z</time>
      </trkpt>
      <trkpt lat="46.05425" lon="6.77284">
        <ele>756.9</ele>
        <time>2000-01-02T05:38:53.000Z</time>
      </trkpt>
      <trkpt lat="46.05422" lon="6.77275">
        <ele>756.7</ele>
        <time>2000-01-02T05:39:03.000Z</time>
      </trkpt>
      <trkpt lat="46.05419" lon="6.77267">
        <ele>756</ele>
        <time>2000-01-02T05:39:13.000Z</time>
      </trkpt>
      <trkpt lat="46.05417" lon="6.77258">
        <ele>756.3</ele>
        <time>2000-01-02T05:39:23.000Z</time>
      </trkpt>
      <trkpt lat="46.05416" lon="6.77252">
        <ele>756.1</ele>
        <time>2000-01-02T05:39:33.000Z</time>
      </trkpt>
      <trkpt lat="46.05413" lon="6.77246">
        <ele>756</ele>
        <time>2000-01-02T05:39:43.000Z</time>
      </trkpt>
      <trkpt lat="46.0541" lon="6.77236">
        <ele>756</ele>
        <time>2000-01-02T05:39:53.000Z</time>
      </trkpt>
      <trkpt lat="46.05407" lon="6.7723">
        <ele>755.7</ele>
        <time>2000-01-02T05:40:03.000Z</time>
      </trkpt>
      <trkpt lat="46.05406" lon="6.77224">
        <ele>755.6</ele>
        <time>2000-01-02T05:40:13.000Z</time>
      </trkpt>
      <trkpt lat="46.05403" lon="6.77217">
        <ele>755.6</ele>
        <time>2000-01-02T05:40:23.000Z</time>
      </trkpt>
      <trkpt lat="46.05401" lon="6.77207">
        <ele>755</ele>
        <time>2000-01-02T05:40:33.000Z</time>
      </trkpt>
      <trkpt lat="46.05397" lon="6.77198">
        <ele>755.5</ele>
        <time>2000-01-02T05:40:43.000Z</time>
      </trkpt>
      <trkpt lat="46.05394" lon="6.7719">
        <ele>755.3</ele>
        <time>2000-01-02T05:40:53.000Z</time>
      </trkpt>
      <trkpt lat="46.05391" lon="6.77184">
        <ele>755</ele>
        <time>2000-01-02T05:41:03.000Z</time>
      </trkpt>
      <trkpt lat="46.05388" lon="6.77175">
        <ele>755</ele>
        <time>2000-01-02T05:41:13.000Z</time>
      </trkpt>
      <trkpt lat="46.05384" lon="6.77167">
        <ele>755</ele>
        <time>2000-01-02T05:41:23.000Z</time>
      </trkpt>
      <trkpt lat="46.05381" lon="6.77157">
        <ele>754</ele>
        <time>2000-01-02T05:41:33.000Z</time>
      </trkpt>
      <trkpt lat="46.05378" lon="6.77147">
        <ele>754.3</ele>
        <time>2000-01-02T05:41:43.000Z</time>
      </trkpt>
      <trkpt lat="46.05376" lon="6.77141">
        <ele>754.1</ele>
        <time>2000-01-02T05:41:53.000Z</time>
      </trkpt>
      <trkpt lat="46.05374" lon="6.77133">
        <ele>754</ele>
        <time>2000-01-02T05:42:03.000Z</time>
      </trkpt>
      <trkpt lat="46.05371" lon="6.77127">
        <ele>754</ele>
        <time>2000-01-02T05:42:13.000Z</time>
      </trkpt>
      <trkpt lat="46.05368" lon="6.77119">
        <ele>754</ele>
        <time>2000-01-02T05:42:23.000Z</time>
      </trkpt>
      <trkpt lat="46.05365" lon="6.77111">
        <ele>754</ele>
        <time>2000-01-02T05:42:33.000Z</time>
      </trkpt>
      <trkpt lat="46.05361" lon="6.77103">
        <ele>753</ele>
        <time>2000-01-02T05:42:43.000Z</time>
      </trkpt>
      <trkpt lat="46.05358" lon="6.77092">
        <ele>753.9</ele>
        <time>2000-01-02T05:42:53.000Z</time>
      </trkpt>
      <trkpt lat="46.05355" lon="6.77087">
        <ele>753.8</ele>
        <time>2000-01-02T05:43:03.000Z</time>
      </trkpt>
      <trkpt lat="46.05327" lon="6.7701">
        <ele>752</ele>
        <time>2000-01-02T05:43:13.000Z</time>
      </trkpt>
      <trkpt lat="46.05315" lon="6.76979">
        <ele>752</ele>
        <time>2000-01-02T05:43:23.000Z</time>
      </trkpt>
      <trkpt lat="46.05302" lon="6.76944">
        <ele>752</ele>
        <time>2000-01-02T05:43:33.000Z</time>
      </trkpt>
      <trkpt lat="46.05296" lon="6.76931">
        <ele>752.2</ele>
        <time>2000-01-02T05:43:43.000Z</time>
      </trkpt>
      <trkpt lat="46.05295" lon="6.7693">
        <ele>752.2</ele>
        <time>2000-01-02T05:43:53.000Z</time>
      </trkpt>
      <trkpt lat="46.05288" lon="6.76922">
        <ele>752</ele>
        <time>2000-01-02T05:44:03.000Z</time>
      </trkpt>
      <trkpt lat="46.05278" lon="6.76916">
        <ele>752</ele>
        <time>2000-01-02T05:44:13.000Z</time>
      </trkpt>
      <trkpt lat="46.05264" lon="6.76913">
        <ele>752</ele>
        <time>2000-01-02T05:44:23.000Z</time>
      </trkpt>
      <trkpt lat="46.05252" lon="6.76905">
        <ele>753.1</ele>
        <time>2000-01-02T05:44:33.000Z</time>
      </trkpt>
      <trkpt lat="46.05244" lon="6.76897">
        <ele>752</ele>
        <time>2000-01-02T05:44:43.000Z</time>
      </trkpt>
      <trkpt lat="46.05237" lon="6.76885">
        <ele>753.2</ele>
        <time>2000-01-02T05:44:53.000Z</time>
      </trkpt>
      <trkpt lat="46.05234" lon="6.76876">
        <ele>752.9</ele>
        <time>2000-01-02T05:45:03.000Z</time>
      </trkpt>
      <trkpt lat="46.05232" lon="6.7686">
        <ele>752</ele>
        <time>2000-01-02T05:45:13.000Z</time>
      </trkpt>
      <trkpt lat="46.0523" lon="6.76846">
        <ele>752.4</ele>
        <time>2000-01-02T05:45:23.000Z</time>
      </trkpt>
      <trkpt lat="46.05227" lon="6.76838">
        <ele>752.7</ele>
        <time>2000-01-02T05:45:33.000Z</time>
      </trkpt>
      <trkpt lat="46.05215" lon="6.7682">
        <ele>752</ele>
        <time>2000-01-02T05:45:43.000Z</time>
      </trkpt>
      <trkpt lat="46.05185" lon="6.7678">
        <ele>753</ele>
        <time>2000-01-02T05:45:53.000Z</time>
      </trkpt>
      <trkpt lat="46.05155" lon="6.76744">
        <ele>754</ele>
        <time>2000-01-02T05:46:03.000Z</time>
      </trkpt>
      <trkpt lat="46.05129" lon="6.76717">
        <ele>755</ele>
        <time>2000-01-02T05:46:13.000Z</time>
      </trkpt>
      <trkpt lat="46.05109" lon="6.76697">
        <ele>755</ele>
        <time>2000-01-02T05:46:23.000Z</time>
      </trkpt>
      <trkpt lat="46.05086" lon="6.76675">
        <ele>755</ele>
        <time>2000-01-02T05:46:33.000Z</time>
      </trkpt>
      <trkpt lat="46.05067" lon="6.76658">
        <ele>756</ele>
        <time>2000-01-02T05:46:43.000Z</time>
      </trkpt>
      <trkpt lat="46.05047" lon="6.7664">
        <ele>756</ele>
        <time>2000-01-02T05:46:53.000Z</time>
      </trkpt>
      <trkpt lat="46.05024" lon="6.76621">
        <ele>757</ele>
        <time>2000-01-02T05:47:03.000Z</time>
      </trkpt>
      <trkpt lat="46.05019" lon="6.76619">
        <ele>757.5</ele>
        <time>2000-01-02T05:47:13.000Z</time>
      </trkpt>
      <trkpt lat="46.0501" lon="6.76613">
        <ele>757.7</ele>
        <time>2000-01-02T05:47:23.000Z</time>
      </trkpt>
      <trkpt lat="46.04998" lon="6.76608">
        <ele>757</ele>
        <time>2000-01-02T05:47:33.000Z</time>
      </trkpt>
      <trkpt lat="46.04971" lon="6.76602">
        <ele>758</ele>
        <time>2000-01-02T05:47:43.000Z</time>
      </trkpt>
      <trkpt lat="46.04942" lon="6.76596">
        <ele>758</ele>
        <time>2000-01-02T05:47:53.000Z</time>
      </trkpt>
      <trkpt lat="46.04931" lon="6.76593">
        <ele>759.8</ele>
        <time>2000-01-02T05:48:03.000Z</time>
      </trkpt>
      <trkpt lat="46.04921" lon="6.76587">
        <ele>759</ele>
        <time>2000-01-02T05:48:13.000Z</time>
      </trkpt>
      <trkpt lat="46.04905" lon="6.76573">
        <ele>760</ele>
        <time>2000-01-02T05:48:23.000Z</time>
      </trkpt>
      <trkpt lat="46.0489" lon="6.76557">
        <ele>760.2</ele>
        <time>2000-01-02T05:48:33.000Z</time>
      </trkpt>
      <trkpt lat="46.0488" lon="6.7655">
        <ele>760</ele>
        <time>2000-01-02T05:48:43.000Z</time>
      </trkpt>
      <trkpt lat="46.04855" lon="6.76539">
        <ele>761</ele>
        <time>2000-01-02T05:48:53.000Z</time>
      </trkpt>
      <trkpt lat="46.0483" lon="6.76529">
        <ele>762</ele>
        <time>2000-01-02T05:49:03.000Z</time>
      </trkpt>
      <trkpt lat="46.04817" lon="6.76521">
        <ele>763.6</ele>
        <time>2000-01-02T05:49:13.000Z</time>
      </trkpt>
      <trkpt lat="46.04809" lon="6.76515">
        <ele>764</ele>
        <time>2000-01-02T05:49:23.000Z</time>
      </trkpt>
      <trkpt lat="46.04795" lon="6.76498">
        <ele>764.7</ele>
        <time>2000-01-02T05:49:33.000Z</time>
      </trkpt>
      <trkpt lat="46.04772" lon="6.76471">
        <ele>764</ele>
        <time>2000-01-02T05:49:43.000Z</time>
      </trkpt>
      <trkpt lat="46.04769" lon="6.76463">
        <ele>764.5</ele>
        <time>2000-01-02T05:49:53.000Z</time>
      </trkpt>
      <trkpt lat="46.04767" lon="6.76452">
        <ele>764.2</ele>
        <time>2000-01-02T05:50:03.000Z</time>
      </trkpt>
      <trkpt lat="46.04764" lon="6.7644">
        <ele>764</ele>
        <time>2000-01-02T05:50:13.000Z</time>
      </trkpt>
      <trkpt lat="46.04764" lon="6.76431">
        <ele>763.7</ele>
        <time>2000-01-02T05:50:23.000Z</time>
      </trkpt>
      <trkpt lat="46.04764" lon="6.7643">
        <ele>763.7</ele>
        <time>2000-01-02T05:50:33.000Z</time>
      </trkpt>
      <trkpt lat="46.04762" lon="6.76428">
        <ele>763.9</ele>
        <time>2000-01-02T05:50:43.000Z</time>
      </trkpt>
      <trkpt lat="46.04758" lon="6.76424">
        <ele>764.2</ele>
        <time>2000-01-02T05:50:53.000Z</time>
      </trkpt>
      <trkpt lat="46.04746" lon="6.76415">
        <ele>764</ele>
        <time>2000-01-02T05:51:03.000Z</time>
      </trkpt>
      <trkpt lat="46.04737" lon="6.76409">
        <ele>764.4</ele>
        <time>2000-01-02T05:51:13.000Z</time>
      </trkpt>
      <trkpt lat="46.04726" lon="6.76405">
        <ele>764</ele>
        <time>2000-01-02T05:51:23.000Z</time>
      </trkpt>
      <trkpt lat="46.04716" lon="6.76402">
        <ele>764.3</ele>
        <time>2000-01-02T05:51:33.000Z</time>
      </trkpt>
      <trkpt lat="46.047" lon="6.76399">
        <ele>764</ele>
        <time>2000-01-02T05:51:43.000Z</time>
      </trkpt>
      <trkpt lat="46.04673" lon="6.76397">
        <ele>766</ele>
        <time>2000-01-02T05:51:53.000Z</time>
      </trkpt>
      <trkpt lat="46.04657" lon="6.76395">
        <ele>766.8</ele>
        <time>2000-01-02T05:52:03.000Z</time>
      </trkpt>
      <trkpt lat="46.04641" lon="6.76392">
        <ele>767</ele>
        <time>2000-01-02T05:52:13.000Z</time>
      </trkpt>
      <trkpt lat="46.04625" lon="6.76389">
        <ele>768</ele>
        <time>2000-01-02T05:52:23.000Z</time>
      </trkpt>
      <trkpt lat="46.04599" lon="6.76389">
        <ele>767</ele>
        <time>2000-01-02T05:52:33.000Z</time>
      </trkpt>
      <trkpt lat="46.04572" lon="6.7639">
        <ele>767</ele>
        <time>2000-01-02T05:52:43.000Z</time>
      </trkpt>
      <trkpt lat="46.04543" lon="6.76388">
        <ele>768</ele>
        <time>2000-01-02T05:52:53.000Z</time>
      </trkpt>
      <trkpt lat="46.04517" lon="6.76386">
        <ele>771</ele>
        <time>2000-01-02T05:53:03.000Z</time>
      </trkpt>
      <trkpt lat="46.04494" lon="6.76383">
        <ele>770</ele>
        <time>2000-01-02T05:53:13.000Z</time>
      </trkpt>
      <trkpt lat="46.04475" lon="6.76379">
        <ele>772.8</ele>
        <time>2000-01-02T05:53:23.000Z</time>
      </trkpt>
      <trkpt lat="46.04468" lon="6.7638">
        <ele>770</ele>
        <time>2000-01-02T05:53:33.000Z</time>
      </trkpt>
      <trkpt lat="46.04458" lon="6.76383">
        <ele>773.6</ele>
        <time>2000-01-02T05:53:43.000Z</time>
      </trkpt>
      <trkpt lat="46.04448" lon="6.76388">
        <ele>771</ele>
        <time>2000-01-02T05:53:53.000Z</time>
      </trkpt>
      <trkpt lat="46.0443" lon="6.76401">
        <ele>772</ele>
        <time>2000-01-02T05:54:03.000Z</time>
      </trkpt>
      <trkpt lat="46.04409" lon="6.76415">
        <ele>773</ele>
        <time>2000-01-02T05:54:13.000Z</time>
      </trkpt>
      <trkpt lat="46.04397" lon="6.76421">
        <ele>776.1</ele>
        <time>2000-01-02T05:54:23.000Z</time>
      </trkpt>
      <trkpt lat="46.04371" lon="6.76434">
        <ele>778</ele>
        <time>2000-01-02T05:54:33.000Z</time>
      </trkpt>
      <trkpt lat="46.04342" lon="6.76446">
        <ele>779</ele>
        <time>2000-01-02T05:54:43.000Z</time>
      </trkpt>
      <trkpt lat="46.04319" lon="6.76458">
        <ele>778</ele>
        <time>2000-01-02T05:54:53.000Z</time>
      </trkpt>
      <trkpt lat="46.04313" lon="6.7646">
        <ele>781.8</ele>
        <time>2000-01-02T05:55:03.000Z</time>
      </trkpt>
      <trkpt lat="46.04289" lon="6.76469">
        <ele>778</ele>
        <time>2000-01-02T05:55:13.000Z</time>
      </trkpt>
      <trkpt lat="46.0428" lon="6.76474">
        <ele>781.7</ele>
        <time>2000-01-02T05:55:23.000Z</time>
      </trkpt>
      <trkpt lat="46.0428" lon="6.76474">
        <ele>781.7</ele>
        <time>2000-01-02T05:55:33.000Z</time>
      </trkpt>
      <trkpt lat="46.04266" lon="6.76481">
        <ele>779</ele>
        <time>2000-01-02T05:55:43.000Z</time>
      </trkpt>
      <trkpt lat="46.04252" lon="6.76489">
        <ele>783.4</ele>
        <time>2000-01-02T05:55:53.000Z</time>
      </trkpt>
      <trkpt lat="46.0424" lon="6.76498">
        <ele>780</ele>
        <time>2000-01-02T05:56:03.000Z</time>
      </trkpt>
      <trkpt lat="46.04231" lon="6.76506">
        <ele>783.3</ele>
        <time>2000-01-02T05:56:13.000Z</time>
      </trkpt>
      <trkpt lat="46.04223" lon="6.76514">
        <ele>783</ele>
        <time>2000-01-02T05:56:23.000Z</time>
      </trkpt>
      <trkpt lat="46.04214" lon="6.76525">
        <ele>785.8</ele>
        <time>2000-01-02T05:56:33.000Z</time>
      </trkpt>
      <trkpt lat="46.04205" lon="6.76534">
        <ele>785</ele>
        <time>2000-01-02T05:56:43.000Z</time>
      </trkpt>
      <trkpt lat="46.04197" lon="6.76537">
        <ele>786.4</ele>
        <time>2000-01-02T05:56:53.000Z</time>
      </trkpt>
      <trkpt lat="46.0419" lon="6.76537">
        <ele>786.1</ele>
        <time>2000-01-02T05:57:03.000Z</time>
      </trkpt>
      <trkpt lat="46.04183" lon="6.76535">
        <ele>785</ele>
        <time>2000-01-02T05:57:13.000Z</time>
      </trkpt>
      <trkpt lat="46.04173" lon="6.76526">
        <ele>785.6</ele>
        <time>2000-01-02T05:57:23.000Z</time>
      </trkpt>
      <trkpt lat="46.04161" lon="6.76514">
        <ele>785</ele>
        <time>2000-01-02T05:57:33.000Z</time>
      </trkpt>
      <trkpt lat="46.04153" lon="6.76506">
        <ele>785.8</ele>
        <time>2000-01-02T05:57:43.000Z</time>
      </trkpt>
      <trkpt lat="46.04147" lon="6.76497">
        <ele>786</ele>
        <time>2000-01-02T05:57:53.000Z</time>
      </trkpt>
      <trkpt lat="46.04137" lon="6.76485">
        <ele>787</ele>
        <time>2000-01-02T05:58:03.000Z</time>
      </trkpt>
      <trkpt lat="46.04128" lon="6.76479">
        <ele>787.5</ele>
        <time>2000-01-02T05:58:13.000Z</time>
      </trkpt>
      <trkpt lat="46.04118" lon="6.76476">
        <ele>789</ele>
        <time>2000-01-02T05:58:23.000Z</time>
      </trkpt>
      <trkpt lat="46.04107" lon="6.76474">
        <ele>789.9</ele>
        <time>2000-01-02T05:58:33.000Z</time>
      </trkpt>
      <trkpt lat="46.04094" lon="6.76473">
        <ele>788</ele>
        <time>2000-01-02T05:58:43.000Z</time>
      </trkpt>
      <trkpt lat="46.04081" lon="6.76474">
        <ele>789.8</ele>
        <time>2000-01-02T05:58:53.000Z</time>
      </trkpt>
      <trkpt lat="46.04073" lon="6.76477">
        <ele>788</ele>
        <time>2000-01-02T05:59:03.000Z</time>
      </trkpt>
      <trkpt lat="46.04062" lon="6.7648">
        <ele>788.8</ele>
        <time>2000-01-02T05:59:13.000Z</time>
      </trkpt>
      <trkpt lat="46.04054" lon="6.76485">
        <ele>789</ele>
        <time>2000-01-02T05:59:23.000Z</time>
      </trkpt>
      <trkpt lat="46.04044" lon="6.76493">
        <ele>790.2</ele>
        <time>2000-01-02T05:59:33.000Z</time>
      </trkpt>
      <trkpt lat="46.04036" lon="6.76501">
        <ele>791</ele>
        <time>2000-01-02T05:59:43.000Z</time>
      </trkpt>
      <trkpt lat="46.04025" lon="6.76508">
        <ele>792.5</ele>
        <time>2000-01-02T05:59:53.000Z</time>
      </trkpt>
      <trkpt lat="46.04016" lon="6.76511">
        <ele>791</ele>
        <time>2000-01-02T06:00:03.000Z</time>
      </trkpt>
      <trkpt lat="46.0401" lon="6.76513">
        <ele>792.6</ele>
        <time>2000-01-02T06:00:13.000Z</time>
      </trkpt>
      <trkpt lat="46.04002" lon="6.76512">
        <ele>792.3</ele>
        <time>2000-01-02T06:00:23.000Z</time>
      </trkpt>
      <trkpt lat="46.03997" lon="6.76516">
        <ele>792</ele>
        <time>2000-01-02T06:00:33.000Z</time>
      </trkpt>
      <trkpt lat="46.03989" lon="6.76522">
        <ele>793.4</ele>
        <time>2000-01-02T06:00:43.000Z</time>
      </trkpt>
      <trkpt lat="46.0398" lon="6.76529">
        <ele>794</ele>
        <time>2000-01-02T06:00:53.000Z</time>
      </trkpt>
      <trkpt lat="46.0397" lon="6.76538">
        <ele>794.4</ele>
        <time>2000-01-02T06:01:03.000Z</time>
      </trkpt>
      <trkpt lat="46.03959" lon="6.76549">
        <ele>795</ele>
        <time>2000-01-02T06:01:13.000Z</time>
      </trkpt>
      <trkpt lat="46.03944" lon="6.76561">
        <ele>796.2</ele>
        <time>2000-01-02T06:01:23.000Z</time>
      </trkpt>
      <trkpt lat="46.03926" lon="6.76571">
        <ele>797</ele>
        <time>2000-01-02T06:01:33.000Z</time>
      </trkpt>
      <trkpt lat="46.03912" lon="6.76582">
        <ele>796.8</ele>
        <time>2000-01-02T06:01:43.000Z</time>
      </trkpt>
      <trkpt lat="46.03908" lon="6.76587">
        <ele>797</ele>
        <time>2000-01-02T06:01:53.000Z</time>
      </trkpt>
      <trkpt lat="46.03906" lon="6.76596">
        <ele>797.2</ele>
        <time>2000-01-02T06:02:03.000Z</time>
      </trkpt>
      <trkpt lat="46.03906" lon="6.76605">
        <ele>797.7</ele>
        <time>2000-01-02T06:02:13.000Z</time>
      </trkpt>
      <trkpt lat="46.03905" lon="6.76632">
        <ele>799</ele>
        <time>2000-01-02T06:02:23.000Z</time>
      </trkpt>
      <trkpt lat="46.03902" lon="6.76663">
        <ele>800</ele>
        <time>2000-01-02T06:02:33.000Z</time>
      </trkpt>
      <trkpt lat="46.03896" lon="6.76707">
        <ele>802</ele>
        <time>2000-01-02T06:02:43.000Z</time>
      </trkpt>
      <trkpt lat="46.03888" lon="6.76761">
        <ele>805</ele>
        <time>2000-01-02T06:02:53.000Z</time>
      </trkpt>
      <trkpt lat="46.03881" lon="6.76811">
        <ele>810</ele>
        <time>2000-01-02T06:03:03.000Z</time>
      </trkpt>
      <trkpt lat="46.03875" lon="6.7685">
        <ele>813</ele>
        <time>2000-01-02T06:03:13.000Z</time>
      </trkpt>
      <trkpt lat="46.03872" lon="6.76864">
        <ele>815.2</ele>
        <time>2000-01-02T06:03:23.000Z</time>
      </trkpt>
      <trkpt lat="46.03869" lon="6.76873">
        <ele>816</ele>
        <time>2000-01-02T06:03:33.000Z</time>
      </trkpt>
      <trkpt lat="46.03863" lon="6.76881">
        <ele>813</ele>
        <time>2000-01-02T06:03:43.000Z</time>
      </trkpt>
      <trkpt lat="46.03856" lon="6.76887">
        <ele>816.3</ele>
        <time>2000-01-02T06:03:53.000Z</time>
      </trkpt>
      <trkpt lat="46.03844" lon="6.76897">
        <ele>814</ele>
        <time>2000-01-02T06:04:03.000Z</time>
      </trkpt>
      <trkpt lat="46.03839" lon="6.76904">
        <ele>815.4</ele>
        <time>2000-01-02T06:04:13.000Z</time>
      </trkpt>
      <trkpt lat="46.03823" lon="6.76916">
        <ele>814</ele>
        <time>2000-01-02T06:04:23.000Z</time>
      </trkpt>
      <trkpt lat="46.03801" lon="6.76932">
        <ele>814</ele>
        <time>2000-01-02T06:04:33.000Z</time>
      </trkpt>
      <trkpt lat="46.03792" lon="6.76934">
        <ele>815.2</ele>
        <time>2000-01-02T06:04:43.000Z</time>
      </trkpt>
      <trkpt lat="46.03784" lon="6.76936">
        <ele>815.4</ele>
        <time>2000-01-02T06:04:53.000Z</time>
      </trkpt>
      <trkpt lat="46.03775" lon="6.7694">
        <ele>814</ele>
        <time>2000-01-02T06:05:03.000Z</time>
      </trkpt>
      <trkpt lat="46.03766" lon="6.76953">
        <ele>816.1</ele>
        <time>2000-01-02T06:05:13.000Z</time>
      </trkpt>
      <trkpt lat="46.03757" lon="6.76967">
        <ele>815</ele>
        <time>2000-01-02T06:05:23.000Z</time>
      </trkpt>
      <trkpt lat="46.03755" lon="6.76973">
        <ele>816.4</ele>
        <time>2000-01-02T06:05:33.000Z</time>
      </trkpt>
      <trkpt lat="46.03753" lon="6.76979">
        <ele>816.8</ele>
        <time>2000-01-02T06:05:43.000Z</time>
      </trkpt>
      <trkpt lat="46.0375" lon="6.76993">
        <ele>816</ele>
        <time>2000-01-02T06:05:53.000Z</time>
      </trkpt>
      <trkpt lat="46.03749" lon="6.77005">
        <ele>818.5</ele>
        <time>2000-01-02T06:06:03.000Z</time>
      </trkpt>
      <trkpt lat="46.03749" lon="6.77015">
        <ele>819.2</ele>
        <time>2000-01-02T06:06:13.000Z</time>
      </trkpt>
      <trkpt lat="46.03751" lon="6.77024">
        <ele>819</ele>
        <time>2000-01-02T06:06:23.000Z</time>
      </trkpt>
      <trkpt lat="46.03755" lon="6.77034">
        <ele>821.3</ele>
        <time>2000-01-02T06:06:33.000Z</time>
      </trkpt>
      <trkpt lat="46.03758" lon="6.77044">
        <ele>822.4</ele>
        <time>2000-01-02T06:06:43.000Z</time>
      </trkpt>
      <trkpt lat="46.03759" lon="6.77053">
        <ele>821</ele>
        <time>2000-01-02T06:06:53.000Z</time>
      </trkpt>
      <trkpt lat="46.03756" lon="6.77063">
        <ele>823.3</ele>
        <time>2000-01-02T06:07:03.000Z</time>
      </trkpt>
      <trkpt lat="46.03753" lon="6.77075">
        <ele>823.7</ele>
        <time>2000-01-02T06:07:13.000Z</time>
      </trkpt>
      <trkpt lat="46.03748" lon="6.77089">
        <ele>823</ele>
        <time>2000-01-02T06:07:23.000Z</time>
      </trkpt>
      <trkpt lat="46.03748" lon="6.77096">
        <ele>824.4</ele>
        <time>2000-01-02T06:07:33.000Z</time>
      </trkpt>
      <trkpt lat="46.03748" lon="6.77099">
        <ele>824.5</ele>
        <time>2000-01-02T06:07:43.000Z</time>
      </trkpt>
      <trkpt lat="46.0375" lon="6.77109">
        <ele>824.9</ele>
        <time>2000-01-02T06:07:53.000Z</time>
      </trkpt>
      <trkpt lat="46.03753" lon="6.77118">
        <ele>825</ele>
        <time>2000-01-02T06:08:03.000Z</time>
      </trkpt>
      <trkpt lat="46.03762" lon="6.77136">
        <ele>827.7</ele>
        <time>2000-01-02T06:08:13.000Z</time>
      </trkpt>
      <trkpt lat="46.03764" lon="6.7714">
        <ele>828.1</ele>
        <time>2000-01-02T06:08:23.000Z</time>
      </trkpt>
      <trkpt lat="46.03771" lon="6.77158">
        <ele>829</ele>
        <time>2000-01-02T06:08:33.000Z</time>
      </trkpt>
      <trkpt lat="46.03783" lon="6.77182">
        <ele>831</ele>
        <time>2000-01-02T06:08:43.000Z</time>
      </trkpt>
      <trkpt lat="46.03797" lon="6.77208">
        <ele>833</ele>
        <time>2000-01-02T06:08:53.000Z</time>
      </trkpt>
      <trkpt lat="46.03811" lon="6.7723">
        <ele>837</ele>
        <time>2000-01-02T06:09:03.000Z</time>
      </trkpt>
      <trkpt lat="46.0382" lon="6.77241">
        <ele>838.9</ele>
        <time>2000-01-02T06:09:13.000Z</time>
      </trkpt>
      <trkpt lat="46.03828" lon="6.77244">
        <ele>838</ele>
        <time>2000-01-02T06:09:23.000Z</time>
      </trkpt>
      <trkpt lat="46.03834" lon="6.77244">
        <ele>841.1</ele>
        <time>2000-01-02T06:09:33.000Z</time>
      </trkpt>
      <trkpt lat="46.03847" lon="6.77242">
        <ele>840</ele>
        <time>2000-01-02T06:09:43.000Z</time>
      </trkpt>
      <trkpt lat="46.03859" lon="6.77237">
        <ele>843.3</ele>
        <time>2000-01-02T06:09:53.000Z</time>
      </trkpt>
      <trkpt lat="46.03866" lon="6.77236">
        <ele>843</ele>
        <time>2000-01-02T06:10:03.000Z</time>
      </trkpt>
      <trkpt lat="46.03873" lon="6.77238">
        <ele>844.5</ele>
        <time>2000-01-02T06:10:13.000Z</time>
      </trkpt>
      <trkpt lat="46.03878" lon="6.77242">
        <ele>845.4</ele>
        <time>2000-01-02T06:10:23.000Z</time>
      </trkpt>
      <trkpt lat="46.03881" lon="6.77249">
        <ele>846.7</ele>
        <time>2000-01-02T06:10:33.000Z</time>
      </trkpt>
      <trkpt lat="46.03882" lon="6.77257">
        <ele>845</ele>
        <time>2000-01-02T06:10:43.000Z</time>
      </trkpt>
      <trkpt lat="46.03882" lon="6.77266">
        <ele>848.9</ele>
        <time>2000-01-02T06:10:53.000Z</time>
      </trkpt>
      <trkpt lat="46.03881" lon="6.77289">
        <ele>847</ele>
        <time>2000-01-02T06:11:03.000Z</time>
      </trkpt>
      <trkpt lat="46.03883" lon="6.77303">
        <ele>850.4</ele>
        <time>2000-01-02T06:11:13.000Z</time>
      </trkpt>
      <trkpt lat="46.03885" lon="6.77312">
        <ele>851.5</ele>
        <time>2000-01-02T06:11:23.000Z</time>
      </trkpt>
      <trkpt lat="46.03903" lon="6.77305">
        <ele>853</ele>
        <time>2000-01-02T06:11:33.000Z</time>
      </trkpt>
      <trkpt lat="46.03928" lon="6.77291">
        <ele>855</ele>
        <time>2000-01-02T06:11:43.000Z</time>
      </trkpt>
      <trkpt lat="46.03946" lon="6.7728">
        <ele>856</ele>
        <time>2000-01-02T06:11:53.000Z</time>
      </trkpt>
      <trkpt lat="46.0395" lon="6.77277">
        <ele>856.3</ele>
        <time>2000-01-02T06:12:03.000Z</time>
      </trkpt>
      <trkpt lat="46.03952" lon="6.77276">
        <ele>856.3</ele>
        <time>2000-01-02T06:12:13.000Z</time>
      </trkpt>
      <trkpt lat="46.03956" lon="6.77273">
        <ele>856.4</ele>
        <time>2000-01-02T06:12:23.000Z</time>
      </trkpt>
      <trkpt lat="46.03964" lon="6.77268">
        <ele>857</ele>
        <time>2000-01-02T06:12:33.000Z</time>
      </trkpt>
      <trkpt lat="46.03972" lon="6.77263">
        <ele>857.4</ele>
        <time>2000-01-02T06:12:43.000Z</time>
      </trkpt>
      <trkpt lat="46.0398" lon="6.77281">
        <ele>858</ele>
        <time>2000-01-02T06:12:53.000Z</time>
      </trkpt>
      <trkpt lat="46.03987" lon="6.7729">
        <ele>859.8</ele>
        <time>2000-01-02T06:13:03.000Z</time>
      </trkpt>
      <trkpt lat="46.03994" lon="6.77296">
        <ele>861.1</ele>
        <time>2000-01-02T06:13:13.000Z</time>
      </trkpt>
      <trkpt lat="46.04002" lon="6.77301">
        <ele>862</ele>
        <time>2000-01-02T06:13:23.000Z</time>
      </trkpt>
      <trkpt lat="46.04015" lon="6.77309">
        <ele>864.8</ele>
        <time>2000-01-02T06:13:33.000Z</time>
      </trkpt>
      <trkpt lat="46.04025" lon="6.77314">
        <ele>865</ele>
        <time>2000-01-02T06:13:43.000Z</time>
      </trkpt>
      <trkpt lat="46.04036" lon="6.7732">
        <ele>868.7</ele>
        <time>2000-01-02T06:13:53.000Z</time>
      </trkpt>
      <trkpt lat="46.0404" lon="6.77323">
        <ele>869.6</ele>
        <time>2000-01-02T06:14:03.000Z</time>
      </trkpt>
      <trkpt lat="46.04045" lon="6.77328">
        <ele>869</ele>
        <time>2000-01-02T06:14:13.000Z</time>
      </trkpt>
      <trkpt lat="46.04051" lon="6.77332">
        <ele>872.2</ele>
        <time>2000-01-02T06:14:23.000Z</time>
      </trkpt>
      <trkpt lat="46.04055" lon="6.77337">
        <ele>873.2</ele>
        <time>2000-01-02T06:14:33.000Z</time>
      </trkpt>
      <trkpt lat="46.04059" lon="6.77344">
        <ele>874.3</ele>
        <time>2000-01-02T06:14:43.000Z</time>
      </trkpt>
      <trkpt lat="46.04064" lon="6.7735">
        <ele>875</ele>
        <time>2000-01-02T06:14:53.000Z</time>
      </trkpt>
      <trkpt lat="46.0407" lon="6.77354">
        <ele>876.7</ele>
        <time>2000-01-02T06:15:03.000Z</time>
      </trkpt>
      <trkpt lat="46.04076" lon="6.77356">
        <ele>877.7</ele>
        <time>2000-01-02T06:15:13.000Z</time>
      </trkpt>
      <trkpt lat="46.04082" lon="6.77356">
        <ele>878.6</ele>
        <time>2000-01-02T06:15:23.000Z</time>
      </trkpt>
      <trkpt lat="46.0409" lon="6.77355">
        <ele>878</ele>
        <time>2000-01-02T06:15:33.000Z</time>
      </trkpt>
      <trkpt lat="46.04103" lon="6.77355">
        <ele>882.3</ele>
        <time>2000-01-02T06:15:43.000Z</time>
      </trkpt>
      <trkpt lat="46.04114" lon="6.77355">
        <ele>883</ele>
        <time>2000-01-02T06:15:53.000Z</time>
      </trkpt>
      <trkpt lat="46.0412" lon="6.77354">
        <ele>884.9</ele>
        <time>2000-01-02T06:16:03.000Z</time>
      </trkpt>
      <trkpt lat="46.04124" lon="6.7735">
        <ele>885.3</ele>
        <time>2000-01-02T06:16:13.000Z</time>
      </trkpt>
      <trkpt lat="46.04132" lon="6.77347">
        <ele>886</ele>
        <time>2000-01-02T06:16:23.000Z</time>
      </trkpt>
      <trkpt lat="46.04138" lon="6.77346">
        <ele>886.8</ele>
        <time>2000-01-02T06:16:33.000Z</time>
      </trkpt>
      <trkpt lat="46.04133" lon="6.77368">
        <ele>887</ele>
        <time>2000-01-02T06:16:43.000Z</time>
      </trkpt>
      <trkpt lat="46.04124" lon="6.77409">
        <ele>889</ele>
        <time>2000-01-02T06:16:53.000Z</time>
      </trkpt>
      <trkpt lat="46.0412" lon="6.77425">
        <ele>891.2</ele>
        <time>2000-01-02T06:17:03.000Z</time>
      </trkpt>
      <trkpt lat="46.04119" lon="6.77427">
        <ele>891.3</ele>
        <time>2000-01-02T06:17:13.000Z</time>
      </trkpt>
      <trkpt lat="46.0413" lon="6.77433">
        <ele>892</ele>
        <time>2000-01-02T06:17:23.000Z</time>
      </trkpt>
      <trkpt lat="46.04135" lon="6.77433">
        <ele>892.9</ele>
        <time>2000-01-02T06:17:33.000Z</time>
      </trkpt>
      <trkpt lat="46.0414" lon="6.7743">
        <ele>893.1</ele>
        <time>2000-01-02T06:17:43.000Z</time>
      </trkpt>
      <trkpt lat="46.04145" lon="6.77426">
        <ele>893.6</ele>
        <time>2000-01-02T06:17:53.000Z</time>
      </trkpt>
      <trkpt lat="46.04152" lon="6.77422">
        <ele>894</ele>
        <time>2000-01-02T06:18:03.000Z</time>
      </trkpt>
      <trkpt lat="46.04167" lon="6.7742">
        <ele>896.4</ele>
        <time>2000-01-02T06:18:13.000Z</time>
      </trkpt>
      <trkpt lat="46.04174" lon="6.77417">
        <ele>895</ele>
        <time>2000-01-02T06:18:23.000Z</time>
      </trkpt>
      <trkpt lat="46.04182" lon="6.77414">
        <ele>898.5</ele>
        <time>2000-01-02T06:18:33.000Z</time>
      </trkpt>
      <trkpt lat="46.04182" lon="6.77414">
        <ele>898.5</ele>
        <time>2000-01-02T06:18:43.000Z</time>
      </trkpt>
      <trkpt lat="46.04182" lon="6.77414">
        <ele>898.5</ele>
        <time>2000-01-02T06:18:53.000Z</time>
      </trkpt>
      <trkpt lat="46.04187" lon="6.77415">
        <ele>899.5</ele>
        <time>2000-01-02T06:19:03.000Z</time>
      </trkpt>
      <trkpt lat="46.04191" lon="6.77416">
        <ele>900.3</ele>
        <time>2000-01-02T06:19:13.000Z</time>
      </trkpt>
      <trkpt lat="46.04194" lon="6.77422">
        <ele>900</ele>
        <time>2000-01-02T06:19:23.000Z</time>
      </trkpt>
      <trkpt lat="46.04199" lon="6.77437">
        <ele>903.6</ele>
        <time>2000-01-02T06:19:33.000Z</time>
      </trkpt>
      <trkpt lat="46.04208" lon="6.77464">
        <ele>906</ele>
        <time>2000-01-02T06:19:43.000Z</time>
      </trkpt>
      <trkpt lat="46.04221" lon="6.77502">
        <ele>913</ele>
        <time>2000-01-02T06:19:53.000Z</time>
      </trkpt>
      <trkpt lat="46.04234" lon="6.77535">
        <ele>917</ele>
        <time>2000-01-02T06:20:03.000Z</time>
      </trkpt>
      <trkpt lat="46.04244" lon="6.77561">
        <ele>922</ele>
        <time>2000-01-02T06:20:13.000Z</time>
      </trkpt>
      <trkpt lat="46.04253" lon="6.77595">
        <ele>927</ele>
        <time>2000-01-02T06:20:23.000Z</time>
      </trkpt>
      <trkpt lat="46.04258" lon="6.77615">
        <ele>932.5</ele>
        <time>2000-01-02T06:20:33.000Z</time>
      </trkpt>
      <trkpt lat="46.04266" lon="6.77637">
        <ele>935</ele>
        <time>2000-01-02T06:20:43.000Z</time>
      </trkpt>
      <trkpt lat="46.04271" lon="6.77646">
        <ele>938.9</ele>
        <time>2000-01-02T06:20:53.000Z</time>
      </trkpt>
      <trkpt lat="46.04274" lon="6.77652">
        <ele>940.2</ele>
        <time>2000-01-02T06:21:03.000Z</time>
      </trkpt>
      <trkpt lat="46.04282" lon="6.77671">
        <ele>943</ele>
        <time>2000-01-02T06:21:13.000Z</time>
      </trkpt>
      <trkpt lat="46.0429" lon="6.77684">
        <ele>946.8</ele>
        <time>2000-01-02T06:21:23.000Z</time>
      </trkpt>
      <trkpt lat="46.04297" lon="6.77695">
        <ele>948</ele>
        <time>2000-01-02T06:21:33.000Z</time>
      </trkpt>
      <trkpt lat="46.04306" lon="6.77714">
        <ele>952.8</ele>
        <time>2000-01-02T06:21:43.000Z</time>
      </trkpt>
      <trkpt lat="46.04317" lon="6.77737">
        <ele>954</ele>
        <time>2000-01-02T06:21:53.000Z</time>
      </trkpt>
      <trkpt lat="46.04321" lon="6.77753">
        <ele>957.5</ele>
        <time>2000-01-02T06:22:03.000Z</time>
      </trkpt>
      <trkpt lat="46.04325" lon="6.77771">
        <ele>961</ele>
        <time>2000-01-02T06:22:13.000Z</time>
      </trkpt>
      <trkpt lat="46.04324" lon="6.77791">
        <ele>964.4</ele>
        <time>2000-01-02T06:22:23.000Z</time>
      </trkpt>
      <trkpt lat="46.04322" lon="6.77813">
        <ele>967</ele>
        <time>2000-01-02T06:22:33.000Z</time>
      </trkpt>
      <trkpt lat="46.04321" lon="6.77824">
        <ele>970.1</ele>
        <time>2000-01-02T06:22:43.000Z</time>
      </trkpt>
      <trkpt lat="46.04318" lon="6.77836">
        <ele>971.7</ele>
        <time>2000-01-02T06:22:53.000Z</time>
      </trkpt>
      <trkpt lat="46.04317" lon="6.77845">
        <ele>971</ele>
        <time>2000-01-02T06:23:03.000Z</time>
      </trkpt>
      <trkpt lat="46.04319" lon="6.77853">
        <ele>973.9</ele>
        <time>2000-01-02T06:23:13.000Z</time>
      </trkpt>
      <trkpt lat="46.04322" lon="6.77866">
        <ele>976</ele>
        <time>2000-01-02T06:23:23.000Z</time>
      </trkpt>
      <trkpt lat="46.04324" lon="6.7788">
        <ele>977</ele>
        <time>2000-01-02T06:23:33.000Z</time>
      </trkpt>
      <trkpt lat="46.04324" lon="6.77887">
        <ele>978.5</ele>
        <time>2000-01-02T06:23:43.000Z</time>
      </trkpt>
      <trkpt lat="46.04323" lon="6.77894">
        <ele>979</ele>
        <time>2000-01-02T06:23:53.000Z</time>
      </trkpt>
      <trkpt lat="46.04317" lon="6.77901">
        <ele>979</ele>
        <time>2000-01-02T06:24:03.000Z</time>
      </trkpt>
      <trkpt lat="46.04315" lon="6.7791">
        <ele>978</ele>
        <time>2000-01-02T06:24:13.000Z</time>
      </trkpt>
      <trkpt lat="46.04316" lon="6.77919">
        <ele>981.1</ele>
        <time>2000-01-02T06:24:23.000Z</time>
      </trkpt>
      <trkpt lat="46.04322" lon="6.77954">
        <ele>984</ele>
        <time>2000-01-02T06:24:33.000Z</time>
      </trkpt>
      <trkpt lat="46.04327" lon="6.77981">
        <ele>988</ele>
        <time>2000-01-02T06:24:43.000Z</time>
      </trkpt>
      <trkpt lat="46.04331" lon="6.78014">
        <ele>994</ele>
        <time>2000-01-02T06:24:53.000Z</time>
      </trkpt>
      <trkpt lat="46.04333" lon="6.78031">
        <ele>999.8</ele>
        <time>2000-01-02T06:25:03.000Z</time>
      </trkpt>
      <trkpt lat="46.04333" lon="6.78037">
        <ele>1001.3</ele>
        <time>2000-01-02T06:25:13.000Z</time>
      </trkpt>
      <trkpt lat="46.04332" lon="6.78042">
        <ele>1001</ele>
        <time>2000-01-02T06:25:23.000Z</time>
      </trkpt>
      <trkpt lat="46.04329" lon="6.78054">
        <ele>1005.5</ele>
        <time>2000-01-02T06:25:33.000Z</time>
      </trkpt>
      <trkpt lat="46.04324" lon="6.78069">
        <ele>1006</ele>
        <time>2000-01-02T06:25:43.000Z</time>
      </trkpt>
      <trkpt lat="46.04323" lon="6.78081">
        <ele>1011.7</ele>
        <time>2000-01-02T06:25:53.000Z</time>
      </trkpt>
      <trkpt lat="46.04322" lon="6.78096">
        <ele>1012</ele>
        <time>2000-01-02T06:26:03.000Z</time>
      </trkpt>
      <trkpt lat="46.04324" lon="6.78126">
        <ele>1019</ele>
        <time>2000-01-02T06:26:13.000Z</time>
      </trkpt>
      <trkpt lat="46.04322" lon="6.78151">
        <ele>1025.8</ele>
        <time>2000-01-02T06:26:23.000Z</time>
      </trkpt>
      <trkpt lat="46.04319" lon="6.78182">
        <ele>1030</ele>
        <time>2000-01-02T06:26:33.000Z</time>
      </trkpt>
      <trkpt lat="46.04316" lon="6.78203">
        <ele>1036.5</ele>
        <time>2000-01-02T06:26:43.000Z</time>
      </trkpt>
      <trkpt lat="46.04316" lon="6.78206">
        <ele>1037.2</ele>
        <time>2000-01-02T06:26:53.000Z</time>
      </trkpt>
      <trkpt lat="46.04315" lon="6.78218">
        <ele>1036</ele>
        <time>2000-01-02T06:27:03.000Z</time>
      </trkpt>
      <trkpt lat="46.04313" lon="6.78239">
        <ele>1044.7</ele>
        <time>2000-01-02T06:27:13.000Z</time>
      </trkpt>
      <trkpt lat="46.0431" lon="6.7826">
        <ele>1050</ele>
        <time>2000-01-02T06:27:23.000Z</time>
      </trkpt>
      <trkpt lat="46.0431" lon="6.78263">
        <ele>1051.2</ele>
        <time>2000-01-02T06:27:33.000Z</time>
      </trkpt>
      <trkpt lat="46.04308" lon="6.78268">
        <ele>1052.4</ele>
        <time>2000-01-02T06:27:43.000Z</time>
      </trkpt>
      <trkpt lat="46.04306" lon="6.7828">
        <ele>1055.9</ele>
        <time>2000-01-02T06:27:53.000Z</time>
      </trkpt>
      <trkpt lat="46.04301" lon="6.78294">
        <ele>1058</ele>
        <time>2000-01-02T06:28:03.000Z</time>
      </trkpt>
      <trkpt lat="46.04297" lon="6.78304">
        <ele>1062.6</ele>
        <time>2000-01-02T06:28:13.000Z</time>
      </trkpt>
      <trkpt lat="46.04295" lon="6.78309">
        <ele>1063.9</ele>
        <time>2000-01-02T06:28:23.000Z</time>
      </trkpt>
      <trkpt lat="46.04294" lon="6.78314">
        <ele>1065.5</ele>
        <time>2000-01-02T06:28:33.000Z</time>
      </trkpt>
      <trkpt lat="46.04293" lon="6.78319">
        <ele>1061</ele>
        <time>2000-01-02T06:28:43.000Z</time>
      </trkpt>
      <trkpt lat="46.04291" lon="6.78325">
        <ele>1068.5</ele>
        <time>2000-01-02T06:28:53.000Z</time>
      </trkpt>
      <trkpt lat="46.0429" lon="6.78328">
        <ele>1069.2</ele>
        <time>2000-01-02T06:29:03.000Z</time>
      </trkpt>
      <trkpt lat="46.04291" lon="6.78332">
        <ele>1070.8</ele>
        <time>2000-01-02T06:29:13.000Z</time>
      </trkpt>
      <trkpt lat="46.04294" lon="6.78335">
        <ele>1072.9</ele>
        <time>2000-01-02T06:29:23.000Z</time>
      </trkpt>
      <trkpt lat="46.04299" lon="6.78338">
        <ele>1075.9</ele>
        <time>2000-01-02T06:29:33.000Z</time>
      </trkpt>
      <trkpt lat="46.04302" lon="6.78339">
        <ele>1072</ele>
        <time>2000-01-02T06:29:43.000Z</time>
      </trkpt>
      <trkpt lat="46.04302" lon="6.78342">
        <ele>1078.7</ele>
        <time>2000-01-02T06:29:53.000Z</time>
      </trkpt>
      <trkpt lat="46.04299" lon="6.78346">
        <ele>1079.4</ele>
        <time>2000-01-02T06:30:03.000Z</time>
      </trkpt>
      <trkpt lat="46.04293" lon="6.78358">
        <ele>1081.9</ele>
        <time>2000-01-02T06:30:13.000Z</time>
      </trkpt>
      <trkpt lat="46.04287" lon="6.78368">
        <ele>1076</ele>
        <time>2000-01-02T06:30:23.000Z</time>
      </trkpt>
      <trkpt lat="46.04284" lon="6.78372">
        <ele>1083.8</ele>
        <time>2000-01-02T06:30:33.000Z</time>
      </trkpt>
      <trkpt lat="46.04285" lon="6.78375">
        <ele>1085.6</ele>
        <time>2000-01-02T06:30:43.000Z</time>
      </trkpt>
      <trkpt lat="46.04286" lon="6.78374">
        <ele>1085.7</ele>
        <time>2000-01-02T06:30:53.000Z</time>
      </trkpt>
      <trkpt lat="46.04288" lon="6.78374">
        <ele>1086.7</ele>
        <time>2000-01-02T06:31:03.000Z</time>
      </trkpt>
      <trkpt lat="46.04289" lon="6.78376">
        <ele>1088.1</ele>
        <time>2000-01-02T06:31:13.000Z</time>
      </trkpt>
      <trkpt lat="46.04288" lon="6.78378">
        <ele>1088.5</ele>
        <time>2000-01-02T06:31:23.000Z</time>
      </trkpt>
      <trkpt lat="46.04288" lon="6.78381">
        <ele>1089.9</ele>
        <time>2000-01-02T06:31:33.000Z</time>
      </trkpt>
      <trkpt lat="46.0429" lon="6.78381">
        <ele>1090.9</ele>
        <time>2000-01-02T06:31:43.000Z</time>
      </trkpt>
      <trkpt lat="46.04295" lon="6.78378">
        <ele>1086</ele>
        <time>2000-01-02T06:31:53.000Z</time>
      </trkpt>
      <trkpt lat="46.043" lon="6.78375">
        <ele>1093.2</ele>
        <time>2000-01-02T06:32:03.000Z</time>
      </trkpt>
      <trkpt lat="46.04305" lon="6.78371">
        <ele>1093.7</ele>
        <time>2000-01-02T06:32:13.000Z</time>
      </trkpt>
      <trkpt lat="46.04308" lon="6.78369">
        <ele>1093.9</ele>
        <time>2000-01-02T06:32:23.000Z</time>
      </trkpt>
      <trkpt lat="46.04311" lon="6.7837">
        <ele>1095.5</ele>
        <time>2000-01-02T06:32:33.000Z</time>
      </trkpt>
      <trkpt lat="46.0431" lon="6.78375">
        <ele>1089</ele>
        <time>2000-01-02T06:32:43.000Z</time>
      </trkpt>
      <trkpt lat="46.04307" lon="6.78381">
        <ele>1099.6</ele>
        <time>2000-01-02T06:32:53.000Z</time>
      </trkpt>
      <trkpt lat="46.04306" lon="6.78384">
        <ele>1100.7</ele>
        <time>2000-01-02T06:33:03.000Z</time>
      </trkpt>
      <trkpt lat="46.04303" lon="6.78389">
        <ele>1101.7</ele>
        <time>2000-01-02T06:33:13.000Z</time>
      </trkpt>
      <trkpt lat="46.04299" lon="6.78394">
        <ele>1102.4</ele>
        <time>2000-01-02T06:33:23.000Z</time>
      </trkpt>
      <trkpt lat="46.04297" lon="6.784">
        <ele>1100</ele>
        <time>2000-01-02T06:33:33.000Z</time>
      </trkpt>
      <trkpt lat="46.04295" lon="6.78409">
        <ele>1108.5</ele>
        <time>2000-01-02T06:33:43.000Z</time>
      </trkpt>
      <trkpt lat="46.04294" lon="6.78415">
        <ele>1111.2</ele>
        <time>2000-01-02T06:33:53.000Z</time>
      </trkpt>
      <trkpt lat="46.04291" lon="6.78426">
        <ele>1113.5</ele>
        <time>2000-01-02T06:34:03.000Z</time>
      </trkpt>
      <trkpt lat="46.04291" lon="6.78432">
        <ele>1103</ele>
        <time>2000-01-02T06:34:13.000Z</time>
      </trkpt>
      <trkpt lat="46.04289" lon="6.78438">
        <ele>1116.4</ele>
        <time>2000-01-02T06:34:23.000Z</time>
      </trkpt>
      <trkpt lat="46.04287" lon="6.78449">
        <ele>1118.6</ele>
        <time>2000-01-02T06:34:33.000Z</time>
      </trkpt>
      <trkpt lat="46.04284" lon="6.78456">
        <ele>1118.4</ele>
        <time>2000-01-02T06:34:43.000Z</time>
      </trkpt>
      <trkpt lat="46.04277" lon="6.78468">
        <ele>1107</ele>
        <time>2000-01-02T06:34:53.000Z</time>
      </trkpt>
      <trkpt lat="46.04271" lon="6.78477">
        <ele>1117.5</ele>
        <time>2000-01-02T06:35:03.000Z</time>
      </trkpt>
      <trkpt lat="46.04266" lon="6.78487">
        <ele>1120</ele>
        <time>2000-01-02T06:35:13.000Z</time>
      </trkpt>
      <trkpt lat="46.04261" lon="6.78494">
        <ele>1115</ele>
        <time>2000-01-02T06:35:23.000Z</time>
      </trkpt>
      <trkpt lat="46.04259" lon="6.78498">
        <ele>1120.3</ele>
        <time>2000-01-02T06:35:33.000Z</time>
      </trkpt>
      <trkpt lat="46.04258" lon="6.78501">
        <ele>1120.8</ele>
        <time>2000-01-02T06:35:43.000Z</time>
      </trkpt>
      <trkpt lat="46.0426" lon="6.78502">
        <ele>1122.9</ele>
        <time>2000-01-02T06:35:53.000Z</time>
      </trkpt>
      <trkpt lat="46.04262" lon="6.78501">
        <ele>1124</ele>
        <time>2000-01-02T06:36:03.000Z</time>
      </trkpt>
      <trkpt lat="46.04266" lon="6.78497">
        <ele>1125.1</ele>
        <time>2000-01-02T06:36:13.000Z</time>
      </trkpt>
      <trkpt lat="46.04272" lon="6.78491">
        <ele>1120</ele>
        <time>2000-01-02T06:36:23.000Z</time>
      </trkpt>
      <trkpt lat="46.04283" lon="6.78482">
        <ele>1129.4</ele>
        <time>2000-01-02T06:36:33.000Z</time>
      </trkpt>
      <trkpt lat="46.0429" lon="6.78475">
        <ele>1123</ele>
        <time>2000-01-02T06:36:43.000Z</time>
      </trkpt>
      <trkpt lat="46.04296" lon="6.78466">
        <ele>1133.3</ele>
        <time>2000-01-02T06:36:53.000Z</time>
      </trkpt>
      <trkpt lat="46.04298" lon="6.7846">
        <ele>1132.7</ele>
        <time>2000-01-02T06:37:03.000Z</time>
      </trkpt>
      <trkpt lat="46.043" lon="6.78454">
        <ele>1132.1</ele>
        <time>2000-01-02T06:37:13.000Z</time>
      </trkpt>
      <trkpt lat="46.04301" lon="6.78448">
        <ele>1126</ele>
        <time>2000-01-02T06:37:23.000Z</time>
      </trkpt>
      <trkpt lat="46.04302" lon="6.78442">
        <ele>1128.8</ele>
        <time>2000-01-02T06:37:33.000Z</time>
      </trkpt>
      <trkpt lat="46.04304" lon="6.78438">
        <ele>1128.7</ele>
        <time>2000-01-02T06:37:43.000Z</time>
      </trkpt>
      <trkpt lat="46.04309" lon="6.78434">
        <ele>1129.7</ele>
        <time>2000-01-02T06:37:53.000Z</time>
      </trkpt>
      <trkpt lat="46.04313" lon="6.78431">
        <ele>1130.1</ele>
        <time>2000-01-02T06:38:03.000Z</time>
      </trkpt>
      <trkpt lat="46.04317" lon="6.7843">
        <ele>1129</ele>
        <time>2000-01-02T06:38:13.000Z</time>
      </trkpt>
      <trkpt lat="46.04318" lon="6.78431">
        <ele>1132.3</ele>
        <time>2000-01-02T06:38:23.000Z</time>
      </trkpt>
      <trkpt lat="46.04317" lon="6.78436">
        <ele>1134.4</ele>
        <time>2000-01-02T06:38:33.000Z</time>
      </trkpt>
      <trkpt lat="46.04316" lon="6.7844">
        <ele>1136</ele>
        <time>2000-01-02T06:38:43.000Z</time>
      </trkpt>
      <trkpt lat="46.04315" lon="6.78444">
        <ele>1137.5</ele>
        <time>2000-01-02T06:38:53.000Z</time>
      </trkpt>
      <trkpt lat="46.04313" lon="6.78447">
        <ele>1137.9</ele>
        <time>2000-01-02T06:39:03.000Z</time>
      </trkpt>
      <trkpt lat="46.04311" lon="6.78455">
        <ele>1137</ele>
        <time>2000-01-02T06:39:13.000Z</time>
      </trkpt>
      <trkpt lat="46.04306" lon="6.78472">
        <ele>1145.1</ele>
        <time>2000-01-02T06:39:23.000Z</time>
      </trkpt>
      <trkpt lat="46.04301" lon="6.78487">
        <ele>1139</ele>
        <time>2000-01-02T06:39:33.000Z</time>
      </trkpt>
      <trkpt lat="46.04294" lon="6.78502">
        <ele>1152.8</ele>
        <time>2000-01-02T06:39:43.000Z</time>
      </trkpt>
      <trkpt lat="46.0429" lon="6.7851">
        <ele>1140</ele>
        <time>2000-01-02T06:39:53.000Z</time>
      </trkpt>
      <trkpt lat="46.04284" lon="6.78519">
        <ele>1152.2</ele>
        <time>2000-01-02T06:40:03.000Z</time>
      </trkpt>
      <trkpt lat="46.0428" lon="6.78524">
        <ele>1151.1</ele>
        <time>2000-01-02T06:40:13.000Z</time>
      </trkpt>
      <trkpt lat="46.04278" lon="6.78533">
        <ele>1141</ele>
        <time>2000-01-02T06:40:23.000Z</time>
      </trkpt>
      <trkpt lat="46.04273" lon="6.78544">
        <ele>1154.7</ele>
        <time>2000-01-02T06:40:33.000Z</time>
      </trkpt>
      <trkpt lat="46.04269" lon="6.78554">
        <ele>1155.7</ele>
        <time>2000-01-02T06:40:43.000Z</time>
      </trkpt>
      <trkpt lat="46.04266" lon="6.78561">
        <ele>1145</ele>
        <time>2000-01-02T06:40:53.000Z</time>
      </trkpt>
      <trkpt lat="46.04265" lon="6.78565">
        <ele>1157.1</ele>
        <time>2000-01-02T06:41:03.000Z</time>
      </trkpt>
      <trkpt lat="46.04265" lon="6.78568">
        <ele>1158.6</ele>
        <time>2000-01-02T06:41:13.000Z</time>
      </trkpt>
      <trkpt lat="46.04267" lon="6.78567">
        <ele>1159.9</ele>
        <time>2000-01-02T06:41:23.000Z</time>
      </trkpt>
      <trkpt lat="46.0427" lon="6.78564">
        <ele>1161.3</ele>
        <time>2000-01-02T06:41:33.000Z</time>
      </trkpt>
      <trkpt lat="46.04277" lon="6.78558">
        <ele>1152</ele>
        <time>2000-01-02T06:41:43.000Z</time>
      </trkpt>
      <trkpt lat="46.04284" lon="6.78552">
        <ele>1168.3</ele>
        <time>2000-01-02T06:41:53.000Z</time>
      </trkpt>
      <trkpt lat="46.04286" lon="6.7855">
        <ele>1168.9</ele>
        <time>2000-01-02T06:42:03.000Z</time>
      </trkpt>
      <trkpt lat="46.04288" lon="6.78551">
        <ele>1171</ele>
        <time>2000-01-02T06:42:13.000Z</time>
      </trkpt>
      <trkpt lat="46.04287" lon="6.78555">
        <ele>1172.1</ele>
        <time>2000-01-02T06:42:23.000Z</time>
      </trkpt>
      <trkpt lat="46.04286" lon="6.78559">
        <ele>1173</ele>
        <time>2000-01-02T06:42:33.000Z</time>
      </trkpt>
      <trkpt lat="46.04281" lon="6.78574">
        <ele>1173</ele>
        <time>2000-01-02T06:42:43.000Z</time>
      </trkpt>
      <trkpt lat="46.04277" lon="6.78584">
        <ele>1176.5</ele>
        <time>2000-01-02T06:42:53.000Z</time>
      </trkpt>
      <trkpt lat="46.04274" lon="6.78591">
        <ele>1176.2</ele>
        <time>2000-01-02T06:43:03.000Z</time>
      </trkpt>
      <trkpt lat="46.04273" lon="6.78596">
        <ele>1177.1</ele>
        <time>2000-01-02T06:43:13.000Z</time>
      </trkpt>
      <trkpt lat="46.04272" lon="6.78603">
        <ele>1175</ele>
        <time>2000-01-02T06:43:23.000Z</time>
      </trkpt>
      <trkpt lat="46.04269" lon="6.78613">
        <ele>1180.6</ele>
        <time>2000-01-02T06:43:33.000Z</time>
      </trkpt>
      <trkpt lat="46.04265" lon="6.78622">
        <ele>1181.5</ele>
        <time>2000-01-02T06:43:43.000Z</time>
      </trkpt>
      <trkpt lat="46.04263" lon="6.78628">
        <ele>1175</ele>
        <time>2000-01-02T06:43:53.000Z</time>
      </trkpt>
      <trkpt lat="46.04264" lon="6.78631">
        <ele>1184.2</ele>
        <time>2000-01-02T06:44:03.000Z</time>
      </trkpt>
      <trkpt lat="46.04266" lon="6.78629">
        <ele>1184.6</ele>
        <time>2000-01-02T06:44:13.000Z</time>
      </trkpt>
      <trkpt lat="46.04268" lon="6.78624">
        <ele>1183.9</ele>
        <time>2000-01-02T06:44:23.000Z</time>
      </trkpt>
      <trkpt lat="46.04275" lon="6.78614">
        <ele>1184.4</ele>
        <time>2000-01-02T06:44:33.000Z</time>
      </trkpt>
      <trkpt lat="46.0428" lon="6.78605">
        <ele>1175</ele>
        <time>2000-01-02T06:44:43.000Z</time>
      </trkpt>
      <trkpt lat="46.04282" lon="6.78603">
        <ele>1185.5</ele>
        <time>2000-01-02T06:44:53.000Z</time>
      </trkpt>
      <trkpt lat="46.04284" lon="6.78605">
        <ele>1187.4</ele>
        <time>2000-01-02T06:45:03.000Z</time>
      </trkpt>
      <trkpt lat="46.04283" lon="6.78608">
        <ele>1187.6</ele>
        <time>2000-01-02T06:45:13.000Z</time>
      </trkpt>
      <trkpt lat="46.04282" lon="6.78613">
        <ele>1188.3</ele>
        <time>2000-01-02T06:45:23.000Z</time>
      </trkpt>
      <trkpt lat="46.04279" lon="6.7862">
        <ele>1188.7</ele>
        <time>2000-01-02T06:45:33.000Z</time>
      </trkpt>
      <trkpt lat="46.04276" lon="6.78627">
        <ele>1181</ele>
        <time>2000-01-02T06:45:43.000Z</time>
      </trkpt>
      <trkpt lat="46.04272" lon="6.78633">
        <ele>1189.1</ele>
        <time>2000-01-02T06:45:53.000Z</time>
      </trkpt>
      <trkpt lat="46.04271" lon="6.78639">
        <ele>1190.6</ele>
        <time>2000-01-02T06:46:03.000Z</time>
      </trkpt>
      <trkpt lat="46.04271" lon="6.78643">
        <ele>1192.1</ele>
        <time>2000-01-02T06:46:13.000Z</time>
      </trkpt>
      <trkpt lat="46.04273" lon="6.78642">
        <ele>1192.7</ele>
        <time>2000-01-02T06:46:23.000Z</time>
      </trkpt>
      <trkpt lat="46.04274" lon="6.78638">
        <ele>1191.8</ele>
        <time>2000-01-02T06:46:33.000Z</time>
      </trkpt>
      <trkpt lat="46.04277" lon="6.78634">
        <ele>1185</ele>
        <time>2000-01-02T06:46:43.000Z</time>
      </trkpt>
      <trkpt lat="46.0428" lon="6.78631">
        <ele>1192.8</ele>
        <time>2000-01-02T06:46:53.000Z</time>
      </trkpt>
      <trkpt lat="46.04283" lon="6.78627">
        <ele>1193.4</ele>
        <time>2000-01-02T06:47:03.000Z</time>
      </trkpt>
      <trkpt lat="46.04288" lon="6.78623">
        <ele>1195.3</ele>
        <time>2000-01-02T06:47:13.000Z</time>
      </trkpt>
      <trkpt lat="46.04291" lon="6.78619">
        <ele>1196</ele>
        <time>2000-01-02T06:47:23.000Z</time>
      </trkpt>
      <trkpt lat="46.04294" lon="6.78614">
        <ele>1193</ele>
        <time>2000-01-02T06:47:33.000Z</time>
      </trkpt>
      <trkpt lat="46.04296" lon="6.78613">
        <ele>1197.4</ele>
        <time>2000-01-02T06:47:43.000Z</time>
      </trkpt>
      <trkpt lat="46.04296" lon="6.78616">
        <ele>1198.3</ele>
        <time>2000-01-02T06:47:53.000Z</time>
      </trkpt>
      <trkpt lat="46.04294" lon="6.78623">
        <ele>1199.1</ele>
        <time>2000-01-02T06:48:03.000Z</time>
      </trkpt>
      <trkpt lat="46.04291" lon="6.7863">
        <ele>1199.4</ele>
        <time>2000-01-02T06:48:13.000Z</time>
      </trkpt>
      <trkpt lat="46.04284" lon="6.7864">
        <ele>1194</ele>
        <time>2000-01-02T06:48:23.000Z</time>
      </trkpt>
      <trkpt lat="46.0428" lon="6.78646">
        <ele>1197.9</ele>
        <time>2000-01-02T06:48:33.000Z</time>
      </trkpt>
      <trkpt lat="46.04278" lon="6.78652">
        <ele>1198.9</ele>
        <time>2000-01-02T06:48:43.000Z</time>
      </trkpt>
      <trkpt lat="46.04279" lon="6.78654">
        <ele>1200.2</ele>
        <time>2000-01-02T06:48:53.000Z</time>
      </trkpt>
      <trkpt lat="46.04282" lon="6.78652">
        <ele>1201.3</ele>
        <time>2000-01-02T06:49:03.000Z</time>
      </trkpt>
      <trkpt lat="46.04285" lon="6.78649">
        <ele>1202.1</ele>
        <time>2000-01-02T06:49:13.000Z</time>
      </trkpt>
      <trkpt lat="46.04291" lon="6.78643">
        <ele>1197</ele>
        <time>2000-01-02T06:49:23.000Z</time>
      </trkpt>
      <trkpt lat="46.04296" lon="6.78638">
        <ele>1204.9</ele>
        <time>2000-01-02T06:49:33.000Z</time>
      </trkpt>
      <trkpt lat="46.04301" lon="6.78629">
        <ele>1205.3</ele>
        <time>2000-01-02T06:49:43.000Z</time>
      </trkpt>
      <trkpt lat="46.04305" lon="6.78625">
        <ele>1200</ele>
        <time>2000-01-02T06:49:53.000Z</time>
      </trkpt>
      <trkpt lat="46.04306" lon="6.78625">
        <ele>1207.2</ele>
        <time>2000-01-02T06:50:03.000Z</time>
      </trkpt>
      <trkpt lat="46.04306" lon="6.78627">
        <ele>1207.7</ele>
        <time>2000-01-02T06:50:13.000Z</time>
      </trkpt>
      <trkpt lat="46.04306" lon="6.78634">
        <ele>1209.8</ele>
        <time>2000-01-02T06:50:23.000Z</time>
      </trkpt>
      <trkpt lat="46.04305" lon="6.78642">
        <ele>1211.8</ele>
        <time>2000-01-02T06:50:33.000Z</time>
      </trkpt>
      <trkpt lat="46.04302" lon="6.78653">
        <ele>1210</ele>
        <time>2000-01-02T06:50:43.000Z</time>
      </trkpt>
      <trkpt lat="46.04299" lon="6.78664">
        <ele>1216</ele>
        <time>2000-01-02T06:50:53.000Z</time>
      </trkpt>
      <trkpt lat="46.04298" lon="6.78669">
        <ele>1217.3</ele>
        <time>2000-01-02T06:51:03.000Z</time>
      </trkpt>
      <trkpt lat="46.04297" lon="6.78673">
        <ele>1218.2</ele>
        <time>2000-01-02T06:51:13.000Z</time>
      </trkpt>
      <trkpt lat="46.04297" lon="6.78677">
        <ele>1219.7</ele>
        <time>2000-01-02T06:51:23.000Z</time>
      </trkpt>
      <trkpt lat="46.04299" lon="6.78677">
        <ele>1213</ele>
        <time>2000-01-02T06:51:33.000Z</time>
      </trkpt>
      <trkpt lat="46.04303" lon="6.78674">
        <ele>1222.1</ele>
        <time>2000-01-02T06:51:43.000Z</time>
      </trkpt>
      <trkpt lat="46.04308" lon="6.7867">
        <ele>1223.3</ele>
        <time>2000-01-02T06:51:53.000Z</time>
      </trkpt>
      <trkpt lat="46.04312" lon="6.78665">
        <ele>1223.2</ele>
        <time>2000-01-02T06:52:03.000Z</time>
      </trkpt>
      <trkpt lat="46.04314" lon="6.78659">
        <ele>1215</ele>
        <time>2000-01-02T06:52:13.000Z</time>
      </trkpt>
      <trkpt lat="46.04316" lon="6.78658">
        <ele>1222.2</ele>
        <time>2000-01-02T06:52:23.000Z</time>
      </trkpt>
      <trkpt lat="46.04316" lon="6.7866">
        <ele>1222.9</ele>
        <time>2000-01-02T06:52:33.000Z</time>
      </trkpt>
      <trkpt lat="46.04316" lon="6.78665">
        <ele>1224.9</ele>
        <time>2000-01-02T06:52:43.000Z</time>
      </trkpt>
      <trkpt lat="46.04315" lon="6.7867">
        <ele>1226.4</ele>
        <time>2000-01-02T06:52:53.000Z</time>
      </trkpt>
      <trkpt lat="46.04312" lon="6.78684">
        <ele>1226</ele>
        <time>2000-01-02T06:53:03.000Z</time>
      </trkpt>
      <trkpt lat="46.04308" lon="6.78698">
        <ele>1233.8</ele>
        <time>2000-01-02T06:53:13.000Z</time>
      </trkpt>
      <trkpt lat="46.04304" lon="6.78707">
        <ele>1235.6</ele>
        <time>2000-01-02T06:53:23.000Z</time>
      </trkpt>
      <trkpt lat="46.04302" lon="6.78713">
        <ele>1233</ele>
        <time>2000-01-02T06:53:33.000Z</time>
      </trkpt>
      <trkpt lat="46.043" lon="6.78717">
        <ele>1238.1</ele>
        <time>2000-01-02T06:53:43.000Z</time>
      </trkpt>
      <trkpt lat="46.04302" lon="6.78718">
        <ele>1239.5</ele>
        <time>2000-01-02T06:53:53.000Z</time>
      </trkpt>
      <trkpt lat="46.04305" lon="6.78715">
        <ele>1239.6</ele>
        <time>2000-01-02T06:54:03.000Z</time>
      </trkpt>
      <trkpt lat="46.0431" lon="6.78709">
        <ele>1239.5</ele>
        <time>2000-01-02T06:54:13.000Z</time>
      </trkpt>
      <trkpt lat="46.04315" lon="6.78704">
        <ele>1234</ele>
        <time>2000-01-02T06:54:23.000Z</time>
      </trkpt>
      <trkpt lat="46.0432" lon="6.78697">
        <ele>1239.4</ele>
        <time>2000-01-02T06:54:33.000Z</time>
      </trkpt>
      <trkpt lat="46.04323" lon="6.7869">
        <ele>1238</ele>
        <time>2000-01-02T06:54:43.000Z</time>
      </trkpt>
      <trkpt lat="46.04326" lon="6.78687">
        <ele>1238.2</ele>
        <time>2000-01-02T06:54:53.000Z</time>
      </trkpt>
      <trkpt lat="46.04326" lon="6.78688">
        <ele>1238.6</ele>
        <time>2000-01-02T06:55:03.000Z</time>
      </trkpt>
      <trkpt lat="46.04327" lon="6.78694">
        <ele>1238</ele>
        <time>2000-01-02T06:55:13.000Z</time>
      </trkpt>
      <trkpt lat="46.04326" lon="6.787">
        <ele>1243.7</ele>
        <time>2000-01-02T06:55:23.000Z</time>
      </trkpt>
      <trkpt lat="46.04322" lon="6.7871">
        <ele>1246</ele>
        <time>2000-01-02T06:55:33.000Z</time>
      </trkpt>
      <trkpt lat="46.04318" lon="6.78721">
        <ele>1243</ele>
        <time>2000-01-02T06:55:43.000Z</time>
      </trkpt>
      <trkpt lat="46.04313" lon="6.78729">
        <ele>1249.5</ele>
        <time>2000-01-02T06:55:53.000Z</time>
      </trkpt>
      <trkpt lat="46.0431" lon="6.78733">
        <ele>1249.7</ele>
        <time>2000-01-02T06:56:03.000Z</time>
      </trkpt>
      <trkpt lat="46.04308" lon="6.78736">
        <ele>1250.1</ele>
        <time>2000-01-02T06:56:13.000Z</time>
      </trkpt>
      <trkpt lat="46.04307" lon="6.78741">
        <ele>1251.7</ele>
        <time>2000-01-02T06:56:23.000Z</time>
      </trkpt>
      <trkpt lat="46.04306" lon="6.78751">
        <ele>1252</ele>
        <time>2000-01-02T06:56:33.000Z</time>
      </trkpt>
      <trkpt lat="46.04304" lon="6.78758">
        <ele>1257.9</ele>
        <time>2000-01-02T06:56:43.000Z</time>
      </trkpt>
      <trkpt lat="46.04302" lon="6.78761">
        <ele>1258.5</ele>
        <time>2000-01-02T06:56:53.000Z</time>
      </trkpt>
      <trkpt lat="46.04298" lon="6.78763">
        <ele>1258.1</ele>
        <time>2000-01-02T06:57:03.000Z</time>
      </trkpt>
      <trkpt lat="46.04296" lon="6.78765">
        <ele>1258.4</ele>
        <time>2000-01-02T06:57:13.000Z</time>
      </trkpt>
      <trkpt lat="46.04295" lon="6.78769">
        <ele>1260.1</ele>
        <time>2000-01-02T06:57:23.000Z</time>
      </trkpt>
      <trkpt lat="46.04292" lon="6.78771">
        <ele>1258</ele>
        <time>2000-01-02T06:57:33.000Z</time>
      </trkpt>
      <trkpt lat="46.04288" lon="6.78775">
        <ele>1261.1</ele>
        <time>2000-01-02T06:57:43.000Z</time>
      </trkpt>
      <trkpt lat="46.0428" lon="6.78782">
        <ele>1263</ele>
        <time>2000-01-02T06:57:53.000Z</time>
      </trkpt>
      <trkpt lat="46.04275" lon="6.78787">
        <ele>1260</ele>
        <time>2000-01-02T06:58:03.000Z</time>
      </trkpt>
      <trkpt lat="46.04271" lon="6.78789">
        <ele>1265</ele>
        <time>2000-01-02T06:58:13.000Z</time>
      </trkpt>
      <trkpt lat="46.04268" lon="6.7879">
        <ele>1264.9</ele>
        <time>2000-01-02T06:58:23.000Z</time>
      </trkpt>
      <trkpt lat="46.04263" lon="6.78791">
        <ele>1264.4</ele>
        <time>2000-01-02T06:58:33.000Z</time>
      </trkpt>
      <trkpt lat="46.04262" lon="6.78792">
        <ele>1264.8</ele>
        <time>2000-01-02T06:58:43.000Z</time>
      </trkpt>
      <trkpt lat="46.0426" lon="6.78797">
        <ele>1267.2</ele>
        <time>2000-01-02T06:58:53.000Z</time>
      </trkpt>
      <trkpt lat="46.04259" lon="6.78802">
        <ele>1266</ele>
        <time>2000-01-02T06:59:03.000Z</time>
      </trkpt>
      <trkpt lat="46.04257" lon="6.78806">
        <ele>1271.7</ele>
        <time>2000-01-02T06:59:13.000Z</time>
      </trkpt>
      <trkpt lat="46.04254" lon="6.78813">
        <ele>1274.7</ele>
        <time>2000-01-02T06:59:23.000Z</time>
      </trkpt>
      <trkpt lat="46.04253" lon="6.78818">
        <ele>1277</ele>
        <time>2000-01-02T06:59:33.000Z</time>
      </trkpt>
      <trkpt lat="46.04253" lon="6.78825">
        <ele>1280.5</ele>
        <time>2000-01-02T06:59:43.000Z</time>
      </trkpt>
      <trkpt lat="46.04255" lon="6.78829">
        <ele>1278</ele>
        <time>2000-01-02T06:59:53.000Z</time>
      </trkpt>
      <trkpt lat="46.0426" lon="6.7883">
        <ele>1284.8</ele>
        <time>2000-01-02T07:00:03.000Z</time>
      </trkpt>
      <trkpt lat="46.04266" lon="6.7883">
        <ele>1286.3</ele>
        <time>2000-01-02T07:00:13.000Z</time>
      </trkpt>
      <trkpt lat="46.04273" lon="6.78832">
        <ele>1289.1</ele>
        <time>2000-01-02T07:00:23.000Z</time>
      </trkpt>
      <trkpt lat="46.04277" lon="6.78835">
        <ele>1286</ele>
        <time>2000-01-02T07:00:33.000Z</time>
      </trkpt>
      <trkpt lat="46.04278" lon="6.78839">
        <ele>1293.3</ele>
        <time>2000-01-02T07:00:43.000Z</time>
      </trkpt>
      <trkpt lat="46.04276" lon="6.78842">
        <ele>1294</ele>
        <time>2000-01-02T07:00:53.000Z</time>
      </trkpt>
      <trkpt lat="46.04274" lon="6.78848">
        <ele>1295.8</ele>
        <time>2000-01-02T07:01:03.000Z</time>
      </trkpt>
      <trkpt lat="46.04274" lon="6.78856">
        <ele>1298.9</ele>
        <time>2000-01-02T07:01:13.000Z</time>
      </trkpt>
      <trkpt lat="46.04272" lon="6.78868">
        <ele>1299</ele>
        <time>2000-01-02T07:01:23.000Z</time>
      </trkpt>
      <trkpt lat="46.04266" lon="6.78884">
        <ele>1305.3</ele>
        <time>2000-01-02T07:01:33.000Z</time>
      </trkpt>
      <trkpt lat="46.04259" lon="6.789">
        <ele>1301</ele>
        <time>2000-01-02T07:01:43.000Z</time>
      </trkpt>
      <trkpt lat="46.04249" lon="6.78923">
        <ele>1305</ele>
        <time>2000-01-02T07:01:53.000Z</time>
      </trkpt>
      <trkpt lat="46.04232" lon="6.78954">
        <ele>1312</ele>
        <time>2000-01-02T07:02:03.000Z</time>
      </trkpt>
      <trkpt lat="46.04223" lon="6.78968">
        <ele>1317.5</ele>
        <time>2000-01-02T07:02:13.000Z</time>
      </trkpt>
      <trkpt lat="46.04214" lon="6.78977">
        <ele>1312</ele>
        <time>2000-01-02T07:02:23.000Z</time>
      </trkpt>
      <trkpt lat="46.04207" lon="6.78982">
        <ele>1318.5</ele>
        <time>2000-01-02T07:02:33.000Z</time>
      </trkpt>
      <trkpt lat="46.04197" lon="6.78986">
        <ele>1317.6</ele>
        <time>2000-01-02T07:02:43.000Z</time>
      </trkpt>
      <trkpt lat="46.04191" lon="6.7899">
        <ele>1311</ele>
        <time>2000-01-02T07:02:53.000Z</time>
      </trkpt>
      <trkpt lat="46.04181" lon="6.78992">
        <ele>1314.7</ele>
        <time>2000-01-02T07:03:03.000Z</time>
      </trkpt>
      <trkpt lat="46.04174" lon="6.78992">
        <ele>1312.2</ele>
        <time>2000-01-02T07:03:13.000Z</time>
      </trkpt>
      <trkpt lat="46.04171" lon="6.78992">
        <ele>1311</ele>
        <time>2000-01-02T07:03:23.000Z</time>
      </trkpt>
      <trkpt lat="46.04168" lon="6.78993">
        <ele>1310.5</ele>
        <time>2000-01-02T07:03:33.000Z</time>
      </trkpt>
      <trkpt lat="46.04165" lon="6.79">
        <ele>1311.8</ele>
        <time>2000-01-02T07:03:43.000Z</time>
      </trkpt>
      <trkpt lat="46.04162" lon="6.79008">
        <ele>1312</ele>
        <time>2000-01-02T07:03:53.000Z</time>
      </trkpt>
      <trkpt lat="46.0416" lon="6.79012">
        <ele>1311.9</ele>
        <time>2000-01-02T07:04:03.000Z</time>
      </trkpt>
      <trkpt lat="46.04161" lon="6.79015">
        <ele>1313</ele>
        <time>2000-01-02T07:04:13.000Z</time>
      </trkpt>
      <trkpt lat="46.04165" lon="6.79014">
        <ele>1315.9</ele>
        <time>2000-01-02T07:04:23.000Z</time>
      </trkpt>
      <trkpt lat="46.04169" lon="6.79012">
        <ele>1317.3</ele>
        <time>2000-01-02T07:04:33.000Z</time>
      </trkpt>
      <trkpt lat="46.04174" lon="6.7901">
        <ele>1318.6</ele>
        <time>2000-01-02T07:04:43.000Z</time>
      </trkpt>
      <trkpt lat="46.04179" lon="6.79009">
        <ele>1320.2</ele>
        <time>2000-01-02T07:04:53.000Z</time>
      </trkpt>
      <trkpt lat="46.04181" lon="6.79012">
        <ele>1315</ele>
        <time>2000-01-02T07:05:03.000Z</time>
      </trkpt>
      <trkpt lat="46.0418" lon="6.79014">
        <ele>1322.1</ele>
        <time>2000-01-02T07:05:13.000Z</time>
      </trkpt>
      <trkpt lat="46.04177" lon="6.79018">
        <ele>1322.1</ele>
        <time>2000-01-02T07:05:23.000Z</time>
      </trkpt>
      <trkpt lat="46.04176" lon="6.79021">
        <ele>1322.7</ele>
        <time>2000-01-02T07:05:33.000Z</time>
      </trkpt>
      <trkpt lat="46.04172" lon="6.79028">
        <ele>1323.2</ele>
        <time>2000-01-02T07:05:43.000Z</time>
      </trkpt>
      <trkpt lat="46.04169" lon="6.79032">
        <ele>1323</ele>
        <time>2000-01-02T07:05:53.000Z</time>
      </trkpt>
      <trkpt lat="46.04164" lon="6.79039">
        <ele>1315</ele>
        <time>2000-01-02T07:06:03.000Z</time>
      </trkpt>
      <trkpt lat="46.04162" lon="6.79042">
        <ele>1321.6</ele>
        <time>2000-01-02T07:06:13.000Z</time>
      </trkpt>
      <trkpt lat="46.0416" lon="6.79045">
        <ele>1321</ele>
        <time>2000-01-02T07:06:23.000Z</time>
      </trkpt>
      <trkpt lat="46.04156" lon="6.79049">
        <ele>1319.4</ele>
        <time>2000-01-02T07:06:33.000Z</time>
      </trkpt>
      <trkpt lat="46.04154" lon="6.79053">
        <ele>1319.1</ele>
        <time>2000-01-02T07:06:43.000Z</time>
      </trkpt>
      <trkpt lat="46.04152" lon="6.79059">
        <ele>1315</ele>
        <time>2000-01-02T07:06:53.000Z</time>
      </trkpt>
      <trkpt lat="46.0415" lon="6.79062">
        <ele>1318.6</ele>
        <time>2000-01-02T07:07:03.000Z</time>
      </trkpt>
      <trkpt lat="46.04147" lon="6.79064">
        <ele>1317.1</ele>
        <time>2000-01-02T07:07:13.000Z</time>
      </trkpt>
      <trkpt lat="46.04145" lon="6.79065">
        <ele>1316</ele>
        <time>2000-01-02T07:07:23.000Z</time>
      </trkpt>
      <trkpt lat="46.04143" lon="6.79068">
        <ele>1315.4</ele>
        <time>2000-01-02T07:07:33.000Z</time>
      </trkpt>
      <trkpt lat="46.04143" lon="6.79073">
        <ele>1316.4</ele>
        <time>2000-01-02T07:07:43.000Z</time>
      </trkpt>
      <trkpt lat="46.04142" lon="6.79081">
        <ele>1316</ele>
        <time>2000-01-02T07:07:53.000Z</time>
      </trkpt>
      <trkpt lat="46.04142" lon="6.79086">
        <ele>1318.8</ele>
        <time>2000-01-02T07:08:03.000Z</time>
      </trkpt>
      <trkpt lat="46.0414" lon="6.79091">
        <ele>1319.2</ele>
        <time>2000-01-02T07:08:13.000Z</time>
      </trkpt>
      <trkpt lat="46.0414" lon="6.79099">
        <ele>1321.7</ele>
        <time>2000-01-02T07:08:23.000Z</time>
      </trkpt>
      <trkpt lat="46.04139" lon="6.79104">
        <ele>1322.8</ele>
        <time>2000-01-02T07:08:33.000Z</time>
      </trkpt>
      <trkpt lat="46.04137" lon="6.79112">
        <ele>1323</ele>
        <time>2000-01-02T07:08:43.000Z</time>
      </trkpt>
      <trkpt lat="46.04135" lon="6.7912">
        <ele>1330</ele>
        <time>2000-01-02T07:08:53.000Z</time>
      </trkpt>
      <trkpt lat="46.04137" lon="6.79126">
        <ele>1331.3</ele>
        <time>2000-01-02T07:09:03.000Z</time>
      </trkpt>
      <trkpt lat="46.04138" lon="6.79132">
        <ele>1333</ele>
        <time>2000-01-02T07:09:13.000Z</time>
      </trkpt>
      <trkpt lat="46.04137" lon="6.79135">
        <ele>1334.6</ele>
        <time>2000-01-02T07:09:23.000Z</time>
      </trkpt>
      <trkpt lat="46.04134" lon="6.79139">
        <ele>1329</ele>
        <time>2000-01-02T07:09:33.000Z</time>
      </trkpt>
      <trkpt lat="46.04132" lon="6.79139">
        <ele>1338.8</ele>
        <time>2000-01-02T07:09:43.000Z</time>
      </trkpt>
      <trkpt lat="46.04129" lon="6.79138">
        <ele>1340</ele>
        <time>2000-01-02T07:09:53.000Z</time>
      </trkpt>
      <trkpt lat="46.04125" lon="6.79137">
        <ele>1341.7</ele>
        <time>2000-01-02T07:10:03.000Z</time>
      </trkpt>
      <trkpt lat="46.04121" lon="6.79131">
        <ele>1341.3</ele>
        <time>2000-01-02T07:10:13.000Z</time>
      </trkpt>
      <trkpt lat="46.04114" lon="6.79121">
        <ele>1342</ele>
        <time>2000-01-02T07:10:23.000Z</time>
      </trkpt>
      <trkpt lat="46.04112" lon="6.79119">
        <ele>1340.3</ele>
        <time>2000-01-02T07:10:33.000Z</time>
      </trkpt>
      <trkpt lat="46.04107" lon="6.79118">
        <ele>1341</ele>
        <time>2000-01-02T07:10:43.000Z</time>
      </trkpt>
      <trkpt lat="46.04099" lon="6.7912">
        <ele>1343.6</ele>
        <time>2000-01-02T07:10:53.000Z</time>
      </trkpt>
      <trkpt lat="46.04095" lon="6.79121">
        <ele>1346</ele>
        <time>2000-01-02T07:11:03.000Z</time>
      </trkpt>
      <trkpt lat="46.04088" lon="6.79125">
        <ele>1348.5</ele>
        <time>2000-01-02T07:11:13.000Z</time>
      </trkpt>
      <trkpt lat="46.04088" lon="6.79128">
        <ele>1350.1</ele>
        <time>2000-01-02T07:11:23.000Z</time>
      </trkpt>
      <trkpt lat="46.04095" lon="6.79131">
        <ele>1350</ele>
        <time>2000-01-02T07:11:33.000Z</time>
      </trkpt>
      <trkpt lat="46.04101" lon="6.79134">
        <ele>1349</ele>
        <time>2000-01-02T07:11:43.000Z</time>
      </trkpt>
      <trkpt lat="46.04107" lon="6.79139">
        <ele>1351.1</ele>
        <time>2000-01-02T07:11:53.000Z</time>
      </trkpt>
      <trkpt lat="46.04108" lon="6.79144">
        <ele>1353.1</ele>
        <time>2000-01-02T07:12:03.000Z</time>
      </trkpt>
      <trkpt lat="46.04105" lon="6.79145">
        <ele>1354.3</ele>
        <time>2000-01-02T07:12:13.000Z</time>
      </trkpt>
      <trkpt lat="46.04099" lon="6.79144">
        <ele>1358</ele>
        <time>2000-01-02T07:12:23.000Z</time>
      </trkpt>
      <trkpt lat="46.04091" lon="6.79146">
        <ele>1358.7</ele>
        <time>2000-01-02T07:12:33.000Z</time>
      </trkpt>
      <trkpt lat="46.04088" lon="6.7915">
        <ele>1361.6</ele>
        <time>2000-01-02T07:12:43.000Z</time>
      </trkpt>
      <trkpt lat="46.04092" lon="6.79154">
        <ele>1362.5</ele>
        <time>2000-01-02T07:12:53.000Z</time>
      </trkpt>
      <trkpt lat="46.04098" lon="6.79161">
        <ele>1367</ele>
        <time>2000-01-02T07:13:03.000Z</time>
      </trkpt>
      <trkpt lat="46.04101" lon="6.79166">
        <ele>1365.3</ele>
        <time>2000-01-02T07:13:13.000Z</time>
      </trkpt>
      <trkpt lat="46.04104" lon="6.7917">
        <ele>1366</ele>
        <time>2000-01-02T07:13:23.000Z</time>
      </trkpt>
      <trkpt lat="46.04101" lon="6.79172">
        <ele>1368</ele>
        <time>2000-01-02T07:13:33.000Z</time>
      </trkpt>
      <trkpt lat="46.04094" lon="6.79173">
        <ele>1371.2</ele>
        <time>2000-01-02T07:13:43.000Z</time>
      </trkpt>
      <trkpt lat="46.04084" lon="6.79174">
        <ele>1374</ele>
        <time>2000-01-02T07:13:53.000Z</time>
      </trkpt>
      <trkpt lat="46.04083" lon="6.79177">
        <ele>1377.6</ele>
        <time>2000-01-02T07:14:03.000Z</time>
      </trkpt>
      <trkpt lat="46.04088" lon="6.79182">
        <ele>1378.2</ele>
        <time>2000-01-02T07:14:13.000Z</time>
      </trkpt>
      <trkpt lat="46.04093" lon="6.79187">
        <ele>1378.5</ele>
        <time>2000-01-02T07:14:23.000Z</time>
      </trkpt>
      <trkpt lat="46.04098" lon="6.79193">
        <ele>1383</ele>
        <time>2000-01-02T07:14:33.000Z</time>
      </trkpt>
      <trkpt lat="46.04103" lon="6.79199">
        <ele>1379</ele>
        <time>2000-01-02T07:14:43.000Z</time>
      </trkpt>
      <trkpt lat="46.04108" lon="6.79204">
        <ele>1378.5</ele>
        <time>2000-01-02T07:14:53.000Z</time>
      </trkpt>
      <trkpt lat="46.0411" lon="6.79211">
        <ele>1380.2</ele>
        <time>2000-01-02T07:15:03.000Z</time>
      </trkpt>
      <trkpt lat="46.04105" lon="6.79206">
        <ele>1383</ele>
        <time>2000-01-02T07:15:13.000Z</time>
      </trkpt>
      <trkpt lat="46.04101" lon="6.79201">
        <ele>1380.9</ele>
        <time>2000-01-02T07:15:23.000Z</time>
      </trkpt>
      <trkpt lat="46.04094" lon="6.79199">
        <ele>1383.7</ele>
        <time>2000-01-02T07:15:33.000Z</time>
      </trkpt>
      <trkpt lat="46.04086" lon="6.79196">
        <ele>1382</ele>
        <time>2000-01-02T07:15:43.000Z</time>
      </trkpt>
      <trkpt lat="46.0407" lon="6.79196">
        <ele>1386.4</ele>
        <time>2000-01-02T07:15:53.000Z</time>
      </trkpt>
      <trkpt lat="46.04061" lon="6.79197">
        <ele>1388</ele>
        <time>2000-01-02T07:16:03.000Z</time>
      </trkpt>
      <trkpt lat="46.04056" lon="6.79199">
        <ele>1386.5</ele>
        <time>2000-01-02T07:16:13.000Z</time>
      </trkpt>
      <trkpt lat="46.04061" lon="6.79202">
        <ele>1388.6</ele>
        <time>2000-01-02T07:16:23.000Z</time>
      </trkpt>
      <trkpt lat="46.04066" lon="6.79206">
        <ele>1391.2</ele>
        <time>2000-01-02T07:16:33.000Z</time>
      </trkpt>
      <trkpt lat="46.0407" lon="6.7921">
        <ele>1395</ele>
        <time>2000-01-02T07:16:43.000Z</time>
      </trkpt>
      <trkpt lat="46.04076" lon="6.79216">
        <ele>1397.3</ele>
        <time>2000-01-02T07:16:53.000Z</time>
      </trkpt>
      <trkpt lat="46.04084" lon="6.7922">
        <ele>1399.5</ele>
        <time>2000-01-02T07:17:03.000Z</time>
      </trkpt>
      <trkpt lat="46.04093" lon="6.79226">
        <ele>1397</ele>
        <time>2000-01-02T07:17:13.000Z</time>
      </trkpt>
      <trkpt lat="46.04098" lon="6.79234">
        <ele>1397.1</ele>
        <time>2000-01-02T07:17:23.000Z</time>
      </trkpt>
      <trkpt lat="46.04096" lon="6.79237">
        <ele>1399.7</ele>
        <time>2000-01-02T07:17:33.000Z</time>
      </trkpt>
      <trkpt lat="46.0409" lon="6.79238">
        <ele>1404</ele>
        <time>2000-01-02T07:17:43.000Z</time>
      </trkpt>
      <trkpt lat="46.04085" lon="6.79238">
        <ele>1401</ele>
        <time>2000-01-02T07:17:53.000Z</time>
      </trkpt>
      <trkpt lat="46.04069" lon="6.79239">
        <ele>1408.8</ele>
        <time>2000-01-02T07:18:03.000Z</time>
      </trkpt>
      <trkpt lat="46.04063" lon="6.79239">
        <ele>1402</ele>
        <time>2000-01-02T07:18:13.000Z</time>
      </trkpt>
      <trkpt lat="46.04052" lon="6.79242">
        <ele>1409.1</ele>
        <time>2000-01-02T07:18:23.000Z</time>
      </trkpt>
      <trkpt lat="46.04044" lon="6.79244">
        <ele>1407.2</ele>
        <time>2000-01-02T07:18:33.000Z</time>
      </trkpt>
      <trkpt lat="46.04041" lon="6.79248">
        <ele>1404</ele>
        <time>2000-01-02T07:18:43.000Z</time>
      </trkpt>
      <trkpt lat="46.04041" lon="6.79254">
        <ele>1411.5</ele>
        <time>2000-01-02T07:18:53.000Z</time>
      </trkpt>
      <trkpt lat="46.04044" lon="6.79259">
        <ele>1415.6</ele>
        <time>2000-01-02T07:19:03.000Z</time>
      </trkpt>
      <trkpt lat="46.04046" lon="6.79261">
        <ele>1417.6</ele>
        <time>2000-01-02T07:19:13.000Z</time>
      </trkpt>
      <trkpt lat="46.04049" lon="6.79263">
        <ele>1419.9</ele>
        <time>2000-01-02T07:19:23.000Z</time>
      </trkpt>
      <trkpt lat="46.04055" lon="6.79267">
        <ele>1420</ele>
        <time>2000-01-02T07:19:33.000Z</time>
      </trkpt>
      <trkpt lat="46.04062" lon="6.79273">
        <ele>1427.1</ele>
        <time>2000-01-02T07:19:43.000Z</time>
      </trkpt>
      <trkpt lat="46.04069" lon="6.79279">
        <ele>1428.6</ele>
        <time>2000-01-02T07:19:53.000Z</time>
      </trkpt>
      <trkpt lat="46.04075" lon="6.79285">
        <ele>1431</ele>
        <time>2000-01-02T07:20:03.000Z</time>
      </trkpt>
      <trkpt lat="46.04082" lon="6.7929">
        <ele>1429.7</ele>
        <time>2000-01-02T07:20:13.000Z</time>
      </trkpt>
      <trkpt lat="46.04087" lon="6.79295">
        <ele>1428.7</ele>
        <time>2000-01-02T07:20:23.000Z</time>
      </trkpt>
      <trkpt lat="46.04086" lon="6.79296">
        <ele>1429.7</ele>
        <time>2000-01-02T07:20:33.000Z</time>
      </trkpt>
      <trkpt lat="46.0408" lon="6.79294">
        <ele>1430</ele>
        <time>2000-01-02T07:20:43.000Z</time>
      </trkpt>
      <trkpt lat="46.04073" lon="6.79291">
        <ele>1432.3</ele>
        <time>2000-01-02T07:20:53.000Z</time>
      </trkpt>
      <trkpt lat="46.04062" lon="6.7929">
        <ele>1434.7</ele>
        <time>2000-01-02T07:21:03.000Z</time>
      </trkpt>
      <trkpt lat="46.04053" lon="6.79289">
        <ele>1430</ele>
        <time>2000-01-02T07:21:13.000Z</time>
      </trkpt>
      <trkpt lat="46.04038" lon="6.79291">
        <ele>1430.4</ele>
        <time>2000-01-02T07:21:23.000Z</time>
      </trkpt>
      <trkpt lat="46.04029" lon="6.79294">
        <ele>1424</ele>
        <time>2000-01-02T07:21:33.000Z</time>
      </trkpt>
      <trkpt lat="46.04018" lon="6.79297">
        <ele>1427.2</ele>
        <time>2000-01-02T07:21:43.000Z</time>
      </trkpt>
      <trkpt lat="46.0401" lon="6.79299">
        <ele>1423</ele>
        <time>2000-01-02T07:21:53.000Z</time>
      </trkpt>
      <trkpt lat="46.04005" lon="6.79299">
        <ele>1424.7</ele>
        <time>2000-01-02T07:22:03.000Z</time>
      </trkpt>
      <trkpt lat="46.04" lon="6.79301">
        <ele>1424.2</ele>
        <time>2000-01-02T07:22:13.000Z</time>
      </trkpt>
      <trkpt lat="46.03993" lon="6.79304">
        <ele>1425.7</ele>
        <time>2000-01-02T07:22:23.000Z</time>
      </trkpt>
      <trkpt lat="46.03987" lon="6.7931">
        <ele>1423</ele>
        <time>2000-01-02T07:22:33.000Z</time>
      </trkpt>
      <trkpt lat="46.03983" lon="6.7931">
        <ele>1428.5</ele>
        <time>2000-01-02T07:22:43.000Z</time>
      </trkpt>
      <trkpt lat="46.0398" lon="6.7931">
        <ele>1428.5</ele>
        <time>2000-01-02T07:22:53.000Z</time>
      </trkpt>
      <trkpt lat="46.03978" lon="6.79307">
        <ele>1427.4</ele>
        <time>2000-01-02T07:23:03.000Z</time>
      </trkpt>
      <trkpt lat="46.03976" lon="6.793">
        <ele>1425.9</ele>
        <time>2000-01-02T07:23:13.000Z</time>
      </trkpt>
      <trkpt lat="46.03975" lon="6.79295">
        <ele>1425.1</ele>
        <time>2000-01-02T07:23:23.000Z</time>
      </trkpt>
      <trkpt lat="46.03974" lon="6.79288">
        <ele>1424</ele>
        <time>2000-01-02T07:23:33.000Z</time>
      </trkpt>
      <trkpt lat="46.03973" lon="6.79278">
        <ele>1422.8</ele>
        <time>2000-01-02T07:23:43.000Z</time>
      </trkpt>
      <trkpt lat="46.03969" lon="6.79266">
        <ele>1423.5</ele>
        <time>2000-01-02T07:23:53.000Z</time>
      </trkpt>
      <trkpt lat="46.03966" lon="6.79254">
        <ele>1427</ele>
        <time>2000-01-02T07:24:03.000Z</time>
      </trkpt>
      <trkpt lat="46.03962" lon="6.79246">
        <ele>1425.1</ele>
        <time>2000-01-02T07:24:13.000Z</time>
      </trkpt>
      <trkpt lat="46.03959" lon="6.79243">
        <ele>1426.7</ele>
        <time>2000-01-02T07:24:23.000Z</time>
      </trkpt>
      <trkpt lat="46.03958" lon="6.79245">
        <ele>1428</ele>
        <time>2000-01-02T07:24:33.000Z</time>
      </trkpt>
      <trkpt lat="46.0396" lon="6.7925">
        <ele>1427.7</ele>
        <time>2000-01-02T07:24:43.000Z</time>
      </trkpt>
      <trkpt lat="46.0396" lon="6.79256">
        <ele>1427</ele>
        <time>2000-01-02T07:24:53.000Z</time>
      </trkpt>
      <trkpt lat="46.03961" lon="6.79266">
        <ele>1430</ele>
        <time>2000-01-02T07:25:03.000Z</time>
      </trkpt>
      <trkpt lat="46.03961" lon="6.79276">
        <ele>1431.9</ele>
        <time>2000-01-02T07:25:13.000Z</time>
      </trkpt>
      <trkpt lat="46.03961" lon="6.79281">
        <ele>1432.6</ele>
        <time>2000-01-02T07:25:23.000Z</time>
      </trkpt>
      <trkpt lat="46.03958" lon="6.79284">
        <ele>1439</ele>
        <time>2000-01-02T07:25:33.000Z</time>
      </trkpt>
      <trkpt lat="46.03956" lon="6.79283">
        <ele>1436.9</ele>
        <time>2000-01-02T07:25:43.000Z</time>
      </trkpt>
      <trkpt lat="46.03955" lon="6.7928">
        <ele>1437.4</ele>
        <time>2000-01-02T07:25:53.000Z</time>
      </trkpt>
      <trkpt lat="46.03954" lon="6.79272">
        <ele>1436.9</ele>
        <time>2000-01-02T07:26:03.000Z</time>
      </trkpt>
      <trkpt lat="46.03952" lon="6.79267">
        <ele>1437.5</ele>
        <time>2000-01-02T07:26:13.000Z</time>
      </trkpt>
      <trkpt lat="46.0395" lon="6.79262">
        <ele>1438.1</ele>
        <time>2000-01-02T07:26:23.000Z</time>
      </trkpt>
      <trkpt lat="46.03948" lon="6.79262">
        <ele>1448</ele>
        <time>2000-01-02T07:26:33.000Z</time>
      </trkpt>
      <trkpt lat="46.03946" lon="6.79265">
        <ele>1442</ele>
        <time>2000-01-02T07:26:43.000Z</time>
      </trkpt>
      <trkpt lat="46.03947" lon="6.79273">
        <ele>1442.9</ele>
        <time>2000-01-02T07:26:53.000Z</time>
      </trkpt>
      <trkpt lat="46.03947" lon="6.79279">
        <ele>1443.9</ele>
        <time>2000-01-02T07:27:03.000Z</time>
      </trkpt>
      <trkpt lat="46.03946" lon="6.79285">
        <ele>1445</ele>
        <time>2000-01-02T07:27:13.000Z</time>
      </trkpt>
      <trkpt lat="46.03946" lon="6.79285">
        <ele>1445</ele>
        <time>2000-01-02T07:27:23.000Z</time>
      </trkpt>
      <trkpt lat="46.03943" lon="6.79281">
        <ele>1451</ele>
        <time>2000-01-02T07:27:33.000Z</time>
      </trkpt>
      <trkpt lat="46.03942" lon="6.7928">
        <ele>1448.1</ele>
        <time>2000-01-02T07:27:43.000Z</time>
      </trkpt>
      <trkpt lat="46.0394" lon="6.79276">
        <ele>1449.3</ele>
        <time>2000-01-02T07:27:53.000Z</time>
      </trkpt>
      <trkpt lat="46.03937" lon="6.79269">
        <ele>1450.3</ele>
        <time>2000-01-02T07:28:03.000Z</time>
      </trkpt>
      <trkpt lat="46.03935" lon="6.79266">
        <ele>1451.3</ele>
        <time>2000-01-02T07:28:13.000Z</time>
      </trkpt>
      <trkpt lat="46.0393" lon="6.79263">
        <ele>1462</ele>
        <time>2000-01-02T07:28:23.000Z</time>
      </trkpt>
      <trkpt lat="46.03927" lon="6.79262">
        <ele>1457</ele>
        <time>2000-01-02T07:28:33.000Z</time>
      </trkpt>
      <trkpt lat="46.03921" lon="6.79264">
        <ele>1462.4</ele>
        <time>2000-01-02T07:28:43.000Z</time>
      </trkpt>
      <trkpt lat="46.03919" lon="6.79266">
        <ele>1464.5</ele>
        <time>2000-01-02T07:28:53.000Z</time>
      </trkpt>
      <trkpt lat="46.03915" lon="6.79267">
        <ele>1467.9</ele>
        <time>2000-01-02T07:29:03.000Z</time>
      </trkpt>
      <trkpt lat="46.03912" lon="6.79266">
        <ele>1469.9</ele>
        <time>2000-01-02T07:29:13.000Z</time>
      </trkpt>
      <trkpt lat="46.03908" lon="6.79262">
        <ele>1469</ele>
        <time>2000-01-02T07:29:23.000Z</time>
      </trkpt>
      <trkpt lat="46.03905" lon="6.79258">
        <ele>1473.2</ele>
        <time>2000-01-02T07:29:33.000Z</time>
      </trkpt>
      <trkpt lat="46.03902" lon="6.79255">
        <ele>1474.7</ele>
        <time>2000-01-02T07:29:43.000Z</time>
      </trkpt>
      <trkpt lat="46.03899" lon="6.79251">
        <ele>1476</ele>
        <time>2000-01-02T07:29:53.000Z</time>
      </trkpt>
      <trkpt lat="46.03898" lon="6.79246">
        <ele>1475.5</ele>
        <time>2000-01-02T07:30:03.000Z</time>
      </trkpt>
      <trkpt lat="46.03898" lon="6.7924">
        <ele>1477</ele>
        <time>2000-01-02T07:30:13.000Z</time>
      </trkpt>
      <trkpt lat="46.03897" lon="6.79238">
        <ele>1474.3</ele>
        <time>2000-01-02T07:30:23.000Z</time>
      </trkpt>
      <trkpt lat="46.03894" lon="6.79239">
        <ele>1476.8</ele>
        <time>2000-01-02T07:30:33.000Z</time>
      </trkpt>
      <trkpt lat="46.03892" lon="6.79243">
        <ele>1479.2</ele>
        <time>2000-01-02T07:30:43.000Z</time>
      </trkpt>
      <trkpt lat="46.03891" lon="6.79247">
        <ele>1480.8</ele>
        <time>2000-01-02T07:30:53.000Z</time>
      </trkpt>
      <trkpt lat="46.03889" lon="6.79254">
        <ele>1483.9</ele>
        <time>2000-01-02T07:31:03.000Z</time>
      </trkpt>
      <trkpt lat="46.03887" lon="6.79258">
        <ele>1482</ele>
        <time>2000-01-02T07:31:13.000Z</time>
      </trkpt>
      <trkpt lat="46.03887" lon="6.79265">
        <ele>1488</ele>
        <time>2000-01-02T07:31:23.000Z</time>
      </trkpt>
      <trkpt lat="46.03887" lon="6.79268">
        <ele>1488.8</ele>
        <time>2000-01-02T07:31:33.000Z</time>
      </trkpt>
      <trkpt lat="46.03889" lon="6.79276">
        <ele>1489.5</ele>
        <time>2000-01-02T07:31:43.000Z</time>
      </trkpt>
      <trkpt lat="46.03891" lon="6.79285">
        <ele>1488</ele>
        <time>2000-01-02T07:31:53.000Z</time>
      </trkpt>
      <trkpt lat="46.03892" lon="6.79291">
        <ele>1489.9</ele>
        <time>2000-01-02T07:32:03.000Z</time>
      </trkpt>
      <trkpt lat="46.03892" lon="6.793">
        <ele>1491.5</ele>
        <time>2000-01-02T07:32:13.000Z</time>
      </trkpt>
      <trkpt lat="46.03892" lon="6.7931">
        <ele>1492.6</ele>
        <time>2000-01-02T07:32:23.000Z</time>
      </trkpt>
      <trkpt lat="46.03891" lon="6.79319">
        <ele>1493</ele>
        <time>2000-01-02T07:32:33.000Z</time>
      </trkpt>
      <trkpt lat="46.0389" lon="6.79325">
        <ele>1494.8</ele>
        <time>2000-01-02T07:32:43.000Z</time>
      </trkpt>
      <trkpt lat="46.03888" lon="6.79331">
        <ele>1496.6</ele>
        <time>2000-01-02T07:32:53.000Z</time>
      </trkpt>
      <trkpt lat="46.03888" lon="6.79334">
        <ele>1496.7</ele>
        <time>2000-01-02T07:33:03.000Z</time>
      </trkpt>
      <trkpt lat="46.03887" lon="6.79343">
        <ele>1497.9</ele>
        <time>2000-01-02T07:33:13.000Z</time>
      </trkpt>
      <trkpt lat="46.03885" lon="6.79352">
        <ele>1505</ele>
        <time>2000-01-02T07:33:23.000Z</time>
      </trkpt>
      <trkpt lat="46.03885" lon="6.7936">
        <ele>1500.3</ele>
        <time>2000-01-02T07:33:33.000Z</time>
      </trkpt>
      <trkpt lat="46.03884" lon="6.79371">
        <ele>1502.2</ele>
        <time>2000-01-02T07:33:43.000Z</time>
      </trkpt>
      <trkpt lat="46.03883" lon="6.79381">
        <ele>1507</ele>
        <time>2000-01-02T07:33:53.000Z</time>
      </trkpt>
      <trkpt lat="46.0388" lon="6.79394">
        <ele>1508.2</ele>
        <time>2000-01-02T07:34:03.000Z</time>
      </trkpt>
      <trkpt lat="46.03879" lon="6.79401">
        <ele>1510.2</ele>
        <time>2000-01-02T07:34:13.000Z</time>
      </trkpt>
      <trkpt lat="46.03878" lon="6.79406">
        <ele>1511.7</ele>
        <time>2000-01-02T07:34:23.000Z</time>
      </trkpt>
      <trkpt lat="46.03875" lon="6.79408">
        <ele>1510</ele>
        <time>2000-01-02T07:34:33.000Z</time>
      </trkpt>
      <trkpt lat="46.03873" lon="6.79406">
        <ele>1515.4</ele>
        <time>2000-01-02T07:34:43.000Z</time>
      </trkpt>
      <trkpt lat="46.0387" lon="6.794">
        <ele>1517</ele>
        <time>2000-01-02T07:34:53.000Z</time>
      </trkpt>
      <trkpt lat="46.0387" lon="6.79393">
        <ele>1516.1</ele>
        <time>2000-01-02T07:35:03.000Z</time>
      </trkpt>
      <trkpt lat="46.03871" lon="6.79388">
        <ele>1514.7</ele>
        <time>2000-01-02T07:35:13.000Z</time>
      </trkpt>
      <trkpt lat="46.03871" lon="6.79383">
        <ele>1514</ele>
        <time>2000-01-02T07:35:23.000Z</time>
      </trkpt>
      <trkpt lat="46.0387" lon="6.79376">
        <ele>1514.6</ele>
        <time>2000-01-02T07:35:33.000Z</time>
      </trkpt>
      <trkpt lat="46.03869" lon="6.79366">
        <ele>1514.6</ele>
        <time>2000-01-02T07:35:43.000Z</time>
      </trkpt>
      <trkpt lat="46.0387" lon="6.79356">
        <ele>1515</ele>
        <time>2000-01-02T07:35:53.000Z</time>
      </trkpt>
      <trkpt lat="46.0387" lon="6.79345">
        <ele>1512</ele>
        <time>2000-01-02T07:36:03.000Z</time>
      </trkpt>
      <trkpt lat="46.0387" lon="6.79338">
        <ele>1511.4</ele>
        <time>2000-01-02T07:36:13.000Z</time>
      </trkpt>
      <trkpt lat="46.03869" lon="6.79331">
        <ele>1511.5</ele>
        <time>2000-01-02T07:36:23.000Z</time>
      </trkpt>
      <trkpt lat="46.03867" lon="6.79325">
        <ele>1516</ele>
        <time>2000-01-02T07:36:33.000Z</time>
      </trkpt>
      <trkpt lat="46.03862" lon="6.79319">
        <ele>1515.3</ele>
        <time>2000-01-02T07:36:43.000Z</time>
      </trkpt>
      <trkpt lat="46.03857" lon="6.79312">
        <ele>1517.7</ele>
        <time>2000-01-02T07:36:53.000Z</time>
      </trkpt>
      <trkpt lat="46.03852" lon="6.79308">
        <ele>1520</ele>
        <time>2000-01-02T07:37:03.000Z</time>
      </trkpt>
      <trkpt lat="46.03849" lon="6.79303">
        <ele>1521.3</ele>
        <time>2000-01-02T07:37:13.000Z</time>
      </trkpt>
      <trkpt lat="46.03843" lon="6.79294">
        <ele>1523</ele>
        <time>2000-01-02T07:37:23.000Z</time>
      </trkpt>
      <trkpt lat="46.03839" lon="6.79288">
        <ele>1526</ele>
        <time>2000-01-02T07:37:33.000Z</time>
      </trkpt>
      <trkpt lat="46.03836" lon="6.79283">
        <ele>1524.7</ele>
        <time>2000-01-02T07:37:43.000Z</time>
      </trkpt>
      <trkpt lat="46.03833" lon="6.79276">
        <ele>1524.8</ele>
        <time>2000-01-02T07:37:53.000Z</time>
      </trkpt>
      <trkpt lat="46.03828" lon="6.79269">
        <ele>1526.2</ele>
        <time>2000-01-02T07:38:03.000Z</time>
      </trkpt>
      <trkpt lat="46.03824" lon="6.79265">
        <ele>1529</ele>
        <time>2000-01-02T07:38:13.000Z</time>
      </trkpt>
      <trkpt lat="46.0382" lon="6.79258">
        <ele>1528.3</ele>
        <time>2000-01-02T07:38:23.000Z</time>
      </trkpt>
      <trkpt lat="46.03818" lon="6.79254">
        <ele>1528.5</ele>
        <time>2000-01-02T07:38:33.000Z</time>
      </trkpt>
      <trkpt lat="46.03817" lon="6.79251">
        <ele>1528.3</ele>
        <time>2000-01-02T07:38:43.000Z</time>
      </trkpt>
      <trkpt lat="46.03815" lon="6.79252">
        <ele>1529.8</ele>
        <time>2000-01-02T07:38:53.000Z</time>
      </trkpt>
      <trkpt lat="46.03815" lon="6.79255">
        <ele>1530.6</ele>
        <time>2000-01-02T07:39:03.000Z</time>
      </trkpt>
      <trkpt lat="46.03815" lon="6.79263">
        <ele>1535</ele>
        <time>2000-01-02T07:39:13.000Z</time>
      </trkpt>
      <trkpt lat="46.03816" lon="6.79268">
        <ele>1533.5</ele>
        <time>2000-01-02T07:39:23.000Z</time>
      </trkpt>
      <trkpt lat="46.03818" lon="6.79276">
        <ele>1534.5</ele>
        <time>2000-01-02T07:39:33.000Z</time>
      </trkpt>
      <trkpt lat="46.03821" lon="6.79287">
        <ele>1535.3</ele>
        <time>2000-01-02T07:39:43.000Z</time>
      </trkpt>
      <trkpt lat="46.03823" lon="6.79297">
        <ele>1537</ele>
        <time>2000-01-02T07:39:53.000Z</time>
      </trkpt>
      <trkpt lat="46.03826" lon="6.79308">
        <ele>1537.3</ele>
        <time>2000-01-02T07:40:03.000Z</time>
      </trkpt>
      <trkpt lat="46.03828" lon="6.79316">
        <ele>1537.8</ele>
        <time>2000-01-02T07:40:13.000Z</time>
      </trkpt>
      <trkpt lat="46.03827" lon="6.79323">
        <ele>1540</ele>
        <time>2000-01-02T07:40:23.000Z</time>
      </trkpt>
      <trkpt lat="46.03827" lon="6.79329">
        <ele>1539</ele>
        <time>2000-01-02T07:40:33.000Z</time>
      </trkpt>
      <trkpt lat="46.03828" lon="6.79336">
        <ele>1542.2</ele>
        <time>2000-01-02T07:40:43.000Z</time>
      </trkpt>
      <trkpt lat="46.03829" lon="6.79345">
        <ele>1543.2</ele>
        <time>2000-01-02T07:40:53.000Z</time>
      </trkpt>
      <trkpt lat="46.03831" lon="6.79351">
        <ele>1542.9</ele>
        <time>2000-01-02T07:41:03.000Z</time>
      </trkpt>
      <trkpt lat="46.03832" lon="6.7936">
        <ele>1542</ele>
        <time>2000-01-02T07:41:13.000Z</time>
      </trkpt>
      <trkpt lat="46.03833" lon="6.7937">
        <ele>1544.2</ele>
        <time>2000-01-02T07:41:23.000Z</time>
      </trkpt>
      <trkpt lat="46.03832" lon="6.79379">
        <ele>1546</ele>
        <time>2000-01-02T07:41:33.000Z</time>
      </trkpt>
      <trkpt lat="46.03831" lon="6.79389">
        <ele>1547</ele>
        <time>2000-01-02T07:41:43.000Z</time>
      </trkpt>
      <trkpt lat="46.03829" lon="6.79395">
        <ele>1550.3</ele>
        <time>2000-01-02T07:41:53.000Z</time>
      </trkpt>
      <trkpt lat="46.03824" lon="6.794">
        <ele>1555.1</ele>
        <time>2000-01-02T07:42:03.000Z</time>
      </trkpt>
      <trkpt lat="46.03823" lon="6.79405">
        <ele>1556.5</ele>
        <time>2000-01-02T07:42:13.000Z</time>
      </trkpt>
      <trkpt lat="46.03823" lon="6.7941">
        <ele>1557.1</ele>
        <time>2000-01-02T07:42:23.000Z</time>
      </trkpt>
      <trkpt lat="46.03825" lon="6.79413">
        <ele>1561</ele>
        <time>2000-01-02T07:42:33.000Z</time>
      </trkpt>
      <trkpt lat="46.03827" lon="6.79419">
        <ele>1554.7</ele>
        <time>2000-01-02T07:42:43.000Z</time>
      </trkpt>
      <trkpt lat="46.03826" lon="6.79426">
        <ele>1556.4</ele>
        <time>2000-01-02T07:42:53.000Z</time>
      </trkpt>
      <trkpt lat="46.03825" lon="6.79429">
        <ele>1557.7</ele>
        <time>2000-01-02T07:43:03.000Z</time>
      </trkpt>
      <trkpt lat="46.03823" lon="6.79438">
        <ele>1560.5</ele>
        <time>2000-01-02T07:43:13.000Z</time>
      </trkpt>
      <trkpt lat="46.03821" lon="6.79448">
        <ele>1564</ele>
        <time>2000-01-02T07:43:23.000Z</time>
      </trkpt>
      <trkpt lat="46.0382" lon="6.79458">
        <ele>1565.7</ele>
        <time>2000-01-02T07:43:33.000Z</time>
      </trkpt>
      <trkpt lat="46.03819" lon="6.79463">
        <ele>1567.2</ele>
        <time>2000-01-02T07:43:43.000Z</time>
      </trkpt>
      <trkpt lat="46.03817" lon="6.79471">
        <ele>1570</ele>
        <time>2000-01-02T07:43:53.000Z</time>
      </trkpt>
      <trkpt lat="46.03814" lon="6.79481">
        <ele>1577</ele>
        <time>2000-01-02T07:44:03.000Z</time>
      </trkpt>
      <trkpt lat="46.03811" lon="6.79488">
        <ele>1577.7</ele>
        <time>2000-01-02T07:44:13.000Z</time>
      </trkpt>
      <trkpt lat="46.0381" lon="6.79495">
        <ele>1579.6</ele>
        <time>2000-01-02T07:44:23.000Z</time>
      </trkpt>
      <trkpt lat="46.0381" lon="6.795">
        <ele>1580.3</ele>
        <time>2000-01-02T07:44:33.000Z</time>
      </trkpt>
      <trkpt lat="46.03811" lon="6.79504">
        <ele>1580.4</ele>
        <time>2000-01-02T07:44:43.000Z</time>
      </trkpt>
      <trkpt lat="46.03809" lon="6.79504">
        <ele>1582.1</ele>
        <time>2000-01-02T07:44:53.000Z</time>
      </trkpt>
      <trkpt lat="46.03808" lon="6.79501">
        <ele>1579</ele>
        <time>2000-01-02T07:45:03.000Z</time>
      </trkpt>
      <trkpt lat="46.03807" lon="6.79496">
        <ele>1582.2</ele>
        <time>2000-01-02T07:45:13.000Z</time>
      </trkpt>
      <trkpt lat="46.03806" lon="6.7949">
        <ele>1582.2</ele>
        <time>2000-01-02T07:45:23.000Z</time>
      </trkpt>
      <trkpt lat="46.03806" lon="6.79487">
        <ele>1581.8</ele>
        <time>2000-01-02T07:45:33.000Z</time>
      </trkpt>
      <trkpt lat="46.03807" lon="6.79482">
        <ele>1580.2</ele>
        <time>2000-01-02T07:45:43.000Z</time>
      </trkpt>
      <trkpt lat="46.03807" lon="6.79477">
        <ele>1579.4</ele>
        <time>2000-01-02T07:45:53.000Z</time>
      </trkpt>
      <trkpt lat="46.03807" lon="6.79467">
        <ele>1578</ele>
        <time>2000-01-02T07:46:03.000Z</time>
      </trkpt>
      <trkpt lat="46.03807" lon="6.79461">
        <ele>1577.5</ele>
        <time>2000-01-02T07:46:13.000Z</time>
      </trkpt>
      <trkpt lat="46.03805" lon="6.79451">
        <ele>1578.2</ele>
        <time>2000-01-02T07:46:23.000Z</time>
      </trkpt>
      <trkpt lat="46.03803" lon="6.79443">
        <ele>1579.2</ele>
        <time>2000-01-02T07:46:33.000Z</time>
      </trkpt>
      <trkpt lat="46.03801" lon="6.79436">
        <ele>1578</ele>
        <time>2000-01-02T07:46:43.000Z</time>
      </trkpt>
      <trkpt lat="46.03797" lon="6.7943">
        <ele>1582.6</ele>
        <time>2000-01-02T07:46:53.000Z</time>
      </trkpt>
      <trkpt lat="46.03795" lon="6.79428">
        <ele>1584.1</ele>
        <time>2000-01-02T07:47:03.000Z</time>
      </trkpt>
      <trkpt lat="46.03792" lon="6.79426">
        <ele>1586.4</ele>
        <time>2000-01-02T07:47:13.000Z</time>
      </trkpt>
      <trkpt lat="46.03789" lon="6.79419">
        <ele>1587.7</ele>
        <time>2000-01-02T07:47:23.000Z</time>
      </trkpt>
      <trkpt lat="46.03789" lon="6.79416">
        <ele>1585</ele>
        <time>2000-01-02T07:47:33.000Z</time>
      </trkpt>
      <trkpt lat="46.03788" lon="6.79408">
        <ele>1586.5</ele>
        <time>2000-01-02T07:47:43.000Z</time>
      </trkpt>
      <trkpt lat="46.03787" lon="6.79403">
        <ele>1586.4</ele>
        <time>2000-01-02T07:47:53.000Z</time>
      </trkpt>
      <trkpt lat="46.03783" lon="6.79396">
        <ele>1588.3</ele>
        <time>2000-01-02T07:48:03.000Z</time>
      </trkpt>
      <trkpt lat="46.0378" lon="6.79393">
        <ele>1590.1</ele>
        <time>2000-01-02T07:48:13.000Z</time>
      </trkpt>
      <trkpt lat="46.03776" lon="6.79388">
        <ele>1593</ele>
        <time>2000-01-02T07:48:23.000Z</time>
      </trkpt>
      <trkpt lat="46.03772" lon="6.79381">
        <ele>1593.5</ele>
        <time>2000-01-02T07:48:33.000Z</time>
      </trkpt>
      <trkpt lat="46.0377" lon="6.79376">
        <ele>1593.8</ele>
        <time>2000-01-02T07:48:43.000Z</time>
      </trkpt>
      <trkpt lat="46.03767" lon="6.79369">
        <ele>1594.2</ele>
        <time>2000-01-02T07:48:53.000Z</time>
      </trkpt>
      <trkpt lat="46.03764" lon="6.79364">
        <ele>1598</ele>
        <time>2000-01-02T07:49:03.000Z</time>
      </trkpt>
      <trkpt lat="46.0376" lon="6.7936">
        <ele>1597.2</ele>
        <time>2000-01-02T07:49:13.000Z</time>
      </trkpt>
      <trkpt lat="46.03757" lon="6.79352">
        <ele>1597.4</ele>
        <time>2000-01-02T07:49:23.000Z</time>
      </trkpt>
      <trkpt lat="46.03754" lon="6.79346">
        <ele>1598.2</ele>
        <time>2000-01-02T07:49:33.000Z</time>
      </trkpt>
      <trkpt lat="46.03752" lon="6.79341">
        <ele>1599</ele>
        <time>2000-01-02T07:49:43.000Z</time>
      </trkpt>
      <trkpt lat="46.03751" lon="6.79336">
        <ele>1597.9</ele>
        <time>2000-01-02T07:49:53.000Z</time>
      </trkpt>
      <trkpt lat="46.03748" lon="6.79333">
        <ele>1599.6</ele>
        <time>2000-01-02T07:50:03.000Z</time>
      </trkpt>
      <trkpt lat="46.03746" lon="6.79329">
        <ele>1600.5</ele>
        <time>2000-01-02T07:50:13.000Z</time>
      </trkpt>
      <trkpt lat="46.03745" lon="6.79324">
        <ele>1600.5</ele>
        <time>2000-01-02T07:50:23.000Z</time>
      </trkpt>
      <trkpt lat="46.03743" lon="6.79324">
        <ele>1602.1</ele>
        <time>2000-01-02T07:50:33.000Z</time>
      </trkpt>
      <trkpt lat="46.03744" lon="6.79328">
        <ele>1602</ele>
        <time>2000-01-02T07:50:43.000Z</time>
      </trkpt>
      <trkpt lat="46.03743" lon="6.79332">
        <ele>1604</ele>
        <time>2000-01-02T07:50:53.000Z</time>
      </trkpt>
      <trkpt lat="46.03744" lon="6.79338">
        <ele>1604.1</ele>
        <time>2000-01-02T07:51:03.000Z</time>
      </trkpt>
      <trkpt lat="46.03745" lon="6.79346">
        <ele>1605.3</ele>
        <time>2000-01-02T07:51:13.000Z</time>
      </trkpt>
      <trkpt lat="46.03746" lon="6.79351">
        <ele>1605.8</ele>
        <time>2000-01-02T07:51:23.000Z</time>
      </trkpt>
      <trkpt lat="46.0375" lon="6.79369">
        <ele>1612</ele>
        <time>2000-01-02T07:51:33.000Z</time>
      </trkpt>
      <trkpt lat="46.03753" lon="6.79379">
        <ele>1607.8</ele>
        <time>2000-01-02T07:51:43.000Z</time>
      </trkpt>
      <trkpt lat="46.03755" lon="6.79388">
        <ele>1608.8</ele>
        <time>2000-01-02T07:51:53.000Z</time>
      </trkpt>
      <trkpt lat="46.03759" lon="6.79396">
        <ele>1613</ele>
        <time>2000-01-02T07:52:03.000Z</time>
      </trkpt>
      <trkpt lat="46.03761" lon="6.79405">
        <ele>1608.5</ele>
        <time>2000-01-02T07:52:13.000Z</time>
      </trkpt>
      <trkpt lat="46.03762" lon="6.79411">
        <ele>1609.2</ele>
        <time>2000-01-02T07:52:23.000Z</time>
      </trkpt>
      <trkpt lat="46.03762" lon="6.79417">
        <ele>1610.7</ele>
        <time>2000-01-02T07:52:33.000Z</time>
      </trkpt>
      <trkpt lat="46.03761" lon="6.79424">
        <ele>1614</ele>
        <time>2000-01-02T07:52:43.000Z</time>
      </trkpt>
      <trkpt lat="46.03762" lon="6.79431">
        <ele>1614</ele>
        <time>2000-01-02T07:52:53.000Z</time>
      </trkpt>
      <trkpt lat="46.03763" lon="6.79437">
        <ele>1614.5</ele>
        <time>2000-01-02T07:53:03.000Z</time>
      </trkpt>
      <trkpt lat="46.03765" lon="6.79445">
        <ele>1614.6</ele>
        <time>2000-01-02T07:53:13.000Z</time>
      </trkpt>
      <trkpt lat="46.03765" lon="6.79455">
        <ele>1621</ele>
        <time>2000-01-02T07:53:23.000Z</time>
      </trkpt>
      <trkpt lat="46.03764" lon="6.79462">
        <ele>1617.6</ele>
        <time>2000-01-02T07:53:33.000Z</time>
      </trkpt>
      <trkpt lat="46.03763" lon="6.79471">
        <ele>1619.7</ele>
        <time>2000-01-02T07:53:43.000Z</time>
      </trkpt>
      <trkpt lat="46.03764" lon="6.79477">
        <ele>1619.4</ele>
        <time>2000-01-02T07:53:53.000Z</time>
      </trkpt>
      <trkpt lat="46.03766" lon="6.79483">
        <ele>1625</ele>
        <time>2000-01-02T07:54:03.000Z</time>
      </trkpt>
      <trkpt lat="46.03768" lon="6.79489">
        <ele>1617</ele>
        <time>2000-01-02T07:54:13.000Z</time>
      </trkpt>
      <trkpt lat="46.03769" lon="6.79495">
        <ele>1616.7</ele>
        <time>2000-01-02T07:54:23.000Z</time>
      </trkpt>
      <trkpt lat="46.03769" lon="6.795">
        <ele>1617.2</ele>
        <time>2000-01-02T07:54:33.000Z</time>
      </trkpt>
      <trkpt lat="46.03768" lon="6.79499">
        <ele>1618</ele>
        <time>2000-01-02T07:54:43.000Z</time>
      </trkpt>
      <trkpt lat="46.03766" lon="6.79497">
        <ele>1619.7</ele>
        <time>2000-01-02T07:54:53.000Z</time>
      </trkpt>
      <trkpt lat="46.03763" lon="6.79493">
        <ele>1625</ele>
        <time>2000-01-02T07:55:03.000Z</time>
      </trkpt>
      <trkpt lat="46.03761" lon="6.7949">
        <ele>1623.6</ele>
        <time>2000-01-02T07:55:13.000Z</time>
      </trkpt>
      <trkpt lat="46.0376" lon="6.79486">
        <ele>1624.1</ele>
        <time>2000-01-02T07:55:23.000Z</time>
      </trkpt>
      <trkpt lat="46.03759" lon="6.79482">
        <ele>1624.6</ele>
        <time>2000-01-02T07:55:33.000Z</time>
      </trkpt>
      <trkpt lat="46.03757" lon="6.79477">
        <ele>1626</ele>
        <time>2000-01-02T07:55:43.000Z</time>
      </trkpt>
      <trkpt lat="46.03755" lon="6.79471">
        <ele>1627.2</ele>
        <time>2000-01-02T07:55:53.000Z</time>
      </trkpt>
      <trkpt lat="46.03754" lon="6.79466">
        <ele>1630</ele>
        <time>2000-01-02T07:56:03.000Z</time>
      </trkpt>
      <trkpt lat="46.03754" lon="6.79462">
        <ele>1626.8</ele>
        <time>2000-01-02T07:56:13.000Z</time>
      </trkpt>
      <trkpt lat="46.03752" lon="6.79454">
        <ele>1627.6</ele>
        <time>2000-01-02T07:56:23.000Z</time>
      </trkpt>
      <trkpt lat="46.0375" lon="6.79449">
        <ele>1628.7</ele>
        <time>2000-01-02T07:56:33.000Z</time>
      </trkpt>
      <trkpt lat="46.03745" lon="6.79443">
        <ele>1628</ele>
        <time>2000-01-02T07:56:43.000Z</time>
      </trkpt>
      <trkpt lat="46.03744" lon="6.79438">
        <ele>1631.6</ele>
        <time>2000-01-02T07:56:53.000Z</time>
      </trkpt>
      <trkpt lat="46.03743" lon="6.79431">
        <ele>1630.7</ele>
        <time>2000-01-02T07:57:03.000Z</time>
      </trkpt>
      <trkpt lat="46.03744" lon="6.79425">
        <ele>1628.3</ele>
        <time>2000-01-02T07:57:13.000Z</time>
      </trkpt>
      <trkpt lat="46.03742" lon="6.79418">
        <ele>1628.2</ele>
        <time>2000-01-02T07:57:23.000Z</time>
      </trkpt>
      <trkpt lat="46.0374" lon="6.79413">
        <ele>1632</ele>
        <time>2000-01-02T07:57:33.000Z</time>
      </trkpt>
      <trkpt lat="46.03734" lon="6.79403">
        <ele>1630.9</ele>
        <time>2000-01-02T07:57:43.000Z</time>
      </trkpt>
      <trkpt lat="46.0373" lon="6.79394">
        <ele>1631.8</ele>
        <time>2000-01-02T07:57:53.000Z</time>
      </trkpt>
      <trkpt lat="46.03728" lon="6.79387">
        <ele>1636</ele>
        <time>2000-01-02T07:58:03.000Z</time>
      </trkpt>
      <trkpt lat="46.03725" lon="6.79381">
        <ele>1632.1</ele>
        <time>2000-01-02T07:58:13.000Z</time>
      </trkpt>
      <trkpt lat="46.03721" lon="6.79378">
        <ele>1634.5</ele>
        <time>2000-01-02T07:58:23.000Z</time>
      </trkpt>
      <trkpt lat="46.03719" lon="6.79376">
        <ele>1635.5</ele>
        <time>2000-01-02T07:58:33.000Z</time>
      </trkpt>
      <trkpt lat="46.03717" lon="6.79376">
        <ele>1637.2</ele>
        <time>2000-01-02T07:58:43.000Z</time>
      </trkpt>
      <trkpt lat="46.03719" lon="6.79379">
        <ele>1636.5</ele>
        <time>2000-01-02T07:58:53.000Z</time>
      </trkpt>
      <trkpt lat="46.03721" lon="6.79383">
        <ele>1636</ele>
        <time>2000-01-02T07:59:03.000Z</time>
      </trkpt>
      <trkpt lat="46.03722" lon="6.79385">
        <ele>1635.9</ele>
        <time>2000-01-02T07:59:13.000Z</time>
      </trkpt>
      <trkpt lat="46.03721" lon="6.79387">
        <ele>1637.4</ele>
        <time>2000-01-02T07:59:23.000Z</time>
      </trkpt>
      <trkpt lat="46.03719" lon="6.79386">
        <ele>1638.7</ele>
        <time>2000-01-02T07:59:33.000Z</time>
      </trkpt>
      <trkpt lat="46.03718" lon="6.79383">
        <ele>1638.6</ele>
        <time>2000-01-02T07:59:43.000Z</time>
      </trkpt>
      <trkpt lat="46.03715" lon="6.79381">
        <ele>1640.5</ele>
        <time>2000-01-02T07:59:53.000Z</time>
      </trkpt>
      <trkpt lat="46.03714" lon="6.79381">
        <ele>1641.3</ele>
        <time>2000-01-02T08:00:03.000Z</time>
      </trkpt>
      <trkpt lat="46.03714" lon="6.79386">
        <ele>1642.9</ele>
        <time>2000-01-02T08:00:13.000Z</time>
      </trkpt>
      <trkpt lat="46.03715" lon="6.79392">
        <ele>1646</ele>
        <time>2000-01-02T08:00:23.000Z</time>
      </trkpt>
      <trkpt lat="46.03716" lon="6.794">
        <ele>1645.4</ele>
        <time>2000-01-02T08:00:33.000Z</time>
      </trkpt>
      <trkpt lat="46.03717" lon="6.79404">
        <ele>1645.8</ele>
        <time>2000-01-02T08:00:43.000Z</time>
      </trkpt>
      <trkpt lat="46.03715" lon="6.79406">
        <ele>1648.1</ele>
        <time>2000-01-02T08:00:53.000Z</time>
      </trkpt>
      <trkpt lat="46.03714" lon="6.79405">
        <ele>1648.6</ele>
        <time>2000-01-02T08:01:03.000Z</time>
      </trkpt>
      <trkpt lat="46.03712" lon="6.794">
        <ele>1648.8</ele>
        <time>2000-01-02T08:01:13.000Z</time>
      </trkpt>
      <trkpt lat="46.03711" lon="6.79398">
        <ele>1649</ele>
        <time>2000-01-02T08:01:23.000Z</time>
      </trkpt>
      <trkpt lat="46.03708" lon="6.79394">
        <ele>1656</ele>
        <time>2000-01-02T08:01:33.000Z</time>
      </trkpt>
      <trkpt lat="46.03705" lon="6.79392">
        <ele>1652.2</ele>
        <time>2000-01-02T08:01:43.000Z</time>
      </trkpt>
      <trkpt lat="46.03703" lon="6.79391">
        <ele>1653.6</ele>
        <time>2000-01-02T08:01:53.000Z</time>
      </trkpt>
      <trkpt lat="46.03703" lon="6.79393">
        <ele>1654.2</ele>
        <time>2000-01-02T08:02:03.000Z</time>
      </trkpt>
      <trkpt lat="46.03704" lon="6.79395">
        <ele>1654</ele>
        <time>2000-01-02T08:02:13.000Z</time>
      </trkpt>
      <trkpt lat="46.03706" lon="6.79402">
        <ele>1654.5</ele>
        <time>2000-01-02T08:02:23.000Z</time>
      </trkpt>
      <trkpt lat="46.0371" lon="6.79412">
        <ele>1664</ele>
        <time>2000-01-02T08:02:33.000Z</time>
      </trkpt>
      <trkpt lat="46.0371" lon="6.79416">
        <ele>1655.4</ele>
        <time>2000-01-02T08:02:43.000Z</time>
      </trkpt>
      <trkpt lat="46.03708" lon="6.79417">
        <ele>1657.4</ele>
        <time>2000-01-02T08:02:53.000Z</time>
      </trkpt>
      <trkpt lat="46.03706" lon="6.79414">
        <ele>1658.2</ele>
        <time>2000-01-02T08:03:03.000Z</time>
      </trkpt>
      <trkpt lat="46.03702" lon="6.79407">
        <ele>1659.4</ele>
        <time>2000-01-02T08:03:13.000Z</time>
      </trkpt>
      <trkpt lat="46.03699" lon="6.79403">
        <ele>1660.7</ele>
        <time>2000-01-02T08:03:23.000Z</time>
      </trkpt>
      <trkpt lat="46.03699" lon="6.79405">
        <ele>1661.4</ele>
        <time>2000-01-02T08:03:33.000Z</time>
      </trkpt>
      <trkpt lat="46.03699" lon="6.79409">
        <ele>1666</ele>
        <time>2000-01-02T08:03:43.000Z</time>
      </trkpt>
      <trkpt lat="46.03701" lon="6.79418">
        <ele>1663.6</ele>
        <time>2000-01-02T08:03:53.000Z</time>
      </trkpt>
      <trkpt lat="46.03702" lon="6.79431">
        <ele>1665.7</ele>
        <time>2000-01-02T08:04:03.000Z</time>
      </trkpt>
      <trkpt lat="46.03703" lon="6.79435">
        <ele>1665.8</ele>
        <time>2000-01-02T08:04:13.000Z</time>
      </trkpt>
      <trkpt lat="46.03705" lon="6.79436">
        <ele>1669</ele>
        <time>2000-01-02T08:04:23.000Z</time>
      </trkpt>
      <trkpt lat="46.03707" lon="6.79441">
        <ele>1663.8</ele>
        <time>2000-01-02T08:04:33.000Z</time>
      </trkpt>
      <trkpt lat="46.03707" lon="6.79444">
        <ele>1664.5</ele>
        <time>2000-01-02T08:04:43.000Z</time>
      </trkpt>
      <trkpt lat="46.03705" lon="6.79448">
        <ele>1666.9</ele>
        <time>2000-01-02T08:04:53.000Z</time>
      </trkpt>
      <trkpt lat="46.03706" lon="6.79454">
        <ele>1667</ele>
        <time>2000-01-02T08:05:03.000Z</time>
      </trkpt>
      <trkpt lat="46.03705" lon="6.79462">
        <ele>1675</ele>
        <time>2000-01-02T08:05:13.000Z</time>
      </trkpt>
      <trkpt lat="46.03705" lon="6.79467">
        <ele>1670</ele>
        <time>2000-01-02T08:05:23.000Z</time>
      </trkpt>
      <trkpt lat="46.03705" lon="6.7947">
        <ele>1670.5</ele>
        <time>2000-01-02T08:05:33.000Z</time>
      </trkpt>
      <trkpt lat="46.03706" lon="6.79475">
        <ele>1670.3</ele>
        <time>2000-01-02T08:05:43.000Z</time>
      </trkpt>
      <trkpt lat="46.03708" lon="6.79479">
        <ele>1668.9</ele>
        <time>2000-01-02T08:05:53.000Z</time>
      </trkpt>
      <trkpt lat="46.03708" lon="6.79485">
        <ele>1669.4</ele>
        <time>2000-01-02T08:06:03.000Z</time>
      </trkpt>
      <trkpt lat="46.03707" lon="6.79491">
        <ele>1678</ele>
        <time>2000-01-02T08:06:13.000Z</time>
      </trkpt>
      <trkpt lat="46.03707" lon="6.79497">
        <ele>1671.3</ele>
        <time>2000-01-02T08:06:23.000Z</time>
      </trkpt>
      <trkpt lat="46.03706" lon="6.79498">
        <ele>1672.3</ele>
        <time>2000-01-02T08:06:33.000Z</time>
      </trkpt>
      <trkpt lat="46.03705" lon="6.79494">
        <ele>1672.7</ele>
        <time>2000-01-02T08:06:43.000Z</time>
      </trkpt>
      <trkpt lat="46.03702" lon="6.79485">
        <ele>1674.5</ele>
        <time>2000-01-02T08:06:53.000Z</time>
      </trkpt>
      <trkpt lat="46.03699" lon="6.79478">
        <ele>1679</ele>
        <time>2000-01-02T08:07:03.000Z</time>
      </trkpt>
      <trkpt lat="46.03696" lon="6.79474">
        <ele>1678.8</ele>
        <time>2000-01-02T08:07:13.000Z</time>
      </trkpt>
      <trkpt lat="46.03695" lon="6.79471">
        <ele>1679.3</ele>
        <time>2000-01-02T08:07:23.000Z</time>
      </trkpt>
      <trkpt lat="46.03696" lon="6.79467">
        <ele>1677.7</ele>
        <time>2000-01-02T08:07:33.000Z</time>
      </trkpt>
      <trkpt lat="46.03697" lon="6.79464">
        <ele>1676.3</ele>
        <time>2000-01-02T08:07:43.000Z</time>
      </trkpt>
      <trkpt lat="46.03696" lon="6.79462">
        <ele>1676.8</ele>
        <time>2000-01-02T08:07:53.000Z</time>
      </trkpt>
      <trkpt lat="46.03694" lon="6.79457">
        <ele>1677.5</ele>
        <time>2000-01-02T08:08:03.000Z</time>
      </trkpt>
      <trkpt lat="46.0369" lon="6.79453">
        <ele>1680</ele>
        <time>2000-01-02T08:08:13.000Z</time>
      </trkpt>
      <trkpt lat="46.03688" lon="6.79451">
        <ele>1680</ele>
        <time>2000-01-02T08:08:23.000Z</time>
      </trkpt>
      <trkpt lat="46.03685" lon="6.7945">
        <ele>1681.6</ele>
        <time>2000-01-02T08:08:33.000Z</time>
      </trkpt>
      <trkpt lat="46.03683" lon="6.79445">
        <ele>1681.7</ele>
        <time>2000-01-02T08:08:43.000Z</time>
      </trkpt>
      <trkpt lat="46.0368" lon="6.79439">
        <ele>1682.1</ele>
        <time>2000-01-02T08:08:53.000Z</time>
      </trkpt>
      <trkpt lat="46.03675" lon="6.79436">
        <ele>1686</ele>
        <time>2000-01-02T08:09:03.000Z</time>
      </trkpt>
      <trkpt lat="46.0367" lon="6.79434">
        <ele>1686.8</ele>
        <time>2000-01-02T08:09:13.000Z</time>
      </trkpt>
      <trkpt lat="46.03666" lon="6.7943">
        <ele>1688.4</ele>
        <time>2000-01-02T08:09:23.000Z</time>
      </trkpt>
      <trkpt lat="46.03664" lon="6.79425">
        <ele>1689.1</ele>
        <time>2000-01-02T08:09:33.000Z</time>
      </trkpt>
      <trkpt lat="46.0366" lon="6.7942">
        <ele>1689</ele>
        <time>2000-01-02T08:09:43.000Z</time>
      </trkpt>
      <trkpt lat="46.0366" lon="6.79415">
        <ele>1690.9</ele>
        <time>2000-01-02T08:09:53.000Z</time>
      </trkpt>
      <trkpt lat="46.03661" lon="6.79413">
        <ele>1689.8</ele>
        <time>2000-01-02T08:10:03.000Z</time>
      </trkpt>
      <trkpt lat="46.03661" lon="6.7941">
        <ele>1689.5</ele>
        <time>2000-01-02T08:10:13.000Z</time>
      </trkpt>
      <trkpt lat="46.0366" lon="6.79409">
        <ele>1690.3</ele>
        <time>2000-01-02T08:10:23.000Z</time>
      </trkpt>
      <trkpt lat="46.03658" lon="6.79412">
        <ele>1692.4</ele>
        <time>2000-01-02T08:10:33.000Z</time>
      </trkpt>
      <trkpt lat="46.03656" lon="6.79417">
        <ele>1694.7</ele>
        <time>2000-01-02T08:10:43.000Z</time>
      </trkpt>
      <trkpt lat="46.03655" lon="6.79421">
        <ele>1698</ele>
        <time>2000-01-02T08:10:53.000Z</time>
      </trkpt>
      <trkpt lat="46.03655" lon="6.79425">
        <ele>1696.8</ele>
        <time>2000-01-02T08:11:03.000Z</time>
      </trkpt>
      <trkpt lat="46.03656" lon="6.79431">
        <ele>1696.9</ele>
        <time>2000-01-02T08:11:13.000Z</time>
      </trkpt>
      <trkpt lat="46.03658" lon="6.79438">
        <ele>1696.4</ele>
        <time>2000-01-02T08:11:23.000Z</time>
      </trkpt>
      <trkpt lat="46.03658" lon="6.79444">
        <ele>1697.5</ele>
        <time>2000-01-02T08:11:33.000Z</time>
      </trkpt>
      <trkpt lat="46.03658" lon="6.79449">
        <ele>1701</ele>
        <time>2000-01-02T08:11:43.000Z</time>
      </trkpt>
      <trkpt lat="46.0366" lon="6.79452">
        <ele>1697.7</ele>
        <time>2000-01-02T08:11:53.000Z</time>
      </trkpt>
      <trkpt lat="46.03665" lon="6.79461">
        <ele>1696.3</ele>
        <time>2000-01-02T08:12:03.000Z</time>
      </trkpt>
      <trkpt lat="46.03666" lon="6.79468">
        <ele>1697.4</ele>
        <time>2000-01-02T08:12:13.000Z</time>
      </trkpt>
      <trkpt lat="46.03668" lon="6.7948">
        <ele>1701</ele>
        <time>2000-01-02T08:12:23.000Z</time>
      </trkpt>
      <trkpt lat="46.03668" lon="6.79489">
        <ele>1700.1</ele>
        <time>2000-01-02T08:12:33.000Z</time>
      </trkpt>
      <trkpt lat="46.03669" lon="6.79502">
        <ele>1701.7</ele>
        <time>2000-01-02T08:12:43.000Z</time>
      </trkpt>
      <trkpt lat="46.03669" lon="6.7951">
        <ele>1707</ele>
        <time>2000-01-02T08:12:53.000Z</time>
      </trkpt>
      <trkpt lat="46.03669" lon="6.79515">
        <ele>1704.8</ele>
        <time>2000-01-02T08:13:03.000Z</time>
      </trkpt>
      <trkpt lat="46.03668" lon="6.79516">
        <ele>1705.9</ele>
        <time>2000-01-02T08:13:13.000Z</time>
      </trkpt>
      <trkpt lat="46.03667" lon="6.79512">
        <ele>1705.8</ele>
        <time>2000-01-02T08:13:23.000Z</time>
      </trkpt>
      <trkpt lat="46.03666" lon="6.79507">
        <ele>1705.3</ele>
        <time>2000-01-02T08:13:33.000Z</time>
      </trkpt>
      <trkpt lat="46.03665" lon="6.79504">
        <ele>1705.3</ele>
        <time>2000-01-02T08:13:43.000Z</time>
      </trkpt>
      <trkpt lat="46.03662" lon="6.795">
        <ele>1706.7</ele>
        <time>2000-01-02T08:13:53.000Z</time>
      </trkpt>
      <trkpt lat="46.03657" lon="6.7949">
        <ele>1711</ele>
        <time>2000-01-02T08:14:03.000Z</time>
      </trkpt>
      <trkpt lat="46.03654" lon="6.79483">
        <ele>1708.9</ele>
        <time>2000-01-02T08:14:13.000Z</time>
      </trkpt>
      <trkpt lat="46.03651" lon="6.79479">
        <ele>1709.9</ele>
        <time>2000-01-02T08:14:23.000Z</time>
      </trkpt>
      <trkpt lat="46.03648" lon="6.79471">
        <ele>1709.9</ele>
        <time>2000-01-02T08:14:33.000Z</time>
      </trkpt>
      <trkpt lat="46.03644" lon="6.79466">
        <ele>1712</ele>
        <time>2000-01-02T08:14:43.000Z</time>
      </trkpt>
      <trkpt lat="46.03641" lon="6.79464">
        <ele>1713.4</ele>
        <time>2000-01-02T08:14:53.000Z</time>
      </trkpt>
      <trkpt lat="46.03639" lon="6.79463">
        <ele>1714.6</ele>
        <time>2000-01-02T08:15:03.000Z</time>
      </trkpt>
      <trkpt lat="46.03638" lon="6.79461">
        <ele>1715</ele>
        <time>2000-01-02T08:15:13.000Z</time>
      </trkpt>
      <trkpt lat="46.03638" lon="6.79457">
        <ele>1714.5</ele>
        <time>2000-01-02T08:15:23.000Z</time>
      </trkpt>
      <trkpt lat="46.03636" lon="6.79453">
        <ele>1715.5</ele>
        <time>2000-01-02T08:15:33.000Z</time>
      </trkpt>
      <trkpt lat="46.03634" lon="6.79448">
        <ele>1716.3</ele>
        <time>2000-01-02T08:15:43.000Z</time>
      </trkpt>
      <trkpt lat="46.03633" lon="6.79443">
        <ele>1719</ele>
        <time>2000-01-02T08:15:53.000Z</time>
      </trkpt>
      <trkpt lat="46.03633" lon="6.79439">
        <ele>1716.2</ele>
        <time>2000-01-02T08:16:03.000Z</time>
      </trkpt>
      <trkpt lat="46.03632" lon="6.79433">
        <ele>1716.4</ele>
        <time>2000-01-02T08:16:13.000Z</time>
      </trkpt>
      <trkpt lat="46.03629" lon="6.79427">
        <ele>1718.1</ele>
        <time>2000-01-02T08:16:23.000Z</time>
      </trkpt>
      <trkpt lat="46.03628" lon="6.79424">
        <ele>1718.6</ele>
        <time>2000-01-02T08:16:33.000Z</time>
      </trkpt>
      <trkpt lat="46.03625" lon="6.79421">
        <ele>1720.5</ele>
        <time>2000-01-02T08:16:43.000Z</time>
      </trkpt>
      <trkpt lat="46.0362" lon="6.79414">
        <ele>1724</ele>
        <time>2000-01-02T08:16:53.000Z</time>
      </trkpt>
      <trkpt lat="46.03615" lon="6.79408">
        <ele>1725.1</ele>
        <time>2000-01-02T08:17:03.000Z</time>
      </trkpt>
      <trkpt lat="46.03611" lon="6.79401">
        <ele>1726.1</ele>
        <time>2000-01-02T08:17:13.000Z</time>
      </trkpt>
      <trkpt lat="46.03609" lon="6.79395">
        <ele>1725.5</ele>
        <time>2000-01-02T08:17:23.000Z</time>
      </trkpt>
      <trkpt lat="46.03607" lon="6.79392">
        <ele>1729</ele>
        <time>2000-01-02T08:17:33.000Z</time>
      </trkpt>
      <trkpt lat="46.03604" lon="6.79388">
        <ele>1725.7</ele>
        <time>2000-01-02T08:17:43.000Z</time>
      </trkpt>
      <trkpt lat="46.03602" lon="6.79388">
        <ele>1726.6</ele>
        <time>2000-01-02T08:17:53.000Z</time>
      </trkpt>
      <trkpt lat="46.03602" lon="6.79389">
        <ele>1727</ele>
        <time>2000-01-02T08:18:03.000Z</time>
      </trkpt>
      <trkpt lat="46.03603" lon="6.79393">
        <ele>1727.5</ele>
        <time>2000-01-02T08:18:13.000Z</time>
      </trkpt>
      <trkpt lat="46.03605" lon="6.79397">
        <ele>1727.7</ele>
        <time>2000-01-02T08:18:23.000Z</time>
      </trkpt>
      <trkpt lat="46.03605" lon="6.79399">
        <ele>1728.2</ele>
        <time>2000-01-02T08:18:33.000Z</time>
      </trkpt>
      <trkpt lat="46.03603" lon="6.79399">
        <ele>1729.1</ele>
        <time>2000-01-02T08:18:43.000Z</time>
      </trkpt>
      <trkpt lat="46.03599" lon="6.79395">
        <ele>1733</ele>
        <time>2000-01-02T08:18:53.000Z</time>
      </trkpt>
      <trkpt lat="46.03596" lon="6.79391">
        <ele>1730.1</ele>
        <time>2000-01-02T08:19:03.000Z</time>
      </trkpt>
      <trkpt lat="46.03594" lon="6.7939">
        <ele>1730.7</ele>
        <time>2000-01-02T08:19:13.000Z</time>
      </trkpt>
      <trkpt lat="46.03594" lon="6.79391">
        <ele>1730.9</ele>
        <time>2000-01-02T08:19:23.000Z</time>
      </trkpt>
      <trkpt lat="46.03594" lon="6.79395">
        <ele>1731.9</ele>
        <time>2000-01-02T08:19:33.000Z</time>
      </trkpt>
      <trkpt lat="46.03596" lon="6.79402">
        <ele>1732.8</ele>
        <time>2000-01-02T08:19:43.000Z</time>
      </trkpt>
      <trkpt lat="46.03598" lon="6.79406">
        <ele>1733</ele>
        <time>2000-01-02T08:19:53.000Z</time>
      </trkpt>
      <trkpt lat="46.03598" lon="6.7941">
        <ele>1735</ele>
        <time>2000-01-02T08:20:03.000Z</time>
      </trkpt>
      <trkpt lat="46.03599" lon="6.79416">
        <ele>1735.1</ele>
        <time>2000-01-02T08:20:13.000Z</time>
      </trkpt>
      <trkpt lat="46.036" lon="6.7942">
        <ele>1735.5</ele>
        <time>2000-01-02T08:20:23.000Z</time>
      </trkpt>
      <trkpt lat="46.03601" lon="6.79422">
        <ele>1735.4</ele>
        <time>2000-01-02T08:20:33.000Z</time>
      </trkpt>
      <trkpt lat="46.036" lon="6.79422">
        <ele>1735.9</ele>
        <time>2000-01-02T08:20:43.000Z</time>
      </trkpt>
      <trkpt lat="46.03598" lon="6.7942">
        <ele>1736.4</ele>
        <time>2000-01-02T08:20:53.000Z</time>
      </trkpt>
      <trkpt lat="46.03593" lon="6.79415">
        <ele>1737.4</ele>
        <time>2000-01-02T08:21:03.000Z</time>
      </trkpt>
      <trkpt lat="46.03588" lon="6.7941">
        <ele>1736</ele>
        <time>2000-01-02T08:21:13.000Z</time>
      </trkpt>
      <trkpt lat="46.03579" lon="6.79405">
        <ele>1740</ele>
        <time>2000-01-02T08:21:23.000Z</time>
      </trkpt>
      <trkpt lat="46.03574" lon="6.79401">
        <ele>1740</ele>
        <time>2000-01-02T08:21:33.000Z</time>
      </trkpt>
      <trkpt lat="46.03571" lon="6.79399">
        <ele>1738</ele>
        <time>2000-01-02T08:21:43.000Z</time>
      </trkpt>
      <trkpt lat="46.03566" lon="6.79398">
        <ele>1740.8</ele>
        <time>2000-01-02T08:21:53.000Z</time>
      </trkpt>
      <trkpt lat="46.03562" lon="6.794">
        <ele>1742.3</ele>
        <time>2000-01-02T08:22:03.000Z</time>
      </trkpt>
      <trkpt lat="46.0356" lon="6.79401">
        <ele>1743</ele>
        <time>2000-01-02T08:22:13.000Z</time>
      </trkpt>
      <trkpt lat="46.03559" lon="6.79402">
        <ele>1743.5</ele>
        <time>2000-01-02T08:22:23.000Z</time>
      </trkpt>
      <trkpt lat="46.03562" lon="6.79404">
        <ele>1743.5</ele>
        <time>2000-01-02T08:22:33.000Z</time>
      </trkpt>
      <trkpt lat="46.03567" lon="6.7941">
        <ele>1746</ele>
        <time>2000-01-02T08:22:43.000Z</time>
      </trkpt>
      <trkpt lat="46.03569" lon="6.79415">
        <ele>1745.1</ele>
        <time>2000-01-02T08:22:53.000Z</time>
      </trkpt>
      <trkpt lat="46.03573" lon="6.79424">
        <ele>1747.2</ele>
        <time>2000-01-02T08:23:03.000Z</time>
      </trkpt>
      <trkpt lat="46.03577" lon="6.7943">
        <ele>1748</ele>
        <time>2000-01-02T08:23:13.000Z</time>
      </trkpt>
      <trkpt lat="46.03581" lon="6.79435">
        <ele>1747</ele>
        <time>2000-01-02T08:23:23.000Z</time>
      </trkpt>
      <trkpt lat="46.03583" lon="6.79443">
        <ele>1749.7</ele>
        <time>2000-01-02T08:23:33.000Z</time>
      </trkpt>
      <trkpt lat="46.03587" lon="6.79449">
        <ele>1749.4</ele>
        <time>2000-01-02T08:23:43.000Z</time>
      </trkpt>
      <trkpt lat="46.03588" lon="6.79453">
        <ele>1750</ele>
        <time>2000-01-02T08:23:53.000Z</time>
      </trkpt>
      <trkpt lat="46.03588" lon="6.79454">
        <ele>1750.3</ele>
        <time>2000-01-02T08:24:03.000Z</time>
      </trkpt>
      <trkpt lat="46.03587" lon="6.79454">
        <ele>1751</ele>
        <time>2000-01-02T08:24:13.000Z</time>
      </trkpt>
      <trkpt lat="46.03585" lon="6.7945">
        <ele>1755</ele>
        <time>2000-01-02T08:24:23.000Z</time>
      </trkpt>
      <trkpt lat="46.03583" lon="6.79449">
        <ele>1751.8</ele>
        <time>2000-01-02T08:24:33.000Z</time>
      </trkpt>
      <trkpt lat="46.0358" lon="6.79447">
        <ele>1752.4</ele>
        <time>2000-01-02T08:24:43.000Z</time>
      </trkpt>
      <trkpt lat="46.03575" lon="6.79443">
        <ele>1753.1</ele>
        <time>2000-01-02T08:24:53.000Z</time>
      </trkpt>
      <trkpt lat="46.03572" lon="6.7944">
        <ele>1753.3</ele>
        <time>2000-01-02T08:25:03.000Z</time>
      </trkpt>
      <trkpt lat="46.03571" lon="6.7944">
        <ele>1753.7</ele>
        <time>2000-01-02T08:25:13.000Z</time>
      </trkpt>
      <trkpt lat="46.03571" lon="6.79442">
        <ele>1754.4</ele>
        <time>2000-01-02T08:25:23.000Z</time>
      </trkpt>
      <trkpt lat="46.03576" lon="6.79449">
        <ele>1755</ele>
        <time>2000-01-02T08:25:33.000Z</time>
      </trkpt>
      <trkpt lat="46.0358" lon="6.79458">
        <ele>1756.4</ele>
        <time>2000-01-02T08:25:43.000Z</time>
      </trkpt>
      <trkpt lat="46.03583" lon="6.79464">
        <ele>1757.2</ele>
        <time>2000-01-02T08:25:53.000Z</time>
      </trkpt>
      <trkpt lat="46.03584" lon="6.79467">
        <ele>1757.6</ele>
        <time>2000-01-02T08:26:03.000Z</time>
      </trkpt>
      <trkpt lat="46.03584" lon="6.79471">
        <ele>1759</ele>
        <time>2000-01-02T08:26:13.000Z</time>
      </trkpt>
      <trkpt lat="46.03586" lon="6.79474">
        <ele>1757</ele>
        <time>2000-01-02T08:26:23.000Z</time>
      </trkpt>
      <trkpt lat="46.03586" lon="6.79477">
        <ele>1758.7</ele>
        <time>2000-01-02T08:26:33.000Z</time>
      </trkpt>
      <trkpt lat="46.03586" lon="6.79478">
        <ele>1758.9</ele>
        <time>2000-01-02T08:26:43.000Z</time>
      </trkpt>
      <trkpt lat="46.03584" lon="6.79475">
        <ele>1760</ele>
        <time>2000-01-02T08:26:53.000Z</time>
      </trkpt>
      <trkpt lat="46.0358" lon="6.79469">
        <ele>1760.4</ele>
        <time>2000-01-02T08:27:03.000Z</time>
      </trkpt>
      <trkpt lat="46.03571" lon="6.79459">
        <ele>1759</ele>
        <time>2000-01-02T08:27:13.000Z</time>
      </trkpt>
      <trkpt lat="46.03563" lon="6.79454">
        <ele>1762.5</ele>
        <time>2000-01-02T08:27:23.000Z</time>
      </trkpt>
      <trkpt lat="46.03557" lon="6.7945">
        <ele>1763.6</ele>
        <time>2000-01-02T08:27:33.000Z</time>
      </trkpt>
      <trkpt lat="46.03551" lon="6.79449">
        <ele>1762</ele>
        <time>2000-01-02T08:27:43.000Z</time>
      </trkpt>
      <trkpt lat="46.03541" lon="6.7945">
        <ele>1768</ele>
        <time>2000-01-02T08:27:53.000Z</time>
      </trkpt>
      <trkpt lat="46.03535" lon="6.79451">
        <ele>1770</ele>
        <time>2000-01-02T08:28:03.000Z</time>
      </trkpt>
      <trkpt lat="46.03534" lon="6.79452">
        <ele>1770.6</ele>
        <time>2000-01-02T08:28:13.000Z</time>
      </trkpt>
      <trkpt lat="46.03534" lon="6.79453">
        <ele>1770</ele>
        <time>2000-01-02T08:28:23.000Z</time>
      </trkpt>
      <trkpt lat="46.03539" lon="6.79459">
        <ele>1772.2</ele>
        <time>2000-01-02T08:28:33.000Z</time>
      </trkpt>
      <trkpt lat="46.03541" lon="6.79463">
        <ele>1773.4</ele>
        <time>2000-01-02T08:28:43.000Z</time>
      </trkpt>
      <trkpt lat="46.03544" lon="6.79467">
        <ele>1774.2</ele>
        <time>2000-01-02T08:28:53.000Z</time>
      </trkpt>
      <trkpt lat="46.0355" lon="6.7947">
        <ele>1772</ele>
        <time>2000-01-02T08:29:03.000Z</time>
      </trkpt>
      <trkpt lat="46.03558" lon="6.79476">
        <ele>1773.4</ele>
        <time>2000-01-02T08:29:13.000Z</time>
      </trkpt>
      <trkpt lat="46.0356" lon="6.79477">
        <ele>1772.8</ele>
        <time>2000-01-02T08:29:23.000Z</time>
      </trkpt>
      <trkpt lat="46.03561" lon="6.79481">
        <ele>1773.9</ele>
        <time>2000-01-02T08:29:33.000Z</time>
      </trkpt>
      <trkpt lat="46.03565" lon="6.79485">
        <ele>1773.2</ele>
        <time>2000-01-02T08:29:43.000Z</time>
      </trkpt>
      <trkpt lat="46.03568" lon="6.79488">
        <ele>1774</ele>
        <time>2000-01-02T08:29:53.000Z</time>
      </trkpt>
      <trkpt lat="46.03569" lon="6.79491">
        <ele>1772.9</ele>
        <time>2000-01-02T08:30:03.000Z</time>
      </trkpt>
      <trkpt lat="46.03569" lon="6.79492">
        <ele>1773.2</ele>
        <time>2000-01-02T08:30:13.000Z</time>
      </trkpt>
      <trkpt lat="46.03568" lon="6.79492">
        <ele>1773.8</ele>
        <time>2000-01-02T08:30:23.000Z</time>
      </trkpt>
      <trkpt lat="46.03566" lon="6.79491">
        <ele>1774.7</ele>
        <time>2000-01-02T08:30:33.000Z</time>
      </trkpt>
      <trkpt lat="46.03561" lon="6.79488">
        <ele>1776.6</ele>
        <time>2000-01-02T08:30:43.000Z</time>
      </trkpt>
      <trkpt lat="46.0356" lon="6.79488">
        <ele>1777.2</ele>
        <time>2000-01-02T08:30:53.000Z</time>
      </trkpt>
      <trkpt lat="46.0356" lon="6.7949">
        <ele>1778</ele>
        <time>2000-01-02T08:31:03.000Z</time>
      </trkpt>
      <trkpt lat="46.03563" lon="6.79495">
        <ele>1778</ele>
        <time>2000-01-02T08:31:13.000Z</time>
      </trkpt>
      <trkpt lat="46.03565" lon="6.79497">
        <ele>1777.5</ele>
        <time>2000-01-02T08:31:23.000Z</time>
      </trkpt>
      <trkpt lat="46.03565" lon="6.79498">
        <ele>1777.8</ele>
        <time>2000-01-02T08:31:33.000Z</time>
      </trkpt>
      <trkpt lat="46.03564" lon="6.79499">
        <ele>1778.9</ele>
        <time>2000-01-02T08:31:43.000Z</time>
      </trkpt>
      <trkpt lat="46.03559" lon="6.79498">
        <ele>1781.8</ele>
        <time>2000-01-02T08:31:53.000Z</time>
      </trkpt>
      <trkpt lat="46.03548" lon="6.79493">
        <ele>1784</ele>
        <time>2000-01-02T08:32:03.000Z</time>
      </trkpt>
      <trkpt lat="46.0354" lon="6.7949">
        <ele>1784.8</ele>
        <time>2000-01-02T08:32:13.000Z</time>
      </trkpt>
      <trkpt lat="46.0353" lon="6.79488">
        <ele>1786.7</ele>
        <time>2000-01-02T08:32:23.000Z</time>
      </trkpt>
      <trkpt lat="46.03525" lon="6.79487">
        <ele>1788</ele>
        <time>2000-01-02T08:32:33.000Z</time>
      </trkpt>
      <trkpt lat="46.03523" lon="6.79487">
        <ele>1788.6</ele>
        <time>2000-01-02T08:32:43.000Z</time>
      </trkpt>
      <trkpt lat="46.03522" lon="6.79489">
        <ele>1789.7</ele>
        <time>2000-01-02T08:32:53.000Z</time>
      </trkpt>
      <trkpt lat="46.03523" lon="6.79491">
        <ele>1790.2</ele>
        <time>2000-01-02T08:33:03.000Z</time>
      </trkpt>
      <trkpt lat="46.03527" lon="6.79496">
        <ele>1790.7</ele>
        <time>2000-01-02T08:33:13.000Z</time>
      </trkpt>
      <trkpt lat="46.03528" lon="6.79498">
        <ele>1791.2</ele>
        <time>2000-01-02T08:33:23.000Z</time>
      </trkpt>
      <trkpt lat="46.0353" lon="6.795">
        <ele>1791.4</ele>
        <time>2000-01-02T08:33:33.000Z</time>
      </trkpt>
      <trkpt lat="46.03534" lon="6.79503">
        <ele>1790</ele>
        <time>2000-01-02T08:33:43.000Z</time>
      </trkpt>
      <trkpt lat="46.03539" lon="6.79507">
        <ele>1791.7</ele>
        <time>2000-01-02T08:33:53.000Z</time>
      </trkpt>
      <trkpt lat="46.03544" lon="6.79512">
        <ele>1792.2</ele>
        <time>2000-01-02T08:34:03.000Z</time>
      </trkpt>
      <trkpt lat="46.03548" lon="6.79518">
        <ele>1793.1</ele>
        <time>2000-01-02T08:34:13.000Z</time>
      </trkpt>
      <trkpt lat="46.03551" lon="6.79522">
        <ele>1793</ele>
        <time>2000-01-02T08:34:23.000Z</time>
      </trkpt>
      <trkpt lat="46.03554" lon="6.79525">
        <ele>1793.6</ele>
        <time>2000-01-02T08:34:33.000Z</time>
      </trkpt>
      <trkpt lat="46.03557" lon="6.7953">
        <ele>1793.6</ele>
        <time>2000-01-02T08:34:43.000Z</time>
      </trkpt>
      <trkpt lat="46.03559" lon="6.79533">
        <ele>1793.1</ele>
        <time>2000-01-02T08:34:53.000Z</time>
      </trkpt>
      <trkpt lat="46.03558" lon="6.79534">
        <ele>1794.2</ele>
        <time>2000-01-02T08:35:03.000Z</time>
      </trkpt>
      <trkpt lat="46.03556" lon="6.79533">
        <ele>1795.4</ele>
        <time>2000-01-02T08:35:13.000Z</time>
      </trkpt>
      <trkpt lat="46.03552" lon="6.79531">
        <ele>1796.2</ele>
        <time>2000-01-02T08:35:23.000Z</time>
      </trkpt>
      <trkpt lat="46.03546" lon="6.79533">
        <ele>1798</ele>
        <time>2000-01-02T08:35:33.000Z</time>
      </trkpt>
      <trkpt lat="46.03539" lon="6.79534">
        <ele>1801.5</ele>
        <time>2000-01-02T08:35:43.000Z</time>
      </trkpt>
      <trkpt lat="46.03533" lon="6.79532">
        <ele>1802.8</ele>
        <time>2000-01-02T08:35:53.000Z</time>
      </trkpt>
      <trkpt lat="46.03525" lon="6.79527">
        <ele>1802</ele>
        <time>2000-01-02T08:36:03.000Z</time>
      </trkpt>
      <trkpt lat="46.03516" lon="6.79522">
        <ele>1804.6</ele>
        <time>2000-01-02T08:36:13.000Z</time>
      </trkpt>
      <trkpt lat="46.03509" lon="6.79517">
        <ele>1805.1</ele>
        <time>2000-01-02T08:36:23.000Z</time>
      </trkpt>
      <trkpt lat="46.03503" lon="6.79513">
        <ele>1803</ele>
        <time>2000-01-02T08:36:33.000Z</time>
      </trkpt>
      <trkpt lat="46.03498" lon="6.7951">
        <ele>1806.3</ele>
        <time>2000-01-02T08:36:43.000Z</time>
      </trkpt>
      <trkpt lat="46.03493" lon="6.79507">
        <ele>1807.1</ele>
        <time>2000-01-02T08:36:53.000Z</time>
      </trkpt>
      <trkpt lat="46.03488" lon="6.79502">
        <ele>1807.1</ele>
        <time>2000-01-02T08:37:03.000Z</time>
      </trkpt>
      <trkpt lat="46.03481" lon="6.79497">
        <ele>1804</ele>
        <time>2000-01-02T08:37:13.000Z</time>
      </trkpt>
      <trkpt lat="46.03475" lon="6.79492">
        <ele>1807.3</ele>
        <time>2000-01-02T08:37:23.000Z</time>
      </trkpt>
      <trkpt lat="46.03474" lon="6.7949">
        <ele>1806.7</ele>
        <time>2000-01-02T08:37:33.000Z</time>
      </trkpt>
      <trkpt lat="46.03473" lon="6.79491">
        <ele>1807.5</ele>
        <time>2000-01-02T08:37:43.000Z</time>
      </trkpt>
      <trkpt lat="46.03475" lon="6.79494">
        <ele>1808.2</ele>
        <time>2000-01-02T08:37:53.000Z</time>
      </trkpt>
      <trkpt lat="46.03477" lon="6.79498">
        <ele>1809.4</ele>
        <time>2000-01-02T08:38:03.000Z</time>
      </trkpt>
      <trkpt lat="46.03481" lon="6.79506">
        <ele>1808</ele>
        <time>2000-01-02T08:38:13.000Z</time>
      </trkpt>
      <trkpt lat="46.03484" lon="6.79515">
        <ele>1813.5</ele>
        <time>2000-01-02T08:38:23.000Z</time>
      </trkpt>
      <trkpt lat="46.03487" lon="6.79526">
        <ele>1816.5</ele>
        <time>2000-01-02T08:38:33.000Z</time>
      </trkpt>
      <trkpt lat="46.03488" lon="6.79528">
        <ele>1816.8</ele>
        <time>2000-01-02T08:38:43.000Z</time>
      </trkpt>
      <trkpt lat="46.03491" lon="6.79532">
        <ele>1815</ele>
        <time>2000-01-02T08:38:53.000Z</time>
      </trkpt>
      <trkpt lat="46.03493" lon="6.79537">
        <ele>1817.8</ele>
        <time>2000-01-02T08:39:03.000Z</time>
      </trkpt>
      <trkpt lat="46.03495" lon="6.7954">
        <ele>1817.9</ele>
        <time>2000-01-02T08:39:13.000Z</time>
      </trkpt>
      <trkpt lat="46.03498" lon="6.79541">
        <ele>1817.1</ele>
        <time>2000-01-02T08:39:23.000Z</time>
      </trkpt>
      <trkpt lat="46.03501" lon="6.79543">
        <ele>1816.6</ele>
        <time>2000-01-02T08:39:33.000Z</time>
      </trkpt>
      <trkpt lat="46.03505" lon="6.79548">
        <ele>1817.1</ele>
        <time>2000-01-02T08:39:43.000Z</time>
      </trkpt>
      <trkpt lat="46.03507" lon="6.79554">
        <ele>1819</ele>
        <time>2000-01-02T08:39:53.000Z</time>
      </trkpt>
      <trkpt lat="46.03511" lon="6.79564">
        <ele>1819.5</ele>
        <time>2000-01-02T08:40:03.000Z</time>
      </trkpt>
      <trkpt lat="46.03512" lon="6.7957">
        <ele>1820.4</ele>
        <time>2000-01-02T08:40:13.000Z</time>
      </trkpt>
      <trkpt lat="46.03513" lon="6.79574">
        <ele>1820.9</ele>
        <time>2000-01-02T08:40:23.000Z</time>
      </trkpt>
      <trkpt lat="46.03513" lon="6.79578">
        <ele>1821.7</ele>
        <time>2000-01-02T08:40:33.000Z</time>
      </trkpt>
      <trkpt lat="46.03513" lon="6.7958">
        <ele>1821</ele>
        <time>2000-01-02T08:40:43.000Z</time>
      </trkpt>
      <trkpt lat="46.03512" lon="6.79583">
        <ele>1822.9</ele>
        <time>2000-01-02T08:40:53.000Z</time>
      </trkpt>
      <trkpt lat="46.03512" lon="6.79584">
        <ele>1823.2</ele>
        <time>2000-01-02T08:41:03.000Z</time>
      </trkpt>
      <trkpt lat="46.03514" lon="6.79585">
        <ele>1822.9</ele>
        <time>2000-01-02T08:41:13.000Z</time>
      </trkpt>
      <trkpt lat="46.03515" lon="6.79585">
        <ele>1822.7</ele>
        <time>2000-01-02T08:41:23.000Z</time>
      </trkpt>
      <trkpt lat="46.03517" lon="6.79585">
        <ele>1822.1</ele>
        <time>2000-01-02T08:41:33.000Z</time>
      </trkpt>
      <trkpt lat="46.03518" lon="6.79586">
        <ele>1822.1</ele>
        <time>2000-01-02T08:41:43.000Z</time>
      </trkpt>
      <trkpt lat="46.03519" lon="6.79588">
        <ele>1822.4</ele>
        <time>2000-01-02T08:41:53.000Z</time>
      </trkpt>
      <trkpt lat="46.03521" lon="6.79592">
        <ele>1822.8</ele>
        <time>2000-01-02T08:42:03.000Z</time>
      </trkpt>
      <trkpt lat="46.03522" lon="6.79594">
        <ele>1823</ele>
        <time>2000-01-02T08:42:13.000Z</time>
      </trkpt>
      <trkpt lat="46.03524" lon="6.79596">
        <ele>1822.9</ele>
        <time>2000-01-02T08:42:23.000Z</time>
      </trkpt>
      <trkpt lat="46.03527" lon="6.796">
        <ele>1821</ele>
        <time>2000-01-02T08:42:33.000Z</time>
      </trkpt>
      <trkpt lat="46.03528" lon="6.79603">
        <ele>1823.1</ele>
        <time>2000-01-02T08:42:43.000Z</time>
      </trkpt>
      <trkpt lat="46.03528" lon="6.79605">
        <ele>1823.6</ele>
        <time>2000-01-02T08:42:53.000Z</time>
      </trkpt>
      <trkpt lat="46.03529" lon="6.7961">
        <ele>1824.1</ele>
        <time>2000-01-02T08:43:03.000Z</time>
      </trkpt>
      <trkpt lat="46.03529" lon="6.79613">
        <ele>1824.8</ele>
        <time>2000-01-02T08:43:13.000Z</time>
      </trkpt>
      <trkpt lat="46.03529" lon="6.79615">
        <ele>1825.3</ele>
        <time>2000-01-02T08:43:23.000Z</time>
      </trkpt>
      <trkpt lat="46.03528" lon="6.79615">
        <ele>1825.9</ele>
        <time>2000-01-02T08:43:33.000Z</time>
      </trkpt>
      <trkpt lat="46.03526" lon="6.79613">
        <ele>1826.1</ele>
        <time>2000-01-02T08:43:43.000Z</time>
      </trkpt>
      <trkpt lat="46.03523" lon="6.79611">
        <ele>1826.7</ele>
        <time>2000-01-02T08:43:53.000Z</time>
      </trkpt>
      <trkpt lat="46.03522" lon="6.79611">
        <ele>1827.1</ele>
        <time>2000-01-02T08:44:03.000Z</time>
      </trkpt>
      <trkpt lat="46.0352" lon="6.79611">
        <ele>1830</ele>
        <time>2000-01-02T08:44:13.000Z</time>
      </trkpt>
      <trkpt lat="46.03517" lon="6.79613">
        <ele>1829.5</ele>
        <time>2000-01-02T08:44:23.000Z</time>
      </trkpt>
      <trkpt lat="46.03512" lon="6.79612">
        <ele>1831</ele>
        <time>2000-01-02T08:44:33.000Z</time>
      </trkpt>
      <trkpt lat="46.03508" lon="6.79611">
        <ele>1832.1</ele>
        <time>2000-01-02T08:44:43.000Z</time>
      </trkpt>
      <trkpt lat="46.03505" lon="6.79611">
        <ele>1833.2</ele>
        <time>2000-01-02T08:44:53.000Z</time>
      </trkpt>
      <trkpt lat="46.03505" lon="6.79613">
        <ele>1834.1</ele>
        <time>2000-01-02T08:45:03.000Z</time>
      </trkpt>
      <trkpt lat="46.03508" lon="6.79614">
        <ele>1833.4</ele>
        <time>2000-01-02T08:45:13.000Z</time>
      </trkpt>
      <trkpt lat="46.03511" lon="6.79616">
        <ele>1830</ele>
        <time>2000-01-02T08:45:23.000Z</time>
      </trkpt>
      <trkpt lat="46.03513" lon="6.79619">
        <ele>1833.4</ele>
        <time>2000-01-02T08:45:33.000Z</time>
      </trkpt>
      <trkpt lat="46.03516" lon="6.79623">
        <ele>1833.5</ele>
        <time>2000-01-02T08:45:43.000Z</time>
      </trkpt>
      <trkpt lat="46.03518" lon="6.79625">
        <ele>1833.3</ele>
        <time>2000-01-02T08:45:53.000Z</time>
      </trkpt>
      <trkpt lat="46.0352" lon="6.79626">
        <ele>1832.6</ele>
        <time>2000-01-02T08:46:03.000Z</time>
      </trkpt>
      <trkpt lat="46.03521" lon="6.79628">
        <ele>1832.7</ele>
        <time>2000-01-02T08:46:13.000Z</time>
      </trkpt>
      <trkpt lat="46.03521" lon="6.7963">
        <ele>1833.4</ele>
        <time>2000-01-02T08:46:23.000Z</time>
      </trkpt>
      <trkpt lat="46.0352" lon="6.7963">
        <ele>1833.9</ele>
        <time>2000-01-02T08:46:33.000Z</time>
      </trkpt>
      <trkpt lat="46.03518" lon="6.79629">
        <ele>1834.6</ele>
        <time>2000-01-02T08:46:43.000Z</time>
      </trkpt>
      <trkpt lat="46.03515" lon="6.79627">
        <ele>1834</ele>
        <time>2000-01-02T08:46:53.000Z</time>
      </trkpt>
      <trkpt lat="46.03511" lon="6.79626">
        <ele>1837.1</ele>
        <time>2000-01-02T08:47:03.000Z</time>
      </trkpt>
      <trkpt lat="46.03507" lon="6.79625">
        <ele>1838.6</ele>
        <time>2000-01-02T08:47:13.000Z</time>
      </trkpt>
      <trkpt lat="46.03504" lon="6.79625">
        <ele>1840.1</ele>
        <time>2000-01-02T08:47:23.000Z</time>
      </trkpt>
      <trkpt lat="46.03502" lon="6.79624">
        <ele>1840.5</ele>
        <time>2000-01-02T08:47:33.000Z</time>
      </trkpt>
      <trkpt lat="46.03501" lon="6.79623">
        <ele>1840.5</ele>
        <time>2000-01-02T08:47:43.000Z</time>
      </trkpt>
      <trkpt lat="46.03497" lon="6.79623">
        <ele>1842.1</ele>
        <time>2000-01-02T08:47:53.000Z</time>
      </trkpt>
      <trkpt lat="46.03495" lon="6.79621">
        <ele>1843</ele>
        <time>2000-01-02T08:48:03.000Z</time>
      </trkpt>
      <trkpt lat="46.03494" lon="6.7962">
        <ele>1841.9</ele>
        <time>2000-01-02T08:48:13.000Z</time>
      </trkpt>
      <trkpt lat="46.03489" lon="6.79617">
        <ele>1842.5</ele>
        <time>2000-01-02T08:48:23.000Z</time>
      </trkpt>
      <trkpt lat="46.03484" lon="6.79612">
        <ele>1842.3</ele>
        <time>2000-01-02T08:48:33.000Z</time>
      </trkpt>
      <trkpt lat="46.03478" lon="6.79606">
        <ele>1844</ele>
        <time>2000-01-02T08:48:43.000Z</time>
      </trkpt>
      <trkpt lat="46.03474" lon="6.79602">
        <ele>1843.6</ele>
        <time>2000-01-02T08:48:53.000Z</time>
      </trkpt>
      <trkpt lat="46.03466" lon="6.79596">
        <ele>1844.7</ele>
        <time>2000-01-02T08:49:03.000Z</time>
      </trkpt>
      <trkpt lat="46.0346" lon="6.79592">
        <ele>1845</ele>
        <time>2000-01-02T08:49:13.000Z</time>
      </trkpt>
      <trkpt lat="46.03456" lon="6.79589">
        <ele>1845.9</ele>
        <time>2000-01-02T08:49:23.000Z</time>
      </trkpt>
      <trkpt lat="46.03451" lon="6.79585">
        <ele>1846.4</ele>
        <time>2000-01-02T08:49:33.000Z</time>
      </trkpt>
      <trkpt lat="46.03446" lon="6.79583">
        <ele>1847.4</ele>
        <time>2000-01-02T08:49:43.000Z</time>
      </trkpt>
      <trkpt lat="46.03444" lon="6.79582">
        <ele>1847.5</ele>
        <time>2000-01-02T08:49:53.000Z</time>
      </trkpt>
      <trkpt lat="46.03444" lon="6.79584">
        <ele>1848.2</ele>
        <time>2000-01-02T08:50:03.000Z</time>
      </trkpt>
      <trkpt lat="46.03446" lon="6.79586">
        <ele>1847</ele>
        <time>2000-01-02T08:50:13.000Z</time>
      </trkpt>
      <trkpt lat="46.03449" lon="6.79589">
        <ele>1848.2</ele>
        <time>2000-01-02T08:50:23.000Z</time>
      </trkpt>
      <trkpt lat="46.03451" lon="6.79592">
        <ele>1848.4</ele>
        <time>2000-01-02T08:50:33.000Z</time>
      </trkpt>
      <trkpt lat="46.03453" lon="6.79595">
        <ele>1848.6</ele>
        <time>2000-01-02T08:50:43.000Z</time>
      </trkpt>
      <trkpt lat="46.03452" lon="6.79598">
        <ele>1849.8</ele>
        <time>2000-01-02T08:50:53.000Z</time>
      </trkpt>
      <trkpt lat="46.03451" lon="6.796">
        <ele>1850.7</ele>
        <time>2000-01-02T08:51:03.000Z</time>
      </trkpt>
      <trkpt lat="46.03448" lon="6.79602">
        <ele>1852.2</ele>
        <time>2000-01-02T08:51:13.000Z</time>
      </trkpt>
      <trkpt lat="46.03447" lon="6.79605">
        <ele>1855</ele>
        <time>2000-01-02T08:51:23.000Z</time>
      </trkpt>
      <trkpt lat="46.03446" lon="6.79609">
        <ele>1854.9</ele>
        <time>2000-01-02T08:51:33.000Z</time>
      </trkpt>
      <trkpt lat="46.03447" lon="6.79613">
        <ele>1855.9</ele>
        <time>2000-01-02T08:51:43.000Z</time>
      </trkpt>
      <trkpt lat="46.0345" lon="6.79618">
        <ele>1856.7</ele>
        <time>2000-01-02T08:51:53.000Z</time>
      </trkpt>
      <trkpt lat="46.03456" lon="6.79624">
        <ele>1857.1</ele>
        <time>2000-01-02T08:52:03.000Z</time>
      </trkpt>
      <trkpt lat="46.03457" lon="6.79626">
        <ele>1856</ele>
        <time>2000-01-02T08:52:13.000Z</time>
      </trkpt>
      <trkpt lat="46.03459" lon="6.79629">
        <ele>1858.1</ele>
        <time>2000-01-02T08:52:23.000Z</time>
      </trkpt>
      <trkpt lat="46.03462" lon="6.79631">
        <ele>1857.9</ele>
        <time>2000-01-02T08:52:33.000Z</time>
      </trkpt>
      <trkpt lat="46.03466" lon="6.79635">
        <ele>1858.3</ele>
        <time>2000-01-02T08:52:43.000Z</time>
      </trkpt>
      <trkpt lat="46.03472" lon="6.7964">
        <ele>1858.6</ele>
        <time>2000-01-02T08:52:53.000Z</time>
      </trkpt>
      <trkpt lat="46.03475" lon="6.79644">
        <ele>1858</ele>
        <time>2000-01-02T08:53:03.000Z</time>
      </trkpt>
      <trkpt lat="46.03479" lon="6.79651">
        <ele>1861.6</ele>
        <time>2000-01-02T08:53:13.000Z</time>
      </trkpt>
      <trkpt lat="46.03482" lon="6.79656">
        <ele>1862.8</ele>
        <time>2000-01-02T08:53:23.000Z</time>
      </trkpt>
      <trkpt lat="46.03482" lon="6.79659">
        <ele>1864.2</ele>
        <time>2000-01-02T08:53:33.000Z</time>
      </trkpt>
      <trkpt lat="46.03482" lon="6.7966">
        <ele>1864.7</ele>
        <time>2000-01-02T08:53:43.000Z</time>
      </trkpt>
      <trkpt lat="46.03482" lon="6.79663">
        <ele>1866.1</ele>
        <time>2000-01-02T08:53:53.000Z</time>
      </trkpt>
      <trkpt lat="46.03483" lon="6.79665">
        <ele>1866.6</ele>
        <time>2000-01-02T08:54:03.000Z</time>
      </trkpt>
      <trkpt lat="46.03485" lon="6.79669">
        <ele>1864</ele>
        <time>2000-01-02T08:54:13.000Z</time>
      </trkpt>
      <trkpt lat="46.03485" lon="6.79672">
        <ele>1868.2</ele>
        <time>2000-01-02T08:54:23.000Z</time>
      </trkpt>
      <trkpt lat="46.03488" lon="6.79675">
        <ele>1867.8</ele>
        <time>2000-01-02T08:54:33.000Z</time>
      </trkpt>
      <trkpt lat="46.0349" lon="6.79675">
        <ele>1866.9</ele>
        <time>2000-01-02T08:54:43.000Z</time>
      </trkpt>
      <trkpt lat="46.0349" lon="6.79675">
        <ele>1866.9</ele>
        <time>2000-01-02T08:54:53.000Z</time>
      </trkpt>
      <trkpt lat="46.0349" lon="6.79675">
        <ele>1866.9</ele>
        <time>2000-01-02T08:55:03.000Z</time>
      </trkpt>
      <trkpt lat="46.03492" lon="6.79675">
        <ele>1866</ele>
        <time>2000-01-02T08:55:13.000Z</time>
      </trkpt>
      <trkpt lat="46.03494" lon="6.79676">
        <ele>1865.4</ele>
        <time>2000-01-02T08:55:23.000Z</time>
      </trkpt>
      <trkpt lat="46.03495" lon="6.79681">
        <ele>1866.5</ele>
        <time>2000-01-02T08:55:33.000Z</time>
      </trkpt>
      <trkpt lat="46.03497" lon="6.79685">
        <ele>1866.7</ele>
        <time>2000-01-02T08:55:43.000Z</time>
      </trkpt>
      <trkpt lat="46.03499" lon="6.79692">
        <ele>1872</ele>
        <time>2000-01-02T08:55:53.000Z</time>
      </trkpt>
      <trkpt lat="46.03501" lon="6.79695">
        <ele>1867.6</ele>
        <time>2000-01-02T08:56:03.000Z</time>
      </trkpt>
      <trkpt lat="46.03504" lon="6.797">
        <ele>1867.9</ele>
        <time>2000-01-02T08:56:13.000Z</time>
      </trkpt>
      <trkpt lat="46.03507" lon="6.79706">
        <ele>1868.5</ele>
        <time>2000-01-02T08:56:23.000Z</time>
      </trkpt>
      <trkpt lat="46.0351" lon="6.79715">
        <ele>1873</ele>
        <time>2000-01-02T08:56:33.000Z</time>
      </trkpt>
      <trkpt lat="46.0351" lon="6.79718">
        <ele>1871.4</ele>
        <time>2000-01-02T08:56:43.000Z</time>
      </trkpt>
      <trkpt lat="46.0351" lon="6.79719">
        <ele>1871.9</ele>
        <time>2000-01-02T08:56:53.000Z</time>
      </trkpt>
      <trkpt lat="46.03509" lon="6.79719">
        <ele>1872.5</ele>
        <time>2000-01-02T08:57:03.000Z</time>
      </trkpt>
      <trkpt lat="46.03508" lon="6.79721">
        <ele>1874</ele>
        <time>2000-01-02T08:57:13.000Z</time>
      </trkpt>
      <trkpt lat="46.03509" lon="6.79724">
        <ele>1874.4</ele>
        <time>2000-01-02T08:57:23.000Z</time>
      </trkpt>
      <trkpt lat="46.03513" lon="6.79732">
        <ele>1873.8</ele>
        <time>2000-01-02T08:57:33.000Z</time>
      </trkpt>
      <trkpt lat="46.03514" lon="6.79735">
        <ele>1873.9</ele>
        <time>2000-01-02T08:57:43.000Z</time>
      </trkpt>
      <trkpt lat="46.03515" lon="6.79737">
        <ele>1873.6</ele>
        <time>2000-01-02T08:57:53.000Z</time>
      </trkpt>
      <trkpt lat="46.03513" lon="6.79736">
        <ele>1877</ele>
        <time>2000-01-02T08:58:03.000Z</time>
      </trkpt>
      <trkpt lat="46.0351" lon="6.79733">
        <ele>1876.5</ele>
        <time>2000-01-02T08:58:13.000Z</time>
      </trkpt>
      <trkpt lat="46.03506" lon="6.7973">
        <ele>1878.6</ele>
        <time>2000-01-02T08:58:23.000Z</time>
      </trkpt>
      <trkpt lat="46.03502" lon="6.79727">
        <ele>1880.4</ele>
        <time>2000-01-02T08:58:33.000Z</time>
      </trkpt>
      <trkpt lat="46.035" lon="6.79724">
        <ele>1880.7</ele>
        <time>2000-01-02T08:58:43.000Z</time>
      </trkpt>
      <trkpt lat="46.03497" lon="6.79721">
        <ele>1883</ele>
        <time>2000-01-02T08:58:53.000Z</time>
      </trkpt>
      <trkpt lat="46.03493" lon="6.79719">
        <ele>1880.6</ele>
        <time>2000-01-02T08:59:03.000Z</time>
      </trkpt>
      <trkpt lat="46.03489" lon="6.79719">
        <ele>1881.7</ele>
        <time>2000-01-02T08:59:13.000Z</time>
      </trkpt>
      <trkpt lat="46.03487" lon="6.79719">
        <ele>1882.3</ele>
        <time>2000-01-02T08:59:23.000Z</time>
      </trkpt>
      <trkpt lat="46.03485" lon="6.79719">
        <ele>1882.8</ele>
        <time>2000-01-02T08:59:33.000Z</time>
      </trkpt>
      <trkpt lat="46.03484" lon="6.79717">
        <ele>1882.5</ele>
        <time>2000-01-02T08:59:43.000Z</time>
      </trkpt>
      <trkpt lat="46.03483" lon="6.79714">
        <ele>1882</ele>
        <time>2000-01-02T08:59:53.000Z</time>
      </trkpt>
      <trkpt lat="46.03483" lon="6.79713">
        <ele>1881.7</ele>
        <time>2000-01-02T09:00:03.000Z</time>
      </trkpt>
      <trkpt lat="46.03482" lon="6.79711">
        <ele>1881.5</ele>
        <time>2000-01-02T09:00:13.000Z</time>
      </trkpt>
      <trkpt lat="46.03479" lon="6.79707">
        <ele>1883</ele>
        <time>2000-01-02T09:00:23.000Z</time>
      </trkpt>
      <trkpt lat="46.03476" lon="6.79703">
        <ele>1881.9</ele>
        <time>2000-01-02T09:00:33.000Z</time>
      </trkpt>
      <trkpt lat="46.03475" lon="6.797">
        <ele>1881.7</ele>
        <time>2000-01-02T09:00:43.000Z</time>
      </trkpt>
      <trkpt lat="46.03473" lon="6.79697">
        <ele>1882.1</ele>
        <time>2000-01-02T09:00:53.000Z</time>
      </trkpt>
      <trkpt lat="46.03471" lon="6.79696">
        <ele>1882.5</ele>
        <time>2000-01-02T09:01:03.000Z</time>
      </trkpt>
      <trkpt lat="46.03468" lon="6.79696">
        <ele>1883.2</ele>
        <time>2000-01-02T09:01:13.000Z</time>
      </trkpt>
      <trkpt lat="46.03465" lon="6.79698">
        <ele>1884.1</ele>
        <time>2000-01-02T09:01:23.000Z</time>
      </trkpt>
      <trkpt lat="46.03462" lon="6.797">
        <ele>1887</ele>
        <time>2000-01-02T09:01:33.000Z</time>
      </trkpt>
      <trkpt lat="46.03461" lon="6.79704">
        <ele>1885.7</ele>
        <time>2000-01-02T09:01:43.000Z</time>
      </trkpt>
      <trkpt lat="46.03463" lon="6.79706">
        <ele>1885.7</ele>
        <time>2000-01-02T09:01:53.000Z</time>
      </trkpt>
      <trkpt lat="46.03464" lon="6.79711">
        <ele>1886.2</ele>
        <time>2000-01-02T09:02:03.000Z</time>
      </trkpt>
      <trkpt lat="46.03465" lon="6.79715">
        <ele>1886.7</ele>
        <time>2000-01-02T09:02:13.000Z</time>
      </trkpt>
      <trkpt lat="46.03465" lon="6.79719">
        <ele>1887.3</ele>
        <time>2000-01-02T09:02:23.000Z</time>
      </trkpt>
      <trkpt lat="46.03465" lon="6.79723">
        <ele>1888</ele>
        <time>2000-01-02T09:02:33.000Z</time>
      </trkpt>
      <trkpt lat="46.03467" lon="6.79728">
        <ele>1888</ele>
        <time>2000-01-02T09:02:43.000Z</time>
      </trkpt>
      <trkpt lat="46.03469" lon="6.79731">
        <ele>1889.5</ele>
        <time>2000-01-02T09:02:53.000Z</time>
      </trkpt>
      <trkpt lat="46.03472" lon="6.79733">
        <ele>1889.7</ele>
        <time>2000-01-02T09:03:03.000Z</time>
      </trkpt>
      <trkpt lat="46.03476" lon="6.79735">
        <ele>1889.5</ele>
        <time>2000-01-02T09:03:13.000Z</time>
      </trkpt>
      <trkpt lat="46.0348" lon="6.79735">
        <ele>1888.8</ele>
        <time>2000-01-02T09:03:23.000Z</time>
      </trkpt>
      <trkpt lat="46.03482" lon="6.79737">
        <ele>1889</ele>
        <time>2000-01-02T09:03:33.000Z</time>
      </trkpt>
      <trkpt lat="46.03486" lon="6.79739">
        <ele>1888</ele>
        <time>2000-01-02T09:03:43.000Z</time>
      </trkpt>
      <trkpt lat="46.03491" lon="6.79741">
        <ele>1888.8</ele>
        <time>2000-01-02T09:03:53.000Z</time>
      </trkpt>
      <trkpt lat="46.03494" lon="6.79742">
        <ele>1888.7</ele>
        <time>2000-01-02T09:04:03.000Z</time>
      </trkpt>
      <trkpt lat="46.03496" lon="6.79743">
        <ele>1888.8</ele>
        <time>2000-01-02T09:04:13.000Z</time>
      </trkpt>
      <trkpt lat="46.03496" lon="6.79745">
        <ele>1889.6</ele>
        <time>2000-01-02T09:04:23.000Z</time>
      </trkpt>
      <trkpt lat="46.03497" lon="6.79748">
        <ele>1890.6</ele>
        <time>2000-01-02T09:04:33.000Z</time>
      </trkpt>
      <trkpt lat="46.03497" lon="6.79748">
        <ele>1890.6</ele>
        <time>2000-01-02T09:04:43.000Z</time>
      </trkpt>
      <trkpt lat="46.03495" lon="6.79748">
        <ele>1890.8</ele>
        <time>2000-01-02T09:04:53.000Z</time>
      </trkpt>
      <trkpt lat="46.03493" lon="6.79748">
        <ele>1891</ele>
        <time>2000-01-02T09:05:03.000Z</time>
      </trkpt>
      <trkpt lat="46.03492" lon="6.79751">
        <ele>1895</ele>
        <time>2000-01-02T09:05:13.000Z</time>
      </trkpt>
      <trkpt lat="46.03489" lon="6.79758">
        <ele>1894.3</ele>
        <time>2000-01-02T09:05:23.000Z</time>
      </trkpt>
      <trkpt lat="46.03488" lon="6.79761">
        <ele>1895.2</ele>
        <time>2000-01-02T09:05:33.000Z</time>
      </trkpt>
      <trkpt lat="46.03489" lon="6.79764">
        <ele>1895.8</ele>
        <time>2000-01-02T09:05:43.000Z</time>
      </trkpt>
      <trkpt lat="46.03489" lon="6.79767">
        <ele>1896.6</ele>
        <time>2000-01-02T09:05:53.000Z</time>
      </trkpt>
      <trkpt lat="46.03488" lon="6.7977">
        <ele>1897.5</ele>
        <time>2000-01-02T09:06:03.000Z</time>
      </trkpt>
      <trkpt lat="46.03487" lon="6.79773">
        <ele>1898.5</ele>
        <time>2000-01-02T09:06:13.000Z</time>
      </trkpt>
      <trkpt lat="46.03483" lon="6.79775">
        <ele>1898</ele>
        <time>2000-01-02T09:06:23.000Z</time>
      </trkpt>
      <trkpt lat="46.03475" lon="6.79777">
        <ele>1902.2</ele>
        <time>2000-01-02T09:06:33.000Z</time>
      </trkpt>
      <trkpt lat="46.03464" lon="6.79779">
        <ele>1899</ele>
        <time>2000-01-02T09:06:43.000Z</time>
      </trkpt>
      <trkpt lat="46.03448" lon="6.79781">
        <ele>1906.1</ele>
        <time>2000-01-02T09:06:53.000Z</time>
      </trkpt>
      <trkpt lat="46.03444" lon="6.79781">
        <ele>1907</ele>
        <time>2000-01-02T09:07:03.000Z</time>
      </trkpt>
      <trkpt lat="46.03443" lon="6.79779">
        <ele>1905.9</ele>
        <time>2000-01-02T09:07:13.000Z</time>
      </trkpt>
      <trkpt lat="46.03442" lon="6.79778">
        <ele>1905.8</ele>
        <time>2000-01-02T09:07:23.000Z</time>
      </trkpt>
      <trkpt lat="46.03441" lon="6.79778">
        <ele>1906.1</ele>
        <time>2000-01-02T09:07:33.000Z</time>
      </trkpt>
      <trkpt lat="46.03438" lon="6.79779">
        <ele>1907.4</ele>
        <time>2000-01-02T09:07:43.000Z</time>
      </trkpt>
      <trkpt lat="46.03435" lon="6.79779">
        <ele>1908.2</ele>
        <time>2000-01-02T09:07:53.000Z</time>
      </trkpt>
      <trkpt lat="46.0343" lon="6.79778">
        <ele>1909.2</ele>
        <time>2000-01-02T09:08:03.000Z</time>
      </trkpt>
      <trkpt lat="46.03427" lon="6.79776">
        <ele>1909.5</ele>
        <time>2000-01-02T09:08:13.000Z</time>
      </trkpt>
      <trkpt lat="46.03424" lon="6.79774">
        <ele>1909</ele>
        <time>2000-01-02T09:08:23.000Z</time>
      </trkpt>
      <trkpt lat="46.03423" lon="6.79773">
        <ele>1909.8</ele>
        <time>2000-01-02T09:08:33.000Z</time>
      </trkpt>
      <trkpt lat="46.0342" lon="6.79773">
        <ele>1910.6</ele>
        <time>2000-01-02T09:08:43.000Z</time>
      </trkpt>
      <trkpt lat="46.03415" lon="6.79771">
        <ele>1911.6</ele>
        <time>2000-01-02T09:08:53.000Z</time>
      </trkpt>
      <trkpt lat="46.03407" lon="6.79767">
        <ele>1913.2</ele>
        <time>2000-01-02T09:09:03.000Z</time>
      </trkpt>
      <trkpt lat="46.03401" lon="6.79761">
        <ele>1915</ele>
        <time>2000-01-02T09:09:13.000Z</time>
      </trkpt>
      <trkpt lat="46.03396" lon="6.79758">
        <ele>1914.2</ele>
        <time>2000-01-02T09:09:23.000Z</time>
      </trkpt>
      <trkpt lat="46.03392" lon="6.79757">
        <ele>1915.2</ele>
        <time>2000-01-02T09:09:33.000Z</time>
      </trkpt>
      <trkpt lat="46.03389" lon="6.79757">
        <ele>1916.2</ele>
        <time>2000-01-02T09:09:43.000Z</time>
      </trkpt>
      <trkpt lat="46.03381" lon="6.79759">
        <ele>1915</ele>
        <time>2000-01-02T09:09:53.000Z</time>
      </trkpt>
      <trkpt lat="46.03378" lon="6.79761">
        <ele>1919.3</ele>
        <time>2000-01-02T09:10:03.000Z</time>
      </trkpt>
      <trkpt lat="46.03375" lon="6.79763">
        <ele>1920.4</ele>
        <time>2000-01-02T09:10:13.000Z</time>
      </trkpt>
      <trkpt lat="46.03371" lon="6.79766">
        <ele>1922.1</ele>
        <time>2000-01-02T09:10:23.000Z</time>
      </trkpt>
      <trkpt lat="46.03369" lon="6.79767">
        <ele>1922.8</ele>
        <time>2000-01-02T09:10:33.000Z</time>
      </trkpt>
      <trkpt lat="46.03365" lon="6.79767">
        <ele>1923.5</ele>
        <time>2000-01-02T09:10:43.000Z</time>
      </trkpt>
      <trkpt lat="46.03361" lon="6.79765">
        <ele>1921</ele>
        <time>2000-01-02T09:10:53.000Z</time>
      </trkpt>
      <trkpt lat="46.03356" lon="6.79761">
        <ele>1923.4</ele>
        <time>2000-01-02T09:11:03.000Z</time>
      </trkpt>
      <trkpt lat="46.03349" lon="6.79756">
        <ele>1923.6</ele>
        <time>2000-01-02T09:11:13.000Z</time>
      </trkpt>
      <trkpt lat="46.03345" lon="6.79754">
        <ele>1924.1</ele>
        <time>2000-01-02T09:11:23.000Z</time>
      </trkpt>
      <trkpt lat="46.03342" lon="6.79753">
        <ele>1922</ele>
        <time>2000-01-02T09:11:33.000Z</time>
      </trkpt>
      <trkpt lat="46.0334" lon="6.79754">
        <ele>1925.5</ele>
        <time>2000-01-02T09:11:43.000Z</time>
      </trkpt>
      <trkpt lat="46.0334" lon="6.79755">
        <ele>1925.9</ele>
        <time>2000-01-02T09:11:53.000Z</time>
      </trkpt>
      <trkpt lat="46.0334" lon="6.79757">
        <ele>1926.6</ele>
        <time>2000-01-02T09:12:03.000Z</time>
      </trkpt>
      <trkpt lat="46.03342" lon="6.79756">
        <ele>1925.7</ele>
        <time>2000-01-02T09:12:13.000Z</time>
      </trkpt>
      <trkpt lat="46.03344" lon="6.79757">
        <ele>1925.4</ele>
        <time>2000-01-02T09:12:23.000Z</time>
      </trkpt>
      <trkpt lat="46.03346" lon="6.79758">
        <ele>1925.2</ele>
        <time>2000-01-02T09:12:33.000Z</time>
      </trkpt>
      <trkpt lat="46.0335" lon="6.79763">
        <ele>1925.9</ele>
        <time>2000-01-02T09:12:43.000Z</time>
      </trkpt>
      <trkpt lat="46.03354" lon="6.79767">
        <ele>1923</ele>
        <time>2000-01-02T09:12:53.000Z</time>
      </trkpt>
      <trkpt lat="46.03356" lon="6.79772">
        <ele>1927.4</ele>
        <time>2000-01-02T09:13:03.000Z</time>
      </trkpt>
      <trkpt lat="46.03357" lon="6.79774">
        <ele>1927.8</ele>
        <time>2000-01-02T09:13:13.000Z</time>
      </trkpt>
      <trkpt lat="46.03357" lon="6.79776">
        <ele>1928.5</ele>
        <time>2000-01-02T09:13:23.000Z</time>
      </trkpt>
      <trkpt lat="46.03356" lon="6.79777">
        <ele>1929.2</ele>
        <time>2000-01-02T09:13:33.000Z</time>
      </trkpt>
      <trkpt lat="46.03355" lon="6.79775">
        <ele>1928.8</ele>
        <time>2000-01-02T09:13:43.000Z</time>
      </trkpt>
      <trkpt lat="46.03352" lon="6.79772">
        <ele>1928.5</ele>
        <time>2000-01-02T09:13:53.000Z</time>
      </trkpt>
      <trkpt lat="46.03349" lon="6.79772">
        <ele>1929.4</ele>
        <time>2000-01-02T09:14:03.000Z</time>
      </trkpt>
      <trkpt lat="46.03343" lon="6.7977">
        <ele>1930</ele>
        <time>2000-01-02T09:14:13.000Z</time>
      </trkpt>
      <trkpt lat="46.03335" lon="6.79769">
        <ele>1932.4</ele>
        <time>2000-01-02T09:14:23.000Z</time>
      </trkpt>
      <trkpt lat="46.03333" lon="6.79769">
        <ele>1933</ele>
        <time>2000-01-02T09:14:33.000Z</time>
      </trkpt>
      <trkpt lat="46.03329" lon="6.79767">
        <ele>1933.6</ele>
        <time>2000-01-02T09:14:43.000Z</time>
      </trkpt>
      <trkpt lat="46.03325" lon="6.79766">
        <ele>1934.6</ele>
        <time>2000-01-02T09:14:53.000Z</time>
      </trkpt>
      <trkpt lat="46.03321" lon="6.79765">
        <ele>1933</ele>
        <time>2000-01-02T09:15:03.000Z</time>
      </trkpt>
      <trkpt lat="46.03318" lon="6.79764">
        <ele>1936.3</ele>
        <time>2000-01-02T09:15:13.000Z</time>
      </trkpt>
      <trkpt lat="46.03315" lon="6.79761">
        <ele>1936.2</ele>
        <time>2000-01-02T09:15:23.000Z</time>
      </trkpt>
      <trkpt lat="46.03311" lon="6.79758">
        <ele>1936.3</ele>
        <time>2000-01-02T09:15:33.000Z</time>
      </trkpt>
      <trkpt lat="46.03308" lon="6.79758">
        <ele>1937.4</ele>
        <time>2000-01-02T09:15:43.000Z</time>
      </trkpt>
      <trkpt lat="46.03306" lon="6.79758">
        <ele>1938</ele>
        <time>2000-01-02T09:15:53.000Z</time>
      </trkpt>
      <trkpt lat="46.03305" lon="6.79757">
        <ele>1937.9</ele>
        <time>2000-01-02T09:16:03.000Z</time>
      </trkpt>
      <trkpt lat="46.03303" lon="6.79757">
        <ele>1935</ele>
        <time>2000-01-02T09:16:13.000Z</time>
      </trkpt>
      <trkpt lat="46.03299" lon="6.79759">
        <ele>1940.1</ele>
        <time>2000-01-02T09:16:23.000Z</time>
      </trkpt>
      <trkpt lat="46.03295" lon="6.7976">
        <ele>1941.3</ele>
        <time>2000-01-02T09:16:33.000Z</time>
      </trkpt>
      <trkpt lat="46.03293" lon="6.79761">
        <ele>1942.2</ele>
        <time>2000-01-02T09:16:43.000Z</time>
      </trkpt>
      <trkpt lat="46.0329" lon="6.79761">
        <ele>1942.8</ele>
        <time>2000-01-02T09:16:53.000Z</time>
      </trkpt>
      <trkpt lat="46.03285" lon="6.79762">
        <ele>1944.3</ele>
        <time>2000-01-02T09:17:03.000Z</time>
      </trkpt>
      <trkpt lat="46.03282" lon="6.79762">
        <ele>1943</ele>
        <time>2000-01-02T09:17:13.000Z</time>
      </trkpt>
      <trkpt lat="46.0328" lon="6.79761">
        <ele>1945.1</ele>
        <time>2000-01-02T09:17:23.000Z</time>
      </trkpt>
      <trkpt lat="46.03279" lon="6.79759">
        <ele>1944.6</ele>
        <time>2000-01-02T09:17:33.000Z</time>
      </trkpt>
      <trkpt lat="46.03278" lon="6.79754">
        <ele>1943.2</ele>
        <time>2000-01-02T09:17:43.000Z</time>
      </trkpt>
      <trkpt lat="46.03276" lon="6.7975">
        <ele>1942.8</ele>
        <time>2000-01-02T09:17:53.000Z</time>
      </trkpt>
      <trkpt lat="46.03271" lon="6.79748">
        <ele>1944.7</ele>
        <time>2000-01-02T09:18:03.000Z</time>
      </trkpt>
      <trkpt lat="46.03269" lon="6.79746">
        <ele>1945.1</ele>
        <time>2000-01-02T09:18:13.000Z</time>
      </trkpt>
      <trkpt lat="46.03265" lon="6.79745">
        <ele>1944</ele>
        <time>2000-01-02T09:18:23.000Z</time>
      </trkpt>
      <trkpt lat="46.03262" lon="6.79744">
        <ele>1947.4</ele>
        <time>2000-01-02T09:18:33.000Z</time>
      </trkpt>
      <trkpt lat="46.03262" lon="6.79742">
        <ele>1946.8</ele>
        <time>2000-01-02T09:18:43.000Z</time>
      </trkpt>
      <trkpt lat="46.03262" lon="6.79739">
        <ele>1945.8</ele>
        <time>2000-01-02T09:18:53.000Z</time>
      </trkpt>
      <trkpt lat="46.03261" lon="6.79738">
        <ele>1945.8</ele>
        <time>2000-01-02T09:19:03.000Z</time>
      </trkpt>
      <trkpt lat="46.03258" lon="6.79737">
        <ele>1946.4</ele>
        <time>2000-01-02T09:19:13.000Z</time>
      </trkpt>
      <trkpt lat="46.03255" lon="6.79736">
        <ele>1946.9</ele>
        <time>2000-01-02T09:19:23.000Z</time>
      </trkpt>
      <trkpt lat="46.03251" lon="6.79733">
        <ele>1946.8</ele>
        <time>2000-01-02T09:19:33.000Z</time>
      </trkpt>
      <trkpt lat="46.03247" lon="6.79731">
        <ele>1945</ele>
        <time>2000-01-02T09:19:43.000Z</time>
      </trkpt>
      <trkpt lat="46.03243" lon="6.7973">
        <ele>1946.5</ele>
        <time>2000-01-02T09:19:53.000Z</time>
      </trkpt>
      <trkpt lat="46.03236" lon="6.7973">
        <ele>1947.3</ele>
        <time>2000-01-02T09:20:03.000Z</time>
      </trkpt>
      <trkpt lat="46.03231" lon="6.7973">
        <ele>1947.9</ele>
        <time>2000-01-02T09:20:13.000Z</time>
      </trkpt>
      <trkpt lat="46.03226" lon="6.79729">
        <ele>1946</ele>
        <time>2000-01-02T09:20:23.000Z</time>
      </trkpt>
      <trkpt lat="46.03223" lon="6.79727">
        <ele>1948.1</ele>
        <time>2000-01-02T09:20:33.000Z</time>
      </trkpt>
      <trkpt lat="46.03221" lon="6.79728">
        <ele>1948</ele>
        <time>2000-01-02T09:20:43.000Z</time>
      </trkpt>
      <trkpt lat="46.03219" lon="6.79729">
        <ele>1947.6</ele>
        <time>2000-01-02T09:20:53.000Z</time>
      </trkpt>
      <trkpt lat="46.03218" lon="6.79732">
        <ele>1947.9</ele>
        <time>2000-01-02T09:21:03.000Z</time>
      </trkpt>
      <trkpt lat="46.03215" lon="6.79737">
        <ele>1948</ele>
        <time>2000-01-02T09:21:13.000Z</time>
      </trkpt>
      <trkpt lat="46.03215" lon="6.7974">
        <ele>1948.6</ele>
        <time>2000-01-02T09:21:23.000Z</time>
      </trkpt>
      <trkpt lat="46.03215" lon="6.79745">
        <ele>1948</ele>
        <time>2000-01-02T09:21:33.000Z</time>
      </trkpt>
      <trkpt lat="46.0322" lon="6.79756">
        <ele>1952.8</ele>
        <time>2000-01-02T09:21:43.000Z</time>
      </trkpt>
      <trkpt lat="46.03222" lon="6.79762">
        <ele>1953.5</ele>
        <time>2000-01-02T09:21:53.000Z</time>
      </trkpt>
      <trkpt lat="46.03223" lon="6.79769">
        <ele>1953.5</ele>
        <time>2000-01-02T09:22:03.000Z</time>
      </trkpt>
      <trkpt lat="46.03224" lon="6.79777">
        <ele>1949</ele>
        <time>2000-01-02T09:22:13.000Z</time>
      </trkpt>
      <trkpt lat="46.03224" lon="6.79782">
        <ele>1953.1</ele>
        <time>2000-01-02T09:22:23.000Z</time>
      </trkpt>
      <trkpt lat="46.03225" lon="6.79786">
        <ele>1952.9</ele>
        <time>2000-01-02T09:22:33.000Z</time>
      </trkpt>
      <trkpt lat="46.03226" lon="6.7979">
        <ele>1952.8</ele>
        <time>2000-01-02T09:22:43.000Z</time>
      </trkpt>
      <trkpt lat="46.03227" lon="6.79796">
        <ele>1952.5</ele>
        <time>2000-01-02T09:22:53.000Z</time>
      </trkpt>
      <trkpt lat="46.03227" lon="6.79798">
        <ele>1952.3</ele>
        <time>2000-01-02T09:23:03.000Z</time>
      </trkpt>
      <trkpt lat="46.03226" lon="6.79799">
        <ele>1951.9</ele>
        <time>2000-01-02T09:23:13.000Z</time>
      </trkpt>
      <trkpt lat="46.03224" lon="6.798">
        <ele>1946</ele>
        <time>2000-01-02T09:23:23.000Z</time>
      </trkpt>
      <trkpt lat="46.03223" lon="6.79803">
        <ele>1950.5</ele>
        <time>2000-01-02T09:23:33.000Z</time>
      </trkpt>
      <trkpt lat="46.03223" lon="6.79807">
        <ele>1950.2</ele>
        <time>2000-01-02T09:23:43.000Z</time>
      </trkpt>
      <trkpt lat="46.03222" lon="6.79811">
        <ele>1949.7</ele>
        <time>2000-01-02T09:23:53.000Z</time>
      </trkpt>
      <trkpt lat="46.03223" lon="6.79813">
        <ele>1950</ele>
        <time>2000-01-02T09:24:03.000Z</time>
      </trkpt>
      <trkpt lat="46.03223" lon="6.79816">
        <ele>1949.8</ele>
        <time>2000-01-02T09:24:13.000Z</time>
      </trkpt>
      <trkpt lat="46.03223" lon="6.79818">
        <ele>1949.8</ele>
        <time>2000-01-02T09:24:23.000Z</time>
      </trkpt>
      <trkpt lat="46.03221" lon="6.7982">
        <ele>1949</ele>
        <time>2000-01-02T09:24:33.000Z</time>
      </trkpt>
      <trkpt lat="46.03219" lon="6.7982">
        <ele>1948.2</ele>
        <time>2000-01-02T09:24:43.000Z</time>
      </trkpt>
      <trkpt lat="46.03216" lon="6.79818">
        <ele>1944</ele>
        <time>2000-01-02T09:24:53.000Z</time>
      </trkpt>
      <trkpt lat="46.03214" lon="6.79811">
        <ele>1946.4</ele>
        <time>2000-01-02T09:25:03.000Z</time>
      </trkpt>
      <trkpt lat="46.0321" lon="6.79803">
        <ele>1945</ele>
        <time>2000-01-02T09:25:13.000Z</time>
      </trkpt>
      <trkpt lat="46.03207" lon="6.79802">
        <ele>1943.7</ele>
        <time>2000-01-02T09:25:23.000Z</time>
      </trkpt>
      <trkpt lat="46.03204" lon="6.79803">
        <ele>1942.3</ele>
        <time>2000-01-02T09:25:33.000Z</time>
      </trkpt>
      <trkpt lat="46.03203" lon="6.79807">
        <ele>1941</ele>
        <time>2000-01-02T09:25:43.000Z</time>
      </trkpt>
      <trkpt lat="46.03202" lon="6.79815">
        <ele>1941.4</ele>
        <time>2000-01-02T09:25:53.000Z</time>
      </trkpt>
      <trkpt lat="46.03201" lon="6.7982">
        <ele>1941.1</ele>
        <time>2000-01-02T09:26:03.000Z</time>
      </trkpt>
      <trkpt lat="46.03199" lon="6.79821">
        <ele>1940.3</ele>
        <time>2000-01-02T09:26:13.000Z</time>
      </trkpt>
      <trkpt lat="46.03198" lon="6.79819">
        <ele>1939.9</ele>
        <time>2000-01-02T09:26:23.000Z</time>
      </trkpt>
      <trkpt lat="46.03195" lon="6.79813">
        <ele>1938.5</ele>
        <time>2000-01-02T09:26:33.000Z</time>
      </trkpt>
      <trkpt lat="46.03191" lon="6.79804">
        <ele>1937</ele>
        <time>2000-01-02T09:26:43.000Z</time>
      </trkpt>
      <trkpt lat="46.03188" lon="6.79797">
        <ele>1935.9</ele>
        <time>2000-01-02T09:26:53.000Z</time>
      </trkpt>
      <trkpt lat="46.03184" lon="6.79791">
        <ele>1934.7</ele>
        <time>2000-01-02T09:27:03.000Z</time>
      </trkpt>
      <trkpt lat="46.03177" lon="6.79787">
        <ele>1930</ele>
        <time>2000-01-02T09:27:13.000Z</time>
      </trkpt>
      <trkpt lat="46.0317" lon="6.79785">
        <ele>1929.6</ele>
        <time>2000-01-02T09:27:23.000Z</time>
      </trkpt>
      <trkpt lat="46.03166" lon="6.79783">
        <ele>1928.1</ele>
        <time>2000-01-02T09:27:33.000Z</time>
      </trkpt>
      <trkpt lat="46.0316" lon="6.79776">
        <ele>1925.9</ele>
        <time>2000-01-02T09:27:43.000Z</time>
      </trkpt>
      <trkpt lat="46.03155" lon="6.79769">
        <ele>1923</ele>
        <time>2000-01-02T09:27:53.000Z</time>
      </trkpt>
      <trkpt lat="46.03152" lon="6.79765">
        <ele>1923.1</ele>
        <time>2000-01-02T09:28:03.000Z</time>
      </trkpt>
      <trkpt lat="46.03148" lon="6.79754">
        <ele>1922.6</ele>
        <time>2000-01-02T09:28:13.000Z</time>
      </trkpt>
      <trkpt lat="46.03145" lon="6.79747">
        <ele>1921.7</ele>
        <time>2000-01-02T09:28:23.000Z</time>
      </trkpt>
      <trkpt lat="46.03141" lon="6.79744">
        <ele>1920</ele>
        <time>2000-01-02T09:28:33.000Z</time>
      </trkpt>
      <trkpt lat="46.03137" lon="6.79741">
        <ele>1918.1</ele>
        <time>2000-01-02T09:28:43.000Z</time>
      </trkpt>
      <trkpt lat="46.03134" lon="6.79738">
        <ele>1916.4</ele>
        <time>2000-01-02T09:28:53.000Z</time>
      </trkpt>
      <trkpt lat="46.03129" lon="6.79731">
        <ele>1913.6</ele>
        <time>2000-01-02T09:29:03.000Z</time>
      </trkpt>
      <trkpt lat="46.03128" lon="6.7972">
        <ele>1909</ele>
        <time>2000-01-02T09:29:13.000Z</time>
      </trkpt>
      <trkpt lat="46.03127" lon="6.79715">
        <ele>1911.4</ele>
        <time>2000-01-02T09:29:23.000Z</time>
      </trkpt>
      <trkpt lat="46.03125" lon="6.79711">
        <ele>1910.3</ele>
        <time>2000-01-02T09:29:33.000Z</time>
      </trkpt>
      <trkpt lat="46.03122" lon="6.7971">
        <ele>1909.2</ele>
        <time>2000-01-02T09:29:43.000Z</time>
      </trkpt>
      <trkpt lat="46.03119" lon="6.79712">
        <ele>1908.3</ele>
        <time>2000-01-02T09:29:53.000Z</time>
      </trkpt>
      <trkpt lat="46.03118" lon="6.79716">
        <ele>1908.3</ele>
        <time>2000-01-02T09:30:03.000Z</time>
      </trkpt>
      <trkpt lat="46.03117" lon="6.79728">
        <ele>1909</ele>
        <time>2000-01-02T09:30:13.000Z</time>
      </trkpt>
      <trkpt lat="46.0312" lon="6.79755">
        <ele>1909</ele>
        <time>2000-01-02T09:30:23.000Z</time>
      </trkpt>
      <trkpt lat="46.03122" lon="6.79773">
        <ele>1906.1</ele>
        <time>2000-01-02T09:30:33.000Z</time>
      </trkpt>
      <trkpt lat="46.03127" lon="6.79797">
        <ele>1905</ele>
        <time>2000-01-02T09:30:43.000Z</time>
      </trkpt>
      <trkpt lat="46.03131" lon="6.79819">
        <ele>1902.9</ele>
        <time>2000-01-02T09:30:53.000Z</time>
      </trkpt>
      <trkpt lat="46.03133" lon="6.7983">
        <ele>1901</ele>
        <time>2000-01-02T09:31:03.000Z</time>
      </trkpt>
      <trkpt lat="46.03133" lon="6.79837">
        <ele>1902.8</ele>
        <time>2000-01-02T09:31:13.000Z</time>
      </trkpt>
      <trkpt lat="46.03131" lon="6.79842">
        <ele>1902.5</ele>
        <time>2000-01-02T09:31:23.000Z</time>
      </trkpt>
      <trkpt lat="46.03128" lon="6.79842">
        <ele>1901.5</ele>
        <time>2000-01-02T09:31:33.000Z</time>
      </trkpt>
      <trkpt lat="46.03124" lon="6.7984">
        <ele>1899.7</ele>
        <time>2000-01-02T09:31:43.000Z</time>
      </trkpt>
      <trkpt lat="46.03118" lon="6.79829">
        <ele>1891</ele>
        <time>2000-01-02T09:31:53.000Z</time>
      </trkpt>
      <trkpt lat="46.03111" lon="6.79816">
        <ele>1892.3</ele>
        <time>2000-01-02T09:32:03.000Z</time>
      </trkpt>
      <trkpt lat="46.03106" lon="6.79809">
        <ele>1888</ele>
        <time>2000-01-02T09:32:13.000Z</time>
      </trkpt>
      <trkpt lat="46.031" lon="6.79805">
        <ele>1887.3</ele>
        <time>2000-01-02T09:32:23.000Z</time>
      </trkpt>
      <trkpt lat="46.03095" lon="6.79798">
        <ele>1885.9</ele>
        <time>2000-01-02T09:32:33.000Z</time>
      </trkpt>
      <trkpt lat="46.03086" lon="6.79784">
        <ele>1879</ele>
        <time>2000-01-02T09:32:43.000Z</time>
      </trkpt>
      <trkpt lat="46.03077" lon="6.79772">
        <ele>1878.2</ele>
        <time>2000-01-02T09:32:53.000Z</time>
      </trkpt>
      <trkpt lat="46.03072" lon="6.79764">
        <ele>1875</ele>
        <time>2000-01-02T09:33:03.000Z</time>
      </trkpt>
      <trkpt lat="46.03066" lon="6.79749">
        <ele>1873.2</ele>
        <time>2000-01-02T09:33:13.000Z</time>
      </trkpt>
      <trkpt lat="46.03062" lon="6.79739">
        <ele>1869</ele>
        <time>2000-01-02T09:33:23.000Z</time>
      </trkpt>
      <trkpt lat="46.03057" lon="6.79729">
        <ele>1868.5</ele>
        <time>2000-01-02T09:33:33.000Z</time>
      </trkpt>
      <trkpt lat="46.03055" lon="6.79726">
        <ele>1867.4</ele>
        <time>2000-01-02T09:33:43.000Z</time>
      </trkpt>
      <trkpt lat="46.03054" lon="6.79724">
        <ele>1866.9</ele>
        <time>2000-01-02T09:33:53.000Z</time>
      </trkpt>
      <trkpt lat="46.03053" lon="6.79718">
        <ele>1866.6</ele>
        <time>2000-01-02T09:34:03.000Z</time>
      </trkpt>
      <trkpt lat="46.03052" lon="6.79712">
        <ele>1865</ele>
        <time>2000-01-02T09:34:13.000Z</time>
      </trkpt>
      <trkpt lat="46.0305" lon="6.79706">
        <ele>1865.6</ele>
        <time>2000-01-02T09:34:23.000Z</time>
      </trkpt>
      <trkpt lat="46.03047" lon="6.79701">
        <ele>1864</ele>
        <time>2000-01-02T09:34:33.000Z</time>
      </trkpt>
      <trkpt lat="46.03044" lon="6.79699">
        <ele>1862.2</ele>
        <time>2000-01-02T09:34:43.000Z</time>
      </trkpt>
      <trkpt lat="46.03041" lon="6.79698">
        <ele>1860.3</ele>
        <time>2000-01-02T09:34:53.000Z</time>
      </trkpt>
      <trkpt lat="46.03037" lon="6.797">
        <ele>1852</ele>
        <time>2000-01-02T09:35:03.000Z</time>
      </trkpt>
      <trkpt lat="46.03035" lon="6.79702">
        <ele>1856.1</ele>
        <time>2000-01-02T09:35:13.000Z</time>
      </trkpt>
      <trkpt lat="46.03032" lon="6.79702">
        <ele>1854.2</ele>
        <time>2000-01-02T09:35:23.000Z</time>
      </trkpt>
      <trkpt lat="46.0303" lon="6.79702">
        <ele>1852.9</ele>
        <time>2000-01-02T09:35:33.000Z</time>
      </trkpt>
      <trkpt lat="46.03028" lon="6.79699">
        <ele>1851.8</ele>
        <time>2000-01-02T09:35:43.000Z</time>
      </trkpt>
      <trkpt lat="46.03025" lon="6.7969">
        <ele>1850.6</ele>
        <time>2000-01-02T09:35:53.000Z</time>
      </trkpt>
      <trkpt lat="46.03024" lon="6.79685">
        <ele>1848</ele>
        <time>2000-01-02T09:36:03.000Z</time>
      </trkpt>
      <trkpt lat="46.03023" lon="6.79681">
        <ele>1850.1</ele>
        <time>2000-01-02T09:36:13.000Z</time>
      </trkpt>
      <trkpt lat="46.03024" lon="6.79678">
        <ele>1851</ele>
        <time>2000-01-02T09:36:23.000Z</time>
      </trkpt>
      <trkpt lat="46.03023" lon="6.79673">
        <ele>1850.8</ele>
        <time>2000-01-02T09:36:33.000Z</time>
      </trkpt>
      <trkpt lat="46.03021" lon="6.79668">
        <ele>1850</ele>
        <time>2000-01-02T09:36:43.000Z</time>
      </trkpt>
      <trkpt lat="46.03015" lon="6.79652">
        <ele>1845</ele>
        <time>2000-01-02T09:36:53.000Z</time>
      </trkpt>
      <trkpt lat="46.03012" lon="6.79646">
        <ele>1846.7</ele>
        <time>2000-01-02T09:37:03.000Z</time>
      </trkpt>
      <trkpt lat="46.0301" lon="6.7964">
        <ele>1846</ele>
        <time>2000-01-02T09:37:13.000Z</time>
      </trkpt>
      <trkpt lat="46.03009" lon="6.79635">
        <ele>1845.8</ele>
        <time>2000-01-02T09:37:23.000Z</time>
      </trkpt>
      <trkpt lat="46.03007" lon="6.79633">
        <ele>1844.7</ele>
        <time>2000-01-02T09:37:33.000Z</time>
      </trkpt>
      <trkpt lat="46.03005" lon="6.79632">
        <ele>1843.6</ele>
        <time>2000-01-02T09:37:43.000Z</time>
      </trkpt>
      <trkpt lat="46.03002" lon="6.79633">
        <ele>1839</ele>
        <time>2000-01-02T09:37:53.000Z</time>
      </trkpt>
      <trkpt lat="46.03" lon="6.79636">
        <ele>1840.2</ele>
        <time>2000-01-02T09:38:03.000Z</time>
      </trkpt>
      <trkpt lat="46.02998" lon="6.79642">
        <ele>1838.6</ele>
        <time>2000-01-02T09:38:13.000Z</time>
      </trkpt>
      <trkpt lat="46.02997" lon="6.79645">
        <ele>1837.9</ele>
        <time>2000-01-02T09:38:23.000Z</time>
      </trkpt>
      <trkpt lat="46.02994" lon="6.79647">
        <ele>1836</ele>
        <time>2000-01-02T09:38:33.000Z</time>
      </trkpt>
      <trkpt lat="46.02989" lon="6.7965">
        <ele>1829</ele>
        <time>2000-01-02T09:38:43.000Z</time>
      </trkpt>
      <trkpt lat="46.02982" lon="6.79652">
        <ele>1829</ele>
        <time>2000-01-02T09:38:53.000Z</time>
      </trkpt>
      <trkpt lat="46.0298" lon="6.79653">
        <ele>1827.8</ele>
        <time>2000-01-02T09:39:03.000Z</time>
      </trkpt>
      <trkpt lat="46.02979" lon="6.79655">
        <ele>1827.2</ele>
        <time>2000-01-02T09:39:13.000Z</time>
      </trkpt>
      <trkpt lat="46.02979" lon="6.79658">
        <ele>1827</ele>
        <time>2000-01-02T09:39:23.000Z</time>
      </trkpt>
      <trkpt lat="46.02979" lon="6.79662">
        <ele>1826.9</ele>
        <time>2000-01-02T09:39:33.000Z</time>
      </trkpt>
      <trkpt lat="46.02982" lon="6.79671">
        <ele>1829</ele>
        <time>2000-01-02T09:39:43.000Z</time>
      </trkpt>
      <trkpt lat="46.02986" lon="6.7968">
        <ele>1829</ele>
        <time>2000-01-02T09:39:53.000Z</time>
      </trkpt>
      <trkpt lat="46.02991" lon="6.7969">
        <ele>1830.6</ele>
        <time>2000-01-02T09:40:03.000Z</time>
      </trkpt>
      <trkpt lat="46.02993" lon="6.79696">
        <ele>1827</ele>
        <time>2000-01-02T09:40:13.000Z</time>
      </trkpt>
      <trkpt lat="46.02993" lon="6.79703">
        <ele>1830.1</ele>
        <time>2000-01-02T09:40:23.000Z</time>
      </trkpt>
      <trkpt lat="46.02994" lon="6.79712">
        <ele>1829.6</ele>
        <time>2000-01-02T09:40:33.000Z</time>
      </trkpt>
      <trkpt lat="46.02995" lon="6.7972">
        <ele>1829.2</ele>
        <time>2000-01-02T09:40:43.000Z</time>
      </trkpt>
      <trkpt lat="46.02996" lon="6.79727">
        <ele>1826</ele>
        <time>2000-01-02T09:40:53.000Z</time>
      </trkpt>
      <trkpt lat="46.02997" lon="6.79734">
        <ele>1828.8</ele>
        <time>2000-01-02T09:41:03.000Z</time>
      </trkpt>
      <trkpt lat="46.02997" lon="6.79741">
        <ele>1828.1</ele>
        <time>2000-01-02T09:41:13.000Z</time>
      </trkpt>
      <trkpt lat="46.02997" lon="6.79756">
        <ele>1822</ele>
        <time>2000-01-02T09:41:23.000Z</time>
      </trkpt>
      <trkpt lat="46.02996" lon="6.7977">
        <ele>1825.7</ele>
        <time>2000-01-02T09:41:33.000Z</time>
      </trkpt>
      <trkpt lat="46.02993" lon="6.79787">
        <ele>1821</ele>
        <time>2000-01-02T09:41:43.000Z</time>
      </trkpt>
      <trkpt lat="46.0299" lon="6.79801">
        <ele>1822.4</ele>
        <time>2000-01-02T09:41:53.000Z</time>
      </trkpt>
      <trkpt lat="46.02988" lon="6.79813">
        <ele>1822.2</ele>
        <time>2000-01-02T09:42:03.000Z</time>
      </trkpt>
      <trkpt lat="46.02987" lon="6.79819">
        <ele>1817</ele>
        <time>2000-01-02T09:42:13.000Z</time>
      </trkpt>
      <trkpt lat="46.02985" lon="6.79821">
        <ele>1821.2</ele>
        <time>2000-01-02T09:42:23.000Z</time>
      </trkpt>
      <trkpt lat="46.02983" lon="6.79821">
        <ele>1819.9</ele>
        <time>2000-01-02T09:42:33.000Z</time>
      </trkpt>
      <trkpt lat="46.02981" lon="6.7982">
        <ele>1818.4</ele>
        <time>2000-01-02T09:42:43.000Z</time>
      </trkpt>
      <trkpt lat="46.0298" lon="6.79815">
        <ele>1817.2</ele>
        <time>2000-01-02T09:42:53.000Z</time>
      </trkpt>
      <trkpt lat="46.0298" lon="6.7981">
        <ele>1816.6</ele>
        <time>2000-01-02T09:43:03.000Z</time>
      </trkpt>
      <trkpt lat="46.0298" lon="6.79802">
        <ele>1816</ele>
        <time>2000-01-02T09:43:13.000Z</time>
      </trkpt>
      <trkpt lat="46.02979" lon="6.79791">
        <ele>1814.9</ele>
        <time>2000-01-02T09:43:23.000Z</time>
      </trkpt>
      <trkpt lat="46.02976" lon="6.79778">
        <ele>1812.5</ele>
        <time>2000-01-02T09:43:33.000Z</time>
      </trkpt>
      <trkpt lat="46.02975" lon="6.79772">
        <ele>1808</ele>
        <time>2000-01-02T09:43:43.000Z</time>
      </trkpt>
      <trkpt lat="46.02972" lon="6.79764">
        <ele>1810.4</ele>
        <time>2000-01-02T09:43:53.000Z</time>
      </trkpt>
      <trkpt lat="46.02968" lon="6.79756">
        <ele>1808.8</ele>
        <time>2000-01-02T09:44:03.000Z</time>
      </trkpt>
      <trkpt lat="46.02959" lon="6.79747">
        <ele>1801</ele>
        <time>2000-01-02T09:44:13.000Z</time>
      </trkpt>
      <trkpt lat="46.02947" lon="6.79736">
        <ele>1800.3</ele>
        <time>2000-01-02T09:44:23.000Z</time>
      </trkpt>
      <trkpt lat="46.02936" lon="6.79727">
        <ele>1793</ele>
        <time>2000-01-02T09:44:33.000Z</time>
      </trkpt>
      <trkpt lat="46.02929" lon="6.79718">
        <ele>1793.6</ele>
        <time>2000-01-02T09:44:43.000Z</time>
      </trkpt>
      <trkpt lat="46.02925" lon="6.79709">
        <ele>1792.2</ele>
        <time>2000-01-02T09:44:53.000Z</time>
      </trkpt>
      <trkpt lat="46.02923" lon="6.79702">
        <ele>1790</ele>
        <time>2000-01-02T09:45:03.000Z</time>
      </trkpt>
      <trkpt lat="46.02923" lon="6.79696">
        <ele>1791.6</ele>
        <time>2000-01-02T09:45:13.000Z</time>
      </trkpt>
      <trkpt lat="46.02921" lon="6.79692">
        <ele>1790.5</ele>
        <time>2000-01-02T09:45:23.000Z</time>
      </trkpt>
      <trkpt lat="46.02919" lon="6.79692">
        <ele>1789.4</ele>
        <time>2000-01-02T09:45:33.000Z</time>
      </trkpt>
      <trkpt lat="46.02916" lon="6.79692">
        <ele>1787.6</ele>
        <time>2000-01-02T09:45:43.000Z</time>
      </trkpt>
      <trkpt lat="46.02913" lon="6.79695">
        <ele>1786</ele>
        <time>2000-01-02T09:45:53.000Z</time>
      </trkpt>
      <trkpt lat="46.0291" lon="6.79702">
        <ele>1783</ele>
        <time>2000-01-02T09:46:03.000Z</time>
      </trkpt>
      <trkpt lat="46.02909" lon="6.7971">
        <ele>1784.3</ele>
        <time>2000-01-02T09:46:13.000Z</time>
      </trkpt>
      <trkpt lat="46.02906" lon="6.79717">
        <ele>1783.2</ele>
        <time>2000-01-02T09:46:23.000Z</time>
      </trkpt>
      <trkpt lat="46.029" lon="6.79729">
        <ele>1780</ele>
        <time>2000-01-02T09:46:33.000Z</time>
      </trkpt>
      <trkpt lat="46.02895" lon="6.79737">
        <ele>1779.9</ele>
        <time>2000-01-02T09:46:43.000Z</time>
      </trkpt>
      <trkpt lat="46.02891" lon="6.79746">
        <ele>1779.3</ele>
        <time>2000-01-02T09:46:53.000Z</time>
      </trkpt>
      <trkpt lat="46.02889" lon="6.79749">
        <ele>1778.9</ele>
        <time>2000-01-02T09:47:03.000Z</time>
      </trkpt>
      <trkpt lat="46.02888" lon="6.79754">
        <ele>1774</ele>
        <time>2000-01-02T09:47:13.000Z</time>
      </trkpt>
      <trkpt lat="46.02887" lon="6.79758">
        <ele>1778.4</ele>
        <time>2000-01-02T09:47:23.000Z</time>
      </trkpt>
      <trkpt lat="46.02885" lon="6.7976">
        <ele>1777.6</ele>
        <time>2000-01-02T09:47:33.000Z</time>
      </trkpt>
      <trkpt lat="46.02882" lon="6.7976">
        <ele>1776.2</ele>
        <time>2000-01-02T09:47:43.000Z</time>
      </trkpt>
      <trkpt lat="46.02879" lon="6.79758">
        <ele>1774.8</ele>
        <time>2000-01-02T09:47:53.000Z</time>
      </trkpt>
      <trkpt lat="46.02877" lon="6.79752">
        <ele>1773.5</ele>
        <time>2000-01-02T09:48:03.000Z</time>
      </trkpt>
      <trkpt lat="46.02876" lon="6.7974">
        <ele>1769</ele>
        <time>2000-01-02T09:48:13.000Z</time>
      </trkpt>
      <trkpt lat="46.02874" lon="6.79708">
        <ele>1763</ele>
        <time>2000-01-02T09:48:23.000Z</time>
      </trkpt>
      <trkpt lat="46.02874" lon="6.79676">
        <ele>1762</ele>
        <time>2000-01-02T09:48:33.000Z</time>
      </trkpt>
      <trkpt lat="46.02876" lon="6.79668">
        <ele>1762.3</ele>
        <time>2000-01-02T09:48:43.000Z</time>
      </trkpt>
      <trkpt lat="46.02877" lon="6.79662">
        <ele>1762.1</ele>
        <time>2000-01-02T09:48:53.000Z</time>
      </trkpt>
      <trkpt lat="46.02881" lon="6.79654">
        <ele>1763.7</ele>
        <time>2000-01-02T09:49:03.000Z</time>
      </trkpt>
      <trkpt lat="46.02881" lon="6.79651">
        <ele>1761</ele>
        <time>2000-01-02T09:49:13.000Z</time>
      </trkpt>
      <trkpt lat="46.02881" lon="6.79647">
        <ele>1762.8</ele>
        <time>2000-01-02T09:49:23.000Z</time>
      </trkpt>
      <trkpt lat="46.02879" lon="6.79644">
        <ele>1761.2</ele>
        <time>2000-01-02T09:49:33.000Z</time>
      </trkpt>
      <trkpt lat="46.02877" lon="6.79643">
        <ele>1759.8</ele>
        <time>2000-01-02T09:49:43.000Z</time>
      </trkpt>
      <trkpt lat="46.02874" lon="6.79646">
        <ele>1758.3</ele>
        <time>2000-01-02T09:49:53.000Z</time>
      </trkpt>
      <trkpt lat="46.0287" lon="6.79652">
        <ele>1756.5</ele>
        <time>2000-01-02T09:50:03.000Z</time>
      </trkpt>
      <trkpt lat="46.0287" lon="6.79657">
        <ele>1750</ele>
        <time>2000-01-02T09:50:13.000Z</time>
      </trkpt>
      <trkpt lat="46.02869" lon="6.79661">
        <ele>1757.1</ele>
        <time>2000-01-02T09:50:23.000Z</time>
      </trkpt>
      <trkpt lat="46.02867" lon="6.79665">
        <ele>1756.4</ele>
        <time>2000-01-02T09:50:33.000Z</time>
      </trkpt>
      <trkpt lat="46.02861" lon="6.79676">
        <ele>1754.6</ele>
        <time>2000-01-02T09:50:43.000Z</time>
      </trkpt>
      <trkpt lat="46.02859" lon="6.7968">
        <ele>1745</ele>
        <time>2000-01-02T09:50:53.000Z</time>
      </trkpt>
      <trkpt lat="46.02855" lon="6.79688">
        <ele>1752.9</ele>
        <time>2000-01-02T09:51:03.000Z</time>
      </trkpt>
      <trkpt lat="46.02849" lon="6.797">
        <ele>1750.5</ele>
        <time>2000-01-02T09:51:13.000Z</time>
      </trkpt>
      <trkpt lat="46.02847" lon="6.79703">
        <ele>1745</ele>
        <time>2000-01-02T09:51:23.000Z</time>
      </trkpt>
      <trkpt lat="46.02844" lon="6.79703">
        <ele>1747.2</ele>
        <time>2000-01-02T09:51:33.000Z</time>
      </trkpt>
      <trkpt lat="46.02843" lon="6.79701">
        <ele>1746.4</ele>
        <time>2000-01-02T09:51:43.000Z</time>
      </trkpt>
      <trkpt lat="46.02842" lon="6.79698">
        <ele>1745.7</ele>
        <time>2000-01-02T09:51:53.000Z</time>
      </trkpt>
      <trkpt lat="46.02843" lon="6.79693">
        <ele>1746</ele>
        <time>2000-01-02T09:52:03.000Z</time>
      </trkpt>
      <trkpt lat="46.02845" lon="6.79689">
        <ele>1746.6</ele>
        <time>2000-01-02T09:52:13.000Z</time>
      </trkpt>
      <trkpt lat="46.02847" lon="6.79683">
        <ele>1746.8</ele>
        <time>2000-01-02T09:52:23.000Z</time>
      </trkpt>
      <trkpt lat="46.02848" lon="6.79677">
        <ele>1740</ele>
        <time>2000-01-02T09:52:33.000Z</time>
      </trkpt>
      <trkpt lat="46.02848" lon="6.79666">
        <ele>1744.4</ele>
        <time>2000-01-02T09:52:43.000Z</time>
      </trkpt>
      <trkpt lat="46.02848" lon="6.7964">
        <ele>1735</ele>
        <time>2000-01-02T09:52:53.000Z</time>
      </trkpt>
      <trkpt lat="46.02847" lon="6.79621">
        <ele>1737.6</ele>
        <time>2000-01-02T09:53:03.000Z</time>
      </trkpt>
      <trkpt lat="46.02847" lon="6.79601">
        <ele>1730</ele>
        <time>2000-01-02T09:53:13.000Z</time>
      </trkpt>
      <trkpt lat="46.02847" lon="6.79588">
        <ele>1733</ele>
        <time>2000-01-02T09:53:23.000Z</time>
      </trkpt>
      <trkpt lat="46.02846" lon="6.79586">
        <ele>1732.1</ele>
        <time>2000-01-02T09:53:33.000Z</time>
      </trkpt>
      <trkpt lat="46.02845" lon="6.79586">
        <ele>1731.5</ele>
        <time>2000-01-02T09:53:43.000Z</time>
      </trkpt>
      <trkpt lat="46.02843" lon="6.79592">
        <ele>1731.2</ele>
        <time>2000-01-02T09:53:53.000Z</time>
      </trkpt>
      <trkpt lat="46.02836" lon="6.79617">
        <ele>1726</ele>
        <time>2000-01-02T09:54:03.000Z</time>
      </trkpt>
      <trkpt lat="46.02833" lon="6.79623">
        <ele>1729.1</ele>
        <time>2000-01-02T09:54:13.000Z</time>
      </trkpt>
      <trkpt lat="46.02832" lon="6.79624">
        <ele>1728.5</ele>
        <time>2000-01-02T09:54:23.000Z</time>
      </trkpt>
      <trkpt lat="46.02829" lon="6.79623">
        <ele>1726.3</ele>
        <time>2000-01-02T09:54:33.000Z</time>
      </trkpt>
      <trkpt lat="46.02828" lon="6.79621">
        <ele>1725.4</ele>
        <time>2000-01-02T09:54:43.000Z</time>
      </trkpt>
      <trkpt lat="46.02828" lon="6.79616">
        <ele>1725</ele>
        <time>2000-01-02T09:54:53.000Z</time>
      </trkpt>
      <trkpt lat="46.0283" lon="6.79605">
        <ele>1718</ele>
        <time>2000-01-02T09:55:03.000Z</time>
      </trkpt>
      <trkpt lat="46.02829" lon="6.79596">
        <ele>1723.3</ele>
        <time>2000-01-02T09:55:13.000Z</time>
      </trkpt>
      <trkpt lat="46.02827" lon="6.79589">
        <ele>1721.3</ele>
        <time>2000-01-02T09:55:23.000Z</time>
      </trkpt>
      <trkpt lat="46.02824" lon="6.79579">
        <ele>1713</ele>
        <time>2000-01-02T09:55:33.000Z</time>
      </trkpt>
      <trkpt lat="46.02823" lon="6.79568">
        <ele>1716.2</ele>
        <time>2000-01-02T09:55:43.000Z</time>
      </trkpt>
      <trkpt lat="46.02822" lon="6.79547">
        <ele>1709</ele>
        <time>2000-01-02T09:55:53.000Z</time>
      </trkpt>
      <trkpt lat="46.02824" lon="6.7953">
        <ele>1710.7</ele>
        <time>2000-01-02T09:56:03.000Z</time>
      </trkpt>
      <trkpt lat="46.02826" lon="6.79518">
        <ele>1707</ele>
        <time>2000-01-02T09:56:13.000Z</time>
      </trkpt>
      <trkpt lat="46.02831" lon="6.79507">
        <ele>1709.3</ele>
        <time>2000-01-02T09:56:23.000Z</time>
      </trkpt>
      <trkpt lat="46.02833" lon="6.79502">
        <ele>1709.3</ele>
        <time>2000-01-02T09:56:33.000Z</time>
      </trkpt>
      <trkpt lat="46.02834" lon="6.79499">
        <ele>1709.3</ele>
        <time>2000-01-02T09:56:43.000Z</time>
      </trkpt>
      <trkpt lat="46.02834" lon="6.79496">
        <ele>1708.9</ele>
        <time>2000-01-02T09:56:53.000Z</time>
      </trkpt>
      <trkpt lat="46.02833" lon="6.79494">
        <ele>1706</ele>
        <time>2000-01-02T09:57:03.000Z</time>
      </trkpt>
      <trkpt lat="46.02831" lon="6.79494">
        <ele>1706.9</ele>
        <time>2000-01-02T09:57:13.000Z</time>
      </trkpt>
      <trkpt lat="46.02829" lon="6.79495">
        <ele>1706</ele>
        <time>2000-01-02T09:57:23.000Z</time>
      </trkpt>
      <trkpt lat="46.02826" lon="6.79498">
        <ele>1705</ele>
        <time>2000-01-02T09:57:33.000Z</time>
      </trkpt>
      <trkpt lat="46.02824" lon="6.79503">
        <ele>1704.9</ele>
        <time>2000-01-02T09:57:43.000Z</time>
      </trkpt>
      <trkpt lat="46.02819" lon="6.7951">
        <ele>1703.9</ele>
        <time>2000-01-02T09:57:53.000Z</time>
      </trkpt>
      <trkpt lat="46.02815" lon="6.79516">
        <ele>1699</ele>
        <time>2000-01-02T09:58:03.000Z</time>
      </trkpt>
      <trkpt lat="46.02809" lon="6.79524">
        <ele>1701.9</ele>
        <time>2000-01-02T09:58:13.000Z</time>
      </trkpt>
      <trkpt lat="46.02803" lon="6.79531">
        <ele>1700</ele>
        <time>2000-01-02T09:58:23.000Z</time>
      </trkpt>
      <trkpt lat="46.02801" lon="6.79534">
        <ele>1698</ele>
        <time>2000-01-02T09:58:33.000Z</time>
      </trkpt>
      <trkpt lat="46.02799" lon="6.79539">
        <ele>1698.7</ele>
        <time>2000-01-02T09:58:43.000Z</time>
      </trkpt>
      <trkpt lat="46.02797" lon="6.79544">
        <ele>1698</ele>
        <time>2000-01-02T09:58:53.000Z</time>
      </trkpt>
      <trkpt lat="46.02795" lon="6.79548">
        <ele>1697.1</ele>
        <time>2000-01-02T09:59:03.000Z</time>
      </trkpt>
      <trkpt lat="46.02792" lon="6.79549">
        <ele>1695.2</ele>
        <time>2000-01-02T09:59:13.000Z</time>
      </trkpt>
      <trkpt lat="46.0279" lon="6.79548">
        <ele>1693.9</ele>
        <time>2000-01-02T09:59:23.000Z</time>
      </trkpt>
      <trkpt lat="46.02789" lon="6.79545">
        <ele>1693.1</ele>
        <time>2000-01-02T09:59:33.000Z</time>
      </trkpt>
      <trkpt lat="46.0279" lon="6.7954">
        <ele>1693</ele>
        <time>2000-01-02T09:59:43.000Z</time>
      </trkpt>
      <trkpt lat="46.02792" lon="6.79534">
        <ele>1694.1</ele>
        <time>2000-01-02T09:59:53.000Z</time>
      </trkpt>
      <trkpt lat="46.02795" lon="6.79527">
        <ele>1695.2</ele>
        <time>2000-01-02T10:00:03.000Z</time>
      </trkpt>
      <trkpt lat="46.02798" lon="6.79515">
        <ele>1689</ele>
        <time>2000-01-02T10:00:13.000Z</time>
      </trkpt>
      <trkpt lat="46.02802" lon="6.79496">
        <ele>1692.3</ele>
        <time>2000-01-02T10:00:23.000Z</time>
      </trkpt>
      <trkpt lat="46.02803" lon="6.79478">
        <ele>1685</ele>
        <time>2000-01-02T10:00:33.000Z</time>
      </trkpt>
      <trkpt lat="46.02804" lon="6.79463">
        <ele>1685.2</ele>
        <time>2000-01-02T10:00:43.000Z</time>
      </trkpt>
      <trkpt lat="46.02806" lon="6.79446">
        <ele>1679</ele>
        <time>2000-01-02T10:00:53.000Z</time>
      </trkpt>
      <trkpt lat="46.02809" lon="6.79433">
        <ele>1682</ele>
        <time>2000-01-02T10:01:03.000Z</time>
      </trkpt>
      <trkpt lat="46.02811" lon="6.79417">
        <ele>1678</ele>
        <time>2000-01-02T10:01:13.000Z</time>
      </trkpt>
      <trkpt lat="46.0281" lon="6.79401">
        <ele>1676.1</ele>
        <time>2000-01-02T10:01:23.000Z</time>
      </trkpt>
      <trkpt lat="46.02809" lon="6.79384">
        <ele>1665</ele>
        <time>2000-01-02T10:01:33.000Z</time>
      </trkpt>
      <trkpt lat="46.02809" lon="6.79371">
        <ele>1669.6</ele>
        <time>2000-01-02T10:01:43.000Z</time>
      </trkpt>
      <trkpt lat="46.02809" lon="6.79355">
        <ele>1659</ele>
        <time>2000-01-02T10:01:53.000Z</time>
      </trkpt>
      <trkpt lat="46.02807" lon="6.79341">
        <ele>1661.9</ele>
        <time>2000-01-02T10:02:03.000Z</time>
      </trkpt>
      <trkpt lat="46.02807" lon="6.79323">
        <ele>1652</ele>
        <time>2000-01-02T10:02:13.000Z</time>
      </trkpt>
      <trkpt lat="46.02807" lon="6.79307">
        <ele>1653.6</ele>
        <time>2000-01-02T10:02:23.000Z</time>
      </trkpt>
      <trkpt lat="46.02808" lon="6.79292">
        <ele>1645</ele>
        <time>2000-01-02T10:02:33.000Z</time>
      </trkpt>
      <trkpt lat="46.02807" lon="6.7928">
        <ele>1645.7</ele>
        <time>2000-01-02T10:02:43.000Z</time>
      </trkpt>
      <trkpt lat="46.02808" lon="6.79271">
        <ele>1643.3</ele>
        <time>2000-01-02T10:02:53.000Z</time>
      </trkpt>
      <trkpt lat="46.02813" lon="6.7926">
        <ele>1636</ele>
        <time>2000-01-02T10:03:03.000Z</time>
      </trkpt>
      <trkpt lat="46.02817" lon="6.79248">
        <ele>1640.1</ele>
        <time>2000-01-02T10:03:13.000Z</time>
      </trkpt>
      <trkpt lat="46.02822" lon="6.79234">
        <ele>1633</ele>
        <time>2000-01-02T10:03:23.000Z</time>
      </trkpt>
      <trkpt lat="46.02829" lon="6.79221">
        <ele>1634</ele>
        <time>2000-01-02T10:03:33.000Z</time>
      </trkpt>
      <trkpt lat="46.02841" lon="6.79205">
        <ele>1628</ele>
        <time>2000-01-02T10:03:43.000Z</time>
      </trkpt>
      <trkpt lat="46.02855" lon="6.79188">
        <ele>1627.2</ele>
        <time>2000-01-02T10:03:53.000Z</time>
      </trkpt>
      <trkpt lat="46.02866" lon="6.79179">
        <ele>1620</ele>
        <time>2000-01-02T10:04:03.000Z</time>
      </trkpt>
      <trkpt lat="46.0288" lon="6.79167">
        <ele>1622.9</ele>
        <time>2000-01-02T10:04:13.000Z</time>
      </trkpt>
      <trkpt lat="46.02891" lon="6.79158">
        <ele>1615</ele>
        <time>2000-01-02T10:04:23.000Z</time>
      </trkpt>
      <trkpt lat="46.02904" lon="6.79149">
        <ele>1616.6</ele>
        <time>2000-01-02T10:04:33.000Z</time>
      </trkpt>
      <trkpt lat="46.02919" lon="6.7914">
        <ele>1611</ele>
        <time>2000-01-02T10:04:43.000Z</time>
      </trkpt>
      <trkpt lat="46.02932" lon="6.79136">
        <ele>1611.9</ele>
        <time>2000-01-02T10:04:53.000Z</time>
      </trkpt>
      <trkpt lat="46.02945" lon="6.79133">
        <ele>1608</ele>
        <time>2000-01-02T10:05:03.000Z</time>
      </trkpt>
      <trkpt lat="46.02956" lon="6.7913">
        <ele>1610.8</ele>
        <time>2000-01-02T10:05:13.000Z</time>
      </trkpt>
      <trkpt lat="46.02965" lon="6.79124">
        <ele>1605</ele>
        <time>2000-01-02T10:05:23.000Z</time>
      </trkpt>
      <trkpt lat="46.02973" lon="6.79118">
        <ele>1605.3</ele>
        <time>2000-01-02T10:05:33.000Z</time>
      </trkpt>
      <trkpt lat="46.02987" lon="6.7911">
        <ele>1602</ele>
        <time>2000-01-02T10:05:43.000Z</time>
      </trkpt>
      <trkpt lat="46.03001" lon="6.79103">
        <ele>1600.5</ele>
        <time>2000-01-02T10:05:53.000Z</time>
      </trkpt>
      <trkpt lat="46.03012" lon="6.79095">
        <ele>1594</ele>
        <time>2000-01-02T10:06:03.000Z</time>
      </trkpt>
      <trkpt lat="46.03038" lon="6.7908">
        <ele>1592</ele>
        <time>2000-01-02T10:06:13.000Z</time>
      </trkpt>
      <trkpt lat="46.03049" lon="6.79069">
        <ele>1589.4</ele>
        <time>2000-01-02T10:06:23.000Z</time>
      </trkpt>
      <trkpt lat="46.03057" lon="6.7906">
        <ele>1580</ele>
        <time>2000-01-02T10:06:33.000Z</time>
      </trkpt>
      <trkpt lat="46.03076" lon="6.79048">
        <ele>1577</ele>
        <time>2000-01-02T10:06:43.000Z</time>
      </trkpt>
      <trkpt lat="46.03086" lon="6.79042">
        <ele>1582.3</ele>
        <time>2000-01-02T10:06:53.000Z</time>
      </trkpt>
      <trkpt lat="46.03092" lon="6.79039">
        <ele>1581.9</ele>
        <time>2000-01-02T10:07:03.000Z</time>
      </trkpt>
      <trkpt lat="46.03093" lon="6.79034">
        <ele>1576</ele>
        <time>2000-01-02T10:07:13.000Z</time>
      </trkpt>
      <trkpt lat="46.03089" lon="6.79032">
        <ele>1577.4</ele>
        <time>2000-01-02T10:07:23.000Z</time>
      </trkpt>
      <trkpt lat="46.03079" lon="6.79033">
        <ele>1576</ele>
        <time>2000-01-02T10:07:33.000Z</time>
      </trkpt>
      <trkpt lat="46.03059" lon="6.79035">
        <ele>1572</ele>
        <time>2000-01-02T10:07:43.000Z</time>
      </trkpt>
      <trkpt lat="46.03043" lon="6.79038">
        <ele>1571.9</ele>
        <time>2000-01-02T10:07:53.000Z</time>
      </trkpt>
      <trkpt lat="46.03034" lon="6.79042">
        <ele>1569</ele>
        <time>2000-01-02T10:08:03.000Z</time>
      </trkpt>
      <trkpt lat="46.03025" lon="6.79043">
        <ele>1571.3</ele>
        <time>2000-01-02T10:08:13.000Z</time>
      </trkpt>
      <trkpt lat="46.03004" lon="6.7904">
        <ele>1561</ele>
        <time>2000-01-02T10:08:23.000Z</time>
      </trkpt>
      <trkpt lat="46.02963" lon="6.79033">
        <ele>1558</ele>
        <time>2000-01-02T10:08:33.000Z</time>
      </trkpt>
      <trkpt lat="46.02943" lon="6.79031">
        <ele>1556</ele>
        <time>2000-01-02T10:08:43.000Z</time>
      </trkpt>
      <trkpt lat="46.02931" lon="6.79031">
        <ele>1555.2</ele>
        <time>2000-01-02T10:08:53.000Z</time>
      </trkpt>
      <trkpt lat="46.02926" lon="6.7903">
        <ele>1554.2</ele>
        <time>2000-01-02T10:09:03.000Z</time>
      </trkpt>
      <trkpt lat="46.02924" lon="6.79026">
        <ele>1549</ele>
        <time>2000-01-02T10:09:13.000Z</time>
      </trkpt>
      <trkpt lat="46.02926" lon="6.79019">
        <ele>1548.3</ele>
        <time>2000-01-02T10:09:23.000Z</time>
      </trkpt>
      <trkpt lat="46.0293" lon="6.79018">
        <ele>1548.2</ele>
        <time>2000-01-02T10:09:33.000Z</time>
      </trkpt>
      <trkpt lat="46.02937" lon="6.79015">
        <ele>1547.3</ele>
        <time>2000-01-02T10:09:43.000Z</time>
      </trkpt>
      <trkpt lat="46.02949" lon="6.79009">
        <ele>1539</ele>
        <time>2000-01-02T10:09:53.000Z</time>
      </trkpt>
      <trkpt lat="46.02962" lon="6.79003">
        <ele>1543.5</ele>
        <time>2000-01-02T10:10:03.000Z</time>
      </trkpt>
      <trkpt lat="46.02978" lon="6.78991">
        <ele>1537</ele>
        <time>2000-01-02T10:10:13.000Z</time>
      </trkpt>
      <trkpt lat="46.02993" lon="6.78982">
        <ele>1535.1</ele>
        <time>2000-01-02T10:10:23.000Z</time>
      </trkpt>
      <trkpt lat="46.03007" lon="6.78969">
        <ele>1525</ele>
        <time>2000-01-02T10:10:33.000Z</time>
      </trkpt>
      <trkpt lat="46.03026" lon="6.78953">
        <ele>1522</ele>
        <time>2000-01-02T10:10:43.000Z</time>
      </trkpt>
      <trkpt lat="46.03038" lon="6.78941">
        <ele>1521.6</ele>
        <time>2000-01-02T10:10:53.000Z</time>
      </trkpt>
      <trkpt lat="46.03053" lon="6.78927">
        <ele>1512</ele>
        <time>2000-01-02T10:11:03.000Z</time>
      </trkpt>
      <trkpt lat="46.03062" lon="6.78919">
        <ele>1515.1</ele>
        <time>2000-01-02T10:11:13.000Z</time>
      </trkpt>
      <trkpt lat="46.03064" lon="6.78915">
        <ele>1513.4</ele>
        <time>2000-01-02T10:11:23.000Z</time>
      </trkpt>
      <trkpt lat="46.03063" lon="6.78912">
        <ele>1511.7</ele>
        <time>2000-01-02T10:11:33.000Z</time>
      </trkpt>
      <trkpt lat="46.03059" lon="6.7891">
        <ele>1508</ele>
        <time>2000-01-02T10:11:43.000Z</time>
      </trkpt>
      <trkpt lat="46.03047" lon="6.78912">
        <ele>1509.2</ele>
        <time>2000-01-02T10:11:53.000Z</time>
      </trkpt>
      <trkpt lat="46.03025" lon="6.78916">
        <ele>1503</ele>
        <time>2000-01-02T10:12:03.000Z</time>
      </trkpt>
      <trkpt lat="46.03016" lon="6.7892">
        <ele>1507.5</ele>
        <time>2000-01-02T10:12:13.000Z</time>
      </trkpt>
      <trkpt lat="46.03012" lon="6.78921">
        <ele>1507.3</ele>
        <time>2000-01-02T10:12:23.000Z</time>
      </trkpt>
      <trkpt lat="46.0301" lon="6.78919">
        <ele>1505.9</ele>
        <time>2000-01-02T10:12:33.000Z</time>
      </trkpt>
      <trkpt lat="46.03011" lon="6.78913">
        <ele>1501</ele>
        <time>2000-01-02T10:12:43.000Z</time>
      </trkpt>
      <trkpt lat="46.03017" lon="6.78906">
        <ele>1500.9</ele>
        <time>2000-01-02T10:12:53.000Z</time>
      </trkpt>
      <trkpt lat="46.03028" lon="6.78897">
        <ele>1493</ele>
        <time>2000-01-02T10:13:03.000Z</time>
      </trkpt>
      <trkpt lat="46.03042" lon="6.78887">
        <ele>1496.2</ele>
        <time>2000-01-02T10:13:13.000Z</time>
      </trkpt>
      <trkpt lat="46.03057" lon="6.78872">
        <ele>1490</ele>
        <time>2000-01-02T10:13:23.000Z</time>
      </trkpt>
      <trkpt lat="46.03069" lon="6.78864">
        <ele>1489.8</ele>
        <time>2000-01-02T10:13:33.000Z</time>
      </trkpt>
      <trkpt lat="46.03084" lon="6.78859">
        <ele>1484</ele>
        <time>2000-01-02T10:13:43.000Z</time>
      </trkpt>
      <trkpt lat="46.03098" lon="6.78854">
        <ele>1487.7</ele>
        <time>2000-01-02T10:13:53.000Z</time>
      </trkpt>
      <trkpt lat="46.03112" lon="6.78847">
        <ele>1482</ele>
        <time>2000-01-02T10:14:03.000Z</time>
      </trkpt>
      <trkpt lat="46.0312" lon="6.78834">
        <ele>1480.3</ele>
        <time>2000-01-02T10:14:13.000Z</time>
      </trkpt>
      <trkpt lat="46.03132" lon="6.7883">
        <ele>1474</ele>
        <time>2000-01-02T10:14:23.000Z</time>
      </trkpt>
      <trkpt lat="46.03147" lon="6.78821">
        <ele>1476.5</ele>
        <time>2000-01-02T10:14:33.000Z</time>
      </trkpt>
      <trkpt lat="46.03161" lon="6.78804">
        <ele>1466</ele>
        <time>2000-01-02T10:14:43.000Z</time>
      </trkpt>
      <trkpt lat="46.03173" lon="6.7879">
        <ele>1464</ele>
        <time>2000-01-02T10:14:53.000Z</time>
      </trkpt>
      <trkpt lat="46.03184" lon="6.78782">
        <ele>1460</ele>
        <time>2000-01-02T10:15:03.000Z</time>
      </trkpt>
      <trkpt lat="46.03196" lon="6.78777">
        <ele>1460.9</ele>
        <time>2000-01-02T10:15:13.000Z</time>
      </trkpt>
      <trkpt lat="46.03209" lon="6.78771">
        <ele>1460</ele>
        <time>2000-01-02T10:15:23.000Z</time>
      </trkpt>
      <trkpt lat="46.03224" lon="6.78765">
        <ele>1460.5</ele>
        <time>2000-01-02T10:15:33.000Z</time>
      </trkpt>
      <trkpt lat="46.03232" lon="6.78761">
        <ele>1460</ele>
        <time>2000-01-02T10:15:43.000Z</time>
      </trkpt>
      <trkpt lat="46.0324" lon="6.78756">
        <ele>1462.1</ele>
        <time>2000-01-02T10:15:53.000Z</time>
      </trkpt>
      <trkpt lat="46.03242" lon="6.78748">
        <ele>1459.7</ele>
        <time>2000-01-02T10:16:03.000Z</time>
      </trkpt>
      <trkpt lat="46.03241" lon="6.7874">
        <ele>1451</ele>
        <time>2000-01-02T10:16:13.000Z</time>
      </trkpt>
      <trkpt lat="46.03237" lon="6.78735">
        <ele>1453.1</ele>
        <time>2000-01-02T10:16:23.000Z</time>
      </trkpt>
      <trkpt lat="46.03232" lon="6.78735">
        <ele>1451.4</ele>
        <time>2000-01-02T10:16:33.000Z</time>
      </trkpt>
      <trkpt lat="46.03223" lon="6.78735">
        <ele>1448.3</ele>
        <time>2000-01-02T10:16:43.000Z</time>
      </trkpt>
      <trkpt lat="46.03211" lon="6.78737">
        <ele>1442</ele>
        <time>2000-01-02T10:16:53.000Z</time>
      </trkpt>
      <trkpt lat="46.03196" lon="6.78739">
        <ele>1443.6</ele>
        <time>2000-01-02T10:17:03.000Z</time>
      </trkpt>
      <trkpt lat="46.03178" lon="6.78739">
        <ele>1435</ele>
        <time>2000-01-02T10:17:13.000Z</time>
      </trkpt>
      <trkpt lat="46.03159" lon="6.78736">
        <ele>1433</ele>
        <time>2000-01-02T10:17:23.000Z</time>
      </trkpt>
      <trkpt lat="46.03135" lon="6.78727">
        <ele>1429</ele>
        <time>2000-01-02T10:17:33.000Z</time>
      </trkpt>
      <trkpt lat="46.03105" lon="6.78716">
        <ele>1422</ele>
        <time>2000-01-02T10:17:43.000Z</time>
      </trkpt>
      <trkpt lat="46.03092" lon="6.78711">
        <ele>1422.8</ele>
        <time>2000-01-02T10:17:53.000Z</time>
      </trkpt>
      <trkpt lat="46.03086" lon="6.78705">
        <ele>1417</ele>
        <time>2000-01-02T10:18:03.000Z</time>
      </trkpt>
      <trkpt lat="46.03084" lon="6.787">
        <ele>1417.4</ele>
        <time>2000-01-02T10:18:13.000Z</time>
      </trkpt>
      <trkpt lat="46.03084" lon="6.78688">
        <ele>1412.3</ele>
        <time>2000-01-02T10:18:23.000Z</time>
      </trkpt>
      <trkpt lat="46.03088" lon="6.78679">
        <ele>1412</ele>
        <time>2000-01-02T10:18:33.000Z</time>
      </trkpt>
      <trkpt lat="46.03096" lon="6.78674">
        <ele>1407.4</ele>
        <time>2000-01-02T10:18:43.000Z</time>
      </trkpt>
      <trkpt lat="46.03112" lon="6.7867">
        <ele>1407</ele>
        <time>2000-01-02T10:18:53.000Z</time>
      </trkpt>
      <trkpt lat="46.03127" lon="6.78667">
        <ele>1407.3</ele>
        <time>2000-01-02T10:19:03.000Z</time>
      </trkpt>
      <trkpt lat="46.03141" lon="6.78663">
        <ele>1405</ele>
        <time>2000-01-02T10:19:13.000Z</time>
      </trkpt>
      <trkpt lat="46.03153" lon="6.7866">
        <ele>1407.2</ele>
        <time>2000-01-02T10:19:23.000Z</time>
      </trkpt>
      <trkpt lat="46.03159" lon="6.78655">
        <ele>1402</ele>
        <time>2000-01-02T10:19:33.000Z</time>
      </trkpt>
      <trkpt lat="46.0316" lon="6.78652">
        <ele>1405.4</ele>
        <time>2000-01-02T10:19:43.000Z</time>
      </trkpt>
      <trkpt lat="46.03159" lon="6.78646">
        <ele>1403.3</ele>
        <time>2000-01-02T10:19:53.000Z</time>
      </trkpt>
      <trkpt lat="46.03156" lon="6.78644">
        <ele>1402.2</ele>
        <time>2000-01-02T10:20:03.000Z</time>
      </trkpt>
      <trkpt lat="46.03144" lon="6.7864">
        <ele>1395</ele>
        <time>2000-01-02T10:20:13.000Z</time>
      </trkpt>
      <trkpt lat="46.03126" lon="6.78639">
        <ele>1396.6</ele>
        <time>2000-01-02T10:20:23.000Z</time>
      </trkpt>
      <trkpt lat="46.03096" lon="6.78639">
        <ele>1388</ele>
        <time>2000-01-02T10:20:33.000Z</time>
      </trkpt>
      <trkpt lat="46.03075" lon="6.78638">
        <ele>1386</ele>
        <time>2000-01-02T10:20:43.000Z</time>
      </trkpt>
      <trkpt lat="46.03037" lon="6.78638">
        <ele>1379</ele>
        <time>2000-01-02T10:20:53.000Z</time>
      </trkpt>
      <trkpt lat="46.03026" lon="6.78639">
        <ele>1381.7</ele>
        <time>2000-01-02T10:21:03.000Z</time>
      </trkpt>
      <trkpt lat="46.03023" lon="6.78638">
        <ele>1380.8</ele>
        <time>2000-01-02T10:21:13.000Z</time>
      </trkpt>
      <trkpt lat="46.03022" lon="6.78634">
        <ele>1379.2</ele>
        <time>2000-01-02T10:21:23.000Z</time>
      </trkpt>
      <trkpt lat="46.03027" lon="6.7863">
        <ele>1373</ele>
        <time>2000-01-02T10:21:33.000Z</time>
      </trkpt>
      <trkpt lat="46.03036" lon="6.78624">
        <ele>1377.8</ele>
        <time>2000-01-02T10:21:43.000Z</time>
      </trkpt>
      <trkpt lat="46.03042" lon="6.78616">
        <ele>1375.5</ele>
        <time>2000-01-02T10:21:53.000Z</time>
      </trkpt>
      <trkpt lat="46.03049" lon="6.78602">
        <ele>1369</ele>
        <time>2000-01-02T10:22:03.000Z</time>
      </trkpt>
      <trkpt lat="46.03058" lon="6.78593">
        <ele>1368.2</ele>
        <time>2000-01-02T10:22:13.000Z</time>
      </trkpt>
      <trkpt lat="46.0307" lon="6.7859">
        <ele>1365</ele>
        <time>2000-01-02T10:22:23.000Z</time>
      </trkpt>
      <trkpt lat="46.03082" lon="6.78586">
        <ele>1368.9</ele>
        <time>2000-01-02T10:22:33.000Z</time>
      </trkpt>
      <trkpt lat="46.03089" lon="6.78572">
        <ele>1363</ele>
        <time>2000-01-02T10:22:43.000Z</time>
      </trkpt>
      <trkpt lat="46.03099" lon="6.78551">
        <ele>1359.9</ele>
        <time>2000-01-02T10:22:53.000Z</time>
      </trkpt>
      <trkpt lat="46.03115" lon="6.78537">
        <ele>1354</ele>
        <time>2000-01-02T10:23:03.000Z</time>
      </trkpt>
      <trkpt lat="46.03131" lon="6.78517">
        <ele>1352</ele>
        <time>2000-01-02T10:23:13.000Z</time>
      </trkpt>
      <trkpt lat="46.03146" lon="6.78499">
        <ele>1345</ele>
        <time>2000-01-02T10:23:23.000Z</time>
      </trkpt>
      <trkpt lat="46.03165" lon="6.78483">
        <ele>1344</ele>
        <time>2000-01-02T10:23:33.000Z</time>
      </trkpt>
      <trkpt lat="46.03174" lon="6.78479">
        <ele>1345</ele>
        <time>2000-01-02T10:23:43.000Z</time>
      </trkpt>
      <trkpt lat="46.03186" lon="6.78474">
        <ele>1340</ele>
        <time>2000-01-02T10:23:53.000Z</time>
      </trkpt>
      <trkpt lat="46.03196" lon="6.78468">
        <ele>1342.5</ele>
        <time>2000-01-02T10:24:03.000Z</time>
      </trkpt>
      <trkpt lat="46.03207" lon="6.78459">
        <ele>1335</ele>
        <time>2000-01-02T10:24:13.000Z</time>
      </trkpt>
      <trkpt lat="46.03216" lon="6.78453">
        <ele>1339.6</ele>
        <time>2000-01-02T10:24:23.000Z</time>
      </trkpt>
      <trkpt lat="46.03223" lon="6.78445">
        <ele>1334</ele>
        <time>2000-01-02T10:24:33.000Z</time>
      </trkpt>
      <trkpt lat="46.03229" lon="6.78437">
        <ele>1336.7</ele>
        <time>2000-01-02T10:24:43.000Z</time>
      </trkpt>
      <trkpt lat="46.03231" lon="6.78426">
        <ele>1334</ele>
        <time>2000-01-02T10:24:53.000Z</time>
      </trkpt>
      <trkpt lat="46.03231" lon="6.78404">
        <ele>1326</ele>
        <time>2000-01-02T10:25:03.000Z</time>
      </trkpt>
      <trkpt lat="46.03231" lon="6.78369">
        <ele>1318</ele>
        <time>2000-01-02T10:25:13.000Z</time>
      </trkpt>
      <trkpt lat="46.03233" lon="6.78349">
        <ele>1315.7</ele>
        <time>2000-01-02T10:25:23.000Z</time>
      </trkpt>
      <trkpt lat="46.03237" lon="6.7833">
        <ele>1310</ele>
        <time>2000-01-02T10:25:33.000Z</time>
      </trkpt>
      <trkpt lat="46.03241" lon="6.78316">
        <ele>1308.9</ele>
        <time>2000-01-02T10:25:43.000Z</time>
      </trkpt>
      <trkpt lat="46.0324" lon="6.7831">
        <ele>1306.8</ele>
        <time>2000-01-02T10:25:53.000Z</time>
      </trkpt>
      <trkpt lat="46.03237" lon="6.78308">
        <ele>1305.4</ele>
        <time>2000-01-02T10:26:03.000Z</time>
      </trkpt>
      <trkpt lat="46.03232" lon="6.78308">
        <ele>1302</ele>
        <time>2000-01-02T10:26:13.000Z</time>
      </trkpt>
      <trkpt lat="46.03225" lon="6.78311">
        <ele>1303.1</ele>
        <time>2000-01-02T10:26:23.000Z</time>
      </trkpt>
      <trkpt lat="46.0322" lon="6.78319">
        <ele>1303.4</ele>
        <time>2000-01-02T10:26:33.000Z</time>
      </trkpt>
      <trkpt lat="46.03215" lon="6.78329">
        <ele>1303</ele>
        <time>2000-01-02T10:26:43.000Z</time>
      </trkpt>
      <trkpt lat="46.03207" lon="6.78353">
        <ele>1306.8</ele>
        <time>2000-01-02T10:26:53.000Z</time>
      </trkpt>
      <trkpt lat="46.03203" lon="6.78363">
        <ele>1298</ele>
        <time>2000-01-02T10:27:03.000Z</time>
      </trkpt>
      <trkpt lat="46.03198" lon="6.78366">
        <ele>1306.8</ele>
        <time>2000-01-02T10:27:13.000Z</time>
      </trkpt>
      <trkpt lat="46.03187" lon="6.78366">
        <ele>1303.4</ele>
        <time>2000-01-02T10:27:23.000Z</time>
      </trkpt>
      <trkpt lat="46.0317" lon="6.78364">
        <ele>1294</ele>
        <time>2000-01-02T10:27:33.000Z</time>
      </trkpt>
      <trkpt lat="46.03149" lon="6.78363">
        <ele>1291</ele>
        <time>2000-01-02T10:27:43.000Z</time>
      </trkpt>
      <trkpt lat="46.03136" lon="6.78362">
        <ele>1292.1</ele>
        <time>2000-01-02T10:27:53.000Z</time>
      </trkpt>
      <trkpt lat="46.03126" lon="6.78363">
        <ele>1290</ele>
        <time>2000-01-02T10:28:03.000Z</time>
      </trkpt>
      <trkpt lat="46.03118" lon="6.78365">
        <ele>1292</ele>
        <time>2000-01-02T10:28:13.000Z</time>
      </trkpt>
      <trkpt lat="46.03113" lon="6.78364">
        <ele>1291.3</ele>
        <time>2000-01-02T10:28:23.000Z</time>
      </trkpt>
      <trkpt lat="46.03109" lon="6.78359">
        <ele>1289</ele>
        <time>2000-01-02T10:28:33.000Z</time>
      </trkpt>
      <trkpt lat="46.03105" lon="6.78349">
        <ele>1281</ele>
        <time>2000-01-02T10:28:43.000Z</time>
      </trkpt>
      <trkpt lat="46.03099" lon="6.7834">
        <ele>1281.1</ele>
        <time>2000-01-02T10:28:53.000Z</time>
      </trkpt>
      <trkpt lat="46.03092" lon="6.78337">
        <ele>1279.3</ele>
        <time>2000-01-02T10:29:03.000Z</time>
      </trkpt>
      <trkpt lat="46.03082" lon="6.78338">
        <ele>1276</ele>
        <time>2000-01-02T10:29:13.000Z</time>
      </trkpt>
      <trkpt lat="46.0307" lon="6.78341">
        <ele>1277.2</ele>
        <time>2000-01-02T10:29:23.000Z</time>
      </trkpt>
      <trkpt lat="46.03058" lon="6.78348">
        <ele>1272</ele>
        <time>2000-01-02T10:29:33.000Z</time>
      </trkpt>
      <trkpt lat="46.03045" lon="6.78353">
        <ele>1275.6</ele>
        <time>2000-01-02T10:29:43.000Z</time>
      </trkpt>
      <trkpt lat="46.03027" lon="6.78359">
        <ele>1268</ele>
        <time>2000-01-02T10:29:53.000Z</time>
      </trkpt>
      <trkpt lat="46.03012" lon="6.78363">
        <ele>1270.7</ele>
        <time>2000-01-02T10:30:03.000Z</time>
      </trkpt>
      <trkpt lat="46.03002" lon="6.78362">
        <ele>1266</ele>
        <time>2000-01-02T10:30:13.000Z</time>
      </trkpt>
      <trkpt lat="46.02991" lon="6.78359">
        <ele>1263.9</ele>
        <time>2000-01-02T10:30:23.000Z</time>
      </trkpt>
      <trkpt lat="46.0298" lon="6.78356">
        <ele>1262</ele>
        <time>2000-01-02T10:30:33.000Z</time>
      </trkpt>
      <trkpt lat="46.02972" lon="6.78362">
        <ele>1260.3</ele>
        <time>2000-01-02T10:30:43.000Z</time>
      </trkpt>
      <trkpt lat="46.02964" lon="6.78371">
        <ele>1259</ele>
        <time>2000-01-02T10:30:53.000Z</time>
      </trkpt>
      <trkpt lat="46.0296" lon="6.78373">
        <ele>1261.4</ele>
        <time>2000-01-02T10:31:03.000Z</time>
      </trkpt>
      <trkpt lat="46.02959" lon="6.7837">
        <ele>1259.9</ele>
        <time>2000-01-02T10:31:13.000Z</time>
      </trkpt>
      <trkpt lat="46.0296" lon="6.78361">
        <ele>1256.4</ele>
        <time>2000-01-02T10:31:23.000Z</time>
      </trkpt>
      <trkpt lat="46.02963" lon="6.78349">
        <ele>1254</ele>
        <time>2000-01-02T10:31:33.000Z</time>
      </trkpt>
      <trkpt lat="46.02969" lon="6.78341">
        <ele>1251.1</ele>
        <time>2000-01-02T10:31:43.000Z</time>
      </trkpt>
      <trkpt lat="46.02976" lon="6.78336">
        <ele>1251.1</ele>
        <time>2000-01-02T10:31:53.000Z</time>
      </trkpt>
      <trkpt lat="46.02986" lon="6.78331">
        <ele>1250</ele>
        <time>2000-01-02T10:32:03.000Z</time>
      </trkpt>
      <trkpt lat="46.02991" lon="6.78325">
        <ele>1251.1</ele>
        <time>2000-01-02T10:32:13.000Z</time>
      </trkpt>
      <trkpt lat="46.03005" lon="6.78308">
        <ele>1244</ele>
        <time>2000-01-02T10:32:23.000Z</time>
      </trkpt>
      <trkpt lat="46.03019" lon="6.78293">
        <ele>1247</ele>
        <time>2000-01-02T10:32:33.000Z</time>
      </trkpt>
      <trkpt lat="46.03028" lon="6.78283">
        <ele>1242</ele>
        <time>2000-01-02T10:32:43.000Z</time>
      </trkpt>
      <trkpt lat="46.03035" lon="6.78273">
        <ele>1244.6</ele>
        <time>2000-01-02T10:32:53.000Z</time>
      </trkpt>
      <trkpt lat="46.03039" lon="6.78263">
        <ele>1242.3</ele>
        <time>2000-01-02T10:33:03.000Z</time>
      </trkpt>
      <trkpt lat="46.03045" lon="6.78249">
        <ele>1235</ele>
        <time>2000-01-02T10:33:13.000Z</time>
      </trkpt>
      <trkpt lat="46.03048" lon="6.78237">
        <ele>1236</ele>
        <time>2000-01-02T10:33:23.000Z</time>
      </trkpt>
      <trkpt lat="46.03049" lon="6.78224">
        <ele>1231.7</ele>
        <time>2000-01-02T10:33:33.000Z</time>
      </trkpt>
      <trkpt lat="46.03053" lon="6.78214">
        <ele>1228</ele>
        <time>2000-01-02T10:33:43.000Z</time>
      </trkpt>
      <trkpt lat="46.0306" lon="6.78205">
        <ele>1228.3</ele>
        <time>2000-01-02T10:33:53.000Z</time>
      </trkpt>
      <trkpt lat="46.03074" lon="6.78192">
        <ele>1225</ele>
        <time>2000-01-02T10:34:03.000Z</time>
      </trkpt>
      <trkpt lat="46.03084" lon="6.78182">
        <ele>1225.1</ele>
        <time>2000-01-02T10:34:13.000Z</time>
      </trkpt>
      <trkpt lat="46.03094" lon="6.78173">
        <ele>1222</ele>
        <time>2000-01-02T10:34:23.000Z</time>
      </trkpt>
      <trkpt lat="46.031" lon="6.78163">
        <ele>1221.3</ele>
        <time>2000-01-02T10:34:33.000Z</time>
      </trkpt>
      <trkpt lat="46.03105" lon="6.78154">
        <ele>1219.4</ele>
        <time>2000-01-02T10:34:43.000Z</time>
      </trkpt>
      <trkpt lat="46.03114" lon="6.78147">
        <ele>1216</ele>
        <time>2000-01-02T10:34:53.000Z</time>
      </trkpt>
      <trkpt lat="46.03119" lon="6.78143">
        <ele>1219.4</ele>
        <time>2000-01-02T10:35:03.000Z</time>
      </trkpt>
      <trkpt lat="46.03124" lon="6.78133">
        <ele>1218</ele>
        <time>2000-01-02T10:35:13.000Z</time>
      </trkpt>
      <trkpt lat="46.03128" lon="6.78118">
        <ele>1210</ele>
        <time>2000-01-02T10:35:23.000Z</time>
      </trkpt>
      <trkpt lat="46.03131" lon="6.78097">
        <ele>1209.7</ele>
        <time>2000-01-02T10:35:33.000Z</time>
      </trkpt>
      <trkpt lat="46.03133" lon="6.78077">
        <ele>1201</ele>
        <time>2000-01-02T10:35:43.000Z</time>
      </trkpt>
      <trkpt lat="46.03138" lon="6.78064">
        <ele>1200.8</ele>
        <time>2000-01-02T10:35:53.000Z</time>
      </trkpt>
      <trkpt lat="46.03144" lon="6.78055">
        <ele>1198.9</ele>
        <time>2000-01-02T10:36:03.000Z</time>
      </trkpt>
      <trkpt lat="46.03149" lon="6.7805">
        <ele>1199</ele>
        <time>2000-01-02T10:36:13.000Z</time>
      </trkpt>
      <trkpt lat="46.03159" lon="6.78047">
        <ele>1199.1</ele>
        <time>2000-01-02T10:36:23.000Z</time>
      </trkpt>
      <trkpt lat="46.03175" lon="6.78044">
        <ele>1197</ele>
        <time>2000-01-02T10:36:33.000Z</time>
      </trkpt>
      <trkpt lat="46.0319" lon="6.78037">
        <ele>1199.5</ele>
        <time>2000-01-02T10:36:43.000Z</time>
      </trkpt>
      <trkpt lat="46.03202" lon="6.7803">
        <ele>1194</ele>
        <time>2000-01-02T10:36:53.000Z</time>
      </trkpt>
      <trkpt lat="46.03212" lon="6.7802">
        <ele>1194</ele>
        <time>2000-01-02T10:37:03.000Z</time>
      </trkpt>
      <trkpt lat="46.03221" lon="6.78007">
        <ele>1186</ele>
        <time>2000-01-02T10:37:13.000Z</time>
      </trkpt>
      <trkpt lat="46.03228" lon="6.77996">
        <ele>1184.4</ele>
        <time>2000-01-02T10:37:23.000Z</time>
      </trkpt>
      <trkpt lat="46.0323" lon="6.7799">
        <ele>1182</ele>
        <time>2000-01-02T10:37:33.000Z</time>
      </trkpt>
      <trkpt lat="46.03223" lon="6.77982">
        <ele>1177</ele>
        <time>2000-01-02T10:37:43.000Z</time>
      </trkpt>
      <trkpt lat="46.03215" lon="6.77977">
        <ele>1176.8</ele>
        <time>2000-01-02T10:37:53.000Z</time>
      </trkpt>
      <trkpt lat="46.03206" lon="6.77973">
        <ele>1175.3</ele>
        <time>2000-01-02T10:38:03.000Z</time>
      </trkpt>
      <trkpt lat="46.0319" lon="6.77975">
        <ele>1173</ele>
        <time>2000-01-02T10:38:13.000Z</time>
      </trkpt>
      <trkpt lat="46.03175" lon="6.77977">
        <ele>1175.2</ele>
        <time>2000-01-02T10:38:23.000Z</time>
      </trkpt>
      <trkpt lat="46.03166" lon="6.7798">
        <ele>1171</ele>
        <time>2000-01-02T10:38:33.000Z</time>
      </trkpt>
      <trkpt lat="46.03156" lon="6.77978">
        <ele>1173.4</ele>
        <time>2000-01-02T10:38:43.000Z</time>
      </trkpt>
      <trkpt lat="46.03146" lon="6.77973">
        <ele>1168</ele>
        <time>2000-01-02T10:38:53.000Z</time>
      </trkpt>
      <trkpt lat="46.03135" lon="6.77965">
        <ele>1165.4</ele>
        <time>2000-01-02T10:39:03.000Z</time>
      </trkpt>
      <trkpt lat="46.03126" lon="6.7796">
        <ele>1160</ele>
        <time>2000-01-02T10:39:13.000Z</time>
      </trkpt>
      <trkpt lat="46.03118" lon="6.77961">
        <ele>1159.7</ele>
        <time>2000-01-02T10:39:23.000Z</time>
      </trkpt>
      <trkpt lat="46.03111" lon="6.77963">
        <ele>1158.6</ele>
        <time>2000-01-02T10:39:33.000Z</time>
      </trkpt>
      <trkpt lat="46.03106" lon="6.77968">
        <ele>1158</ele>
        <time>2000-01-02T10:39:43.000Z</time>
      </trkpt>
      <trkpt lat="46.031" lon="6.7798">
        <ele>1161.2</ele>
        <time>2000-01-02T10:39:53.000Z</time>
      </trkpt>
      <trkpt lat="46.03093" lon="6.7799">
        <ele>1158</ele>
        <time>2000-01-02T10:40:03.000Z</time>
      </trkpt>
      <trkpt lat="46.03085" lon="6.77995">
        <ele>1161.7</ele>
        <time>2000-01-02T10:40:13.000Z</time>
      </trkpt>
      <trkpt lat="46.03076" lon="6.77999">
        <ele>1160</ele>
        <time>2000-01-02T10:40:23.000Z</time>
      </trkpt>
      <trkpt lat="46.0307" lon="6.78003">
        <ele>1158</ele>
        <time>2000-01-02T10:40:33.000Z</time>
      </trkpt>
      <trkpt lat="46.03061" lon="6.78009">
        <ele>1158.5</ele>
        <time>2000-01-02T10:40:43.000Z</time>
      </trkpt>
      <trkpt lat="46.03055" lon="6.78009">
        <ele>1156.4</ele>
        <time>2000-01-02T10:40:53.000Z</time>
      </trkpt>
      <trkpt lat="46.03046" lon="6.78006">
        <ele>1149</ele>
        <time>2000-01-02T10:41:03.000Z</time>
      </trkpt>
      <trkpt lat="46.03031" lon="6.78004">
        <ele>1147.3</ele>
        <time>2000-01-02T10:41:13.000Z</time>
      </trkpt>
      <trkpt lat="46.03016" lon="6.78004">
        <ele>1139</ele>
        <time>2000-01-02T10:41:23.000Z</time>
      </trkpt>
      <trkpt lat="46.03006" lon="6.78004">
        <ele>1139.1</ele>
        <time>2000-01-02T10:41:33.000Z</time>
      </trkpt>
      <trkpt lat="46.02997" lon="6.78007">
        <ele>1132</ele>
        <time>2000-01-02T10:41:43.000Z</time>
      </trkpt>
      <trkpt lat="46.0299" lon="6.78013">
        <ele>1136</ele>
        <time>2000-01-02T10:41:53.000Z</time>
      </trkpt>
      <trkpt lat="46.02984" lon="6.78021">
        <ele>1135.9</ele>
        <time>2000-01-02T10:42:03.000Z</time>
      </trkpt>
      <trkpt lat="46.02977" lon="6.78034">
        <ele>1132</ele>
        <time>2000-01-02T10:42:13.000Z</time>
      </trkpt>
      <trkpt lat="46.02969" lon="6.78044">
        <ele>1136.4</ele>
        <time>2000-01-02T10:42:23.000Z</time>
      </trkpt>
      <trkpt lat="46.02955" lon="6.78058">
        <ele>1131</ele>
        <time>2000-01-02T10:42:33.000Z</time>
      </trkpt>
      <trkpt lat="46.0294" lon="6.78069">
        <ele>1132.6</ele>
        <time>2000-01-02T10:42:43.000Z</time>
      </trkpt>
      <trkpt lat="46.02925" lon="6.78078">
        <ele>1127</ele>
        <time>2000-01-02T10:42:53.000Z</time>
      </trkpt>
      <trkpt lat="46.02909" lon="6.78087">
        <ele>1130.2</ele>
        <time>2000-01-02T10:43:03.000Z</time>
      </trkpt>
      <trkpt lat="46.02899" lon="6.78089">
        <ele>1125</ele>
        <time>2000-01-02T10:43:13.000Z</time>
      </trkpt>
      <trkpt lat="46.02891" lon="6.78084">
        <ele>1126.5</ele>
        <time>2000-01-02T10:43:23.000Z</time>
      </trkpt>
      <trkpt lat="46.02882" lon="6.78075">
        <ele>1119</ele>
        <time>2000-01-02T10:43:33.000Z</time>
      </trkpt>
      <trkpt lat="46.02872" lon="6.78067">
        <ele>1117.3</ele>
        <time>2000-01-02T10:43:43.000Z</time>
      </trkpt>
      <trkpt lat="46.0286" lon="6.78062">
        <ele>1113</ele>
        <time>2000-01-02T10:43:53.000Z</time>
      </trkpt>
      <trkpt lat="46.02846" lon="6.78062">
        <ele>1109.6</ele>
        <time>2000-01-02T10:44:03.000Z</time>
      </trkpt>
      <trkpt lat="46.02836" lon="6.78063">
        <ele>1105</ele>
        <time>2000-01-02T10:44:13.000Z</time>
      </trkpt>
      <trkpt lat="46.0283" lon="6.78062">
        <ele>1105.4</ele>
        <time>2000-01-02T10:44:23.000Z</time>
      </trkpt>
      <trkpt lat="46.02826" lon="6.78059">
        <ele>1102.7</ele>
        <time>2000-01-02T10:44:33.000Z</time>
      </trkpt>
      <trkpt lat="46.02826" lon="6.78053">
        <ele>1100.4</ele>
        <time>2000-01-02T10:44:43.000Z</time>
      </trkpt>
      <trkpt lat="46.02829" lon="6.78045">
        <ele>1093</ele>
        <time>2000-01-02T10:44:53.000Z</time>
      </trkpt>
      <trkpt lat="46.02834" lon="6.78038">
        <ele>1097.9</ele>
        <time>2000-01-02T10:45:03.000Z</time>
      </trkpt>
      <trkpt lat="46.02844" lon="6.78026">
        <ele>1093</ele>
        <time>2000-01-02T10:45:13.000Z</time>
      </trkpt>
      <trkpt lat="46.02854" lon="6.78013">
        <ele>1095</ele>
        <time>2000-01-02T10:45:23.000Z</time>
      </trkpt>
      <trkpt lat="46.02865" lon="6.78">
        <ele>1092</ele>
        <time>2000-01-02T10:45:33.000Z</time>
      </trkpt>
      <trkpt lat="46.02874" lon="6.7799">
        <ele>1093</ele>
        <time>2000-01-02T10:45:43.000Z</time>
      </trkpt>
      <trkpt lat="46.02877" lon="6.77982">
        <ele>1091.3</ele>
        <time>2000-01-02T10:45:53.000Z</time>
      </trkpt>
      <trkpt lat="46.02879" lon="6.77972">
        <ele>1085</ele>
        <time>2000-01-02T10:46:03.000Z</time>
      </trkpt>
      <trkpt lat="46.02884" lon="6.77961">
        <ele>1087.5</ele>
        <time>2000-01-02T10:46:13.000Z</time>
      </trkpt>
      <trkpt lat="46.0289" lon="6.77951">
        <ele>1087</ele>
        <time>2000-01-02T10:46:23.000Z</time>
      </trkpt>
      <trkpt lat="46.02895" lon="6.77937">
        <ele>1081</ele>
        <time>2000-01-02T10:46:33.000Z</time>
      </trkpt>
      <trkpt lat="46.02897" lon="6.77929">
        <ele>1083.3</ele>
        <time>2000-01-02T10:46:43.000Z</time>
      </trkpt>
      <trkpt lat="46.02902" lon="6.77922">
        <ele>1083.2</ele>
        <time>2000-01-02T10:46:53.000Z</time>
      </trkpt>
      <trkpt lat="46.02909" lon="6.77913">
        <ele>1078</ele>
        <time>2000-01-02T10:47:03.000Z</time>
      </trkpt>
      <trkpt lat="46.02916" lon="6.77903">
        <ele>1082.8</ele>
        <time>2000-01-02T10:47:13.000Z</time>
      </trkpt>
      <trkpt lat="46.02919" lon="6.77897">
        <ele>1082.1</ele>
        <time>2000-01-02T10:47:23.000Z</time>
      </trkpt>
      <trkpt lat="46.02919" lon="6.77888">
        <ele>1073</ele>
        <time>2000-01-02T10:47:33.000Z</time>
      </trkpt>
      <trkpt lat="46.02919" lon="6.77874">
        <ele>1076</ele>
        <time>2000-01-02T10:47:43.000Z</time>
      </trkpt>
      <trkpt lat="46.02923" lon="6.77859">
        <ele>1070</ele>
        <time>2000-01-02T10:47:53.000Z</time>
      </trkpt>
      <trkpt lat="46.02928" lon="6.77847">
        <ele>1071.6</ele>
        <time>2000-01-02T10:48:03.000Z</time>
      </trkpt>
      <trkpt lat="46.02936" lon="6.77835">
        <ele>1067</ele>
        <time>2000-01-02T10:48:13.000Z</time>
      </trkpt>
      <trkpt lat="46.02951" lon="6.7782">
        <ele>1070.1</ele>
        <time>2000-01-02T10:48:23.000Z</time>
      </trkpt>
      <trkpt lat="46.02963" lon="6.77809">
        <ele>1067</ele>
        <time>2000-01-02T10:48:33.000Z</time>
      </trkpt>
      <trkpt lat="46.02974" lon="6.778">
        <ele>1068.6</ele>
        <time>2000-01-02T10:48:43.000Z</time>
      </trkpt>
      <trkpt lat="46.02979" lon="6.77796">
        <ele>1068.5</ele>
        <time>2000-01-02T10:48:53.000Z</time>
      </trkpt>
      <trkpt lat="46.02984" lon="6.7779">
        <ele>1067</ele>
        <time>2000-01-02T10:49:03.000Z</time>
      </trkpt>
      <trkpt lat="46.02975" lon="6.7779">
        <ele>1065.6</ele>
        <time>2000-01-02T10:49:13.000Z</time>
      </trkpt>
      <trkpt lat="46.02957" lon="6.77792">
        <ele>1060</ele>
        <time>2000-01-02T10:49:23.000Z</time>
      </trkpt>
      <trkpt lat="46.02946" lon="6.77797">
        <ele>1061.6</ele>
        <time>2000-01-02T10:49:33.000Z</time>
      </trkpt>
      <trkpt lat="46.02932" lon="6.77808">
        <ele>1058</ele>
        <time>2000-01-02T10:49:43.000Z</time>
      </trkpt>
      <trkpt lat="46.02919" lon="6.7782">
        <ele>1060.9</ele>
        <time>2000-01-02T10:49:53.000Z</time>
      </trkpt>
      <trkpt lat="46.02906" lon="6.77835">
        <ele>1056</ele>
        <time>2000-01-02T10:50:03.000Z</time>
      </trkpt>
      <trkpt lat="46.02895" lon="6.77854">
        <ele>1061.6</ele>
        <time>2000-01-02T10:50:13.000Z</time>
      </trkpt>
      <trkpt lat="46.02883" lon="6.7787">
        <ele>1056</ele>
        <time>2000-01-02T10:50:23.000Z</time>
      </trkpt>
      <trkpt lat="46.02874" lon="6.77879">
        <ele>1060.8</ele>
        <time>2000-01-02T10:50:33.000Z</time>
      </trkpt>
      <trkpt lat="46.02866" lon="6.77887">
        <ele>1056</ele>
        <time>2000-01-02T10:50:43.000Z</time>
      </trkpt>
      <trkpt lat="46.02863" lon="6.77889">
        <ele>1059.7</ele>
        <time>2000-01-02T10:50:53.000Z</time>
      </trkpt>
      <trkpt lat="46.02858" lon="6.77894">
        <ele>1059.2</ele>
        <time>2000-01-02T10:51:03.000Z</time>
      </trkpt>
      <trkpt lat="46.02852" lon="6.77902">
        <ele>1059.2</ele>
        <time>2000-01-02T10:51:13.000Z</time>
      </trkpt>
      <trkpt lat="46.02845" lon="6.7791">
        <ele>1055</ele>
        <time>2000-01-02T10:51:23.000Z</time>
      </trkpt>
      <trkpt lat="46.02834" lon="6.77922">
        <ele>1058</ele>
        <time>2000-01-02T10:51:33.000Z</time>
      </trkpt>
      <trkpt lat="46.02823" lon="6.77938">
        <ele>1055</ele>
        <time>2000-01-02T10:51:43.000Z</time>
      </trkpt>
      <trkpt lat="46.02812" lon="6.77953">
        <ele>1059.3</ele>
        <time>2000-01-02T10:51:53.000Z</time>
      </trkpt>
      <trkpt lat="46.02799" lon="6.77971">
        <ele>1055</ele>
        <time>2000-01-02T10:52:03.000Z</time>
      </trkpt>
      <trkpt lat="46.02785" lon="6.77989">
        <ele>1060.5</ele>
        <time>2000-01-02T10:52:13.000Z</time>
      </trkpt>
      <trkpt lat="46.02772" lon="6.78008">
        <ele>1056</ele>
        <time>2000-01-02T10:52:23.000Z</time>
      </trkpt>
      <trkpt lat="46.0276" lon="6.78021">
        <ele>1061.8</ele>
        <time>2000-01-02T10:52:33.000Z</time>
      </trkpt>
      <trkpt lat="46.02742" lon="6.78037">
        <ele>1055</ele>
        <time>2000-01-02T10:52:43.000Z</time>
      </trkpt>
      <trkpt lat="46.02736" lon="6.78043">
        <ele>1061</ele>
        <time>2000-01-02T10:52:53.000Z</time>
      </trkpt>
      <trkpt lat="46.0273" lon="6.78048">
        <ele>1060.8</ele>
        <time>2000-01-02T10:53:03.000Z</time>
      </trkpt>
      <trkpt lat="46.02719" lon="6.78057">
        <ele>1056</ele>
        <time>2000-01-02T10:53:13.000Z</time>
      </trkpt>
      <trkpt lat="46.02707" lon="6.78069">
        <ele>1060.2</ele>
        <time>2000-01-02T10:53:23.000Z</time>
      </trkpt>
      <trkpt lat="46.02694" lon="6.78089">
        <ele>1058</ele>
        <time>2000-01-02T10:53:33.000Z</time>
      </trkpt>
      <trkpt lat="46.02684" lon="6.78104">
        <ele>1066.4</ele>
        <time>2000-01-02T10:53:43.000Z</time>
      </trkpt>
      <trkpt lat="46.0267" lon="6.78114">
        <ele>1056</ele>
        <time>2000-01-02T10:53:53.000Z</time>
      </trkpt>
      <trkpt lat="46.02657" lon="6.78122">
        <ele>1063.9</ele>
        <time>2000-01-02T10:54:03.000Z</time>
      </trkpt>
      <trkpt lat="46.02645" lon="6.78129">
        <ele>1058</ele>
        <time>2000-01-02T10:54:13.000Z</time>
      </trkpt>
      <trkpt lat="46.02633" lon="6.7814">
        <ele>1061.9</ele>
        <time>2000-01-02T10:54:23.000Z</time>
      </trkpt>
      <trkpt lat="46.02625" lon="6.78152">
        <ele>1061</ele>
        <time>2000-01-02T10:54:33.000Z</time>
      </trkpt>
      <trkpt lat="46.02616" lon="6.78168">
        <ele>1065.8</ele>
        <time>2000-01-02T10:54:43.000Z</time>
      </trkpt>
      <trkpt lat="46.02608" lon="6.78184">
        <ele>1063</ele>
        <time>2000-01-02T10:54:53.000Z</time>
      </trkpt>
      <trkpt lat="46.02604" lon="6.78196">
        <ele>1071.8</ele>
        <time>2000-01-02T10:55:03.000Z</time>
      </trkpt>
      <trkpt lat="46.02602" lon="6.78201">
        <ele>1073.1</ele>
        <time>2000-01-02T10:55:13.000Z</time>
      </trkpt>
      <trkpt lat="46.02592" lon="6.7822">
        <ele>1068</ele>
        <time>2000-01-02T10:55:23.000Z</time>
      </trkpt>
      <trkpt lat="46.02584" lon="6.78233">
        <ele>1078.6</ele>
        <time>2000-01-02T10:55:33.000Z</time>
      </trkpt>
      <trkpt lat="46.02574" lon="6.78239">
        <ele>1069</ele>
        <time>2000-01-02T10:55:43.000Z</time>
      </trkpt>
      <trkpt lat="46.02562" lon="6.78244">
        <ele>1074.9</ele>
        <time>2000-01-02T10:55:53.000Z</time>
      </trkpt>
      <trkpt lat="46.02553" lon="6.78252">
        <ele>1071</ele>
        <time>2000-01-02T10:56:03.000Z</time>
      </trkpt>
      <trkpt lat="46.02546" lon="6.78263">
        <ele>1075.4</ele>
        <time>2000-01-02T10:56:13.000Z</time>
      </trkpt>
      <trkpt lat="46.02542" lon="6.78276">
        <ele>1075</ele>
        <time>2000-01-02T10:56:23.000Z</time>
      </trkpt>
      <trkpt lat="46.02537" lon="6.78293">
        <ele>1081.4</ele>
        <time>2000-01-02T10:56:33.000Z</time>
      </trkpt>
      <trkpt lat="46.02531" lon="6.78309">
        <ele>1080</ele>
        <time>2000-01-02T10:56:43.000Z</time>
      </trkpt>
      <trkpt lat="46.02525" lon="6.78321">
        <ele>1084.8</ele>
        <time>2000-01-02T10:56:53.000Z</time>
      </trkpt>
      <trkpt lat="46.02516" lon="6.78335">
        <ele>1079</ele>
        <time>2000-01-02T10:57:03.000Z</time>
      </trkpt>
      <trkpt lat="46.02508" lon="6.78343">
        <ele>1085.2</ele>
        <time>2000-01-02T10:57:13.000Z</time>
      </trkpt>
      <trkpt lat="46.02497" lon="6.78351">
        <ele>1079</ele>
        <time>2000-01-02T10:57:23.000Z</time>
      </trkpt>
      <trkpt lat="46.02488" lon="6.78357">
        <ele>1081.5</ele>
        <time>2000-01-02T10:57:33.000Z</time>
      </trkpt>
      <trkpt lat="46.02476" lon="6.78373">
        <ele>1079</ele>
        <time>2000-01-02T10:57:43.000Z</time>
      </trkpt>
      <trkpt lat="46.02459" lon="6.784">
        <ele>1080</ele>
        <time>2000-01-02T10:57:53.000Z</time>
      </trkpt>
      <trkpt lat="46.02448" lon="6.78418">
        <ele>1086.3</ele>
        <time>2000-01-02T10:58:03.000Z</time>
      </trkpt>
      <trkpt lat="46.02433" lon="6.78443">
        <ele>1080</ele>
        <time>2000-01-02T10:58:13.000Z</time>
      </trkpt>
      <trkpt lat="46.02422" lon="6.78461">
        <ele>1090.4</ele>
        <time>2000-01-02T10:58:23.000Z</time>
      </trkpt>
      <trkpt lat="46.0241" lon="6.78478">
        <ele>1081</ele>
        <time>2000-01-02T10:58:33.000Z</time>
      </trkpt>
      <trkpt lat="46.02395" lon="6.78497">
        <ele>1084</ele>
        <time>2000-01-02T10:58:43.000Z</time>
      </trkpt>
      <trkpt lat="46.02388" lon="6.78508">
        <ele>1090.8</ele>
        <time>2000-01-02T10:58:53.000Z</time>
      </trkpt>
      <trkpt lat="46.02385" lon="6.78512">
        <ele>1091</ele>
        <time>2000-01-02T10:59:03.000Z</time>
      </trkpt>
      <trkpt lat="46.02378" lon="6.78523">
        <ele>1084</ele>
        <time>2000-01-02T10:59:13.000Z</time>
      </trkpt>
      <trkpt lat="46.02372" lon="6.78532">
        <ele>1092.1</ele>
        <time>2000-01-02T10:59:23.000Z</time>
      </trkpt>
      <trkpt lat="46.02369" lon="6.78537">
        <ele>1092.4</ele>
        <time>2000-01-02T10:59:33.000Z</time>
      </trkpt>
      <trkpt lat="46.02366" lon="6.78545">
        <ele>1088</ele>
        <time>2000-01-02T10:59:43.000Z</time>
      </trkpt>
      <trkpt lat="46.02361" lon="6.78553">
        <ele>1094</ele>
        <time>2000-01-02T10:59:53.000Z</time>
      </trkpt>
      <trkpt lat="46.02358" lon="6.7856">
        <ele>1095.5</ele>
        <time>2000-01-02T11:00:03.000Z</time>
      </trkpt>
      <trkpt lat="46.02348" lon="6.78577">
        <ele>1090</ele>
        <time>2000-01-02T11:00:13.000Z</time>
      </trkpt>
      <trkpt lat="46.02342" lon="6.78591">
        <ele>1099.9</ele>
        <time>2000-01-02T11:00:23.000Z</time>
      </trkpt>
      <trkpt lat="46.02334" lon="6.78606">
        <ele>1092</ele>
        <time>2000-01-02T11:00:33.000Z</time>
      </trkpt>
      <trkpt lat="46.02327" lon="6.78621">
        <ele>1104.3</ele>
        <time>2000-01-02T11:00:43.000Z</time>
      </trkpt>
      <trkpt lat="46.02319" lon="6.78629">
        <ele>1095</ele>
        <time>2000-01-02T11:00:53.000Z</time>
      </trkpt>
      <trkpt lat="46.02311" lon="6.7864">
        <ele>1104.8</ele>
        <time>2000-01-02T11:01:03.000Z</time>
      </trkpt>
      <trkpt lat="46.02302" lon="6.78654">
        <ele>1098</ele>
        <time>2000-01-02T11:01:13.000Z</time>
      </trkpt>
      <trkpt lat="46.02295" lon="6.78671">
        <ele>1108.2</ele>
        <time>2000-01-02T11:01:23.000Z</time>
      </trkpt>
      <trkpt lat="46.02288" lon="6.78685">
        <ele>1102</ele>
        <time>2000-01-02T11:01:33.000Z</time>
      </trkpt>
      <trkpt lat="46.02285" lon="6.78698">
        <ele>1110.1</ele>
        <time>2000-01-02T11:01:43.000Z</time>
      </trkpt>
      <trkpt lat="46.02284" lon="6.78719">
        <ele>1108</ele>
        <time>2000-01-02T11:01:53.000Z</time>
      </trkpt>
      <trkpt lat="46.02284" lon="6.78721">
        <ele>1113.9</ele>
        <time>2000-01-02T11:02:03.000Z</time>
      </trkpt>
      <trkpt lat="46.02283" lon="6.78737">
        <ele>1116.3</ele>
        <time>2000-01-02T11:02:13.000Z</time>
      </trkpt>
      <trkpt lat="46.02281" lon="6.78745">
        <ele>1108</ele>
        <time>2000-01-02T11:02:23.000Z</time>
      </trkpt>
      <trkpt lat="46.02276" lon="6.78753">
        <ele>1115.5</ele>
        <time>2000-01-02T11:02:33.000Z</time>
      </trkpt>
      <trkpt lat="46.02267" lon="6.78764">
        <ele>1112.3</ele>
        <time>2000-01-02T11:02:43.000Z</time>
      </trkpt>
      <trkpt lat="46.0226" lon="6.78778">
        <ele>1109</ele>
        <time>2000-01-02T11:02:53.000Z</time>
      </trkpt>
      <trkpt lat="46.02255" lon="6.78797">
        <ele>1111.3</ele>
        <time>2000-01-02T11:03:03.000Z</time>
      </trkpt>
      <trkpt lat="46.02251" lon="6.78825">
        <ele>1108</ele>
        <time>2000-01-02T11:03:13.000Z</time>
      </trkpt>
      <trkpt lat="46.02249" lon="6.78845">
        <ele>1114</ele>
        <time>2000-01-02T11:03:23.000Z</time>
      </trkpt>
      <trkpt lat="46.02248" lon="6.78868">
        <ele>1112</ele>
        <time>2000-01-02T11:03:33.000Z</time>
      </trkpt>
      <trkpt lat="46.02249" lon="6.7889">
        <ele>1117.2</ele>
        <time>2000-01-02T11:03:43.000Z</time>
      </trkpt>
      <trkpt lat="46.02251" lon="6.78911">
        <ele>1117</ele>
        <time>2000-01-02T11:03:53.000Z</time>
      </trkpt>
      <trkpt lat="46.02254" lon="6.78934">
        <ele>1124.2</ele>
        <time>2000-01-02T11:04:03.000Z</time>
      </trkpt>
      <trkpt lat="46.02255" lon="6.78949">
        <ele>1119</ele>
        <time>2000-01-02T11:04:13.000Z</time>
      </trkpt>
      <trkpt lat="46.02254" lon="6.78973">
        <ele>1128.1</ele>
        <time>2000-01-02T11:04:23.000Z</time>
      </trkpt>
      <trkpt lat="46.02251" lon="6.78994">
        <ele>1125</ele>
        <time>2000-01-02T11:04:33.000Z</time>
      </trkpt>
      <trkpt lat="46.0225" lon="6.79016">
        <ele>1130.3</ele>
        <time>2000-01-02T11:04:43.000Z</time>
      </trkpt>
      <trkpt lat="46.02249" lon="6.79038">
        <ele>1125</ele>
        <time>2000-01-02T11:04:53.000Z</time>
      </trkpt>
      <trkpt lat="46.02249" lon="6.79057">
        <ele>1136.4</ele>
        <time>2000-01-02T11:05:03.000Z</time>
      </trkpt>
      <trkpt lat="46.02252" lon="6.79083">
        <ele>1139</ele>
        <time>2000-01-02T11:05:13.000Z</time>
      </trkpt>
      <trkpt lat="46.02254" lon="6.79103">
        <ele>1147.3</ele>
        <time>2000-01-02T11:05:23.000Z</time>
      </trkpt>
      <trkpt lat="46.02257" lon="6.79124">
        <ele>1145</ele>
        <time>2000-01-02T11:05:33.000Z</time>
      </trkpt>
      <trkpt lat="46.0226" lon="6.79146">
        <ele>1158.1</ele>
        <time>2000-01-02T11:05:43.000Z</time>
      </trkpt>
      <trkpt lat="46.02261" lon="6.79151">
        <ele>1158</ele>
        <time>2000-01-02T11:05:53.000Z</time>
      </trkpt>
      <trkpt lat="46.02263" lon="6.79162">
        <ele>1163.1</ele>
        <time>2000-01-02T11:06:03.000Z</time>
      </trkpt>
      <trkpt lat="46.02264" lon="6.79177">
        <ele>1166.2</ele>
        <time>2000-01-02T11:06:13.000Z</time>
      </trkpt>
      <trkpt lat="46.02264" lon="6.79197">
        <ele>1165</ele>
        <time>2000-01-02T11:06:23.000Z</time>
      </trkpt>
      <trkpt lat="46.02263" lon="6.79213">
        <ele>1170.8</ele>
        <time>2000-01-02T11:06:33.000Z</time>
      </trkpt>
      <trkpt lat="46.02261" lon="6.79226">
        <ele>1170</ele>
        <time>2000-01-02T11:06:43.000Z</time>
      </trkpt>
      <trkpt lat="46.02261" lon="6.7924">
        <ele>1172.1</ele>
        <time>2000-01-02T11:06:53.000Z</time>
      </trkpt>
      <trkpt lat="46.02264" lon="6.79247">
        <ele>1174.3</ele>
        <time>2000-01-02T11:07:03.000Z</time>
      </trkpt>
      <trkpt lat="46.02268" lon="6.79251">
        <ele>1173</ele>
        <time>2000-01-02T11:07:13.000Z</time>
      </trkpt>
      <trkpt lat="46.02275" lon="6.79253">
        <ele>1180.7</ele>
        <time>2000-01-02T11:07:23.000Z</time>
      </trkpt>
      <trkpt lat="46.02286" lon="6.79254">
        <ele>1186.1</ele>
        <time>2000-01-02T11:07:33.000Z</time>
      </trkpt>
      <trkpt lat="46.02295" lon="6.79257">
        <ele>1188</ele>
        <time>2000-01-02T11:07:43.000Z</time>
      </trkpt>
      <trkpt lat="46.02303" lon="6.79262">
        <ele>1194.3</ele>
        <time>2000-01-02T11:07:53.000Z</time>
      </trkpt>
      <trkpt lat="46.02308" lon="6.79269">
        <ele>1196.9</ele>
        <time>2000-01-02T11:08:03.000Z</time>
      </trkpt>
      <trkpt lat="46.0231" lon="6.79276">
        <ele>1192</ele>
        <time>2000-01-02T11:08:13.000Z</time>
      </trkpt>
      <trkpt lat="46.02308" lon="6.79288">
        <ele>1199.1</ele>
        <time>2000-01-02T11:08:23.000Z</time>
      </trkpt>
      <trkpt lat="46.02304" lon="6.793">
        <ele>1199.3</ele>
        <time>2000-01-02T11:08:33.000Z</time>
      </trkpt>
      <trkpt lat="46.02293" lon="6.79318">
        <ele>1195</ele>
        <time>2000-01-02T11:08:43.000Z</time>
      </trkpt>
      <trkpt lat="46.02282" lon="6.79334">
        <ele>1199.3</ele>
        <time>2000-01-02T11:08:53.000Z</time>
      </trkpt>
      <trkpt lat="46.02274" lon="6.79352">
        <ele>1196</ele>
        <time>2000-01-02T11:09:03.000Z</time>
      </trkpt>
      <trkpt lat="46.02271" lon="6.79371">
        <ele>1199.6</ele>
        <time>2000-01-02T11:09:13.000Z</time>
      </trkpt>
      <trkpt lat="46.02271" lon="6.79389">
        <ele>1199</ele>
        <time>2000-01-02T11:09:23.000Z</time>
      </trkpt>
      <trkpt lat="46.02273" lon="6.79405">
        <ele>1202.7</ele>
        <time>2000-01-02T11:09:33.000Z</time>
      </trkpt>
      <trkpt lat="46.0228" lon="6.79419">
        <ele>1206</ele>
        <time>2000-01-02T11:09:43.000Z</time>
      </trkpt>
      <trkpt lat="46.02288" lon="6.7943">
        <ele>1214.7</ele>
        <time>2000-01-02T11:09:53.000Z</time>
      </trkpt>
      <trkpt lat="46.02294" lon="6.79436">
        <ele>1219.4</ele>
        <time>2000-01-02T11:10:03.000Z</time>
      </trkpt>
      <trkpt lat="46.02297" lon="6.79442">
        <ele>1208</ele>
        <time>2000-01-02T11:10:13.000Z</time>
      </trkpt>
      <trkpt lat="46.02298" lon="6.79447">
        <ele>1223</ele>
        <time>2000-01-02T11:10:23.000Z</time>
      </trkpt>
      <trkpt lat="46.02298" lon="6.79451">
        <ele>1223.6</ele>
        <time>2000-01-02T11:10:33.000Z</time>
      </trkpt>
      <trkpt lat="46.02298" lon="6.79455">
        <ele>1224.3</ele>
        <time>2000-01-02T11:10:43.000Z</time>
      </trkpt>
      <trkpt lat="46.02294" lon="6.79461">
        <ele>1222.6</ele>
        <time>2000-01-02T11:10:53.000Z</time>
      </trkpt>
      <trkpt lat="46.02289" lon="6.79469">
        <ele>1211</ele>
        <time>2000-01-02T11:11:03.000Z</time>
      </trkpt>
      <trkpt lat="46.02285" lon="6.7948">
        <ele>1220.6</ele>
        <time>2000-01-02T11:11:13.000Z</time>
      </trkpt>
      <trkpt lat="46.02281" lon="6.79498">
        <ele>1218</ele>
        <time>2000-01-02T11:11:23.000Z</time>
      </trkpt>
      <trkpt lat="46.02281" lon="6.79517">
        <ele>1226.8</ele>
        <time>2000-01-02T11:11:33.000Z</time>
      </trkpt>
      <trkpt lat="46.0228" lon="6.79528">
        <ele>1219</ele>
        <time>2000-01-02T11:11:43.000Z</time>
      </trkpt>
      <trkpt lat="46.0228" lon="6.79546">
        <ele>1231.7</ele>
        <time>2000-01-02T11:11:53.000Z</time>
      </trkpt>
      <trkpt lat="46.02279" lon="6.79559">
        <ele>1224</ele>
        <time>2000-01-02T11:12:03.000Z</time>
      </trkpt>
      <trkpt lat="46.02277" lon="6.79575">
        <ele>1232.8</ele>
        <time>2000-01-02T11:12:13.000Z</time>
      </trkpt>
      <trkpt lat="46.02276" lon="6.79586">
        <ele>1225</ele>
        <time>2000-01-02T11:12:23.000Z</time>
      </trkpt>
      <trkpt lat="46.02276" lon="6.79599">
        <ele>1232.6</ele>
        <time>2000-01-02T11:12:33.000Z</time>
      </trkpt>
      <trkpt lat="46.02277" lon="6.79624">
        <ele>1226</ele>
        <time>2000-01-02T11:12:43.000Z</time>
      </trkpt>
      <trkpt lat="46.02279" lon="6.7964">
        <ele>1232.8</ele>
        <time>2000-01-02T11:12:53.000Z</time>
      </trkpt>
      <trkpt lat="46.02281" lon="6.79655">
        <ele>1232</ele>
        <time>2000-01-02T11:13:03.000Z</time>
      </trkpt>
      <trkpt lat="46.02283" lon="6.79663">
        <ele>1234.4</ele>
        <time>2000-01-02T11:13:13.000Z</time>
      </trkpt>
      <trkpt lat="46.02287" lon="6.7967">
        <ele>1237.1</ele>
        <time>2000-01-02T11:13:23.000Z</time>
      </trkpt>
      <trkpt lat="46.02292" lon="6.79679">
        <ele>1234</ele>
        <time>2000-01-02T11:13:33.000Z</time>
      </trkpt>
      <trkpt lat="46.02294" lon="6.79685">
        <ele>1241.9</ele>
        <time>2000-01-02T11:13:43.000Z</time>
      </trkpt>
      <trkpt lat="46.02295" lon="6.79693">
        <ele>1242.3</ele>
        <time>2000-01-02T11:13:53.000Z</time>
      </trkpt>
      <trkpt lat="46.02295" lon="6.79702">
        <ele>1242</ele>
        <time>2000-01-02T11:14:03.000Z</time>
      </trkpt>
      <trkpt lat="46.02294" lon="6.79719">
        <ele>1237</ele>
        <time>2000-01-02T11:14:13.000Z</time>
      </trkpt>
      <trkpt lat="46.02293" lon="6.79739">
        <ele>1239.6</ele>
        <time>2000-01-02T11:14:23.000Z</time>
      </trkpt>
      <trkpt lat="46.02294" lon="6.79754">
        <ele>1237</ele>
        <time>2000-01-02T11:14:33.000Z</time>
      </trkpt>
      <trkpt lat="46.02295" lon="6.79761">
        <ele>1241.4</ele>
        <time>2000-01-02T11:14:43.000Z</time>
      </trkpt>
      <trkpt lat="46.02296" lon="6.79768">
        <ele>1242.3</ele>
        <time>2000-01-02T11:14:53.000Z</time>
      </trkpt>
      <trkpt lat="46.02296" lon="6.79774">
        <ele>1242.4</ele>
        <time>2000-01-02T11:15:03.000Z</time>
      </trkpt>
      <trkpt lat="46.02294" lon="6.79785">
        <ele>1238</ele>
        <time>2000-01-02T11:15:13.000Z</time>
      </trkpt>
      <trkpt lat="46.02296" lon="6.79799">
        <ele>1244.2</ele>
        <time>2000-01-02T11:15:23.000Z</time>
      </trkpt>
      <trkpt lat="46.023" lon="6.79813">
        <ele>1247</ele>
        <time>2000-01-02T11:15:33.000Z</time>
      </trkpt>
      <trkpt lat="46.02306" lon="6.7983">
        <ele>1254</ele>
        <time>2000-01-02T11:15:43.000Z</time>
      </trkpt>
      <trkpt lat="46.0231" lon="6.79843">
        <ele>1251</ele>
        <time>2000-01-02T11:15:53.000Z</time>
      </trkpt>
      <trkpt lat="46.02311" lon="6.7985">
        <ele>1260.9</ele>
        <time>2000-01-02T11:16:03.000Z</time>
      </trkpt>
      <trkpt lat="46.0231" lon="6.79855">
        <ele>1261.2</ele>
        <time>2000-01-02T11:16:13.000Z</time>
      </trkpt>
      <trkpt lat="46.02307" lon="6.7986">
        <ele>1260.5</ele>
        <time>2000-01-02T11:16:23.000Z</time>
      </trkpt>
      <trkpt lat="46.023" lon="6.79865">
        <ele>1250</ele>
        <time>2000-01-02T11:16:33.000Z</time>
      </trkpt>
      <trkpt lat="46.02294" lon="6.79869">
        <ele>1256.1</ele>
        <time>2000-01-02T11:16:43.000Z</time>
      </trkpt>
      <trkpt lat="46.02283" lon="6.79879">
        <ele>1252</ele>
        <time>2000-01-02T11:16:53.000Z</time>
      </trkpt>
      <trkpt lat="46.02275" lon="6.79896">
        <ele>1254</ele>
        <time>2000-01-02T11:17:03.000Z</time>
      </trkpt>
      <trkpt lat="46.02273" lon="6.79921">
        <ele>1255</ele>
        <time>2000-01-02T11:17:13.000Z</time>
      </trkpt>
      <trkpt lat="46.02274" lon="6.79945">
        <ele>1263.2</ele>
        <time>2000-01-02T11:17:23.000Z</time>
      </trkpt>
      <trkpt lat="46.02275" lon="6.79958">
        <ele>1261</ele>
        <time>2000-01-02T11:17:33.000Z</time>
      </trkpt>
      <trkpt lat="46.02274" lon="6.79964">
        <ele>1266.7</ele>
        <time>2000-01-02T11:17:43.000Z</time>
      </trkpt>
      <trkpt lat="46.02273" lon="6.79973">
        <ele>1267.9</ele>
        <time>2000-01-02T11:17:53.000Z</time>
      </trkpt>
      <trkpt lat="46.02272" lon="6.7998">
        <ele>1268.8</ele>
        <time>2000-01-02T11:18:03.000Z</time>
      </trkpt>
      <trkpt lat="46.02268" lon="6.79988">
        <ele>1263</ele>
        <time>2000-01-02T11:18:13.000Z</time>
      </trkpt>
      <trkpt lat="46.02263" lon="6.8">
        <ele>1268.6</ele>
        <time>2000-01-02T11:18:23.000Z</time>
      </trkpt>
      <trkpt lat="46.02256" lon="6.80016">
        <ele>1263</ele>
        <time>2000-01-02T11:18:33.000Z</time>
      </trkpt>
      <trkpt lat="46.02254" lon="6.80023">
        <ele>1268.2</ele>
        <time>2000-01-02T11:18:43.000Z</time>
      </trkpt>
      <trkpt lat="46.02253" lon="6.80027">
        <ele>1268.3</ele>
        <time>2000-01-02T11:18:53.000Z</time>
      </trkpt>
      <trkpt lat="46.02253" lon="6.80035">
        <ele>1268.5</ele>
        <time>2000-01-02T11:19:03.000Z</time>
      </trkpt>
      <trkpt lat="46.02254" lon="6.80042">
        <ele>1269.1</ele>
        <time>2000-01-02T11:19:13.000Z</time>
      </trkpt>
      <trkpt lat="46.02257" lon="6.80052">
        <ele>1266</ele>
        <time>2000-01-02T11:19:23.000Z</time>
      </trkpt>
      <trkpt lat="46.0226" lon="6.8006">
        <ele>1272.8</ele>
        <time>2000-01-02T11:19:33.000Z</time>
      </trkpt>
      <trkpt lat="46.02262" lon="6.80065">
        <ele>1274</ele>
        <time>2000-01-02T11:19:43.000Z</time>
      </trkpt>
      <trkpt lat="46.02266" lon="6.80068">
        <ele>1276.5</ele>
        <time>2000-01-02T11:19:53.000Z</time>
      </trkpt>
      <trkpt lat="46.02272" lon="6.80072">
        <ele>1269</ele>
        <time>2000-01-02T11:20:03.000Z</time>
      </trkpt>
      <trkpt lat="46.02275" lon="6.80078">
        <ele>1282.8</ele>
        <time>2000-01-02T11:20:13.000Z</time>
      </trkpt>
      <trkpt lat="46.02275" lon="6.80085">
        <ele>1283.1</ele>
        <time>2000-01-02T11:20:23.000Z</time>
      </trkpt>
      <trkpt lat="46.02274" lon="6.80091">
        <ele>1282.6</ele>
        <time>2000-01-02T11:20:33.000Z</time>
      </trkpt>
      <trkpt lat="46.02271" lon="6.80095">
        <ele>1280.5</ele>
        <time>2000-01-02T11:20:43.000Z</time>
      </trkpt>
      <trkpt lat="46.02267" lon="6.80098">
        <ele>1265</ele>
        <time>2000-01-02T11:20:53.000Z</time>
      </trkpt>
      <trkpt lat="46.02265" lon="6.80102">
        <ele>1276</ele>
        <time>2000-01-02T11:21:03.000Z</time>
      </trkpt>
      <trkpt lat="46.02264" lon="6.80109">
        <ele>1275.1</ele>
        <time>2000-01-02T11:21:13.000Z</time>
      </trkpt>
      <trkpt lat="46.02261" lon="6.80121">
        <ele>1273.1</ele>
        <time>2000-01-02T11:21:23.000Z</time>
      </trkpt>
      <trkpt lat="46.02257" lon="6.80137">
        <ele>1262</ele>
        <time>2000-01-02T11:21:33.000Z</time>
      </trkpt>
      <trkpt lat="46.02254" lon="6.80156">
        <ele>1268.3</ele>
        <time>2000-01-02T11:21:43.000Z</time>
      </trkpt>
      <trkpt lat="46.02253" lon="6.80173">
        <ele>1262</ele>
        <time>2000-01-02T11:21:53.000Z</time>
      </trkpt>
      <trkpt lat="46.02252" lon="6.80194">
        <ele>1266.9</ele>
        <time>2000-01-02T11:22:03.000Z</time>
      </trkpt>
      <trkpt lat="46.02254" lon="6.80216">
        <ele>1262</ele>
        <time>2000-01-02T11:22:13.000Z</time>
      </trkpt>
      <trkpt lat="46.02255" lon="6.80236">
        <ele>1269.4</ele>
        <time>2000-01-02T11:22:23.000Z</time>
      </trkpt>
      <trkpt lat="46.02256" lon="6.80244">
        <ele>1262</ele>
        <time>2000-01-02T11:22:33.000Z</time>
      </trkpt>
      <trkpt lat="46.02257" lon="6.80249">
        <ele>1270.8</ele>
        <time>2000-01-02T11:22:43.000Z</time>
      </trkpt>
      <trkpt lat="46.02257" lon="6.80251">
        <ele>1270.7</ele>
        <time>2000-01-02T11:22:53.000Z</time>
      </trkpt>
      <trkpt lat="46.02257" lon="6.80257">
        <ele>1270.3</ele>
        <time>2000-01-02T11:23:03.000Z</time>
      </trkpt>
      <trkpt lat="46.02257" lon="6.80262">
        <ele>1269.9</ele>
        <time>2000-01-02T11:23:13.000Z</time>
      </trkpt>
      <trkpt lat="46.02256" lon="6.80266">
        <ele>1268.7</ele>
        <time>2000-01-02T11:23:23.000Z</time>
      </trkpt>
      <trkpt lat="46.02256" lon="6.80269">
        <ele>1268.5</ele>
        <time>2000-01-02T11:23:33.000Z</time>
      </trkpt>
      <trkpt lat="46.02257" lon="6.80272">
        <ele>1260</ele>
        <time>2000-01-02T11:23:43.000Z</time>
      </trkpt>
      <trkpt lat="46.02258" lon="6.80282">
        <ele>1269.3</ele>
        <time>2000-01-02T11:23:53.000Z</time>
      </trkpt>
      <trkpt lat="46.02259" lon="6.80295">
        <ele>1268.7</ele>
        <time>2000-01-02T11:24:03.000Z</time>
      </trkpt>
      <trkpt lat="46.0226" lon="6.80299">
        <ele>1268</ele>
        <time>2000-01-02T11:24:13.000Z</time>
      </trkpt>
      <trkpt lat="46.02263" lon="6.80306">
        <ele>1271.5</ele>
        <time>2000-01-02T11:24:23.000Z</time>
      </trkpt>
      <trkpt lat="46.02266" lon="6.80309">
        <ele>1274.4</ele>
        <time>2000-01-02T11:24:33.000Z</time>
      </trkpt>
      <trkpt lat="46.02269" lon="6.80314">
        <ele>1277.1</ele>
        <time>2000-01-02T11:24:43.000Z</time>
      </trkpt>
      <trkpt lat="46.02272" lon="6.80335">
        <ele>1270</ele>
        <time>2000-01-02T11:24:53.000Z</time>
      </trkpt>
      <trkpt lat="46.02273" lon="6.80348">
        <ele>1277.2</ele>
        <time>2000-01-02T11:25:03.000Z</time>
      </trkpt>
      <trkpt lat="46.02276" lon="6.80369">
        <ele>1266</ele>
        <time>2000-01-02T11:25:13.000Z</time>
      </trkpt>
      <trkpt lat="46.02278" lon="6.80384">
        <ele>1277.1</ele>
        <time>2000-01-02T11:25:23.000Z</time>
      </trkpt>
      <trkpt lat="46.02279" lon="6.80411">
        <ele>1269</ele>
        <time>2000-01-02T11:25:33.000Z</time>
      </trkpt>
      <trkpt lat="46.02281" lon="6.80438">
        <ele>1269</ele>
        <time>2000-01-02T11:25:43.000Z</time>
      </trkpt>
      <trkpt lat="46.02283" lon="6.80448">
        <ele>1281.3</ele>
        <time>2000-01-02T11:25:53.000Z</time>
      </trkpt>
      <trkpt lat="46.02283" lon="6.80452">
        <ele>1281.7</ele>
        <time>2000-01-02T11:26:03.000Z</time>
      </trkpt>
      <trkpt lat="46.02282" lon="6.80458">
        <ele>1281.3</ele>
        <time>2000-01-02T11:26:13.000Z</time>
      </trkpt>
      <trkpt lat="46.02279" lon="6.80462">
        <ele>1278.3</ele>
        <time>2000-01-02T11:26:23.000Z</time>
      </trkpt>
      <trkpt lat="46.02276" lon="6.80466">
        <ele>1269</ele>
        <time>2000-01-02T11:26:33.000Z</time>
      </trkpt>
      <trkpt lat="46.02272" lon="6.80468">
        <ele>1271.7</ele>
        <time>2000-01-02T11:26:43.000Z</time>
      </trkpt>
      <trkpt lat="46.02268" lon="6.8047">
        <ele>1267.8</ele>
        <time>2000-01-02T11:26:53.000Z</time>
      </trkpt>
      <trkpt lat="46.02263" lon="6.80474">
        <ele>1263.4</ele>
        <time>2000-01-02T11:27:03.000Z</time>
      </trkpt>
      <trkpt lat="46.0226" lon="6.80482">
        <ele>1263</ele>
        <time>2000-01-02T11:27:13.000Z</time>
      </trkpt>
      <trkpt lat="46.02257" lon="6.80495">
        <ele>1261.4</ele>
        <time>2000-01-02T11:27:23.000Z</time>
      </trkpt>
      <trkpt lat="46.02254" lon="6.80509">
        <ele>1262</ele>
        <time>2000-01-02T11:27:33.000Z</time>
      </trkpt>
      <trkpt lat="46.02255" lon="6.80516">
        <ele>1264.6</ele>
        <time>2000-01-02T11:27:43.000Z</time>
      </trkpt>
      <trkpt lat="46.02256" lon="6.80527">
        <ele>1268.1</ele>
        <time>2000-01-02T11:27:53.000Z</time>
      </trkpt>
      <trkpt lat="46.02258" lon="6.80536">
        <ele>1262</ele>
        <time>2000-01-02T11:28:03.000Z</time>
      </trkpt>
      <trkpt lat="46.02258" lon="6.80546">
        <ele>1273.1</ele>
        <time>2000-01-02T11:28:13.000Z</time>
      </trkpt>
      <trkpt lat="46.02257" lon="6.80558">
        <ele>1274.8</ele>
        <time>2000-01-02T11:28:23.000Z</time>
      </trkpt>
      <trkpt lat="46.02256" lon="6.80564">
        <ele>1269</ele>
        <time>2000-01-02T11:28:33.000Z</time>
      </trkpt>
      <trkpt lat="46.02254" lon="6.80567">
        <ele>1274.9</ele>
        <time>2000-01-02T11:28:43.000Z</time>
      </trkpt>
      <trkpt lat="46.0225" lon="6.80572">
        <ele>1273.6</ele>
        <time>2000-01-02T11:28:53.000Z</time>
      </trkpt>
      <trkpt lat="46.02247" lon="6.80576">
        <ele>1272.9</ele>
        <time>2000-01-02T11:29:03.000Z</time>
      </trkpt>
      <trkpt lat="46.02246" lon="6.80578">
        <ele>1272.8</ele>
        <time>2000-01-02T11:29:13.000Z</time>
      </trkpt>
      <trkpt lat="46.02242" lon="6.80585">
        <ele>1269</ele>
        <time>2000-01-02T11:29:23.000Z</time>
      </trkpt>
      <trkpt lat="46.02238" lon="6.80593">
        <ele>1272</ele>
        <time>2000-01-02T11:29:33.000Z</time>
      </trkpt>
      <trkpt lat="46.02236" lon="6.80601">
        <ele>1272.9</ele>
        <time>2000-01-02T11:29:43.000Z</time>
      </trkpt>
      <trkpt lat="46.02235" lon="6.80606">
        <ele>1273.5</ele>
        <time>2000-01-02T11:29:53.000Z</time>
      </trkpt>
      <trkpt lat="46.02232" lon="6.80622">
        <ele>1270</ele>
        <time>2000-01-02T11:30:03.000Z</time>
      </trkpt>
      <trkpt lat="46.0223" lon="6.80632">
        <ele>1277.2</ele>
        <time>2000-01-02T11:30:13.000Z</time>
      </trkpt>
      <trkpt lat="46.02229" lon="6.80642">
        <ele>1278.4</ele>
        <time>2000-01-02T11:30:23.000Z</time>
      </trkpt>
      <trkpt lat="46.0223" lon="6.8065">
        <ele>1271</ele>
        <time>2000-01-02T11:30:33.000Z</time>
      </trkpt>
      <trkpt lat="46.02231" lon="6.80655">
        <ele>1279.5</ele>
        <time>2000-01-02T11:30:43.000Z</time>
      </trkpt>
      <trkpt lat="46.02234" lon="6.80663">
        <ele>1281</ele>
        <time>2000-01-02T11:30:53.000Z</time>
      </trkpt>
      <trkpt lat="46.02239" lon="6.80677">
        <ele>1278</ele>
        <time>2000-01-02T11:31:03.000Z</time>
      </trkpt>
      <trkpt lat="46.0224" lon="6.80681">
        <ele>1282.8</ele>
        <time>2000-01-02T11:31:13.000Z</time>
      </trkpt>
      <trkpt lat="46.0224" lon="6.80684">
        <ele>1282.6</ele>
        <time>2000-01-02T11:31:23.000Z</time>
      </trkpt>
      <trkpt lat="46.02236" lon="6.80699">
        <ele>1280.6</ele>
        <time>2000-01-02T11:31:33.000Z</time>
      </trkpt>
      <trkpt lat="46.02231" lon="6.80716">
        <ele>1278</ele>
        <time>2000-01-02T11:31:43.000Z</time>
      </trkpt>
      <trkpt lat="46.0223" lon="6.80718">
        <ele>1280.9</ele>
        <time>2000-01-02T11:31:53.000Z</time>
      </trkpt>
      <trkpt lat="46.02228" lon="6.8072">
        <ele>1280.9</ele>
        <time>2000-01-02T11:32:03.000Z</time>
      </trkpt>
      <trkpt lat="46.02228" lon="6.8072">
        <ele>1280.9</ele>
        <time>2000-01-02T11:32:13.000Z</time>
      </trkpt>
      <trkpt lat="46.02228" lon="6.8072">
        <ele>1280.9</ele>
        <time>2000-01-02T11:32:23.000Z</time>
      </trkpt>
      <trkpt lat="46.02221" lon="6.80718">
        <ele>1280.2</ele>
        <time>2000-01-02T11:32:33.000Z</time>
      </trkpt>
      <trkpt lat="46.02214" lon="6.80714">
        <ele>1279.4</ele>
        <time>2000-01-02T11:32:43.000Z</time>
      </trkpt>
      <trkpt lat="46.02209" lon="6.80713">
        <ele>1280</ele>
        <time>2000-01-02T11:32:53.000Z</time>
      </trkpt>
      <trkpt lat="46.02204" lon="6.80715">
        <ele>1279.5</ele>
        <time>2000-01-02T11:33:03.000Z</time>
      </trkpt>
      <trkpt lat="46.022" lon="6.80722">
        <ele>1281</ele>
        <time>2000-01-02T11:33:13.000Z</time>
      </trkpt>
      <trkpt lat="46.02194" lon="6.80736">
        <ele>1283</ele>
        <time>2000-01-02T11:33:23.000Z</time>
      </trkpt>
      <trkpt lat="46.02186" lon="6.80746">
        <ele>1289.1</ele>
        <time>2000-01-02T11:33:33.000Z</time>
      </trkpt>
      <trkpt lat="46.02181" lon="6.80751">
        <ele>1290.8</ele>
        <time>2000-01-02T11:33:43.000Z</time>
      </trkpt>
      <trkpt lat="46.02178" lon="6.80752">
        <ele>1290</ele>
        <time>2000-01-02T11:33:53.000Z</time>
      </trkpt>
      <trkpt lat="46.02171" lon="6.80752">
        <ele>1291.5</ele>
        <time>2000-01-02T11:34:03.000Z</time>
      </trkpt>
      <trkpt lat="46.02165" lon="6.80753">
        <ele>1292.3</ele>
        <time>2000-01-02T11:34:13.000Z</time>
      </trkpt>
      <trkpt lat="46.02156" lon="6.80754">
        <ele>1294</ele>
        <time>2000-01-02T11:34:23.000Z</time>
      </trkpt>
      <trkpt lat="46.02146" lon="6.80755">
        <ele>1296.5</ele>
        <time>2000-01-02T11:34:33.000Z</time>
      </trkpt>
      <trkpt lat="46.02144" lon="6.80756">
        <ele>1297.1</ele>
        <time>2000-01-02T11:34:43.000Z</time>
      </trkpt>
      <trkpt lat="46.02144" lon="6.80758">
        <ele>1297.5</ele>
        <time>2000-01-02T11:34:53.000Z</time>
      </trkpt>
      <trkpt lat="46.02146" lon="6.80761">
        <ele>1297.8</ele>
        <time>2000-01-02T11:35:03.000Z</time>
      </trkpt>
      <trkpt lat="46.02149" lon="6.80764">
        <ele>1295</ele>
        <time>2000-01-02T11:35:13.000Z</time>
      </trkpt>
      <trkpt lat="46.02152" lon="6.80765">
        <ele>1297.9</ele>
        <time>2000-01-02T11:35:23.000Z</time>
      </trkpt>
      <trkpt lat="46.02158" lon="6.80767">
        <ele>1297.6</ele>
        <time>2000-01-02T11:35:33.000Z</time>
      </trkpt>
      <trkpt lat="46.02165" lon="6.80769">
        <ele>1297.4</ele>
        <time>2000-01-02T11:35:43.000Z</time>
      </trkpt>
      <trkpt lat="46.02169" lon="6.80771">
        <ele>1296</ele>
        <time>2000-01-02T11:35:53.000Z</time>
      </trkpt>
      <trkpt lat="46.0217" lon="6.80773">
        <ele>1298.4</ele>
        <time>2000-01-02T11:36:03.000Z</time>
      </trkpt>
      <trkpt lat="46.0217" lon="6.80776">
        <ele>1299.4</ele>
        <time>2000-01-02T11:36:13.000Z</time>
      </trkpt>
      <trkpt lat="46.02169" lon="6.80778">
        <ele>1300.1</ele>
        <time>2000-01-02T11:36:23.000Z</time>
      </trkpt>
      <trkpt lat="46.02165" lon="6.80779">
        <ele>1300.6</ele>
        <time>2000-01-02T11:36:33.000Z</time>
      </trkpt>
      <trkpt lat="46.02159" lon="6.80778">
        <ele>1300.6</ele>
        <time>2000-01-02T11:36:43.000Z</time>
      </trkpt>
      <trkpt lat="46.02152" lon="6.80777">
        <ele>1297</ele>
        <time>2000-01-02T11:36:53.000Z</time>
      </trkpt>
      <trkpt lat="46.02147" lon="6.80777">
        <ele>1301.2</ele>
        <time>2000-01-02T11:37:03.000Z</time>
      </trkpt>
      <trkpt lat="46.02143" lon="6.80777">
        <ele>1301.5</ele>
        <time>2000-01-02T11:37:13.000Z</time>
      </trkpt>
      <trkpt lat="46.0214" lon="6.80778">
        <ele>1302</ele>
        <time>2000-01-02T11:37:23.000Z</time>
      </trkpt>
      <trkpt lat="46.02139" lon="6.80781">
        <ele>1303</ele>
        <time>2000-01-02T11:37:33.000Z</time>
      </trkpt>
      <trkpt lat="46.02137" lon="6.80784">
        <ele>1304.4</ele>
        <time>2000-01-02T11:37:43.000Z</time>
      </trkpt>
      <trkpt lat="46.02135" lon="6.80785">
        <ele>1303</ele>
        <time>2000-01-02T11:37:53.000Z</time>
      </trkpt>
      <trkpt lat="46.02133" lon="6.80786">
        <ele>1305.7</ele>
        <time>2000-01-02T11:38:03.000Z</time>
      </trkpt>
      <trkpt lat="46.02129" lon="6.80787">
        <ele>1306.8</ele>
        <time>2000-01-02T11:38:13.000Z</time>
      </trkpt>
      <trkpt lat="46.02122" lon="6.80786">
        <ele>1307.8</ele>
        <time>2000-01-02T11:38:23.000Z</time>
      </trkpt>
      <trkpt lat="46.02113" lon="6.80789">
        <ele>1308</ele>
        <time>2000-01-02T11:38:33.000Z</time>
      </trkpt>
      <trkpt lat="46.02107" lon="6.8079">
        <ele>1311.8</ele>
        <time>2000-01-02T11:38:43.000Z</time>
      </trkpt>
      <trkpt lat="46.02102" lon="6.80792">
        <ele>1313.7</ele>
        <time>2000-01-02T11:38:53.000Z</time>
      </trkpt>
      <trkpt lat="46.02099" lon="6.80795">
        <ele>1315.1</ele>
        <time>2000-01-02T11:39:03.000Z</time>
      </trkpt>
      <trkpt lat="46.02099" lon="6.808">
        <ele>1316</ele>
        <time>2000-01-02T11:39:13.000Z</time>
      </trkpt>
      <trkpt lat="46.021" lon="6.80803">
        <ele>1310</ele>
        <time>2000-01-02T11:39:23.000Z</time>
      </trkpt>
      <trkpt lat="46.02105" lon="6.80805">
        <ele>1315.4</ele>
        <time>2000-01-02T11:39:33.000Z</time>
      </trkpt>
      <trkpt lat="46.0211" lon="6.80807">
        <ele>1314.7</ele>
        <time>2000-01-02T11:39:43.000Z</time>
      </trkpt>
      <trkpt lat="46.02119" lon="6.80809">
        <ele>1312</ele>
        <time>2000-01-02T11:39:53.000Z</time>
      </trkpt>
      <trkpt lat="46.02122" lon="6.8081">
        <ele>1314.2</ele>
        <time>2000-01-02T11:40:03.000Z</time>
      </trkpt>
      <trkpt lat="46.02123" lon="6.80813">
        <ele>1315</ele>
        <time>2000-01-02T11:40:13.000Z</time>
      </trkpt>
      <trkpt lat="46.02121" lon="6.80817">
        <ele>1316.4</ele>
        <time>2000-01-02T11:40:23.000Z</time>
      </trkpt>
      <trkpt lat="46.02118" lon="6.8082">
        <ele>1317.5</ele>
        <time>2000-01-02T11:40:33.000Z</time>
      </trkpt>
      <trkpt lat="46.02115" lon="6.80821">
        <ele>1318.1</ele>
        <time>2000-01-02T11:40:43.000Z</time>
      </trkpt>
      <trkpt lat="46.02106" lon="6.8082">
        <ele>1317</ele>
        <time>2000-01-02T11:40:53.000Z</time>
      </trkpt>
      <trkpt lat="46.02092" lon="6.80816">
        <ele>1321.3</ele>
        <time>2000-01-02T11:41:03.000Z</time>
      </trkpt>
      <trkpt lat="46.02086" lon="6.80815">
        <ele>1322</ele>
        <time>2000-01-02T11:41:13.000Z</time>
      </trkpt>
      <trkpt lat="46.02081" lon="6.80816">
        <ele>1323.9</ele>
        <time>2000-01-02T11:41:23.000Z</time>
      </trkpt>
      <trkpt lat="46.02078" lon="6.80818">
        <ele>1325.1</ele>
        <time>2000-01-02T11:41:33.000Z</time>
      </trkpt>
      <trkpt lat="46.02077" lon="6.80822">
        <ele>1326.1</ele>
        <time>2000-01-02T11:41:43.000Z</time>
      </trkpt>
      <trkpt lat="46.02076" lon="6.80827">
        <ele>1327.3</ele>
        <time>2000-01-02T11:41:53.000Z</time>
      </trkpt>
      <trkpt lat="46.02079" lon="6.80831">
        <ele>1327.5</ele>
        <time>2000-01-02T11:42:03.000Z</time>
      </trkpt>
      <trkpt lat="46.02083" lon="6.80832">
        <ele>1322</ele>
        <time>2000-01-02T11:42:13.000Z</time>
      </trkpt>
      <trkpt lat="46.02093" lon="6.80833">
        <ele>1325.2</ele>
        <time>2000-01-02T11:42:23.000Z</time>
      </trkpt>
      <trkpt lat="46.02098" lon="6.80835">
        <ele>1324.8</ele>
        <time>2000-01-02T11:42:33.000Z</time>
      </trkpt>
      <trkpt lat="46.02101" lon="6.80837">
        <ele>1322</ele>
        <time>2000-01-02T11:42:43.000Z</time>
      </trkpt>
      <trkpt lat="46.02102" lon="6.80841">
        <ele>1325.7</ele>
        <time>2000-01-02T11:42:53.000Z</time>
      </trkpt>
      <trkpt lat="46.021" lon="6.80844">
        <ele>1326.8</ele>
        <time>2000-01-02T11:43:03.000Z</time>
      </trkpt>
      <trkpt lat="46.02098" lon="6.80845">
        <ele>1327.5</ele>
        <time>2000-01-02T11:43:13.000Z</time>
      </trkpt>
      <trkpt lat="46.0209" lon="6.80846">
        <ele>1329.3</ele>
        <time>2000-01-02T11:43:23.000Z</time>
      </trkpt>
      <trkpt lat="46.02083" lon="6.80844">
        <ele>1329</ele>
        <time>2000-01-02T11:43:33.000Z</time>
      </trkpt>
      <trkpt lat="46.02075" lon="6.80842">
        <ele>1331.1</ele>
        <time>2000-01-02T11:43:43.000Z</time>
      </trkpt>
      <trkpt lat="46.0207" lon="6.8084">
        <ele>1331.6</ele>
        <time>2000-01-02T11:43:53.000Z</time>
      </trkpt>
      <trkpt lat="46.02066" lon="6.80837">
        <ele>1331.6</ele>
        <time>2000-01-02T11:44:03.000Z</time>
      </trkpt>
      <trkpt lat="46.02061" lon="6.80835">
        <ele>1330</ele>
        <time>2000-01-02T11:44:13.000Z</time>
      </trkpt>
      <trkpt lat="46.02058" lon="6.80837">
        <ele>1333.3</ele>
        <time>2000-01-02T11:44:23.000Z</time>
      </trkpt>
      <trkpt lat="46.02057" lon="6.8084">
        <ele>1334.2</ele>
        <time>2000-01-02T11:44:33.000Z</time>
      </trkpt>
      <trkpt lat="46.02059" lon="6.80843">
        <ele>1334.4</ele>
        <time>2000-01-02T11:44:43.000Z</time>
      </trkpt>
      <trkpt lat="46.02068" lon="6.80849">
        <ele>1333</ele>
        <time>2000-01-02T11:44:53.000Z</time>
      </trkpt>
      <trkpt lat="46.02078" lon="6.80856">
        <ele>1334.4</ele>
        <time>2000-01-02T11:45:03.000Z</time>
      </trkpt>
      <trkpt lat="46.02084" lon="6.80859">
        <ele>1334.2</ele>
        <time>2000-01-02T11:45:13.000Z</time>
      </trkpt>
      <trkpt lat="46.02089" lon="6.80861">
        <ele>1331</ele>
        <time>2000-01-02T11:45:23.000Z</time>
      </trkpt>
      <trkpt lat="46.02093" lon="6.80861">
        <ele>1332.9</ele>
        <time>2000-01-02T11:45:33.000Z</time>
      </trkpt>
      <trkpt lat="46.02098" lon="6.8086">
        <ele>1331.5</ele>
        <time>2000-01-02T11:45:43.000Z</time>
      </trkpt>
      <trkpt lat="46.02102" lon="6.8086">
        <ele>1330.7</ele>
        <time>2000-01-02T11:45:53.000Z</time>
      </trkpt>
      <trkpt lat="46.02108" lon="6.80862">
        <ele>1332</ele>
        <time>2000-01-02T11:46:03.000Z</time>
      </trkpt>
      <trkpt lat="46.0211" lon="6.80864">
        <ele>1329.9</ele>
        <time>2000-01-02T11:46:13.000Z</time>
      </trkpt>
      <trkpt lat="46.02113" lon="6.8087">
        <ele>1330.8</ele>
        <time>2000-01-02T11:46:23.000Z</time>
      </trkpt>
      <trkpt lat="46.02116" lon="6.80877">
        <ele>1332.1</ele>
        <time>2000-01-02T11:46:33.000Z</time>
      </trkpt>
      <trkpt lat="46.02119" lon="6.80886">
        <ele>1333</ele>
        <time>2000-01-02T11:46:43.000Z</time>
      </trkpt>
      <trkpt lat="46.02119" lon="6.80895">
        <ele>1335.3</ele>
        <time>2000-01-02T11:46:53.000Z</time>
      </trkpt>
      <trkpt lat="46.02118" lon="6.80903">
        <ele>1336.5</ele>
        <time>2000-01-02T11:47:03.000Z</time>
      </trkpt>
      <trkpt lat="46.02115" lon="6.80918">
        <ele>1338</ele>
        <time>2000-01-02T11:47:13.000Z</time>
      </trkpt>
      <trkpt lat="46.02112" lon="6.80932">
        <ele>1341.1</ele>
        <time>2000-01-02T11:47:23.000Z</time>
      </trkpt>
      <trkpt lat="46.02111" lon="6.80943">
        <ele>1342.8</ele>
        <time>2000-01-02T11:47:33.000Z</time>
      </trkpt>
      <trkpt lat="46.02112" lon="6.80968">
        <ele>1346</ele>
        <time>2000-01-02T11:47:43.000Z</time>
      </trkpt>
      <trkpt lat="46.02113" lon="6.8099">
        <ele>1352.1</ele>
        <time>2000-01-02T11:47:53.000Z</time>
      </trkpt>
      <trkpt lat="46.02114" lon="6.81">
        <ele>1348</ele>
        <time>2000-01-02T11:48:03.000Z</time>
      </trkpt>
      <trkpt lat="46.02117" lon="6.81004">
        <ele>1354.6</ele>
        <time>2000-01-02T11:48:13.000Z</time>
      </trkpt>
      <trkpt lat="46.0212" lon="6.81005">
        <ele>1354.7</ele>
        <time>2000-01-02T11:48:23.000Z</time>
      </trkpt>
      <trkpt lat="46.02124" lon="6.81005">
        <ele>1354.5</ele>
        <time>2000-01-02T11:48:33.000Z</time>
      </trkpt>
      <trkpt lat="46.02127" lon="6.81002">
        <ele>1353.8</ele>
        <time>2000-01-02T11:48:43.000Z</time>
      </trkpt>
      <trkpt lat="46.02133" lon="6.80993">
        <ele>1347</ele>
        <time>2000-01-02T11:48:53.000Z</time>
      </trkpt>
      <trkpt lat="46.0214" lon="6.8098">
        <ele>1348.7</ele>
        <time>2000-01-02T11:49:03.000Z</time>
      </trkpt>
      <trkpt lat="46.02146" lon="6.80971">
        <ele>1347</ele>
        <time>2000-01-02T11:49:13.000Z</time>
      </trkpt>
      <trkpt lat="46.0215" lon="6.80968">
        <ele>1347</ele>
        <time>2000-01-02T11:49:23.000Z</time>
      </trkpt>
      <trkpt lat="46.02155" lon="6.80967">
        <ele>1347.3</ele>
        <time>2000-01-02T11:49:33.000Z</time>
      </trkpt>
      <trkpt lat="46.0216" lon="6.80969">
        <ele>1348</ele>
        <time>2000-01-02T11:49:43.000Z</time>
      </trkpt>
      <trkpt lat="46.02164" lon="6.80973">
        <ele>1348</ele>
        <time>2000-01-02T11:49:53.000Z</time>
      </trkpt>
      <trkpt lat="46.02167" lon="6.80974">
        <ele>1349.3</ele>
        <time>2000-01-02T11:50:03.000Z</time>
      </trkpt>
      <trkpt lat="46.02171" lon="6.80977">
        <ele>1350</ele>
        <time>2000-01-02T11:50:13.000Z</time>
      </trkpt>
      <trkpt lat="46.02176" lon="6.80981">
        <ele>1350.7</ele>
        <time>2000-01-02T11:50:23.000Z</time>
      </trkpt>
      <trkpt lat="46.02178" lon="6.80987">
        <ele>1351.6</ele>
        <time>2000-01-02T11:50:33.000Z</time>
      </trkpt>
      <trkpt lat="46.02178" lon="6.80994">
        <ele>1352</ele>
        <time>2000-01-02T11:50:43.000Z</time>
      </trkpt>
      <trkpt lat="46.02176" lon="6.81001">
        <ele>1353.8</ele>
        <time>2000-01-02T11:50:53.000Z</time>
      </trkpt>
      <trkpt lat="46.02171" lon="6.81008">
        <ele>1355</ele>
        <time>2000-01-02T11:51:03.000Z</time>
      </trkpt>
      <trkpt lat="46.02167" lon="6.81012">
        <ele>1355.7</ele>
        <time>2000-01-02T11:51:13.000Z</time>
      </trkpt>
      <trkpt lat="46.02162" lon="6.81013">
        <ele>1353</ele>
        <time>2000-01-02T11:51:23.000Z</time>
      </trkpt>
      <trkpt lat="46.02155" lon="6.81013">
        <ele>1355.6</ele>
        <time>2000-01-02T11:51:33.000Z</time>
      </trkpt>
      <trkpt lat="46.02146" lon="6.8101">
        <ele>1355</ele>
        <time>2000-01-02T11:51:43.000Z</time>
      </trkpt>
      <trkpt lat="46.02143" lon="6.81011">
        <ele>1354</ele>
        <time>2000-01-02T11:51:53.000Z</time>
      </trkpt>
      <trkpt lat="46.02141" lon="6.81013">
        <ele>1355.4</ele>
        <time>2000-01-02T11:52:03.000Z</time>
      </trkpt>
      <trkpt lat="46.0214" lon="6.81016">
        <ele>1355.9</ele>
        <time>2000-01-02T11:52:13.000Z</time>
      </trkpt>
      <trkpt lat="46.0214" lon="6.8102">
        <ele>1356.6</ele>
        <time>2000-01-02T11:52:23.000Z</time>
      </trkpt>
      <trkpt lat="46.02141" lon="6.81024">
        <ele>1357.3</ele>
        <time>2000-01-02T11:52:33.000Z</time>
      </trkpt>
      <trkpt lat="46.02143" lon="6.81026">
        <ele>1357.7</ele>
        <time>2000-01-02T11:52:43.000Z</time>
      </trkpt>
      <trkpt lat="46.02146" lon="6.81028">
        <ele>1358</ele>
        <time>2000-01-02T11:52:53.000Z</time>
      </trkpt>
      <trkpt lat="46.02152" lon="6.81031">
        <ele>1358</ele>
        <time>2000-01-02T11:53:03.000Z</time>
      </trkpt>
      <trkpt lat="46.02156" lon="6.81034">
        <ele>1359</ele>
        <time>2000-01-02T11:53:13.000Z</time>
      </trkpt>
      <trkpt lat="46.02158" lon="6.81039">
        <ele>1359.7</ele>
        <time>2000-01-02T11:53:23.000Z</time>
      </trkpt>
      <trkpt lat="46.02159" lon="6.81043">
        <ele>1360.3</ele>
        <time>2000-01-02T11:53:33.000Z</time>
      </trkpt>
      <trkpt lat="46.02158" lon="6.81049">
        <ele>1361.3</ele>
        <time>2000-01-02T11:53:43.000Z</time>
      </trkpt>
      <trkpt lat="46.02156" lon="6.81057">
        <ele>1362</ele>
        <time>2000-01-02T11:53:53.000Z</time>
      </trkpt>
      <trkpt lat="46.02156" lon="6.81059">
        <ele>1363.1</ele>
        <time>2000-01-02T11:54:03.000Z</time>
      </trkpt>
      <trkpt lat="46.02154" lon="6.81063">
        <ele>1363.9</ele>
        <time>2000-01-02T11:54:13.000Z</time>
      </trkpt>
      <trkpt lat="46.02149" lon="6.81073">
        <ele>1366.2</ele>
        <time>2000-01-02T11:54:23.000Z</time>
      </trkpt>
      <trkpt lat="46.02147" lon="6.81075">
        <ele>1366.7</ele>
        <time>2000-01-02T11:54:33.000Z</time>
      </trkpt>
      <trkpt lat="46.02146" lon="6.81077">
        <ele>1367.2</ele>
        <time>2000-01-02T11:54:43.000Z</time>
      </trkpt>
      <trkpt lat="46.02143" lon="6.81078">
        <ele>1365</ele>
        <time>2000-01-02T11:54:53.000Z</time>
      </trkpt>
      <trkpt lat="46.02139" lon="6.81077">
        <ele>1367.6</ele>
        <time>2000-01-02T11:55:03.000Z</time>
      </trkpt>
      <trkpt lat="46.02136" lon="6.81074">
        <ele>1367.1</ele>
        <time>2000-01-02T11:55:13.000Z</time>
      </trkpt>
      <trkpt lat="46.02132" lon="6.81068">
        <ele>1366.1</ele>
        <time>2000-01-02T11:55:23.000Z</time>
      </trkpt>
      <trkpt lat="46.02128" lon="6.81061">
        <ele>1365</ele>
        <time>2000-01-02T11:55:33.000Z</time>
      </trkpt>
      <trkpt lat="46.02124" lon="6.8106">
        <ele>1364.9</ele>
        <time>2000-01-02T11:55:43.000Z</time>
      </trkpt>
      <trkpt lat="46.02119" lon="6.8106">
        <ele>1365.3</ele>
        <time>2000-01-02T11:55:53.000Z</time>
      </trkpt>
      <trkpt lat="46.02113" lon="6.81065">
        <ele>1366.6</ele>
        <time>2000-01-02T11:56:03.000Z</time>
      </trkpt>
      <trkpt lat="46.02111" lon="6.81067">
        <ele>1365</ele>
        <time>2000-01-02T11:56:13.000Z</time>
      </trkpt>
      <trkpt lat="46.02104" lon="6.81076">
        <ele>1369.5</ele>
        <time>2000-01-02T11:56:23.000Z</time>
      </trkpt>
      <trkpt lat="46.02093" lon="6.81089">
        <ele>1371</ele>
        <time>2000-01-02T11:56:33.000Z</time>
      </trkpt>
      <trkpt lat="46.02081" lon="6.81102">
        <ele>1376.7</ele>
        <time>2000-01-02T11:56:43.000Z</time>
      </trkpt>
      <trkpt lat="46.02069" lon="6.81114">
        <ele>1381</ele>
        <time>2000-01-02T11:56:53.000Z</time>
      </trkpt>
      <trkpt lat="46.02065" lon="6.81119">
        <ele>1382.3</ele>
        <time>2000-01-02T11:57:03.000Z</time>
      </trkpt>
      <trkpt lat="46.02062" lon="6.8112">
        <ele>1382.8</ele>
        <time>2000-01-02T11:57:13.000Z</time>
      </trkpt>
      <trkpt lat="46.0206" lon="6.8112">
        <ele>1383.1</ele>
        <time>2000-01-02T11:57:23.000Z</time>
      </trkpt>
      <trkpt lat="46.02057" lon="6.81117">
        <ele>1382.9</ele>
        <time>2000-01-02T11:57:33.000Z</time>
      </trkpt>
      <trkpt lat="46.02055" lon="6.8111">
        <ele>1378</ele>
        <time>2000-01-02T11:57:43.000Z</time>
      </trkpt>
      <trkpt lat="46.02057" lon="6.811">
        <ele>1380.2</ele>
        <time>2000-01-02T11:57:53.000Z</time>
      </trkpt>
      <trkpt lat="46.02063" lon="6.81079">
        <ele>1375</ele>
        <time>2000-01-02T11:58:03.000Z</time>
      </trkpt>
      <trkpt lat="46.02065" lon="6.81069">
        <ele>1374.6</ele>
        <time>2000-01-02T11:58:13.000Z</time>
      </trkpt>
      <trkpt lat="46.02064" lon="6.81063">
        <ele>1374.1</ele>
        <time>2000-01-02T11:58:23.000Z</time>
      </trkpt>
      <trkpt lat="46.02061" lon="6.81057">
        <ele>1374</ele>
        <time>2000-01-02T11:58:33.000Z</time>
      </trkpt>
      <trkpt lat="46.02056" lon="6.81052">
        <ele>1375</ele>
        <time>2000-01-02T11:58:43.000Z</time>
      </trkpt>
      <trkpt lat="46.0205" lon="6.81051">
        <ele>1375.5</ele>
        <time>2000-01-02T11:58:53.000Z</time>
      </trkpt>
      <trkpt lat="46.0204" lon="6.81052">
        <ele>1377.8</ele>
        <time>2000-01-02T11:59:03.000Z</time>
      </trkpt>
      <trkpt lat="46.02034" lon="6.81051">
        <ele>1380</ele>
        <time>2000-01-02T11:59:13.000Z</time>
      </trkpt>
      <trkpt lat="46.02029" lon="6.8105">
        <ele>1379.9</ele>
        <time>2000-01-02T11:59:23.000Z</time>
      </trkpt>
      <trkpt lat="46.02024" lon="6.81047">
        <ele>1380.5</ele>
        <time>2000-01-02T11:59:33.000Z</time>
      </trkpt>
      <trkpt lat="46.0202" lon="6.81045">
        <ele>1380.9</ele>
        <time>2000-01-02T11:59:43.000Z</time>
      </trkpt>
      <trkpt lat="46.02013" lon="6.81042">
        <ele>1381</ele>
        <time>2000-01-02T11:59:53.000Z</time>
      </trkpt>
      <trkpt lat="46.02009" lon="6.81043">
        <ele>1382.6</ele>
        <time>2000-01-02T12:00:03.000Z</time>
      </trkpt>
      <trkpt lat="46.01999" lon="6.81044">
        <ele>1384.7</ele>
        <time>2000-01-02T12:00:13.000Z</time>
      </trkpt>
      <trkpt lat="46.01993" lon="6.81045">
        <ele>1384</ele>
        <time>2000-01-02T12:00:23.000Z</time>
      </trkpt>
      <trkpt lat="46.01984" lon="6.81043">
        <ele>1387.2</ele>
        <time>2000-01-02T12:00:33.000Z</time>
      </trkpt>
      <trkpt lat="46.01975" lon="6.81041">
        <ele>1388.3</ele>
        <time>2000-01-02T12:00:43.000Z</time>
      </trkpt>
      <trkpt lat="46.01965" lon="6.81039">
        <ele>1386</ele>
        <time>2000-01-02T12:00:53.000Z</time>
      </trkpt>
      <trkpt lat="46.01955" lon="6.81036">
        <ele>1389.6</ele>
        <time>2000-01-02T12:01:03.000Z</time>
      </trkpt>
      <trkpt lat="46.01945" lon="6.81035">
        <ele>1389</ele>
        <time>2000-01-02T12:01:13.000Z</time>
      </trkpt>
      <trkpt lat="46.01933" lon="6.81036">
        <ele>1391.8</ele>
        <time>2000-01-02T12:01:23.000Z</time>
      </trkpt>
      <trkpt lat="46.01921" lon="6.81038">
        <ele>1390</ele>
        <time>2000-01-02T12:01:33.000Z</time>
      </trkpt>
      <trkpt lat="46.01909" lon="6.81039">
        <ele>1394.3</ele>
        <time>2000-01-02T12:01:43.000Z</time>
      </trkpt>
      <trkpt lat="46.019" lon="6.81038">
        <ele>1391</ele>
        <time>2000-01-02T12:01:53.000Z</time>
      </trkpt>
      <trkpt lat="46.01888" lon="6.81038">
        <ele>1394.7</ele>
        <time>2000-01-02T12:02:03.000Z</time>
      </trkpt>
      <trkpt lat="46.01883" lon="6.81039">
        <ele>1395.8</ele>
        <time>2000-01-02T12:02:13.000Z</time>
      </trkpt>
      <trkpt lat="46.01877" lon="6.81045">
        <ele>1395</ele>
        <time>2000-01-02T12:02:23.000Z</time>
      </trkpt>
      <trkpt lat="46.01873" lon="6.81051">
        <ele>1400.2</ele>
        <time>2000-01-02T12:02:33.000Z</time>
      </trkpt>
      <trkpt lat="46.01871" lon="6.81052">
        <ele>1400.8</ele>
        <time>2000-01-02T12:02:43.000Z</time>
      </trkpt>
      <trkpt lat="46.01868" lon="6.81052">
        <ele>1401.2</ele>
        <time>2000-01-02T12:02:53.000Z</time>
      </trkpt>
      <trkpt lat="46.01865" lon="6.81048">
        <ele>1400.8</ele>
        <time>2000-01-02T12:03:03.000Z</time>
      </trkpt>
      <trkpt lat="46.01864" lon="6.81039">
        <ele>1394</ele>
        <time>2000-01-02T12:03:13.000Z</time>
      </trkpt>
      <trkpt lat="46.01864" lon="6.81029">
        <ele>1396.7</ele>
        <time>2000-01-02T12:03:23.000Z</time>
      </trkpt>
      <trkpt lat="46.01867" lon="6.81022">
        <ele>1395.4</ele>
        <time>2000-01-02T12:03:33.000Z</time>
      </trkpt>
      <trkpt lat="46.0187" lon="6.81011">
        <ele>1393</ele>
        <time>2000-01-02T12:03:43.000Z</time>
      </trkpt>
      <trkpt lat="46.01872" lon="6.81001">
        <ele>1392.4</ele>
        <time>2000-01-02T12:03:53.000Z</time>
      </trkpt>
      <trkpt lat="46.01874" lon="6.80986">
        <ele>1388.9</ele>
        <time>2000-01-02T12:04:03.000Z</time>
      </trkpt>
      <trkpt lat="46.01875" lon="6.8098">
        <ele>1388</ele>
        <time>2000-01-02T12:04:13.000Z</time>
      </trkpt>
      <trkpt lat="46.01875" lon="6.80975">
        <ele>1386.6</ele>
        <time>2000-01-02T12:04:23.000Z</time>
      </trkpt>
      <trkpt lat="46.01874" lon="6.80972">
        <ele>1386.1</ele>
        <time>2000-01-02T12:04:33.000Z</time>
      </trkpt>
      <trkpt lat="46.0187" lon="6.8097">
        <ele>1385.9</ele>
        <time>2000-01-02T12:04:43.000Z</time>
      </trkpt>
      <trkpt lat="46.01864" lon="6.80971">
        <ele>1387.1</ele>
        <time>2000-01-02T12:04:53.000Z</time>
      </trkpt>
      <trkpt lat="46.01856" lon="6.80973">
        <ele>1388</ele>
        <time>2000-01-02T12:05:03.000Z</time>
      </trkpt>
      <trkpt lat="46.01846" lon="6.80974">
        <ele>1389.7</ele>
        <time>2000-01-02T12:05:13.000Z</time>
      </trkpt>
      <trkpt lat="46.01826" lon="6.80973">
        <ele>1388</ele>
        <time>2000-01-02T12:05:23.000Z</time>
      </trkpt>
      <trkpt lat="46.01815" lon="6.80972">
        <ele>1389.9</ele>
        <time>2000-01-02T12:05:33.000Z</time>
      </trkpt>
      <trkpt lat="46.018" lon="6.80972">
        <ele>1388</ele>
        <time>2000-01-02T12:05:43.000Z</time>
      </trkpt>
      <trkpt lat="46.0179" lon="6.80973">
        <ele>1388.7</ele>
        <time>2000-01-02T12:05:53.000Z</time>
      </trkpt>
      <trkpt lat="46.01783" lon="6.80973">
        <ele>1388</ele>
        <time>2000-01-02T12:06:03.000Z</time>
      </trkpt>
      <trkpt lat="46.01778" lon="6.80974">
        <ele>1388</ele>
        <time>2000-01-02T12:06:13.000Z</time>
      </trkpt>
      <trkpt lat="46.0177" lon="6.80978">
        <ele>1389.6</ele>
        <time>2000-01-02T12:06:23.000Z</time>
      </trkpt>
      <trkpt lat="46.01762" lon="6.80981">
        <ele>1390.7</ele>
        <time>2000-01-02T12:06:33.000Z</time>
      </trkpt>
      <trkpt lat="46.01756" lon="6.80983">
        <ele>1388</ele>
        <time>2000-01-02T12:06:43.000Z</time>
      </trkpt>
      <trkpt lat="46.01753" lon="6.80984">
        <ele>1391.7</ele>
        <time>2000-01-02T12:06:53.000Z</time>
      </trkpt>
      <trkpt lat="46.0175" lon="6.80984">
        <ele>1391.5</ele>
        <time>2000-01-02T12:07:03.000Z</time>
      </trkpt>
      <trkpt lat="46.01744" lon="6.80983">
        <ele>1391</ele>
        <time>2000-01-02T12:07:13.000Z</time>
      </trkpt>
      <trkpt lat="46.01737" lon="6.80981">
        <ele>1388</ele>
        <time>2000-01-02T12:07:23.000Z</time>
      </trkpt>
      <trkpt lat="46.01733" lon="6.8098">
        <ele>1389.6</ele>
        <time>2000-01-02T12:07:33.000Z</time>
      </trkpt>
      <trkpt lat="46.01731" lon="6.80979">
        <ele>1389.2</ele>
        <time>2000-01-02T12:07:43.000Z</time>
      </trkpt>
      <trkpt lat="46.01729" lon="6.80976">
        <ele>1387.8</ele>
        <time>2000-01-02T12:07:53.000Z</time>
      </trkpt>
      <trkpt lat="46.01728" lon="6.80973">
        <ele>1386.4</ele>
        <time>2000-01-02T12:08:03.000Z</time>
      </trkpt>
      <trkpt lat="46.01727" lon="6.80971">
        <ele>1386.1</ele>
        <time>2000-01-02T12:08:13.000Z</time>
      </trkpt>
      <trkpt lat="46.01725" lon="6.8097">
        <ele>1386.3</ele>
        <time>2000-01-02T12:08:23.000Z</time>
      </trkpt>
      <trkpt lat="46.01723" lon="6.80968">
        <ele>1386.6</ele>
        <time>2000-01-02T12:08:33.000Z</time>
      </trkpt>
      <trkpt lat="46.01722" lon="6.80967">
        <ele>1386.8</ele>
        <time>2000-01-02T12:08:43.000Z</time>
      </trkpt>
      <trkpt lat="46.01722" lon="6.80965">
        <ele>1389</ele>
        <time>2000-01-02T12:08:53.000Z</time>
      </trkpt>
      <trkpt lat="46.01722" lon="6.80962">
        <ele>1387.5</ele>
        <time>2000-01-02T12:09:03.000Z</time>
      </trkpt>
      <trkpt lat="46.01722" lon="6.80957">
        <ele>1388.2</ele>
        <time>2000-01-02T12:09:13.000Z</time>
      </trkpt>
      <trkpt lat="46.01724" lon="6.80953">
        <ele>1388.4</ele>
        <time>2000-01-02T12:09:23.000Z</time>
      </trkpt>
      <trkpt lat="46.01726" lon="6.80951">
        <ele>1388.2</ele>
        <time>2000-01-02T12:09:33.000Z</time>
      </trkpt>
      <trkpt lat="46.01732" lon="6.80949">
        <ele>1387</ele>
        <time>2000-01-02T12:09:43.000Z</time>
      </trkpt>
      <trkpt lat="46.01738" lon="6.80946">
        <ele>1390</ele>
        <time>2000-01-02T12:09:53.000Z</time>
      </trkpt>
      <trkpt lat="46.01743" lon="6.80942">
        <ele>1385.2</ele>
        <time>2000-01-02T12:10:03.000Z</time>
      </trkpt>
      <trkpt lat="46.01748" lon="6.80937">
        <ele>1386.3</ele>
        <time>2000-01-02T12:10:13.000Z</time>
      </trkpt>
      <trkpt lat="46.01753" lon="6.80932">
        <ele>1387.2</ele>
        <time>2000-01-02T12:10:23.000Z</time>
      </trkpt>
      <trkpt lat="46.01758" lon="6.80927">
        <ele>1395</ele>
        <time>2000-01-02T12:10:33.000Z</time>
      </trkpt>
      <trkpt lat="46.01759" lon="6.80923">
        <ele>1388.6</ele>
        <time>2000-01-02T12:10:43.000Z</time>
      </trkpt>
      <trkpt lat="46.0176" lon="6.80919">
        <ele>1389.7</ele>
        <time>2000-01-02T12:10:53.000Z</time>
      </trkpt>
      <trkpt lat="46.0176" lon="6.80917">
        <ele>1390.5</ele>
        <time>2000-01-02T12:11:03.000Z</time>
      </trkpt>
      <trkpt lat="46.01757" lon="6.80916">
        <ele>1392.6</ele>
        <time>2000-01-02T12:11:13.000Z</time>
      </trkpt>
      <trkpt lat="46.0175" lon="6.80917">
        <ele>1395.8</ele>
        <time>2000-01-02T12:11:23.000Z</time>
      </trkpt>
      <trkpt lat="46.01741" lon="6.80919">
        <ele>1402</ele>
        <time>2000-01-02T12:11:33.000Z</time>
      </trkpt>
      <trkpt lat="46.01736" lon="6.80922">
        <ele>1397.3</ele>
        <time>2000-01-02T12:11:43.000Z</time>
      </trkpt>
      <trkpt lat="46.01732" lon="6.80922">
        <ele>1398.5</ele>
        <time>2000-01-02T12:11:53.000Z</time>
      </trkpt>
      <trkpt lat="46.01725" lon="6.80921">
        <ele>1401</ele>
        <time>2000-01-02T12:12:03.000Z</time>
      </trkpt>
      <trkpt lat="46.0172" lon="6.80919">
        <ele>1408</ele>
        <time>2000-01-02T12:12:13.000Z</time>
      </trkpt>
      <trkpt lat="46.01717" lon="6.80918">
        <ele>1404.4</ele>
        <time>2000-01-02T12:12:23.000Z</time>
      </trkpt>
      <trkpt lat="46.01714" lon="6.80916">
        <ele>1406.1</ele>
        <time>2000-01-02T12:12:33.000Z</time>
      </trkpt>
      <trkpt lat="46.01713" lon="6.80915">
        <ele>1406.7</ele>
        <time>2000-01-02T12:12:43.000Z</time>
      </trkpt>
      <trkpt lat="46.01711" lon="6.80914">
        <ele>1407.6</ele>
        <time>2000-01-02T12:12:53.000Z</time>
      </trkpt>
      <trkpt lat="46.01708" lon="6.80915">
        <ele>1407.8</ele>
        <time>2000-01-02T12:13:03.000Z</time>
      </trkpt>
      <trkpt lat="46.01704" lon="6.80915">
        <ele>1408.7</ele>
        <time>2000-01-02T12:13:13.000Z</time>
      </trkpt>
      <trkpt lat="46.01701" lon="6.80915">
        <ele>1412</ele>
        <time>2000-01-02T12:13:23.000Z</time>
      </trkpt>
      <trkpt lat="46.01697" lon="6.80912">
        <ele>1411.5</ele>
        <time>2000-01-02T12:13:33.000Z</time>
      </trkpt>
      <trkpt lat="46.01693" lon="6.80911">
        <ele>1412.7</ele>
        <time>2000-01-02T12:13:43.000Z</time>
      </trkpt>
      <trkpt lat="46.01685" lon="6.8091">
        <ele>1414.8</ele>
        <time>2000-01-02T12:13:53.000Z</time>
      </trkpt>
      <trkpt lat="46.01676" lon="6.80909">
        <ele>1423</ele>
        <time>2000-01-02T12:14:03.000Z</time>
      </trkpt>
      <trkpt lat="46.01669" lon="6.80907">
        <ele>1419.7</ele>
        <time>2000-01-02T12:14:13.000Z</time>
      </trkpt>
      <trkpt lat="46.01663" lon="6.80906">
        <ele>1421.4</ele>
        <time>2000-01-02T12:14:23.000Z</time>
      </trkpt>
      <trkpt lat="46.01653" lon="6.80903">
        <ele>1427</ele>
        <time>2000-01-02T12:14:33.000Z</time>
      </trkpt>
      <trkpt lat="46.01644" lon="6.80899">
        <ele>1428.6</ele>
        <time>2000-01-02T12:14:43.000Z</time>
      </trkpt>
      <trkpt lat="46.01636" lon="6.80895">
        <ele>1431.9</ele>
        <time>2000-01-02T12:14:53.000Z</time>
      </trkpt>
      <trkpt lat="46.01629" lon="6.80892">
        <ele>1436</ele>
        <time>2000-01-02T12:15:03.000Z</time>
      </trkpt>
      <trkpt lat="46.0162" lon="6.80888">
        <ele>1436.7</ele>
        <time>2000-01-02T12:15:13.000Z</time>
      </trkpt>
      <trkpt lat="46.01611" lon="6.80884">
        <ele>1438.9</ele>
        <time>2000-01-02T12:15:23.000Z</time>
      </trkpt>
      <trkpt lat="46.01602" lon="6.80879">
        <ele>1443</ele>
        <time>2000-01-02T12:15:33.000Z</time>
      </trkpt>
      <trkpt lat="46.01595" lon="6.80875">
        <ele>1439.6</ele>
        <time>2000-01-02T12:15:43.000Z</time>
      </trkpt>
      <trkpt lat="46.01592" lon="6.80873">
        <ele>1439.8</ele>
        <time>2000-01-02T12:15:53.000Z</time>
      </trkpt>
      <trkpt lat="46.01591" lon="6.8087">
        <ele>1440.6</ele>
        <time>2000-01-02T12:16:03.000Z</time>
      </trkpt>
      <trkpt lat="46.01591" lon="6.80868">
        <ele>1441.3</ele>
        <time>2000-01-02T12:16:13.000Z</time>
      </trkpt>
      <trkpt lat="46.01593" lon="6.80866">
        <ele>1442.4</ele>
        <time>2000-01-02T12:16:23.000Z</time>
      </trkpt>
      <trkpt lat="46.01596" lon="6.80865">
        <ele>1445</ele>
        <time>2000-01-02T12:16:33.000Z</time>
      </trkpt>
      <trkpt lat="46.01602" lon="6.80865">
        <ele>1444.6</ele>
        <time>2000-01-02T12:16:43.000Z</time>
      </trkpt>
      <trkpt lat="46.01607" lon="6.80864">
        <ele>1446</ele>
        <time>2000-01-02T12:16:53.000Z</time>
      </trkpt>
      <trkpt lat="46.0161" lon="6.80862">
        <ele>1447.4</ele>
        <time>2000-01-02T12:17:03.000Z</time>
      </trkpt>
      <trkpt lat="46.01613" lon="6.80858">
        <ele>1449</ele>
        <time>2000-01-02T12:17:13.000Z</time>
      </trkpt>
      <trkpt lat="46.01618" lon="6.80852">
        <ele>1452</ele>
        <time>2000-01-02T12:17:23.000Z</time>
      </trkpt>
      <trkpt lat="46.01625" lon="6.80843">
        <ele>1452.7</ele>
        <time>2000-01-02T12:17:33.000Z</time>
      </trkpt>
      <trkpt lat="46.01631" lon="6.80834">
        <ele>1454.5</ele>
        <time>2000-01-02T12:17:43.000Z</time>
      </trkpt>
      <trkpt lat="46.01636" lon="6.80825">
        <ele>1460</ele>
        <time>2000-01-02T12:17:53.000Z</time>
      </trkpt>
      <trkpt lat="46.01641" lon="6.80815">
        <ele>1458.5</ele>
        <time>2000-01-02T12:18:03.000Z</time>
      </trkpt>
      <trkpt lat="46.01646" lon="6.80807">
        <ele>1460</ele>
        <time>2000-01-02T12:18:13.000Z</time>
      </trkpt>
      <trkpt lat="46.01653" lon="6.80799">
        <ele>1463</ele>
        <time>2000-01-02T12:18:23.000Z</time>
      </trkpt>
      <trkpt lat="46.01659" lon="6.80791">
        <ele>1463</ele>
        <time>2000-01-02T12:18:33.000Z</time>
      </trkpt>
      <trkpt lat="46.01664" lon="6.80783">
        <ele>1464.8</ele>
        <time>2000-01-02T12:18:43.000Z</time>
      </trkpt>
      <trkpt lat="46.01666" lon="6.80779">
        <ele>1471</ele>
        <time>2000-01-02T12:18:53.000Z</time>
      </trkpt>
      <trkpt lat="46.01667" lon="6.80774">
        <ele>1468</ele>
        <time>2000-01-02T12:19:03.000Z</time>
      </trkpt>
      <trkpt lat="46.01668" lon="6.80768">
        <ele>1470.9</ele>
        <time>2000-01-02T12:19:13.000Z</time>
      </trkpt>
      <trkpt lat="46.01669" lon="6.80766">
        <ele>1471.7</ele>
        <time>2000-01-02T12:19:23.000Z</time>
      </trkpt>
      <trkpt lat="46.01671" lon="6.80764">
        <ele>1472.3</ele>
        <time>2000-01-02T12:19:33.000Z</time>
      </trkpt>
      <trkpt lat="46.01675" lon="6.80764">
        <ele>1471.2</ele>
        <time>2000-01-02T12:19:43.000Z</time>
      </trkpt>
      <trkpt lat="46.01679" lon="6.80764">
        <ele>1471</ele>
        <time>2000-01-02T12:19:53.000Z</time>
      </trkpt>
      <trkpt lat="46.01682" lon="6.80762">
        <ele>1470.3</ele>
        <time>2000-01-02T12:20:03.000Z</time>
      </trkpt>
      <trkpt lat="46.01688" lon="6.80759">
        <ele>1470</ele>
        <time>2000-01-02T12:20:13.000Z</time>
      </trkpt>
      <trkpt lat="46.01692" lon="6.80756">
        <ele>1470.1</ele>
        <time>2000-01-02T12:20:23.000Z</time>
      </trkpt>
      <trkpt lat="46.01696" lon="6.80751">
        <ele>1472</ele>
        <time>2000-01-02T12:20:33.000Z</time>
      </trkpt>
      <trkpt lat="46.017" lon="6.80747">
        <ele>1471.5</ele>
        <time>2000-01-02T12:20:43.000Z</time>
      </trkpt>
      <trkpt lat="46.01705" lon="6.80741">
        <ele>1472.2</ele>
        <time>2000-01-02T12:20:53.000Z</time>
      </trkpt>
      <trkpt lat="46.0171" lon="6.80735">
        <ele>1472.8</ele>
        <time>2000-01-02T12:21:03.000Z</time>
      </trkpt>
      <trkpt lat="46.01712" lon="6.8073">
        <ele>1476</ele>
        <time>2000-01-02T12:21:13.000Z</time>
      </trkpt>
      <trkpt lat="46.01714" lon="6.80724">
        <ele>1475.6</ele>
        <time>2000-01-02T12:21:23.000Z</time>
      </trkpt>
      <trkpt lat="46.01717" lon="6.80719">
        <ele>1476.5</ele>
        <time>2000-01-02T12:21:33.000Z</time>
      </trkpt>
      <trkpt lat="46.01719" lon="6.80713">
        <ele>1478.1</ele>
        <time>2000-01-02T12:21:43.000Z</time>
      </trkpt>
      <trkpt lat="46.01723" lon="6.80703">
        <ele>1482</ele>
        <time>2000-01-02T12:21:53.000Z</time>
      </trkpt>
      <trkpt lat="46.01727" lon="6.80695">
        <ele>1482.1</ele>
        <time>2000-01-02T12:22:03.000Z</time>
      </trkpt>
      <trkpt lat="46.01729" lon="6.80691">
        <ele>1483</ele>
        <time>2000-01-02T12:22:13.000Z</time>
      </trkpt>
      <trkpt lat="46.01732" lon="6.80687">
        <ele>1483.4</ele>
        <time>2000-01-02T12:22:23.000Z</time>
      </trkpt>
      <trkpt lat="46.01735" lon="6.80686">
        <ele>1482.6</ele>
        <time>2000-01-02T12:22:33.000Z</time>
      </trkpt>
      <trkpt lat="46.01737" lon="6.80682">
        <ele>1487</ele>
        <time>2000-01-02T12:22:43.000Z</time>
      </trkpt>
      <trkpt lat="46.01739" lon="6.80672">
        <ele>1486.2</ele>
        <time>2000-01-02T12:22:53.000Z</time>
      </trkpt>
      <trkpt lat="46.01742" lon="6.80656">
        <ele>1492</ele>
        <time>2000-01-02T12:23:03.000Z</time>
      </trkpt>
      <trkpt lat="46.01747" lon="6.80642">
        <ele>1492.4</ele>
        <time>2000-01-02T12:23:13.000Z</time>
      </trkpt>
      <trkpt lat="46.01749" lon="6.80628">
        <ele>1495</ele>
        <time>2000-01-02T12:23:23.000Z</time>
      </trkpt>
      <trkpt lat="46.01751" lon="6.80618">
        <ele>1498.5</ele>
        <time>2000-01-02T12:23:33.000Z</time>
      </trkpt>
      <trkpt lat="46.01754" lon="6.80612">
        <ele>1499.7</ele>
        <time>2000-01-02T12:23:43.000Z</time>
      </trkpt>
      <trkpt lat="46.01754" lon="6.80612">
        <ele>1499.7</ele>
        <time>2000-01-02T12:23:53.000Z</time>
      </trkpt>
      <trkpt lat="46.01754" lon="6.80612">
        <ele>1499.7</ele>
        <time>2000-01-02T12:24:03.000Z</time>
      </trkpt>
      <trkpt lat="46.01758" lon="6.80612">
        <ele>1498.7</ele>
        <time>2000-01-02T12:24:13.000Z</time>
      </trkpt>
      <trkpt lat="46.0176" lon="6.80611">
        <ele>1499</ele>
        <time>2000-01-02T12:24:23.000Z</time>
      </trkpt>
      <trkpt lat="46.01764" lon="6.80606">
        <ele>1499.4</ele>
        <time>2000-01-02T12:24:33.000Z</time>
      </trkpt>
      <trkpt lat="46.0177" lon="6.80599">
        <ele>1500.4</ele>
        <time>2000-01-02T12:24:43.000Z</time>
      </trkpt>
      <trkpt lat="46.0177" lon="6.80599">
        <ele>1500.4</ele>
        <time>2000-01-02T12:24:53.000Z</time>
      </trkpt>
      <trkpt lat="46.01775" lon="6.80594">
        <ele>1500.9</ele>
        <time>2000-01-02T12:25:03.000Z</time>
      </trkpt>
      <trkpt lat="46.01781" lon="6.80591">
        <ele>1501</ele>
        <time>2000-01-02T12:25:13.000Z</time>
      </trkpt>
      <trkpt lat="46.01788" lon="6.80591">
        <ele>1498.8</ele>
        <time>2000-01-02T12:25:23.000Z</time>
      </trkpt>
      <trkpt lat="46.01793" lon="6.80589">
        <ele>1498.2</ele>
        <time>2000-01-02T12:25:33.000Z</time>
      </trkpt>
      <trkpt lat="46.01796" lon="6.80584">
        <ele>1499.2</ele>
        <time>2000-01-02T12:25:43.000Z</time>
      </trkpt>
      <trkpt lat="46.01798" lon="6.80576">
        <ele>1505</ele>
        <time>2000-01-02T12:25:53.000Z</time>
      </trkpt>
      <trkpt lat="46.01798" lon="6.80566">
        <ele>1504.2</ele>
        <time>2000-01-02T12:26:03.000Z</time>
      </trkpt>
      <trkpt lat="46.01796" lon="6.80555">
        <ele>1508.3</ele>
        <time>2000-01-02T12:26:13.000Z</time>
      </trkpt>
      <trkpt lat="46.01793" lon="6.80535">
        <ele>1520</ele>
        <time>2000-01-02T12:26:23.000Z</time>
      </trkpt>
      <trkpt lat="46.01792" lon="6.80523">
        <ele>1520.5</ele>
        <time>2000-01-02T12:26:33.000Z</time>
      </trkpt>
      <trkpt lat="46.01791" lon="6.80515">
        <ele>1523.6</ele>
        <time>2000-01-02T12:26:43.000Z</time>
      </trkpt>
      <trkpt lat="46.01792" lon="6.80511">
        <ele>1524.6</ele>
        <time>2000-01-02T12:26:53.000Z</time>
      </trkpt>
      <trkpt lat="46.01792" lon="6.80508">
        <ele>1529</ele>
        <time>2000-01-02T12:27:03.000Z</time>
      </trkpt>
      <trkpt lat="46.01796" lon="6.80502">
        <ele>1526.1</ele>
        <time>2000-01-02T12:27:13.000Z</time>
      </trkpt>
      <trkpt lat="46.01801" lon="6.8049">
        <ele>1528</ele>
        <time>2000-01-02T12:27:23.000Z</time>
      </trkpt>
      <trkpt lat="46.01804" lon="6.80481">
        <ele>1531</ele>
        <time>2000-01-02T12:27:33.000Z</time>
      </trkpt>
      <trkpt lat="46.01806" lon="6.80474">
        <ele>1531.2</ele>
        <time>2000-01-02T12:27:43.000Z</time>
      </trkpt>
      <trkpt lat="46.01806" lon="6.80468">
        <ele>1532.9</ele>
        <time>2000-01-02T12:27:53.000Z</time>
      </trkpt>
      <trkpt lat="46.01806" lon="6.80465">
        <ele>1533.6</ele>
        <time>2000-01-02T12:28:03.000Z</time>
      </trkpt>
      <trkpt lat="46.01805" lon="6.80463">
        <ele>1534.6</ele>
        <time>2000-01-02T12:28:13.000Z</time>
      </trkpt>
      <trkpt lat="46.01803" lon="6.80463">
        <ele>1535.4</ele>
        <time>2000-01-02T12:28:23.000Z</time>
      </trkpt>
      <trkpt lat="46.01798" lon="6.80463">
        <ele>1542</ele>
        <time>2000-01-02T12:28:33.000Z</time>
      </trkpt>
      <trkpt lat="46.01792" lon="6.80463">
        <ele>1539.9</ele>
        <time>2000-01-02T12:28:43.000Z</time>
      </trkpt>
      <trkpt lat="46.01783" lon="6.80467">
        <ele>1542.4</ele>
        <time>2000-01-02T12:28:53.000Z</time>
      </trkpt>
      <trkpt lat="46.01773" lon="6.80476">
        <ele>1546</ele>
        <time>2000-01-02T12:29:03.000Z</time>
      </trkpt>
      <trkpt lat="46.01766" lon="6.80479">
        <ele>1546.2</ele>
        <time>2000-01-02T12:29:13.000Z</time>
      </trkpt>
      <trkpt lat="46.01762" lon="6.8048">
        <ele>1547.7</ele>
        <time>2000-01-02T12:29:23.000Z</time>
      </trkpt>
      <trkpt lat="46.01758" lon="6.80485">
        <ele>1547.8</ele>
        <time>2000-01-02T12:29:33.000Z</time>
      </trkpt>
      <trkpt lat="46.01751" lon="6.8049">
        <ele>1549</ele>
        <time>2000-01-02T12:29:43.000Z</time>
      </trkpt>
      <trkpt lat="46.01743" lon="6.80497">
        <ele>1549.7</ele>
        <time>2000-01-02T12:29:53.000Z</time>
      </trkpt>
      <trkpt lat="46.01736" lon="6.80499">
        <ele>1551.5</ele>
        <time>2000-01-02T12:30:03.000Z</time>
      </trkpt>
      <trkpt lat="46.01733" lon="6.80497">
        <ele>1558</ele>
        <time>2000-01-02T12:30:13.000Z</time>
      </trkpt>
      <trkpt lat="46.01732" lon="6.80494">
        <ele>1555.2</ele>
        <time>2000-01-02T12:30:23.000Z</time>
      </trkpt>
      <trkpt lat="46.01734" lon="6.80488">
        <ele>1557.1</ele>
        <time>2000-01-02T12:30:33.000Z</time>
      </trkpt>
      <trkpt lat="46.01738" lon="6.8048">
        <ele>1558.8</ele>
        <time>2000-01-02T12:30:43.000Z</time>
      </trkpt>
      <trkpt lat="46.01742" lon="6.80468">
        <ele>1564</ele>
        <time>2000-01-02T12:30:53.000Z</time>
      </trkpt>
      <trkpt lat="46.01743" lon="6.80462">
        <ele>1563.4</ele>
        <time>2000-01-02T12:31:03.000Z</time>
      </trkpt>
      <trkpt lat="46.01746" lon="6.80453">
        <ele>1565.1</ele>
        <time>2000-01-02T12:31:13.000Z</time>
      </trkpt>
      <trkpt lat="46.01748" lon="6.80441">
        <ele>1571</ele>
        <time>2000-01-02T12:31:23.000Z</time>
      </trkpt>
      <trkpt lat="46.01749" lon="6.8043">
        <ele>1571.3</ele>
        <time>2000-01-02T12:31:33.000Z</time>
      </trkpt>
      <trkpt lat="46.01749" lon="6.80416">
        <ele>1575.9</ele>
        <time>2000-01-02T12:31:43.000Z</time>
      </trkpt>
      <trkpt lat="46.01751" lon="6.80404">
        <ele>1574</ele>
        <time>2000-01-02T12:31:53.000Z</time>
      </trkpt>
      <trkpt lat="46.01757" lon="6.80392">
        <ele>1577.2</ele>
        <time>2000-01-02T12:32:03.000Z</time>
      </trkpt>
      <trkpt lat="46.01761" lon="6.80381">
        <ele>1575</ele>
        <time>2000-01-02T12:32:13.000Z</time>
      </trkpt>
      <trkpt lat="46.01763" lon="6.80376">
        <ele>1577.3</ele>
        <time>2000-01-02T12:32:23.000Z</time>
      </trkpt>
      <trkpt lat="46.01765" lon="6.8037">
        <ele>1577.4</ele>
        <time>2000-01-02T12:32:33.000Z</time>
      </trkpt>
      <trkpt lat="46.01767" lon="6.80365">
        <ele>1577.4</ele>
        <time>2000-01-02T12:32:43.000Z</time>
      </trkpt>
      <trkpt lat="46.01769" lon="6.80361">
        <ele>1577.1</ele>
        <time>2000-01-02T12:32:53.000Z</time>
      </trkpt>
      <trkpt lat="46.01771" lon="6.80357">
        <ele>1577</ele>
        <time>2000-01-02T12:33:03.000Z</time>
      </trkpt>
      <trkpt lat="46.01779" lon="6.8034">
        <ele>1576.6</ele>
        <time>2000-01-02T12:33:13.000Z</time>
      </trkpt>
      <trkpt lat="46.01781" lon="6.80331">
        <ele>1578</ele>
        <time>2000-01-02T12:33:23.000Z</time>
      </trkpt>
      <trkpt lat="46.01782" lon="6.80317">
        <ele>1580.9</ele>
        <time>2000-01-02T12:33:33.000Z</time>
      </trkpt>
      <trkpt lat="46.01783" lon="6.80305">
        <ele>1583.5</ele>
        <time>2000-01-02T12:33:43.000Z</time>
      </trkpt>
      <trkpt lat="46.01783" lon="6.80295">
        <ele>1588</ele>
        <time>2000-01-02T12:33:53.000Z</time>
      </trkpt>
      <trkpt lat="46.01782" lon="6.80292">
        <ele>1586.9</ele>
        <time>2000-01-02T12:34:03.000Z</time>
      </trkpt>
      <trkpt lat="46.0178" lon="6.80293">
        <ele>1588.1</ele>
        <time>2000-01-02T12:34:13.000Z</time>
      </trkpt>
      <trkpt lat="46.01778" lon="6.80297">
        <ele>1588.7</ele>
        <time>2000-01-02T12:34:23.000Z</time>
      </trkpt>
      <trkpt lat="46.01775" lon="6.80303">
        <ele>1589.1</ele>
        <time>2000-01-02T12:34:33.000Z</time>
      </trkpt>
      <trkpt lat="46.01769" lon="6.80313">
        <ele>1596</ele>
        <time>2000-01-02T12:34:43.000Z</time>
      </trkpt>
      <trkpt lat="46.01764" lon="6.80321">
        <ele>1590</ele>
        <time>2000-01-02T12:34:53.000Z</time>
      </trkpt>
      <trkpt lat="46.01761" lon="6.80322">
        <ele>1591.3</ele>
        <time>2000-01-02T12:35:03.000Z</time>
      </trkpt>
      <trkpt lat="46.01759" lon="6.8032">
        <ele>1593</ele>
        <time>2000-01-02T12:35:13.000Z</time>
      </trkpt>
      <trkpt lat="46.01759" lon="6.80317">
        <ele>1593.8</ele>
        <time>2000-01-02T12:35:23.000Z</time>
      </trkpt>
      <trkpt lat="46.0176" lon="6.80311">
        <ele>1601</ele>
        <time>2000-01-02T12:35:33.000Z</time>
      </trkpt>
      <trkpt lat="46.01762" lon="6.80301">
        <ele>1596.8</ele>
        <time>2000-01-02T12:35:43.000Z</time>
      </trkpt>
      <trkpt lat="46.01764" lon="6.80292">
        <ele>1598.1</ele>
        <time>2000-01-02T12:35:53.000Z</time>
      </trkpt>
      <trkpt lat="46.01765" lon="6.80283">
        <ele>1605</ele>
        <time>2000-01-02T12:36:03.000Z</time>
      </trkpt>
      <trkpt lat="46.01765" lon="6.80274">
        <ele>1602</ele>
        <time>2000-01-02T12:36:13.000Z</time>
      </trkpt>
      <trkpt lat="46.01764" lon="6.80264">
        <ele>1604.7</ele>
        <time>2000-01-02T12:36:23.000Z</time>
      </trkpt>
      <trkpt lat="46.01763" lon="6.80257">
        <ele>1606.7</ele>
        <time>2000-01-02T12:36:33.000Z</time>
      </trkpt>
      <trkpt lat="46.01763" lon="6.80246">
        <ele>1613</ele>
        <time>2000-01-02T12:36:43.000Z</time>
      </trkpt>
      <trkpt lat="46.01763" lon="6.80236">
        <ele>1610.6</ele>
        <time>2000-01-02T12:36:53.000Z</time>
      </trkpt>
      <trkpt lat="46.01763" lon="6.80225">
        <ele>1612.6</ele>
        <time>2000-01-02T12:37:03.000Z</time>
      </trkpt>
      <trkpt lat="46.01762" lon="6.80218">
        <ele>1617</ele>
        <time>2000-01-02T12:37:13.000Z</time>
      </trkpt>
      <trkpt lat="46.01759" lon="6.80209">
        <ele>1617.7</ele>
        <time>2000-01-02T12:37:23.000Z</time>
      </trkpt>
      <trkpt lat="46.01753" lon="6.80189">
        <ele>1627</ele>
        <time>2000-01-02T12:37:33.000Z</time>
      </trkpt>
      <trkpt lat="46.01748" lon="6.8017">
        <ele>1630.7</ele>
        <time>2000-01-02T12:37:43.000Z</time>
      </trkpt>
      <trkpt lat="46.01746" lon="6.80156">
        <ele>1636</ele>
        <time>2000-01-02T12:37:53.000Z</time>
      </trkpt>
      <trkpt lat="46.01745" lon="6.80147">
        <ele>1634.3</ele>
        <time>2000-01-02T12:38:03.000Z</time>
      </trkpt>
      <trkpt lat="46.01745" lon="6.8014">
        <ele>1634.8</ele>
        <time>2000-01-02T12:38:13.000Z</time>
      </trkpt>
      <trkpt lat="46.01746" lon="6.80128">
        <ele>1637</ele>
        <time>2000-01-02T12:38:23.000Z</time>
      </trkpt>
      <trkpt lat="46.01744" lon="6.80116">
        <ele>1636.3</ele>
        <time>2000-01-02T12:38:33.000Z</time>
      </trkpt>
      <trkpt lat="46.0174" lon="6.80106">
        <ele>1638.9</ele>
        <time>2000-01-02T12:38:43.000Z</time>
      </trkpt>
      <trkpt lat="46.01737" lon="6.80097">
        <ele>1645</ele>
        <time>2000-01-02T12:38:53.000Z</time>
      </trkpt>
      <trkpt lat="46.01733" lon="6.80089">
        <ele>1643.1</ele>
        <time>2000-01-02T12:39:03.000Z</time>
      </trkpt>
      <trkpt lat="46.0173" lon="6.80084">
        <ele>1644.8</ele>
        <time>2000-01-02T12:39:13.000Z</time>
      </trkpt>
      <trkpt lat="46.01729" lon="6.80079">
        <ele>1645.2</ele>
        <time>2000-01-02T12:39:23.000Z</time>
      </trkpt>
      <trkpt lat="46.01728" lon="6.80072">
        <ele>1649</ele>
        <time>2000-01-02T12:39:33.000Z</time>
      </trkpt>
      <trkpt lat="46.01725" lon="6.80057">
        <ele>1646.6</ele>
        <time>2000-01-02T12:39:43.000Z</time>
      </trkpt>
      <trkpt lat="46.01719" lon="6.80043">
        <ele>1653</ele>
        <time>2000-01-02T12:39:53.000Z</time>
      </trkpt>
      <trkpt lat="46.01709" lon="6.80028">
        <ele>1654.1</ele>
        <time>2000-01-02T12:40:03.000Z</time>
      </trkpt>
      <trkpt lat="46.01696" lon="6.80009">
        <ele>1662</ele>
        <time>2000-01-02T12:40:13.000Z</time>
      </trkpt>
      <trkpt lat="46.01687" lon="6.8">
        <ele>1664.8</ele>
        <time>2000-01-02T12:40:23.000Z</time>
      </trkpt>
      <trkpt lat="46.0168" lon="6.7999">
        <ele>1667</ele>
        <time>2000-01-02T12:40:33.000Z</time>
      </trkpt>
      <trkpt lat="46.01675" lon="6.79981">
        <ele>1668.2</ele>
        <time>2000-01-02T12:40:43.000Z</time>
      </trkpt>
      <trkpt lat="46.0167" lon="6.79975">
        <ele>1669.8</ele>
        <time>2000-01-02T12:40:53.000Z</time>
      </trkpt>
      <trkpt lat="46.01664" lon="6.79968">
        <ele>1668</ele>
        <time>2000-01-02T12:41:03.000Z</time>
      </trkpt>
      <trkpt lat="46.01659" lon="6.79958">
        <ele>1671.8</ele>
        <time>2000-01-02T12:41:13.000Z</time>
      </trkpt>
      <trkpt lat="46.01653" lon="6.79948">
        <ele>1672.4</ele>
        <time>2000-01-02T12:41:23.000Z</time>
      </trkpt>
      <trkpt lat="46.01652" lon="6.79943">
        <ele>1670</ele>
        <time>2000-01-02T12:41:33.000Z</time>
      </trkpt>
      <trkpt lat="46.01651" lon="6.7994">
        <ele>1671.9</ele>
        <time>2000-01-02T12:41:43.000Z</time>
      </trkpt>
      <trkpt lat="46.01649" lon="6.79934">
        <ele>1672.1</ele>
        <time>2000-01-02T12:41:53.000Z</time>
      </trkpt>
      <trkpt lat="46.01648" lon="6.7993">
        <ele>1672</ele>
        <time>2000-01-02T12:42:03.000Z</time>
      </trkpt>
      <trkpt lat="46.01648" lon="6.79926">
        <ele>1671.4</ele>
        <time>2000-01-02T12:42:13.000Z</time>
      </trkpt>
      <trkpt lat="46.01648" lon="6.79923">
        <ele>1671</ele>
        <time>2000-01-02T12:42:23.000Z</time>
      </trkpt>
      <trkpt lat="46.01649" lon="6.79918">
        <ele>1669.8</ele>
        <time>2000-01-02T12:42:33.000Z</time>
      </trkpt>
      <trkpt lat="46.0165" lon="6.79914">
        <ele>1673</ele>
        <time>2000-01-02T12:42:43.000Z</time>
      </trkpt>
      <trkpt lat="46.01649" lon="6.7991">
        <ele>1668.5</ele>
        <time>2000-01-02T12:42:53.000Z</time>
      </trkpt>
      <trkpt lat="46.01647" lon="6.79906">
        <ele>1668.7</ele>
        <time>2000-01-02T12:43:03.000Z</time>
      </trkpt>
      <trkpt lat="46.01643" lon="6.79901">
        <ele>1669.5</ele>
        <time>2000-01-02T12:43:13.000Z</time>
      </trkpt>
      <trkpt lat="46.01639" lon="6.79894">
        <ele>1669.9</ele>
        <time>2000-01-02T12:43:23.000Z</time>
      </trkpt>
      <trkpt lat="46.01637" lon="6.79886">
        <ele>1673</ele>
        <time>2000-01-02T12:43:33.000Z</time>
      </trkpt>
      <trkpt lat="46.01634" lon="6.79879">
        <ele>1671.3</ele>
        <time>2000-01-02T12:43:43.000Z</time>
      </trkpt>
      <trkpt lat="46.01633" lon="6.79874">
        <ele>1671.4</ele>
        <time>2000-01-02T12:43:53.000Z</time>
      </trkpt>
      <trkpt lat="46.01631" lon="6.79866">
        <ele>1671.9</ele>
        <time>2000-01-02T12:44:03.000Z</time>
      </trkpt>
      <trkpt lat="46.01629" lon="6.79853">
        <ele>1673</ele>
        <time>2000-01-02T12:44:13.000Z</time>
      </trkpt>
      <trkpt lat="46.01627" lon="6.79846">
        <ele>1673</ele>
        <time>2000-01-02T12:44:23.000Z</time>
      </trkpt>
      <trkpt lat="46.01626" lon="6.79843">
        <ele>1673.5</ele>
        <time>2000-01-02T12:44:33.000Z</time>
      </trkpt>
      <trkpt lat="46.01626" lon="6.79841">
        <ele>1673.4</ele>
        <time>2000-01-02T12:44:43.000Z</time>
      </trkpt>
      <trkpt lat="46.01626" lon="6.79836">
        <ele>1673</ele>
        <time>2000-01-02T12:44:53.000Z</time>
      </trkpt>
      <trkpt lat="46.01624" lon="6.79826">
        <ele>1673</ele>
        <time>2000-01-02T12:45:03.000Z</time>
      </trkpt>
      <trkpt lat="46.01623" lon="6.79816">
        <ele>1671.4</ele>
        <time>2000-01-02T12:45:13.000Z</time>
      </trkpt>
      <trkpt lat="46.0162" lon="6.79809">
        <ele>1671.9</ele>
        <time>2000-01-02T12:45:23.000Z</time>
      </trkpt>
      <trkpt lat="46.01617" lon="6.79805">
        <ele>1673.1</ele>
        <time>2000-01-02T12:45:33.000Z</time>
      </trkpt>
      <trkpt lat="46.01613" lon="6.79803">
        <ele>1676</ele>
        <time>2000-01-02T12:45:43.000Z</time>
      </trkpt>
      <trkpt lat="46.01608" lon="6.79801">
        <ele>1677.9</ele>
        <time>2000-01-02T12:45:53.000Z</time>
      </trkpt>
      <trkpt lat="46.01605" lon="6.798">
        <ele>1679.5</ele>
        <time>2000-01-02T12:46:03.000Z</time>
      </trkpt>
      <trkpt lat="46.01605" lon="6.79797">
        <ele>1678.9</ele>
        <time>2000-01-02T12:46:13.000Z</time>
      </trkpt>
      <trkpt lat="46.01604" lon="6.79792">
        <ele>1678.4</ele>
        <time>2000-01-02T12:46:23.000Z</time>
      </trkpt>
      <trkpt lat="46.01603" lon="6.79788">
        <ele>1678.2</ele>
        <time>2000-01-02T12:46:33.000Z</time>
      </trkpt>
      <trkpt lat="46.01601" lon="6.79785">
        <ele>1678</ele>
        <time>2000-01-02T12:46:43.000Z</time>
      </trkpt>
      <trkpt lat="46.016" lon="6.79781">
        <ele>1678.5</ele>
        <time>2000-01-02T12:46:53.000Z</time>
      </trkpt>
      <trkpt lat="46.016" lon="6.79775">
        <ele>1677.3</ele>
        <time>2000-01-02T12:47:03.000Z</time>
      </trkpt>
      <trkpt lat="46.01601" lon="6.79767">
        <ele>1675.4</ele>
        <time>2000-01-02T12:47:13.000Z</time>
      </trkpt>
      <trkpt lat="46.016" lon="6.79761">
        <ele>1675</ele>
        <time>2000-01-02T12:47:23.000Z</time>
      </trkpt>
      <trkpt lat="46.01596" lon="6.79756">
        <ele>1678</ele>
        <time>2000-01-02T12:47:33.000Z</time>
      </trkpt>
      <trkpt lat="46.01591" lon="6.79752">
        <ele>1679.3</ele>
        <time>2000-01-02T12:47:43.000Z</time>
      </trkpt>
      <trkpt lat="46.01588" lon="6.7975">
        <ele>1681</ele>
        <time>2000-01-02T12:47:53.000Z</time>
      </trkpt>
      <trkpt lat="46.01587" lon="6.79747">
        <ele>1681.4</ele>
        <time>2000-01-02T12:48:03.000Z</time>
      </trkpt>
      <trkpt lat="46.01587" lon="6.79743">
        <ele>1681.1</ele>
        <time>2000-01-02T12:48:13.000Z</time>
      </trkpt>
      <trkpt lat="46.01588" lon="6.79735">
        <ele>1677</ele>
        <time>2000-01-02T12:48:23.000Z</time>
      </trkpt>
      <trkpt lat="46.01588" lon="6.79725">
        <ele>1679.2</ele>
        <time>2000-01-02T12:48:33.000Z</time>
      </trkpt>
      <trkpt lat="46.0159" lon="6.79713">
        <ele>1678.1</ele>
        <time>2000-01-02T12:48:43.000Z</time>
      </trkpt>
      <trkpt lat="46.01592" lon="6.79701">
        <ele>1677</ele>
        <time>2000-01-02T12:48:53.000Z</time>
      </trkpt>
      <trkpt lat="46.01593" lon="6.7969">
        <ele>1677.4</ele>
        <time>2000-01-02T12:49:03.000Z</time>
      </trkpt>
      <trkpt lat="46.01593" lon="6.79673">
        <ele>1679</ele>
        <time>2000-01-02T12:49:13.000Z</time>
      </trkpt>
      <trkpt lat="46.01593" lon="6.79656">
        <ele>1678.7</ele>
        <time>2000-01-02T12:49:23.000Z</time>
      </trkpt>
      <trkpt lat="46.01591" lon="6.79648">
        <ele>1679.6</ele>
        <time>2000-01-02T12:49:33.000Z</time>
      </trkpt>
      <trkpt lat="46.0159" lon="6.79638">
        <ele>1679</ele>
        <time>2000-01-02T12:49:43.000Z</time>
      </trkpt>
      <trkpt lat="46.01589" lon="6.79632">
        <ele>1680</ele>
        <time>2000-01-02T12:49:53.000Z</time>
      </trkpt>
      <trkpt lat="46.01588" lon="6.79625">
        <ele>1680</ele>
        <time>2000-01-02T12:50:03.000Z</time>
      </trkpt>
      <trkpt lat="46.01587" lon="6.79616">
        <ele>1679.9</ele>
        <time>2000-01-02T12:50:13.000Z</time>
      </trkpt>
      <trkpt lat="46.01586" lon="6.7961">
        <ele>1680</ele>
        <time>2000-01-02T12:50:23.000Z</time>
      </trkpt>
      <trkpt lat="46.01585" lon="6.79605">
        <ele>1679.9</ele>
        <time>2000-01-02T12:50:33.000Z</time>
      </trkpt>
      <trkpt lat="46.01585" lon="6.79602">
        <ele>1679.7</ele>
        <time>2000-01-02T12:50:43.000Z</time>
      </trkpt>
      <trkpt lat="46.01584" lon="6.79597">
        <ele>1679.7</ele>
        <time>2000-01-02T12:50:53.000Z</time>
      </trkpt>
      <trkpt lat="46.01583" lon="6.79591">
        <ele>1679.7</ele>
        <time>2000-01-02T12:51:03.000Z</time>
      </trkpt>
      <trkpt lat="46.0158" lon="6.79587">
        <ele>1680.4</ele>
        <time>2000-01-02T12:51:13.000Z</time>
      </trkpt>
      <trkpt lat="46.01575" lon="6.79584">
        <ele>1682</ele>
        <time>2000-01-02T12:51:23.000Z</time>
      </trkpt>
      <trkpt lat="46.01567" lon="6.79584">
        <ele>1684.4</ele>
        <time>2000-01-02T12:51:33.000Z</time>
      </trkpt>
      <trkpt lat="46.01562" lon="6.79582">
        <ele>1685.6</ele>
        <time>2000-01-02T12:51:43.000Z</time>
      </trkpt>
      <trkpt lat="46.01555" lon="6.7958">
        <ele>1686</ele>
        <time>2000-01-02T12:51:53.000Z</time>
      </trkpt>
      <trkpt lat="46.0155" lon="6.79577">
        <ele>1687.7</ele>
        <time>2000-01-02T12:52:03.000Z</time>
      </trkpt>
      <trkpt lat="46.01547" lon="6.79574">
        <ele>1687.6</ele>
        <time>2000-01-02T12:52:13.000Z</time>
      </trkpt>
      <trkpt lat="46.01543" lon="6.79571">
        <ele>1687.7</ele>
        <time>2000-01-02T12:52:23.000Z</time>
      </trkpt>
      <trkpt lat="46.0154" lon="6.7957">
        <ele>1688</ele>
        <time>2000-01-02T12:52:33.000Z</time>
      </trkpt>
      <trkpt lat="46.01529" lon="6.79567">
        <ele>1688</ele>
        <time>2000-01-02T12:52:43.000Z</time>
      </trkpt>
      <trkpt lat="46.0152" lon="6.79564">
        <ele>1689.9</ele>
        <time>2000-01-02T12:52:53.000Z</time>
      </trkpt>
      <trkpt lat="46.01513" lon="6.79563">
        <ele>1690.5</ele>
        <time>2000-01-02T12:53:03.000Z</time>
      </trkpt>
      <trkpt lat="46.0151" lon="6.79564">
        <ele>1690</ele>
        <time>2000-01-02T12:53:13.000Z</time>
      </trkpt>
      <trkpt lat="46.01505" lon="6.79565">
        <ele>1692.3</ele>
        <time>2000-01-02T12:53:23.000Z</time>
      </trkpt>
      <trkpt lat="46.01501" lon="6.79565">
        <ele>1692.9</ele>
        <time>2000-01-02T12:53:33.000Z</time>
      </trkpt>
      <trkpt lat="46.01495" lon="6.79563">
        <ele>1692.6</ele>
        <time>2000-01-02T12:53:43.000Z</time>
      </trkpt>
      <trkpt lat="46.01491" lon="6.79564">
        <ele>1691</ele>
        <time>2000-01-02T12:53:53.000Z</time>
      </trkpt>
      <trkpt lat="46.01487" lon="6.79566">
        <ele>1693.9</ele>
        <time>2000-01-02T12:54:03.000Z</time>
      </trkpt>
      <trkpt lat="46.0148" lon="6.79571">
        <ele>1695.7</ele>
        <time>2000-01-02T12:54:13.000Z</time>
      </trkpt>
      <trkpt lat="46.01476" lon="6.79573">
        <ele>1696.5</ele>
        <time>2000-01-02T12:54:23.000Z</time>
      </trkpt>
      <trkpt lat="46.01472" lon="6.79574">
        <ele>1692</ele>
        <time>2000-01-02T12:54:33.000Z</time>
      </trkpt>
      <trkpt lat="46.01467" lon="6.79574">
        <ele>1696.8</ele>
        <time>2000-01-02T12:54:43.000Z</time>
      </trkpt>
      <trkpt lat="46.01464" lon="6.79574">
        <ele>1696.7</ele>
        <time>2000-01-02T12:54:53.000Z</time>
      </trkpt>
      <trkpt lat="46.01459" lon="6.79575">
        <ele>1696.8</ele>
        <time>2000-01-02T12:55:03.000Z</time>
      </trkpt>
      <trkpt lat="46.01456" lon="6.79577">
        <ele>1697.2</ele>
        <time>2000-01-02T12:55:13.000Z</time>
      </trkpt>
      <trkpt lat="46.01453" lon="6.79577">
        <ele>1694</ele>
        <time>2000-01-02T12:55:23.000Z</time>
      </trkpt>
      <trkpt lat="46.0145" lon="6.79578">
        <ele>1697.1</ele>
        <time>2000-01-02T12:55:33.000Z</time>
      </trkpt>
      <trkpt lat="46.01448" lon="6.79579">
        <ele>1697.3</ele>
        <time>2000-01-02T12:55:43.000Z</time>
      </trkpt>
      <trkpt lat="46.01448" lon="6.79583">
        <ele>1698.2</ele>
        <time>2000-01-02T12:55:53.000Z</time>
      </trkpt>
      <trkpt lat="46.01449" lon="6.79584">
        <ele>1698.5</ele>
        <time>2000-01-02T12:56:03.000Z</time>
      </trkpt>
      <trkpt lat="46.01453" lon="6.79585">
        <ele>1699.2</ele>
        <time>2000-01-02T12:56:13.000Z</time>
      </trkpt>
      <trkpt lat="46.01456" lon="6.79587">
        <ele>1700</ele>
        <time>2000-01-02T12:56:23.000Z</time>
      </trkpt>
      <trkpt lat="46.01459" lon="6.79589">
        <ele>1696</ele>
        <time>2000-01-02T12:56:33.000Z</time>
      </trkpt>
      <trkpt lat="46.01462" lon="6.79593">
        <ele>1702.4</ele>
        <time>2000-01-02T12:56:43.000Z</time>
      </trkpt>
      <trkpt lat="46.01465" lon="6.79595">
        <ele>1703.3</ele>
        <time>2000-01-02T12:56:53.000Z</time>
      </trkpt>
      <trkpt lat="46.01468" lon="6.79595">
        <ele>1703.5</ele>
        <time>2000-01-02T12:57:03.000Z</time>
      </trkpt>
      <trkpt lat="46.01474" lon="6.79596">
        <ele>1704</ele>
        <time>2000-01-02T12:57:13.000Z</time>
      </trkpt>
      <trkpt lat="46.01479" lon="6.79598">
        <ele>1701</ele>
        <time>2000-01-02T12:57:23.000Z</time>
      </trkpt>
      <trkpt lat="46.01481" lon="6.79601">
        <ele>1705.2</ele>
        <time>2000-01-02T12:57:33.000Z</time>
      </trkpt>
      <trkpt lat="46.01483" lon="6.79602">
        <ele>1705.4</ele>
        <time>2000-01-02T12:57:43.000Z</time>
      </trkpt>
      <trkpt lat="46.01489" lon="6.79604">
        <ele>1705.6</ele>
        <time>2000-01-02T12:57:53.000Z</time>
      </trkpt>
      <trkpt lat="46.01494" lon="6.79608">
        <ele>1706.5</ele>
        <time>2000-01-02T12:58:03.000Z</time>
      </trkpt>
      <trkpt lat="46.01497" lon="6.79612">
        <ele>1708</ele>
        <time>2000-01-02T12:58:13.000Z</time>
      </trkpt>
      <trkpt lat="46.01499" lon="6.79618">
        <ele>1708.1</ele>
        <time>2000-01-02T12:58:23.000Z</time>
      </trkpt>
      <trkpt lat="46.015" lon="6.79624">
        <ele>1708.9</ele>
        <time>2000-01-02T12:58:33.000Z</time>
      </trkpt>
      <trkpt lat="46.015" lon="6.79631">
        <ele>1709.9</ele>
        <time>2000-01-02T12:58:43.000Z</time>
      </trkpt>
      <trkpt lat="46.01502" lon="6.79638">
        <ele>1709</ele>
        <time>2000-01-02T12:58:53.000Z</time>
      </trkpt>
      <trkpt lat="46.01505" lon="6.79643">
        <ele>1710.8</ele>
        <time>2000-01-02T12:59:03.000Z</time>
      </trkpt>
      <trkpt lat="46.01507" lon="6.79649">
        <ele>1711.7</ele>
        <time>2000-01-02T12:59:13.000Z</time>
      </trkpt>
      <trkpt lat="46.0151" lon="6.79658">
        <ele>1712.7</ele>
        <time>2000-01-02T12:59:23.000Z</time>
      </trkpt>
      <trkpt lat="46.01511" lon="6.79661">
        <ele>1713</ele>
        <time>2000-01-02T12:59:33.000Z</time>
      </trkpt>
      <trkpt lat="46.01511" lon="6.79664">
        <ele>1713.7</ele>
        <time>2000-01-02T12:59:43.000Z</time>
      </trkpt>
      <trkpt lat="46.01512" lon="6.7967">
        <ele>1714.2</ele>
        <time>2000-01-02T12:59:53.000Z</time>
      </trkpt>
      <trkpt lat="46.01512" lon="6.79676">
        <ele>1715</ele>
        <time>2000-01-02T13:00:03.000Z</time>
      </trkpt>
      <trkpt lat="46.01512" lon="6.79685">
        <ele>1716.2</ele>
        <time>2000-01-02T13:00:13.000Z</time>
      </trkpt>
      <trkpt lat="46.01512" lon="6.79701">
        <ele>1719</ele>
        <time>2000-01-02T13:00:23.000Z</time>
      </trkpt>
      <trkpt lat="46.01511" lon="6.79716">
        <ele>1720.6</ele>
        <time>2000-01-02T13:00:33.000Z</time>
      </trkpt>
      <trkpt lat="46.01512" lon="6.79728">
        <ele>1721</ele>
        <time>2000-01-02T13:00:43.000Z</time>
      </trkpt>
      <trkpt lat="46.01513" lon="6.79736">
        <ele>1721.9</ele>
        <time>2000-01-02T13:00:53.000Z</time>
      </trkpt>
      <trkpt lat="46.01512" lon="6.7974">
        <ele>1722.9</ele>
        <time>2000-01-02T13:01:03.000Z</time>
      </trkpt>
      <trkpt lat="46.0151" lon="6.79741">
        <ele>1724</ele>
        <time>2000-01-02T13:01:13.000Z</time>
      </trkpt>
      <trkpt lat="46.01508" lon="6.7974">
        <ele>1724.9</ele>
        <time>2000-01-02T13:01:23.000Z</time>
      </trkpt>
      <trkpt lat="46.01506" lon="6.79737">
        <ele>1725.6</ele>
        <time>2000-01-02T13:01:33.000Z</time>
      </trkpt>
      <trkpt lat="46.01497" lon="6.79721">
        <ele>1725</ele>
        <time>2000-01-02T13:01:43.000Z</time>
      </trkpt>
      <trkpt lat="46.01486" lon="6.79704">
        <ele>1729.6</ele>
        <time>2000-01-02T13:01:53.000Z</time>
      </trkpt>
      <trkpt lat="46.01482" lon="6.79698">
        <ele>1730</ele>
        <time>2000-01-02T13:02:03.000Z</time>
      </trkpt>
      <trkpt lat="46.01477" lon="6.79693">
        <ele>1730.9</ele>
        <time>2000-01-02T13:02:13.000Z</time>
      </trkpt>
      <trkpt lat="46.01469" lon="6.7969">
        <ele>1732.2</ele>
        <time>2000-01-02T13:02:23.000Z</time>
      </trkpt>
      <trkpt lat="46.01463" lon="6.79687">
        <ele>1730</ele>
        <time>2000-01-02T13:02:33.000Z</time>
      </trkpt>
      <trkpt lat="46.01459" lon="6.79688">
        <ele>1732.9</ele>
        <time>2000-01-02T13:02:43.000Z</time>
      </trkpt>
      <trkpt lat="46.01456" lon="6.7969">
        <ele>1734</ele>
        <time>2000-01-02T13:02:53.000Z</time>
      </trkpt>
      <trkpt lat="46.01454" lon="6.79692">
        <ele>1734.9</ele>
        <time>2000-01-02T13:03:03.000Z</time>
      </trkpt>
      <trkpt lat="46.01451" lon="6.79696">
        <ele>1736.4</ele>
        <time>2000-01-02T13:03:13.000Z</time>
      </trkpt>
      <trkpt lat="46.01448" lon="6.79697">
        <ele>1737.1</ele>
        <time>2000-01-02T13:03:23.000Z</time>
      </trkpt>
      <trkpt lat="46.01446" lon="6.79697">
        <ele>1737.4</ele>
        <time>2000-01-02T13:03:33.000Z</time>
      </trkpt>
      <trkpt lat="46.01443" lon="6.79695">
        <ele>1736</ele>
        <time>2000-01-02T13:03:43.000Z</time>
      </trkpt>
      <trkpt lat="46.01441" lon="6.79692">
        <ele>1736.5</ele>
        <time>2000-01-02T13:03:53.000Z</time>
      </trkpt>
      <trkpt lat="46.01437" lon="6.79691">
        <ele>1736.4</ele>
        <time>2000-01-02T13:04:03.000Z</time>
      </trkpt>
      <trkpt lat="46.01434" lon="6.79691">
        <ele>1736.6</ele>
        <time>2000-01-02T13:04:13.000Z</time>
      </trkpt>
      <trkpt lat="46.0143" lon="6.79693">
        <ele>1737.6</ele>
        <time>2000-01-02T13:04:23.000Z</time>
      </trkpt>
      <trkpt lat="46.01427" lon="6.79696">
        <ele>1738.7</ele>
        <time>2000-01-02T13:04:33.000Z</time>
      </trkpt>
      <trkpt lat="46.01422" lon="6.79701">
        <ele>1740</ele>
        <time>2000-01-02T13:04:43.000Z</time>
      </trkpt>
      <trkpt lat="46.01416" lon="6.79706">
        <ele>1742.4</ele>
        <time>2000-01-02T13:04:53.000Z</time>
      </trkpt>
      <trkpt lat="46.0141" lon="6.79709">
        <ele>1744</ele>
        <time>2000-01-02T13:05:03.000Z</time>
      </trkpt>
      <trkpt lat="46.01405" lon="6.79712">
        <ele>1745.5</ele>
        <time>2000-01-02T13:05:13.000Z</time>
      </trkpt>
      <trkpt lat="46.01399" lon="6.79715">
        <ele>1745</ele>
        <time>2000-01-02T13:05:23.000Z</time>
      </trkpt>
      <trkpt lat="46.0139" lon="6.79719">
        <ele>1749.1</ele>
        <time>2000-01-02T13:05:33.000Z</time>
      </trkpt>
      <trkpt lat="46.01386" lon="6.79721">
        <ele>1750.1</ele>
        <time>2000-01-02T13:05:43.000Z</time>
      </trkpt>
      <trkpt lat="46.01382" lon="6.79721">
        <ele>1750.7</ele>
        <time>2000-01-02T13:05:53.000Z</time>
      </trkpt>
      <trkpt lat="46.01378" lon="6.79722">
        <ele>1753</ele>
        <time>2000-01-02T13:06:03.000Z</time>
      </trkpt>
      <trkpt lat="46.01373" lon="6.79724">
        <ele>1752.8</ele>
        <time>2000-01-02T13:06:13.000Z</time>
      </trkpt>
      <trkpt lat="46.0137" lon="6.79727">
        <ele>1754</ele>
        <time>2000-01-02T13:06:23.000Z</time>
      </trkpt>
      <trkpt lat="46.01367" lon="6.79729">
        <ele>1755</ele>
        <time>2000-01-02T13:06:33.000Z</time>
      </trkpt>
      <trkpt lat="46.01366" lon="6.79732">
        <ele>1755.9</ele>
        <time>2000-01-02T13:06:43.000Z</time>
      </trkpt>
      <trkpt lat="46.01366" lon="6.79735">
        <ele>1756.7</ele>
        <time>2000-01-02T13:06:53.000Z</time>
      </trkpt>
      <trkpt lat="46.01369" lon="6.79738">
        <ele>1756</ele>
        <time>2000-01-02T13:07:03.000Z</time>
      </trkpt>
      <trkpt lat="46.01376" lon="6.79743">
        <ele>1757.9</ele>
        <time>2000-01-02T13:07:13.000Z</time>
      </trkpt>
      <trkpt lat="46.01382" lon="6.79749">
        <ele>1759.2</ele>
        <time>2000-01-02T13:07:23.000Z</time>
      </trkpt>
      <trkpt lat="46.01387" lon="6.79755">
        <ele>1759</ele>
        <time>2000-01-02T13:07:33.000Z</time>
      </trkpt>
      <trkpt lat="46.01395" lon="6.79761">
        <ele>1760.3</ele>
        <time>2000-01-02T13:07:43.000Z</time>
      </trkpt>
      <trkpt lat="46.01399" lon="6.79765">
        <ele>1760.2</ele>
        <time>2000-01-02T13:07:53.000Z</time>
      </trkpt>
      <trkpt lat="46.014" lon="6.79771">
        <ele>1761.3</ele>
        <time>2000-01-02T13:08:03.000Z</time>
      </trkpt>
      <trkpt lat="46.01401" lon="6.79778">
        <ele>1761</ele>
        <time>2000-01-02T13:08:13.000Z</time>
      </trkpt>
      <trkpt lat="46.01401" lon="6.7979">
        <ele>1764.3</ele>
        <time>2000-01-02T13:08:23.000Z</time>
      </trkpt>
      <trkpt lat="46.014" lon="6.79801">
        <ele>1766.3</ele>
        <time>2000-01-02T13:08:33.000Z</time>
      </trkpt>
      <trkpt lat="46.01399" lon="6.79806">
        <ele>1769</ele>
        <time>2000-01-02T13:08:43.000Z</time>
      </trkpt>
      <trkpt lat="46.01397" lon="6.79809">
        <ele>1768.4</ele>
        <time>2000-01-02T13:08:53.000Z</time>
      </trkpt>
      <trkpt lat="46.01395" lon="6.79814">
        <ele>1769.6</ele>
        <time>2000-01-02T13:09:03.000Z</time>
      </trkpt>
      <trkpt lat="46.01393" lon="6.7982">
        <ele>1770.8</ele>
        <time>2000-01-02T13:09:13.000Z</time>
      </trkpt>
      <trkpt lat="46.01392" lon="6.79827">
        <ele>1771.7</ele>
        <time>2000-01-02T13:09:23.000Z</time>
      </trkpt>
      <trkpt lat="46.0139" lon="6.79834">
        <ele>1771</ele>
        <time>2000-01-02T13:09:33.000Z</time>
      </trkpt>
      <trkpt lat="46.01388" lon="6.79838">
        <ele>1773.9</ele>
        <time>2000-01-02T13:09:43.000Z</time>
      </trkpt>
      <trkpt lat="46.01385" lon="6.79841">
        <ele>1774.8</ele>
        <time>2000-01-02T13:09:53.000Z</time>
      </trkpt>
      <trkpt lat="46.01384" lon="6.79843">
        <ele>1775.3</ele>
        <time>2000-01-02T13:10:03.000Z</time>
      </trkpt>
      <trkpt lat="46.01384" lon="6.79846">
        <ele>1775.9</ele>
        <time>2000-01-02T13:10:13.000Z</time>
      </trkpt>
      <trkpt lat="46.01384" lon="6.79851">
        <ele>1776.8</ele>
        <time>2000-01-02T13:10:23.000Z</time>
      </trkpt>
      <trkpt lat="46.01383" lon="6.79855">
        <ele>1777.7</ele>
        <time>2000-01-02T13:10:33.000Z</time>
      </trkpt>
      <trkpt lat="46.01383" lon="6.79858">
        <ele>1777</ele>
        <time>2000-01-02T13:10:43.000Z</time>
      </trkpt>
      <trkpt lat="46.01383" lon="6.79861">
        <ele>1778.8</ele>
        <time>2000-01-02T13:10:53.000Z</time>
      </trkpt>
      <trkpt lat="46.01385" lon="6.79863">
        <ele>1779.1</ele>
        <time>2000-01-02T13:11:03.000Z</time>
      </trkpt>
      <trkpt lat="46.01387" lon="6.79864">
        <ele>1779.1</ele>
        <time>2000-01-02T13:11:13.000Z</time>
      </trkpt>
      <trkpt lat="46.01388" lon="6.79868">
        <ele>1780.1</ele>
        <time>2000-01-02T13:11:23.000Z</time>
      </trkpt>
      <trkpt lat="46.01389" lon="6.79871">
        <ele>1780.8</ele>
        <time>2000-01-02T13:11:33.000Z</time>
      </trkpt>
      <trkpt lat="46.01387" lon="6.79877">
        <ele>1782.9</ele>
        <time>2000-01-02T13:11:43.000Z</time>
      </trkpt>
      <trkpt lat="46.01386" lon="6.79885">
        <ele>1785</ele>
        <time>2000-01-02T13:11:53.000Z</time>
      </trkpt>
      <trkpt lat="46.01387" lon="6.79889">
        <ele>1786.4</ele>
        <time>2000-01-02T13:12:03.000Z</time>
      </trkpt>
      <trkpt lat="46.01389" lon="6.79894">
        <ele>1787.8</ele>
        <time>2000-01-02T13:12:13.000Z</time>
      </trkpt>
      <trkpt lat="46.01393" lon="6.79905">
        <ele>1791</ele>
        <time>2000-01-02T13:12:23.000Z</time>
      </trkpt>
      <trkpt lat="46.01395" lon="6.79913">
        <ele>1788</ele>
        <time>2000-01-02T13:12:33.000Z</time>
      </trkpt>
      <trkpt lat="46.01397" lon="6.79918">
        <ele>1794.6</ele>
        <time>2000-01-02T13:12:43.000Z</time>
      </trkpt>
      <trkpt lat="46.01401" lon="6.79919">
        <ele>1794</ele>
        <time>2000-01-02T13:12:53.000Z</time>
      </trkpt>
      <trkpt lat="46.01405" lon="6.79919">
        <ele>1793.2</ele>
        <time>2000-01-02T13:13:03.000Z</time>
      </trkpt>
      <trkpt lat="46.0141" lon="6.79921">
        <ele>1792.8</ele>
        <time>2000-01-02T13:13:13.000Z</time>
      </trkpt>
      <trkpt lat="46.01415" lon="6.79924">
        <ele>1791</ele>
        <time>2000-01-02T13:13:23.000Z</time>
      </trkpt>
      <trkpt lat="46.01418" lon="6.79929">
        <ele>1793.9</ele>
        <time>2000-01-02T13:13:33.000Z</time>
      </trkpt>
      <trkpt lat="46.0142" lon="6.79934">
        <ele>1795.4</ele>
        <time>2000-01-02T13:13:43.000Z</time>
      </trkpt>
      <trkpt lat="46.01422" lon="6.7994">
        <ele>1797.3</ele>
        <time>2000-01-02T13:13:53.000Z</time>
      </trkpt>
      <trkpt lat="46.01425" lon="6.79946">
        <ele>1799.3</ele>
        <time>2000-01-02T13:14:03.000Z</time>
      </trkpt>
      <trkpt lat="46.01427" lon="6.79947">
        <ele>1797</ele>
        <time>2000-01-02T13:14:13.000Z</time>
      </trkpt>
      <trkpt lat="46.01434" lon="6.79949">
        <ele>1800.1</ele>
        <time>2000-01-02T13:14:23.000Z</time>
      </trkpt>
      <trkpt lat="46.01442" lon="6.79952">
        <ele>1801.1</ele>
        <time>2000-01-02T13:14:33.000Z</time>
      </trkpt>
      <trkpt lat="46.01445" lon="6.79953">
        <ele>1799</ele>
        <time>2000-01-02T13:14:43.000Z</time>
      </trkpt>
      <trkpt lat="46.0145" lon="6.79958">
        <ele>1803.7</ele>
        <time>2000-01-02T13:14:53.000Z</time>
      </trkpt>
      <trkpt lat="46.01456" lon="6.79964">
        <ele>1805.9</ele>
        <time>2000-01-02T13:15:03.000Z</time>
      </trkpt>
      <trkpt lat="46.01458" lon="6.79965">
        <ele>1806.3</ele>
        <time>2000-01-02T13:15:13.000Z</time>
      </trkpt>
      <trkpt lat="46.01462" lon="6.79966">
        <ele>1805</ele>
        <time>2000-01-02T13:15:23.000Z</time>
      </trkpt>
      <trkpt lat="46.01468" lon="6.79967">
        <ele>1806.9</ele>
        <time>2000-01-02T13:15:33.000Z</time>
      </trkpt>
      <trkpt lat="46.01471" lon="6.79967">
        <ele>1806.9</ele>
        <time>2000-01-02T13:15:43.000Z</time>
      </trkpt>
      <trkpt lat="46.01473" lon="6.79966">
        <ele>1806.4</ele>
        <time>2000-01-02T13:15:53.000Z</time>
      </trkpt>
      <trkpt lat="46.01475" lon="6.79967">
        <ele>1805.9</ele>
        <time>2000-01-02T13:16:03.000Z</time>
      </trkpt>
      <trkpt lat="46.01477" lon="6.7997">
        <ele>1805.9</ele>
        <time>2000-01-02T13:16:13.000Z</time>
      </trkpt>
      <trkpt lat="46.01481" lon="6.79976">
        <ele>1806</ele>
        <time>2000-01-02T13:16:23.000Z</time>
      </trkpt>
      <trkpt lat="46.01484" lon="6.79981">
        <ele>1807.1</ele>
        <time>2000-01-02T13:16:33.000Z</time>
      </trkpt>
      <trkpt lat="46.01487" lon="6.79987">
        <ele>1808</ele>
        <time>2000-01-02T13:16:43.000Z</time>
      </trkpt>
      <trkpt lat="46.01491" lon="6.79999">
        <ele>1809</ele>
        <time>2000-01-02T13:16:53.000Z</time>
      </trkpt>
      <trkpt lat="46.01494" lon="6.80018">
        <ele>1813.9</ele>
        <time>2000-01-02T13:17:03.000Z</time>
      </trkpt>
      <trkpt lat="46.01495" lon="6.80035">
        <ele>1819</ele>
        <time>2000-01-02T13:17:13.000Z</time>
      </trkpt>
      <trkpt lat="46.01495" lon="6.8005">
        <ele>1820.1</ele>
        <time>2000-01-02T13:17:23.000Z</time>
      </trkpt>
      <trkpt lat="46.01494" lon="6.80062">
        <ele>1822.3</ele>
        <time>2000-01-02T13:17:33.000Z</time>
      </trkpt>
      <trkpt lat="46.01494" lon="6.80075">
        <ele>1825</ele>
        <time>2000-01-02T13:17:43.000Z</time>
      </trkpt>
      <trkpt lat="46.01493" lon="6.80086">
        <ele>1825.5</ele>
        <time>2000-01-02T13:17:53.000Z</time>
      </trkpt>
      <trkpt lat="46.01492" lon="6.80098">
        <ele>1827</ele>
        <time>2000-01-02T13:18:03.000Z</time>
      </trkpt>
      <trkpt lat="46.01489" lon="6.80113">
        <ele>1834</ele>
        <time>2000-01-02T13:18:13.000Z</time>
      </trkpt>
      <trkpt lat="46.01487" lon="6.80127">
        <ele>1831.1</ele>
        <time>2000-01-02T13:18:23.000Z</time>
      </trkpt>
      <trkpt lat="46.01484" lon="6.80138">
        <ele>1833</ele>
        <time>2000-01-02T13:18:33.000Z</time>
      </trkpt>
      <trkpt lat="46.01482" lon="6.80145">
        <ele>1835</ele>
        <time>2000-01-02T13:18:43.000Z</time>
      </trkpt>
      <trkpt lat="46.01479" lon="6.80153">
        <ele>1834.8</ele>
        <time>2000-01-02T13:18:53.000Z</time>
      </trkpt>
      <trkpt lat="46.01474" lon="6.8016">
        <ele>1837.2</ele>
        <time>2000-01-02T13:19:03.000Z</time>
      </trkpt>
      <trkpt lat="46.01469" lon="6.80166">
        <ele>1844</ele>
        <time>2000-01-02T13:19:13.000Z</time>
      </trkpt>
      <trkpt lat="46.01465" lon="6.80169">
        <ele>1840.3</ele>
        <time>2000-01-02T13:19:23.000Z</time>
      </trkpt>
      <trkpt lat="46.0146" lon="6.80173">
        <ele>1841.6</ele>
        <time>2000-01-02T13:19:33.000Z</time>
      </trkpt>
      <trkpt lat="46.01454" lon="6.80179">
        <ele>1843.1</ele>
        <time>2000-01-02T13:19:43.000Z</time>
      </trkpt>
      <trkpt lat="46.01449" lon="6.80185">
        <ele>1847</ele>
        <time>2000-01-02T13:19:53.000Z</time>
      </trkpt>
      <trkpt lat="46.01447" lon="6.80187">
        <ele>1844.8</ele>
        <time>2000-01-02T13:20:03.000Z</time>
      </trkpt>
      <trkpt lat="46.01444" lon="6.80187">
        <ele>1845.9</ele>
        <time>2000-01-02T13:20:13.000Z</time>
      </trkpt>
      <trkpt lat="46.01435" lon="6.80187">
        <ele>1847.8</ele>
        <time>2000-01-02T13:20:23.000Z</time>
      </trkpt>
      <trkpt lat="46.01431" lon="6.80187">
        <ele>1850</ele>
        <time>2000-01-02T13:20:33.000Z</time>
      </trkpt>
      <trkpt lat="46.01428" lon="6.80186">
        <ele>1849.3</ele>
        <time>2000-01-02T13:20:43.000Z</time>
      </trkpt>
      <trkpt lat="46.01426" lon="6.80186">
        <ele>1849.7</ele>
        <time>2000-01-02T13:20:53.000Z</time>
      </trkpt>
      <trkpt lat="46.01424" lon="6.80186">
        <ele>1850.1</ele>
        <time>2000-01-02T13:21:03.000Z</time>
      </trkpt>
      <trkpt lat="46.0142" lon="6.80188">
        <ele>1850.8</ele>
        <time>2000-01-02T13:21:13.000Z</time>
      </trkpt>
      <trkpt lat="46.01417" lon="6.8019">
        <ele>1851.2</ele>
        <time>2000-01-02T13:21:23.000Z</time>
      </trkpt>
      <trkpt lat="46.01413" lon="6.80191">
        <ele>1851</ele>
        <time>2000-01-02T13:21:33.000Z</time>
      </trkpt>
      <trkpt lat="46.0141" lon="6.80193">
        <ele>1853.9</ele>
        <time>2000-01-02T13:21:43.000Z</time>
      </trkpt>
      <trkpt lat="46.01408" lon="6.80196">
        <ele>1854.6</ele>
        <time>2000-01-02T13:21:53.000Z</time>
      </trkpt>
      <trkpt lat="46.01406" lon="6.802">
        <ele>1855.3</ele>
        <time>2000-01-02T13:22:03.000Z</time>
      </trkpt>
      <trkpt lat="46.01405" lon="6.80208">
        <ele>1855.3</ele>
        <time>2000-01-02T13:22:13.000Z</time>
      </trkpt>
      <trkpt lat="46.01402" lon="6.80216">
        <ele>1856</ele>
        <time>2000-01-02T13:22:23.000Z</time>
      </trkpt>
      <trkpt lat="46.01398" lon="6.80225">
        <ele>1857.4</ele>
        <time>2000-01-02T13:22:33.000Z</time>
      </trkpt>
      <trkpt lat="46.01394" lon="6.80236">
        <ele>1857.7</ele>
        <time>2000-01-02T13:22:43.000Z</time>
      </trkpt>
      <trkpt lat="46.01391" lon="6.80243">
        <ele>1859</ele>
        <time>2000-01-02T13:22:53.000Z</time>
      </trkpt>
      <trkpt lat="46.0139" lon="6.80245">
        <ele>1858.2</ele>
        <time>2000-01-02T13:23:03.000Z</time>
      </trkpt>
      <trkpt lat="46.01389" lon="6.80245">
        <ele>1858.7</ele>
        <time>2000-01-02T13:23:13.000Z</time>
      </trkpt>
      <trkpt lat="46.01388" lon="6.80244">
        <ele>1859.4</ele>
        <time>2000-01-02T13:23:23.000Z</time>
      </trkpt>
      <trkpt lat="46.01388" lon="6.80241">
        <ele>1859.9</ele>
        <time>2000-01-02T13:23:33.000Z</time>
      </trkpt>
      <trkpt lat="46.01388" lon="6.80225">
        <ele>1862.2</ele>
        <time>2000-01-02T13:23:43.000Z</time>
      </trkpt>
      <trkpt lat="46.01386" lon="6.802">
        <ele>1861</ele>
        <time>2000-01-02T13:23:53.000Z</time>
      </trkpt>
      <trkpt lat="46.01384" lon="6.8018">
        <ele>1864.8</ele>
        <time>2000-01-02T13:24:03.000Z</time>
      </trkpt>
      <trkpt lat="46.0138" lon="6.80167">
        <ele>1863</ele>
        <time>2000-01-02T13:24:13.000Z</time>
      </trkpt>
      <trkpt lat="46.01375" lon="6.80155">
        <ele>1866.2</ele>
        <time>2000-01-02T13:24:23.000Z</time>
      </trkpt>
      <trkpt lat="46.01371" lon="6.80146">
        <ele>1866.2</ele>
        <time>2000-01-02T13:24:33.000Z</time>
      </trkpt>
      <trkpt lat="46.01365" lon="6.8014">
        <ele>1866</ele>
        <time>2000-01-02T13:24:43.000Z</time>
      </trkpt>
      <trkpt lat="46.01359" lon="6.80133">
        <ele>1867.9</ele>
        <time>2000-01-02T13:24:53.000Z</time>
      </trkpt>
      <trkpt lat="46.01353" lon="6.80129">
        <ele>1868.7</ele>
        <time>2000-01-02T13:25:03.000Z</time>
      </trkpt>
      <trkpt lat="46.01349" lon="6.80128">
        <ele>1871</ele>
        <time>2000-01-02T13:25:13.000Z</time>
      </trkpt>
      <trkpt lat="46.01347" lon="6.80128">
        <ele>1870.6</ele>
        <time>2000-01-02T13:25:23.000Z</time>
      </trkpt>
      <trkpt lat="46.01347" lon="6.8013">
        <ele>1871.2</ele>
        <time>2000-01-02T13:25:33.000Z</time>
      </trkpt>
      <trkpt lat="46.01348" lon="6.80133">
        <ele>1871.8</ele>
        <time>2000-01-02T13:25:43.000Z</time>
      </trkpt>
      <trkpt lat="46.01351" lon="6.80137">
        <ele>1872</ele>
        <time>2000-01-02T13:25:53.000Z</time>
      </trkpt>
      <trkpt lat="46.01355" lon="6.80142">
        <ele>1872</ele>
        <time>2000-01-02T13:26:03.000Z</time>
      </trkpt>
      <trkpt lat="46.01357" lon="6.80145">
        <ele>1872.1</ele>
        <time>2000-01-02T13:26:13.000Z</time>
      </trkpt>
      <trkpt lat="46.0136" lon="6.80154">
        <ele>1872</ele>
        <time>2000-01-02T13:26:23.000Z</time>
      </trkpt>
      <trkpt lat="46.01363" lon="6.8016">
        <ele>1873.3</ele>
        <time>2000-01-02T13:26:33.000Z</time>
      </trkpt>
      <trkpt lat="46.01364" lon="6.80168">
        <ele>1874.6</ele>
        <time>2000-01-02T13:26:43.000Z</time>
      </trkpt>
      <trkpt lat="46.01365" lon="6.80175">
        <ele>1875</ele>
        <time>2000-01-02T13:26:53.000Z</time>
      </trkpt>
      <trkpt lat="46.01366" lon="6.80181">
        <ele>1879</ele>
        <time>2000-01-02T13:27:03.000Z</time>
      </trkpt>
      <trkpt lat="46.01366" lon="6.80186">
        <ele>1875.9</ele>
        <time>2000-01-02T13:27:13.000Z</time>
      </trkpt>
      <trkpt lat="46.01366" lon="6.80191">
        <ele>1876.6</ele>
        <time>2000-01-02T13:27:23.000Z</time>
      </trkpt>
      <trkpt lat="46.01365" lon="6.80193">
        <ele>1877.4</ele>
        <time>2000-01-02T13:27:33.000Z</time>
      </trkpt>
      <trkpt lat="46.01364" lon="6.80193">
        <ele>1878</ele>
        <time>2000-01-02T13:27:43.000Z</time>
      </trkpt>
      <trkpt lat="46.01363" lon="6.80192">
        <ele>1878.5</ele>
        <time>2000-01-02T13:27:53.000Z</time>
      </trkpt>
      <trkpt lat="46.01362" lon="6.80188">
        <ele>1878.5</ele>
        <time>2000-01-02T13:28:03.000Z</time>
      </trkpt>
      <trkpt lat="46.0136" lon="6.80183">
        <ele>1878.9</ele>
        <time>2000-01-02T13:28:13.000Z</time>
      </trkpt>
      <trkpt lat="46.01356" lon="6.80177">
        <ele>1881</ele>
        <time>2000-01-02T13:28:23.000Z</time>
      </trkpt>
      <trkpt lat="46.01351" lon="6.8017">
        <ele>1880.9</ele>
        <time>2000-01-02T13:28:33.000Z</time>
      </trkpt>
      <trkpt lat="46.01346" lon="6.80164">
        <ele>1881.8</ele>
        <time>2000-01-02T13:28:43.000Z</time>
      </trkpt>
      <trkpt lat="46.01344" lon="6.80163">
        <ele>1882.3</ele>
        <time>2000-01-02T13:28:53.000Z</time>
      </trkpt>
      <trkpt lat="46.01342" lon="6.80163">
        <ele>1883.2</ele>
        <time>2000-01-02T13:29:03.000Z</time>
      </trkpt>
      <trkpt lat="46.01341" lon="6.80164">
        <ele>1883</ele>
        <time>2000-01-02T13:29:13.000Z</time>
      </trkpt>
      <trkpt lat="46.01343" lon="6.80168">
        <ele>1884.1</ele>
        <time>2000-01-02T13:29:23.000Z</time>
      </trkpt>
      <trkpt lat="46.01346" lon="6.80174">
        <ele>1883.9</ele>
        <time>2000-01-02T13:29:33.000Z</time>
      </trkpt>
      <trkpt lat="46.0135" lon="6.80183">
        <ele>1883.6</ele>
        <time>2000-01-02T13:29:43.000Z</time>
      </trkpt>
      <trkpt lat="46.01353" lon="6.8019">
        <ele>1883</ele>
        <time>2000-01-02T13:29:53.000Z</time>
      </trkpt>
      <trkpt lat="46.01355" lon="6.802">
        <ele>1883</ele>
        <time>2000-01-02T13:30:03.000Z</time>
      </trkpt>
      <trkpt lat="46.01356" lon="6.8021">
        <ele>1882.5</ele>
        <time>2000-01-02T13:30:13.000Z</time>
      </trkpt>
      <trkpt lat="46.01355" lon="6.80218">
        <ele>1886</ele>
        <time>2000-01-02T13:30:23.000Z</time>
      </trkpt>
      <trkpt lat="46.01352" lon="6.80224">
        <ele>1884</ele>
        <time>2000-01-02T13:30:33.000Z</time>
      </trkpt>
      <trkpt lat="46.01348" lon="6.80229">
        <ele>1885</ele>
        <time>2000-01-02T13:30:43.000Z</time>
      </trkpt>
      <trkpt lat="46.01343" lon="6.80234">
        <ele>1886.5</ele>
        <time>2000-01-02T13:30:53.000Z</time>
      </trkpt>
      <trkpt lat="46.01338" lon="6.8024">
        <ele>1891</ele>
        <time>2000-01-02T13:31:03.000Z</time>
      </trkpt>
      <trkpt lat="46.0133" lon="6.80248">
        <ele>1889.7</ele>
        <time>2000-01-02T13:31:13.000Z</time>
      </trkpt>
      <trkpt lat="46.01325" lon="6.80255">
        <ele>1890.1</ele>
        <time>2000-01-02T13:31:23.000Z</time>
      </trkpt>
      <trkpt lat="46.01322" lon="6.80262">
        <ele>1891</ele>
        <time>2000-01-02T13:31:33.000Z</time>
      </trkpt>
      <trkpt lat="46.0132" lon="6.80263">
        <ele>1890.5</ele>
        <time>2000-01-02T13:31:43.000Z</time>
      </trkpt>
      <trkpt lat="46.01319" lon="6.80262">
        <ele>1891.1</ele>
        <time>2000-01-02T13:31:53.000Z</time>
      </trkpt>
      <trkpt lat="46.01319" lon="6.80259">
        <ele>1891.7</ele>
        <time>2000-01-02T13:32:03.000Z</time>
      </trkpt>
      <trkpt lat="46.0132" lon="6.80256">
        <ele>1892</ele>
        <time>2000-01-02T13:32:13.000Z</time>
      </trkpt>
      <trkpt lat="46.01321" lon="6.80248">
        <ele>1893.1</ele>
        <time>2000-01-02T13:32:23.000Z</time>
      </trkpt>
      <trkpt lat="46.01323" lon="6.80239">
        <ele>1895</ele>
        <time>2000-01-02T13:32:33.000Z</time>
      </trkpt>
      <trkpt lat="46.01327" lon="6.80228">
        <ele>1893.9</ele>
        <time>2000-01-02T13:32:43.000Z</time>
      </trkpt>
      <trkpt lat="46.0133" lon="6.80222">
        <ele>1894</ele>
        <time>2000-01-02T13:32:53.000Z</time>
      </trkpt>
      <trkpt lat="46.0133" lon="6.80217">
        <ele>1894.1</ele>
        <time>2000-01-02T13:33:03.000Z</time>
      </trkpt>
      <trkpt lat="46.0133" lon="6.80212">
        <ele>1898</ele>
        <time>2000-01-02T13:33:13.000Z</time>
      </trkpt>
      <trkpt lat="46.01328" lon="6.80206">
        <ele>1895.1</ele>
        <time>2000-01-02T13:33:23.000Z</time>
      </trkpt>
      <trkpt lat="46.01325" lon="6.80201">
        <ele>1896.2</ele>
        <time>2000-01-02T13:33:33.000Z</time>
      </trkpt>
      <trkpt lat="46.01321" lon="6.80198">
        <ele>1897.4</ele>
        <time>2000-01-02T13:33:43.000Z</time>
      </trkpt>
      <trkpt lat="46.01318" lon="6.80198">
        <ele>1898.3</ele>
        <time>2000-01-02T13:33:53.000Z</time>
      </trkpt>
      <trkpt lat="46.01316" lon="6.802">
        <ele>1898.8</ele>
        <time>2000-01-02T13:34:03.000Z</time>
      </trkpt>
      <trkpt lat="46.01315" lon="6.80205">
        <ele>1901</ele>
        <time>2000-01-02T13:34:13.000Z</time>
      </trkpt>
      <trkpt lat="46.01313" lon="6.80208">
        <ele>1899.4</ele>
        <time>2000-01-02T13:34:23.000Z</time>
      </trkpt>
      <trkpt lat="46.01311" lon="6.80211">
        <ele>1899.8</ele>
        <time>2000-01-02T13:34:33.000Z</time>
      </trkpt>
      <trkpt lat="46.01308" lon="6.80214">
        <ele>1900.6</ele>
        <time>2000-01-02T13:34:43.000Z</time>
      </trkpt>
      <trkpt lat="46.01304" lon="6.80218">
        <ele>1901.6</ele>
        <time>2000-01-02T13:34:53.000Z</time>
      </trkpt>
      <trkpt lat="46.01301" lon="6.80222">
        <ele>1902.5</ele>
        <time>2000-01-02T13:35:03.000Z</time>
      </trkpt>
      <trkpt lat="46.01299" lon="6.80221">
        <ele>1905</ele>
        <time>2000-01-02T13:35:13.000Z</time>
      </trkpt>
      <trkpt lat="46.01298" lon="6.80219">
        <ele>1903.5</ele>
        <time>2000-01-02T13:35:23.000Z</time>
      </trkpt>
      <trkpt lat="46.01297" lon="6.80217">
        <ele>1903.9</ele>
        <time>2000-01-02T13:35:33.000Z</time>
      </trkpt>
      <trkpt lat="46.01294" lon="6.80215">
        <ele>1904.9</ele>
        <time>2000-01-02T13:35:43.000Z</time>
      </trkpt>
      <trkpt lat="46.01291" lon="6.80215">
        <ele>1905.8</ele>
        <time>2000-01-02T13:35:53.000Z</time>
      </trkpt>
      <trkpt lat="46.01289" lon="6.80216">
        <ele>1906.5</ele>
        <time>2000-01-02T13:36:03.000Z</time>
      </trkpt>
      <trkpt lat="46.01286" lon="6.80219">
        <ele>1907.4</ele>
        <time>2000-01-02T13:36:13.000Z</time>
      </trkpt>
      <trkpt lat="46.01284" lon="6.80221">
        <ele>1908</ele>
        <time>2000-01-02T13:36:23.000Z</time>
      </trkpt>
      <trkpt lat="46.01282" lon="6.80225">
        <ele>1909</ele>
        <time>2000-01-02T13:36:33.000Z</time>
      </trkpt>
      <trkpt lat="46.01279" lon="6.80227">
        <ele>1909.6</ele>
        <time>2000-01-02T13:36:43.000Z</time>
      </trkpt>
      <trkpt lat="46.01278" lon="6.80231">
        <ele>1909.9</ele>
        <time>2000-01-02T13:36:53.000Z</time>
      </trkpt>
      <trkpt lat="46.01277" lon="6.80235">
        <ele>1910.3</ele>
        <time>2000-01-02T13:37:03.000Z</time>
      </trkpt>
      <trkpt lat="46.01275" lon="6.80237">
        <ele>1911.2</ele>
        <time>2000-01-02T13:37:13.000Z</time>
      </trkpt>
      <trkpt lat="46.01274" lon="6.80236">
        <ele>1911.6</ele>
        <time>2000-01-02T13:37:23.000Z</time>
      </trkpt>
      <trkpt lat="46.01271" lon="6.80236">
        <ele>1912.9</ele>
        <time>2000-01-02T13:37:33.000Z</time>
      </trkpt>
      <trkpt lat="46.01268" lon="6.80235">
        <ele>1914.2</ele>
        <time>2000-01-02T13:37:43.000Z</time>
      </trkpt>
      <trkpt lat="46.01266" lon="6.80236">
        <ele>1916</ele>
        <time>2000-01-02T13:37:53.000Z</time>
      </trkpt>
      <trkpt lat="46.01264" lon="6.80238">
        <ele>1916</ele>
        <time>2000-01-02T13:38:03.000Z</time>
      </trkpt>
      <trkpt lat="46.01263" lon="6.8024">
        <ele>1916.5</ele>
        <time>2000-01-02T13:38:13.000Z</time>
      </trkpt>
      <trkpt lat="46.01261" lon="6.80241">
        <ele>1917.5</ele>
        <time>2000-01-02T13:38:23.000Z</time>
      </trkpt>
      <trkpt lat="46.01259" lon="6.8024">
        <ele>1918.3</ele>
        <time>2000-01-02T13:38:33.000Z</time>
      </trkpt>
      <trkpt lat="46.01256" lon="6.80237">
        <ele>1919.5</ele>
        <time>2000-01-02T13:38:43.000Z</time>
      </trkpt>
      <trkpt lat="46.01253" lon="6.80234">
        <ele>1920.6</ele>
        <time>2000-01-02T13:38:53.000Z</time>
      </trkpt>
      <trkpt lat="46.01251" lon="6.80232">
        <ele>1921.3</ele>
        <time>2000-01-02T13:39:03.000Z</time>
      </trkpt>
      <trkpt lat="46.01248" lon="6.80232">
        <ele>1926</ele>
        <time>2000-01-02T13:39:13.000Z</time>
      </trkpt>
      <trkpt lat="46.01245" lon="6.8023">
        <ele>1924.1</ele>
        <time>2000-01-02T13:39:23.000Z</time>
      </trkpt>
      <trkpt lat="46.01242" lon="6.80228">
        <ele>1925.3</ele>
        <time>2000-01-02T13:39:33.000Z</time>
      </trkpt>
      <trkpt lat="46.01238" lon="6.80227">
        <ele>1927</ele>
        <time>2000-01-02T13:39:43.000Z</time>
      </trkpt>
      <trkpt lat="46.01235" lon="6.80226">
        <ele>1928.3</ele>
        <time>2000-01-02T13:39:53.000Z</time>
      </trkpt>
      <trkpt lat="46.01234" lon="6.80227">
        <ele>1928.9</ele>
        <time>2000-01-02T13:40:03.000Z</time>
      </trkpt>
      <trkpt lat="46.01235" lon="6.80231">
        <ele>1929.3</ele>
        <time>2000-01-02T13:40:13.000Z</time>
      </trkpt>
      <trkpt lat="46.01239" lon="6.80235">
        <ele>1931</ele>
        <time>2000-01-02T13:40:23.000Z</time>
      </trkpt>
      <trkpt lat="46.01242" lon="6.8024">
        <ele>1927</ele>
        <time>2000-01-02T13:40:33.000Z</time>
      </trkpt>
      <trkpt lat="46.01244" lon="6.80244">
        <ele>1926.3</ele>
        <time>2000-01-02T13:40:43.000Z</time>
      </trkpt>
      <trkpt lat="46.01244" lon="6.80247">
        <ele>1926.7</ele>
        <time>2000-01-02T13:40:53.000Z</time>
      </trkpt>
      <trkpt lat="46.01244" lon="6.80248">
        <ele>1926.9</ele>
        <time>2000-01-02T13:41:03.000Z</time>
      </trkpt>
      <trkpt lat="46.01242" lon="6.80249">
        <ele>1928.3</ele>
        <time>2000-01-02T13:41:13.000Z</time>
      </trkpt>
      <trkpt lat="46.01239" lon="6.80245">
        <ele>1929.7</ele>
        <time>2000-01-02T13:41:23.000Z</time>
      </trkpt>
      <trkpt lat="46.01234" lon="6.8024">
        <ele>1931</ele>
        <time>2000-01-02T13:41:33.000Z</time>
      </trkpt>
      <trkpt lat="46.01231" lon="6.80238">
        <ele>1933.1</ele>
        <time>2000-01-02T13:41:43.000Z</time>
      </trkpt>
      <trkpt lat="46.01228" lon="6.80237">
        <ele>1934.5</ele>
        <time>2000-01-02T13:41:53.000Z</time>
      </trkpt>
      <trkpt lat="46.01225" lon="6.80236">
        <ele>1935.9</ele>
        <time>2000-01-02T13:42:03.000Z</time>
      </trkpt>
      <trkpt lat="46.0122" lon="6.80234">
        <ele>1938.1</ele>
        <time>2000-01-02T13:42:13.000Z</time>
      </trkpt>
      <trkpt lat="46.01212" lon="6.80232">
        <ele>1939</ele>
        <time>2000-01-02T13:42:23.000Z</time>
      </trkpt>
      <trkpt lat="46.01208" lon="6.80228">
        <ele>1943.1</ele>
        <time>2000-01-02T13:42:33.000Z</time>
      </trkpt>
      <trkpt lat="46.01204" lon="6.80224">
        <ele>1944.1</ele>
        <time>2000-01-02T13:42:43.000Z</time>
      </trkpt>
      <trkpt lat="46.01202" lon="6.80224">
        <ele>1945.2</ele>
        <time>2000-01-02T13:42:53.000Z</time>
      </trkpt>
      <trkpt lat="46.01201" lon="6.80227">
        <ele>1946.8</ele>
        <time>2000-01-02T13:43:03.000Z</time>
      </trkpt>
      <trkpt lat="46.01202" lon="6.80231">
        <ele>1947.5</ele>
        <time>2000-01-02T13:43:13.000Z</time>
      </trkpt>
      <trkpt lat="46.01204" lon="6.80235">
        <ele>1944</ele>
        <time>2000-01-02T13:43:23.000Z</time>
      </trkpt>
      <trkpt lat="46.01206" lon="6.80238">
        <ele>1947.5</ele>
        <time>2000-01-02T13:43:33.000Z</time>
      </trkpt>
      <trkpt lat="46.01205" lon="6.80241">
        <ele>1949</ele>
        <time>2000-01-02T13:43:43.000Z</time>
      </trkpt>
      <trkpt lat="46.01204" lon="6.80241">
        <ele>1949.6</ele>
        <time>2000-01-02T13:43:53.000Z</time>
      </trkpt>
      <trkpt lat="46.012" lon="6.80238">
        <ele>1950.9</ele>
        <time>2000-01-02T13:44:03.000Z</time>
      </trkpt>
      <trkpt lat="46.01193" lon="6.80234">
        <ele>1953.3</ele>
        <time>2000-01-02T13:44:13.000Z</time>
      </trkpt>
      <trkpt lat="46.01188" lon="6.80232">
        <ele>1955</ele>
        <time>2000-01-02T13:44:23.000Z</time>
      </trkpt>
      <trkpt lat="46.01183" lon="6.80231">
        <ele>1955.5</ele>
        <time>2000-01-02T13:44:33.000Z</time>
      </trkpt>
      <trkpt lat="46.01173" lon="6.80228">
        <ele>1957.2</ele>
        <time>2000-01-02T13:44:43.000Z</time>
      </trkpt>
      <trkpt lat="46.01167" lon="6.80225">
        <ele>1957</ele>
        <time>2000-01-02T13:44:53.000Z</time>
      </trkpt>
      <trkpt lat="46.01162" lon="6.80222">
        <ele>1958</ele>
        <time>2000-01-02T13:45:03.000Z</time>
      </trkpt>
      <trkpt lat="46.01157" lon="6.80221">
        <ele>1960.1</ele>
        <time>2000-01-02T13:45:13.000Z</time>
      </trkpt>
      <trkpt lat="46.01152" lon="6.80218">
        <ele>1962</ele>
        <time>2000-01-02T13:45:23.000Z</time>
      </trkpt>
      <trkpt lat="46.01149" lon="6.80216">
        <ele>1962</ele>
        <time>2000-01-02T13:45:33.000Z</time>
      </trkpt>
      <trkpt lat="46.01145" lon="6.80214">
        <ele>1964.1</ele>
        <time>2000-01-02T13:45:43.000Z</time>
      </trkpt>
      <trkpt lat="46.01142" lon="6.80212">
        <ele>1964.8</ele>
        <time>2000-01-02T13:45:53.000Z</time>
      </trkpt>
      <trkpt lat="46.01139" lon="6.80206">
        <ele>1964.5</ele>
        <time>2000-01-02T13:46:03.000Z</time>
      </trkpt>
      <trkpt lat="46.01133" lon="6.802">
        <ele>1965</ele>
        <time>2000-01-02T13:46:13.000Z</time>
      </trkpt>
      <trkpt lat="46.0113" lon="6.80194">
        <ele>1966.8</ele>
        <time>2000-01-02T13:46:23.000Z</time>
      </trkpt>
      <trkpt lat="46.01126" lon="6.80188">
        <ele>1968.3</ele>
        <time>2000-01-02T13:46:33.000Z</time>
      </trkpt>
      <trkpt lat="46.01123" lon="6.80184">
        <ele>1969.4</ele>
        <time>2000-01-02T13:46:43.000Z</time>
      </trkpt>
      <trkpt lat="46.01121" lon="6.8018">
        <ele>1970</ele>
        <time>2000-01-02T13:46:53.000Z</time>
      </trkpt>
      <trkpt lat="46.01121" lon="6.80175">
        <ele>1968</ele>
        <time>2000-01-02T13:47:03.000Z</time>
      </trkpt>
      <trkpt lat="46.01119" lon="6.80169">
        <ele>1969.6</ele>
        <time>2000-01-02T13:47:13.000Z</time>
      </trkpt>
      <trkpt lat="46.01119" lon="6.80165">
        <ele>1969.1</ele>
        <time>2000-01-02T13:47:23.000Z</time>
      </trkpt>
      <trkpt lat="46.01118" lon="6.8016">
        <ele>1969.1</ele>
        <time>2000-01-02T13:47:33.000Z</time>
      </trkpt>
      <trkpt lat="46.01117" lon="6.80156">
        <ele>1969.2</ele>
        <time>2000-01-02T13:47:43.000Z</time>
      </trkpt>
      <trkpt lat="46.01116" lon="6.80153">
        <ele>1969.5</ele>
        <time>2000-01-02T13:47:53.000Z</time>
      </trkpt>
      <trkpt lat="46.01115" lon="6.80152">
        <ele>1969.9</ele>
        <time>2000-01-02T13:48:03.000Z</time>
      </trkpt>
      <trkpt lat="46.01115" lon="6.80152">
        <ele>1969.9</ele>
        <time>2000-01-02T13:48:13.000Z</time>
      </trkpt>
      <trkpt lat="46.01115" lon="6.80152">
        <ele>1969.9</ele>
        <time>2000-01-02T13:48:23.000Z</time>
      </trkpt>
      <trkpt lat="46.01114" lon="6.80152">
        <ele>1972</ele>
        <time>2000-01-02T13:48:33.000Z</time>
      </trkpt>
      <trkpt lat="46.01112" lon="6.80156">
        <ele>1971.8</ele>
        <time>2000-01-02T13:48:43.000Z</time>
      </trkpt>
      <trkpt lat="46.01111" lon="6.80161">
        <ele>1972.7</ele>
        <time>2000-01-02T13:48:53.000Z</time>
      </trkpt>
      <trkpt lat="46.01108" lon="6.80178">
        <ele>1978.2</ele>
        <time>2000-01-02T13:49:03.000Z</time>
      </trkpt>
      <trkpt lat="46.01107" lon="6.80188">
        <ele>1981</ele>
        <time>2000-01-02T13:49:13.000Z</time>
      </trkpt>
      <trkpt lat="46.01108" lon="6.80198">
        <ele>1981.1</ele>
        <time>2000-01-02T13:49:23.000Z</time>
      </trkpt>
      <trkpt lat="46.01109" lon="6.80215">
        <ele>1983.2</ele>
        <time>2000-01-02T13:49:33.000Z</time>
      </trkpt>
      <trkpt lat="46.01112" lon="6.80227">
        <ele>1981</ele>
        <time>2000-01-02T13:49:43.000Z</time>
      </trkpt>
      <trkpt lat="46.01114" lon="6.80234">
        <ele>1986.4</ele>
        <time>2000-01-02T13:49:53.000Z</time>
      </trkpt>
      <trkpt lat="46.01116" lon="6.8024">
        <ele>1988.4</ele>
        <time>2000-01-02T13:50:03.000Z</time>
      </trkpt>
      <trkpt lat="46.01118" lon="6.80247">
        <ele>1990.8</ele>
        <time>2000-01-02T13:50:13.000Z</time>
      </trkpt>
      <trkpt lat="46.01118" lon="6.80253">
        <ele>1995</ele>
        <time>2000-01-02T13:50:23.000Z</time>
      </trkpt>
      <trkpt lat="46.01119" lon="6.8026">
        <ele>1993.6</ele>
        <time>2000-01-02T13:50:33.000Z</time>
      </trkpt>
      <trkpt lat="46.01119" lon="6.80265">
        <ele>1994.6</ele>
        <time>2000-01-02T13:50:43.000Z</time>
      </trkpt>
      <trkpt lat="46.01118" lon="6.80269">
        <ele>1995.7</ele>
        <time>2000-01-02T13:50:53.000Z</time>
      </trkpt>
      <trkpt lat="46.01117" lon="6.80275">
        <ele>1997</ele>
        <time>2000-01-02T13:51:03.000Z</time>
      </trkpt>
      <trkpt lat="46.01116" lon="6.8028">
        <ele>1999</ele>
        <time>2000-01-02T13:51:13.000Z</time>
      </trkpt>
      <trkpt lat="46.01116" lon="6.80284">
        <ele>1998</ele>
        <time>2000-01-02T13:51:23.000Z</time>
      </trkpt>
      <trkpt lat="46.01115" lon="6.80291">
        <ele>1998.5</ele>
        <time>2000-01-02T13:51:33.000Z</time>
      </trkpt>
      <trkpt lat="46.01114" lon="6.80296">
        <ele>1998.9</ele>
        <time>2000-01-02T13:51:43.000Z</time>
      </trkpt>
      <trkpt lat="46.01111" lon="6.80303">
        <ele>2000</ele>
        <time>2000-01-02T13:51:53.000Z</time>
      </trkpt>
      <trkpt lat="46.01109" lon="6.8031">
        <ele>2004</ele>
        <time>2000-01-02T13:52:03.000Z</time>
      </trkpt>
      <trkpt lat="46.01107" lon="6.80319">
        <ele>2001.1</ele>
        <time>2000-01-02T13:52:13.000Z</time>
      </trkpt>
      <trkpt lat="46.01105" lon="6.80325">
        <ele>2001.6</ele>
        <time>2000-01-02T13:52:23.000Z</time>
      </trkpt>
      <trkpt lat="46.01101" lon="6.80332">
        <ele>2002.7</ele>
        <time>2000-01-02T13:52:33.000Z</time>
      </trkpt>
      <trkpt lat="46.01099" lon="6.80335">
        <ele>2007</ele>
        <time>2000-01-02T13:52:43.000Z</time>
      </trkpt>
      <trkpt lat="46.01096" lon="6.80336">
        <ele>2003.8</ele>
        <time>2000-01-02T13:52:53.000Z</time>
      </trkpt>
      <trkpt lat="46.01094" lon="6.80334">
        <ele>2005</ele>
        <time>2000-01-02T13:53:03.000Z</time>
      </trkpt>
      <trkpt lat="46.01091" lon="6.80337">
        <ele>2005.4</ele>
        <time>2000-01-02T13:53:13.000Z</time>
      </trkpt>
      <trkpt lat="46.01088" lon="6.80338">
        <ele>2006.2</ele>
        <time>2000-01-02T13:53:23.000Z</time>
      </trkpt>
      <trkpt lat="46.01084" lon="6.80339">
        <ele>2007.3</ele>
        <time>2000-01-02T13:53:33.000Z</time>
      </trkpt>
      <trkpt lat="46.01082" lon="6.8034">
        <ele>2008.1</ele>
        <time>2000-01-02T13:53:43.000Z</time>
      </trkpt>
      <trkpt lat="46.01079" lon="6.80342">
        <ele>2012</ele>
        <time>2000-01-02T13:53:53.000Z</time>
      </trkpt>
      <trkpt lat="46.01074" lon="6.80346">
        <ele>2010.9</ele>
        <time>2000-01-02T13:54:03.000Z</time>
      </trkpt>
      <trkpt lat="46.01066" lon="6.80354">
        <ele>2012.8</ele>
        <time>2000-01-02T13:54:13.000Z</time>
      </trkpt>
      <trkpt lat="46.01058" lon="6.80363">
        <ele>2019</ele>
        <time>2000-01-02T13:54:23.000Z</time>
      </trkpt>
      <trkpt lat="46.01054" lon="6.80369">
        <ele>2014</ele>
        <time>2000-01-02T13:54:33.000Z</time>
      </trkpt>
      <trkpt lat="46.01051" lon="6.80373">
        <ele>2014</ele>
        <time>2000-01-02T13:54:43.000Z</time>
      </trkpt>
      <trkpt lat="46.01049" lon="6.80374">
        <ele>2014.7</ele>
        <time>2000-01-02T13:54:53.000Z</time>
      </trkpt>
      <trkpt lat="46.01046" lon="6.80375">
        <ele>2015.8</ele>
        <time>2000-01-02T13:55:03.000Z</time>
      </trkpt>
      <trkpt lat="46.01042" lon="6.80376">
        <ele>2020</ele>
        <time>2000-01-02T13:55:13.000Z</time>
      </trkpt>
      <trkpt lat="46.01038" lon="6.80378">
        <ele>2018.6</ele>
        <time>2000-01-02T13:55:23.000Z</time>
      </trkpt>
      <trkpt lat="46.01034" lon="6.80378">
        <ele>2020.6</ele>
        <time>2000-01-02T13:55:33.000Z</time>
      </trkpt>
      <trkpt lat="46.0103" lon="6.80377">
        <ele>2023</ele>
        <time>2000-01-02T13:55:43.000Z</time>
      </trkpt>
      <trkpt lat="46.0103" lon="6.80374">
        <ele>2024.3</ele>
        <time>2000-01-02T13:55:53.000Z</time>
      </trkpt>
      <trkpt lat="46.01031" lon="6.8037">
        <ele>2025.5</ele>
        <time>2000-01-02T13:56:03.000Z</time>
      </trkpt>
      <trkpt lat="46.01033" lon="6.80365">
        <ele>2030</ele>
        <time>2000-01-02T13:56:13.000Z</time>
      </trkpt>
      <trkpt lat="46.01033" lon="6.80361">
        <ele>2028.2</ele>
        <time>2000-01-02T13:56:23.000Z</time>
      </trkpt>
      <trkpt lat="46.01035" lon="6.80358">
        <ele>2027.8</ele>
        <time>2000-01-02T13:56:33.000Z</time>
      </trkpt>
      <trkpt lat="46.01035" lon="6.80355">
        <ele>2028.4</ele>
        <time>2000-01-02T13:56:43.000Z</time>
      </trkpt>
      <trkpt lat="46.01035" lon="6.80352">
        <ele>2029.1</ele>
        <time>2000-01-02T13:56:53.000Z</time>
      </trkpt>
      <trkpt lat="46.01035" lon="6.80348">
        <ele>2030</ele>
        <time>2000-01-02T13:57:03.000Z</time>
      </trkpt>
      <trkpt lat="46.01035" lon="6.80345">
        <ele>2030.6</ele>
        <time>2000-01-02T13:57:13.000Z</time>
      </trkpt>
      <trkpt lat="46.01034" lon="6.80341">
        <ele>2031.9</ele>
        <time>2000-01-02T13:57:23.000Z</time>
      </trkpt>
      <trkpt lat="46.01032" lon="6.80344">
        <ele>2034</ele>
        <time>2000-01-02T13:57:33.000Z</time>
      </trkpt>
      <trkpt lat="46.01027" lon="6.80349">
        <ele>2033.3</ele>
        <time>2000-01-02T13:57:43.000Z</time>
      </trkpt>
      <trkpt lat="46.01022" lon="6.80352">
        <ele>2033.5</ele>
        <time>2000-01-02T13:57:53.000Z</time>
      </trkpt>
      <trkpt lat="46.01017" lon="6.80357">
        <ele>2033.8</ele>
        <time>2000-01-02T13:58:03.000Z</time>
      </trkpt>
      <trkpt lat="46.01011" lon="6.80365">
        <ele>2034</ele>
        <time>2000-01-02T13:58:13.000Z</time>
      </trkpt>
      <trkpt lat="46.01006" lon="6.80372">
        <ele>2032.8</ele>
        <time>2000-01-02T13:58:23.000Z</time>
      </trkpt>
      <trkpt lat="46.01002" lon="6.80377">
        <ele>2032.9</ele>
        <time>2000-01-02T13:58:33.000Z</time>
      </trkpt>
      <trkpt lat="46.00997" lon="6.80381">
        <ele>2032.8</ele>
        <time>2000-01-02T13:58:43.000Z</time>
      </trkpt>
      <trkpt lat="46.00992" lon="6.80382">
        <ele>2034</ele>
        <time>2000-01-02T13:58:53.000Z</time>
      </trkpt>
      <trkpt lat="46.00987" lon="6.80383">
        <ele>2032.9</ele>
        <time>2000-01-02T13:59:03.000Z</time>
      </trkpt>
      <trkpt lat="46.00983" lon="6.80384">
        <ele>2033</ele>
        <time>2000-01-02T13:59:13.000Z</time>
      </trkpt>
      <trkpt lat="46.00975" lon="6.80385">
        <ele>2033.3</ele>
        <time>2000-01-02T13:59:23.000Z</time>
      </trkpt>
      <trkpt lat="46.00972" lon="6.80385">
        <ele>2034</ele>
        <time>2000-01-02T13:59:33.000Z</time>
      </trkpt>
      <trkpt lat="46.00968" lon="6.80382">
        <ele>2033.9</ele>
        <time>2000-01-02T13:59:43.000Z</time>
      </trkpt>
      <trkpt lat="46.00965" lon="6.80378">
        <ele>2034.3</ele>
        <time>2000-01-02T13:59:53.000Z</time>
      </trkpt>
      <trkpt lat="46.00961" lon="6.80373">
        <ele>2034.9</ele>
        <time>2000-01-02T14:00:03.000Z</time>
      </trkpt>
      <trkpt lat="46.0096" lon="6.80371">
        <ele>2035.1</ele>
        <time>2000-01-02T14:00:13.000Z</time>
      </trkpt>
      <trkpt lat="46.00956" lon="6.80371">
        <ele>2034</ele>
        <time>2000-01-02T14:00:23.000Z</time>
      </trkpt>
      <trkpt lat="46.00954" lon="6.80372">
        <ele>2035.1</ele>
        <time>2000-01-02T14:00:33.000Z</time>
      </trkpt>
      <trkpt lat="46.00954" lon="6.80375">
        <ele>2034.8</ele>
        <time>2000-01-02T14:00:43.000Z</time>
      </trkpt>
      <trkpt lat="46.00953" lon="6.80382">
        <ele>2034.3</ele>
        <time>2000-01-02T14:00:53.000Z</time>
      </trkpt>
      <trkpt lat="46.00952" lon="6.80386">
        <ele>2034</ele>
        <time>2000-01-02T14:01:03.000Z</time>
      </trkpt>
      <trkpt lat="46.0095" lon="6.80388">
        <ele>2033.9</ele>
        <time>2000-01-02T14:01:13.000Z</time>
      </trkpt>
      <trkpt lat="46.00944" lon="6.80391">
        <ele>2033</ele>
        <time>2000-01-02T14:01:23.000Z</time>
      </trkpt>
      <trkpt lat="46.00936" lon="6.80396">
        <ele>2033.1</ele>
        <time>2000-01-02T14:01:33.000Z</time>
      </trkpt>
      <trkpt lat="46.0093" lon="6.80399">
        <ele>2032.8</ele>
        <time>2000-01-02T14:01:43.000Z</time>
      </trkpt>
      <trkpt lat="46.00926" lon="6.80401">
        <ele>2032</ele>
        <time>2000-01-02T14:01:53.000Z</time>
      </trkpt>
      <trkpt lat="46.00923" lon="6.80402">
        <ele>2032.5</ele>
        <time>2000-01-02T14:02:03.000Z</time>
      </trkpt>
      <trkpt lat="46.0092" lon="6.80403">
        <ele>2032.5</ele>
        <time>2000-01-02T14:02:13.000Z</time>
      </trkpt>
      <trkpt lat="46.00916" lon="6.80405">
        <ele>2032.4</ele>
        <time>2000-01-02T14:02:23.000Z</time>
      </trkpt>
      <trkpt lat="46.00913" lon="6.80408">
        <ele>2032.4</ele>
        <time>2000-01-02T14:02:33.000Z</time>
      </trkpt>
      <trkpt lat="46.00912" lon="6.80411">
        <ele>2032.3</ele>
        <time>2000-01-02T14:02:43.000Z</time>
      </trkpt>
      <trkpt lat="46.00911" lon="6.80414">
        <ele>2032.3</ele>
        <time>2000-01-02T14:02:53.000Z</time>
      </trkpt>
      <trkpt lat="46.00909" lon="6.80417">
        <ele>2032</ele>
        <time>2000-01-02T14:03:03.000Z</time>
      </trkpt>
      <trkpt lat="46.00906" lon="6.80421">
        <ele>2032.3</ele>
        <time>2000-01-02T14:03:13.000Z</time>
      </trkpt>
      <trkpt lat="46.00902" lon="6.80424">
        <ele>2032.6</ele>
        <time>2000-01-02T14:03:23.000Z</time>
      </trkpt>
      <trkpt lat="46.00899" lon="6.80424">
        <ele>2032.9</ele>
        <time>2000-01-02T14:03:33.000Z</time>
      </trkpt>
      <trkpt lat="46.00895" lon="6.80424">
        <ele>2033.2</ele>
        <time>2000-01-02T14:03:43.000Z</time>
      </trkpt>
      <trkpt lat="46.00893" lon="6.80424">
        <ele>2033.4</ele>
        <time>2000-01-02T14:03:53.000Z</time>
      </trkpt>
      <trkpt lat="46.0089" lon="6.80425">
        <ele>2033</ele>
        <time>2000-01-02T14:04:03.000Z</time>
      </trkpt>
      <trkpt lat="46.00888" lon="6.80426">
        <ele>2034.1</ele>
        <time>2000-01-02T14:04:13.000Z</time>
      </trkpt>
      <trkpt lat="46.00885" lon="6.80427">
        <ele>2034.3</ele>
        <time>2000-01-02T14:04:23.000Z</time>
      </trkpt>
      <trkpt lat="46.00882" lon="6.80426">
        <ele>2034.4</ele>
        <time>2000-01-02T14:04:33.000Z</time>
      </trkpt>
      <trkpt lat="46.00876" lon="6.80426">
        <ele>2034.8</ele>
        <time>2000-01-02T14:04:43.000Z</time>
      </trkpt>
      <trkpt lat="46.0087" lon="6.80427">
        <ele>2035</ele>
        <time>2000-01-02T14:04:53.000Z</time>
      </trkpt>
      <trkpt lat="46.00867" lon="6.80428">
        <ele>2035.5</ele>
        <time>2000-01-02T14:05:03.000Z</time>
      </trkpt>
      <trkpt lat="46.00862" lon="6.8043">
        <ele>2035.9</ele>
        <time>2000-01-02T14:05:13.000Z</time>
      </trkpt>
      <trkpt lat="46.00857" lon="6.80429">
        <ele>2036.1</ele>
        <time>2000-01-02T14:05:23.000Z</time>
      </trkpt>
      <trkpt lat="46.00849" lon="6.80425">
        <ele>2036</ele>
        <time>2000-01-02T14:05:33.000Z</time>
      </trkpt>
      <trkpt lat="46.00845" lon="6.80424">
        <ele>2036.5</ele>
        <time>2000-01-02T14:05:43.000Z</time>
      </trkpt>
      <trkpt lat="46.00841" lon="6.80423">
        <ele>2036.7</ele>
        <time>2000-01-02T14:05:53.000Z</time>
      </trkpt>
      <trkpt lat="46.00836" lon="6.80423">
        <ele>2037.1</ele>
        <time>2000-01-02T14:06:03.000Z</time>
      </trkpt>
      <trkpt lat="46.00829" lon="6.80424">
        <ele>2036</ele>
        <time>2000-01-02T14:06:13.000Z</time>
      </trkpt>
      <trkpt lat="46.00825" lon="6.80423">
        <ele>2037</ele>
        <time>2000-01-02T14:06:23.000Z</time>
      </trkpt>
      <trkpt lat="46.00821" lon="6.80422">
        <ele>2036.8</ele>
        <time>2000-01-02T14:06:33.000Z</time>
      </trkpt>
      <trkpt lat="46.00818" lon="6.8042">
        <ele>2036.6</ele>
        <time>2000-01-02T14:06:43.000Z</time>
      </trkpt>
      <trkpt lat="46.00814" lon="6.80418">
        <ele>2036.4</ele>
        <time>2000-01-02T14:06:53.000Z</time>
      </trkpt>
      <trkpt lat="46.00811" lon="6.80418">
        <ele>2036.3</ele>
        <time>2000-01-02T14:07:03.000Z</time>
      </trkpt>
      <trkpt lat="46.00801" lon="6.80419">
        <ele>2035</ele>
        <time>2000-01-02T14:07:13.000Z</time>
      </trkpt>
      <trkpt lat="46.00796" lon="6.80418">
        <ele>2035.1</ele>
        <time>2000-01-02T14:07:23.000Z</time>
      </trkpt>
      <trkpt lat="46.00791" lon="6.80415">
        <ele>2034.4</ele>
        <time>2000-01-02T14:07:33.000Z</time>
      </trkpt>
      <trkpt lat="46.00786" lon="6.8041">
        <ele>2033.7</ele>
        <time>2000-01-02T14:07:43.000Z</time>
      </trkpt>
      <trkpt lat="46.00779" lon="6.80405">
        <ele>2031</ele>
        <time>2000-01-02T14:07:53.000Z</time>
      </trkpt>
      <trkpt lat="46.00775" lon="6.80402">
        <ele>2032.2</ele>
        <time>2000-01-02T14:08:03.000Z</time>
      </trkpt>
      <trkpt lat="46.00772" lon="6.80399">
        <ele>2031.8</ele>
        <time>2000-01-02T14:08:13.000Z</time>
      </trkpt>
      <trkpt lat="46.00766" lon="6.80387">
        <ele>2030.6</ele>
        <time>2000-01-02T14:08:23.000Z</time>
      </trkpt>
      <trkpt lat="46.00762" lon="6.8038">
        <ele>2028</ele>
        <time>2000-01-02T14:08:33.000Z</time>
      </trkpt>
      <trkpt lat="46.00759" lon="6.80375">
        <ele>2028.6</ele>
        <time>2000-01-02T14:08:43.000Z</time>
      </trkpt>
      <trkpt lat="46.00757" lon="6.80373">
        <ele>2028</ele>
        <time>2000-01-02T14:08:53.000Z</time>
      </trkpt>
      <trkpt lat="46.00754" lon="6.80369">
        <ele>2027</ele>
        <time>2000-01-02T14:09:03.000Z</time>
      </trkpt>
      <trkpt lat="46.00754" lon="6.80367">
        <ele>2026.7</ele>
        <time>2000-01-02T14:09:13.000Z</time>
      </trkpt>
      <trkpt lat="46.00755" lon="6.80365">
        <ele>2026.7</ele>
        <time>2000-01-02T14:09:23.000Z</time>
      </trkpt>
      <trkpt lat="46.00756" lon="6.80364">
        <ele>2026.8</ele>
        <time>2000-01-02T14:09:33.000Z</time>
      </trkpt>
      <trkpt lat="46.00757" lon="6.80363">
        <ele>2027</ele>
        <time>2000-01-02T14:09:43.000Z</time>
      </trkpt>
      <trkpt lat="46.00756" lon="6.8036">
        <ele>2023</ele>
        <time>2000-01-02T14:09:53.000Z</time>
      </trkpt>
      <trkpt lat="46.00755" lon="6.80357">
        <ele>2026.2</ele>
        <time>2000-01-02T14:10:03.000Z</time>
      </trkpt>
      <trkpt lat="46.00753" lon="6.80353">
        <ele>2025.5</ele>
        <time>2000-01-02T14:10:13.000Z</time>
      </trkpt>
      <trkpt lat="46.00751" lon="6.8035">
        <ele>2024.9</ele>
        <time>2000-01-02T14:10:23.000Z</time>
      </trkpt>
      <trkpt lat="46.00747" lon="6.80344">
        <ele>2024.1</ele>
        <time>2000-01-02T14:10:33.000Z</time>
      </trkpt>
      <trkpt lat="46.00745" lon="6.80341">
        <ele>2023.7</ele>
        <time>2000-01-02T14:10:43.000Z</time>
      </trkpt>
      <trkpt lat="46.00739" lon="6.8033">
        <ele>2018</ele>
        <time>2000-01-02T14:10:53.000Z</time>
      </trkpt>
      <trkpt lat="46.00735" lon="6.80321">
        <ele>2020.7</ele>
        <time>2000-01-02T14:11:03.000Z</time>
      </trkpt>
      <trkpt lat="46.00732" lon="6.80316">
        <ele>2019.6</ele>
        <time>2000-01-02T14:11:13.000Z</time>
      </trkpt>
      <trkpt lat="46.0073" lon="6.80311">
        <ele>2018.5</ele>
        <time>2000-01-02T14:11:23.000Z</time>
      </trkpt>
      <trkpt lat="46.00728" lon="6.80307">
        <ele>2013</ele>
        <time>2000-01-02T14:11:33.000Z</time>
      </trkpt>
      <trkpt lat="46.00726" lon="6.80303">
        <ele>2016.6</ele>
        <time>2000-01-02T14:11:43.000Z</time>
      </trkpt>
      <trkpt lat="46.00724" lon="6.80302">
        <ele>2015.8</ele>
        <time>2000-01-02T14:11:53.000Z</time>
      </trkpt>
      <trkpt lat="46.00723" lon="6.803">
        <ele>2015.5</ele>
        <time>2000-01-02T14:12:03.000Z</time>
      </trkpt>
      <trkpt lat="46.00723" lon="6.80297">
        <ele>2015.6</ele>
        <time>2000-01-02T14:12:13.000Z</time>
      </trkpt>
      <trkpt lat="46.00719" lon="6.8029">
        <ele>2014.7</ele>
        <time>2000-01-02T14:12:23.000Z</time>
      </trkpt>
      <trkpt lat="46.00717" lon="6.80285">
        <ele>2011</ele>
        <time>2000-01-02T14:12:33.000Z</time>
      </trkpt>
      <trkpt lat="46.00715" lon="6.8028">
        <ele>2013.4</ele>
        <time>2000-01-02T14:12:43.000Z</time>
      </trkpt>
      <trkpt lat="46.00714" lon="6.80277">
        <ele>2013.1</ele>
        <time>2000-01-02T14:12:53.000Z</time>
      </trkpt>
      <trkpt lat="46.00713" lon="6.80275">
        <ele>2012.7</ele>
        <time>2000-01-02T14:13:03.000Z</time>
      </trkpt>
      <trkpt lat="46.00712" lon="6.80271">
        <ele>2012.4</ele>
        <time>2000-01-02T14:13:13.000Z</time>
      </trkpt>
      <trkpt lat="46.00711" lon="6.80269">
        <ele>2012</ele>
        <time>2000-01-02T14:13:23.000Z</time>
      </trkpt>
      <trkpt lat="46.00708" lon="6.80266">
        <ele>2010.9</ele>
        <time>2000-01-02T14:13:33.000Z</time>
      </trkpt>
      <trkpt lat="46.00707" lon="6.80263">
        <ele>2010.5</ele>
        <time>2000-01-02T14:13:43.000Z</time>
      </trkpt>
      <trkpt lat="46.00707" lon="6.80261">
        <ele>2006</ele>
        <time>2000-01-02T14:13:53.000Z</time>
      </trkpt>
      <trkpt lat="46.00706" lon="6.80259">
        <ele>2010</ele>
        <time>2000-01-02T14:14:03.000Z</time>
      </trkpt>
      <trkpt lat="46.00705" lon="6.80257">
        <ele>2009.6</ele>
        <time>2000-01-02T14:14:13.000Z</time>
      </trkpt>
      <trkpt lat="46.00704" lon="6.80255">
        <ele>2009.2</ele>
        <time>2000-01-02T14:14:23.000Z</time>
      </trkpt>
      <trkpt lat="46.00703" lon="6.80253">
        <ele>2008.7</ele>
        <time>2000-01-02T14:14:33.000Z</time>
      </trkpt>
      <trkpt lat="46.00702" lon="6.80251">
        <ele>2008.3</ele>
        <time>2000-01-02T14:14:43.000Z</time>
      </trkpt>
      <trkpt lat="46.00701" lon="6.8025">
        <ele>2007.8</ele>
        <time>2000-01-02T14:14:53.000Z</time>
      </trkpt>
      <trkpt lat="46.00701" lon="6.80248">
        <ele>2007.9</ele>
        <time>2000-01-02T14:15:03.000Z</time>
      </trkpt>
      <trkpt lat="46.00699" lon="6.80246">
        <ele>2007</ele>
        <time>2000-01-02T14:15:13.000Z</time>
      </trkpt>
      <trkpt lat="46.00699" lon="6.80244">
        <ele>2007</ele>
        <time>2000-01-02T14:15:23.000Z</time>
      </trkpt>
      <trkpt lat="46.00698" lon="6.80242">
        <ele>2006.6</ele>
        <time>2000-01-02T14:15:33.000Z</time>
      </trkpt>
      <trkpt lat="46.00697" lon="6.80239">
        <ele>2006.2</ele>
        <time>2000-01-02T14:15:43.000Z</time>
      </trkpt>
      <trkpt lat="46.00695" lon="6.80235">
        <ele>2003</ele>
        <time>2000-01-02T14:15:53.000Z</time>
      </trkpt>
      <trkpt lat="46.00694" lon="6.80228">
        <ele>2004.8</ele>
        <time>2000-01-02T14:16:03.000Z</time>
      </trkpt>
      <trkpt lat="46.00692" lon="6.80219">
        <ele>2004</ele>
        <time>2000-01-02T14:16:13.000Z</time>
      </trkpt>
      <trkpt lat="46.00691" lon="6.80214">
        <ele>2003.6</ele>
        <time>2000-01-02T14:16:23.000Z</time>
      </trkpt>
      <trkpt lat="46.0069" lon="6.80212">
        <ele>2003.1</ele>
        <time>2000-01-02T14:16:33.000Z</time>
      </trkpt>
      <trkpt lat="46.00688" lon="6.80209">
        <ele>1999</ele>
        <time>2000-01-02T14:16:43.000Z</time>
      </trkpt>
      <trkpt lat="46.00688" lon="6.80206">
        <ele>2002.2</ele>
        <time>2000-01-02T14:16:53.000Z</time>
      </trkpt>
      <trkpt lat="46.00688" lon="6.80204">
        <ele>2002.1</ele>
        <time>2000-01-02T14:17:03.000Z</time>
      </trkpt>
      <trkpt lat="46.00687" lon="6.802">
        <ele>2001.6</ele>
        <time>2000-01-02T14:17:13.000Z</time>
      </trkpt>
      <trkpt lat="46.00685" lon="6.80197">
        <ele>2000.6</ele>
        <time>2000-01-02T14:17:23.000Z</time>
      </trkpt>
      <trkpt lat="46.00682" lon="6.80192">
        <ele>1999.1</ele>
        <time>2000-01-02T14:17:33.000Z</time>
      </trkpt>
      <trkpt lat="46.00679" lon="6.80187">
        <ele>1997.5</ele>
        <time>2000-01-02T14:17:43.000Z</time>
      </trkpt>
      <trkpt lat="46.00678" lon="6.80182">
        <ele>1992</ele>
        <time>2000-01-02T14:17:53.000Z</time>
      </trkpt>
      <trkpt lat="46.00677" lon="6.80177">
        <ele>1996.2</ele>
        <time>2000-01-02T14:18:03.000Z</time>
      </trkpt>
      <trkpt lat="46.00676" lon="6.80174">
        <ele>1995.6</ele>
        <time>2000-01-02T14:18:13.000Z</time>
      </trkpt>
      <trkpt lat="46.00675" lon="6.80171">
        <ele>1995.1</ele>
        <time>2000-01-02T14:18:23.000Z</time>
      </trkpt>
      <trkpt lat="46.00675" lon="6.80169">
        <ele>1995</ele>
        <time>2000-01-02T14:18:33.000Z</time>
      </trkpt>
      <trkpt lat="46.00674" lon="6.80166">
        <ele>1994.5</ele>
        <time>2000-01-02T14:18:43.000Z</time>
      </trkpt>
      <trkpt lat="46.00672" lon="6.80162">
        <ele>1994</ele>
        <time>2000-01-02T14:18:53.000Z</time>
      </trkpt>
      <trkpt lat="46.0067" lon="6.8016">
        <ele>1993.3</ele>
        <time>2000-01-02T14:19:03.000Z</time>
      </trkpt>
      <trkpt lat="46.00668" lon="6.80156">
        <ele>1989</ele>
        <time>2000-01-02T14:19:13.000Z</time>
      </trkpt>
      <trkpt lat="46.00666" lon="6.80151">
        <ele>1992.4</ele>
        <time>2000-01-02T14:19:23.000Z</time>
      </trkpt>
      <trkpt lat="46.00665" lon="6.80149">
        <ele>1992.2</ele>
        <time>2000-01-02T14:19:33.000Z</time>
      </trkpt>
      <trkpt lat="46.00663" lon="6.80146">
        <ele>1991.5</ele>
        <time>2000-01-02T14:19:43.000Z</time>
      </trkpt>
      <trkpt lat="46.00661" lon="6.80144">
        <ele>1990.7</ele>
        <time>2000-01-02T14:19:53.000Z</time>
      </trkpt>
      <trkpt lat="46.00658" lon="6.8014">
        <ele>1989.6</ele>
        <time>2000-01-02T14:20:03.000Z</time>
      </trkpt>
      <trkpt lat="46.00656" lon="6.80137">
        <ele>1988.7</ele>
        <time>2000-01-02T14:20:13.000Z</time>
      </trkpt>
      <trkpt lat="46.00655" lon="6.80133">
        <ele>1986</ele>
        <time>2000-01-02T14:20:23.000Z</time>
      </trkpt>
      <trkpt lat="46.00654" lon="6.8013">
        <ele>1988</ele>
        <time>2000-01-02T14:20:33.000Z</time>
      </trkpt>
      <trkpt lat="46.00652" lon="6.80128">
        <ele>1987</ele>
        <time>2000-01-02T14:20:43.000Z</time>
      </trkpt>
      <trkpt lat="46.00651" lon="6.80126">
        <ele>1986.5</ele>
        <time>2000-01-02T14:20:53.000Z</time>
      </trkpt>
      <trkpt lat="46.0065" lon="6.80123">
        <ele>1986.1</ele>
        <time>2000-01-02T14:21:03.000Z</time>
      </trkpt>
      <trkpt lat="46.00648" lon="6.8012">
        <ele>1985</ele>
        <time>2000-01-02T14:21:13.000Z</time>
      </trkpt>
      <trkpt lat="46.00646" lon="6.80117">
        <ele>1984</ele>
        <time>2000-01-02T14:21:23.000Z</time>
      </trkpt>
      <trkpt lat="46.00645" lon="6.80112">
        <ele>1983.5</ele>
        <time>2000-01-02T14:21:33.000Z</time>
      </trkpt>
      <trkpt lat="46.00643" lon="6.80107">
        <ele>1980</ele>
        <time>2000-01-02T14:21:43.000Z</time>
      </trkpt>
      <trkpt lat="46.00642" lon="6.80101">
        <ele>1982.5</ele>
        <time>2000-01-02T14:21:53.000Z</time>
      </trkpt>
      <trkpt lat="46.00641" lon="6.80096">
        <ele>1982.3</ele>
        <time>2000-01-02T14:22:03.000Z</time>
      </trkpt>
      <trkpt lat="46.00639" lon="6.80091">
        <ele>1981.5</ele>
        <time>2000-01-02T14:22:13.000Z</time>
      </trkpt>
      <trkpt lat="46.00637" lon="6.80087">
        <ele>1981.3</ele>
        <time>2000-01-02T14:22:23.000Z</time>
      </trkpt>
      <trkpt lat="46.00636" lon="6.80084">
        <ele>1981.2</ele>
        <time>2000-01-02T14:22:33.000Z</time>
      </trkpt>
      <trkpt lat="46.00634" lon="6.80079">
        <ele>1979</ele>
        <time>2000-01-02T14:22:43.000Z</time>
      </trkpt>
      <trkpt lat="46.00633" lon="6.80077">
        <ele>1980.9</ele>
        <time>2000-01-02T14:22:53.000Z</time>
      </trkpt>
      <trkpt lat="46.00632" lon="6.80076">
        <ele>1980.7</ele>
        <time>2000-01-02T14:23:03.000Z</time>
      </trkpt>
      <trkpt lat="46.00629" lon="6.80072">
        <ele>1980.2</ele>
        <time>2000-01-02T14:23:13.000Z</time>
      </trkpt>
      <trkpt lat="46.00624" lon="6.80067">
        <ele>1979.1</ele>
        <time>2000-01-02T14:23:23.000Z</time>
      </trkpt>
      <trkpt lat="46.00615" lon="6.80052">
        <ele>1976</ele>
        <time>2000-01-02T14:23:33.000Z</time>
      </trkpt>
      <trkpt lat="46.00607" lon="6.80036">
        <ele>1977.6</ele>
        <time>2000-01-02T14:23:43.000Z</time>
      </trkpt>
      <trkpt lat="46.00599" lon="6.80021">
        <ele>1972</ele>
        <time>2000-01-02T14:23:53.000Z</time>
      </trkpt>
      <trkpt lat="46.00591" lon="6.80001">
        <ele>1973.7</ele>
        <time>2000-01-02T14:24:03.000Z</time>
      </trkpt>
      <trkpt lat="46.00587" lon="6.79989">
        <ele>1969</ele>
        <time>2000-01-02T14:24:13.000Z</time>
      </trkpt>
      <trkpt lat="46.00586" lon="6.7998">
        <ele>1971.2</ele>
        <time>2000-01-02T14:24:23.000Z</time>
      </trkpt>
      <trkpt lat="46.00587" lon="6.79971">
        <ele>1971.1</ele>
        <time>2000-01-02T14:24:33.000Z</time>
      </trkpt>
      <trkpt lat="46.00589" lon="6.79959">
        <ele>1967</ele>
        <time>2000-01-02T14:24:43.000Z</time>
      </trkpt>
      <trkpt lat="46.00593" lon="6.79944">
        <ele>1970</ele>
        <time>2000-01-02T14:24:53.000Z</time>
      </trkpt>
      <trkpt lat="46.00595" lon="6.79932">
        <ele>1966</ele>
        <time>2000-01-02T14:25:03.000Z</time>
      </trkpt>
      <trkpt lat="46.00598" lon="6.79923">
        <ele>1966.9</ele>
        <time>2000-01-02T14:25:13.000Z</time>
      </trkpt>
      <trkpt lat="46.006" lon="6.79917">
        <ele>1966.1</ele>
        <time>2000-01-02T14:25:23.000Z</time>
      </trkpt>
      <trkpt lat="46.006" lon="6.7991">
        <ele>1964.4</ele>
        <time>2000-01-02T14:25:33.000Z</time>
      </trkpt>
      <trkpt lat="46.00603" lon="6.799">
        <ele>1961</ele>
        <time>2000-01-02T14:25:43.000Z</time>
      </trkpt>
      <trkpt lat="46.00607" lon="6.79889">
        <ele>1960.4</ele>
        <time>2000-01-02T14:25:53.000Z</time>
      </trkpt>
      <trkpt lat="46.00609" lon="6.79882">
        <ele>1958.7</ele>
        <time>2000-01-02T14:26:03.000Z</time>
      </trkpt>
      <trkpt lat="46.0061" lon="6.79876">
        <ele>1957.1</ele>
        <time>2000-01-02T14:26:13.000Z</time>
      </trkpt>
      <trkpt lat="46.00613" lon="6.7987">
        <ele>1951</ele>
        <time>2000-01-02T14:26:23.000Z</time>
      </trkpt>
      <trkpt lat="46.00617" lon="6.79861">
        <ele>1953</ele>
        <time>2000-01-02T14:26:33.000Z</time>
      </trkpt>
      <trkpt lat="46.00621" lon="6.79855">
        <ele>1951.3</ele>
        <time>2000-01-02T14:26:43.000Z</time>
      </trkpt>
      <trkpt lat="46.00624" lon="6.7985">
        <ele>1949.8</ele>
        <time>2000-01-02T14:26:53.000Z</time>
      </trkpt>
      <trkpt lat="46.00627" lon="6.79845">
        <ele>1947</ele>
        <time>2000-01-02T14:27:03.000Z</time>
      </trkpt>
      <trkpt lat="46.0063" lon="6.79841">
        <ele>1946.9</ele>
        <time>2000-01-02T14:27:13.000Z</time>
      </trkpt>
      <trkpt lat="46.00632" lon="6.79837">
        <ele>1945.6</ele>
        <time>2000-01-02T14:27:23.000Z</time>
      </trkpt>
      <trkpt lat="46.00632" lon="6.79834">
        <ele>1944.7</ele>
        <time>2000-01-02T14:27:33.000Z</time>
      </trkpt>
      <trkpt lat="46.00633" lon="6.79831">
        <ele>1943.9</ele>
        <time>2000-01-02T14:27:43.000Z</time>
      </trkpt>
      <trkpt lat="46.00634" lon="6.79827">
        <ele>1942.9</ele>
        <time>2000-01-02T14:27:53.000Z</time>
      </trkpt>
      <trkpt lat="46.00635" lon="6.79818">
        <ele>1939</ele>
        <time>2000-01-02T14:28:03.000Z</time>
      </trkpt>
      <trkpt lat="46.00633" lon="6.79812">
        <ele>1939.7</ele>
        <time>2000-01-02T14:28:13.000Z</time>
      </trkpt>
      <trkpt lat="46.00631" lon="6.79803">
        <ele>1937.8</ele>
        <time>2000-01-02T14:28:23.000Z</time>
      </trkpt>
      <trkpt lat="46.0063" lon="6.7979">
        <ele>1933</ele>
        <time>2000-01-02T14:28:33.000Z</time>
      </trkpt>
      <trkpt lat="46.00626" lon="6.79783">
        <ele>1934</ele>
        <time>2000-01-02T14:28:43.000Z</time>
      </trkpt>
      <trkpt lat="46.00623" lon="6.79768">
        <ele>1931.6</ele>
        <time>2000-01-02T14:28:53.000Z</time>
      </trkpt>
      <trkpt lat="46.0062" lon="6.79765">
        <ele>1930</ele>
        <time>2000-01-02T14:29:03.000Z</time>
      </trkpt>
      <trkpt lat="46.0062" lon="6.79762">
        <ele>1930.7</ele>
        <time>2000-01-02T14:29:13.000Z</time>
      </trkpt>
      <trkpt lat="46.00619" lon="6.79757">
        <ele>1930</ele>
        <time>2000-01-02T14:29:23.000Z</time>
      </trkpt>
      <trkpt lat="46.00617" lon="6.79753">
        <ele>1929.4</ele>
        <time>2000-01-02T14:29:33.000Z</time>
      </trkpt>
      <trkpt lat="46.00614" lon="6.7975">
        <ele>1929</ele>
        <time>2000-01-02T14:29:43.000Z</time>
      </trkpt>
      <trkpt lat="46.00609" lon="6.79747">
        <ele>1928</ele>
        <time>2000-01-02T14:29:53.000Z</time>
      </trkpt>
      <trkpt lat="46.00606" lon="6.79744">
        <ele>1925</ele>
        <time>2000-01-02T14:30:03.000Z</time>
      </trkpt>
      <trkpt lat="46.00604" lon="6.79739">
        <ele>1925.7</ele>
        <time>2000-01-02T14:30:13.000Z</time>
      </trkpt>
      <trkpt lat="46.00601" lon="6.79735">
        <ele>1924.5</ele>
        <time>2000-01-02T14:30:23.000Z</time>
      </trkpt>
      <trkpt lat="46.00597" lon="6.79732">
        <ele>1923.6</ele>
        <time>2000-01-02T14:30:33.000Z</time>
      </trkpt>
      <trkpt lat="46.00591" lon="6.79728">
        <ele>1920</ele>
        <time>2000-01-02T14:30:43.000Z</time>
      </trkpt>
      <trkpt lat="46.00587" lon="6.79725">
        <ele>1921.7</ele>
        <time>2000-01-02T14:30:53.000Z</time>
      </trkpt>
      <trkpt lat="46.00581" lon="6.79719">
        <ele>1920.1</ele>
        <time>2000-01-02T14:31:03.000Z</time>
      </trkpt>
      <trkpt lat="46.00575" lon="6.79712">
        <ele>1917</ele>
        <time>2000-01-02T14:31:13.000Z</time>
      </trkpt>
      <trkpt lat="46.00572" lon="6.7971">
        <ele>1917.7</ele>
        <time>2000-01-02T14:31:23.000Z</time>
      </trkpt>
      <trkpt lat="46.00569" lon="6.79704">
        <ele>1916.4</ele>
        <time>2000-01-02T14:31:33.000Z</time>
      </trkpt>
      <trkpt lat="46.00567" lon="6.797">
        <ele>1915.5</ele>
        <time>2000-01-02T14:31:43.000Z</time>
      </trkpt>
      <trkpt lat="46.00564" lon="6.79696">
        <ele>1914.6</ele>
        <time>2000-01-02T14:31:53.000Z</time>
      </trkpt>
      <trkpt lat="46.0056" lon="6.79695">
        <ele>1913</ele>
        <time>2000-01-02T14:32:03.000Z</time>
      </trkpt>
      <trkpt lat="46.00555" lon="6.79696">
        <ele>1914.1</ele>
        <time>2000-01-02T14:32:13.000Z</time>
      </trkpt>
      <trkpt lat="46.0055" lon="6.79697">
        <ele>1913.1</ele>
        <time>2000-01-02T14:32:23.000Z</time>
      </trkpt>
      <trkpt lat="46.00545" lon="6.79698">
        <ele>1912.1</ele>
        <time>2000-01-02T14:32:33.000Z</time>
      </trkpt>
      <trkpt lat="46.00543" lon="6.79697">
        <ele>1911.4</ele>
        <time>2000-01-02T14:32:43.000Z</time>
      </trkpt>
      <trkpt lat="46.00542" lon="6.79695">
        <ele>1909</ele>
        <time>2000-01-02T14:32:53.000Z</time>
      </trkpt>
      <trkpt lat="46.00541" lon="6.7969">
        <ele>1909.6</ele>
        <time>2000-01-02T14:33:03.000Z</time>
      </trkpt>
      <trkpt lat="46.0054" lon="6.79684">
        <ele>1908.4</ele>
        <time>2000-01-02T14:33:13.000Z</time>
      </trkpt>
      <trkpt lat="46.00538" lon="6.7968">
        <ele>1907.2</ele>
        <time>2000-01-02T14:33:23.000Z</time>
      </trkpt>
      <trkpt lat="46.00535" lon="6.79672">
        <ele>1905</ele>
        <time>2000-01-02T14:33:33.000Z</time>
      </trkpt>
      <trkpt lat="46.00534" lon="6.79669">
        <ele>1902</ele>
        <time>2000-01-02T14:33:43.000Z</time>
      </trkpt>
      <trkpt lat="46.00535" lon="6.79663">
        <ele>1903.7</ele>
        <time>2000-01-02T14:33:53.000Z</time>
      </trkpt>
      <trkpt lat="46.00534" lon="6.79659">
        <ele>1903</ele>
        <time>2000-01-02T14:34:03.000Z</time>
      </trkpt>
      <trkpt lat="46.00531" lon="6.7965">
        <ele>1901.2</ele>
        <time>2000-01-02T14:34:13.000Z</time>
      </trkpt>
      <trkpt lat="46.00529" lon="6.79644">
        <ele>1894</ele>
        <time>2000-01-02T14:34:23.000Z</time>
      </trkpt>
      <trkpt lat="46.00525" lon="6.79636">
        <ele>1897.5</ele>
        <time>2000-01-02T14:34:33.000Z</time>
      </trkpt>
      <trkpt lat="46.00522" lon="6.79626">
        <ele>1895.2</ele>
        <time>2000-01-02T14:34:43.000Z</time>
      </trkpt>
      <trkpt lat="46.0052" lon="6.79615">
        <ele>1891</ele>
        <time>2000-01-02T14:34:53.000Z</time>
      </trkpt>
      <trkpt lat="46.0052" lon="6.79607">
        <ele>1892.3</ele>
        <time>2000-01-02T14:35:03.000Z</time>
      </trkpt>
      <trkpt lat="46.00519" lon="6.79604">
        <ele>1891.5</ele>
        <time>2000-01-02T14:35:13.000Z</time>
      </trkpt>
      <trkpt lat="46.00518" lon="6.79604">
        <ele>1891.1</ele>
        <time>2000-01-02T14:35:23.000Z</time>
      </trkpt>
      <trkpt lat="46.00516" lon="6.79605">
        <ele>1890.5</ele>
        <time>2000-01-02T14:35:33.000Z</time>
      </trkpt>
      <trkpt lat="46.00508" lon="6.79613">
        <ele>1884</ele>
        <time>2000-01-02T14:35:43.000Z</time>
      </trkpt>
      <trkpt lat="46.00502" lon="6.79618">
        <ele>1886.3</ele>
        <time>2000-01-02T14:35:53.000Z</time>
      </trkpt>
      <trkpt lat="46.00499" lon="6.79621">
        <ele>1885.5</ele>
        <time>2000-01-02T14:36:03.000Z</time>
      </trkpt>
      <trkpt lat="46.00494" lon="6.79623">
        <ele>1884.4</ele>
        <time>2000-01-02T14:36:13.000Z</time>
      </trkpt>
      <trkpt lat="46.00491" lon="6.79622">
        <ele>1883.6</ele>
        <time>2000-01-02T14:36:23.000Z</time>
      </trkpt>
      <trkpt lat="46.00488" lon="6.79619">
        <ele>1878</ele>
        <time>2000-01-02T14:36:33.000Z</time>
      </trkpt>
      <trkpt lat="46.00484" lon="6.79615">
        <ele>1881.3</ele>
        <time>2000-01-02T14:36:43.000Z</time>
      </trkpt>
      <trkpt lat="46.0048" lon="6.79611">
        <ele>1879.9</ele>
        <time>2000-01-02T14:36:53.000Z</time>
      </trkpt>
      <trkpt lat="46.00477" lon="6.79604">
        <ele>1878.2</ele>
        <time>2000-01-02T14:37:03.000Z</time>
      </trkpt>
      <trkpt lat="46.00475" lon="6.79594">
        <ele>1874</ele>
        <time>2000-01-02T14:37:13.000Z</time>
      </trkpt>
      <trkpt lat="46.00476" lon="6.79583">
        <ele>1874.9</ele>
        <time>2000-01-02T14:37:23.000Z</time>
      </trkpt>
      <trkpt lat="46.00479" lon="6.79577">
        <ele>1874.7</ele>
        <time>2000-01-02T14:37:33.000Z</time>
      </trkpt>
      <trkpt lat="46.00485" lon="6.7957">
        <ele>1872</ele>
        <time>2000-01-02T14:37:43.000Z</time>
      </trkpt>
      <trkpt lat="46.0049" lon="6.79567">
        <ele>1876.3</ele>
        <time>2000-01-02T14:37:53.000Z</time>
      </trkpt>
      <trkpt lat="46.00491" lon="6.79565">
        <ele>1876.3</ele>
        <time>2000-01-02T14:38:03.000Z</time>
      </trkpt>
      <trkpt lat="46.00492" lon="6.79563">
        <ele>1876.4</ele>
        <time>2000-01-02T14:38:13.000Z</time>
      </trkpt>
      <trkpt lat="46.00492" lon="6.79561">
        <ele>1876.1</ele>
        <time>2000-01-02T14:38:23.000Z</time>
      </trkpt>
      <trkpt lat="46.00491" lon="6.79558">
        <ele>1875.4</ele>
        <time>2000-01-02T14:38:33.000Z</time>
      </trkpt>
      <trkpt lat="46.00489" lon="6.79554">
        <ele>1874.5</ele>
        <time>2000-01-02T14:38:43.000Z</time>
      </trkpt>
      <trkpt lat="46.00488" lon="6.79552">
        <ele>1874.3</ele>
        <time>2000-01-02T14:38:53.000Z</time>
      </trkpt>
      <trkpt lat="46.00484" lon="6.79542">
        <ele>1871</ele>
        <time>2000-01-02T14:39:03.000Z</time>
      </trkpt>
      <trkpt lat="46.0048" lon="6.79535">
        <ele>1871.9</ele>
        <time>2000-01-02T14:39:13.000Z</time>
      </trkpt>
      <trkpt lat="46.00476" lon="6.79525">
        <ele>1870.5</ele>
        <time>2000-01-02T14:39:23.000Z</time>
      </trkpt>
      <trkpt lat="46.00474" lon="6.79518">
        <ele>1867</ele>
        <time>2000-01-02T14:39:33.000Z</time>
      </trkpt>
      <trkpt lat="46.00472" lon="6.79511">
        <ele>1868.9</ele>
        <time>2000-01-02T14:39:43.000Z</time>
      </trkpt>
      <trkpt lat="46.00472" lon="6.79497">
        <ele>1868.7</ele>
        <time>2000-01-02T14:39:53.000Z</time>
      </trkpt>
      <trkpt lat="46.00471" lon="6.79488">
        <ele>1867</ele>
        <time>2000-01-02T14:40:03.000Z</time>
      </trkpt>
      <trkpt lat="46.00471" lon="6.79476">
        <ele>1866.8</ele>
        <time>2000-01-02T14:40:13.000Z</time>
      </trkpt>
      <trkpt lat="46.0047" lon="6.79466">
        <ele>1865.7</ele>
        <time>2000-01-02T14:40:23.000Z</time>
      </trkpt>
      <trkpt lat="46.0047" lon="6.79455">
        <ele>1864</ele>
        <time>2000-01-02T14:40:33.000Z</time>
      </trkpt>
      <trkpt lat="46.00471" lon="6.79446">
        <ele>1864.6</ele>
        <time>2000-01-02T14:40:43.000Z</time>
      </trkpt>
      <trkpt lat="46.00471" lon="6.79439">
        <ele>1864.1</ele>
        <time>2000-01-02T14:40:53.000Z</time>
      </trkpt>
      <trkpt lat="46.00472" lon="6.79433">
        <ele>1864.1</ele>
        <time>2000-01-02T14:41:03.000Z</time>
      </trkpt>
      <trkpt lat="46.00473" lon="6.79428">
        <ele>1862</ele>
        <time>2000-01-02T14:41:13.000Z</time>
      </trkpt>
      <trkpt lat="46.00473" lon="6.79424">
        <ele>1863.8</ele>
        <time>2000-01-02T14:41:23.000Z</time>
      </trkpt>
      <trkpt lat="46.00471" lon="6.79418">
        <ele>1862.5</ele>
        <time>2000-01-02T14:41:33.000Z</time>
      </trkpt>
      <trkpt lat="46.00468" lon="6.7941">
        <ele>1860.6</ele>
        <time>2000-01-02T14:41:43.000Z</time>
      </trkpt>
      <trkpt lat="46.00467" lon="6.79404">
        <ele>1859.9</ele>
        <time>2000-01-02T14:41:53.000Z</time>
      </trkpt>
      <trkpt lat="46.00467" lon="6.79398">
        <ele>1854</ele>
        <time>2000-01-02T14:42:03.000Z</time>
      </trkpt>
      <trkpt lat="46.00467" lon="6.7939">
        <ele>1859.4</ele>
        <time>2000-01-02T14:42:13.000Z</time>
      </trkpt>
      <trkpt lat="46.00466" lon="6.79384">
        <ele>1858</ele>
        <time>2000-01-02T14:42:23.000Z</time>
      </trkpt>
      <trkpt lat="46.00466" lon="6.79378">
        <ele>1857</ele>
        <time>2000-01-02T14:42:33.000Z</time>
      </trkpt>
      <trkpt lat="46.00467" lon="6.79373">
        <ele>1856.6</ele>
        <time>2000-01-02T14:42:43.000Z</time>
      </trkpt>
      <trkpt lat="46.00469" lon="6.79368">
        <ele>1852</ele>
        <time>2000-01-02T14:42:53.000Z</time>
      </trkpt>
      <trkpt lat="46.00469" lon="6.79363">
        <ele>1855.8</ele>
        <time>2000-01-02T14:43:03.000Z</time>
      </trkpt>
      <trkpt lat="46.0047" lon="6.79355">
        <ele>1855.2</ele>
        <time>2000-01-02T14:43:13.000Z</time>
      </trkpt>
      <trkpt lat="46.0047" lon="6.7935">
        <ele>1854.5</ele>
        <time>2000-01-02T14:43:23.000Z</time>
      </trkpt>
      <trkpt lat="46.00469" lon="6.79341">
        <ele>1852.9</ele>
        <time>2000-01-02T14:43:33.000Z</time>
      </trkpt>
      <trkpt lat="46.00469" lon="6.79335">
        <ele>1849</ele>
        <time>2000-01-02T14:43:43.000Z</time>
      </trkpt>
      <trkpt lat="46.00469" lon="6.79322">
        <ele>1849.6</ele>
        <time>2000-01-02T14:43:53.000Z</time>
      </trkpt>
      <trkpt lat="46.00471" lon="6.79312">
        <ele>1848.1</ele>
        <time>2000-01-02T14:44:03.000Z</time>
      </trkpt>
      <trkpt lat="46.0047" lon="6.79305">
        <ele>1846</ele>
        <time>2000-01-02T14:44:13.000Z</time>
      </trkpt>
      <trkpt lat="46.00468" lon="6.79299">
        <ele>1843.9</ele>
        <time>2000-01-02T14:44:23.000Z</time>
      </trkpt>
      <trkpt lat="46.00464" lon="6.79295">
        <ele>1841.7</ele>
        <time>2000-01-02T14:44:33.000Z</time>
      </trkpt>
      <trkpt lat="46.00458" lon="6.79294">
        <ele>1840.1</ele>
        <time>2000-01-02T14:44:43.000Z</time>
      </trkpt>
      <trkpt lat="46.0045" lon="6.79295">
        <ele>1835</ele>
        <time>2000-01-02T14:44:53.000Z</time>
      </trkpt>
      <trkpt lat="46.00444" lon="6.79296">
        <ele>1837.4</ele>
        <time>2000-01-02T14:45:03.000Z</time>
      </trkpt>
      <trkpt lat="46.00439" lon="6.79296">
        <ele>1835.3</ele>
        <time>2000-01-02T14:45:13.000Z</time>
      </trkpt>
      <trkpt lat="46.00436" lon="6.79294">
        <ele>1833.6</ele>
        <time>2000-01-02T14:45:23.000Z</time>
      </trkpt>
      <trkpt lat="46.00435" lon="6.79291">
        <ele>1832.6</ele>
        <time>2000-01-02T14:45:33.000Z</time>
      </trkpt>
      <trkpt lat="46.00435" lon="6.79287">
        <ele>1831.8</ele>
        <time>2000-01-02T14:45:43.000Z</time>
      </trkpt>
      <trkpt lat="46.00435" lon="6.79282">
        <ele>1828</ele>
        <time>2000-01-02T14:45:53.000Z</time>
      </trkpt>
      <trkpt lat="46.00437" lon="6.79276">
        <ele>1830.1</ele>
        <time>2000-01-02T14:46:03.000Z</time>
      </trkpt>
      <trkpt lat="46.00439" lon="6.79273">
        <ele>1829.8</ele>
        <time>2000-01-02T14:46:13.000Z</time>
      </trkpt>
      <trkpt lat="46.00439" lon="6.79268">
        <ele>1828.3</ele>
        <time>2000-01-02T14:46:23.000Z</time>
      </trkpt>
      <trkpt lat="46.0044" lon="6.79261">
        <ele>1826.5</ele>
        <time>2000-01-02T14:46:33.000Z</time>
      </trkpt>
      <trkpt lat="46.0044" lon="6.79259">
        <ele>1825.9</ele>
        <time>2000-01-02T14:46:43.000Z</time>
      </trkpt>
      <trkpt lat="46.00438" lon="6.79255">
        <ele>1821</ele>
        <time>2000-01-02T14:46:53.000Z</time>
      </trkpt>
      <trkpt lat="46.00435" lon="6.79249">
        <ele>1822</ele>
        <time>2000-01-02T14:47:03.000Z</time>
      </trkpt>
      <trkpt lat="46.00432" lon="6.79247">
        <ele>1820.9</ele>
        <time>2000-01-02T14:47:13.000Z</time>
      </trkpt>
      <trkpt lat="46.00425" lon="6.79249">
        <ele>1820.3</ele>
        <time>2000-01-02T14:47:23.000Z</time>
      </trkpt>
      <trkpt lat="46.00418" lon="6.79252">
        <ele>1817</ele>
        <time>2000-01-02T14:47:33.000Z</time>
      </trkpt>
      <trkpt lat="46.00411" lon="6.79257">
        <ele>1819.2</ele>
        <time>2000-01-02T14:47:43.000Z</time>
      </trkpt>
      <trkpt lat="46.00407" lon="6.79262">
        <ele>1819.2</ele>
        <time>2000-01-02T14:47:53.000Z</time>
      </trkpt>
      <trkpt lat="46.00405" lon="6.79265">
        <ele>1819.1</ele>
        <time>2000-01-02T14:48:03.000Z</time>
      </trkpt>
      <trkpt lat="46.00402" lon="6.79266">
        <ele>1818.6</ele>
        <time>2000-01-02T14:48:13.000Z</time>
      </trkpt>
      <trkpt lat="46.00399" lon="6.79265">
        <ele>1815</ele>
        <time>2000-01-02T14:48:23.000Z</time>
      </trkpt>
      <trkpt lat="46.00396" lon="6.79263">
        <ele>1817</ele>
        <time>2000-01-02T14:48:33.000Z</time>
      </trkpt>
      <trkpt lat="46.00395" lon="6.79257">
        <ele>1816.4</ele>
        <time>2000-01-02T14:48:43.000Z</time>
      </trkpt>
      <trkpt lat="46.00393" lon="6.79249">
        <ele>1815.5</ele>
        <time>2000-01-02T14:48:53.000Z</time>
      </trkpt>
      <trkpt lat="46.00392" lon="6.79238">
        <ele>1813</ele>
        <time>2000-01-02T14:49:03.000Z</time>
      </trkpt>
      <trkpt lat="46.00392" lon="6.79225">
        <ele>1813.2</ele>
        <time>2000-01-02T14:49:13.000Z</time>
      </trkpt>
      <trkpt lat="46.00393" lon="6.79223">
        <ele>1813.1</ele>
        <time>2000-01-02T14:49:23.000Z</time>
      </trkpt>
      <trkpt lat="46.00396" lon="6.79219">
        <ele>1812.7</ele>
        <time>2000-01-02T14:49:33.000Z</time>
      </trkpt>
      <trkpt lat="46.00399" lon="6.79215">
        <ele>1811</ele>
        <time>2000-01-02T14:49:43.000Z</time>
      </trkpt>
      <trkpt lat="46.00403" lon="6.79211">
        <ele>1812</ele>
        <time>2000-01-02T14:49:53.000Z</time>
      </trkpt>
      <trkpt lat="46.00406" lon="6.79209">
        <ele>1811.8</ele>
        <time>2000-01-02T14:50:03.000Z</time>
      </trkpt>
      <trkpt lat="46.00409" lon="6.79207">
        <ele>1811.5</ele>
        <time>2000-01-02T14:50:13.000Z</time>
      </trkpt>
      <trkpt lat="46.00412" lon="6.79205">
        <ele>1811.2</ele>
        <time>2000-01-02T14:50:23.000Z</time>
      </trkpt>
      <trkpt lat="46.00414" lon="6.79204">
        <ele>1811.1</ele>
        <time>2000-01-02T14:50:33.000Z</time>
      </trkpt>
      <trkpt lat="46.00416" lon="6.79203">
        <ele>1810</ele>
        <time>2000-01-02T14:50:43.000Z</time>
      </trkpt>
      <trkpt lat="46.00419" lon="6.79203">
        <ele>1811</ele>
        <time>2000-01-02T14:50:53.000Z</time>
      </trkpt>
      <trkpt lat="46.00423" lon="6.79204">
        <ele>1811.2</ele>
        <time>2000-01-02T14:51:03.000Z</time>
      </trkpt>
      <trkpt lat="46.00432" lon="6.79202">
        <ele>1811.1</ele>
        <time>2000-01-02T14:51:13.000Z</time>
      </trkpt>
      <trkpt lat="46.00439" lon="6.79199">
        <ele>1809</ele>
        <time>2000-01-02T14:51:23.000Z</time>
      </trkpt>
      <trkpt lat="46.00442" lon="6.79194">
        <ele>1810</ele>
        <time>2000-01-02T14:51:33.000Z</time>
      </trkpt>
      <trkpt lat="46.00445" lon="6.79185">
        <ele>1809.4</ele>
        <time>2000-01-02T14:51:43.000Z</time>
      </trkpt>
      <trkpt lat="46.00448" lon="6.79176">
        <ele>1809</ele>
        <time>2000-01-02T14:51:53.000Z</time>
      </trkpt>
      <trkpt lat="46.00453" lon="6.79163">
        <ele>1807</ele>
        <time>2000-01-02T14:52:03.000Z</time>
      </trkpt>
      <trkpt lat="46.00463" lon="6.79138">
        <ele>1805</ele>
        <time>2000-01-02T14:52:13.000Z</time>
      </trkpt>
      <trkpt lat="46.00468" lon="6.79127">
        <ele>1806.2</ele>
        <time>2000-01-02T14:52:23.000Z</time>
      </trkpt>
      <trkpt lat="46.00473" lon="6.79113">
        <ele>1804</ele>
        <time>2000-01-02T14:52:33.000Z</time>
      </trkpt>
      <trkpt lat="46.00479" lon="6.79098">
        <ele>1804.5</ele>
        <time>2000-01-02T14:52:43.000Z</time>
      </trkpt>
      <trkpt lat="46.00482" lon="6.7909">
        <ele>1804.2</ele>
        <time>2000-01-02T14:52:53.000Z</time>
      </trkpt>
      <trkpt lat="46.00482" lon="6.79087">
        <ele>1804</ele>
        <time>2000-01-02T14:53:03.000Z</time>
      </trkpt>
      <trkpt lat="46.0048" lon="6.7908">
        <ele>1804</ele>
        <time>2000-01-02T14:53:13.000Z</time>
      </trkpt>
      <trkpt lat="46.00483" lon="6.79069">
        <ele>1803.8</ele>
        <time>2000-01-02T14:53:23.000Z</time>
      </trkpt>
      <trkpt lat="46.00485" lon="6.79062">
        <ele>1803.6</ele>
        <time>2000-01-02T14:53:33.000Z</time>
      </trkpt>
      <trkpt lat="46.00486" lon="6.79053">
        <ele>1803</ele>
        <time>2000-01-02T14:53:43.000Z</time>
      </trkpt>
      <trkpt lat="46.00486" lon="6.79045">
        <ele>1803.3</ele>
        <time>2000-01-02T14:53:53.000Z</time>
      </trkpt>
      <trkpt lat="46.00486" lon="6.79036">
        <ele>1803.1</ele>
        <time>2000-01-02T14:54:03.000Z</time>
      </trkpt>
      <trkpt lat="46.00484" lon="6.79027">
        <ele>1803</ele>
        <time>2000-01-02T14:54:13.000Z</time>
      </trkpt>
      <trkpt lat="46.00484" lon="6.79019">
        <ele>1802</ele>
        <time>2000-01-02T14:54:23.000Z</time>
      </trkpt>
      <trkpt lat="46.00483" lon="6.79006">
        <ele>1802.2</ele>
        <time>2000-01-02T14:54:33.000Z</time>
      </trkpt>
      <trkpt lat="46.00482" lon="6.78995">
        <ele>1802</ele>
        <time>2000-01-02T14:54:43.000Z</time>
      </trkpt>
      <trkpt lat="46.00482" lon="6.78993">
        <ele>1802</ele>
        <time>2000-01-02T14:54:53.000Z</time>
      </trkpt>
      <trkpt lat="46.0048" lon="6.78977">
        <ele>1801</ele>
        <time>2000-01-02T14:55:03.000Z</time>
      </trkpt>
      <trkpt lat="46.00481" lon="6.7897">
        <ele>1801.9</ele>
        <time>2000-01-02T14:55:13.000Z</time>
      </trkpt>
      <trkpt lat="46.00478" lon="6.78965">
        <ele>1801.7</ele>
        <time>2000-01-02T14:55:23.000Z</time>
      </trkpt>
      <trkpt lat="46.00478" lon="6.78956">
        <ele>1801.4</ele>
        <time>2000-01-02T14:55:33.000Z</time>
      </trkpt>
      <trkpt lat="46.00479" lon="6.78949">
        <ele>1801</ele>
        <time>2000-01-02T14:55:43.000Z</time>
      </trkpt>
      <trkpt lat="46.00483" lon="6.78942">
        <ele>1800.9</ele>
        <time>2000-01-02T14:55:53.000Z</time>
      </trkpt>
      <trkpt lat="46.00484" lon="6.78939">
        <ele>1800.8</ele>
        <time>2000-01-02T14:56:03.000Z</time>
      </trkpt>
      <trkpt lat="46.00485" lon="6.7893">
        <ele>1800.5</ele>
        <time>2000-01-02T14:56:13.000Z</time>
      </trkpt>
      <trkpt lat="46.00487" lon="6.7892">
        <ele>1800</ele>
        <time>2000-01-02T14:56:23.000Z</time>
      </trkpt>
      <trkpt lat="46.00491" lon="6.78911">
        <ele>1799.9</ele>
        <time>2000-01-02T14:56:33.000Z</time>
      </trkpt>
      <trkpt lat="46.005" lon="6.78894">
        <ele>1799</ele>
        <time>2000-01-02T14:56:43.000Z</time>
      </trkpt>
      <trkpt lat="46.00505" lon="6.78885">
        <ele>1799</ele>
        <time>2000-01-02T14:56:53.000Z</time>
      </trkpt>
      <trkpt lat="46.00507" lon="6.78878">
        <ele>1798.9</ele>
        <time>2000-01-02T14:57:03.000Z</time>
      </trkpt>
      <trkpt lat="46.00508" lon="6.78868">
        <ele>1798</ele>
        <time>2000-01-02T14:57:13.000Z</time>
      </trkpt>
      <trkpt lat="46.00511" lon="6.78863">
        <ele>1798.6</ele>
        <time>2000-01-02T14:57:23.000Z</time>
      </trkpt>
      <trkpt lat="46.00513" lon="6.78862">
        <ele>1798.5</ele>
        <time>2000-01-02T14:57:33.000Z</time>
      </trkpt>
      <trkpt lat="46.00515" lon="6.78863">
        <ele>1798.5</ele>
        <time>2000-01-02T14:57:43.000Z</time>
      </trkpt>
      <trkpt lat="46.00517" lon="6.78862">
        <ele>1798.4</ele>
        <time>2000-01-02T14:57:53.000Z</time>
      </trkpt>
      <trkpt lat="46.00518" lon="6.78858">
        <ele>1798.2</ele>
        <time>2000-01-02T14:58:03.000Z</time>
      </trkpt>
      <trkpt lat="46.00519" lon="6.78847">
        <ele>1798</ele>
        <time>2000-01-02T14:58:13.000Z</time>
      </trkpt>
      <trkpt lat="46.00521" lon="6.78844">
        <ele>1797.6</ele>
        <time>2000-01-02T14:58:23.000Z</time>
      </trkpt>
      <trkpt lat="46.00529" lon="6.7884">
        <ele>1797.2</ele>
        <time>2000-01-02T14:58:33.000Z</time>
      </trkpt>
      <trkpt lat="46.00537" lon="6.78834">
        <ele>1797</ele>
        <time>2000-01-02T14:58:43.000Z</time>
      </trkpt>
      <trkpt lat="46.00543" lon="6.78829">
        <ele>1796.9</ele>
        <time>2000-01-02T14:58:53.000Z</time>
      </trkpt>
      <trkpt lat="46.00547" lon="6.7882">
        <ele>1796.7</ele>
        <time>2000-01-02T14:59:03.000Z</time>
      </trkpt>
      <trkpt lat="46.00554" lon="6.78806">
        <ele>1796</ele>
        <time>2000-01-02T14:59:13.000Z</time>
      </trkpt>
      <trkpt lat="46.00563" lon="6.78787">
        <ele>1796.1</ele>
        <time>2000-01-02T14:59:23.000Z</time>
      </trkpt>
      <trkpt lat="46.0057" lon="6.78766">
        <ele>1795</ele>
        <time>2000-01-02T14:59:33.000Z</time>
      </trkpt>
      <trkpt lat="46.00576" lon="6.78753">
        <ele>1795.1</ele>
        <time>2000-01-02T14:59:43.000Z</time>
      </trkpt>
      <trkpt lat="46.00582" lon="6.78745">
        <ele>1795.2</ele>
        <time>2000-01-02T14:59:53.000Z</time>
      </trkpt>
      <trkpt lat="46.00585" lon="6.78741">
        <ele>1795</ele>
        <time>2000-01-02T15:00:03.000Z</time>
      </trkpt>
      <trkpt lat="46.0059" lon="6.78734">
        <ele>1796.4</ele>
        <time>2000-01-02T15:00:13.000Z</time>
      </trkpt>
      <trkpt lat="46.00593" lon="6.78728">
        <ele>1796.9</ele>
        <time>2000-01-02T15:00:23.000Z</time>
      </trkpt>
      <trkpt lat="46.006" lon="6.7872">
        <ele>1795</ele>
        <time>2000-01-02T15:00:33.000Z</time>
      </trkpt>
      <trkpt lat="46.00609" lon="6.78709">
        <ele>1797.4</ele>
        <time>2000-01-02T15:00:43.000Z</time>
      </trkpt>
      <trkpt lat="46.0062" lon="6.78694">
        <ele>1795</ele>
        <time>2000-01-02T15:00:53.000Z</time>
      </trkpt>
      <trkpt lat="46.00626" lon="6.78687">
        <ele>1795.9</ele>
        <time>2000-01-02T15:01:03.000Z</time>
      </trkpt>
      <trkpt lat="46.00632" lon="6.78679">
        <ele>1795.5</ele>
        <time>2000-01-02T15:01:13.000Z</time>
      </trkpt>
      <trkpt lat="46.00635" lon="6.78675">
        <ele>1794</ele>
        <time>2000-01-02T15:01:23.000Z</time>
      </trkpt>
      <trkpt lat="46.00639" lon="6.78671">
        <ele>1795.3</ele>
        <time>2000-01-02T15:01:33.000Z</time>
      </trkpt>
      <trkpt lat="46.0064" lon="6.78668">
        <ele>1795</ele>
        <time>2000-01-02T15:01:43.000Z</time>
      </trkpt>
      <trkpt lat="46.00644" lon="6.78661">
        <ele>1794.2</ele>
        <time>2000-01-02T15:01:53.000Z</time>
      </trkpt>
      <trkpt lat="46.00645" lon="6.78654">
        <ele>1793.6</ele>
        <time>2000-01-02T15:02:03.000Z</time>
      </trkpt>
      <trkpt lat="46.0065" lon="6.78648">
        <ele>1792</ele>
        <time>2000-01-02T15:02:13.000Z</time>
      </trkpt>
      <trkpt lat="46.00654" lon="6.78644">
        <ele>1792.3</ele>
        <time>2000-01-02T15:02:23.000Z</time>
      </trkpt>
      <trkpt lat="46.00655" lon="6.7864">
        <ele>1791.9</ele>
        <time>2000-01-02T15:02:33.000Z</time>
      </trkpt>
      <trkpt lat="46.00667" lon="6.78635">
        <ele>1790</ele>
        <time>2000-01-02T15:02:43.000Z</time>
      </trkpt>
      <trkpt lat="46.00673" lon="6.78633">
        <ele>1790.4</ele>
        <time>2000-01-02T15:02:53.000Z</time>
      </trkpt>
      <trkpt lat="46.00677" lon="6.78634">
        <ele>1789.9</ele>
        <time>2000-01-02T15:03:03.000Z</time>
      </trkpt>
      <trkpt lat="46.00685" lon="6.78637">
        <ele>1789.1</ele>
        <time>2000-01-02T15:03:13.000Z</time>
      </trkpt>
      <trkpt lat="46.00691" lon="6.78638">
        <ele>1788</ele>
        <time>2000-01-02T15:03:23.000Z</time>
      </trkpt>
      <trkpt lat="46.00697" lon="6.78636">
        <ele>1787.8</ele>
        <time>2000-01-02T15:03:33.000Z</time>
      </trkpt>
      <trkpt lat="46.007" lon="6.78632">
        <ele>1787.4</ele>
        <time>2000-01-02T15:03:43.000Z</time>
      </trkpt>
      <trkpt lat="46.00702" lon="6.78629">
        <ele>1787.1</ele>
        <time>2000-01-02T15:03:53.000Z</time>
      </trkpt>
      <trkpt lat="46.00706" lon="6.78628">
        <ele>1786.3</ele>
        <time>2000-01-02T15:04:03.000Z</time>
      </trkpt>
      <trkpt lat="46.00714" lon="6.78626">
        <ele>1783</ele>
        <time>2000-01-02T15:04:13.000Z</time>
      </trkpt>
      <trkpt lat="46.00719" lon="6.78623">
        <ele>1783.4</ele>
        <time>2000-01-02T15:04:23.000Z</time>
      </trkpt>
      <trkpt lat="46.00723" lon="6.78616">
        <ele>1781.7</ele>
        <time>2000-01-02T15:04:33.000Z</time>
      </trkpt>
      <trkpt lat="46.00727" lon="6.78604">
        <ele>1780</ele>
        <time>2000-01-02T15:04:43.000Z</time>
      </trkpt>
      <trkpt lat="46.00728" lon="6.78596">
        <ele>1779.4</ele>
        <time>2000-01-02T15:04:53.000Z</time>
      </trkpt>
      <trkpt lat="46.00727" lon="6.78583">
        <ele>1778</ele>
        <time>2000-01-02T15:05:03.000Z</time>
      </trkpt>
      <trkpt lat="46.00724" lon="6.78571">
        <ele>1777</ele>
        <time>2000-01-02T15:05:13.000Z</time>
      </trkpt>
      <trkpt lat="46.00722" lon="6.78565">
        <ele>1776.7</ele>
        <time>2000-01-02T15:05:23.000Z</time>
      </trkpt>
      <trkpt lat="46.00716" lon="6.78562">
        <ele>1777.2</ele>
        <time>2000-01-02T15:05:33.000Z</time>
      </trkpt>
      <trkpt lat="46.00711" lon="6.78558">
        <ele>1777.2</ele>
        <time>2000-01-02T15:05:43.000Z</time>
      </trkpt>
      <trkpt lat="46.00708" lon="6.78554">
        <ele>1775</ele>
        <time>2000-01-02T15:05:53.000Z</time>
      </trkpt>
      <trkpt lat="46.00707" lon="6.78548">
        <ele>1775.7</ele>
        <time>2000-01-02T15:06:03.000Z</time>
      </trkpt>
      <trkpt lat="46.00706" lon="6.78545">
        <ele>1775.2</ele>
        <time>2000-01-02T15:06:13.000Z</time>
      </trkpt>
      <trkpt lat="46.007" lon="6.78537">
        <ele>1773.9</ele>
        <time>2000-01-02T15:06:23.000Z</time>
      </trkpt>
      <trkpt lat="46.00695" lon="6.78528">
        <ele>1770</ele>
        <time>2000-01-02T15:06:33.000Z</time>
      </trkpt>
      <trkpt lat="46.00695" lon="6.78523">
        <ele>1771.3</ele>
        <time>2000-01-02T15:06:43.000Z</time>
      </trkpt>
      <trkpt lat="46.00696" lon="6.78516">
        <ele>1770.3</ele>
        <time>2000-01-02T15:06:53.000Z</time>
      </trkpt>
      <trkpt lat="46.00699" lon="6.7851">
        <ele>1769.4</ele>
        <time>2000-01-02T15:07:03.000Z</time>
      </trkpt>
      <trkpt lat="46.00699" lon="6.78505">
        <ele>1768.7</ele>
        <time>2000-01-02T15:07:13.000Z</time>
      </trkpt>
      <trkpt lat="46.00699" lon="6.78497">
        <ele>1767</ele>
        <time>2000-01-02T15:07:23.000Z</time>
      </trkpt>
      <trkpt lat="46.007" lon="6.7849">
        <ele>1767.4</ele>
        <time>2000-01-02T15:07:33.000Z</time>
      </trkpt>
      <trkpt lat="46.00703" lon="6.78484">
        <ele>1767</ele>
        <time>2000-01-02T15:07:43.000Z</time>
      </trkpt>
      <trkpt lat="46.00707" lon="6.78476">
        <ele>1766.7</ele>
        <time>2000-01-02T15:07:53.000Z</time>
      </trkpt>
      <trkpt lat="46.00713" lon="6.78469">
        <ele>1764</ele>
        <time>2000-01-02T15:08:03.000Z</time>
      </trkpt>
      <trkpt lat="46.0072" lon="6.78462">
        <ele>1765.1</ele>
        <time>2000-01-02T15:08:13.000Z</time>
      </trkpt>
      <trkpt lat="46.00726" lon="6.78456">
        <ele>1763.9</ele>
        <time>2000-01-02T15:08:23.000Z</time>
      </trkpt>
      <trkpt lat="46.00732" lon="6.78449">
        <ele>1760</ele>
        <time>2000-01-02T15:08:33.000Z</time>
      </trkpt>
      <trkpt lat="46.00739" lon="6.78446">
        <ele>1761.6</ele>
        <time>2000-01-02T15:08:43.000Z</time>
      </trkpt>
      <trkpt lat="46.00748" lon="6.78443">
        <ele>1760.9</ele>
        <time>2000-01-02T15:08:53.000Z</time>
      </trkpt>
      <trkpt lat="46.00754" lon="6.7844">
        <ele>1759</ele>
        <time>2000-01-02T15:09:03.000Z</time>
      </trkpt>
      <trkpt lat="46.00758" lon="6.78432">
        <ele>1759.2</ele>
        <time>2000-01-02T15:09:13.000Z</time>
      </trkpt>
      <trkpt lat="46.00761" lon="6.78426">
        <ele>1758.3</ele>
        <time>2000-01-02T15:09:23.000Z</time>
      </trkpt>
      <trkpt lat="46.00767" lon="6.78423">
        <ele>1757.9</ele>
        <time>2000-01-02T15:09:33.000Z</time>
      </trkpt>
      <trkpt lat="46.00777" lon="6.78418">
        <ele>1757</ele>
        <time>2000-01-02T15:09:43.000Z</time>
      </trkpt>
      <trkpt lat="46.00788" lon="6.78415">
        <ele>1756.5</ele>
        <time>2000-01-02T15:09:53.000Z</time>
      </trkpt>
      <trkpt lat="46.00797" lon="6.78412">
        <ele>1756</ele>
        <time>2000-01-02T15:10:03.000Z</time>
      </trkpt>
      <trkpt lat="46.0081" lon="6.78405">
        <ele>1755</ele>
        <time>2000-01-02T15:10:13.000Z</time>
      </trkpt>
      <trkpt lat="46.00817" lon="6.78401">
        <ele>1754</ele>
        <time>2000-01-02T15:10:23.000Z</time>
      </trkpt>
      <trkpt lat="46.00826" lon="6.78392">
        <ele>1753.5</ele>
        <time>2000-01-02T15:10:33.000Z</time>
      </trkpt>
      <trkpt lat="46.00836" lon="6.78381">
        <ele>1753</ele>
        <time>2000-01-02T15:10:43.000Z</time>
      </trkpt>
      <trkpt lat="46.00842" lon="6.78374">
        <ele>1752.6</ele>
        <time>2000-01-02T15:10:53.000Z</time>
      </trkpt>
      <trkpt lat="46.00856" lon="6.78365">
        <ele>1752</ele>
        <time>2000-01-02T15:11:03.000Z</time>
      </trkpt>
      <trkpt lat="46.00869" lon="6.78358">
        <ele>1752</ele>
        <time>2000-01-02T15:11:13.000Z</time>
      </trkpt>
      <trkpt lat="46.00878" lon="6.78355">
        <ele>1752</ele>
        <time>2000-01-02T15:11:23.000Z</time>
      </trkpt>
      <trkpt lat="46.00885" lon="6.78357">
        <ele>1750.4</ele>
        <time>2000-01-02T15:11:33.000Z</time>
      </trkpt>
      <trkpt lat="46.00892" lon="6.78361">
        <ele>1749.8</ele>
        <time>2000-01-02T15:11:43.000Z</time>
      </trkpt>
      <trkpt lat="46.00898" lon="6.78362">
        <ele>1750</ele>
        <time>2000-01-02T15:11:53.000Z</time>
      </trkpt>
      <trkpt lat="46.00908" lon="6.78364">
        <ele>1748.8</ele>
        <time>2000-01-02T15:12:03.000Z</time>
      </trkpt>
      <trkpt lat="46.00908" lon="6.78364">
        <ele>1748.8</ele>
        <time>2000-01-02T15:12:13.000Z</time>
      </trkpt>
      <trkpt lat="46.00908" lon="6.78364">
        <ele>1748.8</ele>
        <time>2000-01-02T15:12:23.000Z</time>
      </trkpt>
      <trkpt lat="46.00919" lon="6.78364">
        <ele>1748</ele>
        <time>2000-01-02T15:12:33.000Z</time>
      </trkpt>
      <trkpt lat="46.00926" lon="6.78364">
        <ele>1747.9</ele>
        <time>2000-01-02T15:12:43.000Z</time>
      </trkpt>
      <trkpt lat="46.00934" lon="6.78361">
        <ele>1747.4</ele>
        <time>2000-01-02T15:12:53.000Z</time>
      </trkpt>
      <trkpt lat="46.00936" lon="6.7836">
        <ele>1747.3</ele>
        <time>2000-01-02T15:13:03.000Z</time>
      </trkpt>
      <trkpt lat="46.00939" lon="6.78362">
        <ele>1747</ele>
        <time>2000-01-02T15:13:13.000Z</time>
      </trkpt>
      <trkpt lat="46.00944" lon="6.78363">
        <ele>1747.3</ele>
        <time>2000-01-02T15:13:23.000Z</time>
      </trkpt>
      <trkpt lat="46.00955" lon="6.78364">
        <ele>1747.5</ele>
        <time>2000-01-02T15:13:33.000Z</time>
      </trkpt>
      <trkpt lat="46.00968" lon="6.78366">
        <ele>1747</ele>
        <time>2000-01-02T15:13:43.000Z</time>
      </trkpt>
      <trkpt lat="46.00973" lon="6.78365">
        <ele>1747.9</ele>
        <time>2000-01-02T15:13:53.000Z</time>
      </trkpt>
      <trkpt lat="46.00977" lon="6.78362">
        <ele>1747.4</ele>
        <time>2000-01-02T15:14:03.000Z</time>
      </trkpt>
      <trkpt lat="46.00988" lon="6.7836">
        <ele>1746</ele>
        <time>2000-01-02T15:14:13.000Z</time>
      </trkpt>
      <trkpt lat="46.00996" lon="6.78358">
        <ele>1747.7</ele>
        <time>2000-01-02T15:14:23.000Z</time>
      </trkpt>
      <trkpt lat="46.01001" lon="6.78357">
        <ele>1747.7</ele>
        <time>2000-01-02T15:14:33.000Z</time>
      </trkpt>
      <trkpt lat="46.01001" lon="6.78349">
        <ele>1747.2</ele>
        <time>2000-01-02T15:14:43.000Z</time>
      </trkpt>
      <trkpt lat="46.01001" lon="6.78344">
        <ele>1746</ele>
        <time>2000-01-02T15:14:53.000Z</time>
      </trkpt>
      <trkpt lat="46.01001" lon="6.78342">
        <ele>1746.7</ele>
        <time>2000-01-02T15:15:03.000Z</time>
      </trkpt>
      <trkpt lat="46.01004" lon="6.78339">
        <ele>1746.6</ele>
        <time>2000-01-02T15:15:13.000Z</time>
      </trkpt>
      <trkpt lat="46.01011" lon="6.78331">
        <ele>1746.4</ele>
        <time>2000-01-02T15:15:23.000Z</time>
      </trkpt>
      <trkpt lat="46.01018" lon="6.7832">
        <ele>1746</ele>
        <time>2000-01-02T15:15:33.000Z</time>
      </trkpt>
      <trkpt lat="46.01024" lon="6.78305">
        <ele>1747</ele>
        <time>2000-01-02T15:15:43.000Z</time>
      </trkpt>
      <trkpt lat="46.01031" lon="6.78288">
        <ele>1748</ele>
        <time>2000-01-02T15:15:53.000Z</time>
      </trkpt>
      <trkpt lat="46.01033" lon="6.78283">
        <ele>1747.8</ele>
        <time>2000-01-02T15:16:03.000Z</time>
      </trkpt>
      <trkpt lat="46.01034" lon="6.78277">
        <ele>1748.1</ele>
        <time>2000-01-02T15:16:13.000Z</time>
      </trkpt>
      <trkpt lat="46.01035" lon="6.78272">
        <ele>1748.8</ele>
        <time>2000-01-02T15:16:23.000Z</time>
      </trkpt>
      <trkpt lat="46.01037" lon="6.7827">
        <ele>1749</ele>
        <time>2000-01-02T15:16:33.000Z</time>
      </trkpt>
      <trkpt lat="46.0104" lon="6.78268">
        <ele>1749.3</ele>
        <time>2000-01-02T15:16:43.000Z</time>
      </trkpt>
      <trkpt lat="46.01042" lon="6.78264">
        <ele>1750</ele>
        <time>2000-01-02T15:16:53.000Z</time>
      </trkpt>
      <trkpt lat="46.01045" lon="6.7826">
        <ele>1750.2</ele>
        <time>2000-01-02T15:17:03.000Z</time>
      </trkpt>
      <trkpt lat="46.01048" lon="6.78256">
        <ele>1750.6</ele>
        <time>2000-01-02T15:17:13.000Z</time>
      </trkpt>
      <trkpt lat="46.01052" lon="6.78253">
        <ele>1750.8</ele>
        <time>2000-01-02T15:17:23.000Z</time>
      </trkpt>
      <trkpt lat="46.01057" lon="6.78251">
        <ele>1750.9</ele>
        <time>2000-01-02T15:17:33.000Z</time>
      </trkpt>
      <trkpt lat="46.0106" lon="6.78248">
        <ele>1752</ele>
        <time>2000-01-02T15:17:43.000Z</time>
      </trkpt>
      <trkpt lat="46.01063" lon="6.78243">
        <ele>1751.4</ele>
        <time>2000-01-02T15:17:53.000Z</time>
      </trkpt>
      <trkpt lat="46.01068" lon="6.78238">
        <ele>1751.7</ele>
        <time>2000-01-02T15:18:03.000Z</time>
      </trkpt>
      <trkpt lat="46.01069" lon="6.78235">
        <ele>1751.8</ele>
        <time>2000-01-02T15:18:13.000Z</time>
      </trkpt>
      <trkpt lat="46.0107" lon="6.78232">
        <ele>1752</ele>
        <time>2000-01-02T15:18:23.000Z</time>
      </trkpt>
      <trkpt lat="46.01073" lon="6.78231">
        <ele>1751.9</ele>
        <time>2000-01-02T15:18:33.000Z</time>
      </trkpt>
      <trkpt lat="46.01078" lon="6.78229">
        <ele>1752</ele>
        <time>2000-01-02T15:18:43.000Z</time>
      </trkpt>
      <trkpt lat="46.01081" lon="6.78226">
        <ele>1751.9</ele>
        <time>2000-01-02T15:18:53.000Z</time>
      </trkpt>
      <trkpt lat="46.01084" lon="6.78222">
        <ele>1752</ele>
        <time>2000-01-02T15:19:03.000Z</time>
      </trkpt>
      <trkpt lat="46.01089" lon="6.78215">
        <ele>1752</ele>
        <time>2000-01-02T15:19:13.000Z</time>
      </trkpt>
      <trkpt lat="46.01094" lon="6.78209">
        <ele>1752</ele>
        <time>2000-01-02T15:19:23.000Z</time>
      </trkpt>
      <trkpt lat="46.01095" lon="6.78205">
        <ele>1751.9</ele>
        <time>2000-01-02T15:19:33.000Z</time>
      </trkpt>
      <trkpt lat="46.01097" lon="6.78201">
        <ele>1751.9</ele>
        <time>2000-01-02T15:19:43.000Z</time>
      </trkpt>
      <trkpt lat="46.01099" lon="6.78201">
        <ele>1751.8</ele>
        <time>2000-01-02T15:19:53.000Z</time>
      </trkpt>
      <trkpt lat="46.01101" lon="6.78202">
        <ele>1751.6</ele>
        <time>2000-01-02T15:20:03.000Z</time>
      </trkpt>
      <trkpt lat="46.01104" lon="6.78203">
        <ele>1751.4</ele>
        <time>2000-01-02T15:20:13.000Z</time>
      </trkpt>
      <trkpt lat="46.0111" lon="6.782">
        <ele>1750</ele>
        <time>2000-01-02T15:20:23.000Z</time>
      </trkpt>
      <trkpt lat="46.01111" lon="6.78197">
        <ele>1751</ele>
        <time>2000-01-02T15:20:33.000Z</time>
      </trkpt>
      <trkpt lat="46.01112" lon="6.78191">
        <ele>1750.7</ele>
        <time>2000-01-02T15:20:43.000Z</time>
      </trkpt>
      <trkpt lat="46.01115" lon="6.78186">
        <ele>1750.1</ele>
        <time>2000-01-02T15:20:53.000Z</time>
      </trkpt>
      <trkpt lat="46.01117" lon="6.78183">
        <ele>1749.8</ele>
        <time>2000-01-02T15:21:03.000Z</time>
      </trkpt>
      <trkpt lat="46.01119" lon="6.7818">
        <ele>1749.6</ele>
        <time>2000-01-02T15:21:13.000Z</time>
      </trkpt>
      <trkpt lat="46.0112" lon="6.78176">
        <ele>1750</ele>
        <time>2000-01-02T15:21:23.000Z</time>
      </trkpt>
      <trkpt lat="46.0112" lon="6.78172">
        <ele>1749.2</ele>
        <time>2000-01-02T15:21:33.000Z</time>
      </trkpt>
      <trkpt lat="46.01122" lon="6.78167">
        <ele>1749</ele>
        <time>2000-01-02T15:21:43.000Z</time>
      </trkpt>
      <trkpt lat="46.01124" lon="6.7816">
        <ele>1748.2</ele>
        <time>2000-01-02T15:21:53.000Z</time>
      </trkpt>
      <trkpt lat="46.01127" lon="6.78156">
        <ele>1747.7</ele>
        <time>2000-01-02T15:22:03.000Z</time>
      </trkpt>
      <trkpt lat="46.01131" lon="6.78152">
        <ele>1747</ele>
        <time>2000-01-02T15:22:13.000Z</time>
      </trkpt>
      <trkpt lat="46.01134" lon="6.78149">
        <ele>1747</ele>
        <time>2000-01-02T15:22:23.000Z</time>
      </trkpt>
      <trkpt lat="46.01139" lon="6.78146">
        <ele>1746.8</ele>
        <time>2000-01-02T15:22:33.000Z</time>
      </trkpt>
      <trkpt lat="46.01142" lon="6.78144">
        <ele>1746.4</ele>
        <time>2000-01-02T15:22:43.000Z</time>
      </trkpt>
      <trkpt lat="46.01143" lon="6.7814">
        <ele>1746</ele>
        <time>2000-01-02T15:22:53.000Z</time>
      </trkpt>
      <trkpt lat="46.01146" lon="6.78136">
        <ele>1744</ele>
        <time>2000-01-02T15:23:03.000Z</time>
      </trkpt>
      <trkpt lat="46.01149" lon="6.78133">
        <ele>1745.3</ele>
        <time>2000-01-02T15:23:13.000Z</time>
      </trkpt>
      <trkpt lat="46.01153" lon="6.78134">
        <ele>1745.2</ele>
        <time>2000-01-02T15:23:23.000Z</time>
      </trkpt>
      <trkpt lat="46.01158" lon="6.78131">
        <ele>1744.9</ele>
        <time>2000-01-02T15:23:33.000Z</time>
      </trkpt>
      <trkpt lat="46.01162" lon="6.78129">
        <ele>1744.8</ele>
        <time>2000-01-02T15:23:43.000Z</time>
      </trkpt>
      <trkpt lat="46.01171" lon="6.78125">
        <ele>1743</ele>
        <time>2000-01-02T15:23:53.000Z</time>
      </trkpt>
      <trkpt lat="46.01179" lon="6.7812">
        <ele>1742.7</ele>
        <time>2000-01-02T15:24:03.000Z</time>
      </trkpt>
      <trkpt lat="46.01182" lon="6.78116">
        <ele>1742.3</ele>
        <time>2000-01-02T15:24:13.000Z</time>
      </trkpt>
      <trkpt lat="46.01185" lon="6.78109">
        <ele>1742.1</ele>
        <time>2000-01-02T15:24:23.000Z</time>
      </trkpt>
      <trkpt lat="46.01187" lon="6.78103">
        <ele>1743</ele>
        <time>2000-01-02T15:24:33.000Z</time>
      </trkpt>
      <trkpt lat="46.0119" lon="6.78097">
        <ele>1742.1</ele>
        <time>2000-01-02T15:24:43.000Z</time>
      </trkpt>
      <trkpt lat="46.01195" lon="6.78093">
        <ele>1741.7</ele>
        <time>2000-01-02T15:24:53.000Z</time>
      </trkpt>
      <trkpt lat="46.01205" lon="6.78088">
        <ele>1743</ele>
        <time>2000-01-02T15:25:03.000Z</time>
      </trkpt>
      <trkpt lat="46.01208" lon="6.78084">
        <ele>1742</ele>
        <time>2000-01-02T15:25:13.000Z</time>
      </trkpt>
      <trkpt lat="46.01219" lon="6.78075">
        <ele>1742.3</ele>
        <time>2000-01-02T15:25:23.000Z</time>
      </trkpt>
      <trkpt lat="46.01232" lon="6.78058">
        <ele>1743</ele>
        <time>2000-01-02T15:25:33.000Z</time>
      </trkpt>
      <trkpt lat="46.01252" lon="6.7804">
        <ele>1745</ele>
        <time>2000-01-02T15:25:43.000Z</time>
      </trkpt>
      <trkpt lat="46.01263" lon="6.78027">
        <ele>1746.6</ele>
        <time>2000-01-02T15:25:53.000Z</time>
      </trkpt>
      <trkpt lat="46.01266" lon="6.7802">
        <ele>1746</ele>
        <time>2000-01-02T15:26:03.000Z</time>
      </trkpt>
      <trkpt lat="46.01268" lon="6.78014">
        <ele>1748.6</ele>
        <time>2000-01-02T15:26:13.000Z</time>
      </trkpt>
      <trkpt lat="46.01268" lon="6.78004">
        <ele>1750.1</ele>
        <time>2000-01-02T15:26:23.000Z</time>
      </trkpt>
      <trkpt lat="46.01269" lon="6.77999">
        <ele>1750.8</ele>
        <time>2000-01-02T15:26:33.000Z</time>
      </trkpt>
      <trkpt lat="46.01274" lon="6.77993">
        <ele>1752</ele>
        <time>2000-01-02T15:26:43.000Z</time>
      </trkpt>
      <trkpt lat="46.01277" lon="6.77988">
        <ele>1752.7</ele>
        <time>2000-01-02T15:26:53.000Z</time>
      </trkpt>
      <trkpt lat="46.0128" lon="6.7798">
        <ele>1753.9</ele>
        <time>2000-01-02T15:27:03.000Z</time>
      </trkpt>
      <trkpt lat="46.01282" lon="6.77974">
        <ele>1754.7</ele>
        <time>2000-01-02T15:27:13.000Z</time>
      </trkpt>
      <trkpt lat="46.01285" lon="6.77966">
        <ele>1757</ele>
        <time>2000-01-02T15:27:23.000Z</time>
      </trkpt>
      <trkpt lat="46.01289" lon="6.77959">
        <ele>1757.2</ele>
        <time>2000-01-02T15:27:33.000Z</time>
      </trkpt>
      <trkpt lat="46.01292" lon="6.77955">
        <ele>1757.8</ele>
        <time>2000-01-02T15:27:43.000Z</time>
      </trkpt>
      <trkpt lat="46.01296" lon="6.7795">
        <ele>1758.5</ele>
        <time>2000-01-02T15:27:53.000Z</time>
      </trkpt>
      <trkpt lat="46.01297" lon="6.77945">
        <ele>1760</ele>
        <time>2000-01-02T15:28:03.000Z</time>
      </trkpt>
      <trkpt lat="46.013" lon="6.77936">
        <ele>1760.8</ele>
        <time>2000-01-02T15:28:13.000Z</time>
      </trkpt>
      <trkpt lat="46.01303" lon="6.77929">
        <ele>1761.9</ele>
        <time>2000-01-02T15:28:23.000Z</time>
      </trkpt>
      <trkpt lat="46.01307" lon="6.77924">
        <ele>1762.6</ele>
        <time>2000-01-02T15:28:33.000Z</time>
      </trkpt>
      <trkpt lat="46.01309" lon="6.77921">
        <ele>1764</ele>
        <time>2000-01-02T15:28:43.000Z</time>
      </trkpt>
      <trkpt lat="46.01312" lon="6.77916">
        <ele>1763.7</ele>
        <time>2000-01-02T15:28:53.000Z</time>
      </trkpt>
      <trkpt lat="46.01319" lon="6.7791">
        <ele>1764.6</ele>
        <time>2000-01-02T15:29:03.000Z</time>
      </trkpt>
      <trkpt lat="46.01326" lon="6.77905">
        <ele>1766</ele>
        <time>2000-01-02T15:29:13.000Z</time>
      </trkpt>
      <trkpt lat="46.01332" lon="6.77902">
        <ele>1765.8</ele>
        <time>2000-01-02T15:29:23.000Z</time>
      </trkpt>
      <trkpt lat="46.01335" lon="6.77898">
        <ele>1766.9</ele>
        <time>2000-01-02T15:29:33.000Z</time>
      </trkpt>
      <trkpt lat="46.0134" lon="6.77896">
        <ele>1768.2</ele>
        <time>2000-01-02T15:29:43.000Z</time>
      </trkpt>
      <trkpt lat="46.01346" lon="6.77896">
        <ele>1769</ele>
        <time>2000-01-02T15:29:53.000Z</time>
      </trkpt>
      <trkpt lat="46.01353" lon="6.77897">
        <ele>1769.9</ele>
        <time>2000-01-02T15:30:03.000Z</time>
      </trkpt>
      <trkpt lat="46.01358" lon="6.77896">
        <ele>1771</ele>
        <time>2000-01-02T15:30:13.000Z</time>
      </trkpt>
      <trkpt lat="46.01362" lon="6.77894">
        <ele>1772.4</ele>
        <time>2000-01-02T15:30:23.000Z</time>
      </trkpt>
      <trkpt lat="46.01366" lon="6.77892">
        <ele>1774</ele>
        <time>2000-01-02T15:30:33.000Z</time>
      </trkpt>
      <trkpt lat="46.01372" lon="6.77891">
        <ele>1775.6</ele>
        <time>2000-01-02T15:30:43.000Z</time>
      </trkpt>
      <trkpt lat="46.01377" lon="6.7789">
        <ele>1777.1</ele>
        <time>2000-01-02T15:30:53.000Z</time>
      </trkpt>
      <trkpt lat="46.0138" lon="6.77891">
        <ele>1777.4</ele>
        <time>2000-01-02T15:31:03.000Z</time>
      </trkpt>
      <trkpt lat="46.01382" lon="6.77895">
        <ele>1776.5</ele>
        <time>2000-01-02T15:31:13.000Z</time>
      </trkpt>
      <trkpt lat="46.01386" lon="6.779">
        <ele>1778</ele>
        <time>2000-01-02T15:31:23.000Z</time>
      </trkpt>
      <trkpt lat="46.01391" lon="6.77902">
        <ele>1776.3</ele>
        <time>2000-01-02T15:31:33.000Z</time>
      </trkpt>
      <trkpt lat="46.01395" lon="6.77902">
        <ele>1777.3</ele>
        <time>2000-01-02T15:31:43.000Z</time>
      </trkpt>
      <trkpt lat="46.01401" lon="6.77901">
        <ele>1779.1</ele>
        <time>2000-01-02T15:31:53.000Z</time>
      </trkpt>
      <trkpt lat="46.01407" lon="6.77899">
        <ele>1782</ele>
        <time>2000-01-02T15:32:03.000Z</time>
      </trkpt>
      <trkpt lat="46.01413" lon="6.77899">
        <ele>1782.8</ele>
        <time>2000-01-02T15:32:13.000Z</time>
      </trkpt>
      <trkpt lat="46.01423" lon="6.77899">
        <ele>1785.5</ele>
        <time>2000-01-02T15:32:23.000Z</time>
      </trkpt>
      <trkpt lat="46.0143" lon="6.77899">
        <ele>1787</ele>
        <time>2000-01-02T15:32:33.000Z</time>
      </trkpt>
      <trkpt lat="46.01435" lon="6.77899">
        <ele>1789</ele>
        <time>2000-01-02T15:32:43.000Z</time>
      </trkpt>
      <trkpt lat="46.01443" lon="6.77901">
        <ele>1790.7</ele>
        <time>2000-01-02T15:32:53.000Z</time>
      </trkpt>
      <trkpt lat="46.01451" lon="6.77902">
        <ele>1792</ele>
        <time>2000-01-02T15:33:03.000Z</time>
      </trkpt>
      <trkpt lat="46.01464" lon="6.77903">
        <ele>1794.7</ele>
        <time>2000-01-02T15:33:13.000Z</time>
      </trkpt>
      <trkpt lat="46.0147" lon="6.77903">
        <ele>1794</ele>
        <time>2000-01-02T15:33:23.000Z</time>
      </trkpt>
      <trkpt lat="46.01472" lon="6.77902">
        <ele>1796.6</ele>
        <time>2000-01-02T15:33:33.000Z</time>
      </trkpt>
      <trkpt lat="46.01474" lon="6.77899">
        <ele>1797</ele>
        <time>2000-01-02T15:33:43.000Z</time>
      </trkpt>
      <trkpt lat="46.01479" lon="6.77892">
        <ele>1797.8</ele>
        <time>2000-01-02T15:33:53.000Z</time>
      </trkpt>
      <trkpt lat="46.01484" lon="6.77886">
        <ele>1798</ele>
        <time>2000-01-02T15:34:03.000Z</time>
      </trkpt>
      <trkpt lat="46.01487" lon="6.7788">
        <ele>1798.4</ele>
        <time>2000-01-02T15:34:13.000Z</time>
      </trkpt>
      <trkpt lat="46.0149" lon="6.77877">
        <ele>1798.5</ele>
        <time>2000-01-02T15:34:23.000Z</time>
      </trkpt>
      <trkpt lat="46.01494" lon="6.77873">
        <ele>1798.7</ele>
        <time>2000-01-02T15:34:33.000Z</time>
      </trkpt>
      <trkpt lat="46.01498" lon="6.77869">
        <ele>1799</ele>
        <time>2000-01-02T15:34:43.000Z</time>
      </trkpt>
      <trkpt lat="46.01502" lon="6.77869">
        <ele>1800</ele>
        <time>2000-01-02T15:34:53.000Z</time>
      </trkpt>
      <trkpt lat="46.01507" lon="6.77868">
        <ele>1798.9</ele>
        <time>2000-01-02T15:35:03.000Z</time>
      </trkpt>
      <trkpt lat="46.01513" lon="6.7787">
        <ele>1798.6</ele>
        <time>2000-01-02T15:35:13.000Z</time>
      </trkpt>
      <trkpt lat="46.01517" lon="6.77869">
        <ele>1798.6</ele>
        <time>2000-01-02T15:35:23.000Z</time>
      </trkpt>
      <trkpt lat="46.0152" lon="6.77866">
        <ele>1800</ele>
        <time>2000-01-02T15:35:33.000Z</time>
      </trkpt>
      <trkpt lat="46.01522" lon="6.77862">
        <ele>1799.1</ele>
        <time>2000-01-02T15:35:43.000Z</time>
      </trkpt>
      <trkpt lat="46.01523" lon="6.77856">
        <ele>1799.9</ele>
        <time>2000-01-02T15:35:53.000Z</time>
      </trkpt>
      <trkpt lat="46.01526" lon="6.7785">
        <ele>1800.4</ele>
        <time>2000-01-02T15:36:03.000Z</time>
      </trkpt>
      <trkpt lat="46.01528" lon="6.77847">
        <ele>1800.5</ele>
        <time>2000-01-02T15:36:13.000Z</time>
      </trkpt>
      <trkpt lat="46.01533" lon="6.77846">
        <ele>1800</ele>
        <time>2000-01-02T15:36:23.000Z</time>
      </trkpt>
      <trkpt lat="46.01539" lon="6.77846">
        <ele>1799.2</ele>
        <time>2000-01-02T15:36:33.000Z</time>
      </trkpt>
      <trkpt lat="46.01543" lon="6.77847">
        <ele>1798.6</ele>
        <time>2000-01-02T15:36:43.000Z</time>
      </trkpt>
      <trkpt lat="46.01554" lon="6.77847">
        <ele>1797</ele>
        <time>2000-01-02T15:36:53.000Z</time>
      </trkpt>
      <trkpt lat="46.01562" lon="6.77846">
        <ele>1796.8</ele>
        <time>2000-01-02T15:37:03.000Z</time>
      </trkpt>
      <trkpt lat="46.01574" lon="6.77846">
        <ele>1796</ele>
        <time>2000-01-02T15:37:13.000Z</time>
      </trkpt>
      <trkpt lat="46.01579" lon="6.77847">
        <ele>1795.8</ele>
        <time>2000-01-02T15:37:23.000Z</time>
      </trkpt>
      <trkpt lat="46.01586" lon="6.77849">
        <ele>1795.3</ele>
        <time>2000-01-02T15:37:33.000Z</time>
      </trkpt>
      <trkpt lat="46.01594" lon="6.77851">
        <ele>1794</ele>
        <time>2000-01-02T15:37:43.000Z</time>
      </trkpt>
      <trkpt lat="46.01599" lon="6.77852">
        <ele>1794.6</ele>
        <time>2000-01-02T15:37:53.000Z</time>
      </trkpt>
      <trkpt lat="46.01603" lon="6.77854">
        <ele>1794.2</ele>
        <time>2000-01-02T15:38:03.000Z</time>
      </trkpt>
      <trkpt lat="46.01607" lon="6.77855">
        <ele>1794</ele>
        <time>2000-01-02T15:38:13.000Z</time>
      </trkpt>
      <trkpt lat="46.01618" lon="6.77852">
        <ele>1794</ele>
        <time>2000-01-02T15:38:23.000Z</time>
      </trkpt>
      <trkpt lat="46.01624" lon="6.77849">
        <ele>1793.9</ele>
        <time>2000-01-02T15:38:33.000Z</time>
      </trkpt>
      <trkpt lat="46.0163" lon="6.77843">
        <ele>1794</ele>
        <time>2000-01-02T15:38:43.000Z</time>
      </trkpt>
      <trkpt lat="46.01636" lon="6.77838">
        <ele>1795</ele>
        <time>2000-01-02T15:38:53.000Z</time>
      </trkpt>
      <trkpt lat="46.01642" lon="6.77831">
        <ele>1793.9</ele>
        <time>2000-01-02T15:39:03.000Z</time>
      </trkpt>
      <trkpt lat="46.01644" lon="6.77826">
        <ele>1793.8</ele>
        <time>2000-01-02T15:39:13.000Z</time>
      </trkpt>
      <trkpt lat="46.01645" lon="6.77819">
        <ele>1793.8</ele>
        <time>2000-01-02T15:39:23.000Z</time>
      </trkpt>
      <trkpt lat="46.01647" lon="6.77812">
        <ele>1795</ele>
        <time>2000-01-02T15:39:33.000Z</time>
      </trkpt>
      <trkpt lat="46.0165" lon="6.77806">
        <ele>1792.4</ele>
        <time>2000-01-02T15:39:43.000Z</time>
      </trkpt>
      <trkpt lat="46.01655" lon="6.77798">
        <ele>1790.3</ele>
        <time>2000-01-02T15:39:53.000Z</time>
      </trkpt>
      <trkpt lat="46.0166" lon="6.77787">
        <ele>1786</ele>
        <time>2000-01-02T15:40:03.000Z</time>
      </trkpt>
      <trkpt lat="46.01664" lon="6.77779">
        <ele>1784.5</ele>
        <time>2000-01-02T15:40:13.000Z</time>
      </trkpt>
      <trkpt lat="46.01668" lon="6.77769">
        <ele>1781.5</ele>
        <time>2000-01-02T15:40:23.000Z</time>
      </trkpt>
      <trkpt lat="46.01671" lon="6.77758">
        <ele>1778</ele>
        <time>2000-01-02T15:40:33.000Z</time>
      </trkpt>
      <trkpt lat="46.01673" lon="6.77749">
        <ele>1776</ele>
        <time>2000-01-02T15:40:43.000Z</time>
      </trkpt>
      <trkpt lat="46.01675" lon="6.77739">
        <ele>1773.5</ele>
        <time>2000-01-02T15:40:53.000Z</time>
      </trkpt>
      <trkpt lat="46.01676" lon="6.77728">
        <ele>1775</ele>
        <time>2000-01-02T15:41:03.000Z</time>
      </trkpt>
      <trkpt lat="46.01676" lon="6.77721">
        <ele>1770.6</ele>
        <time>2000-01-02T15:41:13.000Z</time>
      </trkpt>
      <trkpt lat="46.01676" lon="6.77711">
        <ele>1770.8</ele>
        <time>2000-01-02T15:41:23.000Z</time>
      </trkpt>
      <trkpt lat="46.01677" lon="6.77698">
        <ele>1775</ele>
        <time>2000-01-02T15:41:33.000Z</time>
      </trkpt>
      <trkpt lat="46.01679" lon="6.77687">
        <ele>1770</ele>
        <time>2000-01-02T15:41:43.000Z</time>
      </trkpt>
      <trkpt lat="46.0168" lon="6.77679">
        <ele>1770.3</ele>
        <time>2000-01-02T15:41:53.000Z</time>
      </trkpt>
      <trkpt lat="46.01681" lon="6.77672">
        <ele>1770.5</ele>
        <time>2000-01-02T15:42:03.000Z</time>
      </trkpt>
      <trkpt lat="46.01683" lon="6.77666">
        <ele>1774</ele>
        <time>2000-01-02T15:42:13.000Z</time>
      </trkpt>
      <trkpt lat="46.01684" lon="6.7766">
        <ele>1770</ele>
        <time>2000-01-02T15:42:23.000Z</time>
      </trkpt>
      <trkpt lat="46.01684" lon="6.77655">
        <ele>1770.7</ele>
        <time>2000-01-02T15:42:33.000Z</time>
      </trkpt>
      <trkpt lat="46.01686" lon="6.77649">
        <ele>1770.1</ele>
        <time>2000-01-02T15:42:43.000Z</time>
      </trkpt>
      <trkpt lat="46.0169" lon="6.77639">
        <ele>1774</ele>
        <time>2000-01-02T15:42:53.000Z</time>
      </trkpt>
      <trkpt lat="46.01692" lon="6.77629">
        <ele>1767.5</ele>
        <time>2000-01-02T15:43:03.000Z</time>
      </trkpt>
      <trkpt lat="46.01693" lon="6.77619">
        <ele>1766.9</ele>
        <time>2000-01-02T15:43:13.000Z</time>
      </trkpt>
      <trkpt lat="46.01692" lon="6.7761">
        <ele>1767</ele>
        <time>2000-01-02T15:43:23.000Z</time>
      </trkpt>
      <trkpt lat="46.01689" lon="6.77596">
        <ele>1766.1</ele>
        <time>2000-01-02T15:43:33.000Z</time>
      </trkpt>
      <trkpt lat="46.01687" lon="6.77587">
        <ele>1765.3</ele>
        <time>2000-01-02T15:43:43.000Z</time>
      </trkpt>
      <trkpt lat="46.01684" lon="6.77579">
        <ele>1766</ele>
        <time>2000-01-02T15:43:53.000Z</time>
      </trkpt>
      <trkpt lat="46.0168" lon="6.77572">
        <ele>1764.7</ele>
        <time>2000-01-02T15:44:03.000Z</time>
      </trkpt>
      <trkpt lat="46.01677" lon="6.77563">
        <ele>1764</ele>
        <time>2000-01-02T15:44:13.000Z</time>
      </trkpt>
      <trkpt lat="46.01675" lon="6.77554">
        <ele>1765</ele>
        <time>2000-01-02T15:44:23.000Z</time>
      </trkpt>
      <trkpt lat="46.01672" lon="6.77545">
        <ele>1762.3</ele>
        <time>2000-01-02T15:44:33.000Z</time>
      </trkpt>
      <trkpt lat="46.01672" lon="6.77539">
        <ele>1760.8</ele>
        <time>2000-01-02T15:44:43.000Z</time>
      </trkpt>
      <trkpt lat="46.01673" lon="6.77532">
        <ele>1758.4</ele>
        <time>2000-01-02T15:44:53.000Z</time>
      </trkpt>
      <trkpt lat="46.01673" lon="6.77528">
        <ele>1761</ele>
        <time>2000-01-02T15:45:03.000Z</time>
      </trkpt>
      <trkpt lat="46.01672" lon="6.77523">
        <ele>1756.7</ele>
        <time>2000-01-02T15:45:13.000Z</time>
      </trkpt>
      <trkpt lat="46.01669" lon="6.77516">
        <ele>1756.6</ele>
        <time>2000-01-02T15:45:23.000Z</time>
      </trkpt>
      <trkpt lat="46.01669" lon="6.7751">
        <ele>1755.1</ele>
        <time>2000-01-02T15:45:33.000Z</time>
      </trkpt>
      <trkpt lat="46.01668" lon="6.77502">
        <ele>1758</ele>
        <time>2000-01-02T15:45:43.000Z</time>
      </trkpt>
      <trkpt lat="46.01665" lon="6.77491">
        <ele>1753.4</ele>
        <time>2000-01-02T15:45:53.000Z</time>
      </trkpt>
      <trkpt lat="46.01663" lon="6.77484">
        <ele>1753.3</ele>
        <time>2000-01-02T15:46:03.000Z</time>
      </trkpt>
      <trkpt lat="46.0166" lon="6.7748">
        <ele>1754.5</ele>
        <time>2000-01-02T15:46:13.000Z</time>
      </trkpt>
      <trkpt lat="46.01658" lon="6.77477">
        <ele>1757</ele>
        <time>2000-01-02T15:46:23.000Z</time>
      </trkpt>
      <trkpt lat="46.01657" lon="6.77473">
        <ele>1754.8</ele>
        <time>2000-01-02T15:46:33.000Z</time>
      </trkpt>
      <trkpt lat="46.01657" lon="6.7746">
        <ele>1751.8</ele>
        <time>2000-01-02T15:46:43.000Z</time>
      </trkpt>
      <trkpt lat="46.01657" lon="6.77449">
        <ele>1751</ele>
        <time>2000-01-02T15:46:53.000Z</time>
      </trkpt>
      <trkpt lat="46.01658" lon="6.77439">
        <ele>1746.6</ele>
        <time>2000-01-02T15:47:03.000Z</time>
      </trkpt>
      <trkpt lat="46.01657" lon="6.77432">
        <ele>1745.8</ele>
        <time>2000-01-02T15:47:13.000Z</time>
      </trkpt>
      <trkpt lat="46.01655" lon="6.77425">
        <ele>1745.6</ele>
        <time>2000-01-02T15:47:23.000Z</time>
      </trkpt>
      <trkpt lat="46.01651" lon="6.77418">
        <ele>1747</ele>
        <time>2000-01-02T15:47:33.000Z</time>
      </trkpt>
      <trkpt lat="46.01647" lon="6.77409">
        <ele>1745.2</ele>
        <time>2000-01-02T15:47:43.000Z</time>
      </trkpt>
      <trkpt lat="46.01644" lon="6.77401">
        <ele>1743.9</ele>
        <time>2000-01-02T15:47:53.000Z</time>
      </trkpt>
      <trkpt lat="46.01642" lon="6.77395">
        <ele>1742.7</ele>
        <time>2000-01-02T15:48:03.000Z</time>
      </trkpt>
      <trkpt lat="46.01639" lon="6.77389">
        <ele>1744</ele>
        <time>2000-01-02T15:48:13.000Z</time>
      </trkpt>
      <trkpt lat="46.01637" lon="6.77384">
        <ele>1742.2</ele>
        <time>2000-01-02T15:48:23.000Z</time>
      </trkpt>
      <trkpt lat="46.01637" lon="6.7738">
        <ele>1741.4</ele>
        <time>2000-01-02T15:48:33.000Z</time>
      </trkpt>
      <trkpt lat="46.01639" lon="6.77373">
        <ele>1739.1</ele>
        <time>2000-01-02T15:48:43.000Z</time>
      </trkpt>
      <trkpt lat="46.01639" lon="6.77366">
        <ele>1737.8</ele>
        <time>2000-01-02T15:48:53.000Z</time>
      </trkpt>
      <trkpt lat="46.01637" lon="6.7736">
        <ele>1740</ele>
        <time>2000-01-02T15:49:03.000Z</time>
      </trkpt>
      <trkpt lat="46.01635" lon="6.77349">
        <ele>1736.2</ele>
        <time>2000-01-02T15:49:13.000Z</time>
      </trkpt>
      <trkpt lat="46.01631" lon="6.77337">
        <ele>1735</ele>
        <time>2000-01-02T15:49:23.000Z</time>
      </trkpt>
      <trkpt lat="46.01629" lon="6.7733">
        <ele>1734</ele>
        <time>2000-01-02T15:49:33.000Z</time>
      </trkpt>
      <trkpt lat="46.01629" lon="6.7732">
        <ele>1731.7</ele>
        <time>2000-01-02T15:49:43.000Z</time>
      </trkpt>
      <trkpt lat="46.01629" lon="6.77311">
        <ele>1729.5</ele>
        <time>2000-01-02T15:49:53.000Z</time>
      </trkpt>
      <trkpt lat="46.01627" lon="6.77305">
        <ele>1728.7</ele>
        <time>2000-01-02T15:50:03.000Z</time>
      </trkpt>
      <trkpt lat="46.01624" lon="6.77302">
        <ele>1729</ele>
        <time>2000-01-02T15:50:13.000Z</time>
      </trkpt>
      <trkpt lat="46.01618" lon="6.77298">
        <ele>1730.3</ele>
        <time>2000-01-02T15:50:23.000Z</time>
      </trkpt>
      <trkpt lat="46.01618" lon="6.77298">
        <ele>1730.3</ele>
        <time>2000-01-02T15:50:33.000Z</time>
      </trkpt>
      <trkpt lat="46.01618" lon="6.77298">
        <ele>1730.3</ele>
        <time>2000-01-02T15:50:43.000Z</time>
      </trkpt>
      <trkpt lat="46.01616" lon="6.77296">
        <ele>1730.6</ele>
        <time>2000-01-02T15:50:53.000Z</time>
      </trkpt>
      <trkpt lat="46.01614" lon="6.77291">
        <ele>1730.4</ele>
        <time>2000-01-02T15:51:03.000Z</time>
      </trkpt>
      <trkpt lat="46.01617" lon="6.77285">
        <ele>1728.2</ele>
        <time>2000-01-02T15:51:13.000Z</time>
      </trkpt>
      <trkpt lat="46.01619" lon="6.77278">
        <ele>1728</ele>
        <time>2000-01-02T15:51:23.000Z</time>
      </trkpt>
      <trkpt lat="46.01619" lon="6.7727">
        <ele>1724.6</ele>
        <time>2000-01-02T15:51:33.000Z</time>
      </trkpt>
      <trkpt lat="46.01619" lon="6.77266">
        <ele>1723.9</ele>
        <time>2000-01-02T15:51:43.000Z</time>
      </trkpt>
      <trkpt lat="46.01623" lon="6.77266">
        <ele>1722.5</ele>
        <time>2000-01-02T15:51:53.000Z</time>
      </trkpt>
      <trkpt lat="46.01627" lon="6.77262">
        <ele>1720.5</ele>
        <time>2000-01-02T15:52:03.000Z</time>
      </trkpt>
      <trkpt lat="46.01631" lon="6.77256">
        <ele>1717</ele>
        <time>2000-01-02T15:52:13.000Z</time>
      </trkpt>
      <trkpt lat="46.01632" lon="6.7725">
        <ele>1717</ele>
        <time>2000-01-02T15:52:23.000Z</time>
      </trkpt>
      <trkpt lat="46.01633" lon="6.77246">
        <ele>1715.6</ele>
        <time>2000-01-02T15:52:33.000Z</time>
      </trkpt>
      <trkpt lat="46.01628" lon="6.77237">
        <ele>1714.5</ele>
        <time>2000-01-02T15:52:43.000Z</time>
      </trkpt>
      <trkpt lat="46.01628" lon="6.7723">
        <ele>1715</ele>
        <time>2000-01-02T15:52:53.000Z</time>
      </trkpt>
      <trkpt lat="46.01629" lon="6.77226">
        <ele>1711.2</ele>
        <time>2000-01-02T15:53:03.000Z</time>
      </trkpt>
      <trkpt lat="46.01629" lon="6.77219">
        <ele>1709.4</ele>
        <time>2000-01-02T15:53:13.000Z</time>
      </trkpt>
      <trkpt lat="46.01631" lon="6.7721">
        <ele>1706.9</ele>
        <time>2000-01-02T15:53:23.000Z</time>
      </trkpt>
      <trkpt lat="46.0163" lon="6.772">
        <ele>1702</ele>
        <time>2000-01-02T15:53:33.000Z</time>
      </trkpt>
      <trkpt lat="46.01628" lon="6.77191">
        <ele>1703.1</ele>
        <time>2000-01-02T15:53:43.000Z</time>
      </trkpt>
      <trkpt lat="46.01624" lon="6.77181">
        <ele>1701.3</ele>
        <time>2000-01-02T15:53:53.000Z</time>
      </trkpt>
      <trkpt lat="46.01622" lon="6.77174">
        <ele>1699</ele>
        <time>2000-01-02T15:54:03.000Z</time>
      </trkpt>
      <trkpt lat="46.0162" lon="6.77166">
        <ele>1698.2</ele>
        <time>2000-01-02T15:54:13.000Z</time>
      </trkpt>
      <trkpt lat="46.01617" lon="6.77156">
        <ele>1695.9</ele>
        <time>2000-01-02T15:54:23.000Z</time>
      </trkpt>
      <trkpt lat="46.01612" lon="6.77147">
        <ele>1693</ele>
        <time>2000-01-02T15:54:33.000Z</time>
      </trkpt>
      <trkpt lat="46.01606" lon="6.77143">
        <ele>1693.7</ele>
        <time>2000-01-02T15:54:43.000Z</time>
      </trkpt>
      <trkpt lat="46.01601" lon="6.7714">
        <ele>1693.4</ele>
        <time>2000-01-02T15:54:53.000Z</time>
      </trkpt>
      <trkpt lat="46.01598" lon="6.77135">
        <ele>1692.2</ele>
        <time>2000-01-02T15:55:03.000Z</time>
      </trkpt>
      <trkpt lat="46.01594" lon="6.77131">
        <ele>1690</ele>
        <time>2000-01-02T15:55:13.000Z</time>
      </trkpt>
      <trkpt lat="46.01588" lon="6.77129">
        <ele>1691.4</ele>
        <time>2000-01-02T15:55:23.000Z</time>
      </trkpt>
      <trkpt lat="46.01585" lon="6.77124">
        <ele>1690</ele>
        <time>2000-01-02T15:55:33.000Z</time>
      </trkpt>
      <trkpt lat="46.01582" lon="6.77116">
        <ele>1687.8</ele>
        <time>2000-01-02T15:55:43.000Z</time>
      </trkpt>
      <trkpt lat="46.01578" lon="6.77114">
        <ele>1688</ele>
        <time>2000-01-02T15:55:53.000Z</time>
      </trkpt>
      <trkpt lat="46.01574" lon="6.77114">
        <ele>1688.6</ele>
        <time>2000-01-02T15:56:03.000Z</time>
      </trkpt>
      <trkpt lat="46.0157" lon="6.77118">
        <ele>1690.5</ele>
        <time>2000-01-02T15:56:13.000Z</time>
      </trkpt>
      <trkpt lat="46.01568" lon="6.77117">
        <ele>1690.6</ele>
        <time>2000-01-02T15:56:23.000Z</time>
      </trkpt>
      <trkpt lat="46.01567" lon="6.77111">
        <ele>1688.9</ele>
        <time>2000-01-02T15:56:33.000Z</time>
      </trkpt>
      <trkpt lat="46.01566" lon="6.77106">
        <ele>1686</ele>
        <time>2000-01-02T15:56:43.000Z</time>
      </trkpt>
      <trkpt lat="46.01561" lon="6.771">
        <ele>1686.8</ele>
        <time>2000-01-02T15:56:53.000Z</time>
      </trkpt>
      <trkpt lat="46.01558" lon="6.77095">
        <ele>1685.9</ele>
        <time>2000-01-02T15:57:03.000Z</time>
      </trkpt>
      <trkpt lat="46.01555" lon="6.77091">
        <ele>1685.3</ele>
        <time>2000-01-02T15:57:13.000Z</time>
      </trkpt>
      <trkpt lat="46.01549" lon="6.77085">
        <ele>1687</ele>
        <time>2000-01-02T15:57:23.000Z</time>
      </trkpt>
      <trkpt lat="46.01544" lon="6.7708">
        <ele>1684.8</ele>
        <time>2000-01-02T15:57:33.000Z</time>
      </trkpt>
      <trkpt lat="46.01541" lon="6.7708">
        <ele>1685.6</ele>
        <time>2000-01-02T15:57:43.000Z</time>
      </trkpt>
      <trkpt lat="46.01538" lon="6.77081">
        <ele>1686.7</ele>
        <time>2000-01-02T15:57:53.000Z</time>
      </trkpt>
      <trkpt lat="46.01535" lon="6.77081">
        <ele>1687.4</ele>
        <time>2000-01-02T15:58:03.000Z</time>
      </trkpt>
      <trkpt lat="46.01532" lon="6.77079">
        <ele>1687.5</ele>
        <time>2000-01-02T15:58:13.000Z</time>
      </trkpt>
      <trkpt lat="46.0153" lon="6.77074">
        <ele>1682</ele>
        <time>2000-01-02T15:58:23.000Z</time>
      </trkpt>
      <trkpt lat="46.01527" lon="6.77066">
        <ele>1684.7</ele>
        <time>2000-01-02T15:58:33.000Z</time>
      </trkpt>
      <trkpt lat="46.01523" lon="6.77052">
        <ele>1681.6</ele>
        <time>2000-01-02T15:58:43.000Z</time>
      </trkpt>
      <trkpt lat="46.01522" lon="6.77046">
        <ele>1678</ele>
        <time>2000-01-02T15:58:53.000Z</time>
      </trkpt>
      <trkpt lat="46.01527" lon="6.77034">
        <ele>1674.3</ele>
        <time>2000-01-02T15:59:03.000Z</time>
      </trkpt>
      <trkpt lat="46.01529" lon="6.77027">
        <ele>1671.5</ele>
        <time>2000-01-02T15:59:13.000Z</time>
      </trkpt>
      <trkpt lat="46.01528" lon="6.77021">
        <ele>1673</ele>
        <time>2000-01-02T15:59:23.000Z</time>
      </trkpt>
      <trkpt lat="46.01526" lon="6.77017">
        <ele>1669.9</ele>
        <time>2000-01-02T15:59:33.000Z</time>
      </trkpt>
      <trkpt lat="46.01524" lon="6.77013">
        <ele>1669.6</ele>
        <time>2000-01-02T15:59:43.000Z</time>
      </trkpt>
      <trkpt lat="46.01524" lon="6.77008">
        <ele>1668.3</ele>
        <time>2000-01-02T15:59:53.000Z</time>
      </trkpt>
      <trkpt lat="46.01526" lon="6.77006">
        <ele>1667.1</ele>
        <time>2000-01-02T16:00:03.000Z</time>
      </trkpt>
      <trkpt lat="46.01526" lon="6.77">
        <ele>1665.6</ele>
        <time>2000-01-02T16:00:13.000Z</time>
      </trkpt>
      <trkpt lat="46.01524" lon="6.76994">
        <ele>1665</ele>
        <time>2000-01-02T16:00:23.000Z</time>
      </trkpt>
      <trkpt lat="46.01519" lon="6.76988">
        <ele>1664.3</ele>
        <time>2000-01-02T16:00:33.000Z</time>
      </trkpt>
      <trkpt lat="46.01516" lon="6.76977">
        <ele>1661.8</ele>
        <time>2000-01-02T16:00:43.000Z</time>
      </trkpt>
      <trkpt lat="46.01514" lon="6.76968">
        <ele>1659</ele>
        <time>2000-01-02T16:00:53.000Z</time>
      </trkpt>
      <trkpt lat="46.01514" lon="6.76958">
        <ele>1656.9</ele>
        <time>2000-01-02T16:01:03.000Z</time>
      </trkpt>
      <trkpt lat="46.01513" lon="6.76951">
        <ele>1655.1</ele>
        <time>2000-01-02T16:01:13.000Z</time>
      </trkpt>
      <trkpt lat="46.0151" lon="6.76946">
        <ele>1654.6</ele>
        <time>2000-01-02T16:01:23.000Z</time>
      </trkpt>
      <trkpt lat="46.0151" lon="6.76941">
        <ele>1655</ele>
        <time>2000-01-02T16:01:33.000Z</time>
      </trkpt>
      <trkpt lat="46.0151" lon="6.76935">
        <ele>1651.5</ele>
        <time>2000-01-02T16:01:43.000Z</time>
      </trkpt>
      <trkpt lat="46.0151" lon="6.76935">
        <ele>1651.5</ele>
        <time>2000-01-02T16:01:53.000Z</time>
      </trkpt>
      <trkpt lat="46.0151" lon="6.76935">
        <ele>1651.5</ele>
        <time>2000-01-02T16:02:03.000Z</time>
      </trkpt>
      <trkpt lat="46.01506" lon="6.76927">
        <ele>1650.4</ele>
        <time>2000-01-02T16:02:13.000Z</time>
      </trkpt>
      <trkpt lat="46.01502" lon="6.76915">
        <ele>1647</ele>
        <time>2000-01-02T16:02:23.000Z</time>
      </trkpt>
      <trkpt lat="46.01499" lon="6.769">
        <ele>1645.1</ele>
        <time>2000-01-02T16:02:33.000Z</time>
      </trkpt>
      <trkpt lat="46.01494" lon="6.76882">
        <ele>1642</ele>
        <time>2000-01-02T16:02:43.000Z</time>
      </trkpt>
      <trkpt lat="46.0149" lon="6.76864">
        <ele>1637.7</ele>
        <time>2000-01-02T16:02:53.000Z</time>
      </trkpt>
      <trkpt lat="46.01487" lon="6.76854">
        <ele>1636</ele>
        <time>2000-01-02T16:03:03.000Z</time>
      </trkpt>
      <trkpt lat="46.01484" lon="6.76844">
        <ele>1633.7</ele>
        <time>2000-01-02T16:03:13.000Z</time>
      </trkpt>
      <trkpt lat="46.0148" lon="6.76835">
        <ele>1632.2</ele>
        <time>2000-01-02T16:03:23.000Z</time>
      </trkpt>
      <trkpt lat="46.01479" lon="6.76828">
        <ele>1630</ele>
        <time>2000-01-02T16:03:33.000Z</time>
      </trkpt>
      <trkpt lat="46.01477" lon="6.76824">
        <ele>1630.1</ele>
        <time>2000-01-02T16:03:43.000Z</time>
      </trkpt>
      <trkpt lat="46.01478" lon="6.76819">
        <ele>1628.4</ele>
        <time>2000-01-02T16:03:53.000Z</time>
      </trkpt>
      <trkpt lat="46.0148" lon="6.76813">
        <ele>1626.3</ele>
        <time>2000-01-02T16:04:03.000Z</time>
      </trkpt>
      <trkpt lat="46.01484" lon="6.76809">
        <ele>1624.3</ele>
        <time>2000-01-02T16:04:13.000Z</time>
      </trkpt>
      <trkpt lat="46.01486" lon="6.76805">
        <ele>1622</ele>
        <time>2000-01-02T16:04:23.000Z</time>
      </trkpt>
      <trkpt lat="46.01488" lon="6.76802">
        <ele>1621.8</ele>
        <time>2000-01-02T16:04:33.000Z</time>
      </trkpt>
      <trkpt lat="46.01493" lon="6.76803">
        <ele>1620.9</ele>
        <time>2000-01-02T16:04:43.000Z</time>
      </trkpt>
      <trkpt lat="46.01496" lon="6.76802">
        <ele>1620.1</ele>
        <time>2000-01-02T16:04:53.000Z</time>
      </trkpt>
      <trkpt lat="46.01501" lon="6.76798">
        <ele>1618.1</ele>
        <time>2000-01-02T16:05:03.000Z</time>
      </trkpt>
      <trkpt lat="46.01504" lon="6.76797">
        <ele>1616</ele>
        <time>2000-01-02T16:05:13.000Z</time>
      </trkpt>
      <trkpt lat="46.01504" lon="6.76792">
        <ele>1615.9</ele>
        <time>2000-01-02T16:05:23.000Z</time>
      </trkpt>
      <trkpt lat="46.01502" lon="6.76786">
        <ele>1615.2</ele>
        <time>2000-01-02T16:05:33.000Z</time>
      </trkpt>
      <trkpt lat="46.015" lon="6.76779">
        <ele>1614.3</ele>
        <time>2000-01-02T16:05:43.000Z</time>
      </trkpt>
      <trkpt lat="46.01496" lon="6.76767">
        <ele>1612</ele>
        <time>2000-01-02T16:05:53.000Z</time>
      </trkpt>
      <trkpt lat="46.01496" lon="6.7676">
        <ele>1610.8</ele>
        <time>2000-01-02T16:06:03.000Z</time>
      </trkpt>
      <trkpt lat="46.01494" lon="6.76754">
        <ele>1609.8</ele>
        <time>2000-01-02T16:06:13.000Z</time>
      </trkpt>
      <trkpt lat="46.01491" lon="6.76749">
        <ele>1609</ele>
        <time>2000-01-02T16:06:23.000Z</time>
      </trkpt>
      <trkpt lat="46.01484" lon="6.76744">
        <ele>1608</ele>
        <time>2000-01-02T16:06:33.000Z</time>
      </trkpt>
      <trkpt lat="46.0148" lon="6.76738">
        <ele>1607.7</ele>
        <time>2000-01-02T16:06:43.000Z</time>
      </trkpt>
      <trkpt lat="46.01477" lon="6.76728">
        <ele>1605.6</ele>
        <time>2000-01-02T16:06:53.000Z</time>
      </trkpt>
      <trkpt lat="46.01475" lon="6.76718">
        <ele>1601</ele>
        <time>2000-01-02T16:07:03.000Z</time>
      </trkpt>
      <trkpt lat="46.01472" lon="6.7671">
        <ele>1601.9</ele>
        <time>2000-01-02T16:07:13.000Z</time>
      </trkpt>
      <trkpt lat="46.01467" lon="6.76705">
        <ele>1600.9</ele>
        <time>2000-01-02T16:07:23.000Z</time>
      </trkpt>
      <trkpt lat="46.01464" lon="6.76699">
        <ele>1599.3</ele>
        <time>2000-01-02T16:07:33.000Z</time>
      </trkpt>
      <trkpt lat="46.01463" lon="6.76694">
        <ele>1597</ele>
        <time>2000-01-02T16:07:43.000Z</time>
      </trkpt>
      <trkpt lat="46.01465" lon="6.76693">
        <ele>1597.6</ele>
        <time>2000-01-02T16:07:53.000Z</time>
      </trkpt>
      <trkpt lat="46.01468" lon="6.76694">
        <ele>1597.9</ele>
        <time>2000-01-02T16:08:03.000Z</time>
      </trkpt>
      <trkpt lat="46.01471" lon="6.76688">
        <ele>1596.1</ele>
        <time>2000-01-02T16:08:13.000Z</time>
      </trkpt>
      <trkpt lat="46.01473" lon="6.76682">
        <ele>1594.3</ele>
        <time>2000-01-02T16:08:23.000Z</time>
      </trkpt>
      <trkpt lat="46.01473" lon="6.76678">
        <ele>1593.2</ele>
        <time>2000-01-02T16:08:33.000Z</time>
      </trkpt>
      <trkpt lat="46.01471" lon="6.76676">
        <ele>1590</ele>
        <time>2000-01-02T16:08:43.000Z</time>
      </trkpt>
      <trkpt lat="46.01469" lon="6.76671">
        <ele>1591.1</ele>
        <time>2000-01-02T16:08:53.000Z</time>
      </trkpt>
      <trkpt lat="46.0147" lon="6.76667">
        <ele>1589.9</ele>
        <time>2000-01-02T16:09:03.000Z</time>
      </trkpt>
      <trkpt lat="46.01471" lon="6.76664">
        <ele>1589</ele>
        <time>2000-01-02T16:09:13.000Z</time>
      </trkpt>
      <trkpt lat="46.0147" lon="6.76662">
        <ele>1588.2</ele>
        <time>2000-01-02T16:09:23.000Z</time>
      </trkpt>
      <trkpt lat="46.01465" lon="6.7666">
        <ele>1587.1</ele>
        <time>2000-01-02T16:09:33.000Z</time>
      </trkpt>
      <trkpt lat="46.01464" lon="6.76657">
        <ele>1585.9</ele>
        <time>2000-01-02T16:09:43.000Z</time>
      </trkpt>
      <trkpt lat="46.01466" lon="6.76656">
        <ele>1582</ele>
        <time>2000-01-02T16:09:53.000Z</time>
      </trkpt>
      <trkpt lat="46.01468" lon="6.76653">
        <ele>1584.8</ele>
        <time>2000-01-02T16:10:03.000Z</time>
      </trkpt>
      <trkpt lat="46.01467" lon="6.7665">
        <ele>1583.6</ele>
        <time>2000-01-02T16:10:13.000Z</time>
      </trkpt>
      <trkpt lat="46.01468" lon="6.76645">
        <ele>1581.9</ele>
        <time>2000-01-02T16:10:23.000Z</time>
      </trkpt>
      <trkpt lat="46.01468" lon="6.76642">
        <ele>1580.8</ele>
        <time>2000-01-02T16:10:33.000Z</time>
      </trkpt>
      <trkpt lat="46.01466" lon="6.76641">
        <ele>1580.3</ele>
        <time>2000-01-02T16:10:43.000Z</time>
      </trkpt>
      <trkpt lat="46.01458" lon="6.76642">
        <ele>1578</ele>
        <time>2000-01-02T16:10:53.000Z</time>
      </trkpt>
      <trkpt lat="46.01447" lon="6.76642">
        <ele>1579.3</ele>
        <time>2000-01-02T16:11:03.000Z</time>
      </trkpt>
      <trkpt lat="46.01438" lon="6.76642">
        <ele>1576</ele>
        <time>2000-01-02T16:11:13.000Z</time>
      </trkpt>
      <trkpt lat="46.01431" lon="6.7664">
        <ele>1577</ele>
        <time>2000-01-02T16:11:23.000Z</time>
      </trkpt>
      <trkpt lat="46.01424" lon="6.76636">
        <ele>1574.8</ele>
        <time>2000-01-02T16:11:33.000Z</time>
      </trkpt>
      <trkpt lat="46.01418" lon="6.76631">
        <ele>1571</ele>
        <time>2000-01-02T16:11:43.000Z</time>
      </trkpt>
      <trkpt lat="46.01415" lon="6.76629">
        <ele>1571.4</ele>
        <time>2000-01-02T16:11:53.000Z</time>
      </trkpt>
      <trkpt lat="46.01408" lon="6.76628">
        <ele>1571</ele>
        <time>2000-01-02T16:12:03.000Z</time>
      </trkpt>
      <trkpt lat="46.01405" lon="6.76627">
        <ele>1570.6</ele>
        <time>2000-01-02T16:12:13.000Z</time>
      </trkpt>
      <trkpt lat="46.01396" lon="6.76617">
        <ele>1562</ele>
        <time>2000-01-02T16:12:23.000Z</time>
      </trkpt>
      <trkpt lat="46.01391" lon="6.76609">
        <ele>1562.5</ele>
        <time>2000-01-02T16:12:33.000Z</time>
      </trkpt>
      <trkpt lat="46.01389" lon="6.76605">
        <ele>1561.2</ele>
        <time>2000-01-02T16:12:43.000Z</time>
      </trkpt>
      <trkpt lat="46.01387" lon="6.76603">
        <ele>1561.1</ele>
        <time>2000-01-02T16:12:53.000Z</time>
      </trkpt>
      <trkpt lat="46.01384" lon="6.76604">
        <ele>1562.1</ele>
        <time>2000-01-02T16:13:03.000Z</time>
      </trkpt>
      <trkpt lat="46.01381" lon="6.76604">
        <ele>1561</ele>
        <time>2000-01-02T16:13:13.000Z</time>
      </trkpt>
      <trkpt lat="46.0138" lon="6.76602">
        <ele>1562.4</ele>
        <time>2000-01-02T16:13:23.000Z</time>
      </trkpt>
      <trkpt lat="46.0138" lon="6.76596">
        <ele>1560.7</ele>
        <time>2000-01-02T16:13:33.000Z</time>
      </trkpt>
      <trkpt lat="46.01378" lon="6.76592">
        <ele>1560.1</ele>
        <time>2000-01-02T16:13:43.000Z</time>
      </trkpt>
      <trkpt lat="46.01373" lon="6.76586">
        <ele>1559.7</ele>
        <time>2000-01-02T16:13:53.000Z</time>
      </trkpt>
      <trkpt lat="46.01372" lon="6.76582">
        <ele>1558</ele>
        <time>2000-01-02T16:14:03.000Z</time>
      </trkpt>
      <trkpt lat="46.01368" lon="6.76569">
        <ele>1555.6</ele>
        <time>2000-01-02T16:14:13.000Z</time>
      </trkpt>
      <trkpt lat="46.01363" lon="6.76561">
        <ele>1554.3</ele>
        <time>2000-01-02T16:14:23.000Z</time>
      </trkpt>
      <trkpt lat="46.01362" lon="6.76558">
        <ele>1551</ele>
        <time>2000-01-02T16:14:33.000Z</time>
      </trkpt>
      <trkpt lat="46.01365" lon="6.76555">
        <ele>1551.9</ele>
        <time>2000-01-02T16:14:43.000Z</time>
      </trkpt>
      <trkpt lat="46.01368" lon="6.76554">
        <ele>1550.8</ele>
        <time>2000-01-02T16:14:53.000Z</time>
      </trkpt>
      <trkpt lat="46.01374" lon="6.76555">
        <ele>1549.6</ele>
        <time>2000-01-02T16:15:03.000Z</time>
      </trkpt>
      <trkpt lat="46.01379" lon="6.76556">
        <ele>1548.6</ele>
        <time>2000-01-02T16:15:13.000Z</time>
      </trkpt>
      <trkpt lat="46.01383" lon="6.76555">
        <ele>1546</ele>
        <time>2000-01-02T16:15:23.000Z</time>
      </trkpt>
      <trkpt lat="46.01387" lon="6.76552">
        <ele>1545.5</ele>
        <time>2000-01-02T16:15:33.000Z</time>
      </trkpt>
      <trkpt lat="46.01387" lon="6.7655">
        <ele>1544.9</ele>
        <time>2000-01-02T16:15:43.000Z</time>
      </trkpt>
      <trkpt lat="46.01385" lon="6.76548">
        <ele>1544.8</ele>
        <time>2000-01-02T16:15:53.000Z</time>
      </trkpt>
      <trkpt lat="46.01383" lon="6.76546">
        <ele>1544.7</ele>
        <time>2000-01-02T16:16:03.000Z</time>
      </trkpt>
      <trkpt lat="46.01379" lon="6.76541">
        <ele>1544.3</ele>
        <time>2000-01-02T16:16:13.000Z</time>
      </trkpt>
      <trkpt lat="46.01379" lon="6.76538">
        <ele>1543.4</ele>
        <time>2000-01-02T16:16:23.000Z</time>
      </trkpt>
      <trkpt lat="46.01381" lon="6.76536">
        <ele>1540</ele>
        <time>2000-01-02T16:16:33.000Z</time>
      </trkpt>
      <trkpt lat="46.01386" lon="6.76536">
        <ele>1541.1</ele>
        <time>2000-01-02T16:16:43.000Z</time>
      </trkpt>
      <trkpt lat="46.01391" lon="6.76537">
        <ele>1540.2</ele>
        <time>2000-01-02T16:16:53.000Z</time>
      </trkpt>
      <trkpt lat="46.01399" lon="6.76537">
        <ele>1538.5</ele>
        <time>2000-01-02T16:17:03.000Z</time>
      </trkpt>
      <trkpt lat="46.01402" lon="6.76537">
        <ele>1535</ele>
        <time>2000-01-02T16:17:13.000Z</time>
      </trkpt>
      <trkpt lat="46.01404" lon="6.76542">
        <ele>1539.1</ele>
        <time>2000-01-02T16:17:23.000Z</time>
      </trkpt>
      <trkpt lat="46.01407" lon="6.76543">
        <ele>1538.9</ele>
        <time>2000-01-02T16:17:33.000Z</time>
      </trkpt>
      <trkpt lat="46.01411" lon="6.7654">
        <ele>1537</ele>
        <time>2000-01-02T16:17:43.000Z</time>
      </trkpt>
      <trkpt lat="46.01417" lon="6.76534">
        <ele>1533.5</ele>
        <time>2000-01-02T16:17:53.000Z</time>
      </trkpt>
      <trkpt lat="46.01421" lon="6.76531">
        <ele>1530</ele>
        <time>2000-01-02T16:18:03.000Z</time>
      </trkpt>
      <trkpt lat="46.01424" lon="6.76532">
        <ele>1533.2</ele>
        <time>2000-01-02T16:18:13.000Z</time>
      </trkpt>
      <trkpt lat="46.01429" lon="6.76527">
        <ele>1531.6</ele>
        <time>2000-01-02T16:18:23.000Z</time>
      </trkpt>
      <trkpt lat="46.01432" lon="6.76525">
        <ele>1531</ele>
        <time>2000-01-02T16:18:33.000Z</time>
      </trkpt>
      <trkpt lat="46.01433" lon="6.76521">
        <ele>1529.5</ele>
        <time>2000-01-02T16:18:43.000Z</time>
      </trkpt>
      <trkpt lat="46.01434" lon="6.76518">
        <ele>1528.4</ele>
        <time>2000-01-02T16:18:53.000Z</time>
      </trkpt>
      <trkpt lat="46.01436" lon="6.76516">
        <ele>1524</ele>
        <time>2000-01-02T16:19:03.000Z</time>
      </trkpt>
      <trkpt lat="46.01437" lon="6.76514">
        <ele>1526.9</ele>
        <time>2000-01-02T16:19:13.000Z</time>
      </trkpt>
      <trkpt lat="46.01439" lon="6.76503">
        <ele>1522.4</ele>
        <time>2000-01-02T16:19:23.000Z</time>
      </trkpt>
      <trkpt lat="46.0144" lon="6.76498">
        <ele>1520.3</ele>
        <time>2000-01-02T16:19:33.000Z</time>
      </trkpt>
      <trkpt lat="46.01439" lon="6.76492">
        <ele>1517.7</ele>
        <time>2000-01-02T16:19:43.000Z</time>
      </trkpt>
      <trkpt lat="46.01437" lon="6.76489">
        <ele>1514</ele>
        <time>2000-01-02T16:19:53.000Z</time>
      </trkpt>
      <trkpt lat="46.01433" lon="6.76488">
        <ele>1516.5</ele>
        <time>2000-01-02T16:20:03.000Z</time>
      </trkpt>
      <trkpt lat="46.0143" lon="6.76489">
        <ele>1517.2</ele>
        <time>2000-01-02T16:20:13.000Z</time>
      </trkpt>
      <trkpt lat="46.01429" lon="6.76487">
        <ele>1516.5</ele>
        <time>2000-01-02T16:20:23.000Z</time>
      </trkpt>
      <trkpt lat="46.01426" lon="6.76484">
        <ele>1515.7</ele>
        <time>2000-01-02T16:20:33.000Z</time>
      </trkpt>
      <trkpt lat="46.01424" lon="6.76484">
        <ele>1515.9</ele>
        <time>2000-01-02T16:20:43.000Z</time>
      </trkpt>
      <trkpt lat="46.01423" lon="6.76482">
        <ele>1515.3</ele>
        <time>2000-01-02T16:20:53.000Z</time>
      </trkpt>
      <trkpt lat="46.01424" lon="6.7648">
        <ele>1514.5</ele>
        <time>2000-01-02T16:21:03.000Z</time>
      </trkpt>
      <trkpt lat="46.01424" lon="6.76476">
        <ele>1511</ele>
        <time>2000-01-02T16:21:13.000Z</time>
      </trkpt>
      <trkpt lat="46.01423" lon="6.76474">
        <ele>1512.5</ele>
        <time>2000-01-02T16:21:23.000Z</time>
      </trkpt>
      <trkpt lat="46.01421" lon="6.76475">
        <ele>1513.2</ele>
        <time>2000-01-02T16:21:33.000Z</time>
      </trkpt>
      <trkpt lat="46.01419" lon="6.76473">
        <ele>1512.8</ele>
        <time>2000-01-02T16:21:43.000Z</time>
      </trkpt>
      <trkpt lat="46.01418" lon="6.76469">
        <ele>1511.6</ele>
        <time>2000-01-02T16:21:53.000Z</time>
      </trkpt>
      <trkpt lat="46.01419" lon="6.76463">
        <ele>1509.1</ele>
        <time>2000-01-02T16:22:03.000Z</time>
      </trkpt>
      <trkpt lat="46.01418" lon="6.76458">
        <ele>1507.5</ele>
        <time>2000-01-02T16:22:13.000Z</time>
      </trkpt>
      <trkpt lat="46.01415" lon="6.76455">
        <ele>1505</ele>
        <time>2000-01-02T16:22:23.000Z</time>
      </trkpt>
      <trkpt lat="46.01412" lon="6.76454">
        <ele>1507.3</ele>
        <time>2000-01-02T16:22:33.000Z</time>
      </trkpt>
      <trkpt lat="46.01409" lon="6.76454">
        <ele>1507.9</ele>
        <time>2000-01-02T16:22:43.000Z</time>
      </trkpt>
      <trkpt lat="46.01405" lon="6.76451">
        <ele>1507.6</ele>
        <time>2000-01-02T16:22:53.000Z</time>
      </trkpt>
      <trkpt lat="46.01398" lon="6.76445">
        <ele>1506.6</ele>
        <time>2000-01-02T16:23:03.000Z</time>
      </trkpt>
      <trkpt lat="46.01394" lon="6.76442">
        <ele>1505</ele>
        <time>2000-01-02T16:23:13.000Z</time>
      </trkpt>
      <trkpt lat="46.01392" lon="6.7644">
        <ele>1506.3</ele>
        <time>2000-01-02T16:23:23.000Z</time>
      </trkpt>
      <trkpt lat="46.01391" lon="6.76437">
        <ele>1505.7</ele>
        <time>2000-01-02T16:23:33.000Z</time>
      </trkpt>
      <trkpt lat="46.01391" lon="6.76433">
        <ele>1504.6</ele>
        <time>2000-01-02T16:23:43.000Z</time>
      </trkpt>
      <trkpt lat="46.01393" lon="6.76425">
        <ele>1502</ele>
        <time>2000-01-02T16:23:53.000Z</time>
      </trkpt>
      <trkpt lat="46.01393" lon="6.76419">
        <ele>1500.4</ele>
        <time>2000-01-02T16:24:03.000Z</time>
      </trkpt>
      <trkpt lat="46.01391" lon="6.76416">
        <ele>1502</ele>
        <time>2000-01-02T16:24:13.000Z</time>
      </trkpt>
      <trkpt lat="46.01388" lon="6.76413">
        <ele>1500.8</ele>
        <time>2000-01-02T16:24:23.000Z</time>
      </trkpt>
      <trkpt lat="46.01386" lon="6.76409">
        <ele>1501</ele>
        <time>2000-01-02T16:24:33.000Z</time>
      </trkpt>
      <trkpt lat="46.01384" lon="6.76402">
        <ele>1500.8</ele>
        <time>2000-01-02T16:24:43.000Z</time>
      </trkpt>
      <trkpt lat="46.01383" lon="6.76392">
        <ele>1502</ele>
        <time>2000-01-02T16:24:53.000Z</time>
      </trkpt>
      <trkpt lat="46.01382" lon="6.76382">
        <ele>1498.7</ele>
        <time>2000-01-02T16:25:03.000Z</time>
      </trkpt>
      <trkpt lat="46.01379" lon="6.76374">
        <ele>1499</ele>
        <time>2000-01-02T16:25:13.000Z</time>
      </trkpt>
      <trkpt lat="46.01374" lon="6.76366">
        <ele>1502</ele>
        <time>2000-01-02T16:25:23.000Z</time>
      </trkpt>
      <trkpt lat="46.01368" lon="6.76356">
        <ele>1501.1</ele>
        <time>2000-01-02T16:25:33.000Z</time>
      </trkpt>
      <trkpt lat="46.01364" lon="6.76344">
        <ele>1499.6</ele>
        <time>2000-01-02T16:25:43.000Z</time>
      </trkpt>
      <trkpt lat="46.01361" lon="6.76332">
        <ele>1500</ele>
        <time>2000-01-02T16:25:53.000Z</time>
      </trkpt>
      <trkpt lat="46.01358" lon="6.7632">
        <ele>1495.2</ele>
        <time>2000-01-02T16:26:03.000Z</time>
      </trkpt>
      <trkpt lat="46.01355" lon="6.76311">
        <ele>1493.8</ele>
        <time>2000-01-02T16:26:13.000Z</time>
      </trkpt>
      <trkpt lat="46.01347" lon="6.763">
        <ele>1499</ele>
        <time>2000-01-02T16:26:23.000Z</time>
      </trkpt>
      <trkpt lat="46.01342" lon="6.76294">
        <ele>1495.4</ele>
        <time>2000-01-02T16:26:33.000Z</time>
      </trkpt>
      <trkpt lat="46.01339" lon="6.7629">
        <ele>1495.8</ele>
        <time>2000-01-02T16:26:43.000Z</time>
      </trkpt>
      <trkpt lat="46.01338" lon="6.76282">
        <ele>1494</ele>
        <time>2000-01-02T16:26:53.000Z</time>
      </trkpt>
      <trkpt lat="46.01335" lon="6.76268">
        <ele>1492</ele>
        <time>2000-01-02T16:27:03.000Z</time>
      </trkpt>
      <trkpt lat="46.01332" lon="6.76257">
        <ele>1490.2</ele>
        <time>2000-01-02T16:27:13.000Z</time>
      </trkpt>
      <trkpt lat="46.01327" lon="6.76249">
        <ele>1489.6</ele>
        <time>2000-01-02T16:27:23.000Z</time>
      </trkpt>
      <trkpt lat="46.01321" lon="6.76241">
        <ele>1489</ele>
        <time>2000-01-02T16:27:33.000Z</time>
      </trkpt>
      <trkpt lat="46.01311" lon="6.76231">
        <ele>1487.7</ele>
        <time>2000-01-02T16:27:43.000Z</time>
      </trkpt>
      <trkpt lat="46.01304" lon="6.76226">
        <ele>1484</ele>
        <time>2000-01-02T16:27:53.000Z</time>
      </trkpt>
      <trkpt lat="46.01295" lon="6.76219">
        <ele>1485.1</ele>
        <time>2000-01-02T16:28:03.000Z</time>
      </trkpt>
      <trkpt lat="46.01286" lon="6.76212">
        <ele>1482</ele>
        <time>2000-01-02T16:28:13.000Z</time>
      </trkpt>
      <trkpt lat="46.01279" lon="6.76207">
        <ele>1481.2</ele>
        <time>2000-01-02T16:28:23.000Z</time>
      </trkpt>
      <trkpt lat="46.01276" lon="6.76203">
        <ele>1479.9</ele>
        <time>2000-01-02T16:28:33.000Z</time>
      </trkpt>
      <trkpt lat="46.01273" lon="6.76196">
        <ele>1477.3</ele>
        <time>2000-01-02T16:28:43.000Z</time>
      </trkpt>
      <trkpt lat="46.01269" lon="6.76192">
        <ele>1477</ele>
        <time>2000-01-02T16:28:53.000Z</time>
      </trkpt>
      <trkpt lat="46.01264" lon="6.76189">
        <ele>1477.2</ele>
        <time>2000-01-02T16:29:03.000Z</time>
      </trkpt>
      <trkpt lat="46.01259" lon="6.76185">
        <ele>1477.4</ele>
        <time>2000-01-02T16:29:13.000Z</time>
      </trkpt>
      <trkpt lat="46.01254" lon="6.76183">
        <ele>1478.4</ele>
        <time>2000-01-02T16:29:23.000Z</time>
      </trkpt>
      <trkpt lat="46.01251" lon="6.7618">
        <ele>1476</ele>
        <time>2000-01-02T16:29:33.000Z</time>
      </trkpt>
      <trkpt lat="46.01249" lon="6.76174">
        <ele>1477.3</ele>
        <time>2000-01-02T16:29:43.000Z</time>
      </trkpt>
      <trkpt lat="46.01248" lon="6.7617">
        <ele>1476.4</ele>
        <time>2000-01-02T16:29:53.000Z</time>
      </trkpt>
      <trkpt lat="46.01248" lon="6.76165">
        <ele>1474.6</ele>
        <time>2000-01-02T16:30:03.000Z</time>
      </trkpt>
      <trkpt lat="46.01248" lon="6.76161">
        <ele>1473.2</ele>
        <time>2000-01-02T16:30:13.000Z</time>
      </trkpt>
      <trkpt lat="46.01247" lon="6.76158">
        <ele>1472.7</ele>
        <time>2000-01-02T16:30:23.000Z</time>
      </trkpt>
      <trkpt lat="46.01243" lon="6.76154">
        <ele>1474</ele>
        <time>2000-01-02T16:30:33.000Z</time>
      </trkpt>
      <trkpt lat="46.01241" lon="6.76151">
        <ele>1473.9</ele>
        <time>2000-01-02T16:30:43.000Z</time>
      </trkpt>
      <trkpt lat="46.01241" lon="6.76146">
        <ele>1472.1</ele>
        <time>2000-01-02T16:30:53.000Z</time>
      </trkpt>
      <trkpt lat="46.0124" lon="6.76143">
        <ele>1471.6</ele>
        <time>2000-01-02T16:31:03.000Z</time>
      </trkpt>
      <trkpt lat="46.01237" lon="6.76139">
        <ele>1472</ele>
        <time>2000-01-02T16:31:13.000Z</time>
      </trkpt>
      <trkpt lat="46.01233" lon="6.7613">
        <ele>1469</ele>
        <time>2000-01-02T16:31:23.000Z</time>
      </trkpt>
      <trkpt lat="46.01231" lon="6.76115">
        <ele>1467.9</ele>
        <time>2000-01-02T16:31:33.000Z</time>
      </trkpt>
      <trkpt lat="46.01227" lon="6.76098">
        <ele>1468</ele>
        <time>2000-01-02T16:31:43.000Z</time>
      </trkpt>
      <trkpt lat="46.01222" lon="6.76081">
        <ele>1462.5</ele>
        <time>2000-01-02T16:31:53.000Z</time>
      </trkpt>
      <trkpt lat="46.01219" lon="6.76071">
        <ele>1467</ele>
        <time>2000-01-02T16:32:03.000Z</time>
      </trkpt>
      <trkpt lat="46.01218" lon="6.76062">
        <ele>1459.7</ele>
        <time>2000-01-02T16:32:13.000Z</time>
      </trkpt>
      <trkpt lat="46.01215" lon="6.76057">
        <ele>1460.3</ele>
        <time>2000-01-02T16:32:23.000Z</time>
      </trkpt>
      <trkpt lat="46.01212" lon="6.76055">
        <ele>1461.8</ele>
        <time>2000-01-02T16:32:33.000Z</time>
      </trkpt>
      <trkpt lat="46.0121" lon="6.76052">
        <ele>1462.3</ele>
        <time>2000-01-02T16:32:43.000Z</time>
      </trkpt>
      <trkpt lat="46.0121" lon="6.76048">
        <ele>1458</ele>
        <time>2000-01-02T16:32:53.000Z</time>
      </trkpt>
      <trkpt lat="46.01212" lon="6.7604">
        <ele>1457.5</ele>
        <time>2000-01-02T16:33:03.000Z</time>
      </trkpt>
      <trkpt lat="46.01213" lon="6.7603">
        <ele>1453.9</ele>
        <time>2000-01-02T16:33:13.000Z</time>
      </trkpt>
      <trkpt lat="46.01215" lon="6.76022">
        <ele>1454</ele>
        <time>2000-01-02T16:33:23.000Z</time>
      </trkpt>
      <trkpt lat="46.0122" lon="6.76011">
        <ele>1444.2</ele>
        <time>2000-01-02T16:33:33.000Z</time>
      </trkpt>
      <trkpt lat="46.01226" lon="6.75997">
        <ele>1450</ele>
        <time>2000-01-02T16:33:43.000Z</time>
      </trkpt>
      <trkpt lat="46.01224" lon="6.75994">
        <ele>1437</ele>
        <time>2000-01-02T16:33:53.000Z</time>
      </trkpt>
      <trkpt lat="46.01218" lon="6.75992">
        <ele>1440.1</ele>
        <time>2000-01-02T16:34:03.000Z</time>
      </trkpt>
      <trkpt lat="46.01207" lon="6.75989">
        <ele>1453</ele>
        <time>2000-01-02T16:34:13.000Z</time>
      </trkpt>
      <trkpt lat="46.012" lon="6.75986">
        <ele>1449.5</ele>
        <time>2000-01-02T16:34:23.000Z</time>
      </trkpt>
      <trkpt lat="46.01191" lon="6.75982">
        <ele>1453.8</ele>
        <time>2000-01-02T16:34:33.000Z</time>
      </trkpt>
      <trkpt lat="46.01183" lon="6.7598">
        <ele>1456</ele>
        <time>2000-01-02T16:34:43.000Z</time>
      </trkpt>
      <trkpt lat="46.01178" lon="6.75976">
        <ele>1460</ele>
        <time>2000-01-02T16:34:53.000Z</time>
      </trkpt>
      <trkpt lat="46.01172" lon="6.75969">
        <ele>1461.4</ele>
        <time>2000-01-02T16:35:03.000Z</time>
      </trkpt>
      <trkpt lat="46.01166" lon="6.75962">
        <ele>1468</ele>
        <time>2000-01-02T16:35:13.000Z</time>
      </trkpt>
      <trkpt lat="46.01162" lon="6.75957">
        <ele>1463.8</ele>
        <time>2000-01-02T16:35:23.000Z</time>
      </trkpt>
      <trkpt lat="46.01156" lon="6.75953">
        <ele>1466.6</ele>
        <time>2000-01-02T16:35:33.000Z</time>
      </trkpt>
      <trkpt lat="46.0115" lon="6.75948">
        <ele>1469.2</ele>
        <time>2000-01-02T16:35:43.000Z</time>
      </trkpt>
      <trkpt lat="46.01138" lon="6.75936">
        <ele>1479</ele>
        <time>2000-01-02T16:35:53.000Z</time>
      </trkpt>
      <trkpt lat="46.01125" lon="6.75922">
        <ele>1478.6</ele>
        <time>2000-01-02T16:36:03.000Z</time>
      </trkpt>
      <trkpt lat="46.01115" lon="6.75911">
        <ele>1484</ele>
        <time>2000-01-02T16:36:13.000Z</time>
      </trkpt>
      <trkpt lat="46.01106" lon="6.75904">
        <ele>1486.2</ele>
        <time>2000-01-02T16:36:23.000Z</time>
      </trkpt>
      <trkpt lat="46.01095" lon="6.759">
        <ele>1492</ele>
        <time>2000-01-02T16:36:33.000Z</time>
      </trkpt>
      <trkpt lat="46.01084" lon="6.75896">
        <ele>1497.2</ele>
        <time>2000-01-02T16:36:43.000Z</time>
      </trkpt>
      <trkpt lat="46.01084" lon="6.75896">
        <ele>1497.2</ele>
        <time>2000-01-02T16:36:53.000Z</time>
      </trkpt>
      <trkpt lat="46.01084" lon="6.75896">
        <ele>1497.2</ele>
        <time>2000-01-02T16:37:03.000Z</time>
      </trkpt>
      <trkpt lat="46.01076" lon="6.75892">
        <ele>1501</ele>
        <time>2000-01-02T16:37:13.000Z</time>
      </trkpt>
      <trkpt lat="46.01068" lon="6.75887">
        <ele>1503</ele>
        <time>2000-01-02T16:37:23.000Z</time>
      </trkpt>
      <trkpt lat="46.01065" lon="6.75884">
        <ele>1504.1</ele>
        <time>2000-01-02T16:37:33.000Z</time>
      </trkpt>
      <trkpt lat="46.0106" lon="6.75884">
        <ele>1506.5</ele>
        <time>2000-01-02T16:37:43.000Z</time>
      </trkpt>
      <trkpt lat="46.01056" lon="6.75883">
        <ele>1502</ele>
        <time>2000-01-02T16:37:53.000Z</time>
      </trkpt>
      <trkpt lat="46.01053" lon="6.7588">
        <ele>1509.3</ele>
        <time>2000-01-02T16:38:03.000Z</time>
      </trkpt>
      <trkpt lat="46.01053" lon="6.75876">
        <ele>1509.1</ele>
        <time>2000-01-02T16:38:13.000Z</time>
      </trkpt>
      <trkpt lat="46.01056" lon="6.7587">
        <ele>1507.4</ele>
        <time>2000-01-02T16:38:23.000Z</time>
      </trkpt>
      <trkpt lat="46.0106" lon="6.75866">
        <ele>1505</ele>
        <time>2000-01-02T16:38:33.000Z</time>
      </trkpt>
      <trkpt lat="46.01065" lon="6.75858">
        <ele>1504</ele>
        <time>2000-01-02T16:38:43.000Z</time>
      </trkpt>
      <trkpt lat="46.01068" lon="6.75854">
        <ele>1500</ele>
        <time>2000-01-02T16:38:53.000Z</time>
      </trkpt>
      <trkpt lat="46.01069" lon="6.75852">
        <ele>1499.4</ele>
        <time>2000-01-02T16:39:03.000Z</time>
      </trkpt>
      <trkpt lat="46.01068" lon="6.75851">
        <ele>1499.9</ele>
        <time>2000-01-02T16:39:13.000Z</time>
      </trkpt>
      <trkpt lat="46.01066" lon="6.75851">
        <ele>1501</ele>
        <time>2000-01-02T16:39:23.000Z</time>
      </trkpt>
      <trkpt lat="46.01063" lon="6.75853">
        <ele>1502.7</ele>
        <time>2000-01-02T16:39:33.000Z</time>
      </trkpt>
      <trkpt lat="46.01059" lon="6.75855">
        <ele>1504.9</ele>
        <time>2000-01-02T16:39:43.000Z</time>
      </trkpt>
      <trkpt lat="46.01051" lon="6.75855">
        <ele>1509</ele>
        <time>2000-01-02T16:39:53.000Z</time>
      </trkpt>
      <trkpt lat="46.01046" lon="6.75854">
        <ele>1510.9</ele>
        <time>2000-01-02T16:40:03.000Z</time>
      </trkpt>
      <trkpt lat="46.01039" lon="6.75853">
        <ele>1513.9</ele>
        <time>2000-01-02T16:40:13.000Z</time>
      </trkpt>
      <trkpt lat="46.01032" lon="6.75853">
        <ele>1518</ele>
        <time>2000-01-02T16:40:23.000Z</time>
      </trkpt>
      <trkpt lat="46.01027" lon="6.75854">
        <ele>1519</ele>
        <time>2000-01-02T16:40:33.000Z</time>
      </trkpt>
      <trkpt lat="46.01023" lon="6.75857">
        <ele>1520.1</ele>
        <time>2000-01-02T16:40:43.000Z</time>
      </trkpt>
      <trkpt lat="46.01013" lon="6.75863">
        <ele>1523</ele>
        <time>2000-01-02T16:40:53.000Z</time>
      </trkpt>
      <trkpt lat="46.0101" lon="6.75864">
        <ele>1523.5</ele>
        <time>2000-01-02T16:41:03.000Z</time>
      </trkpt>
      <trkpt lat="46.01006" lon="6.75864">
        <ele>1524.6</ele>
        <time>2000-01-02T16:41:13.000Z</time>
      </trkpt>
      <trkpt lat="46.01005" lon="6.75866">
        <ele>1524.9</ele>
        <time>2000-01-02T16:41:23.000Z</time>
      </trkpt>
      <trkpt lat="46.01" lon="6.75876">
        <ele>1526.5</ele>
        <time>2000-01-02T16:41:33.000Z</time>
      </trkpt>
      <trkpt lat="46.00998" lon="6.75883">
        <ele>1528</ele>
        <time>2000-01-02T16:41:43.000Z</time>
      </trkpt>
      <trkpt lat="46.00996" lon="6.75888">
        <ele>1527.7</ele>
        <time>2000-01-02T16:41:53.000Z</time>
      </trkpt>
      <trkpt lat="46.00993" lon="6.75893">
        <ele>1528.7</ele>
        <time>2000-01-02T16:42:03.000Z</time>
      </trkpt>
      <trkpt lat="46.00991" lon="6.75896">
        <ele>1529.4</ele>
        <time>2000-01-02T16:42:13.000Z</time>
      </trkpt>
      <trkpt lat="46.0099" lon="6.75898">
        <ele>1529.8</ele>
        <time>2000-01-02T16:42:23.000Z</time>
      </trkpt>
      <trkpt lat="46.00988" lon="6.75898">
        <ele>1530.1</ele>
        <time>2000-01-02T16:42:33.000Z</time>
      </trkpt>
      <trkpt lat="46.00986" lon="6.75896">
        <ele>1530.3</ele>
        <time>2000-01-02T16:42:43.000Z</time>
      </trkpt>
      <trkpt lat="46.0098" lon="6.7589">
        <ele>1530</ele>
        <time>2000-01-02T16:42:53.000Z</time>
      </trkpt>
      <trkpt lat="46.00979" lon="6.75888">
        <ele>1530.7</ele>
        <time>2000-01-02T16:43:03.000Z</time>
      </trkpt>
      <trkpt lat="46.00978" lon="6.75881">
        <ele>1530.7</ele>
        <time>2000-01-02T16:43:13.000Z</time>
      </trkpt>
      <trkpt lat="46.00976" lon="6.75874">
        <ele>1530.8</ele>
        <time>2000-01-02T16:43:23.000Z</time>
      </trkpt>
      <trkpt lat="46.00976" lon="6.75869">
        <ele>1530.6</ele>
        <time>2000-01-02T16:43:33.000Z</time>
      </trkpt>
      <trkpt lat="46.00975" lon="6.75862">
        <ele>1531</ele>
        <time>2000-01-02T16:43:43.000Z</time>
      </trkpt>
      <trkpt lat="46.00972" lon="6.75857">
        <ele>1531</ele>
        <time>2000-01-02T16:43:53.000Z</time>
      </trkpt>
      <trkpt lat="46.00966" lon="6.75855">
        <ele>1531.5</ele>
        <time>2000-01-02T16:44:03.000Z</time>
      </trkpt>
      <trkpt lat="46.00958" lon="6.75854">
        <ele>1532.1</ele>
        <time>2000-01-02T16:44:13.000Z</time>
      </trkpt>
      <trkpt lat="46.00952" lon="6.75853">
        <ele>1532</ele>
        <time>2000-01-02T16:44:23.000Z</time>
      </trkpt>
      <trkpt lat="46.00947" lon="6.75851">
        <ele>1532.7</ele>
        <time>2000-01-02T16:44:33.000Z</time>
      </trkpt>
      <trkpt lat="46.00942" lon="6.7585">
        <ele>1532.9</ele>
        <time>2000-01-02T16:44:43.000Z</time>
      </trkpt>
      <trkpt lat="46.00935" lon="6.75847">
        <ele>1532.8</ele>
        <time>2000-01-02T16:44:53.000Z</time>
      </trkpt>
      <trkpt lat="46.00929" lon="6.75844">
        <ele>1532</ele>
        <time>2000-01-02T16:45:03.000Z</time>
      </trkpt>
      <trkpt lat="46.00923" lon="6.7584">
        <ele>1532.9</ele>
        <time>2000-01-02T16:45:13.000Z</time>
      </trkpt>
      <trkpt lat="46.00916" lon="6.75832">
        <ele>1533.1</ele>
        <time>2000-01-02T16:45:23.000Z</time>
      </trkpt>
      <trkpt lat="46.00913" lon="6.75829">
        <ele>1532</ele>
        <time>2000-01-02T16:45:33.000Z</time>
      </trkpt>
      <trkpt lat="46.00915" lon="6.75821">
        <ele>1533.5</ele>
        <time>2000-01-02T16:45:43.000Z</time>
      </trkpt>
      <trkpt lat="46.00916" lon="6.75819">
        <ele>1533.5</ele>
        <time>2000-01-02T16:45:53.000Z</time>
      </trkpt>
      <trkpt lat="46.0092" lon="6.75815">
        <ele>1533.6</ele>
        <time>2000-01-02T16:46:03.000Z</time>
      </trkpt>
      <trkpt lat="46.00919" lon="6.75811">
        <ele>1533.8</ele>
        <time>2000-01-02T16:46:13.000Z</time>
      </trkpt>
      <trkpt lat="46.00916" lon="6.75804">
        <ele>1533</ele>
        <time>2000-01-02T16:46:23.000Z</time>
      </trkpt>
      <trkpt lat="46.00912" lon="6.75798">
        <ele>1535</ele>
        <time>2000-01-02T16:46:33.000Z</time>
      </trkpt>
      <trkpt lat="46.00911" lon="6.75794">
        <ele>1535.5</ele>
        <time>2000-01-02T16:46:43.000Z</time>
      </trkpt>
      <trkpt lat="46.00907" lon="6.75791">
        <ele>1535.7</ele>
        <time>2000-01-02T16:46:53.000Z</time>
      </trkpt>
      <trkpt lat="46.00904" lon="6.75792">
        <ele>1535.5</ele>
        <time>2000-01-02T16:47:03.000Z</time>
      </trkpt>
      <trkpt lat="46.00902" lon="6.75791">
        <ele>1535.5</ele>
        <time>2000-01-02T16:47:13.000Z</time>
      </trkpt>
      <trkpt lat="46.00901" lon="6.75788">
        <ele>1534</ele>
        <time>2000-01-02T16:47:23.000Z</time>
      </trkpt>
      <trkpt lat="46.00902" lon="6.75782">
        <ele>1536.5</ele>
        <time>2000-01-02T16:47:33.000Z</time>
      </trkpt>
      <trkpt lat="46.00902" lon="6.75776">
        <ele>1537.3</ele>
        <time>2000-01-02T16:47:43.000Z</time>
      </trkpt>
      <trkpt lat="46.00901" lon="6.75772">
        <ele>1538.1</ele>
        <time>2000-01-02T16:47:53.000Z</time>
      </trkpt>
      <trkpt lat="46.00896" lon="6.75765">
        <ele>1538.7</ele>
        <time>2000-01-02T16:48:03.000Z</time>
      </trkpt>
      <trkpt lat="46.00892" lon="6.75758">
        <ele>1540</ele>
        <time>2000-01-02T16:48:13.000Z</time>
      </trkpt>
      <trkpt lat="46.00887" lon="6.75749">
        <ele>1539.1</ele>
        <time>2000-01-02T16:48:23.000Z</time>
      </trkpt>
      <trkpt lat="46.00884" lon="6.75745">
        <ele>1539.9</ele>
        <time>2000-01-02T16:48:33.000Z</time>
      </trkpt>
      <trkpt lat="46.00883" lon="6.7574">
        <ele>1541.1</ele>
        <time>2000-01-02T16:48:43.000Z</time>
      </trkpt>
      <trkpt lat="46.00882" lon="6.75733">
        <ele>1539</ele>
        <time>2000-01-02T16:48:53.000Z</time>
      </trkpt>
      <trkpt lat="46.0088" lon="6.75728">
        <ele>1543.6</ele>
        <time>2000-01-02T16:49:03.000Z</time>
      </trkpt>
      <trkpt lat="46.00876" lon="6.75725">
        <ele>1543.2</ele>
        <time>2000-01-02T16:49:13.000Z</time>
      </trkpt>
      <trkpt lat="46.00872" lon="6.75724">
        <ele>1542.2</ele>
        <time>2000-01-02T16:49:23.000Z</time>
      </trkpt>
      <trkpt lat="46.00866" lon="6.75724">
        <ele>1539</ele>
        <time>2000-01-02T16:49:33.000Z</time>
      </trkpt>
      <trkpt lat="46.0086" lon="6.75723">
        <ele>1538.8</ele>
        <time>2000-01-02T16:49:43.000Z</time>
      </trkpt>
      <trkpt lat="46.00855" lon="6.75722">
        <ele>1538.6</ele>
        <time>2000-01-02T16:49:53.000Z</time>
      </trkpt>
      <trkpt lat="46.00851" lon="6.75721">
        <ele>1538.6</ele>
        <time>2000-01-02T16:50:03.000Z</time>
      </trkpt>
      <trkpt lat="46.00848" lon="6.75721">
        <ele>1538.4</ele>
        <time>2000-01-02T16:50:13.000Z</time>
      </trkpt>
      <trkpt lat="46.00843" lon="6.75721">
        <ele>1538</ele>
        <time>2000-01-02T16:50:23.000Z</time>
      </trkpt>
      <trkpt lat="46.00837" lon="6.75719">
        <ele>1538</ele>
        <time>2000-01-02T16:50:33.000Z</time>
      </trkpt>
      <trkpt lat="46.00833" lon="6.75717">
        <ele>1538.1</ele>
        <time>2000-01-02T16:50:43.000Z</time>
      </trkpt>
      <trkpt lat="46.00829" lon="6.75718">
        <ele>1537.9</ele>
        <time>2000-01-02T16:50:53.000Z</time>
      </trkpt>
      <trkpt lat="46.00827" lon="6.75717">
        <ele>1538.1</ele>
        <time>2000-01-02T16:51:03.000Z</time>
      </trkpt>
      <trkpt lat="46.00821" lon="6.75712">
        <ele>1538</ele>
        <time>2000-01-02T16:51:13.000Z</time>
      </trkpt>
      <trkpt lat="46.00819" lon="6.75708">
        <ele>1539.3</ele>
        <time>2000-01-02T16:51:23.000Z</time>
      </trkpt>
      <trkpt lat="46.00817" lon="6.75707">
        <ele>1539.3</ele>
        <time>2000-01-02T16:51:33.000Z</time>
      </trkpt>
      <trkpt lat="46.00812" lon="6.75707">
        <ele>1539</ele>
        <time>2000-01-02T16:51:43.000Z</time>
      </trkpt>
      <trkpt lat="46.00808" lon="6.75705">
        <ele>1538.8</ele>
        <time>2000-01-02T16:51:53.000Z</time>
      </trkpt>
      <trkpt lat="46.00804" lon="6.75703">
        <ele>1538</ele>
        <time>2000-01-02T16:52:03.000Z</time>
      </trkpt>
      <trkpt lat="46.00801" lon="6.75702">
        <ele>1539</ele>
        <time>2000-01-02T16:52:13.000Z</time>
      </trkpt>
      <trkpt lat="46.00796" lon="6.75699">
        <ele>1539.3</ele>
        <time>2000-01-02T16:52:23.000Z</time>
      </trkpt>
      <trkpt lat="46.00791" lon="6.75694">
        <ele>1539.6</ele>
        <time>2000-01-02T16:52:33.000Z</time>
      </trkpt>
      <trkpt lat="46.00786" lon="6.75686">
        <ele>1539</ele>
        <time>2000-01-02T16:52:43.000Z</time>
      </trkpt>
      <trkpt lat="46.0078" lon="6.75674">
        <ele>1540.8</ele>
        <time>2000-01-02T16:52:53.000Z</time>
      </trkpt>
      <trkpt lat="46.00775" lon="6.75664">
        <ele>1541.3</ele>
        <time>2000-01-02T16:53:03.000Z</time>
      </trkpt>
      <trkpt lat="46.00772" lon="6.75657">
        <ele>1541</ele>
        <time>2000-01-02T16:53:13.000Z</time>
      </trkpt>
      <trkpt lat="46.00769" lon="6.75652">
        <ele>1541.9</ele>
        <time>2000-01-02T16:53:23.000Z</time>
      </trkpt>
      <trkpt lat="46.00767" lon="6.75646">
        <ele>1542</ele>
        <time>2000-01-02T16:53:33.000Z</time>
      </trkpt>
      <trkpt lat="46.00767" lon="6.7564">
        <ele>1542.2</ele>
        <time>2000-01-02T16:53:43.000Z</time>
      </trkpt>
      <trkpt lat="46.00763" lon="6.75627">
        <ele>1542</ele>
        <time>2000-01-02T16:53:53.000Z</time>
      </trkpt>
      <trkpt lat="46.00758" lon="6.75613">
        <ele>1543.3</ele>
        <time>2000-01-02T16:54:03.000Z</time>
      </trkpt>
      <trkpt lat="46.00751" lon="6.75595">
        <ele>1542</ele>
        <time>2000-01-02T16:54:13.000Z</time>
      </trkpt>
      <trkpt lat="46.00747" lon="6.75585">
        <ele>1543.7</ele>
        <time>2000-01-02T16:54:23.000Z</time>
      </trkpt>
      <trkpt lat="46.00743" lon="6.7558">
        <ele>1543.8</ele>
        <time>2000-01-02T16:54:33.000Z</time>
      </trkpt>
      <trkpt lat="46.00736" lon="6.7557">
        <ele>1543</ele>
        <time>2000-01-02T16:54:43.000Z</time>
      </trkpt>
      <trkpt lat="46.00732" lon="6.75563">
        <ele>1544.4</ele>
        <time>2000-01-02T16:54:53.000Z</time>
      </trkpt>
      <trkpt lat="46.00727" lon="6.75555">
        <ele>1544.6</ele>
        <time>2000-01-02T16:55:03.000Z</time>
      </trkpt>
      <trkpt lat="46.00722" lon="6.75548">
        <ele>1544</ele>
        <time>2000-01-02T16:55:13.000Z</time>
      </trkpt>
      <trkpt lat="46.00714" lon="6.7554">
        <ele>1545.2</ele>
        <time>2000-01-02T16:55:23.000Z</time>
      </trkpt>
      <trkpt lat="46.0071" lon="6.75533">
        <ele>1545.6</ele>
        <time>2000-01-02T16:55:33.000Z</time>
      </trkpt>
      <trkpt lat="46.00704" lon="6.75527">
        <ele>1545</ele>
        <time>2000-01-02T16:55:43.000Z</time>
      </trkpt>
      <trkpt lat="46.00703" lon="6.75523">
        <ele>1546</ele>
        <time>2000-01-02T16:55:53.000Z</time>
      </trkpt>
      <trkpt lat="46.007" lon="6.75518">
        <ele>1546</ele>
        <time>2000-01-02T16:56:03.000Z</time>
      </trkpt>
      <trkpt lat="46.00695" lon="6.75511">
        <ele>1545.7</ele>
        <time>2000-01-02T16:56:13.000Z</time>
      </trkpt>
      <trkpt lat="46.00693" lon="6.75505">
        <ele>1545</ele>
        <time>2000-01-02T16:56:23.000Z</time>
      </trkpt>
      <trkpt lat="46.00687" lon="6.75495">
        <ele>1545.9</ele>
        <time>2000-01-02T16:56:33.000Z</time>
      </trkpt>
      <trkpt lat="46.00682" lon="6.7549">
        <ele>1545.9</ele>
        <time>2000-01-02T16:56:43.000Z</time>
      </trkpt>
      <trkpt lat="46.00676" lon="6.75485">
        <ele>1545</ele>
        <time>2000-01-02T16:56:53.000Z</time>
      </trkpt>
      <trkpt lat="46.0067" lon="6.75483">
        <ele>1545.7</ele>
        <time>2000-01-02T16:57:03.000Z</time>
      </trkpt>
      <trkpt lat="46.00664" lon="6.75481">
        <ele>1545.7</ele>
        <time>2000-01-02T16:57:13.000Z</time>
      </trkpt>
      <trkpt lat="46.0066" lon="6.75478">
        <ele>1545.8</ele>
        <time>2000-01-02T16:57:23.000Z</time>
      </trkpt>
      <trkpt lat="46.00656" lon="6.75471">
        <ele>1546</ele>
        <time>2000-01-02T16:57:33.000Z</time>
      </trkpt>
      <trkpt lat="46.00651" lon="6.75465">
        <ele>1546.3</ele>
        <time>2000-01-02T16:57:43.000Z</time>
      </trkpt>
      <trkpt lat="46.00644" lon="6.7546">
        <ele>1546.2</ele>
        <time>2000-01-02T16:57:53.000Z</time>
      </trkpt>
      <trkpt lat="46.00634" lon="6.75455">
        <ele>1546</ele>
        <time>2000-01-02T16:58:03.000Z</time>
      </trkpt>
      <trkpt lat="46.00627" lon="6.75452">
        <ele>1546.5</ele>
        <time>2000-01-02T16:58:13.000Z</time>
      </trkpt>
      <trkpt lat="46.00621" lon="6.75447">
        <ele>1546.7</ele>
        <time>2000-01-02T16:58:23.000Z</time>
      </trkpt>
      <trkpt lat="46.00613" lon="6.75442">
        <ele>1547</ele>
        <time>2000-01-02T16:58:33.000Z</time>
      </trkpt>
      <trkpt lat="46.00607" lon="6.75438">
        <ele>1547.5</ele>
        <time>2000-01-02T16:58:43.000Z</time>
      </trkpt>
      <trkpt lat="46.00602" lon="6.75431">
        <ele>1548</ele>
        <time>2000-01-02T16:58:53.000Z</time>
      </trkpt>
      <trkpt lat="46.00593" lon="6.75422">
        <ele>1548</ele>
        <time>2000-01-02T16:59:03.000Z</time>
      </trkpt>
      <trkpt lat="46.0059" lon="6.75418">
        <ele>1548.7</ele>
        <time>2000-01-02T16:59:13.000Z</time>
      </trkpt>
      <trkpt lat="46.00587" lon="6.75408">
        <ele>1549.7</ele>
        <time>2000-01-02T16:59:23.000Z</time>
      </trkpt>
      <trkpt lat="46.00584" lon="6.754">
        <ele>1550.2</ele>
        <time>2000-01-02T16:59:33.000Z</time>
      </trkpt>
      <trkpt lat="46.00583" lon="6.75398">
        <ele>1550</ele>
        <time>2000-01-02T16:59:43.000Z</time>
      </trkpt>
      <trkpt lat="46.00578" lon="6.75397">
        <ele>1550.5</ele>
        <time>2000-01-02T16:59:53.000Z</time>
      </trkpt>
      <trkpt lat="46.00575" lon="6.75397">
        <ele>1550.6</ele>
        <time>2000-01-02T17:00:03.000Z</time>
      </trkpt>
      <trkpt lat="46.00573" lon="6.75394">
        <ele>1550.8</ele>
        <time>2000-01-02T17:00:13.000Z</time>
      </trkpt>
      <trkpt lat="46.0057" lon="6.75386">
        <ele>1551.6</ele>
        <time>2000-01-02T17:00:23.000Z</time>
      </trkpt>
      <trkpt lat="46.00566" lon="6.75379">
        <ele>1553</ele>
        <time>2000-01-02T17:00:33.000Z</time>
      </trkpt>
      <trkpt lat="46.0056" lon="6.75373">
        <ele>1554</ele>
        <time>2000-01-02T17:00:43.000Z</time>
      </trkpt>
      <trkpt lat="46.00553" lon="6.75366">
        <ele>1555.1</ele>
        <time>2000-01-02T17:00:53.000Z</time>
      </trkpt>
      <trkpt lat="46.00544" lon="6.7536">
        <ele>1559</ele>
        <time>2000-01-02T17:01:03.000Z</time>
      </trkpt>
      <trkpt lat="46.00536" lon="6.75352">
        <ele>1558.7</ele>
        <time>2000-01-02T17:01:13.000Z</time>
      </trkpt>
      <trkpt lat="46.00529" lon="6.75345">
        <ele>1560.9</ele>
        <time>2000-01-02T17:01:23.000Z</time>
      </trkpt>
      <trkpt lat="46.00522" lon="6.7534">
        <ele>1561</ele>
        <time>2000-01-02T17:01:33.000Z</time>
      </trkpt>
      <trkpt lat="46.00513" lon="6.75335">
        <ele>1563.9</ele>
        <time>2000-01-02T17:01:43.000Z</time>
      </trkpt>
      <trkpt lat="46.00509" lon="6.75331">
        <ele>1565.3</ele>
        <time>2000-01-02T17:01:53.000Z</time>
      </trkpt>
      <trkpt lat="46.00504" lon="6.75326">
        <ele>1570</ele>
        <time>2000-01-02T17:02:03.000Z</time>
      </trkpt>
      <trkpt lat="46.00497" lon="6.75321">
        <ele>1569.7</ele>
        <time>2000-01-02T17:02:13.000Z</time>
      </trkpt>
      <trkpt lat="46.0049" lon="6.75316">
        <ele>1572.8</ele>
        <time>2000-01-02T17:02:23.000Z</time>
      </trkpt>
      <trkpt lat="46.00486" lon="6.75316">
        <ele>1576</ele>
        <time>2000-01-02T17:02:33.000Z</time>
      </trkpt>
      <trkpt lat="46.00477" lon="6.75316">
        <ele>1574.5</ele>
        <time>2000-01-02T17:02:43.000Z</time>
      </trkpt>
      <trkpt lat="46.00472" lon="6.75314">
        <ele>1576.1</ele>
        <time>2000-01-02T17:02:53.000Z</time>
      </trkpt>
      <trkpt lat="46.00467" lon="6.75315">
        <ele>1576</ele>
        <time>2000-01-02T17:03:03.000Z</time>
      </trkpt>
      <trkpt lat="46.0046" lon="6.75313">
        <ele>1579</ele>
        <time>2000-01-02T17:03:13.000Z</time>
      </trkpt>
      <trkpt lat="46.00447" lon="6.75305">
        <ele>1582.1</ele>
        <time>2000-01-02T17:03:23.000Z</time>
      </trkpt>
      <trkpt lat="46.00438" lon="6.75298">
        <ele>1589</ele>
        <time>2000-01-02T17:03:33.000Z</time>
      </trkpt>
      <trkpt lat="46.00433" lon="6.75295">
        <ele>1586.1</ele>
        <time>2000-01-02T17:03:43.000Z</time>
      </trkpt>
      <trkpt lat="46.0043" lon="6.75292">
        <ele>1587.3</ele>
        <time>2000-01-02T17:03:53.000Z</time>
      </trkpt>
      <trkpt lat="46.0043" lon="6.75288">
        <ele>1589.1</ele>
        <time>2000-01-02T17:04:03.000Z</time>
      </trkpt>
      <trkpt lat="46.00426" lon="6.75287">
        <ele>1589.4</ele>
        <time>2000-01-02T17:04:13.000Z</time>
      </trkpt>
      <trkpt lat="46.00419" lon="6.75283">
        <ele>1591</ele>
        <time>2000-01-02T17:04:23.000Z</time>
      </trkpt>
      <trkpt lat="46.00413" lon="6.75276">
        <ele>1594.3</ele>
        <time>2000-01-02T17:04:33.000Z</time>
      </trkpt>
      <trkpt lat="46.0041" lon="6.75274">
        <ele>1595.6</ele>
        <time>2000-01-02T17:04:43.000Z</time>
      </trkpt>
      <trkpt lat="46.00403" lon="6.75275">
        <ele>1595.9</ele>
        <time>2000-01-02T17:04:53.000Z</time>
      </trkpt>
      <trkpt lat="46.00397" lon="6.75275">
        <ele>1599</ele>
        <time>2000-01-02T17:05:03.000Z</time>
      </trkpt>
      <trkpt lat="46.00393" lon="6.75273">
        <ele>1598.2</ele>
        <time>2000-01-02T17:05:13.000Z</time>
      </trkpt>
      <trkpt lat="46.00389" lon="6.75272">
        <ele>1599.3</ele>
        <time>2000-01-02T17:05:23.000Z</time>
      </trkpt>
      <trkpt lat="46.00379" lon="6.75273">
        <ele>1600.9</ele>
        <time>2000-01-02T17:05:33.000Z</time>
      </trkpt>
      <trkpt lat="46.00372" lon="6.75272">
        <ele>1604</ele>
        <time>2000-01-02T17:05:43.000Z</time>
      </trkpt>
      <trkpt lat="46.00364" lon="6.7527">
        <ele>1605.9</ele>
        <time>2000-01-02T17:05:53.000Z</time>
      </trkpt>
      <trkpt lat="46.00355" lon="6.75267">
        <ele>1610</ele>
        <time>2000-01-02T17:06:03.000Z</time>
      </trkpt>
      <trkpt lat="46.00343" lon="6.75262">
        <ele>1621</ele>
        <time>2000-01-02T17:06:13.000Z</time>
      </trkpt>
      <trkpt lat="46.00338" lon="6.75261">
        <ele>1621.4</ele>
        <time>2000-01-02T17:06:23.000Z</time>
      </trkpt>
      <trkpt lat="46.0033" lon="6.75261">
        <ele>1625.1</ele>
        <time>2000-01-02T17:06:33.000Z</time>
      </trkpt>
      <trkpt lat="46.00325" lon="6.75259">
        <ele>1630</ele>
        <time>2000-01-02T17:06:43.000Z</time>
      </trkpt>
      <trkpt lat="46.00322" lon="6.75258">
        <ele>1624</ele>
        <time>2000-01-02T17:06:53.000Z</time>
      </trkpt>
      <trkpt lat="46.00321" lon="6.7526">
        <ele>1630.9</ele>
        <time>2000-01-02T17:07:03.000Z</time>
      </trkpt>
      <trkpt lat="46.0032" lon="6.75267">
        <ele>1622.9</ele>
        <time>2000-01-02T17:07:13.000Z</time>
      </trkpt>
      <trkpt lat="46.00316" lon="6.75272">
        <ele>1618.7</ele>
        <time>2000-01-02T17:07:23.000Z</time>
      </trkpt>
      <trkpt lat="46.00311" lon="6.75274">
        <ele>1618.4</ele>
        <time>2000-01-02T17:07:33.000Z</time>
      </trkpt>
      <trkpt lat="46.00305" lon="6.75274">
        <ele>1627</ele>
        <time>2000-01-02T17:07:43.000Z</time>
      </trkpt>
      <trkpt lat="46.00299" lon="6.75271">
        <ele>1627.3</ele>
        <time>2000-01-02T17:07:53.000Z</time>
      </trkpt>
      <trkpt lat="46.00294" lon="6.75271">
        <ele>1629.3</ele>
        <time>2000-01-02T17:08:03.000Z</time>
      </trkpt>
      <trkpt lat="46.00283" lon="6.75271">
        <ele>1637</ele>
        <time>2000-01-02T17:08:13.000Z</time>
      </trkpt>
      <trkpt lat="46.00276" lon="6.75275">
        <ele>1633.4</ele>
        <time>2000-01-02T17:08:23.000Z</time>
      </trkpt>
      <trkpt lat="46.0027" lon="6.75281">
        <ele>1631.8</ele>
        <time>2000-01-02T17:08:33.000Z</time>
      </trkpt>
      <trkpt lat="46.00264" lon="6.75286">
        <ele>1640</ele>
        <time>2000-01-02T17:08:43.000Z</time>
      </trkpt>
      <trkpt lat="46.00262" lon="6.75288">
        <ele>1630.4</ele>
        <time>2000-01-02T17:08:53.000Z</time>
      </trkpt>
      <trkpt lat="46.00259" lon="6.75288">
        <ele>1632.5</ele>
        <time>2000-01-02T17:09:03.000Z</time>
      </trkpt>
      <trkpt lat="46.00254" lon="6.75292">
        <ele>1632.3</ele>
        <time>2000-01-02T17:09:13.000Z</time>
      </trkpt>
      <trkpt lat="46.00249" lon="6.75294">
        <ele>1634</ele>
        <time>2000-01-02T17:09:23.000Z</time>
      </trkpt>
      <trkpt lat="46.00245" lon="6.75294">
        <ele>1646</ele>
        <time>2000-01-02T17:09:33.000Z</time>
      </trkpt>
      <trkpt lat="46.00241" lon="6.75293">
        <ele>1639.3</ele>
        <time>2000-01-02T17:09:43.000Z</time>
      </trkpt>
      <trkpt lat="46.00236" lon="6.75296">
        <ele>1639.9</ele>
        <time>2000-01-02T17:09:53.000Z</time>
      </trkpt>
      <trkpt lat="46.0023" lon="6.75302">
        <ele>1639.7</ele>
        <time>2000-01-02T17:10:03.000Z</time>
      </trkpt>
      <trkpt lat="46.00226" lon="6.75304">
        <ele>1644</ele>
        <time>2000-01-02T17:10:13.000Z</time>
      </trkpt>
      <trkpt lat="46.00222" lon="6.75307">
        <ele>1641.4</ele>
        <time>2000-01-02T17:10:23.000Z</time>
      </trkpt>
      <trkpt lat="46.00218" lon="6.75312">
        <ele>1637.2</ele>
        <time>2000-01-02T17:10:33.000Z</time>
      </trkpt>
      <trkpt lat="46.00213" lon="6.75316">
        <ele>1635.1</ele>
        <time>2000-01-02T17:10:43.000Z</time>
      </trkpt>
      <trkpt lat="46.00206" lon="6.75321">
        <ele>1645</ele>
        <time>2000-01-02T17:10:53.000Z</time>
      </trkpt>
      <trkpt lat="46.00202" lon="6.75321">
        <ele>1636.3</ele>
        <time>2000-01-02T17:11:03.000Z</time>
      </trkpt>
      <trkpt lat="46.00202" lon="6.75321">
        <ele>1636.3</ele>
        <time>2000-01-02T17:11:13.000Z</time>
      </trkpt>
      <trkpt lat="46.00202" lon="6.75321">
        <ele>1636.3</ele>
        <time>2000-01-02T17:11:23.000Z</time>
      </trkpt>
      <trkpt lat="46.00202" lon="6.75321">
        <ele>1636.3</ele>
        <time>2000-01-02T17:11:33.000Z</time>
      </trkpt>
      <trkpt lat="46.00202" lon="6.75321">
        <ele>1636.3</ele>
        <time>2000-01-02T17:11:43.000Z</time>
      </trkpt>
      <trkpt lat="46.00195" lon="6.7532">
        <ele>1640.4</ele>
        <time>2000-01-02T17:11:53.000Z</time>
      </trkpt>
      <trkpt lat="46.00188" lon="6.75319">
        <ele>1642.8</ele>
        <time>2000-01-02T17:12:03.000Z</time>
      </trkpt>
      <trkpt lat="46.00182" lon="6.75318">
        <ele>1647</ele>
        <time>2000-01-02T17:12:13.000Z</time>
      </trkpt>
      <trkpt lat="46.00175" lon="6.75321">
        <ele>1645.1</ele>
        <time>2000-01-02T17:12:23.000Z</time>
      </trkpt>
      <trkpt lat="46.00169" lon="6.75325">
        <ele>1644.6</ele>
        <time>2000-01-02T17:12:33.000Z</time>
      </trkpt>
      <trkpt lat="46.00164" lon="6.75328">
        <ele>1648</ele>
        <time>2000-01-02T17:12:43.000Z</time>
      </trkpt>
      <trkpt lat="46.00158" lon="6.75333">
        <ele>1644.6</ele>
        <time>2000-01-02T17:12:53.000Z</time>
      </trkpt>
      <trkpt lat="46.00154" lon="6.75337">
        <ele>1644.5</ele>
        <time>2000-01-02T17:13:03.000Z</time>
      </trkpt>
      <trkpt lat="46.00149" lon="6.75345">
        <ele>1647</ele>
        <time>2000-01-02T17:13:13.000Z</time>
      </trkpt>
      <trkpt lat="46.00146" lon="6.75351">
        <ele>1643.1</ele>
        <time>2000-01-02T17:13:23.000Z</time>
      </trkpt>
      <trkpt lat="46.00142" lon="6.75353">
        <ele>1644.6</ele>
        <time>2000-01-02T17:13:33.000Z</time>
      </trkpt>
      <trkpt lat="46.00136" lon="6.75354">
        <ele>1646</ele>
        <time>2000-01-02T17:13:43.000Z</time>
      </trkpt>
      <trkpt lat="46.00129" lon="6.75353">
        <ele>1647</ele>
        <time>2000-01-02T17:13:53.000Z</time>
      </trkpt>
      <trkpt lat="46.00121" lon="6.75349">
        <ele>1647.4</ele>
        <time>2000-01-02T17:14:03.000Z</time>
      </trkpt>
      <trkpt lat="46.00116" lon="6.75346">
        <ele>1648.4</ele>
        <time>2000-01-02T17:14:13.000Z</time>
      </trkpt>
      <trkpt lat="46.00109" lon="6.75343">
        <ele>1650</ele>
        <time>2000-01-02T17:14:23.000Z</time>
      </trkpt>
      <trkpt lat="46.00104" lon="6.75341">
        <ele>1650.7</ele>
        <time>2000-01-02T17:14:33.000Z</time>
      </trkpt>
      <trkpt lat="46.001" lon="6.75341">
        <ele>1650.9</ele>
        <time>2000-01-02T17:14:43.000Z</time>
      </trkpt>
      <trkpt lat="46.00096" lon="6.75344">
        <ele>1650</ele>
        <time>2000-01-02T17:14:53.000Z</time>
      </trkpt>
      <trkpt lat="46.00092" lon="6.75347">
        <ele>1649.1</ele>
        <time>2000-01-02T17:15:03.000Z</time>
      </trkpt>
      <trkpt lat="46.00087" lon="6.75348">
        <ele>1651</ele>
        <time>2000-01-02T17:15:13.000Z</time>
      </trkpt>
      <trkpt lat="46.00082" lon="6.75347">
        <ele>1649.7</ele>
        <time>2000-01-02T17:15:23.000Z</time>
      </trkpt>
      <trkpt lat="46.00074" lon="6.75342">
        <ele>1652.1</ele>
        <time>2000-01-02T17:15:33.000Z</time>
      </trkpt>
      <trkpt lat="46.00069" lon="6.7534">
        <ele>1653</ele>
        <time>2000-01-02T17:15:43.000Z</time>
      </trkpt>
      <trkpt lat="46.00066" lon="6.75339">
        <ele>1653.9</ele>
        <time>2000-01-02T17:15:53.000Z</time>
      </trkpt>
      <trkpt lat="46.00063" lon="6.7534">
        <ele>1653.6</ele>
        <time>2000-01-02T17:16:03.000Z</time>
      </trkpt>
      <trkpt lat="46.00059" lon="6.75343">
        <ele>1652.6</ele>
        <time>2000-01-02T17:16:13.000Z</time>
      </trkpt>
      <trkpt lat="46.00053" lon="6.75345">
        <ele>1652.1</ele>
        <time>2000-01-02T17:16:23.000Z</time>
      </trkpt>
      <trkpt lat="46.00044" lon="6.75347">
        <ele>1655</ele>
        <time>2000-01-02T17:16:33.000Z</time>
      </trkpt>
      <trkpt lat="46.00038" lon="6.75348">
        <ele>1652</ele>
        <time>2000-01-02T17:16:43.000Z</time>
      </trkpt>
      <trkpt lat="46.00033" lon="6.75346">
        <ele>1653.1</ele>
        <time>2000-01-02T17:16:53.000Z</time>
      </trkpt>
      <trkpt lat="46.00026" lon="6.75342">
        <ele>1654.9</ele>
        <time>2000-01-02T17:17:03.000Z</time>
      </trkpt>
      <trkpt lat="46.0002" lon="6.75337">
        <ele>1658</ele>
        <time>2000-01-02T17:17:13.000Z</time>
      </trkpt>
      <trkpt lat="46.00017" lon="6.75333">
        <ele>1658.2</ele>
        <time>2000-01-02T17:17:23.000Z</time>
      </trkpt>
      <trkpt lat="46.00014" lon="6.75332">
        <ele>1658.7</ele>
        <time>2000-01-02T17:17:33.000Z</time>
      </trkpt>
      <trkpt lat="46.00009" lon="6.75331">
        <ele>1659.3</ele>
        <time>2000-01-02T17:17:43.000Z</time>
      </trkpt>
      <trkpt lat="46.00004" lon="6.75334">
        <ele>1657.8</ele>
        <time>2000-01-02T17:17:53.000Z</time>
      </trkpt>
      <trkpt lat="45.99998" lon="6.75335">
        <ele>1661</ele>
        <time>2000-01-02T17:18:03.000Z</time>
      </trkpt>
      <trkpt lat="45.99993" lon="6.75336">
        <ele>1658.7</ele>
        <time>2000-01-02T17:18:13.000Z</time>
      </trkpt>
      <trkpt lat="45.99989" lon="6.75337">
        <ele>1659.3</ele>
        <time>2000-01-02T17:18:23.000Z</time>
      </trkpt>
      <trkpt lat="45.99985" lon="6.75336">
        <ele>1660.4</ele>
        <time>2000-01-02T17:18:33.000Z</time>
      </trkpt>
      <trkpt lat="45.9998" lon="6.75337">
        <ele>1661.2</ele>
        <time>2000-01-02T17:18:43.000Z</time>
      </trkpt>
      <trkpt lat="45.99971" lon="6.75338">
        <ele>1665</ele>
        <time>2000-01-02T17:18:53.000Z</time>
      </trkpt>
      <trkpt lat="45.99966" lon="6.75338">
        <ele>1663.3</ele>
        <time>2000-01-02T17:19:03.000Z</time>
      </trkpt>
      <trkpt lat="45.99961" lon="6.75335">
        <ele>1664.8</ele>
        <time>2000-01-02T17:19:13.000Z</time>
      </trkpt>
      <trkpt lat="45.99955" lon="6.75329">
        <ele>1667.7</ele>
        <time>2000-01-02T17:19:23.000Z</time>
      </trkpt>
      <trkpt lat="45.99949" lon="6.75323">
        <ele>1673</ele>
        <time>2000-01-02T17:19:33.000Z</time>
      </trkpt>
      <trkpt lat="45.99943" lon="6.75316">
        <ele>1674</ele>
        <time>2000-01-02T17:19:43.000Z</time>
      </trkpt>
      <trkpt lat="45.99938" lon="6.75311">
        <ele>1676.5</ele>
        <time>2000-01-02T17:19:53.000Z</time>
      </trkpt>
      <trkpt lat="45.99935" lon="6.75309">
        <ele>1677.5</ele>
        <time>2000-01-02T17:20:03.000Z</time>
      </trkpt>
      <trkpt lat="45.9993" lon="6.7531">
        <ele>1677</ele>
        <time>2000-01-02T17:20:13.000Z</time>
      </trkpt>
      <trkpt lat="45.99926" lon="6.7531">
        <ele>1678</ele>
        <time>2000-01-02T17:20:23.000Z</time>
      </trkpt>
      <trkpt lat="45.9992" lon="6.7531">
        <ele>1678.6</ele>
        <time>2000-01-02T17:20:33.000Z</time>
      </trkpt>
      <trkpt lat="45.99915" lon="6.75311">
        <ele>1678.8</ele>
        <time>2000-01-02T17:20:43.000Z</time>
      </trkpt>
      <trkpt lat="45.99911" lon="6.7531">
        <ele>1677</ele>
        <time>2000-01-02T17:20:53.000Z</time>
      </trkpt>
      <trkpt lat="45.99905" lon="6.75306">
        <ele>1680.8</ele>
        <time>2000-01-02T17:21:03.000Z</time>
      </trkpt>
      <trkpt lat="45.99899" lon="6.75303">
        <ele>1682.6</ele>
        <time>2000-01-02T17:21:13.000Z</time>
      </trkpt>
      <trkpt lat="45.99894" lon="6.753">
        <ele>1690</ele>
        <time>2000-01-02T17:21:23.000Z</time>
      </trkpt>
      <trkpt lat="45.99887" lon="6.75298">
        <ele>1686.1</ele>
        <time>2000-01-02T17:21:33.000Z</time>
      </trkpt>
      <trkpt lat="45.99885" lon="6.75295">
        <ele>1687.8</ele>
        <time>2000-01-02T17:21:43.000Z</time>
      </trkpt>
      <trkpt lat="45.99882" lon="6.75291">
        <ele>1690.2</ele>
        <time>2000-01-02T17:21:53.000Z</time>
      </trkpt>
      <trkpt lat="45.99879" lon="6.7529">
        <ele>1691.1</ele>
        <time>2000-01-02T17:22:03.000Z</time>
      </trkpt>
      <trkpt lat="45.99877" lon="6.7529">
        <ele>1692</ele>
        <time>2000-01-02T17:22:13.000Z</time>
      </trkpt>
      <trkpt lat="45.99873" lon="6.75289">
        <ele>1692.3</ele>
        <time>2000-01-02T17:22:23.000Z</time>
      </trkpt>
      <trkpt lat="45.99869" lon="6.75287">
        <ele>1693.7</ele>
        <time>2000-01-02T17:22:33.000Z</time>
      </trkpt>
      <trkpt lat="45.99864" lon="6.75284">
        <ele>1695.8</ele>
        <time>2000-01-02T17:22:43.000Z</time>
      </trkpt>
      <trkpt lat="45.99856" lon="6.75284">
        <ele>1699</ele>
        <time>2000-01-02T17:22:53.000Z</time>
      </trkpt>
      <trkpt lat="45.99851" lon="6.75282">
        <ele>1699.7</ele>
        <time>2000-01-02T17:23:03.000Z</time>
      </trkpt>
      <trkpt lat="45.99847" lon="6.75281">
        <ele>1701.2</ele>
        <time>2000-01-02T17:23:13.000Z</time>
      </trkpt>
      <trkpt lat="45.99841" lon="6.75279">
        <ele>1703.6</ele>
        <time>2000-01-02T17:23:23.000Z</time>
      </trkpt>
      <trkpt lat="45.99835" lon="6.75273">
        <ele>1709</ele>
        <time>2000-01-02T17:23:33.000Z</time>
      </trkpt>
      <trkpt lat="45.99834" lon="6.75268">
        <ele>1709.7</ele>
        <time>2000-01-02T17:23:43.000Z</time>
      </trkpt>
      <trkpt lat="45.99834" lon="6.75264">
        <ele>1711.3</ele>
        <time>2000-01-02T17:23:53.000Z</time>
      </trkpt>
      <trkpt lat="45.99836" lon="6.75262">
        <ele>1711.7</ele>
        <time>2000-01-02T17:24:03.000Z</time>
      </trkpt>
      <trkpt lat="45.99839" lon="6.75263">
        <ele>1710.6</ele>
        <time>2000-01-02T17:24:13.000Z</time>
      </trkpt>
      <trkpt lat="45.99843" lon="6.75261">
        <ele>1710.6</ele>
        <time>2000-01-02T17:24:23.000Z</time>
      </trkpt>
      <trkpt lat="45.9985" lon="6.75257">
        <ele>1713</ele>
        <time>2000-01-02T17:24:33.000Z</time>
      </trkpt>
      <trkpt lat="45.99851" lon="6.75255">
        <ele>1711.6</ele>
        <time>2000-01-02T17:24:43.000Z</time>
      </trkpt>
      <trkpt lat="45.9985" lon="6.75253">
        <ele>1712.7</ele>
        <time>2000-01-02T17:24:53.000Z</time>
      </trkpt>
      <trkpt lat="45.99846" lon="6.75253">
        <ele>1713.4</ele>
        <time>2000-01-02T17:25:03.000Z</time>
      </trkpt>
      <trkpt lat="45.99841" lon="6.75252">
        <ele>1714.8</ele>
        <time>2000-01-02T17:25:13.000Z</time>
      </trkpt>
      <trkpt lat="45.99839" lon="6.7525">
        <ele>1716</ele>
        <time>2000-01-02T17:25:23.000Z</time>
      </trkpt>
      <trkpt lat="45.9984" lon="6.75247">
        <ele>1717.3</ele>
        <time>2000-01-02T17:25:33.000Z</time>
      </trkpt>
      <trkpt lat="45.99842" lon="6.75246">
        <ele>1718</ele>
        <time>2000-01-02T17:25:43.000Z</time>
      </trkpt>
      <trkpt lat="45.99848" lon="6.75244">
        <ele>1717.5</ele>
        <time>2000-01-02T17:25:53.000Z</time>
      </trkpt>
      <trkpt lat="45.99852" lon="6.75241">
        <ele>1718.5</ele>
        <time>2000-01-02T17:26:03.000Z</time>
      </trkpt>
      <trkpt lat="45.99856" lon="6.75239">
        <ele>1719</ele>
        <time>2000-01-02T17:26:13.000Z</time>
      </trkpt>
      <trkpt lat="45.9986" lon="6.75237">
        <ele>1719.6</ele>
        <time>2000-01-02T17:26:23.000Z</time>
      </trkpt>
      <trkpt lat="45.99865" lon="6.75236">
        <ele>1721</ele>
        <time>2000-01-02T17:26:33.000Z</time>
      </trkpt>
      <trkpt lat="45.99869" lon="6.75232">
        <ele>1722.3</ele>
        <time>2000-01-02T17:26:43.000Z</time>
      </trkpt>
      <trkpt lat="45.99869" lon="6.75229">
        <ele>1724.1</ele>
        <time>2000-01-02T17:26:53.000Z</time>
      </trkpt>
      <trkpt lat="45.99867" lon="6.75227">
        <ele>1725.3</ele>
        <time>2000-01-02T17:27:03.000Z</time>
      </trkpt>
      <trkpt lat="45.99862" lon="6.75227">
        <ele>1725.3</ele>
        <time>2000-01-02T17:27:13.000Z</time>
      </trkpt>
      <trkpt lat="45.99856" lon="6.75227">
        <ele>1729</ele>
        <time>2000-01-02T17:27:23.000Z</time>
      </trkpt>
      <trkpt lat="45.99848" lon="6.75226">
        <ele>1727</ele>
        <time>2000-01-02T17:27:33.000Z</time>
      </trkpt>
      <trkpt lat="45.99843" lon="6.75223">
        <ele>1728.9</ele>
        <time>2000-01-02T17:27:43.000Z</time>
      </trkpt>
      <trkpt lat="45.99836" lon="6.75223">
        <ele>1731</ele>
        <time>2000-01-02T17:27:53.000Z</time>
      </trkpt>
      <trkpt lat="45.99826" lon="6.75227">
        <ele>1731.2</ele>
        <time>2000-01-02T17:28:03.000Z</time>
      </trkpt>
      <trkpt lat="45.99818" lon="6.75234">
        <ele>1735</ele>
        <time>2000-01-02T17:28:13.000Z</time>
      </trkpt>
      <trkpt lat="45.99811" lon="6.75239">
        <ele>1734.2</ele>
        <time>2000-01-02T17:28:23.000Z</time>
      </trkpt>
      <trkpt lat="45.99806" lon="6.75245">
        <ele>1735.2</ele>
        <time>2000-01-02T17:28:33.000Z</time>
      </trkpt>
      <trkpt lat="45.99802" lon="6.7525">
        <ele>1735</ele>
        <time>2000-01-02T17:28:43.000Z</time>
      </trkpt>
      <trkpt lat="45.99799" lon="6.75259">
        <ele>1733.6</ele>
        <time>2000-01-02T17:28:53.000Z</time>
      </trkpt>
      <trkpt lat="45.99796" lon="6.7527">
        <ele>1732.4</ele>
        <time>2000-01-02T17:29:03.000Z</time>
      </trkpt>
      <trkpt lat="45.99795" lon="6.75276">
        <ele>1736</ele>
        <time>2000-01-02T17:29:13.000Z</time>
      </trkpt>
      <trkpt lat="45.99795" lon="6.75284">
        <ele>1730.3</ele>
        <time>2000-01-02T17:29:23.000Z</time>
      </trkpt>
      <trkpt lat="45.99795" lon="6.75287">
        <ele>1729.9</ele>
        <time>2000-01-02T17:29:33.000Z</time>
      </trkpt>
      <trkpt lat="45.99793" lon="6.75289">
        <ele>1730.8</ele>
        <time>2000-01-02T17:29:43.000Z</time>
      </trkpt>
      <trkpt lat="45.99791" lon="6.75288">
        <ele>1732.1</ele>
        <time>2000-01-02T17:29:53.000Z</time>
      </trkpt>
      <trkpt lat="45.99788" lon="6.75283">
        <ele>1734.4</ele>
        <time>2000-01-02T17:30:03.000Z</time>
      </trkpt>
      <trkpt lat="45.99785" lon="6.75271">
        <ele>1739</ele>
        <time>2000-01-02T17:30:13.000Z</time>
      </trkpt>
      <trkpt lat="45.99783" lon="6.75252">
        <ele>1739.5</ele>
        <time>2000-01-02T17:30:23.000Z</time>
      </trkpt>
      <trkpt lat="45.99781" lon="6.75236">
        <ele>1743</ele>
        <time>2000-01-02T17:30:33.000Z</time>
      </trkpt>
      <trkpt lat="45.99778" lon="6.75227">
        <ele>1745.1</ele>
        <time>2000-01-02T17:30:43.000Z</time>
      </trkpt>
      <trkpt lat="45.99774" lon="6.75219">
        <ele>1747.7</ele>
        <time>2000-01-02T17:30:53.000Z</time>
      </trkpt>
      <trkpt lat="45.99771" lon="6.75214">
        <ele>1749.7</ele>
        <time>2000-01-02T17:31:03.000Z</time>
      </trkpt>
      <trkpt lat="45.99771" lon="6.75211">
        <ele>1748</ele>
        <time>2000-01-02T17:31:13.000Z</time>
      </trkpt>
      <trkpt lat="45.99773" lon="6.7521">
        <ele>1750.7</ele>
        <time>2000-01-02T17:31:23.000Z</time>
      </trkpt>
      <trkpt lat="45.99779" lon="6.75212">
        <ele>1749.6</ele>
        <time>2000-01-02T17:31:33.000Z</time>
      </trkpt>
      <trkpt lat="45.99784" lon="6.75211">
        <ele>1749.6</ele>
        <time>2000-01-02T17:31:43.000Z</time>
      </trkpt>
      <trkpt lat="45.99787" lon="6.75211">
        <ele>1749.4</ele>
        <time>2000-01-02T17:31:53.000Z</time>
      </trkpt>
      <trkpt lat="45.9979" lon="6.75211">
        <ele>1749</ele>
        <time>2000-01-02T17:32:03.000Z</time>
      </trkpt>
      <trkpt lat="45.99791" lon="6.75209">
        <ele>1750</ele>
        <time>2000-01-02T17:32:13.000Z</time>
      </trkpt>
      <trkpt lat="45.99791" lon="6.75205">
        <ele>1751.8</ele>
        <time>2000-01-02T17:32:23.000Z</time>
      </trkpt>
      <trkpt lat="45.99789" lon="6.75202">
        <ele>1753.1</ele>
        <time>2000-01-02T17:32:33.000Z</time>
      </trkpt>
      <trkpt lat="45.99784" lon="6.75198">
        <ele>1754.8</ele>
        <time>2000-01-02T17:32:43.000Z</time>
      </trkpt>
      <trkpt lat="45.99778" lon="6.75194">
        <ele>1757</ele>
        <time>2000-01-02T17:32:53.000Z</time>
      </trkpt>
      <trkpt lat="45.99768" lon="6.75189">
        <ele>1757.8</ele>
        <time>2000-01-02T17:33:03.000Z</time>
      </trkpt>
      <trkpt lat="45.99762" lon="6.75184">
        <ele>1759.5</ele>
        <time>2000-01-02T17:33:13.000Z</time>
      </trkpt>
      <trkpt lat="45.99759" lon="6.75179">
        <ele>1762</ele>
        <time>2000-01-02T17:33:23.000Z</time>
      </trkpt>
      <trkpt lat="45.99755" lon="6.75175">
        <ele>1762.9</ele>
        <time>2000-01-02T17:33:33.000Z</time>
      </trkpt>
      <trkpt lat="45.9975" lon="6.75173">
        <ele>1763.3</ele>
        <time>2000-01-02T17:33:43.000Z</time>
      </trkpt>
      <trkpt lat="45.99747" lon="6.75173">
        <ele>1763.9</ele>
        <time>2000-01-02T17:33:53.000Z</time>
      </trkpt>
      <trkpt lat="45.99741" lon="6.75172">
        <ele>1762</ele>
        <time>2000-01-02T17:34:03.000Z</time>
      </trkpt>
      <trkpt lat="45.99734" lon="6.75169">
        <ele>1768</ele>
        <time>2000-01-02T17:34:13.000Z</time>
      </trkpt>
      <trkpt lat="45.99726" lon="6.75171">
        <ele>1768.9</ele>
        <time>2000-01-02T17:34:23.000Z</time>
      </trkpt>
      <trkpt lat="45.9972" lon="6.75175">
        <ele>1768</ele>
        <time>2000-01-02T17:34:33.000Z</time>
      </trkpt>
      <trkpt lat="45.99715" lon="6.75179">
        <ele>1767.7</ele>
        <time>2000-01-02T17:34:43.000Z</time>
      </trkpt>
      <trkpt lat="45.99712" lon="6.7518">
        <ele>1767.6</ele>
        <time>2000-01-02T17:34:53.000Z</time>
      </trkpt>
      <trkpt lat="45.99706" lon="6.7518">
        <ele>1768.2</ele>
        <time>2000-01-02T17:35:03.000Z</time>
      </trkpt>
      <trkpt lat="45.99694" lon="6.75178">
        <ele>1772</ele>
        <time>2000-01-02T17:35:13.000Z</time>
      </trkpt>
      <trkpt lat="45.99689" lon="6.75176">
        <ele>1771.1</ele>
        <time>2000-01-02T17:35:23.000Z</time>
      </trkpt>
      <trkpt lat="45.99687" lon="6.75173">
        <ele>1772.3</ele>
        <time>2000-01-02T17:35:33.000Z</time>
      </trkpt>
      <trkpt lat="45.99683" lon="6.75169">
        <ele>1774</ele>
        <time>2000-01-02T17:35:43.000Z</time>
      </trkpt>
      <trkpt lat="45.9968" lon="6.75168">
        <ele>1774.6</ele>
        <time>2000-01-02T17:35:53.000Z</time>
      </trkpt>
      <trkpt lat="45.9967" lon="6.75168">
        <ele>1778</ele>
        <time>2000-01-02T17:36:03.000Z</time>
      </trkpt>
      <trkpt lat="45.99665" lon="6.7517">
        <ele>1775.2</ele>
        <time>2000-01-02T17:36:13.000Z</time>
      </trkpt>
      <trkpt lat="45.99661" lon="6.7517">
        <ele>1775.8</ele>
        <time>2000-01-02T17:36:23.000Z</time>
      </trkpt>
      <trkpt lat="45.99656" lon="6.75168">
        <ele>1777.2</ele>
        <time>2000-01-02T17:36:33.000Z</time>
      </trkpt>
      <trkpt lat="45.99649" lon="6.75164">
        <ele>1781</ele>
        <time>2000-01-02T17:36:43.000Z</time>
      </trkpt>
      <trkpt lat="45.99638" lon="6.7516">
        <ele>1781.5</ele>
        <time>2000-01-02T17:36:53.000Z</time>
      </trkpt>
      <trkpt lat="45.99627" lon="6.75156">
        <ele>1784</ele>
        <time>2000-01-02T17:37:03.000Z</time>
      </trkpt>
      <trkpt lat="45.99618" lon="6.75152">
        <ele>1785.8</ele>
        <time>2000-01-02T17:37:13.000Z</time>
      </trkpt>
      <trkpt lat="45.99608" lon="6.75149">
        <ele>1790</ele>
        <time>2000-01-02T17:37:23.000Z</time>
      </trkpt>
      <trkpt lat="45.99601" lon="6.75151">
        <ele>1788.1</ele>
        <time>2000-01-02T17:37:33.000Z</time>
      </trkpt>
      <trkpt lat="45.99596" lon="6.75151">
        <ele>1788.6</ele>
        <time>2000-01-02T17:37:43.000Z</time>
      </trkpt>
      <trkpt lat="45.9959" lon="6.75147">
        <ele>1790.6</ele>
        <time>2000-01-02T17:37:53.000Z</time>
      </trkpt>
      <trkpt lat="45.99585" lon="6.75145">
        <ele>1792</ele>
        <time>2000-01-02T17:38:03.000Z</time>
      </trkpt>
      <trkpt lat="45.99575" lon="6.75142">
        <ele>1794.5</ele>
        <time>2000-01-02T17:38:13.000Z</time>
      </trkpt>
      <trkpt lat="45.99569" lon="6.75141">
        <ele>1795.9</ele>
        <time>2000-01-02T17:38:23.000Z</time>
      </trkpt>
      <trkpt lat="45.99564" lon="6.75139">
        <ele>1801</ele>
        <time>2000-01-02T17:38:33.000Z</time>
      </trkpt>
      <trkpt lat="45.99559" lon="6.75139">
        <ele>1798.3</ele>
        <time>2000-01-02T17:38:43.000Z</time>
      </trkpt>
      <trkpt lat="45.9955" lon="6.75141">
        <ele>1800.2</ele>
        <time>2000-01-02T17:38:53.000Z</time>
      </trkpt>
      <trkpt lat="45.99545" lon="6.75145">
        <ele>1803</ele>
        <time>2000-01-02T17:39:03.000Z</time>
      </trkpt>
      <trkpt lat="45.99537" lon="6.75156">
        <ele>1799.7</ele>
        <time>2000-01-02T17:39:13.000Z</time>
      </trkpt>
      <trkpt lat="45.99533" lon="6.7516">
        <ele>1799.6</ele>
        <time>2000-01-02T17:39:23.000Z</time>
      </trkpt>
      <trkpt lat="45.99527" lon="6.75163">
        <ele>1803</ele>
        <time>2000-01-02T17:39:33.000Z</time>
      </trkpt>
      <trkpt lat="45.9952" lon="6.75164">
        <ele>1801.5</ele>
        <time>2000-01-02T17:39:43.000Z</time>
      </trkpt>
      <trkpt lat="45.99515" lon="6.75167">
        <ele>1801.7</ele>
        <time>2000-01-02T17:39:53.000Z</time>
      </trkpt>
      <trkpt lat="45.9951" lon="6.75168">
        <ele>1802.6</ele>
        <time>2000-01-02T17:40:03.000Z</time>
      </trkpt>
      <trkpt lat="45.99503" lon="6.75167">
        <ele>1807</ele>
        <time>2000-01-02T17:40:13.000Z</time>
      </trkpt>
      <trkpt lat="45.99494" lon="6.75167">
        <ele>1806</ele>
        <time>2000-01-02T17:40:23.000Z</time>
      </trkpt>
      <trkpt lat="45.99486" lon="6.75169">
        <ele>1807</ele>
        <time>2000-01-02T17:40:33.000Z</time>
      </trkpt>
      <trkpt lat="45.99479" lon="6.75169">
        <ele>1813</ele>
        <time>2000-01-02T17:40:43.000Z</time>
      </trkpt>
      <trkpt lat="45.9947" lon="6.7517">
        <ele>1810.2</ele>
        <time>2000-01-02T17:40:53.000Z</time>
      </trkpt>
      <trkpt lat="45.99465" lon="6.75173">
        <ele>1811.5</ele>
        <time>2000-01-02T17:41:03.000Z</time>
      </trkpt>
      <trkpt lat="45.99454" lon="6.75181">
        <ele>1814</ele>
        <time>2000-01-02T17:41:13.000Z</time>
      </trkpt>
      <trkpt lat="45.99446" lon="6.75186">
        <ele>1814.5</ele>
        <time>2000-01-02T17:41:23.000Z</time>
      </trkpt>
      <trkpt lat="45.99437" lon="6.75189">
        <ele>1815</ele>
        <time>2000-01-02T17:41:33.000Z</time>
      </trkpt>
      <trkpt lat="45.99429" lon="6.7519">
        <ele>1821</ele>
        <time>2000-01-02T17:41:43.000Z</time>
      </trkpt>
      <trkpt lat="45.9942" lon="6.75187">
        <ele>1818.5</ele>
        <time>2000-01-02T17:41:53.000Z</time>
      </trkpt>
      <trkpt lat="45.9941" lon="6.75185">
        <ele>1821</ele>
        <time>2000-01-02T17:42:03.000Z</time>
      </trkpt>
      <trkpt lat="45.99396" lon="6.75183">
        <ele>1821.9</ele>
        <time>2000-01-02T17:42:13.000Z</time>
      </trkpt>
      <trkpt lat="45.99383" lon="6.75181">
        <ele>1821</ele>
        <time>2000-01-02T17:42:23.000Z</time>
      </trkpt>
      <trkpt lat="45.99377" lon="6.75179">
        <ele>1824</ele>
        <time>2000-01-02T17:42:33.000Z</time>
      </trkpt>
      <trkpt lat="45.9937" lon="6.75175">
        <ele>1825.2</ele>
        <time>2000-01-02T17:42:43.000Z</time>
      </trkpt>
      <trkpt lat="45.99362" lon="6.75167">
        <ele>1831</ele>
        <time>2000-01-02T17:42:53.000Z</time>
      </trkpt>
      <trkpt lat="45.99354" lon="6.75162">
        <ele>1829.7</ele>
        <time>2000-01-02T17:43:03.000Z</time>
      </trkpt>
      <trkpt lat="45.99345" lon="6.75155">
        <ele>1833</ele>
        <time>2000-01-02T17:43:13.000Z</time>
      </trkpt>
      <trkpt lat="45.99335" lon="6.75151">
        <ele>1834.3</ele>
        <time>2000-01-02T17:43:23.000Z</time>
      </trkpt>
      <trkpt lat="45.99326" lon="6.75151">
        <ele>1833</ele>
        <time>2000-01-02T17:43:33.000Z</time>
      </trkpt>
      <trkpt lat="45.99313" lon="6.7515">
        <ele>1836.5</ele>
        <time>2000-01-02T17:43:43.000Z</time>
      </trkpt>
      <trkpt lat="45.99304" lon="6.75149">
        <ele>1840</ele>
        <time>2000-01-02T17:43:53.000Z</time>
      </trkpt>
      <trkpt lat="45.99293" lon="6.75148">
        <ele>1840.7</ele>
        <time>2000-01-02T17:44:03.000Z</time>
      </trkpt>
      <trkpt lat="45.99285" lon="6.75147">
        <ele>1843</ele>
        <time>2000-01-02T17:44:13.000Z</time>
      </trkpt>
      <trkpt lat="45.99278" lon="6.75146">
        <ele>1844</ele>
        <time>2000-01-02T17:44:23.000Z</time>
      </trkpt>
      <trkpt lat="45.9927" lon="6.75146">
        <ele>1846.3</ele>
        <time>2000-01-02T17:44:33.000Z</time>
      </trkpt>
      <trkpt lat="45.99266" lon="6.75147">
        <ele>1847</ele>
        <time>2000-01-02T17:44:43.000Z</time>
      </trkpt>
      <trkpt lat="45.9926" lon="6.75147">
        <ele>1849.1</ele>
        <time>2000-01-02T17:44:53.000Z</time>
      </trkpt>
      <trkpt lat="45.99253" lon="6.75148">
        <ele>1850.9</ele>
        <time>2000-01-02T17:45:03.000Z</time>
      </trkpt>
      <trkpt lat="45.99248" lon="6.75149">
        <ele>1852.3</ele>
        <time>2000-01-02T17:45:13.000Z</time>
      </trkpt>
      <trkpt lat="45.99244" lon="6.75151">
        <ele>1852</ele>
        <time>2000-01-02T17:45:23.000Z</time>
      </trkpt>
      <trkpt lat="45.99242" lon="6.75154">
        <ele>1853.4</ele>
        <time>2000-01-02T17:45:33.000Z</time>
      </trkpt>
      <trkpt lat="45.99238" lon="6.75157">
        <ele>1853.9</ele>
        <time>2000-01-02T17:45:43.000Z</time>
      </trkpt>
      <trkpt lat="45.99233" lon="6.75161">
        <ele>1854.2</ele>
        <time>2000-01-02T17:45:53.000Z</time>
      </trkpt>
      <trkpt lat="45.99228" lon="6.75165">
        <ele>1859</ele>
        <time>2000-01-02T17:46:03.000Z</time>
      </trkpt>
      <trkpt lat="45.99217" lon="6.75171">
        <ele>1856.1</ele>
        <time>2000-01-02T17:46:13.000Z</time>
      </trkpt>
      <trkpt lat="45.99209" lon="6.75175">
        <ele>1860</ele>
        <time>2000-01-02T17:46:23.000Z</time>
      </trkpt>
      <trkpt lat="45.99204" lon="6.75179">
        <ele>1858.5</ele>
        <time>2000-01-02T17:46:33.000Z</time>
      </trkpt>
      <trkpt lat="45.99202" lon="6.75183">
        <ele>1857.9</ele>
        <time>2000-01-02T17:46:43.000Z</time>
      </trkpt>
      <trkpt lat="45.99199" lon="6.75186">
        <ele>1857.8</ele>
        <time>2000-01-02T17:46:53.000Z</time>
      </trkpt>
      <trkpt lat="45.99196" lon="6.75188">
        <ele>1857.9</ele>
        <time>2000-01-02T17:47:03.000Z</time>
      </trkpt>
      <trkpt lat="45.9919" lon="6.75188">
        <ele>1864</ele>
        <time>2000-01-02T17:47:13.000Z</time>
      </trkpt>
      <trkpt lat="45.99184" lon="6.75188">
        <ele>1860.5</ele>
        <time>2000-01-02T17:47:23.000Z</time>
      </trkpt>
      <trkpt lat="45.9918" lon="6.7519">
        <ele>1860.4</ele>
        <time>2000-01-02T17:47:33.000Z</time>
      </trkpt>
      <trkpt lat="45.99176" lon="6.75191">
        <ele>1860.8</ele>
        <time>2000-01-02T17:47:43.000Z</time>
      </trkpt>
      <trkpt lat="45.99169" lon="6.7519">
        <ele>1865</ele>
        <time>2000-01-02T17:47:53.000Z</time>
      </trkpt>
      <trkpt lat="45.99166" lon="6.75191">
        <ele>1862.8</ele>
        <time>2000-01-02T17:48:03.000Z</time>
      </trkpt>
      <trkpt lat="45.99159" lon="6.75193">
        <ele>1863.5</ele>
        <time>2000-01-02T17:48:13.000Z</time>
      </trkpt>
      <trkpt lat="45.99151" lon="6.75196">
        <ele>1867</ele>
        <time>2000-01-02T17:48:23.000Z</time>
      </trkpt>
      <trkpt lat="45.99146" lon="6.75197">
        <ele>1865.7</ele>
        <time>2000-01-02T17:48:33.000Z</time>
      </trkpt>
      <trkpt lat="45.99141" lon="6.75197">
        <ele>1867</ele>
        <time>2000-01-02T17:48:43.000Z</time>
      </trkpt>
      <trkpt lat="45.99139" lon="6.75198">
        <ele>1867.3</ele>
        <time>2000-01-02T17:48:53.000Z</time>
      </trkpt>
      <trkpt lat="45.99135" lon="6.75201">
        <ele>1867.2</ele>
        <time>2000-01-02T17:49:03.000Z</time>
      </trkpt>
      <trkpt lat="45.99129" lon="6.75208">
        <ele>1869</ele>
        <time>2000-01-02T17:49:13.000Z</time>
      </trkpt>
      <trkpt lat="45.99123" lon="6.75216">
        <ele>1867</ele>
        <time>2000-01-02T17:49:23.000Z</time>
      </trkpt>
      <trkpt lat="45.99121" lon="6.75218">
        <ele>1867.2</ele>
        <time>2000-01-02T17:49:33.000Z</time>
      </trkpt>
      <trkpt lat="45.99119" lon="6.75218">
        <ele>1867.6</ele>
        <time>2000-01-02T17:49:43.000Z</time>
      </trkpt>
      <trkpt lat="45.99115" lon="6.75217">
        <ele>1868.5</ele>
        <time>2000-01-02T17:49:53.000Z</time>
      </trkpt>
      <trkpt lat="45.9911" lon="6.75214">
        <ele>1869</ele>
        <time>2000-01-02T17:50:03.000Z</time>
      </trkpt>
      <trkpt lat="45.99107" lon="6.75213">
        <ele>1869.5</ele>
        <time>2000-01-02T17:50:13.000Z</time>
      </trkpt>
      <trkpt lat="45.99102" lon="6.75212">
        <ele>1869.7</ele>
        <time>2000-01-02T17:50:23.000Z</time>
      </trkpt>
      <trkpt lat="45.99099" lon="6.75211">
        <ele>1869.7</ele>
        <time>2000-01-02T17:50:33.000Z</time>
      </trkpt>
      <trkpt lat="45.99097" lon="6.75209">
        <ele>1869.8</ele>
        <time>2000-01-02T17:50:43.000Z</time>
      </trkpt>
      <trkpt lat="45.99094" lon="6.75207">
        <ele>1869.8</ele>
        <time>2000-01-02T17:50:53.000Z</time>
      </trkpt>
      <trkpt lat="45.99087" lon="6.75204">
        <ele>1868</ele>
        <time>2000-01-02T17:51:03.000Z</time>
      </trkpt>
      <trkpt lat="45.99082" lon="6.75201">
        <ele>1869.5</ele>
        <time>2000-01-02T17:51:13.000Z</time>
      </trkpt>
      <trkpt lat="45.99079" lon="6.75199">
        <ele>1869.3</ele>
        <time>2000-01-02T17:51:23.000Z</time>
      </trkpt>
      <trkpt lat="45.99074" lon="6.75198">
        <ele>1869.3</ele>
        <time>2000-01-02T17:51:33.000Z</time>
      </trkpt>
      <trkpt lat="45.99064" lon="6.75194">
        <ele>1868</ele>
        <time>2000-01-02T17:51:43.000Z</time>
      </trkpt>
      <trkpt lat="45.99051" lon="6.75189">
        <ele>1869.2</ele>
        <time>2000-01-02T17:51:53.000Z</time>
      </trkpt>
      <trkpt lat="45.99034" lon="6.75182">
        <ele>1868</ele>
        <time>2000-01-02T17:52:03.000Z</time>
      </trkpt>
      <trkpt lat="45.99031" lon="6.75181">
        <ele>1869.1</ele>
        <time>2000-01-02T17:52:13.000Z</time>
      </trkpt>
      <trkpt lat="45.99031" lon="6.75178">
        <ele>1869.1</ele>
        <time>2000-01-02T17:52:23.000Z</time>
      </trkpt>
      <trkpt lat="45.99031" lon="6.75176">
        <ele>1869.1</ele>
        <time>2000-01-02T17:52:33.000Z</time>
      </trkpt>
      <trkpt lat="45.99031" lon="6.75174">
        <ele>1869.1</ele>
        <time>2000-01-02T17:52:43.000Z</time>
      </trkpt>
      <trkpt lat="45.99032" lon="6.75172">
        <ele>1869.1</ele>
        <time>2000-01-02T17:52:53.000Z</time>
      </trkpt>
      <trkpt lat="45.99032" lon="6.7517">
        <ele>1869.1</ele>
        <time>2000-01-02T17:53:03.000Z</time>
      </trkpt>
      <trkpt lat="45.99033" lon="6.75168">
        <ele>1869.2</ele>
        <time>2000-01-02T17:53:13.000Z</time>
      </trkpt>
      <trkpt lat="45.99034" lon="6.75166">
        <ele>1869.3</ele>
        <time>2000-01-02T17:53:23.000Z</time>
      </trkpt>
      <trkpt lat="45.99035" lon="6.75164">
        <ele>1869.5</ele>
        <time>2000-01-02T17:53:33.000Z</time>
      </trkpt>
      <trkpt lat="45.99035" lon="6.75162">
        <ele>1869.7</ele>
        <time>2000-01-02T17:53:43.000Z</time>
      </trkpt>
      <trkpt lat="45.99036" lon="6.75161">
        <ele>1869.8</ele>
        <time>2000-01-02T17:53:53.000Z</time>
      </trkpt>
      <trkpt lat="45.99037" lon="6.75159">
        <ele>1870</ele>
        <time>2000-01-02T17:54:03.000Z</time>
      </trkpt>
      <trkpt lat="45.99038" lon="6.75157">
        <ele>1870.3</ele>
        <time>2000-01-02T17:54:13.000Z</time>
      </trkpt>
      <trkpt lat="45.99038" lon="6.75155">
        <ele>1870.5</ele>
        <time>2000-01-02T17:54:23.000Z</time>
      </trkpt>
      <trkpt lat="45.99039" lon="6.75152">
        <ele>1870.8</ele>
        <time>2000-01-02T17:54:33.000Z</time>
      </trkpt>
      <trkpt lat="45.99039" lon="6.7515">
        <ele>1871</ele>
        <time>2000-01-02T17:54:43.000Z</time>
      </trkpt>
      <trkpt lat="45.9904" lon="6.75148">
        <ele>1871.2</ele>
        <time>2000-01-02T17:54:53.000Z</time>
      </trkpt>
      <trkpt lat="45.99041" lon="6.75146">
        <ele>1871.4</ele>
        <time>2000-01-02T17:55:03.000Z</time>
      </trkpt>
      <trkpt lat="45.99041" lon="6.75145">
        <ele>1871.4</ele>
        <time>2000-01-02T17:55:13.000Z</time>
      </trkpt>
      <trkpt lat="45.99042" lon="6.75142">
        <ele>1871.7</ele>
        <time>2000-01-02T17:55:23.000Z</time>
      </trkpt>
      <trkpt lat="45.99042" lon="6.75141">
        <ele>1871.8</ele>
        <time>2000-01-02T17:55:33.000Z</time>
      </trkpt>
      <trkpt lat="45.99043" lon="6.75139">
        <ele>1872</ele>
        <time>2000-01-02T17:55:43.000Z</time>
      </trkpt>
      <trkpt lat="45.99044" lon="6.75137">
        <ele>1872.3</ele>
        <time>2000-01-02T17:55:53.000Z</time>
      </trkpt>
      <trkpt lat="45.99044" lon="6.75135">
        <ele>1872.6</ele>
        <time>2000-01-02T17:56:03.000Z</time>
      </trkpt>
      <trkpt lat="45.99045" lon="6.75133">
        <ele>1872</ele>
        <time>2000-01-02T17:56:13.000Z</time>
      </trkpt>
      <trkpt lat="45.99045" lon="6.75131">
        <ele>1873.1</ele>
        <time>2000-01-02T17:56:23.000Z</time>
      </trkpt>
      <trkpt lat="45.99046" lon="6.75129">
        <ele>1873.4</ele>
        <time>2000-01-02T17:56:33.000Z</time>
      </trkpt>
      <trkpt lat="45.99046" lon="6.75127">
        <ele>1873.7</ele>
        <time>2000-01-02T17:56:43.000Z</time>
      </trkpt>
      <trkpt lat="45.99047" lon="6.75125">
        <ele>1874</ele>
        <time>2000-01-02T17:56:53.000Z</time>
      </trkpt>
      <trkpt lat="45.99048" lon="6.75124">
        <ele>1874.1</ele>
        <time>2000-01-02T17:57:03.000Z</time>
      </trkpt>
      <trkpt lat="45.99049" lon="6.75122">
        <ele>1874.4</ele>
        <time>2000-01-02T17:57:13.000Z</time>
      </trkpt>
      <trkpt lat="45.9905" lon="6.75121">
        <ele>1874.6</ele>
        <time>2000-01-02T17:57:23.000Z</time>
      </trkpt>
      <trkpt lat="45.9905" lon="6.75119">
        <ele>1874.9</ele>
        <time>2000-01-02T17:57:33.000Z</time>
      </trkpt>
      <trkpt lat="45.9905" lon="6.75118">
        <ele>1875</ele>
        <time>2000-01-02T17:57:43.000Z</time>
      </trkpt>
      <trkpt lat="45.9905" lon="6.75117">
        <ele>1875.2</ele>
        <time>2000-01-02T17:57:53.000Z</time>
      </trkpt>
      <trkpt lat="45.9905" lon="6.75117">
        <ele>1875.2</ele>
        <time>2000-01-02T17:58:03.000Z</time>
      </trkpt>
      <trkpt lat="45.99049" lon="6.75116">
        <ele>1875.3</ele>
        <time>2000-01-02T17:58:13.000Z</time>
      </trkpt>
      <trkpt lat="45.99049" lon="6.75115">
        <ele>1875.4</ele>
        <time>2000-01-02T17:58:23.000Z</time>
      </trkpt>
      <trkpt lat="45.99048" lon="6.75114">
        <ele>1875.6</ele>
        <time>2000-01-02T17:58:33.000Z</time>
      </trkpt>
      <trkpt lat="45.99048" lon="6.75114">
        <ele>1875.6</ele>
        <time>2000-01-02T17:58:43.000Z</time>
      </trkpt>
      <trkpt lat="45.99048" lon="6.75113">
        <ele>1875.7</ele>
        <time>2000-01-02T17:58:53.000Z</time>
      </trkpt>
      <trkpt lat="45.99047" lon="6.75112">
        <ele>1875.9</ele>
        <time>2000-01-02T17:59:03.000Z</time>
      </trkpt>
      <trkpt lat="45.99047" lon="6.75111">
        <ele>1876</ele>
        <time>2000-01-02T17:59:13.000Z</time>
      </trkpt>
      <trkpt lat="45.99047" lon="6.7511">
        <ele>1874</ele>
        <time>2000-01-02T17:59:23.000Z</time>
      </trkpt>
      <trkpt lat="45.99046" lon="6.7511">
        <ele>1876.2</ele>
        <time>2000-01-02T17:59:33.000Z</time>
      </trkpt>
      <trkpt lat="45.99046" lon="6.75109">
        <ele>1876.3</ele>
        <time>2000-01-02T17:59:43.000Z</time>
      </trkpt>
      <trkpt lat="45.99046" lon="6.75108">
        <ele>1876.5</ele>
        <time>2000-01-02T17:59:53.000Z</time>
      </trkpt>
      <trkpt lat="45.99046" lon="6.75107">
        <ele>1876.6</ele>
        <time>2000-01-02T18:00:03.000Z</time>
      </trkpt>
      <trkpt lat="45.99046" lon="6.75105">
        <ele>1876.9</ele>
        <time>2000-01-02T18:00:13.000Z</time>
      </trkpt>
      <trkpt lat="45.99047" lon="6.75104">
        <ele>1877.1</ele>
        <time>2000-01-02T18:00:23.000Z</time>
      </trkpt>
      <trkpt lat="45.99048" lon="6.75103">
        <ele>1877.4</ele>
        <time>2000-01-02T18:00:33.000Z</time>
      </trkpt>
      <trkpt lat="45.99048" lon="6.75102">
        <ele>1877.5</ele>
        <time>2000-01-02T18:00:43.000Z</time>
      </trkpt>
      <trkpt lat="45.99048" lon="6.751">
        <ele>1877.9</ele>
        <time>2000-01-02T18:00:53.000Z</time>
      </trkpt>
      <trkpt lat="45.99049" lon="6.75099">
        <ele>1878.1</ele>
        <time>2000-01-02T18:01:03.000Z</time>
      </trkpt>
      <trkpt lat="45.99049" lon="6.75098">
        <ele>1878.3</ele>
        <time>2000-01-02T18:01:13.000Z</time>
      </trkpt>
      <trkpt lat="45.9905" lon="6.75096">
        <ele>1878.7</ele>
        <time>2000-01-02T18:01:23.000Z</time>
      </trkpt>
      <trkpt lat="45.99051" lon="6.75095">
        <ele>1879</ele>
        <time>2000-01-02T18:01:33.000Z</time>
      </trkpt>
      <trkpt lat="45.99051" lon="6.75093">
        <ele>1879.4</ele>
        <time>2000-01-02T18:01:43.000Z</time>
      </trkpt>
      <trkpt lat="45.99051" lon="6.75092">
        <ele>1879.6</ele>
        <time>2000-01-02T18:01:53.000Z</time>
      </trkpt>
      <trkpt lat="45.99051" lon="6.7509">
        <ele>1879.9</ele>
        <time>2000-01-02T18:02:03.000Z</time>
      </trkpt>
      <trkpt lat="45.99051" lon="6.75088">
        <ele>1880.3</ele>
        <time>2000-01-02T18:02:13.000Z</time>
      </trkpt>
      <trkpt lat="45.99052" lon="6.75087">
        <ele>1880.7</ele>
        <time>2000-01-02T18:02:23.000Z</time>
      </trkpt>
      <trkpt lat="45.99052" lon="6.75085">
        <ele>1881</ele>
        <time>2000-01-02T18:02:33.000Z</time>
      </trkpt>
      <trkpt lat="45.99053" lon="6.75083">
        <ele>1881.6</ele>
        <time>2000-01-02T18:02:43.000Z</time>
      </trkpt>
      <trkpt lat="45.99054" lon="6.75082">
        <ele>1882</ele>
        <time>2000-01-02T18:02:53.000Z</time>
      </trkpt>
      <trkpt lat="45.99055" lon="6.75081">
        <ele>1882.4</ele>
        <time>2000-01-02T18:03:03.000Z</time>
      </trkpt>
      <trkpt lat="45.99055" lon="6.75079">
        <ele>1882.8</ele>
        <time>2000-01-02T18:03:13.000Z</time>
      </trkpt>
      <trkpt lat="45.99056" lon="6.75079">
        <ele>1883</ele>
        <time>2000-01-02T18:03:23.000Z</time>
      </trkpt>
      <trkpt lat="45.99058" lon="6.75079">
        <ele>1883.2</ele>
        <time>2000-01-02T18:03:33.000Z</time>
      </trkpt>
      <trkpt lat="45.99059" lon="6.75078">
        <ele>1883.5</ele>
        <time>2000-01-02T18:03:43.000Z</time>
      </trkpt>
      <trkpt lat="45.99059" lon="6.75076">
        <ele>1883.9</ele>
        <time>2000-01-02T18:03:53.000Z</time>
      </trkpt>
      <trkpt lat="45.9906" lon="6.75073">
        <ele>1884.6</ele>
        <time>2000-01-02T18:04:03.000Z</time>
      </trkpt>
      <trkpt lat="45.9906" lon="6.75071">
        <ele>1885</ele>
        <time>2000-01-02T18:04:13.000Z</time>
      </trkpt>
      <trkpt lat="45.99059" lon="6.75069">
        <ele>1885.3</ele>
        <time>2000-01-02T18:04:23.000Z</time>
      </trkpt>
      <trkpt lat="45.99057" lon="6.75069">
        <ele>1885.2</ele>
        <time>2000-01-02T18:04:33.000Z</time>
      </trkpt>
      <trkpt lat="45.99056" lon="6.75067">
        <ele>1885.6</ele>
        <time>2000-01-02T18:04:43.000Z</time>
      </trkpt>
      <trkpt lat="45.99056" lon="6.75066">
        <ele>1886</ele>
        <time>2000-01-02T18:04:53.000Z</time>
      </trkpt>
      <trkpt lat="45.99056" lon="6.75065">
        <ele>1886</ele>
        <time>2000-01-02T18:05:03.000Z</time>
      </trkpt>
      <trkpt lat="45.99057" lon="6.75063">
        <ele>1886.5</ele>
        <time>2000-01-02T18:05:13.000Z</time>
      </trkpt>
      <trkpt lat="45.99058" lon="6.75062">
        <ele>1886.7</ele>
        <time>2000-01-02T18:05:23.000Z</time>
      </trkpt>
      <trkpt lat="45.99059" lon="6.7506">
        <ele>1887.2</ele>
        <time>2000-01-02T18:05:33.000Z</time>
      </trkpt>
      <trkpt lat="45.9906" lon="6.75058">
        <ele>1887.7</ele>
        <time>2000-01-02T18:05:43.000Z</time>
      </trkpt>
      <trkpt lat="45.99061" lon="6.75056">
        <ele>1888.1</ele>
        <time>2000-01-02T18:05:53.000Z</time>
      </trkpt>
      <trkpt lat="45.99062" lon="6.75054">
        <ele>1888.5</ele>
        <time>2000-01-02T18:06:03.000Z</time>
      </trkpt>
      <trkpt lat="45.99063" lon="6.75052">
        <ele>1888.9</ele>
        <time>2000-01-02T18:06:13.000Z</time>
      </trkpt>
      <trkpt lat="45.99065" lon="6.75051">
        <ele>1889.2</ele>
        <time>2000-01-02T18:06:23.000Z</time>
      </trkpt>
      <trkpt lat="45.99066" lon="6.75048">
        <ele>1889.8</ele>
        <time>2000-01-02T18:06:33.000Z</time>
      </trkpt>
      <trkpt lat="45.99066" lon="6.75046">
        <ele>1890.2</ele>
        <time>2000-01-02T18:06:43.000Z</time>
      </trkpt>
      <trkpt lat="45.99066" lon="6.75044">
        <ele>1891</ele>
        <time>2000-01-02T18:06:53.000Z</time>
      </trkpt>
      <trkpt lat="45.99066" lon="6.75042">
        <ele>1891</ele>
        <time>2000-01-02T18:07:03.000Z</time>
      </trkpt>
      <trkpt lat="45.99065" lon="6.7504">
        <ele>1891.3</ele>
        <time>2000-01-02T18:07:13.000Z</time>
      </trkpt>
      <trkpt lat="45.99064" lon="6.75038">
        <ele>1891.7</ele>
        <time>2000-01-02T18:07:23.000Z</time>
      </trkpt>
      <trkpt lat="45.99063" lon="6.75036">
        <ele>1892</ele>
        <time>2000-01-02T18:07:33.000Z</time>
      </trkpt>
      <trkpt lat="45.99062" lon="6.75033">
        <ele>1892.5</ele>
        <time>2000-01-02T18:07:43.000Z</time>
      </trkpt>
      <trkpt lat="45.99062" lon="6.75031">
        <ele>1892.9</ele>
        <time>2000-01-02T18:07:53.000Z</time>
      </trkpt>
      <trkpt lat="45.99061" lon="6.75029">
        <ele>1893.2</ele>
        <time>2000-01-02T18:08:03.000Z</time>
      </trkpt>
      <trkpt lat="45.99061" lon="6.75027">
        <ele>1893.6</ele>
        <time>2000-01-02T18:08:13.000Z</time>
      </trkpt>
      <trkpt lat="45.99061" lon="6.75025">
        <ele>1894</ele>
        <time>2000-01-02T18:08:23.000Z</time>
      </trkpt>
      <trkpt lat="45.99062" lon="6.75023">
        <ele>1894.5</ele>
        <time>2000-01-02T18:08:33.000Z</time>
      </trkpt>
      <trkpt lat="45.99064" lon="6.75022">
        <ele>1894.9</ele>
        <time>2000-01-02T18:08:43.000Z</time>
      </trkpt>
      <trkpt lat="45.99065" lon="6.75021">
        <ele>1894</ele>
        <time>2000-01-02T18:08:53.000Z</time>
      </trkpt>
      <trkpt lat="45.99066" lon="6.75021">
        <ele>1895.2</ele>
        <time>2000-01-02T18:09:03.000Z</time>
      </trkpt>
      <trkpt lat="45.99068" lon="6.7502">
        <ele>1895.6</ele>
        <time>2000-01-02T18:09:13.000Z</time>
      </trkpt>
      <trkpt lat="45.99069" lon="6.75019">
        <ele>1895.9</ele>
        <time>2000-01-02T18:09:23.000Z</time>
      </trkpt>
      <trkpt lat="45.9907" lon="6.75018">
        <ele>1896.2</ele>
        <time>2000-01-02T18:09:33.000Z</time>
      </trkpt>
      <trkpt lat="45.99071" lon="6.75016">
        <ele>1896.7</ele>
        <time>2000-01-02T18:09:43.000Z</time>
      </trkpt>
      <trkpt lat="45.99071" lon="6.75014">
        <ele>1897.1</ele>
        <time>2000-01-02T18:09:53.000Z</time>
      </trkpt>
      <trkpt lat="45.99072" lon="6.75012">
        <ele>1897.6</ele>
        <time>2000-01-02T18:10:03.000Z</time>
      </trkpt>
      <trkpt lat="45.99071" lon="6.75011">
        <ele>1897.7</ele>
        <time>2000-01-02T18:10:13.000Z</time>
      </trkpt>
      <trkpt lat="45.99072" lon="6.75008">
        <ele>1898.5</ele>
        <time>2000-01-02T18:10:23.000Z</time>
      </trkpt>
      <trkpt lat="45.99072" lon="6.75007">
        <ele>1898.7</ele>
        <time>2000-01-02T18:10:33.000Z</time>
      </trkpt>
      <trkpt lat="45.99074" lon="6.75006">
        <ele>1899</ele>
        <time>2000-01-02T18:10:43.000Z</time>
      </trkpt>
      <trkpt lat="45.99075" lon="6.75004">
        <ele>1899.5</ele>
        <time>2000-01-02T18:10:53.000Z</time>
      </trkpt>
      <trkpt lat="45.99076" lon="6.75003">
        <ele>1899</ele>
        <time>2000-01-02T18:11:03.000Z</time>
      </trkpt>
      <trkpt lat="45.99076" lon="6.75001">
        <ele>1900.3</ele>
        <time>2000-01-02T18:11:13.000Z</time>
      </trkpt>
      <trkpt lat="45.99077" lon="6.74999">
        <ele>1900.8</ele>
        <time>2000-01-02T18:11:23.000Z</time>
      </trkpt>
      <trkpt lat="45.99078" lon="6.74998">
        <ele>1901.2</ele>
        <time>2000-01-02T18:11:33.000Z</time>
      </trkpt>
      <trkpt lat="45.99079" lon="6.74997">
        <ele>1901.5</ele>
        <time>2000-01-02T18:11:43.000Z</time>
      </trkpt>
      <trkpt lat="45.9908" lon="6.74996">
        <ele>1901.9</ele>
        <time>2000-01-02T18:11:53.000Z</time>
      </trkpt>
      <trkpt lat="45.99081" lon="6.74994">
        <ele>1902.5</ele>
        <time>2000-01-02T18:12:03.000Z</time>
      </trkpt>
      <trkpt lat="45.99081" lon="6.74992">
        <ele>1903.1</ele>
        <time>2000-01-02T18:12:13.000Z</time>
      </trkpt>
      <trkpt lat="45.99082" lon="6.74991">
        <ele>1903.5</ele>
        <time>2000-01-02T18:12:23.000Z</time>
      </trkpt>
      <trkpt lat="45.99082" lon="6.74989">
        <ele>1904.1</ele>
        <time>2000-01-02T18:12:33.000Z</time>
      </trkpt>
      <trkpt lat="45.99082" lon="6.74988">
        <ele>1904.3</ele>
        <time>2000-01-02T18:12:43.000Z</time>
      </trkpt>
      <trkpt lat="45.99082" lon="6.74986">
        <ele>1904.9</ele>
        <time>2000-01-02T18:12:53.000Z</time>
      </trkpt>
      <trkpt lat="45.99083" lon="6.74985">
        <ele>1905.3</ele>
        <time>2000-01-02T18:13:03.000Z</time>
      </trkpt>
      <trkpt lat="45.99084" lon="6.74985">
        <ele>1905.4</ele>
        <time>2000-01-02T18:13:13.000Z</time>
      </trkpt>
      <trkpt lat="45.99086" lon="6.74985">
        <ele>1905.7</ele>
        <time>2000-01-02T18:13:23.000Z</time>
      </trkpt>
      <trkpt lat="45.99087" lon="6.74985">
        <ele>1906</ele>
        <time>2000-01-02T18:13:33.000Z</time>
      </trkpt>
      <trkpt lat="45.99088" lon="6.74984">
        <ele>1906.2</ele>
        <time>2000-01-02T18:13:43.000Z</time>
      </trkpt>
      <trkpt lat="45.99088" lon="6.74982">
        <ele>1906.8</ele>
        <time>2000-01-02T18:13:53.000Z</time>
      </trkpt>
      <trkpt lat="45.99089" lon="6.7498">
        <ele>1907.5</ele>
        <time>2000-01-02T18:14:03.000Z</time>
      </trkpt>
      <trkpt lat="45.9909" lon="6.74979">
        <ele>1907.9</ele>
        <time>2000-01-02T18:14:13.000Z</time>
      </trkpt>
      <trkpt lat="45.99092" lon="6.74979">
        <ele>1908.2</ele>
        <time>2000-01-02T18:14:23.000Z</time>
      </trkpt>
      <trkpt lat="45.99093" lon="6.74978">
        <ele>1908.7</ele>
        <time>2000-01-02T18:14:33.000Z</time>
      </trkpt>
      <trkpt lat="45.99093" lon="6.74976">
        <ele>1909.3</ele>
        <time>2000-01-02T18:14:43.000Z</time>
      </trkpt>
      <trkpt lat="45.99094" lon="6.74975">
        <ele>1909.7</ele>
        <time>2000-01-02T18:14:53.000Z</time>
      </trkpt>
      <trkpt lat="45.99095" lon="6.74974">
        <ele>1910.1</ele>
        <time>2000-01-02T18:15:03.000Z</time>
      </trkpt>
      <trkpt lat="45.99096" lon="6.74972">
        <ele>1910.9</ele>
        <time>2000-01-02T18:15:13.000Z</time>
      </trkpt>
      <trkpt lat="45.99096" lon="6.74971">
        <ele>1911.2</ele>
        <time>2000-01-02T18:15:23.000Z</time>
      </trkpt>
      <trkpt lat="45.99097" lon="6.74969">
        <ele>1912</ele>
        <time>2000-01-02T18:15:33.000Z</time>
      </trkpt>
      <trkpt lat="45.99098" lon="6.74968">
        <ele>1912.5</ele>
        <time>2000-01-02T18:15:43.000Z</time>
      </trkpt>
      <trkpt lat="45.99098" lon="6.74966">
        <ele>1913.1</ele>
        <time>2000-01-02T18:15:53.000Z</time>
      </trkpt>
      <trkpt lat="45.99099" lon="6.74965">
        <ele>1913</ele>
        <time>2000-01-02T18:16:03.000Z</time>
      </trkpt>
      <trkpt lat="45.991" lon="6.74964">
        <ele>1914.1</ele>
        <time>2000-01-02T18:16:13.000Z</time>
      </trkpt>
      <trkpt lat="45.99101" lon="6.74963">
        <ele>1914.5</ele>
        <time>2000-01-02T18:16:23.000Z</time>
      </trkpt>
      <trkpt lat="45.99102" lon="6.74961">
        <ele>1915.3</ele>
        <time>2000-01-02T18:16:33.000Z</time>
      </trkpt>
      <trkpt lat="45.99103" lon="6.7496">
        <ele>1915.8</ele>
        <time>2000-01-02T18:16:43.000Z</time>
      </trkpt>
      <trkpt lat="45.99104" lon="6.74959">
        <ele>1916.3</ele>
        <time>2000-01-02T18:16:53.000Z</time>
      </trkpt>
      <trkpt lat="45.99105" lon="6.74958">
        <ele>1916.7</ele>
        <time>2000-01-02T18:17:03.000Z</time>
      </trkpt>
      <trkpt lat="45.99105" lon="6.74956">
        <ele>1917.4</ele>
        <time>2000-01-02T18:17:13.000Z</time>
      </trkpt>
      <trkpt lat="45.99105" lon="6.74954">
        <ele>1918</ele>
        <time>2000-01-02T18:17:23.000Z</time>
      </trkpt>
      <trkpt lat="45.99106" lon="6.74953">
        <ele>1918.5</ele>
        <time>2000-01-02T18:17:33.000Z</time>
      </trkpt>
      <trkpt lat="45.99107" lon="6.74952">
        <ele>1919</ele>
        <time>2000-01-02T18:17:43.000Z</time>
      </trkpt>
      <trkpt lat="45.99108" lon="6.74951">
        <ele>1919.4</ele>
        <time>2000-01-02T18:17:53.000Z</time>
      </trkpt>
      <trkpt lat="45.99109" lon="6.7495">
        <ele>1919.9</ele>
        <time>2000-01-02T18:18:03.000Z</time>
      </trkpt>
      <trkpt lat="45.9911" lon="6.74948">
        <ele>1920.7</ele>
        <time>2000-01-02T18:18:13.000Z</time>
      </trkpt>
      <trkpt lat="45.99111" lon="6.74947">
        <ele>1921.2</ele>
        <time>2000-01-02T18:18:23.000Z</time>
      </trkpt>
      <trkpt lat="45.99112" lon="6.74946">
        <ele>1923</ele>
        <time>2000-01-02T18:18:33.000Z</time>
      </trkpt>
      <trkpt lat="45.99113" lon="6.74946">
        <ele>1921.8</ele>
        <time>2000-01-02T18:18:43.000Z</time>
      </trkpt>
      <trkpt lat="45.99114" lon="6.74944">
        <ele>1922.7</ele>
        <time>2000-01-02T18:18:53.000Z</time>
      </trkpt>
      <trkpt lat="45.99115" lon="6.74942">
        <ele>1923.6</ele>
        <time>2000-01-02T18:19:03.000Z</time>
      </trkpt>
      <trkpt lat="45.99117" lon="6.74941">
        <ele>1924.3</ele>
        <time>2000-01-02T18:19:13.000Z</time>
      </trkpt>
      <trkpt lat="45.99119" lon="6.7494">
        <ele>1925</ele>
        <time>2000-01-02T18:19:23.000Z</time>
      </trkpt>
      <trkpt lat="45.99121" lon="6.74941">
        <ele>1925</ele>
        <time>2000-01-02T18:19:33.000Z</time>
      </trkpt>
      <trkpt lat="45.99128" lon="6.74945">
        <ele>1924.9</ele>
        <time>2000-01-02T18:19:43.000Z</time>
      </trkpt>
      <trkpt lat="45.99135" lon="6.74949">
        <ele>1926</ele>
        <time>2000-01-02T18:19:53.000Z</time>
      </trkpt>
      <trkpt lat="45.9914" lon="6.74949">
        <ele>1925.7</ele>
        <time>2000-01-02T18:20:03.000Z</time>
      </trkpt>
      <trkpt lat="45.99145" lon="6.7495">
        <ele>1926.1</ele>
        <time>2000-01-02T18:20:13.000Z</time>
      </trkpt>
      <trkpt lat="45.99152" lon="6.74949">
        <ele>1927.5</ele>
        <time>2000-01-02T18:20:23.000Z</time>
      </trkpt>
      <trkpt lat="45.99155" lon="6.7495">
        <ele>1929</ele>
        <time>2000-01-02T18:20:33.000Z</time>
      </trkpt>
      <trkpt lat="45.99159" lon="6.74952">
        <ele>1927.6</ele>
        <time>2000-01-02T18:20:43.000Z</time>
      </trkpt>
      <trkpt lat="45.99163" lon="6.74953">
        <ele>1928</ele>
        <time>2000-01-02T18:20:53.000Z</time>
      </trkpt>
      <trkpt lat="45.99166" lon="6.74955">
        <ele>1927.9</ele>
        <time>2000-01-02T18:21:03.000Z</time>
      </trkpt>
      <trkpt lat="45.99169" lon="6.74956">
        <ele>1927.9</ele>
        <time>2000-01-02T18:21:13.000Z</time>
      </trkpt>
      <trkpt lat="45.99174" lon="6.74955">
        <ele>1929</ele>
        <time>2000-01-02T18:21:23.000Z</time>
      </trkpt>
      <trkpt lat="45.99179" lon="6.74953">
        <ele>1930</ele>
        <time>2000-01-02T18:21:33.000Z</time>
      </trkpt>
      <trkpt lat="45.99182" lon="6.74951">
        <ele>1931.1</ele>
        <time>2000-01-02T18:21:43.000Z</time>
      </trkpt>
      <trkpt lat="45.99185" lon="6.74951">
        <ele>1931.4</ele>
        <time>2000-01-02T18:21:53.000Z</time>
      </trkpt>
      <trkpt lat="45.99188" lon="6.74953">
        <ele>1931.1</ele>
        <time>2000-01-02T18:22:03.000Z</time>
      </trkpt>
      <trkpt lat="45.9919" lon="6.74955">
        <ele>1930.7</ele>
        <time>2000-01-02T18:22:13.000Z</time>
      </trkpt>
      <trkpt lat="45.99193" lon="6.74956">
        <ele>1931</ele>
        <time>2000-01-02T18:22:23.000Z</time>
      </trkpt>
      <trkpt lat="45.99196" lon="6.74956">
        <ele>1930.9</ele>
        <time>2000-01-02T18:22:33.000Z</time>
      </trkpt>
      <trkpt lat="45.99199" lon="6.74956">
        <ele>1931.1</ele>
        <time>2000-01-02T18:22:43.000Z</time>
      </trkpt>
      <trkpt lat="45.99202" lon="6.74957">
        <ele>1930.9</ele>
        <time>2000-01-02T18:22:53.000Z</time>
      </trkpt>
      <trkpt lat="45.99207" lon="6.74957">
        <ele>1931.2</ele>
        <time>2000-01-02T18:23:03.000Z</time>
      </trkpt>
      <trkpt lat="45.99211" lon="6.74956">
        <ele>1931.8</ele>
        <time>2000-01-02T18:23:13.000Z</time>
      </trkpt>
      <trkpt lat="45.99215" lon="6.74956">
        <ele>1934</ele>
        <time>2000-01-02T18:23:23.000Z</time>
      </trkpt>
      <trkpt lat="45.99218" lon="6.74957">
        <ele>1931.8</ele>
        <time>2000-01-02T18:23:33.000Z</time>
      </trkpt>
      <trkpt lat="45.99221" lon="6.74956">
        <ele>1932.4</ele>
        <time>2000-01-02T18:23:43.000Z</time>
      </trkpt>
      <trkpt lat="45.99225" lon="6.74956">
        <ele>1932.8</ele>
        <time>2000-01-02T18:23:53.000Z</time>
      </trkpt>
      <trkpt lat="45.9923" lon="6.74957">
        <ele>1933.1</ele>
        <time>2000-01-02T18:24:03.000Z</time>
      </trkpt>
      <trkpt lat="45.99238" lon="6.7496">
        <ele>1933</ele>
        <time>2000-01-02T18:24:13.000Z</time>
      </trkpt>
      <trkpt lat="45.99245" lon="6.74963">
        <ele>1932.9</ele>
        <time>2000-01-02T18:24:23.000Z</time>
      </trkpt>
      <trkpt lat="45.9925" lon="6.74967">
        <ele>1932.1</ele>
        <time>2000-01-02T18:24:33.000Z</time>
      </trkpt>
      <trkpt lat="45.99252" lon="6.74968">
        <ele>1931.8</ele>
        <time>2000-01-02T18:24:43.000Z</time>
      </trkpt>
      <trkpt lat="45.99255" lon="6.74969">
        <ele>1931.7</ele>
        <time>2000-01-02T18:24:53.000Z</time>
      </trkpt>
      <trkpt lat="45.99258" lon="6.74967">
        <ele>1933</ele>
        <time>2000-01-02T18:25:03.000Z</time>
      </trkpt>
      <trkpt lat="45.99262" lon="6.74966">
        <ele>1933.4</ele>
        <time>2000-01-02T18:25:13.000Z</time>
      </trkpt>
      <trkpt lat="45.99266" lon="6.74965">
        <ele>1934.2</ele>
        <time>2000-01-02T18:25:23.000Z</time>
      </trkpt>
      <trkpt lat="45.99269" lon="6.74964">
        <ele>1934.8</ele>
        <time>2000-01-02T18:25:33.000Z</time>
      </trkpt>
      <trkpt lat="45.99272" lon="6.74965">
        <ele>1934.6</ele>
        <time>2000-01-02T18:25:43.000Z</time>
      </trkpt>
      <trkpt lat="45.99276" lon="6.74966">
        <ele>1934.5</ele>
        <time>2000-01-02T18:25:53.000Z</time>
      </trkpt>
      <trkpt lat="45.9928" lon="6.74965">
        <ele>1936</ele>
        <time>2000-01-02T18:26:03.000Z</time>
      </trkpt>
      <trkpt lat="45.99287" lon="6.74964">
        <ele>1936.2</ele>
        <time>2000-01-02T18:26:13.000Z</time>
      </trkpt>
      <trkpt lat="45.99295" lon="6.74963">
        <ele>1937.2</ele>
        <time>2000-01-02T18:26:23.000Z</time>
      </trkpt>
      <trkpt lat="45.99303" lon="6.74964">
        <ele>1937</ele>
        <time>2000-01-02T18:26:33.000Z</time>
      </trkpt>
      <trkpt lat="45.99312" lon="6.74962">
        <ele>1939.3</ele>
        <time>2000-01-02T18:26:43.000Z</time>
      </trkpt>
      <trkpt lat="45.9932" lon="6.7496">
        <ele>1941.1</ele>
        <time>2000-01-02T18:26:53.000Z</time>
      </trkpt>
      <trkpt lat="45.99328" lon="6.7496">
        <ele>1939</ele>
        <time>2000-01-02T18:27:03.000Z</time>
      </trkpt>
      <trkpt lat="45.99336" lon="6.74963">
        <ele>1941.9</ele>
        <time>2000-01-02T18:27:13.000Z</time>
      </trkpt>
      <trkpt lat="45.99346" lon="6.74969">
        <ele>1940.6</ele>
        <time>2000-01-02T18:27:23.000Z</time>
      </trkpt>
      <trkpt lat="45.99357" lon="6.74973">
        <ele>1941</ele>
        <time>2000-01-02T18:27:33.000Z</time>
      </trkpt>
      <trkpt lat="45.99369" lon="6.74971">
        <ele>1941.5</ele>
        <time>2000-01-02T18:27:43.000Z</time>
      </trkpt>
      <trkpt lat="45.9938" lon="6.74966">
        <ele>1944</ele>
        <time>2000-01-02T18:27:53.000Z</time>
      </trkpt>
      <trkpt lat="45.99389" lon="6.74963">
        <ele>1944</ele>
        <time>2000-01-02T18:28:03.000Z</time>
      </trkpt>
      <trkpt lat="45.99396" lon="6.74958">
        <ele>1945.4</ele>
        <time>2000-01-02T18:28:13.000Z</time>
      </trkpt>
      <trkpt lat="45.99404" lon="6.74953">
        <ele>1947</ele>
        <time>2000-01-02T18:28:23.000Z</time>
      </trkpt>
      <trkpt lat="45.9941" lon="6.74945">
        <ele>1949.1</ele>
        <time>2000-01-02T18:28:33.000Z</time>
      </trkpt>
      <trkpt lat="45.99419" lon="6.74943">
        <ele>1950</ele>
        <time>2000-01-02T18:28:43.000Z</time>
      </trkpt>
      <trkpt lat="45.99428" lon="6.74942">
        <ele>1950</ele>
        <time>2000-01-02T18:28:53.000Z</time>
      </trkpt>
      <trkpt lat="45.9944" lon="6.7494">
        <ele>1953.4</ele>
        <time>2000-01-02T18:29:03.000Z</time>
      </trkpt>
      <trkpt lat="45.99448" lon="6.74936">
        <ele>1956</ele>
        <time>2000-01-02T18:29:13.000Z</time>
      </trkpt>
      <trkpt lat="45.99457" lon="6.74934">
        <ele>1956.1</ele>
        <time>2000-01-02T18:29:23.000Z</time>
      </trkpt>
      <trkpt lat="45.99464" lon="6.74929">
        <ele>1958.1</ele>
        <time>2000-01-02T18:29:33.000Z</time>
      </trkpt>
      <trkpt lat="45.99469" lon="6.74922">
        <ele>1961</ele>
        <time>2000-01-02T18:29:43.000Z</time>
      </trkpt>
      <trkpt lat="45.99475" lon="6.74913">
        <ele>1964.6</ele>
        <time>2000-01-02T18:29:53.000Z</time>
      </trkpt>
      <trkpt lat="45.99481" lon="6.74911">
        <ele>1965.4</ele>
        <time>2000-01-02T18:30:03.000Z</time>
      </trkpt>
      <trkpt lat="45.99486" lon="6.74905">
        <ele>1969</ele>
        <time>2000-01-02T18:30:13.000Z</time>
      </trkpt>
      <trkpt lat="45.99493" lon="6.74903">
        <ele>1968.9</ele>
        <time>2000-01-02T18:30:23.000Z</time>
      </trkpt>
      <trkpt lat="45.99499" lon="6.749">
        <ele>1970.2</ele>
        <time>2000-01-02T18:30:33.000Z</time>
      </trkpt>
      <trkpt lat="45.99505" lon="6.74896">
        <ele>1974</ele>
        <time>2000-01-02T18:30:43.000Z</time>
      </trkpt>
      <trkpt lat="45.99512" lon="6.74897">
        <ele>1972.1</ele>
        <time>2000-01-02T18:30:53.000Z</time>
      </trkpt>
      <trkpt lat="45.99521" lon="6.74899">
        <ele>1971.7</ele>
        <time>2000-01-02T18:31:03.000Z</time>
      </trkpt>
      <trkpt lat="45.99526" lon="6.74898">
        <ele>1975</ele>
        <time>2000-01-02T18:31:13.000Z</time>
      </trkpt>
      <trkpt lat="45.99532" lon="6.74897">
        <ele>1972.9</ele>
        <time>2000-01-02T18:31:23.000Z</time>
      </trkpt>
      <trkpt lat="45.99537" lon="6.74894">
        <ele>1974.2</ele>
        <time>2000-01-02T18:31:33.000Z</time>
      </trkpt>
      <trkpt lat="45.99546" lon="6.74893">
        <ele>1976</ele>
        <time>2000-01-02T18:31:43.000Z</time>
      </trkpt>
      <trkpt lat="45.99553" lon="6.74891">
        <ele>1976</ele>
        <time>2000-01-02T18:31:53.000Z</time>
      </trkpt>
      <trkpt lat="45.99559" lon="6.74891">
        <ele>1976.1</ele>
        <time>2000-01-02T18:32:03.000Z</time>
      </trkpt>
      <trkpt lat="45.99565" lon="6.74889">
        <ele>1980</ele>
        <time>2000-01-02T18:32:13.000Z</time>
      </trkpt>
      <trkpt lat="45.9957" lon="6.74888">
        <ele>1977.4</ele>
        <time>2000-01-02T18:32:23.000Z</time>
      </trkpt>
      <trkpt lat="45.99574" lon="6.74886">
        <ele>1978.4</ele>
        <time>2000-01-02T18:32:33.000Z</time>
      </trkpt>
      <trkpt lat="45.99577" lon="6.74882">
        <ele>1980.4</ele>
        <time>2000-01-02T18:32:43.000Z</time>
      </trkpt>
      <trkpt lat="45.99581" lon="6.74879">
        <ele>1982</ele>
        <time>2000-01-02T18:32:53.000Z</time>
      </trkpt>
      <trkpt lat="45.99584" lon="6.74879">
        <ele>1981</ele>
        <time>2000-01-02T18:33:03.000Z</time>
      </trkpt>
      <trkpt lat="45.99587" lon="6.74881">
        <ele>1981.4</ele>
        <time>2000-01-02T18:33:13.000Z</time>
      </trkpt>
      <trkpt lat="45.99591" lon="6.74883">
        <ele>1981</ele>
        <time>2000-01-02T18:33:23.000Z</time>
      </trkpt>
      <trkpt lat="45.99599" lon="6.74886">
        <ele>1980.6</ele>
        <time>2000-01-02T18:33:33.000Z</time>
      </trkpt>
      <trkpt lat="45.99602" lon="6.74888">
        <ele>1982</ele>
        <time>2000-01-02T18:33:43.000Z</time>
      </trkpt>
      <trkpt lat="45.99606" lon="6.74888">
        <ele>1980.7</ele>
        <time>2000-01-02T18:33:53.000Z</time>
      </trkpt>
      <trkpt lat="45.99609" lon="6.74888">
        <ele>1981.1</ele>
        <time>2000-01-02T18:34:03.000Z</time>
      </trkpt>
      <trkpt lat="45.99611" lon="6.74886">
        <ele>1982.2</ele>
        <time>2000-01-02T18:34:13.000Z</time>
      </trkpt>
      <trkpt lat="45.99615" lon="6.74883">
        <ele>1983.9</ele>
        <time>2000-01-02T18:34:23.000Z</time>
      </trkpt>
      <trkpt lat="45.9962" lon="6.74882">
        <ele>1984.9</ele>
        <time>2000-01-02T18:34:33.000Z</time>
      </trkpt>
      <trkpt lat="45.99626" lon="6.74882">
        <ele>1984</ele>
        <time>2000-01-02T18:34:43.000Z</time>
      </trkpt>
      <trkpt lat="45.99629" lon="6.74881">
        <ele>1986.2</ele>
        <time>2000-01-02T18:34:53.000Z</time>
      </trkpt>
      <trkpt lat="45.99633" lon="6.7488">
        <ele>1987</ele>
        <time>2000-01-02T18:35:03.000Z</time>
      </trkpt>
      <trkpt lat="45.99636" lon="6.74881">
        <ele>1986.8</ele>
        <time>2000-01-02T18:35:13.000Z</time>
      </trkpt>
      <trkpt lat="45.9964" lon="6.74881">
        <ele>1987.3</ele>
        <time>2000-01-02T18:35:23.000Z</time>
      </trkpt>
      <trkpt lat="45.99645" lon="6.7488">
        <ele>1990</ele>
        <time>2000-01-02T18:35:33.000Z</time>
      </trkpt>
      <trkpt lat="45.99648" lon="6.74876">
        <ele>1990.1</ele>
        <time>2000-01-02T18:35:43.000Z</time>
      </trkpt>
      <trkpt lat="45.9965" lon="6.74874">
        <ele>1991.1</ele>
        <time>2000-01-02T18:35:53.000Z</time>
      </trkpt>
      <trkpt lat="45.99655" lon="6.74873">
        <ele>1991.9</ele>
        <time>2000-01-02T18:36:03.000Z</time>
      </trkpt>
      <trkpt lat="45.99661" lon="6.74871">
        <ele>1993.2</ele>
        <time>2000-01-02T18:36:13.000Z</time>
      </trkpt>
      <trkpt lat="45.99669" lon="6.74867">
        <ele>1998</ele>
        <time>2000-01-02T18:36:23.000Z</time>
      </trkpt>
      <trkpt lat="45.99676" lon="6.74865">
        <ele>1997.4</ele>
        <time>2000-01-02T18:36:33.000Z</time>
      </trkpt>
      <trkpt lat="45.99681" lon="6.74864">
        <ele>1998.6</ele>
        <time>2000-01-02T18:36:43.000Z</time>
      </trkpt>
      <trkpt lat="45.99686" lon="6.74865">
        <ele>1999.2</ele>
        <time>2000-01-02T18:36:53.000Z</time>
      </trkpt>
      <trkpt lat="45.99692" lon="6.74866">
        <ele>2002</ele>
        <time>2000-01-02T18:37:03.000Z</time>
      </trkpt>
      <trkpt lat="45.99692" lon="6.74866">
        <ele>2000</ele>
        <time>2000-01-02T18:37:13.000Z</time>
      </trkpt>
      <trkpt lat="45.99692" lon="6.74866">
        <ele>2000</ele>
        <time>2000-01-02T18:37:23.000Z</time>
      </trkpt>
      <trkpt lat="45.99698" lon="6.74865">
        <ele>2001.1</ele>
        <time>2000-01-02T18:37:33.000Z</time>
      </trkpt>
      <trkpt lat="45.99704" lon="6.74863">
        <ele>2002.4</ele>
        <time>2000-01-02T18:37:43.000Z</time>
      </trkpt>
      <trkpt lat="45.99707" lon="6.74861">
        <ele>2003.4</ele>
        <time>2000-01-02T18:37:53.000Z</time>
      </trkpt>
      <trkpt lat="45.9971" lon="6.74858">
        <ele>2008</ele>
        <time>2000-01-02T18:38:03.000Z</time>
      </trkpt>
      <trkpt lat="45.99715" lon="6.74858">
        <ele>2005.6</ele>
        <time>2000-01-02T18:38:13.000Z</time>
      </trkpt>
      <trkpt lat="45.99717" lon="6.74856">
        <ele>2006.7</ele>
        <time>2000-01-02T18:38:23.000Z</time>
      </trkpt>
      <trkpt lat="45.9972" lon="6.74852">
        <ele>2008.7</ele>
        <time>2000-01-02T18:38:33.000Z</time>
      </trkpt>
      <trkpt lat="45.99726" lon="6.7485">
        <ele>2010</ele>
        <time>2000-01-02T18:38:43.000Z</time>
      </trkpt>
      <trkpt lat="45.99729" lon="6.74852">
        <ele>2008</ele>
        <time>2000-01-02T18:38:53.000Z</time>
      </trkpt>
      <trkpt lat="45.99731" lon="6.74854">
        <ele>2008.5</ele>
        <time>2000-01-02T18:39:03.000Z</time>
      </trkpt>
      <trkpt lat="45.99735" lon="6.74853">
        <ele>2009.1</ele>
        <time>2000-01-02T18:39:13.000Z</time>
      </trkpt>
      <trkpt lat="45.99738" lon="6.74851">
        <ele>2010.1</ele>
        <time>2000-01-02T18:39:23.000Z</time>
      </trkpt>
      <trkpt lat="45.99742" lon="6.74851">
        <ele>2010.3</ele>
        <time>2000-01-02T18:39:33.000Z</time>
      </trkpt>
      <trkpt lat="45.99746" lon="6.74851">
        <ele>2010.5</ele>
        <time>2000-01-02T18:39:43.000Z</time>
      </trkpt>
      <trkpt lat="45.9975" lon="6.74848">
        <ele>2014</ele>
        <time>2000-01-02T18:39:53.000Z</time>
      </trkpt>
      <trkpt lat="45.99756" lon="6.74847">
        <ele>2013</ele>
        <time>2000-01-02T18:40:03.000Z</time>
      </trkpt>
      <trkpt lat="45.99761" lon="6.74848">
        <ele>2013</ele>
        <time>2000-01-02T18:40:13.000Z</time>
      </trkpt>
      <trkpt lat="45.99764" lon="6.74847">
        <ele>2013.6</ele>
        <time>2000-01-02T18:40:23.000Z</time>
      </trkpt>
      <trkpt lat="45.9977" lon="6.74841">
        <ele>2016</ele>
        <time>2000-01-02T18:40:33.000Z</time>
      </trkpt>
      <trkpt lat="45.99772" lon="6.7484">
        <ele>2017.1</ele>
        <time>2000-01-02T18:40:43.000Z</time>
      </trkpt>
      <trkpt lat="45.99777" lon="6.7484">
        <ele>2017.3</ele>
        <time>2000-01-02T18:40:53.000Z</time>
      </trkpt>
      <trkpt lat="45.99779" lon="6.74839">
        <ele>2017.8</ele>
        <time>2000-01-02T18:41:03.000Z</time>
      </trkpt>
      <trkpt lat="45.99783" lon="6.74835">
        <ele>2019.6</ele>
        <time>2000-01-02T18:41:13.000Z</time>
      </trkpt>
      <trkpt lat="45.99785" lon="6.74834">
        <ele>2020</ele>
        <time>2000-01-02T18:41:23.000Z</time>
      </trkpt>
      <trkpt lat="45.99789" lon="6.74829">
        <ele>2026</ele>
        <time>2000-01-02T18:41:33.000Z</time>
      </trkpt>
      <trkpt lat="45.99791" lon="6.74828">
        <ele>2023.3</ele>
        <time>2000-01-02T18:41:43.000Z</time>
      </trkpt>
      <trkpt lat="45.99794" lon="6.74821">
        <ele>2027</ele>
        <time>2000-01-02T18:41:53.000Z</time>
      </trkpt>
      <trkpt lat="45.99798" lon="6.74815">
        <ele>2030.1</ele>
        <time>2000-01-02T18:42:03.000Z</time>
      </trkpt>
      <trkpt lat="45.99802" lon="6.74813">
        <ele>2031.2</ele>
        <time>2000-01-02T18:42:13.000Z</time>
      </trkpt>
      <trkpt lat="45.99809" lon="6.74814">
        <ele>2030</ele>
        <time>2000-01-02T18:42:23.000Z</time>
      </trkpt>
      <trkpt lat="45.99818" lon="6.74817">
        <ele>2031.5</ele>
        <time>2000-01-02T18:42:33.000Z</time>
      </trkpt>
      <trkpt lat="45.99823" lon="6.74818">
        <ele>2031.9</ele>
        <time>2000-01-02T18:42:43.000Z</time>
      </trkpt>
      <trkpt lat="45.99829" lon="6.74819">
        <ele>2032</ele>
        <time>2000-01-02T18:42:53.000Z</time>
      </trkpt>
      <trkpt lat="45.99835" lon="6.74822">
        <ele>2032</ele>
        <time>2000-01-02T18:43:03.000Z</time>
      </trkpt>
      <trkpt lat="45.9984" lon="6.74823">
        <ele>2032.4</ele>
        <time>2000-01-02T18:43:13.000Z</time>
      </trkpt>
      <trkpt lat="45.99849" lon="6.74823">
        <ele>2033</ele>
        <time>2000-01-02T18:43:23.000Z</time>
      </trkpt>
      <trkpt lat="45.99854" lon="6.74824">
        <ele>2034.4</ele>
        <time>2000-01-02T18:43:33.000Z</time>
      </trkpt>
      <trkpt lat="45.99863" lon="6.74822">
        <ele>2036.9</ele>
        <time>2000-01-02T18:43:43.000Z</time>
      </trkpt>
      <trkpt lat="45.99871" lon="6.74823">
        <ele>2039</ele>
        <time>2000-01-02T18:43:53.000Z</time>
      </trkpt>
      <trkpt lat="45.99881" lon="6.74823">
        <ele>2037.8</ele>
        <time>2000-01-02T18:44:03.000Z</time>
      </trkpt>
      <trkpt lat="45.99887" lon="6.74823">
        <ele>2038.3</ele>
        <time>2000-01-02T18:44:13.000Z</time>
      </trkpt>
      <trkpt lat="45.99891" lon="6.74822">
        <ele>2040</ele>
        <time>2000-01-02T18:44:23.000Z</time>
      </trkpt>
      <trkpt lat="45.99894" lon="6.74817">
        <ele>2041.3</ele>
        <time>2000-01-02T18:44:33.000Z</time>
      </trkpt>
      <trkpt lat="45.99896" lon="6.74811">
        <ele>2044</ele>
        <time>2000-01-02T18:44:43.000Z</time>
      </trkpt>
      <trkpt lat="45.99896" lon="6.74804">
        <ele>2046.4</ele>
        <time>2000-01-02T18:44:53.000Z</time>
      </trkpt>
      <trkpt lat="45.99895" lon="6.74794">
        <ele>2048</ele>
        <time>2000-01-02T18:45:03.000Z</time>
      </trkpt>
      <trkpt lat="45.99892" lon="6.74784">
        <ele>2048.4</ele>
        <time>2000-01-02T18:45:13.000Z</time>
      </trkpt>
      <trkpt lat="45.9989" lon="6.74773">
        <ele>2049.6</ele>
        <time>2000-01-02T18:45:23.000Z</time>
      </trkpt>
      <trkpt lat="45.9989" lon="6.74763">
        <ele>2050</ele>
        <time>2000-01-02T18:45:33.000Z</time>
      </trkpt>
      <trkpt lat="45.99893" lon="6.7475">
        <ele>2052.6</ele>
        <time>2000-01-02T18:45:43.000Z</time>
      </trkpt>
      <trkpt lat="45.99894" lon="6.74739">
        <ele>2054.8</ele>
        <time>2000-01-02T18:45:53.000Z</time>
      </trkpt>
      <trkpt lat="45.99896" lon="6.7473">
        <ele>2055</ele>
        <time>2000-01-02T18:46:03.000Z</time>
      </trkpt>
      <trkpt lat="45.99897" lon="6.74721">
        <ele>2058.7</ele>
        <time>2000-01-02T18:46:13.000Z</time>
      </trkpt>
      <trkpt lat="45.999" lon="6.74716">
        <ele>2060.3</ele>
        <time>2000-01-02T18:46:23.000Z</time>
      </trkpt>
      <trkpt lat="45.99904" lon="6.74715">
        <ele>2061.3</ele>
        <time>2000-01-02T18:46:33.000Z</time>
      </trkpt>
      <trkpt lat="45.99906" lon="6.74711">
        <ele>2062.5</ele>
        <time>2000-01-02T18:46:43.000Z</time>
      </trkpt>
      <trkpt lat="45.99907" lon="6.74706">
        <ele>2063</ele>
        <time>2000-01-02T18:46:53.000Z</time>
      </trkpt>
      <trkpt lat="45.99908" lon="6.747">
        <ele>2065.2</ele>
        <time>2000-01-02T18:47:03.000Z</time>
      </trkpt>
      <trkpt lat="45.99909" lon="6.74693">
        <ele>2066.9</ele>
        <time>2000-01-02T18:47:13.000Z</time>
      </trkpt>
      <trkpt lat="45.99913" lon="6.74688">
        <ele>2068.5</ele>
        <time>2000-01-02T18:47:23.000Z</time>
      </trkpt>
      <trkpt lat="45.99917" lon="6.74686">
        <ele>2069.6</ele>
        <time>2000-01-02T18:47:33.000Z</time>
      </trkpt>
      <trkpt lat="45.9992" lon="6.74684">
        <ele>2070</ele>
        <time>2000-01-02T18:47:43.000Z</time>
      </trkpt>
      <trkpt lat="45.99921" lon="6.74679">
        <ele>2071.4</ele>
        <time>2000-01-02T18:47:53.000Z</time>
      </trkpt>
      <trkpt lat="45.99926" lon="6.74674">
        <ele>2072.9</ele>
        <time>2000-01-02T18:48:03.000Z</time>
      </trkpt>
      <trkpt lat="45.99933" lon="6.74667">
        <ele>2074.7</ele>
        <time>2000-01-02T18:48:13.000Z</time>
      </trkpt>
      <trkpt lat="45.99938" lon="6.74663">
        <ele>2075</ele>
        <time>2000-01-02T18:48:23.000Z</time>
      </trkpt>
      <trkpt lat="45.9994" lon="6.74657">
        <ele>2077</ele>
        <time>2000-01-02T18:48:33.000Z</time>
      </trkpt>
      <trkpt lat="45.99941" lon="6.74654">
        <ele>2077.5</ele>
        <time>2000-01-02T18:48:43.000Z</time>
      </trkpt>
      <trkpt lat="45.99947" lon="6.7465">
        <ele>2078.5</ele>
        <time>2000-01-02T18:48:53.000Z</time>
      </trkpt>
      <trkpt lat="45.99955" lon="6.74643">
        <ele>2080</ele>
        <time>2000-01-02T18:49:03.000Z</time>
      </trkpt>
      <trkpt lat="45.99962" lon="6.74638">
        <ele>2080.8</ele>
        <time>2000-01-02T18:49:13.000Z</time>
      </trkpt>
      <trkpt lat="45.99967" lon="6.74633">
        <ele>2081.7</ele>
        <time>2000-01-02T18:49:23.000Z</time>
      </trkpt>
      <trkpt lat="45.99972" lon="6.74625">
        <ele>2083</ele>
        <time>2000-01-02T18:49:33.000Z</time>
      </trkpt>
      <trkpt lat="45.99977" lon="6.74623">
        <ele>2083.5</ele>
        <time>2000-01-02T18:49:43.000Z</time>
      </trkpt>
      <trkpt lat="45.99985" lon="6.74622">
        <ele>2083.9</ele>
        <time>2000-01-02T18:49:53.000Z</time>
      </trkpt>
      <trkpt lat="45.99991" lon="6.74622">
        <ele>2084</ele>
        <time>2000-01-02T18:50:03.000Z</time>
      </trkpt>
      <trkpt lat="45.99997" lon="6.74619">
        <ele>2084.8</ele>
        <time>2000-01-02T18:50:13.000Z</time>
      </trkpt>
      <trkpt lat="46.00005" lon="6.74615">
        <ele>2086.2</ele>
        <time>2000-01-02T18:50:23.000Z</time>
      </trkpt>
      <trkpt lat="46.00011" lon="6.74611">
        <ele>2087</ele>
        <time>2000-01-02T18:50:33.000Z</time>
      </trkpt>
      <trkpt lat="46.00018" lon="6.74606">
        <ele>2089.4</ele>
        <time>2000-01-02T18:50:43.000Z</time>
      </trkpt>
      <trkpt lat="46.00025" lon="6.74599">
        <ele>2091.4</ele>
        <time>2000-01-02T18:50:53.000Z</time>
      </trkpt>
      <trkpt lat="46.0003" lon="6.74597">
        <ele>2092</ele>
        <time>2000-01-02T18:51:03.000Z</time>
      </trkpt>
      <trkpt lat="46.00036" lon="6.74595">
        <ele>2093.8</ele>
        <time>2000-01-02T18:51:13.000Z</time>
      </trkpt>
      <trkpt lat="46.00044" lon="6.74595">
        <ele>2095.2</ele>
        <time>2000-01-02T18:51:23.000Z</time>
      </trkpt>
      <trkpt lat="46.00051" lon="6.74597">
        <ele>2097</ele>
        <time>2000-01-02T18:51:33.000Z</time>
      </trkpt>
      <trkpt lat="46.00057" lon="6.74597">
        <ele>2097.3</ele>
        <time>2000-01-02T18:51:43.000Z</time>
      </trkpt>
      <trkpt lat="46.00064" lon="6.74596">
        <ele>2099</ele>
        <time>2000-01-02T18:51:53.000Z</time>
      </trkpt>
      <trkpt lat="46.00072" lon="6.74595">
        <ele>2100</ele>
        <time>2000-01-02T18:52:03.000Z</time>
      </trkpt>
      <trkpt lat="46.00082" lon="6.74593">
        <ele>2103.3</ele>
        <time>2000-01-02T18:52:13.000Z</time>
      </trkpt>
      <trkpt lat="46.00091" lon="6.74593">
        <ele>2105</ele>
        <time>2000-01-02T18:52:23.000Z</time>
      </trkpt>
      <trkpt lat="46.00101" lon="6.74592">
        <ele>2107.4</ele>
        <time>2000-01-02T18:52:33.000Z</time>
      </trkpt>
      <trkpt lat="46.00105" lon="6.74592">
        <ele>2108.2</ele>
        <time>2000-01-02T18:52:43.000Z</time>
      </trkpt>
      <trkpt lat="46.0011" lon="6.74594">
        <ele>2109</ele>
        <time>2000-01-02T18:52:53.000Z</time>
      </trkpt>
      <trkpt lat="46.00116" lon="6.74595">
        <ele>2109.7</ele>
        <time>2000-01-02T18:53:03.000Z</time>
      </trkpt>
      <trkpt lat="46.00122" lon="6.74594">
        <ele>2110.8</ele>
        <time>2000-01-02T18:53:13.000Z</time>
      </trkpt>
      <trkpt lat="46.00131" lon="6.74596">
        <ele>2112</ele>
        <time>2000-01-02T18:53:23.000Z</time>
      </trkpt>
      <trkpt lat="46.00138" lon="6.74596">
        <ele>2113</ele>
        <time>2000-01-02T18:53:33.000Z</time>
      </trkpt>
      <trkpt lat="46.00145" lon="6.74597">
        <ele>2114.4</ele>
        <time>2000-01-02T18:53:43.000Z</time>
      </trkpt>
      <trkpt lat="46.00152" lon="6.74595">
        <ele>2116</ele>
        <time>2000-01-02T18:53:53.000Z</time>
      </trkpt>
      <trkpt lat="46.0016" lon="6.74595">
        <ele>2118</ele>
        <time>2000-01-02T18:54:03.000Z</time>
      </trkpt>
      <trkpt lat="46.00172" lon="6.74599">
        <ele>2122</ele>
        <time>2000-01-02T18:54:13.000Z</time>
      </trkpt>
      <trkpt lat="46.00184" lon="6.74603">
        <ele>2122.5</ele>
        <time>2000-01-02T18:54:23.000Z</time>
      </trkpt>
      <trkpt lat="46.00197" lon="6.74608">
        <ele>2123</ele>
        <time>2000-01-02T18:54:33.000Z</time>
      </trkpt>
      <trkpt lat="46.00203" lon="6.74608">
        <ele>2126.4</ele>
        <time>2000-01-02T18:54:43.000Z</time>
      </trkpt>
      <trkpt lat="46.00213" lon="6.74612">
        <ele>2128.1</ele>
        <time>2000-01-02T18:54:53.000Z</time>
      </trkpt>
      <trkpt lat="46.0022" lon="6.74616">
        <ele>2125</ele>
        <time>2000-01-02T18:55:03.000Z</time>
      </trkpt>
      <trkpt lat="46.00226" lon="6.74624">
        <ele>2128.6</ele>
        <time>2000-01-02T18:55:13.000Z</time>
      </trkpt>
      <trkpt lat="46.00232" lon="6.74631">
        <ele>2127.9</ele>
        <time>2000-01-02T18:55:23.000Z</time>
      </trkpt>
      <trkpt lat="46.00237" lon="6.74632">
        <ele>2128</ele>
        <time>2000-01-02T18:55:33.000Z</time>
      </trkpt>
      <trkpt lat="46.00242" lon="6.74631">
        <ele>2130</ele>
        <time>2000-01-02T18:55:43.000Z</time>
      </trkpt>
      <trkpt lat="46.00247" lon="6.74629">
        <ele>2131.6</ele>
        <time>2000-01-02T18:55:53.000Z</time>
      </trkpt>
      <trkpt lat="46.00253" lon="6.74622">
        <ele>2134.6</ele>
        <time>2000-01-02T18:56:03.000Z</time>
      </trkpt>
      <trkpt lat="46.00266" lon="6.74612">
        <ele>2137</ele>
        <time>2000-01-02T18:56:13.000Z</time>
      </trkpt>
      <trkpt lat="46.00272" lon="6.74611">
        <ele>2138</ele>
        <time>2000-01-02T18:56:23.000Z</time>
      </trkpt>
      <trkpt lat="46.00287" lon="6.74602">
        <ele>2140</ele>
        <time>2000-01-02T18:56:33.000Z</time>
      </trkpt>
      <trkpt lat="46.00291" lon="6.74598">
        <ele>2145.4</ele>
        <time>2000-01-02T18:56:43.000Z</time>
      </trkpt>
      <trkpt lat="46.00296" lon="6.74598">
        <ele>2146.2</ele>
        <time>2000-01-02T18:56:53.000Z</time>
      </trkpt>
      <trkpt lat="46.00301" lon="6.74592">
        <ele>2148.5</ele>
        <time>2000-01-02T18:57:03.000Z</time>
      </trkpt>
      <trkpt lat="46.00309" lon="6.74591">
        <ele>2148</ele>
        <time>2000-01-02T18:57:13.000Z</time>
      </trkpt>
      <trkpt lat="46.00312" lon="6.74587">
        <ele>2152.5</ele>
        <time>2000-01-02T18:57:23.000Z</time>
      </trkpt>
      <trkpt lat="46.00312" lon="6.7458">
        <ele>2154.3</ele>
        <time>2000-01-02T18:57:33.000Z</time>
      </trkpt>
      <trkpt lat="46.00314" lon="6.7458">
        <ele>2155</ele>
        <time>2000-01-02T18:57:43.000Z</time>
      </trkpt>
      <trkpt lat="46.00316" lon="6.74584">
        <ele>2154.6</ele>
        <time>2000-01-02T18:57:53.000Z</time>
      </trkpt>
      <trkpt lat="46.0032" lon="6.74588">
        <ele>2155.2</ele>
        <time>2000-01-02T18:58:03.000Z</time>
      </trkpt>
      <trkpt lat="46.00322" lon="6.74588">
        <ele>2156</ele>
        <time>2000-01-02T18:58:13.000Z</time>
      </trkpt>
      <trkpt lat="46.00324" lon="6.74589">
        <ele>2156.4</ele>
        <time>2000-01-02T18:58:23.000Z</time>
      </trkpt>
      <trkpt lat="46.00326" lon="6.7459">
        <ele>2156.9</ele>
        <time>2000-01-02T18:58:33.000Z</time>
      </trkpt>
      <trkpt lat="46.0033" lon="6.74589">
        <ele>2158.6</ele>
        <time>2000-01-02T18:58:43.000Z</time>
      </trkpt>
      <trkpt lat="46.00332" lon="6.74589">
        <ele>2159.3</ele>
        <time>2000-01-02T18:58:53.000Z</time>
      </trkpt>
      <trkpt lat="46.00334" lon="6.74592">
        <ele>2159.3</ele>
        <time>2000-01-02T18:59:03.000Z</time>
      </trkpt>
      <trkpt lat="46.00342" lon="6.74594">
        <ele>2161</ele>
        <time>2000-01-02T18:59:13.000Z</time>
      </trkpt>
      <trkpt lat="46.00351" lon="6.74596">
        <ele>2163.1</ele>
        <time>2000-01-02T18:59:23.000Z</time>
      </trkpt>
      <trkpt lat="46.0036" lon="6.74599">
        <ele>2164.8</ele>
        <time>2000-01-02T18:59:33.000Z</time>
      </trkpt>
      <trkpt lat="46.00368" lon="6.746">
        <ele>2167</ele>
        <time>2000-01-02T18:59:43.000Z</time>
      </trkpt>
      <trkpt lat="46.00372" lon="6.746">
        <ele>2165.9</ele>
        <time>2000-01-02T18:59:53.000Z</time>
      </trkpt>
      <trkpt lat="46.00379" lon="6.74596">
        <ele>2167.8</ele>
        <time>2000-01-02T19:00:03.000Z</time>
      </trkpt>
      <trkpt lat="46.00388" lon="6.74591">
        <ele>2170</ele>
        <time>2000-01-02T19:00:13.000Z</time>
      </trkpt>
      <trkpt lat="46.00393" lon="6.74592">
        <ele>2170.5</ele>
        <time>2000-01-02T19:00:23.000Z</time>
      </trkpt>
      <trkpt lat="46.00403" lon="6.74593">
        <ele>2171.1</ele>
        <time>2000-01-02T19:00:33.000Z</time>
      </trkpt>
      <trkpt lat="46.00411" lon="6.74591">
        <ele>2172</ele>
        <time>2000-01-02T19:00:43.000Z</time>
      </trkpt>
      <trkpt lat="46.00416" lon="6.74591">
        <ele>2172.7</ele>
        <time>2000-01-02T19:00:53.000Z</time>
      </trkpt>
      <trkpt lat="46.0042" lon="6.74593">
        <ele>2172.7</ele>
        <time>2000-01-02T19:01:03.000Z</time>
      </trkpt>
      <trkpt lat="46.00425" lon="6.74595">
        <ele>2172.9</ele>
        <time>2000-01-02T19:01:13.000Z</time>
      </trkpt>
      <trkpt lat="46.0043" lon="6.74595">
        <ele>2174</ele>
        <time>2000-01-02T19:01:23.000Z</time>
      </trkpt>
      <trkpt lat="46.00433" lon="6.74598">
        <ele>2173.5</ele>
        <time>2000-01-02T19:01:33.000Z</time>
      </trkpt>
      <trkpt lat="46.0044" lon="6.74597">
        <ele>2174.8</ele>
        <time>2000-01-02T19:01:43.000Z</time>
      </trkpt>
      <trkpt lat="46.00442" lon="6.74599">
        <ele>2174.8</ele>
        <time>2000-01-02T19:01:53.000Z</time>
      </trkpt>
      <trkpt lat="46.00448" lon="6.74599">
        <ele>2176</ele>
        <time>2000-01-02T19:02:03.000Z</time>
      </trkpt>
      <trkpt lat="46.00459" lon="6.746">
        <ele>2176.8</ele>
        <time>2000-01-02T19:02:13.000Z</time>
      </trkpt>
      <trkpt lat="46.00462" lon="6.74598">
        <ele>2177.6</ele>
        <time>2000-01-02T19:02:23.000Z</time>
      </trkpt>
      <trkpt lat="46.00466" lon="6.74595">
        <ele>2178.7</ele>
        <time>2000-01-02T19:02:33.000Z</time>
      </trkpt>
      <trkpt lat="46.00471" lon="6.74596">
        <ele>2180</ele>
        <time>2000-01-02T19:02:43.000Z</time>
      </trkpt>
      <trkpt lat="46.00475" lon="6.74598">
        <ele>2179.2</ele>
        <time>2000-01-02T19:02:53.000Z</time>
      </trkpt>
      <trkpt lat="46.00478" lon="6.74599">
        <ele>2179.4</ele>
        <time>2000-01-02T19:03:03.000Z</time>
      </trkpt>
      <trkpt lat="46.00484" lon="6.74601">
        <ele>2179.6</ele>
        <time>2000-01-02T19:03:13.000Z</time>
      </trkpt>
      <trkpt lat="46.00487" lon="6.746">
        <ele>2180.3</ele>
        <time>2000-01-02T19:03:23.000Z</time>
      </trkpt>
      <trkpt lat="46.00495" lon="6.74599">
        <ele>2184</ele>
        <time>2000-01-02T19:03:33.000Z</time>
      </trkpt>
      <trkpt lat="46.005" lon="6.74596">
        <ele>2183.4</ele>
        <time>2000-01-02T19:03:43.000Z</time>
      </trkpt>
      <trkpt lat="46.00501" lon="6.74597">
        <ele>2183.1</ele>
        <time>2000-01-02T19:03:53.000Z</time>
      </trkpt>
      <trkpt lat="46.00506" lon="6.74597">
        <ele>2183.1</ele>
        <time>2000-01-02T19:04:03.000Z</time>
      </trkpt>
      <trkpt lat="46.00511" lon="6.746">
        <ele>2182</ele>
        <time>2000-01-02T19:04:13.000Z</time>
      </trkpt>
      <trkpt lat="46.00515" lon="6.746">
        <ele>2185</ele>
        <time>2000-01-02T19:04:23.000Z</time>
      </trkpt>
      <trkpt lat="46.00517" lon="6.74599">
        <ele>2182.4</ele>
        <time>2000-01-02T19:04:33.000Z</time>
      </trkpt>
      <trkpt lat="46.0052" lon="6.74598">
        <ele>2182.7</ele>
        <time>2000-01-02T19:04:43.000Z</time>
      </trkpt>
      <trkpt lat="46.00522" lon="6.74596">
        <ele>2183.4</ele>
        <time>2000-01-02T19:04:53.000Z</time>
      </trkpt>
      <trkpt lat="46.00525" lon="6.74596">
        <ele>2183.4</ele>
        <time>2000-01-02T19:05:03.000Z</time>
      </trkpt>
      <trkpt lat="46.00529" lon="6.74598">
        <ele>2182.9</ele>
        <time>2000-01-02T19:05:13.000Z</time>
      </trkpt>
      <trkpt lat="46.00534" lon="6.746">
        <ele>2183</ele>
        <time>2000-01-02T19:05:23.000Z</time>
      </trkpt>
      <trkpt lat="46.00538" lon="6.74605">
        <ele>2182</ele>
        <time>2000-01-02T19:05:33.000Z</time>
      </trkpt>
      <trkpt lat="46.00543" lon="6.74607">
        <ele>2182.2</ele>
        <time>2000-01-02T19:05:43.000Z</time>
      </trkpt>
      <trkpt lat="46.00548" lon="6.74609">
        <ele>2182.4</ele>
        <time>2000-01-02T19:05:53.000Z</time>
      </trkpt>
      <trkpt lat="46.00551" lon="6.74612">
        <ele>2183</ele>
        <time>2000-01-02T19:06:03.000Z</time>
      </trkpt>
      <trkpt lat="46.00557" lon="6.74615">
        <ele>2181.7</ele>
        <time>2000-01-02T19:06:13.000Z</time>
      </trkpt>
      <trkpt lat="46.00562" lon="6.74615">
        <ele>2181.9</ele>
        <time>2000-01-02T19:06:23.000Z</time>
      </trkpt>
      <trkpt lat="46.00574" lon="6.74617">
        <ele>2184</ele>
        <time>2000-01-02T19:06:33.000Z</time>
      </trkpt>
      <trkpt lat="46.00578" lon="6.74616">
        <ele>2182.2</ele>
        <time>2000-01-02T19:06:43.000Z</time>
      </trkpt>
      <trkpt lat="46.00583" lon="6.74616">
        <ele>2182.4</ele>
        <time>2000-01-02T19:06:53.000Z</time>
      </trkpt>
      <trkpt lat="46.00588" lon="6.74615">
        <ele>2182.5</ele>
        <time>2000-01-02T19:07:03.000Z</time>
      </trkpt>
      <trkpt lat="46.00595" lon="6.74616">
        <ele>2184</ele>
        <time>2000-01-02T19:07:13.000Z</time>
      </trkpt>
      <trkpt lat="46.00599" lon="6.74616">
        <ele>2181.5</ele>
        <time>2000-01-02T19:07:23.000Z</time>
      </trkpt>
      <trkpt lat="46.00602" lon="6.74618">
        <ele>2180.8</ele>
        <time>2000-01-02T19:07:33.000Z</time>
      </trkpt>
      <trkpt lat="46.00605" lon="6.74617">
        <ele>2180.9</ele>
        <time>2000-01-02T19:07:43.000Z</time>
      </trkpt>
      <trkpt lat="46.00612" lon="6.74614">
        <ele>2181.1</ele>
        <time>2000-01-02T19:07:53.000Z</time>
      </trkpt>
      <trkpt lat="46.00616" lon="6.74609">
        <ele>2184</ele>
        <time>2000-01-02T19:08:03.000Z</time>
      </trkpt>
      <trkpt lat="46.00619" lon="6.74607">
        <ele>2181.2</ele>
        <time>2000-01-02T19:08:13.000Z</time>
      </trkpt>
      <trkpt lat="46.00627" lon="6.74604">
        <ele>2180.1</ele>
        <time>2000-01-02T19:08:23.000Z</time>
      </trkpt>
      <trkpt lat="46.00643" lon="6.74591">
        <ele>2179</ele>
        <time>2000-01-02T19:08:33.000Z</time>
      </trkpt>
      <trkpt lat="46.00652" lon="6.74583">
        <ele>2178.2</ele>
        <time>2000-01-02T19:08:43.000Z</time>
      </trkpt>
      <trkpt lat="46.00659" lon="6.74576">
        <ele>2179</ele>
        <time>2000-01-02T19:08:53.000Z</time>
      </trkpt>
      <trkpt lat="46.00664" lon="6.74574">
        <ele>2177</ele>
        <time>2000-01-02T19:09:03.000Z</time>
      </trkpt>
      <trkpt lat="46.00668" lon="6.74571">
        <ele>2176.6</ele>
        <time>2000-01-02T19:09:13.000Z</time>
      </trkpt>
      <trkpt lat="46.00673" lon="6.74568">
        <ele>2176.1</ele>
        <time>2000-01-02T19:09:23.000Z</time>
      </trkpt>
      <trkpt lat="46.00679" lon="6.74565">
        <ele>2177</ele>
        <time>2000-01-02T19:09:33.000Z</time>
      </trkpt>
      <trkpt lat="46.00682" lon="6.74561">
        <ele>2174.9</ele>
        <time>2000-01-02T19:09:43.000Z</time>
      </trkpt>
      <trkpt lat="46.00687" lon="6.74552">
        <ele>2174.5</ele>
        <time>2000-01-02T19:09:53.000Z</time>
      </trkpt>
      <trkpt lat="46.00691" lon="6.74548">
        <ele>2174.1</ele>
        <time>2000-01-02T19:10:03.000Z</time>
      </trkpt>
      <trkpt lat="46.00694" lon="6.74542">
        <ele>2177</ele>
        <time>2000-01-02T19:10:13.000Z</time>
      </trkpt>
      <trkpt lat="46.00695" lon="6.74538">
        <ele>2174.4</ele>
        <time>2000-01-02T19:10:23.000Z</time>
      </trkpt>
      <trkpt lat="46.00699" lon="6.74534">
        <ele>2174.1</ele>
        <time>2000-01-02T19:10:33.000Z</time>
      </trkpt>
      <trkpt lat="46.007" lon="6.7453">
        <ele>2174.4</ele>
        <time>2000-01-02T19:10:43.000Z</time>
      </trkpt>
      <trkpt lat="46.00701" lon="6.74523">
        <ele>2175.2</ele>
        <time>2000-01-02T19:10:53.000Z</time>
      </trkpt>
      <trkpt lat="46.00704" lon="6.7452">
        <ele>2177</ele>
        <time>2000-01-02T19:11:03.000Z</time>
      </trkpt>
      <trkpt lat="46.00706" lon="6.7452">
        <ele>2174.1</ele>
        <time>2000-01-02T19:11:13.000Z</time>
      </trkpt>
      <trkpt lat="46.0071" lon="6.74519">
        <ele>2172.9</ele>
        <time>2000-01-02T19:11:23.000Z</time>
      </trkpt>
      <trkpt lat="46.00712" lon="6.74514">
        <ele>2172.5</ele>
        <time>2000-01-02T19:11:33.000Z</time>
      </trkpt>
      <trkpt lat="46.00713" lon="6.74507">
        <ele>2172.6</ele>
        <time>2000-01-02T19:11:43.000Z</time>
      </trkpt>
      <trkpt lat="46.00714" lon="6.745">
        <ele>2176</ele>
        <time>2000-01-02T19:11:53.000Z</time>
      </trkpt>
      <trkpt lat="46.00715" lon="6.7449">
        <ele>2173.8</ele>
        <time>2000-01-02T19:12:03.000Z</time>
      </trkpt>
      <trkpt lat="46.00719" lon="6.74481">
        <ele>2173.2</ele>
        <time>2000-01-02T19:12:13.000Z</time>
      </trkpt>
      <trkpt lat="46.00722" lon="6.74476">
        <ele>2172.4</ele>
        <time>2000-01-02T19:12:23.000Z</time>
      </trkpt>
      <trkpt lat="46.00724" lon="6.74469">
        <ele>2176</ele>
        <time>2000-01-02T19:12:33.000Z</time>
      </trkpt>
      <trkpt lat="46.00727" lon="6.74463">
        <ele>2174</ele>
        <time>2000-01-02T19:12:43.000Z</time>
      </trkpt>
      <trkpt lat="46.00729" lon="6.74457">
        <ele>2174.8</ele>
        <time>2000-01-02T19:12:53.000Z</time>
      </trkpt>
      <trkpt lat="46.0073" lon="6.74442">
        <ele>2176</ele>
        <time>2000-01-02T19:13:03.000Z</time>
      </trkpt>
      <trkpt lat="46.00732" lon="6.7443">
        <ele>2175.9</ele>
        <time>2000-01-02T19:13:13.000Z</time>
      </trkpt>
      <trkpt lat="46.00733" lon="6.74419">
        <ele>2175.2</ele>
        <time>2000-01-02T19:13:23.000Z</time>
      </trkpt>
      <trkpt lat="46.00735" lon="6.74413">
        <ele>2174</ele>
        <time>2000-01-02T19:13:33.000Z</time>
      </trkpt>
      <trkpt lat="46.00735" lon="6.74408">
        <ele>2173.5</ele>
        <time>2000-01-02T19:13:43.000Z</time>
      </trkpt>
      <trkpt lat="46.00736" lon="6.74403">
        <ele>2172.6</ele>
        <time>2000-01-02T19:13:53.000Z</time>
      </trkpt>
      <trkpt lat="46.00738" lon="6.74395">
        <ele>2171</ele>
        <time>2000-01-02T19:14:03.000Z</time>
      </trkpt>
      <trkpt lat="46.00741" lon="6.7439">
        <ele>2169.8</ele>
        <time>2000-01-02T19:14:13.000Z</time>
      </trkpt>
      <trkpt lat="46.00743" lon="6.74383">
        <ele>2167</ele>
        <time>2000-01-02T19:14:23.000Z</time>
      </trkpt>
      <trkpt lat="46.00742" lon="6.74374">
        <ele>2167.5</ele>
        <time>2000-01-02T19:14:33.000Z</time>
      </trkpt>
      <trkpt lat="46.00742" lon="6.7437">
        <ele>2166.9</ele>
        <time>2000-01-02T19:14:43.000Z</time>
      </trkpt>
      <trkpt lat="46.0074" lon="6.74366">
        <ele>2166.8</ele>
        <time>2000-01-02T19:14:53.000Z</time>
      </trkpt>
      <trkpt lat="46.00739" lon="6.74363">
        <ele>2166.6</ele>
        <time>2000-01-02T19:15:03.000Z</time>
      </trkpt>
      <trkpt lat="46.0074" lon="6.7436">
        <ele>2166.1</ele>
        <time>2000-01-02T19:15:13.000Z</time>
      </trkpt>
      <trkpt lat="46.00743" lon="6.74359">
        <ele>2165</ele>
        <time>2000-01-02T19:15:23.000Z</time>
      </trkpt>
      <trkpt lat="46.00745" lon="6.74358">
        <ele>2164.9</ele>
        <time>2000-01-02T19:15:33.000Z</time>
      </trkpt>
      <trkpt lat="46.00746" lon="6.7435">
        <ele>2164.4</ele>
        <time>2000-01-02T19:15:43.000Z</time>
      </trkpt>
      <trkpt lat="46.00747" lon="6.7434">
        <ele>2163.8</ele>
        <time>2000-01-02T19:15:53.000Z</time>
      </trkpt>
      <trkpt lat="46.00749" lon="6.74337">
        <ele>2163.3</ele>
        <time>2000-01-02T19:16:03.000Z</time>
      </trkpt>
      <trkpt lat="46.0075" lon="6.74332">
        <ele>2164</ele>
        <time>2000-01-02T19:16:13.000Z</time>
      </trkpt>
      <trkpt lat="46.00751" lon="6.74327">
        <ele>2162.5</ele>
        <time>2000-01-02T19:16:23.000Z</time>
      </trkpt>
      <trkpt lat="46.00753" lon="6.74324">
        <ele>2162.3</ele>
        <time>2000-01-02T19:16:33.000Z</time>
      </trkpt>
      <trkpt lat="46.00753" lon="6.74319">
        <ele>2162</ele>
        <time>2000-01-02T19:16:43.000Z</time>
      </trkpt>
      <trkpt lat="46.00753" lon="6.74313">
        <ele>2161.6</ele>
        <time>2000-01-02T19:16:53.000Z</time>
      </trkpt>
      <trkpt lat="46.00755" lon="6.74305">
        <ele>2160</ele>
        <time>2000-01-02T19:17:03.000Z</time>
      </trkpt>
      <trkpt lat="46.00755" lon="6.743">
        <ele>2161.1</ele>
        <time>2000-01-02T19:17:13.000Z</time>
      </trkpt>
      <trkpt lat="46.00754" lon="6.74298">
        <ele>2161</ele>
        <time>2000-01-02T19:17:23.000Z</time>
      </trkpt>
      <trkpt lat="46.00751" lon="6.74295">
        <ele>2160.7</ele>
        <time>2000-01-02T19:17:33.000Z</time>
      </trkpt>
      <trkpt lat="46.0075" lon="6.74292">
        <ele>2160.5</ele>
        <time>2000-01-02T19:17:43.000Z</time>
      </trkpt>
      <trkpt lat="46.0075" lon="6.74289">
        <ele>2160.4</ele>
        <time>2000-01-02T19:17:53.000Z</time>
      </trkpt>
      <trkpt lat="46.00752" lon="6.74284">
        <ele>2160.3</ele>
        <time>2000-01-02T19:18:03.000Z</time>
      </trkpt>
      <trkpt lat="46.00752" lon="6.74281">
        <ele>2160.2</ele>
        <time>2000-01-02T19:18:13.000Z</time>
      </trkpt>
      <trkpt lat="46.00752" lon="6.74278">
        <ele>2160</ele>
        <time>2000-01-02T19:18:23.000Z</time>
      </trkpt>
      <trkpt lat="46.00754" lon="6.74273">
        <ele>2160.3</ele>
        <time>2000-01-02T19:18:33.000Z</time>
      </trkpt>
      <trkpt lat="46.00755" lon="6.7427">
        <ele>2160.4</ele>
        <time>2000-01-02T19:18:43.000Z</time>
      </trkpt>
      <trkpt lat="46.00756" lon="6.74267">
        <ele>2160.5</ele>
        <time>2000-01-02T19:18:53.000Z</time>
      </trkpt>
      <trkpt lat="46.00758" lon="6.74265">
        <ele>2160.4</ele>
        <time>2000-01-02T19:19:03.000Z</time>
      </trkpt>
      <trkpt lat="46.0076" lon="6.74264">
        <ele>2160.3</ele>
        <time>2000-01-02T19:19:13.000Z</time>
      </trkpt>
      <trkpt lat="46.00763" lon="6.74264">
        <ele>2160.1</ele>
        <time>2000-01-02T19:19:23.000Z</time>
      </trkpt>
      <trkpt lat="46.00765" lon="6.74264">
        <ele>2159.9</ele>
        <time>2000-01-02T19:19:33.000Z</time>
      </trkpt>
      <trkpt lat="46.00769" lon="6.74262">
        <ele>2160</ele>
        <time>2000-01-02T19:19:43.000Z</time>
      </trkpt>
      <trkpt lat="46.00773" lon="6.74261">
        <ele>2159</ele>
        <time>2000-01-02T19:19:53.000Z</time>
      </trkpt>
      <trkpt lat="46.00777" lon="6.74258">
        <ele>2158.2</ele>
        <time>2000-01-02T19:20:03.000Z</time>
      </trkpt>
      <trkpt lat="46.00782" lon="6.74251">
        <ele>2157.1</ele>
        <time>2000-01-02T19:20:13.000Z</time>
      </trkpt>
      <trkpt lat="46.00791" lon="6.74233">
        <ele>2155</ele>
        <time>2000-01-02T19:20:23.000Z</time>
      </trkpt>
      <trkpt lat="46.00798" lon="6.7422">
        <ele>2155.3</ele>
        <time>2000-01-02T19:20:33.000Z</time>
      </trkpt>
      <trkpt lat="46.00801" lon="6.74211">
        <ele>2157</ele>
        <time>2000-01-02T19:20:43.000Z</time>
      </trkpt>
      <trkpt lat="46.00804" lon="6.742">
        <ele>2155.8</ele>
        <time>2000-01-02T19:20:53.000Z</time>
      </trkpt>
      <trkpt lat="46.00806" lon="6.74196">
        <ele>2156</ele>
        <time>2000-01-02T19:21:03.000Z</time>
      </trkpt>
      <trkpt lat="46.0081" lon="6.74191">
        <ele>2157.4</ele>
        <time>2000-01-02T19:21:13.000Z</time>
      </trkpt>
      <trkpt lat="46.00816" lon="6.74187">
        <ele>2159</ele>
        <time>2000-01-02T19:21:23.000Z</time>
      </trkpt>
      <trkpt lat="46.00811" lon="6.74185">
        <ele>2159</ele>
        <time>2000-01-02T19:21:33.000Z</time>
      </trkpt>
      <trkpt lat="46.00807" lon="6.74181">
        <ele>2159.2</ele>
        <time>2000-01-02T19:21:43.000Z</time>
      </trkpt>
      <trkpt lat="46.00801" lon="6.74172">
        <ele>2160.2</ele>
        <time>2000-01-02T19:21:53.000Z</time>
      </trkpt>
      <trkpt lat="46.00791" lon="6.74156">
        <ele>2161</ele>
        <time>2000-01-02T19:22:03.000Z</time>
      </trkpt>
      <trkpt lat="46.0078" lon="6.74139">
        <ele>2162.6</ele>
        <time>2000-01-02T19:22:13.000Z</time>
      </trkpt>
      <trkpt lat="46.00775" lon="6.74131">
        <ele>2163</ele>
        <time>2000-01-02T19:22:23.000Z</time>
      </trkpt>
      <trkpt lat="46.00769" lon="6.74125">
        <ele>2165.2</ele>
        <time>2000-01-02T19:22:33.000Z</time>
      </trkpt>
      <trkpt lat="46.00758" lon="6.74117">
        <ele>2165</ele>
        <time>2000-01-02T19:22:43.000Z</time>
      </trkpt>
      <trkpt lat="46.00749" lon="6.7411">
        <ele>2166.3</ele>
        <time>2000-01-02T19:22:53.000Z</time>
      </trkpt>
      <trkpt lat="46.00739" lon="6.74099">
        <ele>2166</ele>
        <time>2000-01-02T19:23:03.000Z</time>
      </trkpt>
      <trkpt lat="46.0073" lon="6.74083">
        <ele>2169.6</ele>
        <time>2000-01-02T19:23:13.000Z</time>
      </trkpt>
      <trkpt lat="46.00722" lon="6.74066">
        <ele>2172</ele>
        <time>2000-01-02T19:23:23.000Z</time>
      </trkpt>
      <trkpt lat="46.00717" lon="6.74058">
        <ele>2173.8</ele>
        <time>2000-01-02T19:23:33.000Z</time>
      </trkpt>
      <trkpt lat="46.00711" lon="6.74052">
        <ele>2175.2</ele>
        <time>2000-01-02T19:23:43.000Z</time>
      </trkpt>
      <trkpt lat="46.00703" lon="6.74046">
        <ele>2178</ele>
        <time>2000-01-02T19:23:53.000Z</time>
      </trkpt>
      <trkpt lat="46.00696" lon="6.7404">
        <ele>2177.3</ele>
        <time>2000-01-02T19:24:03.000Z</time>
      </trkpt>
      <trkpt lat="46.00688" lon="6.74029">
        <ele>2179</ele>
        <time>2000-01-02T19:24:13.000Z</time>
      </trkpt>
      <trkpt lat="46.00682" lon="6.7402">
        <ele>2180.7</ele>
        <time>2000-01-02T19:24:23.000Z</time>
      </trkpt>
      <trkpt lat="46.00675" lon="6.74005">
        <ele>2182</ele>
        <time>2000-01-02T19:24:33.000Z</time>
      </trkpt>
      <trkpt lat="46.00667" lon="6.73991">
        <ele>2185.3</ele>
        <time>2000-01-02T19:24:43.000Z</time>
      </trkpt>
      <trkpt lat="46.00659" lon="6.73979">
        <ele>2187</ele>
        <time>2000-01-02T19:24:53.000Z</time>
      </trkpt>
      <trkpt lat="46.00652" lon="6.73965">
        <ele>2191.8</ele>
        <time>2000-01-02T19:25:03.000Z</time>
      </trkpt>
      <trkpt lat="46.00649" lon="6.73958">
        <ele>2194</ele>
        <time>2000-01-02T19:25:13.000Z</time>
      </trkpt>
      <trkpt lat="46.00646" lon="6.73955">
        <ele>2194</ele>
        <time>2000-01-02T19:25:23.000Z</time>
      </trkpt>
      <trkpt lat="46.00637" lon="6.73951">
        <ele>2194.2</ele>
        <time>2000-01-02T19:25:33.000Z</time>
      </trkpt>
      <trkpt lat="46.00627" lon="6.73943">
        <ele>2195</ele>
        <time>2000-01-02T19:25:43.000Z</time>
      </trkpt>
      <trkpt lat="46.00617" lon="6.73936">
        <ele>2197.9</ele>
        <time>2000-01-02T19:25:53.000Z</time>
      </trkpt>
      <trkpt lat="46.00607" lon="6.73929">
        <ele>2201</ele>
        <time>2000-01-02T19:26:03.000Z</time>
      </trkpt>
      <trkpt lat="46.00607" lon="6.73929">
        <ele>2199.2</ele>
        <time>2000-01-02T19:26:13.000Z</time>
      </trkpt>
      <trkpt lat="46.00607" lon="6.73929">
        <ele>2199.2</ele>
        <time>2000-01-02T19:26:23.000Z</time>
      </trkpt>
      <trkpt lat="46.00603" lon="6.73925">
        <ele>2200.1</ele>
        <time>2000-01-02T19:26:33.000Z</time>
      </trkpt>
      <trkpt lat="46.00597" lon="6.73916">
        <ele>2202.3</ele>
        <time>2000-01-02T19:26:43.000Z</time>
      </trkpt>
      <trkpt lat="46.00594" lon="6.73912">
        <ele>2203.5</ele>
        <time>2000-01-02T19:26:53.000Z</time>
      </trkpt>
      <trkpt lat="46.00585" lon="6.73906">
        <ele>2204</ele>
        <time>2000-01-02T19:27:03.000Z</time>
      </trkpt>
      <trkpt lat="46.00573" lon="6.73894">
        <ele>2207.7</ele>
        <time>2000-01-02T19:27:13.000Z</time>
      </trkpt>
      <trkpt lat="46.00563" lon="6.73881">
        <ele>2210</ele>
        <time>2000-01-02T19:27:23.000Z</time>
      </trkpt>
      <trkpt lat="46.00554" lon="6.73872">
        <ele>2213.6</ele>
        <time>2000-01-02T19:27:33.000Z</time>
      </trkpt>
      <trkpt lat="46.00543" lon="6.73862">
        <ele>2217</ele>
        <time>2000-01-02T19:27:43.000Z</time>
      </trkpt>
      <trkpt lat="46.00534" lon="6.73857">
        <ele>2218.3</ele>
        <time>2000-01-02T19:27:53.000Z</time>
      </trkpt>
      <trkpt lat="46.00519" lon="6.73848">
        <ele>2222</ele>
        <time>2000-01-02T19:28:03.000Z</time>
      </trkpt>
      <trkpt lat="46.00504" lon="6.73837">
        <ele>2225.8</ele>
        <time>2000-01-02T19:28:13.000Z</time>
      </trkpt>
      <trkpt lat="46.00496" lon="6.73832">
        <ele>2228</ele>
        <time>2000-01-02T19:28:23.000Z</time>
      </trkpt>
      <trkpt lat="46.00481" lon="6.73825">
        <ele>2230.2</ele>
        <time>2000-01-02T19:28:33.000Z</time>
      </trkpt>
      <trkpt lat="46.00463" lon="6.73816">
        <ele>2234</ele>
        <time>2000-01-02T19:28:43.000Z</time>
      </trkpt>
      <trkpt lat="46.00448" lon="6.73807">
        <ele>2237.4</ele>
        <time>2000-01-02T19:28:53.000Z</time>
      </trkpt>
      <trkpt lat="46.00439" lon="6.73802">
        <ele>2240</ele>
        <time>2000-01-02T19:29:03.000Z</time>
      </trkpt>
      <trkpt lat="46.00421" lon="6.73793">
        <ele>2243</ele>
        <time>2000-01-02T19:29:13.000Z</time>
      </trkpt>
      <trkpt lat="46.00407" lon="6.73786">
        <ele>2245.6</ele>
        <time>2000-01-02T19:29:23.000Z</time>
      </trkpt>
      <trkpt lat="46.00395" lon="6.73777">
        <ele>2251</ele>
        <time>2000-01-02T19:29:33.000Z</time>
      </trkpt>
      <trkpt lat="46.00381" lon="6.73764">
        <ele>2253.2</ele>
        <time>2000-01-02T19:29:43.000Z</time>
      </trkpt>
      <trkpt lat="46.00366" lon="6.73746">
        <ele>2259</ele>
        <time>2000-01-02T19:29:53.000Z</time>
      </trkpt>
      <trkpt lat="46.00353" lon="6.73731">
        <ele>2262</ele>
        <time>2000-01-02T19:30:03.000Z</time>
      </trkpt>
      <trkpt lat="46.00347" lon="6.73723">
        <ele>2262</ele>
        <time>2000-01-02T19:30:13.000Z</time>
      </trkpt>
      <trkpt lat="46.0034" lon="6.73717">
        <ele>2264.9</ele>
        <time>2000-01-02T19:30:23.000Z</time>
      </trkpt>
      <trkpt lat="46.00329" lon="6.73714">
        <ele>2264</ele>
        <time>2000-01-02T19:30:33.000Z</time>
      </trkpt>
      <trkpt lat="46.00318" lon="6.73716">
        <ele>2264.3</ele>
        <time>2000-01-02T19:30:43.000Z</time>
      </trkpt>
      <trkpt lat="46.0031" lon="6.73717">
        <ele>2265</ele>
        <time>2000-01-02T19:30:53.000Z</time>
      </trkpt>
      <trkpt lat="46.00304" lon="6.73715">
        <ele>2264.6</ele>
        <time>2000-01-02T19:31:03.000Z</time>
      </trkpt>
      <trkpt lat="46.00296" lon="6.73706">
        <ele>2266.4</ele>
        <time>2000-01-02T19:31:13.000Z</time>
      </trkpt>
      <trkpt lat="46.00283" lon="6.73688">
        <ele>2271</ele>
        <time>2000-01-02T19:31:23.000Z</time>
      </trkpt>
      <trkpt lat="46.00273" lon="6.7367">
        <ele>2273.7</ele>
        <time>2000-01-02T19:31:33.000Z</time>
      </trkpt>
      <trkpt lat="46.00268" lon="6.73659">
        <ele>2276</ele>
        <time>2000-01-02T19:31:43.000Z</time>
      </trkpt>
      <trkpt lat="46.00265" lon="6.73642">
        <ele>2279.9</ele>
        <time>2000-01-02T19:31:53.000Z</time>
      </trkpt>
      <trkpt lat="46.00261" lon="6.7363">
        <ele>2281</ele>
        <time>2000-01-02T19:32:03.000Z</time>
      </trkpt>
      <trkpt lat="46.00256" lon="6.73617">
        <ele>2285.1</ele>
        <time>2000-01-02T19:32:13.000Z</time>
      </trkpt>
      <trkpt lat="46.00247" lon="6.73595">
        <ele>2291</ele>
        <time>2000-01-02T19:32:23.000Z</time>
      </trkpt>
      <trkpt lat="46.00238" lon="6.7358">
        <ele>2295.4</ele>
        <time>2000-01-02T19:32:33.000Z</time>
      </trkpt>
      <trkpt lat="46.00229" lon="6.73562">
        <ele>2297</ele>
        <time>2000-01-02T19:32:43.000Z</time>
      </trkpt>
      <trkpt lat="46.00215" lon="6.73541">
        <ele>2303</ele>
        <time>2000-01-02T19:32:53.000Z</time>
      </trkpt>
      <trkpt lat="46.00203" lon="6.73526">
        <ele>2307.8</ele>
        <time>2000-01-02T19:33:03.000Z</time>
      </trkpt>
      <trkpt lat="46.00192" lon="6.73514">
        <ele>2310</ele>
        <time>2000-01-02T19:33:13.000Z</time>
      </trkpt>
      <trkpt lat="46.0018" lon="6.73501">
        <ele>2314.1</ele>
        <time>2000-01-02T19:33:23.000Z</time>
      </trkpt>
      <trkpt lat="46.00168" lon="6.73495">
        <ele>2317</ele>
        <time>2000-01-02T19:33:33.000Z</time>
      </trkpt>
      <trkpt lat="46.00162" lon="6.73491">
        <ele>2317.2</ele>
        <time>2000-01-02T19:33:43.000Z</time>
      </trkpt>
      <trkpt lat="46.00156" lon="6.73487">
        <ele>2318.7</ele>
        <time>2000-01-02T19:33:53.000Z</time>
      </trkpt>
      <trkpt lat="46.00153" lon="6.73482">
        <ele>2320.5</ele>
        <time>2000-01-02T19:34:03.000Z</time>
      </trkpt>
      <trkpt lat="46.00154" lon="6.73477">
        <ele>2324</ele>
        <time>2000-01-02T19:34:13.000Z</time>
      </trkpt>
      <trkpt lat="46.00157" lon="6.73473">
        <ele>2323.7</ele>
        <time>2000-01-02T19:34:23.000Z</time>
      </trkpt>
      <trkpt lat="46.00165" lon="6.73469">
        <ele>2325.1</ele>
        <time>2000-01-02T19:34:33.000Z</time>
      </trkpt>
      <trkpt lat="46.00175" lon="6.73463">
        <ele>2328</ele>
        <time>2000-01-02T19:34:43.000Z</time>
      </trkpt>
      <trkpt lat="46.00183" lon="6.73457">
        <ele>2329.3</ele>
        <time>2000-01-02T19:34:53.000Z</time>
      </trkpt>
      <trkpt lat="46.00189" lon="6.7345">
        <ele>2331.8</ele>
        <time>2000-01-02T19:35:03.000Z</time>
      </trkpt>
      <trkpt lat="46.00197" lon="6.73441">
        <ele>2335</ele>
        <time>2000-01-02T19:35:13.000Z</time>
      </trkpt>
      <trkpt lat="46.00202" lon="6.73439">
        <ele>2336.6</ele>
        <time>2000-01-02T19:35:23.000Z</time>
      </trkpt>
      <trkpt lat="46.0021" lon="6.73438">
        <ele>2338.2</ele>
        <time>2000-01-02T19:35:33.000Z</time>
      </trkpt>
      <trkpt lat="46.00224" lon="6.7344">
        <ele>2339</ele>
        <time>2000-01-02T19:35:43.000Z</time>
      </trkpt>
      <trkpt lat="46.00232" lon="6.73442">
        <ele>2341.6</ele>
        <time>2000-01-02T19:35:53.000Z</time>
      </trkpt>
      <trkpt lat="46.00235" lon="6.73442">
        <ele>2342.2</ele>
        <time>2000-01-02T19:36:03.000Z</time>
      </trkpt>
      <trkpt lat="46.00238" lon="6.73436">
        <ele>2343.9</ele>
        <time>2000-01-02T19:36:13.000Z</time>
      </trkpt>
      <trkpt lat="46.00238" lon="6.73429">
        <ele>2343</ele>
        <time>2000-01-02T19:36:23.000Z</time>
      </trkpt>
      <trkpt lat="46.00235" lon="6.7342">
        <ele>2346.2</ele>
        <time>2000-01-02T19:36:33.000Z</time>
      </trkpt>
      <trkpt lat="46.00231" lon="6.73409">
        <ele>2345.3</ele>
        <time>2000-01-02T19:36:43.000Z</time>
      </trkpt>
      <trkpt lat="46.0023" lon="6.73403">
        <ele>2340</ele>
        <time>2000-01-02T19:36:53.000Z</time>
      </trkpt>
      <trkpt lat="46.00231" lon="6.73395">
        <ele>2344.3</ele>
        <time>2000-01-02T19:37:03.000Z</time>
      </trkpt>
      <trkpt lat="46.00235" lon="6.73387">
        <ele>2344.3</ele>
        <time>2000-01-02T19:37:13.000Z</time>
      </trkpt>
      <trkpt lat="46.00243" lon="6.73379">
        <ele>2338</ele>
        <time>2000-01-02T19:37:23.000Z</time>
      </trkpt>
      <trkpt lat="46.00254" lon="6.7337">
        <ele>2344</ele>
        <time>2000-01-02T19:37:33.000Z</time>
      </trkpt>
      <trkpt lat="46.00267" lon="6.73357">
        <ele>2337</ele>
        <time>2000-01-02T19:37:43.000Z</time>
      </trkpt>
      <trkpt lat="46.00279" lon="6.73345">
        <ele>2341.2</ele>
        <time>2000-01-02T19:37:53.000Z</time>
      </trkpt>
      <trkpt lat="46.00288" lon="6.73338">
        <ele>2335</ele>
        <time>2000-01-02T19:38:03.000Z</time>
      </trkpt>
      <trkpt lat="46.00299" lon="6.73333">
        <ele>2338.9</ele>
        <time>2000-01-02T19:38:13.000Z</time>
      </trkpt>
      <trkpt lat="46.00312" lon="6.73327">
        <ele>2333</ele>
        <time>2000-01-02T19:38:23.000Z</time>
      </trkpt>
      <trkpt lat="46.00325" lon="6.73323">
        <ele>2335.9</ele>
        <time>2000-01-02T19:38:33.000Z</time>
      </trkpt>
      <trkpt lat="46.00333" lon="6.73322">
        <ele>2333</ele>
        <time>2000-01-02T19:38:43.000Z</time>
      </trkpt>
      <trkpt lat="46.0034" lon="6.73321">
        <ele>2334.7</ele>
        <time>2000-01-02T19:38:53.000Z</time>
      </trkpt>
      <trkpt lat="46.00333" lon="6.73316">
        <ele>2333.1</ele>
        <time>2000-01-02T19:39:03.000Z</time>
      </trkpt>
      <trkpt lat="46.00315" lon="6.73307">
        <ele>2327</ele>
        <time>2000-01-02T19:39:13.000Z</time>
      </trkpt>
      <trkpt lat="46.00303" lon="6.73302">
        <ele>2327.2</ele>
        <time>2000-01-02T19:39:23.000Z</time>
      </trkpt>
      <trkpt lat="46.00297" lon="6.73299">
        <ele>2322</ele>
        <time>2000-01-02T19:39:33.000Z</time>
      </trkpt>
      <trkpt lat="46.00288" lon="6.73291">
        <ele>2323.2</ele>
        <time>2000-01-02T19:39:43.000Z</time>
      </trkpt>
      <trkpt lat="46.00282" lon="6.73281">
        <ele>2322</ele>
        <time>2000-01-02T19:39:53.000Z</time>
      </trkpt>
      <trkpt lat="46.00273" lon="6.73263">
        <ele>2317.9</ele>
        <time>2000-01-02T19:40:03.000Z</time>
      </trkpt>
      <trkpt lat="46.00265" lon="6.73247">
        <ele>2314</ele>
        <time>2000-01-02T19:40:13.000Z</time>
      </trkpt>
      <trkpt lat="46.00256" lon="6.7323">
        <ele>2313.1</ele>
        <time>2000-01-02T19:40:23.000Z</time>
      </trkpt>
      <trkpt lat="46.00252" lon="6.7322">
        <ele>2308</ele>
        <time>2000-01-02T19:40:33.000Z</time>
      </trkpt>
      <trkpt lat="46.00248" lon="6.73212">
        <ele>2310</ele>
        <time>2000-01-02T19:40:43.000Z</time>
      </trkpt>
      <trkpt lat="46.00246" lon="6.73202">
        <ele>2307.9</ele>
        <time>2000-01-02T19:40:53.000Z</time>
      </trkpt>
      <trkpt lat="46.00245" lon="6.73198">
        <ele>2307.1</ele>
        <time>2000-01-02T19:41:03.000Z</time>
      </trkpt>
      <trkpt lat="46.00242" lon="6.73182">
        <ele>2303</ele>
        <time>2000-01-02T19:41:13.000Z</time>
      </trkpt>
      <trkpt lat="46.00237" lon="6.73159">
        <ele>2298.6</ele>
        <time>2000-01-02T19:41:23.000Z</time>
      </trkpt>
      <trkpt lat="46.00234" lon="6.73142">
        <ele>2295</ele>
        <time>2000-01-02T19:41:33.000Z</time>
      </trkpt>
      <trkpt lat="46.00228" lon="6.73117">
        <ele>2292.3</ele>
        <time>2000-01-02T19:41:43.000Z</time>
      </trkpt>
      <trkpt lat="46.00223" lon="6.7309">
        <ele>2287</ele>
        <time>2000-01-02T19:41:53.000Z</time>
      </trkpt>
      <trkpt lat="46.0022" lon="6.73069">
        <ele>2283.4</ele>
        <time>2000-01-02T19:42:03.000Z</time>
      </trkpt>
      <trkpt lat="46.00218" lon="6.73053">
        <ele>2281</ele>
        <time>2000-01-02T19:42:13.000Z</time>
      </trkpt>
      <trkpt lat="46.00219" lon="6.73033">
        <ele>2276.6</ele>
        <time>2000-01-02T19:42:23.000Z</time>
      </trkpt>
      <trkpt lat="46.0022" lon="6.73013">
        <ele>2275</ele>
        <time>2000-01-02T19:42:33.000Z</time>
      </trkpt>
      <trkpt lat="46.0022" lon="6.72993">
        <ele>2268.7</ele>
        <time>2000-01-02T19:42:43.000Z</time>
      </trkpt>
      <trkpt lat="46.00218" lon="6.72981">
        <ele>2267</ele>
        <time>2000-01-02T19:42:53.000Z</time>
      </trkpt>
      <trkpt lat="46.00213" lon="6.7297">
        <ele>2265.3</ele>
        <time>2000-01-02T19:43:03.000Z</time>
      </trkpt>
      <trkpt lat="46.00223" lon="6.72958">
        <ele>2262</ele>
        <time>2000-01-02T19:43:13.000Z</time>
      </trkpt>
      <trkpt lat="46.0023" lon="6.72951">
        <ele>2260.2</ele>
        <time>2000-01-02T19:43:23.000Z</time>
      </trkpt>
      <trkpt lat="46.00234" lon="6.72944">
        <ele>2258.8</ele>
        <time>2000-01-02T19:43:33.000Z</time>
      </trkpt>
      <trkpt lat="46.00239" lon="6.72932">
        <ele>2258</ele>
        <time>2000-01-02T19:43:43.000Z</time>
      </trkpt>
      <trkpt lat="46.00242" lon="6.7292">
        <ele>2255.5</ele>
        <time>2000-01-02T19:43:53.000Z</time>
      </trkpt>
      <trkpt lat="46.00245" lon="6.72907">
        <ele>2253.8</ele>
        <time>2000-01-02T19:44:03.000Z</time>
      </trkpt>
      <trkpt lat="46.00251" lon="6.72888">
        <ele>2248</ele>
        <time>2000-01-02T19:44:13.000Z</time>
      </trkpt>
      <trkpt lat="46.00255" lon="6.72875">
        <ele>2246.1</ele>
        <time>2000-01-02T19:44:23.000Z</time>
      </trkpt>
      <trkpt lat="46.00261" lon="6.72859">
        <ele>2240</ele>
        <time>2000-01-02T19:44:33.000Z</time>
      </trkpt>
      <trkpt lat="46.0027" lon="6.72839">
        <ele>2234.2</ele>
        <time>2000-01-02T19:44:43.000Z</time>
      </trkpt>
      <trkpt lat="46.00276" lon="6.72827">
        <ele>2233</ele>
        <time>2000-01-02T19:44:53.000Z</time>
      </trkpt>
      <trkpt lat="46.00282" lon="6.72815">
        <ele>2227.2</ele>
        <time>2000-01-02T19:45:03.000Z</time>
      </trkpt>
      <trkpt lat="46.00293" lon="6.72799">
        <ele>2222</ele>
        <time>2000-01-02T19:45:13.000Z</time>
      </trkpt>
      <trkpt lat="46.00301" lon="6.72788">
        <ele>2215.7</ele>
        <time>2000-01-02T19:45:23.000Z</time>
      </trkpt>
      <trkpt lat="46.00308" lon="6.72778">
        <ele>2217</ele>
        <time>2000-01-02T19:45:33.000Z</time>
      </trkpt>
      <trkpt lat="46.00321" lon="6.72759">
        <ele>2206.3</ele>
        <time>2000-01-02T19:45:43.000Z</time>
      </trkpt>
      <trkpt lat="46.00337" lon="6.72735">
        <ele>2207</ele>
        <time>2000-01-02T19:45:53.000Z</time>
      </trkpt>
      <trkpt lat="46.00351" lon="6.72717">
        <ele>2194.9</ele>
        <time>2000-01-02T19:46:03.000Z</time>
      </trkpt>
      <trkpt lat="46.00353" lon="6.72714">
        <ele>2197</ele>
        <time>2000-01-02T19:46:13.000Z</time>
      </trkpt>
      <trkpt lat="46.00365" lon="6.72699">
        <ele>2190</ele>
        <time>2000-01-02T19:46:23.000Z</time>
      </trkpt>
      <trkpt lat="46.00376" lon="6.7269">
        <ele>2194</ele>
        <time>2000-01-02T19:46:33.000Z</time>
      </trkpt>
      <trkpt lat="46.00389" lon="6.7268">
        <ele>2179.6</ele>
        <time>2000-01-02T19:46:43.000Z</time>
      </trkpt>
      <trkpt lat="46.00401" lon="6.72673">
        <ele>2176</ele>
        <time>2000-01-02T19:46:53.000Z</time>
      </trkpt>
      <trkpt lat="46.00419" lon="6.72662">
        <ele>2170</ele>
        <time>2000-01-02T19:47:03.000Z</time>
      </trkpt>
      <trkpt lat="46.00431" lon="6.72651">
        <ele>2161.3</ele>
        <time>2000-01-02T19:47:13.000Z</time>
      </trkpt>
      <trkpt lat="46.00444" lon="6.72642">
        <ele>2158</ele>
        <time>2000-01-02T19:47:23.000Z</time>
      </trkpt>
      <trkpt lat="46.00458" lon="6.72635">
        <ele>2151</ele>
        <time>2000-01-02T19:47:33.000Z</time>
      </trkpt>
      <trkpt lat="46.00478" lon="6.72627">
        <ele>2149</ele>
        <time>2000-01-02T19:47:43.000Z</time>
      </trkpt>
      <trkpt lat="46.00497" lon="6.72618">
        <ele>2143</ele>
        <time>2000-01-02T19:47:53.000Z</time>
      </trkpt>
      <trkpt lat="46.00511" lon="6.7261">
        <ele>2131.6</ele>
        <time>2000-01-02T19:48:03.000Z</time>
      </trkpt>
      <trkpt lat="46.00525" lon="6.72599">
        <ele>2137</ele>
        <time>2000-01-02T19:48:13.000Z</time>
      </trkpt>
      <trkpt lat="46.00535" lon="6.72593">
        <ele>2126.1</ele>
        <time>2000-01-02T19:48:23.000Z</time>
      </trkpt>
      <trkpt lat="46.00548" lon="6.7259">
        <ele>2125</ele>
        <time>2000-01-02T19:48:33.000Z</time>
      </trkpt>
      <trkpt lat="46.00563" lon="6.72586">
        <ele>2115.3</ele>
        <time>2000-01-02T19:48:43.000Z</time>
      </trkpt>
      <trkpt lat="46.00578" lon="6.72579">
        <ele>2117</ele>
        <time>2000-01-02T19:48:53.000Z</time>
      </trkpt>
      <trkpt lat="46.00592" lon="6.72574">
        <ele>2107</ele>
        <time>2000-01-02T19:49:03.000Z</time>
      </trkpt>
      <trkpt lat="46.00603" lon="6.72572">
        <ele>2104</ele>
        <time>2000-01-02T19:49:13.000Z</time>
      </trkpt>
      <trkpt lat="46.00616" lon="6.7257">
        <ele>2097.8</ele>
        <time>2000-01-02T19:49:23.000Z</time>
      </trkpt>
      <trkpt lat="46.00623" lon="6.72567">
        <ele>2099</ele>
        <time>2000-01-02T19:49:33.000Z</time>
      </trkpt>
      <trkpt lat="46.00636" lon="6.7256">
        <ele>2091.1</ele>
        <time>2000-01-02T19:49:43.000Z</time>
      </trkpt>
      <trkpt lat="46.00647" lon="6.7255">
        <ele>2096</ele>
        <time>2000-01-02T19:49:53.000Z</time>
      </trkpt>
      <trkpt lat="46.00659" lon="6.72539">
        <ele>2085.7</ele>
        <time>2000-01-02T19:50:03.000Z</time>
      </trkpt>
      <trkpt lat="46.00671" lon="6.72533">
        <ele>2083</ele>
        <time>2000-01-02T19:50:13.000Z</time>
      </trkpt>
      <trkpt lat="46.00686" lon="6.72522">
        <ele>2074.9</ele>
        <time>2000-01-02T19:50:23.000Z</time>
      </trkpt>
      <trkpt lat="46.00698" lon="6.72514">
        <ele>2075</ele>
        <time>2000-01-02T19:50:33.000Z</time>
      </trkpt>
      <trkpt lat="46.00705" lon="6.72507">
        <ele>2066.6</ele>
        <time>2000-01-02T19:50:43.000Z</time>
      </trkpt>
      <trkpt lat="46.00711" lon="6.72501">
        <ele>2063.8</ele>
        <time>2000-01-02T19:50:53.000Z</time>
      </trkpt>
      <trkpt lat="46.00718" lon="6.72491">
        <ele>2066</ele>
        <time>2000-01-02T19:51:03.000Z</time>
      </trkpt>
      <trkpt lat="46.00728" lon="6.7248">
        <ele>2056.3</ele>
        <time>2000-01-02T19:51:13.000Z</time>
      </trkpt>
      <trkpt lat="46.00737" lon="6.72467">
        <ele>2059</ele>
        <time>2000-01-02T19:51:23.000Z</time>
      </trkpt>
      <trkpt lat="46.0075" lon="6.72447">
        <ele>2047</ele>
        <time>2000-01-02T19:51:33.000Z</time>
      </trkpt>
      <trkpt lat="46.0076" lon="6.72433">
        <ele>2042.1</ele>
        <time>2000-01-02T19:51:43.000Z</time>
      </trkpt>
      <trkpt lat="46.00772" lon="6.72424">
        <ele>2037</ele>
        <time>2000-01-02T19:51:53.000Z</time>
      </trkpt>
      <trkpt lat="46.00793" lon="6.72411">
        <ele>2030</ele>
        <time>2000-01-02T19:52:03.000Z</time>
      </trkpt>
      <trkpt lat="46.00806" lon="6.72404">
        <ele>2022.4</ele>
        <time>2000-01-02T19:52:13.000Z</time>
      </trkpt>
      <trkpt lat="46.00814" lon="6.72399">
        <ele>2023</ele>
        <time>2000-01-02T19:52:23.000Z</time>
      </trkpt>
      <trkpt lat="46.00825" lon="6.72392">
        <ele>2015.7</ele>
        <time>2000-01-02T19:52:33.000Z</time>
      </trkpt>
      <trkpt lat="46.00834" lon="6.72387">
        <ele>2015</ele>
        <time>2000-01-02T19:52:43.000Z</time>
      </trkpt>
      <trkpt lat="46.00845" lon="6.72381">
        <ele>2008.9</ele>
        <time>2000-01-02T19:52:53.000Z</time>
      </trkpt>
      <trkpt lat="46.00858" lon="6.72379">
        <ele>2010</ele>
        <time>2000-01-02T19:53:03.000Z</time>
      </trkpt>
      <trkpt lat="46.00876" lon="6.72375">
        <ele>1997</ele>
        <time>2000-01-02T19:53:13.000Z</time>
      </trkpt>
      <trkpt lat="46.00892" lon="6.72371">
        <ele>1990</ele>
        <time>2000-01-02T19:53:23.000Z</time>
      </trkpt>
      <trkpt lat="46.00908" lon="6.72365">
        <ele>1982.8</ele>
        <time>2000-01-02T19:53:33.000Z</time>
      </trkpt>
      <trkpt lat="46.00917" lon="6.72358">
        <ele>1988</ele>
        <time>2000-01-02T19:53:43.000Z</time>
      </trkpt>
      <trkpt lat="46.00931" lon="6.72343">
        <ele>1973.5</ele>
        <time>2000-01-02T19:53:53.000Z</time>
      </trkpt>
      <trkpt lat="46.00949" lon="6.7232">
        <ele>1975</ele>
        <time>2000-01-02T19:54:03.000Z</time>
      </trkpt>
      <trkpt lat="46.00967" lon="6.72295">
        <ele>1962</ele>
        <time>2000-01-02T19:54:13.000Z</time>
      </trkpt>
      <trkpt lat="46.00976" lon="6.72287">
        <ele>1955.3</ele>
        <time>2000-01-02T19:54:23.000Z</time>
      </trkpt>
      <trkpt lat="46.00983" lon="6.72285">
        <ele>1952.9</ele>
        <time>2000-01-02T19:54:33.000Z</time>
      </trkpt>
      <trkpt lat="46.00993" lon="6.72285">
        <ele>1952</ele>
        <time>2000-01-02T19:54:43.000Z</time>
      </trkpt>
      <trkpt lat="46.01003" lon="6.72284">
        <ele>1944.2</ele>
        <time>2000-01-02T19:54:53.000Z</time>
      </trkpt>
      <trkpt lat="46.0101" lon="6.72283">
        <ele>1940.9</ele>
        <time>2000-01-02T19:55:03.000Z</time>
      </trkpt>
      <trkpt lat="46.01017" lon="6.72276">
        <ele>1944</ele>
        <time>2000-01-02T19:55:13.000Z</time>
      </trkpt>
      <trkpt lat="46.01026" lon="6.72268">
        <ele>1936.5</ele>
        <time>2000-01-02T19:55:23.000Z</time>
      </trkpt>
      <trkpt lat="46.01035" lon="6.72261">
        <ele>1936</ele>
        <time>2000-01-02T19:55:33.000Z</time>
      </trkpt>
      <trkpt lat="46.01045" lon="6.72255">
        <ele>1928.3</ele>
        <time>2000-01-02T19:55:43.000Z</time>
      </trkpt>
      <trkpt lat="46.01062" lon="6.72247">
        <ele>1923</ele>
        <time>2000-01-02T19:55:53.000Z</time>
      </trkpt>
      <trkpt lat="46.01072" lon="6.72241">
        <ele>1915.6</ele>
        <time>2000-01-02T19:56:03.000Z</time>
      </trkpt>
      <trkpt lat="46.01084" lon="6.72233">
        <ele>1913</ele>
        <time>2000-01-02T19:56:13.000Z</time>
      </trkpt>
      <trkpt lat="46.01089" lon="6.72225">
        <ele>1908.9</ele>
        <time>2000-01-02T19:56:23.000Z</time>
      </trkpt>
      <trkpt lat="46.01095" lon="6.72214">
        <ele>1908.1</ele>
        <time>2000-01-02T19:56:33.000Z</time>
      </trkpt>
      <trkpt lat="46.01103" lon="6.72201">
        <ele>1910</ele>
        <time>2000-01-02T19:56:43.000Z</time>
      </trkpt>
      <trkpt lat="46.01109" lon="6.72194">
        <ele>1905.4</ele>
        <time>2000-01-02T19:56:53.000Z</time>
      </trkpt>
      <trkpt lat="46.01116" lon="6.72189">
        <ele>1903.7</ele>
        <time>2000-01-02T19:57:03.000Z</time>
      </trkpt>
      <trkpt lat="46.0112" lon="6.72187">
        <ele>1908</ele>
        <time>2000-01-02T19:57:13.000Z</time>
      </trkpt>
      <trkpt lat="46.0112" lon="6.7219">
        <ele>1901.6</ele>
        <time>2000-01-02T19:57:23.000Z</time>
      </trkpt>
      <trkpt lat="46.01119" lon="6.72195">
        <ele>1900.4</ele>
        <time>2000-01-02T19:57:33.000Z</time>
      </trkpt>
      <trkpt lat="46.01116" lon="6.722">
        <ele>1900.3</ele>
        <time>2000-01-02T19:57:43.000Z</time>
      </trkpt>
      <trkpt lat="46.01112" lon="6.72206">
        <ele>1900.3</ele>
        <time>2000-01-02T19:57:53.000Z</time>
      </trkpt>
      <trkpt lat="46.0111" lon="6.72213">
        <ele>1903</ele>
        <time>2000-01-02T19:58:03.000Z</time>
      </trkpt>
      <trkpt lat="46.0111" lon="6.72221">
        <ele>1897</ele>
        <time>2000-01-02T19:58:13.000Z</time>
      </trkpt>
      <trkpt lat="46.0111" lon="6.72231">
        <ele>1894.8</ele>
        <time>2000-01-02T19:58:23.000Z</time>
      </trkpt>
      <trkpt lat="46.0111" lon="6.72245">
        <ele>1892</ele>
        <time>2000-01-02T19:58:33.000Z</time>
      </trkpt>
      <trkpt lat="46.01112" lon="6.72256">
        <ele>1888.5</ele>
        <time>2000-01-02T19:58:43.000Z</time>
      </trkpt>
      <trkpt lat="46.01112" lon="6.72266">
        <ele>1886.7</ele>
        <time>2000-01-02T19:58:53.000Z</time>
      </trkpt>
      <trkpt lat="46.01114" lon="6.72282">
        <ele>1884</ele>
        <time>2000-01-02T19:59:03.000Z</time>
      </trkpt>
      <trkpt lat="46.01117" lon="6.72302">
        <ele>1877.7</ele>
        <time>2000-01-02T19:59:13.000Z</time>
      </trkpt>
      <trkpt lat="46.01121" lon="6.72322">
        <ele>1874</ele>
        <time>2000-01-02T19:59:23.000Z</time>
      </trkpt>
      <trkpt lat="46.01125" lon="6.72341">
        <ele>1868.7</ele>
        <time>2000-01-02T19:59:33.000Z</time>
      </trkpt>
      <trkpt lat="46.01129" lon="6.72356">
        <ele>1869</ele>
        <time>2000-01-02T19:59:43.000Z</time>
      </trkpt>
      <trkpt lat="46.01136" lon="6.72368">
        <ele>1861.1</ele>
        <time>2000-01-02T19:59:53.000Z</time>
      </trkpt>
      <trkpt lat="46.01138" lon="6.72372">
        <ele>1860</ele>
        <time>2000-01-02T20:00:03.000Z</time>
      </trkpt>
      <trkpt lat="46.01143" lon="6.72376">
        <ele>1859</ele>
        <time>2000-01-02T20:00:13.000Z</time>
      </trkpt>
      <trkpt lat="46.0115" lon="6.72384">
        <ele>1854.8</ele>
        <time>2000-01-02T20:00:23.000Z</time>
      </trkpt>
      <trkpt lat="46.01157" lon="6.72389">
        <ele>1851.8</ele>
        <time>2000-01-02T20:00:33.000Z</time>
      </trkpt>
      <trkpt lat="46.01163" lon="6.72389">
        <ele>1851</ele>
        <time>2000-01-02T20:00:43.000Z</time>
      </trkpt>
      <trkpt lat="46.0117" lon="6.72389">
        <ele>1846.8</ele>
        <time>2000-01-02T20:00:53.000Z</time>
      </trkpt>
      <trkpt lat="46.01178" lon="6.72387">
        <ele>1844</ele>
        <time>2000-01-02T20:01:03.000Z</time>
      </trkpt>
      <trkpt lat="46.01189" lon="6.72385">
        <ele>1843</ele>
        <time>2000-01-02T20:01:13.000Z</time>
      </trkpt>
      <trkpt lat="46.01198" lon="6.72384">
        <ele>1837</ele>
        <time>2000-01-02T20:01:23.000Z</time>
      </trkpt>
      <trkpt lat="46.01207" lon="6.72384">
        <ele>1834.1</ele>
        <time>2000-01-02T20:01:33.000Z</time>
      </trkpt>
      <trkpt lat="46.01214" lon="6.72384">
        <ele>1833</ele>
        <time>2000-01-02T20:01:43.000Z</time>
      </trkpt>
      <trkpt lat="46.01222" lon="6.72382">
        <ele>1829.3</ele>
        <time>2000-01-02T20:01:53.000Z</time>
      </trkpt>
      <trkpt lat="46.0123" lon="6.7238">
        <ele>1826.8</ele>
        <time>2000-01-02T20:02:03.000Z</time>
      </trkpt>
      <trkpt lat="46.01237" lon="6.7238">
        <ele>1826</ele>
        <time>2000-01-02T20:02:13.000Z</time>
      </trkpt>
      <trkpt lat="46.01243" lon="6.72377">
        <ele>1822.7</ele>
        <time>2000-01-02T20:02:23.000Z</time>
      </trkpt>
      <trkpt lat="46.01248" lon="6.72377">
        <ele>1821.1</ele>
        <time>2000-01-02T20:02:33.000Z</time>
      </trkpt>
      <trkpt lat="46.01261" lon="6.72377">
        <ele>1817</ele>
        <time>2000-01-02T20:02:43.000Z</time>
      </trkpt>
      <trkpt lat="46.01274" lon="6.72377">
        <ele>1814.5</ele>
        <time>2000-01-02T20:02:53.000Z</time>
      </trkpt>
      <trkpt lat="46.01278" lon="6.72377">
        <ele>1813.5</ele>
        <time>2000-01-02T20:03:03.000Z</time>
      </trkpt>
      <trkpt lat="46.01282" lon="6.72374">
        <ele>1813</ele>
        <time>2000-01-02T20:03:13.000Z</time>
      </trkpt>
      <trkpt lat="46.01284" lon="6.72369">
        <ele>1811.9</ele>
        <time>2000-01-02T20:03:23.000Z</time>
      </trkpt>
      <trkpt lat="46.01287" lon="6.72363">
        <ele>1811.1</ele>
        <time>2000-01-02T20:03:33.000Z</time>
      </trkpt>
      <trkpt lat="46.01292" lon="6.72357">
        <ele>1809.8</ele>
        <time>2000-01-02T20:03:43.000Z</time>
      </trkpt>
      <trkpt lat="46.013" lon="6.72352">
        <ele>1807</ele>
        <time>2000-01-02T20:03:53.000Z</time>
      </trkpt>
      <trkpt lat="46.01309" lon="6.72346">
        <ele>1805.1</ele>
        <time>2000-01-02T20:04:03.000Z</time>
      </trkpt>
      <trkpt lat="46.01318" lon="6.72338">
        <ele>1804</ele>
        <time>2000-01-02T20:04:13.000Z</time>
      </trkpt>
      <trkpt lat="46.01324" lon="6.7233">
        <ele>1800.7</ele>
        <time>2000-01-02T20:04:23.000Z</time>
      </trkpt>
      <trkpt lat="46.01334" lon="6.72317">
        <ele>1797</ele>
        <time>2000-01-02T20:04:33.000Z</time>
      </trkpt>
      <trkpt lat="46.01338" lon="6.72312">
        <ele>1795.4</ele>
        <time>2000-01-02T20:04:43.000Z</time>
      </trkpt>
      <trkpt lat="46.01341" lon="6.72309">
        <ele>1794.3</ele>
        <time>2000-01-02T20:04:53.000Z</time>
      </trkpt>
      <trkpt lat="46.01347" lon="6.72308">
        <ele>1792.6</ele>
        <time>2000-01-02T20:05:03.000Z</time>
      </trkpt>
      <trkpt lat="46.01352" lon="6.7231">
        <ele>1790</ele>
        <time>2000-01-02T20:05:13.000Z</time>
      </trkpt>
      <trkpt lat="46.01357" lon="6.72316">
        <ele>1789.9</ele>
        <time>2000-01-02T20:05:23.000Z</time>
      </trkpt>
      <trkpt lat="46.01361" lon="6.72325">
        <ele>1788.3</ele>
        <time>2000-01-02T20:05:33.000Z</time>
      </trkpt>
      <trkpt lat="46.01364" lon="6.72337">
        <ele>1789</ele>
        <time>2000-01-02T20:05:43.000Z</time>
      </trkpt>
      <trkpt lat="46.01369" lon="6.72353">
        <ele>1782.1</ele>
        <time>2000-01-02T20:05:53.000Z</time>
      </trkpt>
      <trkpt lat="46.01374" lon="6.7237">
        <ele>1779</ele>
        <time>2000-01-02T20:06:03.000Z</time>
      </trkpt>
      <trkpt lat="46.01377" lon="6.72382">
        <ele>1773.2</ele>
        <time>2000-01-02T20:06:13.000Z</time>
      </trkpt>
      <trkpt lat="46.01382" lon="6.72397">
        <ele>1768</ele>
        <time>2000-01-02T20:06:23.000Z</time>
      </trkpt>
      <trkpt lat="46.01386" lon="6.7241">
        <ele>1762.9</ele>
        <time>2000-01-02T20:06:33.000Z</time>
      </trkpt>
      <trkpt lat="46.01392" lon="6.72421">
        <ele>1759</ele>
        <time>2000-01-02T20:06:43.000Z</time>
      </trkpt>
      <trkpt lat="46.01397" lon="6.72429">
        <ele>1755.3</ele>
        <time>2000-01-02T20:06:53.000Z</time>
      </trkpt>
      <trkpt lat="46.01401" lon="6.72436">
        <ele>1752.9</ele>
        <time>2000-01-02T20:07:03.000Z</time>
      </trkpt>
      <trkpt lat="46.01404" lon="6.72437">
        <ele>1751.6</ele>
        <time>2000-01-02T20:07:13.000Z</time>
      </trkpt>
      <trkpt lat="46.0141" lon="6.72437">
        <ele>1754</ele>
        <time>2000-01-02T20:07:23.000Z</time>
      </trkpt>
      <trkpt lat="46.01418" lon="6.72434">
        <ele>1747.1</ele>
        <time>2000-01-02T20:07:33.000Z</time>
      </trkpt>
      <trkpt lat="46.01435" lon="6.72429">
        <ele>1745</ele>
        <time>2000-01-02T20:07:43.000Z</time>
      </trkpt>
      <trkpt lat="46.01445" lon="6.72427">
        <ele>1738.7</ele>
        <time>2000-01-02T20:07:53.000Z</time>
      </trkpt>
      <trkpt lat="46.01453" lon="6.72423">
        <ele>1737</ele>
        <time>2000-01-02T20:08:03.000Z</time>
      </trkpt>
      <trkpt lat="46.01463" lon="6.72421">
        <ele>1733.3</ele>
        <time>2000-01-02T20:08:13.000Z</time>
      </trkpt>
      <trkpt lat="46.01473" lon="6.7242">
        <ele>1730</ele>
        <time>2000-01-02T20:08:23.000Z</time>
      </trkpt>
      <trkpt lat="46.01482" lon="6.72419">
        <ele>1726.3</ele>
        <time>2000-01-02T20:08:33.000Z</time>
      </trkpt>
      <trkpt lat="46.01487" lon="6.72416">
        <ele>1724.7</ele>
        <time>2000-01-02T20:08:43.000Z</time>
      </trkpt>
      <trkpt lat="46.01493" lon="6.72412">
        <ele>1727</ele>
        <time>2000-01-02T20:08:53.000Z</time>
      </trkpt>
      <trkpt lat="46.01497" lon="6.72406">
        <ele>1721.8</ele>
        <time>2000-01-02T20:09:03.000Z</time>
      </trkpt>
      <trkpt lat="46.01504" lon="6.72391">
        <ele>1720.5</ele>
        <time>2000-01-02T20:09:13.000Z</time>
      </trkpt>
      <trkpt lat="46.01508" lon="6.7238">
        <ele>1723</ele>
        <time>2000-01-02T20:09:23.000Z</time>
      </trkpt>
      <trkpt lat="46.01515" lon="6.72368">
        <ele>1716.1</ele>
        <time>2000-01-02T20:09:33.000Z</time>
      </trkpt>
      <trkpt lat="46.0152" lon="6.72362">
        <ele>1713.9</ele>
        <time>2000-01-02T20:09:43.000Z</time>
      </trkpt>
      <trkpt lat="46.01531" lon="6.72354">
        <ele>1708</ele>
        <time>2000-01-02T20:09:53.000Z</time>
      </trkpt>
      <trkpt lat="46.01542" lon="6.72351">
        <ele>1704.4</ele>
        <time>2000-01-02T20:10:03.000Z</time>
      </trkpt>
      <trkpt lat="46.01549" lon="6.72352">
        <ele>1701.2</ele>
        <time>2000-01-02T20:10:13.000Z</time>
      </trkpt>
      <trkpt lat="46.01555" lon="6.72357">
        <ele>1701</ele>
        <time>2000-01-02T20:10:23.000Z</time>
      </trkpt>
      <trkpt lat="46.01562" lon="6.72366">
        <ele>1696</ele>
        <time>2000-01-02T20:10:33.000Z</time>
      </trkpt>
      <trkpt lat="46.01567" lon="6.72375">
        <ele>1694.1</ele>
        <time>2000-01-02T20:10:43.000Z</time>
      </trkpt>
      <trkpt lat="46.01577" lon="6.72394">
        <ele>1691</ele>
        <time>2000-01-02T20:10:53.000Z</time>
      </trkpt>
      <trkpt lat="46.01586" lon="6.72407">
        <ele>1686.3</ele>
        <time>2000-01-02T20:11:03.000Z</time>
      </trkpt>
      <trkpt lat="46.01593" lon="6.72417">
        <ele>1684</ele>
        <time>2000-01-02T20:11:13.000Z</time>
      </trkpt>
      <trkpt lat="46.01605" lon="6.72425">
        <ele>1678.6</ele>
        <time>2000-01-02T20:11:23.000Z</time>
      </trkpt>
      <trkpt lat="46.01615" lon="6.72428">
        <ele>1677</ele>
        <time>2000-01-02T20:11:33.000Z</time>
      </trkpt>
      <trkpt lat="46.01626" lon="6.72426">
        <ele>1671.1</ele>
        <time>2000-01-02T20:11:43.000Z</time>
      </trkpt>
      <trkpt lat="46.01637" lon="6.72423">
        <ele>1669</ele>
        <time>2000-01-02T20:11:53.000Z</time>
      </trkpt>
      <trkpt lat="46.01653" lon="6.72418">
        <ele>1661.4</ele>
        <time>2000-01-02T20:12:03.000Z</time>
      </trkpt>
      <trkpt lat="46.01666" lon="6.72413">
        <ele>1659</ele>
        <time>2000-01-02T20:12:13.000Z</time>
      </trkpt>
      <trkpt lat="46.01673" lon="6.72405">
        <ele>1655</ele>
        <time>2000-01-02T20:12:23.000Z</time>
      </trkpt>
      <trkpt lat="46.0168" lon="6.72401">
        <ele>1652.8</ele>
        <time>2000-01-02T20:12:33.000Z</time>
      </trkpt>
      <trkpt lat="46.01688" lon="6.72398">
        <ele>1652</ele>
        <time>2000-01-02T20:12:43.000Z</time>
      </trkpt>
      <trkpt lat="46.01694" lon="6.724">
        <ele>1647.8</ele>
        <time>2000-01-02T20:12:53.000Z</time>
      </trkpt>
      <trkpt lat="46.01697" lon="6.72408">
        <ele>1646.6</ele>
        <time>2000-01-02T20:13:03.000Z</time>
      </trkpt>
      <trkpt lat="46.01702" lon="6.72422">
        <ele>1645</ele>
        <time>2000-01-02T20:13:13.000Z</time>
      </trkpt>
      <trkpt lat="46.01707" lon="6.72436">
        <ele>1642.7</ele>
        <time>2000-01-02T20:13:23.000Z</time>
      </trkpt>
      <trkpt lat="46.01712" lon="6.7245">
        <ele>1641</ele>
        <time>2000-01-02T20:13:33.000Z</time>
      </trkpt>
      <trkpt lat="46.01715" lon="6.72463">
        <ele>1640.7</ele>
        <time>2000-01-02T20:13:43.000Z</time>
      </trkpt>
      <trkpt lat="46.01722" lon="6.72475">
        <ele>1639</ele>
        <time>2000-01-02T20:13:53.000Z</time>
      </trkpt>
      <trkpt lat="46.01728" lon="6.72479">
        <ele>1638.2</ele>
        <time>2000-01-02T20:14:03.000Z</time>
      </trkpt>
      <trkpt lat="46.01738" lon="6.7248">
        <ele>1635.7</ele>
        <time>2000-01-02T20:14:13.000Z</time>
      </trkpt>
      <trkpt lat="46.01751" lon="6.72479">
        <ele>1632</ele>
        <time>2000-01-02T20:14:23.000Z</time>
      </trkpt>
      <trkpt lat="46.01769" lon="6.72477">
        <ele>1627</ele>
        <time>2000-01-02T20:14:33.000Z</time>
      </trkpt>
      <trkpt lat="46.01788" lon="6.72476">
        <ele>1623</ele>
        <time>2000-01-02T20:14:43.000Z</time>
      </trkpt>
      <trkpt lat="46.01804" lon="6.72474">
        <ele>1614.6</ele>
        <time>2000-01-02T20:14:53.000Z</time>
      </trkpt>
      <trkpt lat="46.01815" lon="6.72475">
        <ele>1612</ele>
        <time>2000-01-02T20:15:03.000Z</time>
      </trkpt>
      <trkpt lat="46.01823" lon="6.72476">
        <ele>1607.9</ele>
        <time>2000-01-02T20:15:13.000Z</time>
      </trkpt>
      <trkpt lat="46.01826" lon="6.72473">
        <ele>1606.7</ele>
        <time>2000-01-02T20:15:23.000Z</time>
      </trkpt>
      <trkpt lat="46.01829" lon="6.72471">
        <ele>1605.6</ele>
        <time>2000-01-02T20:15:33.000Z</time>
      </trkpt>
      <trkpt lat="46.01835" lon="6.7247">
        <ele>1604</ele>
        <time>2000-01-02T20:15:43.000Z</time>
      </trkpt>
      <trkpt lat="46.01844" lon="6.7247">
        <ele>1601.9</ele>
        <time>2000-01-02T20:15:53.000Z</time>
      </trkpt>
      <trkpt lat="46.01849" lon="6.72472">
        <ele>1600.6</ele>
        <time>2000-01-02T20:16:03.000Z</time>
      </trkpt>
      <trkpt lat="46.01852" lon="6.72475">
        <ele>1600</ele>
        <time>2000-01-02T20:16:13.000Z</time>
      </trkpt>
      <trkpt lat="46.01857" lon="6.72486">
        <ele>1600</ele>
        <time>2000-01-02T20:16:23.000Z</time>
      </trkpt>
      <trkpt lat="46.01862" lon="6.72498">
        <ele>1597.8</ele>
        <time>2000-01-02T20:16:33.000Z</time>
      </trkpt>
      <trkpt lat="46.01866" lon="6.72503">
        <ele>1597.1</ele>
        <time>2000-01-02T20:16:43.000Z</time>
      </trkpt>
      <trkpt lat="46.0187" lon="6.72509">
        <ele>1597</ele>
        <time>2000-01-02T20:16:53.000Z</time>
      </trkpt>
      <trkpt lat="46.01872" lon="6.72514">
        <ele>1596.3</ele>
        <time>2000-01-02T20:17:03.000Z</time>
      </trkpt>
      <trkpt lat="46.01874" lon="6.72523">
        <ele>1596.1</ele>
        <time>2000-01-02T20:17:13.000Z</time>
      </trkpt>
      <trkpt lat="46.01876" lon="6.72535">
        <ele>1595</ele>
        <time>2000-01-02T20:17:23.000Z</time>
      </trkpt>
      <trkpt lat="46.01878" lon="6.72544">
        <ele>1595.4</ele>
        <time>2000-01-02T20:17:33.000Z</time>
      </trkpt>
      <trkpt lat="46.01881" lon="6.72551">
        <ele>1594.5</ele>
        <time>2000-01-02T20:17:43.000Z</time>
      </trkpt>
      <trkpt lat="46.01883" lon="6.72556">
        <ele>1594</ele>
        <time>2000-01-02T20:17:53.000Z</time>
      </trkpt>
      <trkpt lat="46.01886" lon="6.72558">
        <ele>1593</ele>
        <time>2000-01-02T20:18:03.000Z</time>
      </trkpt>
      <trkpt lat="46.01891" lon="6.72559">
        <ele>1592.4</ele>
        <time>2000-01-02T20:18:13.000Z</time>
      </trkpt>
      <trkpt lat="46.019" lon="6.72561">
        <ele>1590.9</ele>
        <time>2000-01-02T20:18:23.000Z</time>
      </trkpt>
      <trkpt lat="46.01915" lon="6.72563">
        <ele>1588</ele>
        <time>2000-01-02T20:18:33.000Z</time>
      </trkpt>
      <trkpt lat="46.01929" lon="6.72564">
        <ele>1585.5</ele>
        <time>2000-01-02T20:18:43.000Z</time>
      </trkpt>
      <trkpt lat="46.01939" lon="6.72566">
        <ele>1583</ele>
        <time>2000-01-02T20:18:53.000Z</time>
      </trkpt>
      <trkpt lat="46.01946" lon="6.7257">
        <ele>1582.7</ele>
        <time>2000-01-02T20:19:03.000Z</time>
      </trkpt>
      <trkpt lat="46.01959" lon="6.72578">
        <ele>1580</ele>
        <time>2000-01-02T20:19:13.000Z</time>
      </trkpt>
      <trkpt lat="46.01971" lon="6.72583">
        <ele>1577.3</ele>
        <time>2000-01-02T20:19:23.000Z</time>
      </trkpt>
      <trkpt lat="46.01984" lon="6.7259">
        <ele>1575</ele>
        <time>2000-01-02T20:19:33.000Z</time>
      </trkpt>
      <trkpt lat="46.01995" lon="6.72596">
        <ele>1574.3</ele>
        <time>2000-01-02T20:19:43.000Z</time>
      </trkpt>
      <trkpt lat="46.02003" lon="6.72599">
        <ele>1573</ele>
        <time>2000-01-02T20:19:53.000Z</time>
      </trkpt>
      <trkpt lat="46.02007" lon="6.72601">
        <ele>1572.7</ele>
        <time>2000-01-02T20:20:03.000Z</time>
      </trkpt>
      <trkpt lat="46.02013" lon="6.7261">
        <ele>1572.1</ele>
        <time>2000-01-02T20:20:13.000Z</time>
      </trkpt>
      <trkpt lat="46.0202" lon="6.72622">
        <ele>1571</ele>
        <time>2000-01-02T20:20:23.000Z</time>
      </trkpt>
      <trkpt lat="46.02025" lon="6.72628">
        <ele>1571.8</ele>
        <time>2000-01-02T20:20:33.000Z</time>
      </trkpt>
      <trkpt lat="46.0203" lon="6.72633">
        <ele>1571.1</ele>
        <time>2000-01-02T20:20:43.000Z</time>
      </trkpt>
      <trkpt lat="46.02035" lon="6.72634">
        <ele>1570.2</ele>
        <time>2000-01-02T20:20:53.000Z</time>
      </trkpt>
      <trkpt lat="46.02043" lon="6.72632">
        <ele>1568</ele>
        <time>2000-01-02T20:21:03.000Z</time>
      </trkpt>
      <trkpt lat="46.02055" lon="6.72627">
        <ele>1566.1</ele>
        <time>2000-01-02T20:21:13.000Z</time>
      </trkpt>
      <trkpt lat="46.0206" lon="6.72627">
        <ele>1565.1</ele>
        <time>2000-01-02T20:21:23.000Z</time>
      </trkpt>
      <trkpt lat="46.02068" lon="6.72629">
        <ele>1565</ele>
        <time>2000-01-02T20:21:33.000Z</time>
      </trkpt>
      <trkpt lat="46.0208" lon="6.72635">
        <ele>1561.5</ele>
        <time>2000-01-02T20:21:43.000Z</time>
      </trkpt>
      <trkpt lat="46.02099" lon="6.72645">
        <ele>1559</ele>
        <time>2000-01-02T20:21:53.000Z</time>
      </trkpt>
      <trkpt lat="46.02113" lon="6.72651">
        <ele>1556.1</ele>
        <time>2000-01-02T20:22:03.000Z</time>
      </trkpt>
      <trkpt lat="46.02123" lon="6.72654">
        <ele>1554</ele>
        <time>2000-01-02T20:22:13.000Z</time>
      </trkpt>
      <trkpt lat="46.02142" lon="6.72661">
        <ele>1552</ele>
        <time>2000-01-02T20:22:23.000Z</time>
      </trkpt>
      <trkpt lat="46.02156" lon="6.72668">
        <ele>1552.2</ele>
        <time>2000-01-02T20:22:33.000Z</time>
      </trkpt>
      <trkpt lat="46.0217" lon="6.72676">
        <ele>1550</ele>
        <time>2000-01-02T20:22:43.000Z</time>
      </trkpt>
      <trkpt lat="46.02185" lon="6.72687">
        <ele>1548.8</ele>
        <time>2000-01-02T20:22:53.000Z</time>
      </trkpt>
      <trkpt lat="46.02199" lon="6.72702">
        <ele>1548</ele>
        <time>2000-01-02T20:23:03.000Z</time>
      </trkpt>
      <trkpt lat="46.0221" lon="6.72712">
        <ele>1545.6</ele>
        <time>2000-01-02T20:23:13.000Z</time>
      </trkpt>
      <trkpt lat="46.02224" lon="6.72719">
        <ele>1544</ele>
        <time>2000-01-02T20:23:23.000Z</time>
      </trkpt>
      <trkpt lat="46.02238" lon="6.72727">
        <ele>1543.3</ele>
        <time>2000-01-02T20:23:33.000Z</time>
      </trkpt>
      <trkpt lat="46.02258" lon="6.72737">
        <ele>1542</ele>
        <time>2000-01-02T20:23:43.000Z</time>
      </trkpt>
      <trkpt lat="46.02273" lon="6.72745">
        <ele>1540.6</ele>
        <time>2000-01-02T20:23:53.000Z</time>
      </trkpt>
      <trkpt lat="46.02281" lon="6.72746">
        <ele>1539</ele>
        <time>2000-01-02T20:24:03.000Z</time>
      </trkpt>
      <trkpt lat="46.02286" lon="6.72745">
        <ele>1539.7</ele>
        <time>2000-01-02T20:24:13.000Z</time>
      </trkpt>
      <trkpt lat="46.02294" lon="6.72747">
        <ele>1539.4</ele>
        <time>2000-01-02T20:24:23.000Z</time>
      </trkpt>
      <trkpt lat="46.02308" lon="6.72754">
        <ele>1538</ele>
        <time>2000-01-02T20:24:33.000Z</time>
      </trkpt>
      <trkpt lat="46.02324" lon="6.7276">
        <ele>1538.2</ele>
        <time>2000-01-02T20:24:43.000Z</time>
      </trkpt>
      <trkpt lat="46.02338" lon="6.72765">
        <ele>1537</ele>
        <time>2000-01-02T20:24:53.000Z</time>
      </trkpt>
      <trkpt lat="46.02347" lon="6.72771">
        <ele>1537.5</ele>
        <time>2000-01-02T20:25:03.000Z</time>
      </trkpt>
      <trkpt lat="46.0236" lon="6.72776">
        <ele>1537</ele>
        <time>2000-01-02T20:25:13.000Z</time>
      </trkpt>
      <trkpt lat="46.02375" lon="6.72781">
        <ele>1536.4</ele>
        <time>2000-01-02T20:25:23.000Z</time>
      </trkpt>
      <trkpt lat="46.02387" lon="6.72784">
        <ele>1536</ele>
        <time>2000-01-02T20:25:33.000Z</time>
      </trkpt>
      <trkpt lat="46.02397" lon="6.72792">
        <ele>1535.9</ele>
        <time>2000-01-02T20:25:43.000Z</time>
      </trkpt>
      <trkpt lat="46.02404" lon="6.72799">
        <ele>1535</ele>
        <time>2000-01-02T20:25:53.000Z</time>
      </trkpt>
      <trkpt lat="46.02412" lon="6.72805">
        <ele>1535.2</ele>
        <time>2000-01-02T20:26:03.000Z</time>
      </trkpt>
      <trkpt lat="46.02416" lon="6.72811">
        <ele>1535</ele>
        <time>2000-01-02T20:26:13.000Z</time>
      </trkpt>
      <trkpt lat="46.02418" lon="6.72816">
        <ele>1535</ele>
        <time>2000-01-02T20:26:23.000Z</time>
      </trkpt>
      <trkpt lat="46.02422" lon="6.7283">
        <ele>1534.8</ele>
        <time>2000-01-02T20:26:33.000Z</time>
      </trkpt>
      <trkpt lat="46.02427" lon="6.72856">
        <ele>1534</ele>
        <time>2000-01-02T20:26:43.000Z</time>
      </trkpt>
      <trkpt lat="46.0243" lon="6.72866">
        <ele>1534.5</ele>
        <time>2000-01-02T20:26:53.000Z</time>
      </trkpt>
      <trkpt lat="46.02434" lon="6.72876">
        <ele>1534.4</ele>
        <time>2000-01-02T20:27:03.000Z</time>
      </trkpt>
      <trkpt lat="46.02438" lon="6.72883">
        <ele>1534</ele>
        <time>2000-01-02T20:27:13.000Z</time>
      </trkpt>
      <trkpt lat="46.02444" lon="6.72891">
        <ele>1534.1</ele>
        <time>2000-01-02T20:27:23.000Z</time>
      </trkpt>
      <trkpt lat="46.02448" lon="6.729">
        <ele>1534.2</ele>
        <time>2000-01-02T20:27:33.000Z</time>
      </trkpt>
      <trkpt lat="46.02452" lon="6.72912">
        <ele>1534</ele>
        <time>2000-01-02T20:27:43.000Z</time>
      </trkpt>
      <trkpt lat="46.0246" lon="6.72934">
        <ele>1534.8</ele>
        <time>2000-01-02T20:27:53.000Z</time>
      </trkpt>
      <trkpt lat="46.02464" lon="6.72942">
        <ele>1534</ele>
        <time>2000-01-02T20:28:03.000Z</time>
      </trkpt>
      <trkpt lat="46.02472" lon="6.72951">
        <ele>1535</ele>
        <time>2000-01-02T20:28:13.000Z</time>
      </trkpt>
      <trkpt lat="46.02481" lon="6.72962">
        <ele>1534</ele>
        <time>2000-01-02T20:28:23.000Z</time>
      </trkpt>
      <trkpt lat="46.02483" lon="6.72971">
        <ele>1536.3</ele>
        <time>2000-01-02T20:28:33.000Z</time>
      </trkpt>
      <trkpt lat="46.02488" lon="6.72986">
        <ele>1538.6</ele>
        <time>2000-01-02T20:28:43.000Z</time>
      </trkpt>
      <trkpt lat="46.02494" lon="6.72992">
        <ele>1535</ele>
        <time>2000-01-02T20:28:53.000Z</time>
      </trkpt>
      <trkpt lat="46.02502" lon="6.72998">
        <ele>1538.3</ele>
        <time>2000-01-02T20:29:03.000Z</time>
      </trkpt>
      <trkpt lat="46.02512" lon="6.73003">
        <ele>1534</ele>
        <time>2000-01-02T20:29:13.000Z</time>
      </trkpt>
      <trkpt lat="46.02526" lon="6.73009">
        <ele>1536.9</ele>
        <time>2000-01-02T20:29:23.000Z</time>
      </trkpt>
      <trkpt lat="46.0254" lon="6.73011">
        <ele>1534</ele>
        <time>2000-01-02T20:29:33.000Z</time>
      </trkpt>
      <trkpt lat="46.02555" lon="6.73015">
        <ele>1534.3</ele>
        <time>2000-01-02T20:29:43.000Z</time>
      </trkpt>
      <trkpt lat="46.02564" lon="6.7302">
        <ele>1534</ele>
        <time>2000-01-02T20:29:53.000Z</time>
      </trkpt>
      <trkpt lat="46.02573" lon="6.73028">
        <ele>1533.9</ele>
        <time>2000-01-02T20:30:03.000Z</time>
      </trkpt>
      <trkpt lat="46.02586" lon="6.73038">
        <ele>1534</ele>
        <time>2000-01-02T20:30:13.000Z</time>
      </trkpt>
      <trkpt lat="46.02595" lon="6.73044">
        <ele>1535.8</ele>
        <time>2000-01-02T20:30:23.000Z</time>
      </trkpt>
      <trkpt lat="46.02615" lon="6.73053">
        <ele>1534</ele>
        <time>2000-01-02T20:30:33.000Z</time>
      </trkpt>
      <trkpt lat="46.0263" lon="6.73062">
        <ele>1534.9</ele>
        <time>2000-01-02T20:30:43.000Z</time>
      </trkpt>
      <trkpt lat="46.02641" lon="6.73066">
        <ele>1536</ele>
        <time>2000-01-02T20:30:53.000Z</time>
      </trkpt>
      <trkpt lat="46.02652" lon="6.73072">
        <ele>1535.9</ele>
        <time>2000-01-02T20:31:03.000Z</time>
      </trkpt>
      <trkpt lat="46.02666" lon="6.73081">
        <ele>1536</ele>
        <time>2000-01-02T20:31:13.000Z</time>
      </trkpt>
      <trkpt lat="46.02674" lon="6.73087">
        <ele>1536.8</ele>
        <time>2000-01-02T20:31:23.000Z</time>
      </trkpt>
      <trkpt lat="46.02689" lon="6.731">
        <ele>1536</ele>
        <time>2000-01-02T20:31:33.000Z</time>
      </trkpt>
      <trkpt lat="46.02702" lon="6.73109">
        <ele>1538.7</ele>
        <time>2000-01-02T20:31:43.000Z</time>
      </trkpt>
      <trkpt lat="46.02718" lon="6.73116">
        <ele>1537</ele>
        <time>2000-01-02T20:31:53.000Z</time>
      </trkpt>
      <trkpt lat="46.02731" lon="6.73119">
        <ele>1539.8</ele>
        <time>2000-01-02T20:32:03.000Z</time>
      </trkpt>
      <trkpt lat="46.0274" lon="6.73119">
        <ele>1537</ele>
        <time>2000-01-02T20:32:13.000Z</time>
      </trkpt>
      <trkpt lat="46.02751" lon="6.73119">
        <ele>1540.3</ele>
        <time>2000-01-02T20:32:23.000Z</time>
      </trkpt>
      <trkpt lat="46.02765" lon="6.7312">
        <ele>1540</ele>
        <time>2000-01-02T20:32:33.000Z</time>
      </trkpt>
      <trkpt lat="46.02774" lon="6.73121">
        <ele>1542</ele>
        <time>2000-01-02T20:32:43.000Z</time>
      </trkpt>
      <trkpt lat="46.02783" lon="6.73119">
        <ele>1541.6</ele>
        <time>2000-01-02T20:32:53.000Z</time>
      </trkpt>
      <trkpt lat="46.02792" lon="6.73119">
        <ele>1540</ele>
        <time>2000-01-02T20:33:03.000Z</time>
      </trkpt>
      <trkpt lat="46.028" lon="6.73118">
        <ele>1541.1</ele>
        <time>2000-01-02T20:33:13.000Z</time>
      </trkpt>
      <trkpt lat="46.02807" lon="6.73112">
        <ele>1540.1</ele>
        <time>2000-01-02T20:33:23.000Z</time>
      </trkpt>
      <trkpt lat="46.02815" lon="6.73102">
        <ele>1538</ele>
        <time>2000-01-02T20:33:33.000Z</time>
      </trkpt>
      <trkpt lat="46.02821" lon="6.73092">
        <ele>1538.1</ele>
        <time>2000-01-02T20:33:43.000Z</time>
      </trkpt>
      <trkpt lat="46.02827" lon="6.73073">
        <ele>1536</ele>
        <time>2000-01-02T20:33:53.000Z</time>
      </trkpt>
      <trkpt lat="46.02832" lon="6.73065">
        <ele>1536.3</ele>
        <time>2000-01-02T20:34:03.000Z</time>
      </trkpt>
      <trkpt lat="46.0284" lon="6.73063">
        <ele>1536</ele>
        <time>2000-01-02T20:34:13.000Z</time>
      </trkpt>
      <trkpt lat="46.02848" lon="6.73065">
        <ele>1535</ele>
        <time>2000-01-02T20:34:23.000Z</time>
      </trkpt>
      <trkpt lat="46.02856" lon="6.73071">
        <ele>1535.3</ele>
        <time>2000-01-02T20:34:33.000Z</time>
      </trkpt>
      <trkpt lat="46.02866" lon="6.73083">
        <ele>1535</ele>
        <time>2000-01-02T20:34:43.000Z</time>
      </trkpt>
      <trkpt lat="46.02879" lon="6.73096">
        <ele>1534</ele>
        <time>2000-01-02T20:34:53.000Z</time>
      </trkpt>
      <trkpt lat="46.02891" lon="6.73107">
        <ele>1533</ele>
        <time>2000-01-02T20:35:03.000Z</time>
      </trkpt>
      <trkpt lat="46.02901" lon="6.73113">
        <ele>1532.9</ele>
        <time>2000-01-02T20:35:13.000Z</time>
      </trkpt>
      <trkpt lat="46.02912" lon="6.73117">
        <ele>1531</ele>
        <time>2000-01-02T20:35:23.000Z</time>
      </trkpt>
      <trkpt lat="46.02926" lon="6.7312">
        <ele>1531.1</ele>
        <time>2000-01-02T20:35:33.000Z</time>
      </trkpt>
      <trkpt lat="46.02944" lon="6.73124">
        <ele>1529</ele>
        <time>2000-01-02T20:35:43.000Z</time>
      </trkpt>
      <trkpt lat="46.02949" lon="6.73125">
        <ele>1529.5</ele>
        <time>2000-01-02T20:35:53.000Z</time>
      </trkpt>
      <trkpt lat="46.02951" lon="6.73125">
        <ele>1529.5</ele>
        <time>2000-01-02T20:36:03.000Z</time>
      </trkpt>
      <trkpt lat="46.02954" lon="6.73126">
        <ele>1529.5</ele>
        <time>2000-01-02T20:36:13.000Z</time>
      </trkpt>
      <trkpt lat="46.02957" lon="6.73126">
        <ele>1529.5</ele>
        <time>2000-01-02T20:36:23.000Z</time>
      </trkpt>
      <trkpt lat="46.02961" lon="6.73127">
        <ele>1529.5</ele>
        <time>2000-01-02T20:36:33.000Z</time>
      </trkpt>
      <trkpt lat="46.02969" lon="6.73136">
        <ele>1528</ele>
        <time>2000-01-02T20:36:43.000Z</time>
      </trkpt>
      <trkpt lat="46.02981" lon="6.73148">
        <ele>1529.4</ele>
        <time>2000-01-02T20:36:53.000Z</time>
      </trkpt>
      <trkpt lat="46.0299" lon="6.73158">
        <ele>1528</ele>
        <time>2000-01-02T20:37:03.000Z</time>
      </trkpt>
      <trkpt lat="46.03001" lon="6.73169">
        <ele>1528.9</ele>
        <time>2000-01-02T20:37:13.000Z</time>
      </trkpt>
      <trkpt lat="46.0301" lon="6.73177">
        <ele>1527</ele>
        <time>2000-01-02T20:37:23.000Z</time>
      </trkpt>
      <trkpt lat="46.03017" lon="6.73187">
        <ele>1528.2</ele>
        <time>2000-01-02T20:37:33.000Z</time>
      </trkpt>
      <trkpt lat="46.03025" lon="6.73198">
        <ele>1527</ele>
        <time>2000-01-02T20:37:43.000Z</time>
      </trkpt>
      <trkpt lat="46.03033" lon="6.73211">
        <ele>1526.1</ele>
        <time>2000-01-02T20:37:53.000Z</time>
      </trkpt>
      <trkpt lat="46.03043" lon="6.73229">
        <ele>1526</ele>
        <time>2000-01-02T20:38:03.000Z</time>
      </trkpt>
      <trkpt lat="46.03051" lon="6.73238">
        <ele>1525</ele>
        <time>2000-01-02T20:38:13.000Z</time>
      </trkpt>
      <trkpt lat="46.03072" lon="6.73256">
        <ele>1524</ele>
        <time>2000-01-02T20:38:23.000Z</time>
      </trkpt>
      <trkpt lat="46.03088" lon="6.73267">
        <ele>1523</ele>
        <time>2000-01-02T20:38:33.000Z</time>
      </trkpt>
      <trkpt lat="46.03101" lon="6.73275">
        <ele>1522</ele>
        <time>2000-01-02T20:38:43.000Z</time>
      </trkpt>
      <trkpt lat="46.03123" lon="6.73283">
        <ele>1520</ele>
        <time>2000-01-02T20:38:53.000Z</time>
      </trkpt>
      <trkpt lat="46.03141" lon="6.73291">
        <ele>1519</ele>
        <time>2000-01-02T20:39:03.000Z</time>
      </trkpt>
      <trkpt lat="46.03165" lon="6.73306">
        <ele>1518</ele>
        <time>2000-01-02T20:39:13.000Z</time>
      </trkpt>
      <trkpt lat="46.03173" lon="6.73313">
        <ele>1517.7</ele>
        <time>2000-01-02T20:39:23.000Z</time>
      </trkpt>
      <trkpt lat="46.0318" lon="6.73321">
        <ele>1517.4</ele>
        <time>2000-01-02T20:39:33.000Z</time>
      </trkpt>
      <trkpt lat="46.03193" lon="6.73336">
        <ele>1517</ele>
        <time>2000-01-02T20:39:43.000Z</time>
      </trkpt>
      <trkpt lat="46.03204" lon="6.73347">
        <ele>1517.2</ele>
        <time>2000-01-02T20:39:53.000Z</time>
      </trkpt>
      <trkpt lat="46.03212" lon="6.73356">
        <ele>1517</ele>
        <time>2000-01-02T20:40:03.000Z</time>
      </trkpt>
      <trkpt lat="46.03222" lon="6.73368">
        <ele>1517.5</ele>
        <time>2000-01-02T20:40:13.000Z</time>
      </trkpt>
      <trkpt lat="46.03231" lon="6.73381">
        <ele>1517</ele>
        <time>2000-01-02T20:40:23.000Z</time>
      </trkpt>
      <trkpt lat="46.03241" lon="6.73395">
        <ele>1517.6</ele>
        <time>2000-01-02T20:40:33.000Z</time>
      </trkpt>
      <trkpt lat="46.03251" lon="6.73409">
        <ele>1517</ele>
        <time>2000-01-02T20:40:43.000Z</time>
      </trkpt>
      <trkpt lat="46.03267" lon="6.73426">
        <ele>1517</ele>
        <time>2000-01-02T20:40:53.000Z</time>
      </trkpt>
      <trkpt lat="46.03286" lon="6.73446">
        <ele>1517</ele>
        <time>2000-01-02T20:41:03.000Z</time>
      </trkpt>
      <trkpt lat="46.0331" lon="6.73472">
        <ele>1517</ele>
        <time>2000-01-02T20:41:13.000Z</time>
      </trkpt>
      <trkpt lat="46.03318" lon="6.73477">
        <ele>1516.8</ele>
        <time>2000-01-02T20:41:23.000Z</time>
      </trkpt>
      <trkpt lat="46.03321" lon="6.73478">
        <ele>1516.8</ele>
        <time>2000-01-02T20:41:33.000Z</time>
      </trkpt>
      <trkpt lat="46.03325" lon="6.7348">
        <ele>1516.8</ele>
        <time>2000-01-02T20:41:43.000Z</time>
      </trkpt>
      <trkpt lat="46.03338" lon="6.73485">
        <ele>1517</ele>
        <time>2000-01-02T20:41:53.000Z</time>
      </trkpt>
      <trkpt lat="46.03351" lon="6.7349">
        <ele>1516.9</ele>
        <time>2000-01-02T20:42:03.000Z</time>
      </trkpt>
      <trkpt lat="46.03366" lon="6.73498">
        <ele>1517</ele>
        <time>2000-01-02T20:42:13.000Z</time>
      </trkpt>
      <trkpt lat="46.03373" lon="6.73501">
        <ele>1516.7</ele>
        <time>2000-01-02T20:42:23.000Z</time>
      </trkpt>
      <trkpt lat="46.0338" lon="6.73504">
        <ele>1516.9</ele>
        <time>2000-01-02T20:42:33.000Z</time>
      </trkpt>
      <trkpt lat="46.03387" lon="6.73509">
        <ele>1517</ele>
        <time>2000-01-02T20:42:43.000Z</time>
      </trkpt>
      <trkpt lat="46.03395" lon="6.73518">
        <ele>1516.3</ele>
        <time>2000-01-02T20:42:53.000Z</time>
      </trkpt>
      <trkpt lat="46.03407" lon="6.73528">
        <ele>1516</ele>
        <time>2000-01-02T20:43:03.000Z</time>
      </trkpt>
      <trkpt lat="46.03417" lon="6.73538">
        <ele>1514.9</ele>
        <time>2000-01-02T20:43:13.000Z</time>
      </trkpt>
      <trkpt lat="46.03427" lon="6.73547">
        <ele>1514</ele>
        <time>2000-01-02T20:43:23.000Z</time>
      </trkpt>
      <trkpt lat="46.03435" lon="6.73555">
        <ele>1514.4</ele>
        <time>2000-01-02T20:43:33.000Z</time>
      </trkpt>
      <trkpt lat="46.03441" lon="6.73563">
        <ele>1514.2</ele>
        <time>2000-01-02T20:43:43.000Z</time>
      </trkpt>
      <trkpt lat="46.03444" lon="6.73569">
        <ele>1514</ele>
        <time>2000-01-02T20:43:53.000Z</time>
      </trkpt>
      <trkpt lat="46.0345" lon="6.73581">
        <ele>1514.2</ele>
        <time>2000-01-02T20:44:03.000Z</time>
      </trkpt>
      <trkpt lat="46.03457" lon="6.73592">
        <ele>1513</ele>
        <time>2000-01-02T20:44:13.000Z</time>
      </trkpt>
      <trkpt lat="46.03466" lon="6.73608">
        <ele>1514.4</ele>
        <time>2000-01-02T20:44:23.000Z</time>
      </trkpt>
      <trkpt lat="46.03478" lon="6.73624">
        <ele>1513</ele>
        <time>2000-01-02T20:44:33.000Z</time>
      </trkpt>
      <trkpt lat="46.03488" lon="6.73638">
        <ele>1514.4</ele>
        <time>2000-01-02T20:44:43.000Z</time>
      </trkpt>
      <trkpt lat="46.03494" lon="6.73646">
        <ele>1514</ele>
        <time>2000-01-02T20:44:53.000Z</time>
      </trkpt>
      <trkpt lat="46.03497" lon="6.73652">
        <ele>1514.7</ele>
        <time>2000-01-02T20:45:03.000Z</time>
      </trkpt>
      <trkpt lat="46.03503" lon="6.73665">
        <ele>1514.6</ele>
        <time>2000-01-02T20:45:13.000Z</time>
      </trkpt>
      <trkpt lat="46.03513" lon="6.73683">
        <ele>1514</ele>
        <time>2000-01-02T20:45:23.000Z</time>
      </trkpt>
      <trkpt lat="46.03523" lon="6.73701">
        <ele>1515.5</ele>
        <time>2000-01-02T20:45:33.000Z</time>
      </trkpt>
      <trkpt lat="46.03534" lon="6.73719">
        <ele>1516</ele>
        <time>2000-01-02T20:45:43.000Z</time>
      </trkpt>
      <trkpt lat="46.0354" lon="6.73729">
        <ele>1516.9</ele>
        <time>2000-01-02T20:45:53.000Z</time>
      </trkpt>
      <trkpt lat="46.03548" lon="6.7374">
        <ele>1516</ele>
        <time>2000-01-02T20:46:03.000Z</time>
      </trkpt>
      <trkpt lat="46.03559" lon="6.73757">
        <ele>1518.1</ele>
        <time>2000-01-02T20:46:13.000Z</time>
      </trkpt>
      <trkpt lat="46.0357" lon="6.73774">
        <ele>1517</ele>
        <time>2000-01-02T20:46:23.000Z</time>
      </trkpt>
      <trkpt lat="46.03575" lon="6.73783">
        <ele>1519.2</ele>
        <time>2000-01-02T20:46:33.000Z</time>
      </trkpt>
      <trkpt lat="46.03578" lon="6.73788">
        <ele>1519.6</ele>
        <time>2000-01-02T20:46:43.000Z</time>
      </trkpt>
      <trkpt lat="46.0359" lon="6.73798">
        <ele>1519</ele>
        <time>2000-01-02T20:46:53.000Z</time>
      </trkpt>
      <trkpt lat="46.036" lon="6.73804">
        <ele>1520.6</ele>
        <time>2000-01-02T20:47:03.000Z</time>
      </trkpt>
      <trkpt lat="46.03613" lon="6.7381">
        <ele>1520</ele>
        <time>2000-01-02T20:47:13.000Z</time>
      </trkpt>
      <trkpt lat="46.03622" lon="6.73812">
        <ele>1520.8</ele>
        <time>2000-01-02T20:47:23.000Z</time>
      </trkpt>
      <trkpt lat="46.03632" lon="6.73814">
        <ele>1521</ele>
        <time>2000-01-02T20:47:33.000Z</time>
      </trkpt>
      <trkpt lat="46.03639" lon="6.73817">
        <ele>1520.8</ele>
        <time>2000-01-02T20:47:43.000Z</time>
      </trkpt>
      <trkpt lat="46.03643" lon="6.7382">
        <ele>1520.7</ele>
        <time>2000-01-02T20:47:53.000Z</time>
      </trkpt>
      <trkpt lat="46.03651" lon="6.73828">
        <ele>1521</ele>
        <time>2000-01-02T20:48:03.000Z</time>
      </trkpt>
      <trkpt lat="46.03662" lon="6.73841">
        <ele>1519.3</ele>
        <time>2000-01-02T20:48:13.000Z</time>
      </trkpt>
      <trkpt lat="46.03673" lon="6.73851">
        <ele>1518</ele>
        <time>2000-01-02T20:48:23.000Z</time>
      </trkpt>
      <trkpt lat="46.03678" lon="6.73855">
        <ele>1519</ele>
        <time>2000-01-02T20:48:33.000Z</time>
      </trkpt>
      <trkpt lat="46.03686" lon="6.73868">
        <ele>1518.4</ele>
        <time>2000-01-02T20:48:43.000Z</time>
      </trkpt>
      <trkpt lat="46.03694" lon="6.73879">
        <ele>1518</ele>
        <time>2000-01-02T20:48:53.000Z</time>
      </trkpt>
      <trkpt lat="46.037" lon="6.73885">
        <ele>1517.5</ele>
        <time>2000-01-02T20:49:03.000Z</time>
      </trkpt>
      <trkpt lat="46.0371" lon="6.7389">
        <ele>1517.5</ele>
        <time>2000-01-02T20:49:13.000Z</time>
      </trkpt>
      <trkpt lat="46.03717" lon="6.73895">
        <ele>1517</ele>
        <time>2000-01-02T20:49:23.000Z</time>
      </trkpt>
      <trkpt lat="46.03724" lon="6.73905">
        <ele>1516.9</ele>
        <time>2000-01-02T20:49:33.000Z</time>
      </trkpt>
      <trkpt lat="46.03733" lon="6.73917">
        <ele>1516</ele>
        <time>2000-01-02T20:49:43.000Z</time>
      </trkpt>
      <trkpt lat="46.03741" lon="6.73925">
        <ele>1516.1</ele>
        <time>2000-01-02T20:49:53.000Z</time>
      </trkpt>
      <trkpt lat="46.03757" lon="6.73935">
        <ele>1515</ele>
        <time>2000-01-02T20:50:03.000Z</time>
      </trkpt>
      <trkpt lat="46.03766" lon="6.7394">
        <ele>1514</ele>
        <time>2000-01-02T20:50:13.000Z</time>
      </trkpt>
      <trkpt lat="46.03783" lon="6.73954">
        <ele>1512</ele>
        <time>2000-01-02T20:50:23.000Z</time>
      </trkpt>
      <trkpt lat="46.03803" lon="6.73967">
        <ele>1510</ele>
        <time>2000-01-02T20:50:33.000Z</time>
      </trkpt>
      <trkpt lat="46.03813" lon="6.73971">
        <ele>1508.2</ele>
        <time>2000-01-02T20:50:43.000Z</time>
      </trkpt>
      <trkpt lat="46.03813" lon="6.73971">
        <ele>1508.2</ele>
        <time>2000-01-02T20:50:53.000Z</time>
      </trkpt>
      <trkpt lat="46.03813" lon="6.73971">
        <ele>1508.2</ele>
        <time>2000-01-02T20:51:03.000Z</time>
      </trkpt>
      <trkpt lat="46.0383" lon="6.73974">
        <ele>1508</ele>
        <time>2000-01-02T20:51:13.000Z</time>
      </trkpt>
      <trkpt lat="46.03838" lon="6.73974">
        <ele>1507.6</ele>
        <time>2000-01-02T20:51:23.000Z</time>
      </trkpt>
      <trkpt lat="46.03848" lon="6.73976">
        <ele>1507.1</ele>
        <time>2000-01-02T20:51:33.000Z</time>
      </trkpt>
      <trkpt lat="46.03865" lon="6.73978">
        <ele>1507</ele>
        <time>2000-01-02T20:51:43.000Z</time>
      </trkpt>
      <trkpt lat="46.03873" lon="6.73978">
        <ele>1506.5</ele>
        <time>2000-01-02T20:51:53.000Z</time>
      </trkpt>
      <trkpt lat="46.03878" lon="6.73975">
        <ele>1507.2</ele>
        <time>2000-01-02T20:52:03.000Z</time>
      </trkpt>
      <trkpt lat="46.03884" lon="6.73971">
        <ele>1507</ele>
        <time>2000-01-02T20:52:13.000Z</time>
      </trkpt>
      <trkpt lat="46.03888" lon="6.73969">
        <ele>1508.8</ele>
        <time>2000-01-02T20:52:23.000Z</time>
      </trkpt>
      <trkpt lat="46.03892" lon="6.73971">
        <ele>1508.8</ele>
        <time>2000-01-02T20:52:33.000Z</time>
      </trkpt>
      <trkpt lat="46.03897" lon="6.73976">
        <ele>1508</ele>
        <time>2000-01-02T20:52:43.000Z</time>
      </trkpt>
      <trkpt lat="46.03904" lon="6.73988">
        <ele>1506</ele>
        <time>2000-01-02T20:52:53.000Z</time>
      </trkpt>
      <trkpt lat="46.03909" lon="6.73996">
        <ele>1502.8</ele>
        <time>2000-01-02T20:53:03.000Z</time>
      </trkpt>
      <trkpt lat="46.03916" lon="6.74008">
        <ele>1498.5</ele>
        <time>2000-01-02T20:53:13.000Z</time>
      </trkpt>
      <trkpt lat="46.0392" lon="6.74013">
        <ele>1504</ele>
        <time>2000-01-02T20:53:23.000Z</time>
      </trkpt>
      <trkpt lat="46.03925" lon="6.74015">
        <ele>1497.6</ele>
        <time>2000-01-02T20:53:33.000Z</time>
      </trkpt>
      <trkpt lat="46.03936" lon="6.74017">
        <ele>1499.5</ele>
        <time>2000-01-02T20:53:43.000Z</time>
      </trkpt>
      <trkpt lat="46.0394" lon="6.74019">
        <ele>1503</ele>
        <time>2000-01-02T20:53:53.000Z</time>
      </trkpt>
      <trkpt lat="46.03949" lon="6.74025">
        <ele>1499.5</ele>
        <time>2000-01-02T20:54:03.000Z</time>
      </trkpt>
      <trkpt lat="46.03961" lon="6.74039">
        <ele>1500</ele>
        <time>2000-01-02T20:54:13.000Z</time>
      </trkpt>
      <trkpt lat="46.03966" lon="6.74048">
        <ele>1493.6</ele>
        <time>2000-01-02T20:54:23.000Z</time>
      </trkpt>
      <trkpt lat="46.03969" lon="6.74052">
        <ele>1492.6</ele>
        <time>2000-01-02T20:54:33.000Z</time>
      </trkpt>
      <trkpt lat="46.03975" lon="6.74059">
        <ele>1497</ele>
        <time>2000-01-02T20:54:43.000Z</time>
      </trkpt>
      <trkpt lat="46.03981" lon="6.7406">
        <ele>1492.8</ele>
        <time>2000-01-02T20:54:53.000Z</time>
      </trkpt>
      <trkpt lat="46.03989" lon="6.74059">
        <ele>1496.2</ele>
        <time>2000-01-02T20:55:03.000Z</time>
      </trkpt>
      <trkpt lat="46.03995" lon="6.74061">
        <ele>1498</ele>
        <time>2000-01-02T20:55:13.000Z</time>
      </trkpt>
      <trkpt lat="46.04003" lon="6.7407">
        <ele>1495.4</ele>
        <time>2000-01-02T20:55:23.000Z</time>
      </trkpt>
      <trkpt lat="46.0401" lon="6.7408">
        <ele>1492</ele>
        <time>2000-01-02T20:55:33.000Z</time>
      </trkpt>
      <trkpt lat="46.04016" lon="6.74089">
        <ele>1490.2</ele>
        <time>2000-01-02T20:55:43.000Z</time>
      </trkpt>
      <trkpt lat="46.04022" lon="6.74098">
        <ele>1487.7</ele>
        <time>2000-01-02T20:55:53.000Z</time>
      </trkpt>
      <trkpt lat="46.04026" lon="6.741">
        <ele>1495</ele>
        <time>2000-01-02T20:56:03.000Z</time>
      </trkpt>
      <trkpt lat="46.04032" lon="6.74099">
        <ele>1491.4</ele>
        <time>2000-01-02T20:56:13.000Z</time>
      </trkpt>
      <trkpt lat="46.04038" lon="6.74099">
        <ele>1494</ele>
        <time>2000-01-02T20:56:23.000Z</time>
      </trkpt>
      <trkpt lat="46.04043" lon="6.741">
        <ele>1495.7</ele>
        <time>2000-01-02T20:56:33.000Z</time>
      </trkpt>
      <trkpt lat="46.04053" lon="6.74106">
        <ele>1492</ele>
        <time>2000-01-02T20:56:43.000Z</time>
      </trkpt>
      <trkpt lat="46.0406" lon="6.74116">
        <ele>1496.6</ele>
        <time>2000-01-02T20:56:53.000Z</time>
      </trkpt>
      <trkpt lat="46.04066" lon="6.74132">
        <ele>1490</ele>
        <time>2000-01-02T20:57:03.000Z</time>
      </trkpt>
      <trkpt lat="46.04071" lon="6.74148">
        <ele>1489.4</ele>
        <time>2000-01-02T20:57:13.000Z</time>
      </trkpt>
      <trkpt lat="46.04079" lon="6.74164">
        <ele>1484</ele>
        <time>2000-01-02T20:57:23.000Z</time>
      </trkpt>
      <trkpt lat="46.04086" lon="6.74175">
        <ele>1483.8</ele>
        <time>2000-01-02T20:57:33.000Z</time>
      </trkpt>
      <trkpt lat="46.04092" lon="6.74179">
        <ele>1484.5</ele>
        <time>2000-01-02T20:57:43.000Z</time>
      </trkpt>
      <trkpt lat="46.04099" lon="6.74182">
        <ele>1489</ele>
        <time>2000-01-02T20:57:53.000Z</time>
      </trkpt>
      <trkpt lat="46.0411" lon="6.74184">
        <ele>1490.7</ele>
        <time>2000-01-02T20:58:03.000Z</time>
      </trkpt>
      <trkpt lat="46.0412" lon="6.74189">
        <ele>1490</ele>
        <time>2000-01-02T20:58:13.000Z</time>
      </trkpt>
      <trkpt lat="46.04129" lon="6.74197">
        <ele>1493.9</ele>
        <time>2000-01-02T20:58:23.000Z</time>
      </trkpt>
      <trkpt lat="46.04134" lon="6.74204">
        <ele>1495.3</ele>
        <time>2000-01-02T20:58:33.000Z</time>
      </trkpt>
      <trkpt lat="46.04135" lon="6.74212">
        <ele>1485</ele>
        <time>2000-01-02T20:58:43.000Z</time>
      </trkpt>
      <trkpt lat="46.04135" lon="6.74217">
        <ele>1494.1</ele>
        <time>2000-01-02T20:58:53.000Z</time>
      </trkpt>
      <trkpt lat="46.04129" lon="6.74237">
        <ele>1488.3</ele>
        <time>2000-01-02T20:59:03.000Z</time>
      </trkpt>
      <trkpt lat="46.04124" lon="6.74253">
        <ele>1480</ele>
        <time>2000-01-02T20:59:13.000Z</time>
      </trkpt>
      <trkpt lat="46.04122" lon="6.74263">
        <ele>1480.8</ele>
        <time>2000-01-02T20:59:23.000Z</time>
      </trkpt>
      <trkpt lat="46.04121" lon="6.74274">
        <ele>1478.9</ele>
        <time>2000-01-02T20:59:33.000Z</time>
      </trkpt>
      <trkpt lat="46.04123" lon="6.74285">
        <ele>1480</ele>
        <time>2000-01-02T20:59:43.000Z</time>
      </trkpt>
      <trkpt lat="46.0413" lon="6.74307">
        <ele>1479.6</ele>
        <time>2000-01-02T20:59:53.000Z</time>
      </trkpt>
      <trkpt lat="46.04135" lon="6.74319">
        <ele>1480</ele>
        <time>2000-01-02T21:00:03.000Z</time>
      </trkpt>
      <trkpt lat="46.04142" lon="6.74331">
        <ele>1480.6</ele>
        <time>2000-01-02T21:00:13.000Z</time>
      </trkpt>
      <trkpt lat="46.0415" lon="6.7434">
        <ele>1481</ele>
        <time>2000-01-02T21:00:23.000Z</time>
      </trkpt>
      <trkpt lat="46.04156" lon="6.74345">
        <ele>1484.4</ele>
        <time>2000-01-02T21:00:33.000Z</time>
      </trkpt>
      <trkpt lat="46.04159" lon="6.74353">
        <ele>1483.4</ele>
        <time>2000-01-02T21:00:43.000Z</time>
      </trkpt>
      <trkpt lat="46.04162" lon="6.74363">
        <ele>1481</ele>
        <time>2000-01-02T21:00:53.000Z</time>
      </trkpt>
      <trkpt lat="46.04163" lon="6.74372">
        <ele>1478.6</ele>
        <time>2000-01-02T21:01:03.000Z</time>
      </trkpt>
      <trkpt lat="46.04167" lon="6.74378">
        <ele>1478.5</ele>
        <time>2000-01-02T21:01:13.000Z</time>
      </trkpt>
      <trkpt lat="46.04172" lon="6.74381">
        <ele>1480.6</ele>
        <time>2000-01-02T21:01:23.000Z</time>
      </trkpt>
      <trkpt lat="46.0418" lon="6.74382">
        <ele>1481</ele>
        <time>2000-01-02T21:01:33.000Z</time>
      </trkpt>
      <trkpt lat="46.04184" lon="6.74383">
        <ele>1487.6</ele>
        <time>2000-01-02T21:01:43.000Z</time>
      </trkpt>
      <trkpt lat="46.04189" lon="6.74387">
        <ele>1489.2</ele>
        <time>2000-01-02T21:01:53.000Z</time>
      </trkpt>
      <trkpt lat="46.04195" lon="6.74397">
        <ele>1482</ele>
        <time>2000-01-02T21:02:03.000Z</time>
      </trkpt>
      <trkpt lat="46.042" lon="6.74412">
        <ele>1487</ele>
        <time>2000-01-02T21:02:13.000Z</time>
      </trkpt>
      <trkpt lat="46.04202" lon="6.74422">
        <ele>1483</ele>
        <time>2000-01-02T21:02:23.000Z</time>
      </trkpt>
      <trkpt lat="46.04205" lon="6.7443">
        <ele>1484.2</ele>
        <time>2000-01-02T21:02:33.000Z</time>
      </trkpt>
      <trkpt lat="46.04208" lon="6.74433">
        <ele>1485.4</ele>
        <time>2000-01-02T21:02:43.000Z</time>
      </trkpt>
      <trkpt lat="46.04214" lon="6.74439">
        <ele>1487.7</ele>
        <time>2000-01-02T21:02:53.000Z</time>
      </trkpt>
      <trkpt lat="46.04218" lon="6.74447">
        <ele>1483</ele>
        <time>2000-01-02T21:03:03.000Z</time>
      </trkpt>
      <trkpt lat="46.04222" lon="6.74459">
        <ele>1487.1</ele>
        <time>2000-01-02T21:03:13.000Z</time>
      </trkpt>
      <trkpt lat="46.04226" lon="6.74472">
        <ele>1483</ele>
        <time>2000-01-02T21:03:23.000Z</time>
      </trkpt>
      <trkpt lat="46.0423" lon="6.74487">
        <ele>1483.3</ele>
        <time>2000-01-02T21:03:33.000Z</time>
      </trkpt>
      <trkpt lat="46.04237" lon="6.74498">
        <ele>1485</ele>
        <time>2000-01-02T21:03:43.000Z</time>
      </trkpt>
      <trkpt lat="46.04246" lon="6.74512">
        <ele>1485.9</ele>
        <time>2000-01-02T21:03:53.000Z</time>
      </trkpt>
      <trkpt lat="46.04252" lon="6.74525">
        <ele>1484</ele>
        <time>2000-01-02T21:04:03.000Z</time>
      </trkpt>
      <trkpt lat="46.04255" lon="6.74539">
        <ele>1482.8</ele>
        <time>2000-01-02T21:04:13.000Z</time>
      </trkpt>
      <trkpt lat="46.04258" lon="6.74549">
        <ele>1481.6</ele>
        <time>2000-01-02T21:04:23.000Z</time>
      </trkpt>
      <trkpt lat="46.04262" lon="6.74558">
        <ele>1483</ele>
        <time>2000-01-02T21:04:33.000Z</time>
      </trkpt>
      <trkpt lat="46.04264" lon="6.74562">
        <ele>1481.7</ele>
        <time>2000-01-02T21:04:43.000Z</time>
      </trkpt>
      <trkpt lat="46.04271" lon="6.74571">
        <ele>1483.9</ele>
        <time>2000-01-02T21:04:53.000Z</time>
      </trkpt>
      <trkpt lat="46.04275" lon="6.74582">
        <ele>1479</ele>
        <time>2000-01-02T21:05:03.000Z</time>
      </trkpt>
      <trkpt lat="46.04276" lon="6.74591">
        <ele>1481.6</ele>
        <time>2000-01-02T21:05:13.000Z</time>
      </trkpt>
      <trkpt lat="46.04277" lon="6.74602">
        <ele>1479.1</ele>
        <time>2000-01-02T21:05:23.000Z</time>
      </trkpt>
      <trkpt lat="46.04279" lon="6.74613">
        <ele>1478</ele>
        <time>2000-01-02T21:05:33.000Z</time>
      </trkpt>
      <trkpt lat="46.04285" lon="6.74626">
        <ele>1477.9</ele>
        <time>2000-01-02T21:05:43.000Z</time>
      </trkpt>
      <trkpt lat="46.04291" lon="6.74644">
        <ele>1478</ele>
        <time>2000-01-02T21:05:53.000Z</time>
      </trkpt>
      <trkpt lat="46.04296" lon="6.74656">
        <ele>1477.5</ele>
        <time>2000-01-02T21:06:03.000Z</time>
      </trkpt>
      <trkpt lat="46.04301" lon="6.74666">
        <ele>1478.2</ele>
        <time>2000-01-02T21:06:13.000Z</time>
      </trkpt>
      <trkpt lat="46.04307" lon="6.74682">
        <ele>1474</ele>
        <time>2000-01-02T21:06:23.000Z</time>
      </trkpt>
      <trkpt lat="46.04312" lon="6.74701">
        <ele>1474.8</ele>
        <time>2000-01-02T21:06:33.000Z</time>
      </trkpt>
      <trkpt lat="46.04317" lon="6.74719">
        <ele>1470</ele>
        <time>2000-01-02T21:06:43.000Z</time>
      </trkpt>
      <trkpt lat="46.04323" lon="6.74733">
        <ele>1472.3</ele>
        <time>2000-01-02T21:06:53.000Z</time>
      </trkpt>
      <trkpt lat="46.04328" lon="6.74746">
        <ele>1470</ele>
        <time>2000-01-02T21:07:03.000Z</time>
      </trkpt>
      <trkpt lat="46.04332" lon="6.74759">
        <ele>1471.3</ele>
        <time>2000-01-02T21:07:13.000Z</time>
      </trkpt>
      <trkpt lat="46.04335" lon="6.74771">
        <ele>1467</ele>
        <time>2000-01-02T21:07:23.000Z</time>
      </trkpt>
      <trkpt lat="46.04336" lon="6.74778">
        <ele>1469</ele>
        <time>2000-01-02T21:07:33.000Z</time>
      </trkpt>
      <trkpt lat="46.04336" lon="6.74788">
        <ele>1466.8</ele>
        <time>2000-01-02T21:07:43.000Z</time>
      </trkpt>
      <trkpt lat="46.04337" lon="6.748">
        <ele>1461</ele>
        <time>2000-01-02T21:07:53.000Z</time>
      </trkpt>
      <trkpt lat="46.0434" lon="6.74811">
        <ele>1463.7</ele>
        <time>2000-01-02T21:08:03.000Z</time>
      </trkpt>
      <trkpt lat="46.04345" lon="6.74825">
        <ele>1461</ele>
        <time>2000-01-02T21:08:13.000Z</time>
      </trkpt>
      <trkpt lat="46.0435" lon="6.74837">
        <ele>1462.9</ele>
        <time>2000-01-02T21:08:23.000Z</time>
      </trkpt>
      <trkpt lat="46.04355" lon="6.74849">
        <ele>1463</ele>
        <time>2000-01-02T21:08:33.000Z</time>
      </trkpt>
      <trkpt lat="46.04362" lon="6.74855">
        <ele>1463.5</ele>
        <time>2000-01-02T21:08:43.000Z</time>
      </trkpt>
      <trkpt lat="46.0437" lon="6.7486">
        <ele>1463.8</ele>
        <time>2000-01-02T21:08:53.000Z</time>
      </trkpt>
      <trkpt lat="46.04381" lon="6.74862">
        <ele>1466</ele>
        <time>2000-01-02T21:09:03.000Z</time>
      </trkpt>
      <trkpt lat="46.04389" lon="6.74864">
        <ele>1466.4</ele>
        <time>2000-01-02T21:09:13.000Z</time>
      </trkpt>
      <trkpt lat="46.044" lon="6.74866">
        <ele>1468</ele>
        <time>2000-01-02T21:09:23.000Z</time>
      </trkpt>
      <trkpt lat="46.04412" lon="6.74868">
        <ele>1467.6</ele>
        <time>2000-01-02T21:09:33.000Z</time>
      </trkpt>
      <trkpt lat="46.04417" lon="6.74867">
        <ele>1468.1</ele>
        <time>2000-01-02T21:09:43.000Z</time>
      </trkpt>
      <trkpt lat="46.0442" lon="6.74867">
        <ele>1468</ele>
        <time>2000-01-02T21:09:53.000Z</time>
      </trkpt>
      <trkpt lat="46.0443" lon="6.74863">
        <ele>1468.3</ele>
        <time>2000-01-02T21:10:03.000Z</time>
      </trkpt>
      <trkpt lat="46.0444" lon="6.74855">
        <ele>1469</ele>
        <time>2000-01-02T21:10:13.000Z</time>
      </trkpt>
      <trkpt lat="46.04447" lon="6.74849">
        <ele>1469.2</ele>
        <time>2000-01-02T21:10:23.000Z</time>
      </trkpt>
      <trkpt lat="46.04455" lon="6.74839">
        <ele>1470</ele>
        <time>2000-01-02T21:10:33.000Z</time>
      </trkpt>
      <trkpt lat="46.04467" lon="6.74823">
        <ele>1469.4</ele>
        <time>2000-01-02T21:10:43.000Z</time>
      </trkpt>
      <trkpt lat="46.04479" lon="6.74807">
        <ele>1470</ele>
        <time>2000-01-02T21:10:53.000Z</time>
      </trkpt>
      <trkpt lat="46.04494" lon="6.7479">
        <ele>1470</ele>
        <time>2000-01-02T21:11:03.000Z</time>
      </trkpt>
      <trkpt lat="46.04506" lon="6.74772">
        <ele>1469.9</ele>
        <time>2000-01-02T21:11:13.000Z</time>
      </trkpt>
      <trkpt lat="46.04521" lon="6.74748">
        <ele>1469</ele>
        <time>2000-01-02T21:11:23.000Z</time>
      </trkpt>
      <trkpt lat="46.0453" lon="6.7473">
        <ele>1467</ele>
        <time>2000-01-02T21:11:33.000Z</time>
      </trkpt>
      <trkpt lat="46.04541" lon="6.74708">
        <ele>1464</ele>
        <time>2000-01-02T21:11:43.000Z</time>
      </trkpt>
      <trkpt lat="46.04553" lon="6.74687">
        <ele>1462</ele>
        <time>2000-01-02T21:11:53.000Z</time>
      </trkpt>
      <trkpt lat="46.04556" lon="6.74681">
        <ele>1461</ele>
        <time>2000-01-02T21:12:03.000Z</time>
      </trkpt>
      <trkpt lat="46.04561" lon="6.74672">
        <ele>1460.3</ele>
        <time>2000-01-02T21:12:13.000Z</time>
      </trkpt>
      <trkpt lat="46.0457" lon="6.74651">
        <ele>1458</ele>
        <time>2000-01-02T21:12:23.000Z</time>
      </trkpt>
      <trkpt lat="46.04577" lon="6.74638">
        <ele>1457.6</ele>
        <time>2000-01-02T21:12:33.000Z</time>
      </trkpt>
      <trkpt lat="46.04588" lon="6.7462">
        <ele>1458</ele>
        <time>2000-01-02T21:12:43.000Z</time>
      </trkpt>
      <trkpt lat="46.04597" lon="6.74605">
        <ele>1454.8</ele>
        <time>2000-01-02T21:12:53.000Z</time>
      </trkpt>
      <trkpt lat="46.04603" lon="6.74595">
        <ele>1454</ele>
        <time>2000-01-02T21:13:03.000Z</time>
      </trkpt>
      <trkpt lat="46.04607" lon="6.74586">
        <ele>1453</ele>
        <time>2000-01-02T21:13:13.000Z</time>
      </trkpt>
      <trkpt lat="46.04611" lon="6.74574">
        <ele>1452.4</ele>
        <time>2000-01-02T21:13:23.000Z</time>
      </trkpt>
      <trkpt lat="46.04617" lon="6.74551">
        <ele>1454</ele>
        <time>2000-01-02T21:13:33.000Z</time>
      </trkpt>
      <trkpt lat="46.04624" lon="6.74531">
        <ele>1452.5</ele>
        <time>2000-01-02T21:13:43.000Z</time>
      </trkpt>
      <trkpt lat="46.04634" lon="6.74506">
        <ele>1453</ele>
        <time>2000-01-02T21:13:53.000Z</time>
      </trkpt>
      <trkpt lat="46.04637" lon="6.74496">
        <ele>1451.5</ele>
        <time>2000-01-02T21:14:03.000Z</time>
      </trkpt>
      <trkpt lat="46.04638" lon="6.74487">
        <ele>1451.3</ele>
        <time>2000-01-02T21:14:13.000Z</time>
      </trkpt>
      <trkpt lat="46.04638" lon="6.74476">
        <ele>1453</ele>
        <time>2000-01-02T21:14:23.000Z</time>
      </trkpt>
      <trkpt lat="46.04638" lon="6.74464">
        <ele>1451.6</ele>
        <time>2000-01-02T21:14:33.000Z</time>
      </trkpt>
      <trkpt lat="46.04639" lon="6.74452">
        <ele>1451.7</ele>
        <time>2000-01-02T21:14:43.000Z</time>
      </trkpt>
      <trkpt lat="46.04641" lon="6.74443">
        <ele>1452</ele>
        <time>2000-01-02T21:14:53.000Z</time>
      </trkpt>
      <trkpt lat="46.04647" lon="6.74426">
        <ele>1450.7</ele>
        <time>2000-01-02T21:15:03.000Z</time>
      </trkpt>
      <trkpt lat="46.04654" lon="6.74405">
        <ele>1449</ele>
        <time>2000-01-02T21:15:13.000Z</time>
      </trkpt>
      <trkpt lat="46.04656" lon="6.74396">
        <ele>1449.3</ele>
        <time>2000-01-02T21:15:23.000Z</time>
      </trkpt>
      <trkpt lat="46.0466" lon="6.74378">
        <ele>1449</ele>
        <time>2000-01-02T21:15:33.000Z</time>
      </trkpt>
      <trkpt lat="46.04662" lon="6.74365">
        <ele>1448.4</ele>
        <time>2000-01-02T21:15:43.000Z</time>
      </trkpt>
      <trkpt lat="46.04663" lon="6.74355">
        <ele>1448.4</ele>
        <time>2000-01-02T21:15:53.000Z</time>
      </trkpt>
      <trkpt lat="46.04663" lon="6.74341">
        <ele>1449</ele>
        <time>2000-01-02T21:16:03.000Z</time>
      </trkpt>
      <trkpt lat="46.04663" lon="6.74325">
        <ele>1449.7</ele>
        <time>2000-01-02T21:16:13.000Z</time>
      </trkpt>
      <trkpt lat="46.04665" lon="6.74312">
        <ele>1449</ele>
        <time>2000-01-02T21:16:23.000Z</time>
      </trkpt>
      <trkpt lat="46.0467" lon="6.74282">
        <ele>1449</ele>
        <time>2000-01-02T21:16:33.000Z</time>
      </trkpt>
      <trkpt lat="46.04676" lon="6.74261">
        <ele>1448.8</ele>
        <time>2000-01-02T21:16:43.000Z</time>
      </trkpt>
      <trkpt lat="46.04679" lon="6.74234">
        <ele>1451</ele>
        <time>2000-01-02T21:16:53.000Z</time>
      </trkpt>
      <trkpt lat="46.04683" lon="6.74215">
        <ele>1450.1</ele>
        <time>2000-01-02T21:17:03.000Z</time>
      </trkpt>
      <trkpt lat="46.04686" lon="6.74199">
        <ele>1453</ele>
        <time>2000-01-02T21:17:13.000Z</time>
      </trkpt>
      <trkpt lat="46.04688" lon="6.74183">
        <ele>1450.4</ele>
        <time>2000-01-02T21:17:23.000Z</time>
      </trkpt>
      <trkpt lat="46.04688" lon="6.74173">
        <ele>1451.2</ele>
        <time>2000-01-02T21:17:33.000Z</time>
      </trkpt>
      <trkpt lat="46.04688" lon="6.74165">
        <ele>1455</ele>
        <time>2000-01-02T21:17:43.000Z</time>
      </trkpt>
      <trkpt lat="46.04686" lon="6.74158">
        <ele>1453.8</ele>
        <time>2000-01-02T21:17:53.000Z</time>
      </trkpt>
      <trkpt lat="46.04684" lon="6.74154">
        <ele>1455.4</ele>
        <time>2000-01-02T21:18:03.000Z</time>
      </trkpt>
      <trkpt lat="46.04683" lon="6.74148">
        <ele>1456.6</ele>
        <time>2000-01-02T21:18:13.000Z</time>
      </trkpt>
      <trkpt lat="46.04684" lon="6.74141">
        <ele>1456.8</ele>
        <time>2000-01-02T21:18:23.000Z</time>
      </trkpt>
      <trkpt lat="46.04686" lon="6.74138">
        <ele>1455</ele>
        <time>2000-01-02T21:18:33.000Z</time>
      </trkpt>
      <trkpt lat="46.04688" lon="6.74136">
        <ele>1455.4</ele>
        <time>2000-01-02T21:18:43.000Z</time>
      </trkpt>
      <trkpt lat="46.04694" lon="6.74132">
        <ele>1453</ele>
        <time>2000-01-02T21:18:53.000Z</time>
      </trkpt>
      <trkpt lat="46.04698" lon="6.74127">
        <ele>1452.1</ele>
        <time>2000-01-02T21:19:03.000Z</time>
      </trkpt>
      <trkpt lat="46.04704" lon="6.74117">
        <ele>1455</ele>
        <time>2000-01-02T21:19:13.000Z</time>
      </trkpt>
      <trkpt lat="46.04707" lon="6.7411">
        <ele>1451.6</ele>
        <time>2000-01-02T21:19:23.000Z</time>
      </trkpt>
      <trkpt lat="46.04717" lon="6.7409">
        <ele>1455</ele>
        <time>2000-01-02T21:19:33.000Z</time>
      </trkpt>
      <trkpt lat="46.04725" lon="6.74075">
        <ele>1454.5</ele>
        <time>2000-01-02T21:19:43.000Z</time>
      </trkpt>
      <trkpt lat="46.04734" lon="6.74061">
        <ele>1458</ele>
        <time>2000-01-02T21:19:53.000Z</time>
      </trkpt>
      <trkpt lat="46.04742" lon="6.74049">
        <ele>1455.8</ele>
        <time>2000-01-02T21:20:03.000Z</time>
      </trkpt>
      <trkpt lat="46.04746" lon="6.74043">
        <ele>1456.4</ele>
        <time>2000-01-02T21:20:13.000Z</time>
      </trkpt>
      <trkpt lat="46.0475" lon="6.74039">
        <ele>1456</ele>
        <time>2000-01-02T21:20:23.000Z</time>
      </trkpt>
      <trkpt lat="46.04757" lon="6.74034">
        <ele>1455.5</ele>
        <time>2000-01-02T21:20:33.000Z</time>
      </trkpt>
      <trkpt lat="46.04763" lon="6.7403">
        <ele>1454.9</ele>
        <time>2000-01-02T21:20:43.000Z</time>
      </trkpt>
      <trkpt lat="46.04772" lon="6.74023">
        <ele>1457</ele>
        <time>2000-01-02T21:20:53.000Z</time>
      </trkpt>
      <trkpt lat="46.04782" lon="6.74016">
        <ele>1454</ele>
        <time>2000-01-02T21:21:03.000Z</time>
      </trkpt>
      <trkpt lat="46.04796" lon="6.74005">
        <ele>1459</ele>
        <time>2000-01-02T21:21:13.000Z</time>
      </trkpt>
      <trkpt lat="46.04808" lon="6.73992">
        <ele>1457.1</ele>
        <time>2000-01-02T21:21:23.000Z</time>
      </trkpt>
      <trkpt lat="46.04814" lon="6.73987">
        <ele>1459</ele>
        <time>2000-01-02T21:21:33.000Z</time>
      </trkpt>
      <trkpt lat="46.04822" lon="6.73981">
        <ele>1457.5</ele>
        <time>2000-01-02T21:21:43.000Z</time>
      </trkpt>
      <trkpt lat="46.0483" lon="6.73976">
        <ele>1457.2</ele>
        <time>2000-01-02T21:21:53.000Z</time>
      </trkpt>
      <trkpt lat="46.04837" lon="6.73972">
        <ele>1460</ele>
        <time>2000-01-02T21:22:03.000Z</time>
      </trkpt>
      <trkpt lat="46.0485" lon="6.73965">
        <ele>1455.5</ele>
        <time>2000-01-02T21:22:13.000Z</time>
      </trkpt>
      <trkpt lat="46.04861" lon="6.73958">
        <ele>1460</ele>
        <time>2000-01-02T21:22:23.000Z</time>
      </trkpt>
      <trkpt lat="46.04875" lon="6.7395">
        <ele>1455.8</ele>
        <time>2000-01-02T21:22:33.000Z</time>
      </trkpt>
      <trkpt lat="46.04882" lon="6.73948">
        <ele>1459</ele>
        <time>2000-01-02T21:22:43.000Z</time>
      </trkpt>
      <trkpt lat="46.04889" lon="6.73949">
        <ele>1452.3</ele>
        <time>2000-01-02T21:22:53.000Z</time>
      </trkpt>
      <trkpt lat="46.04898" lon="6.73951">
        <ele>1449.2</ele>
        <time>2000-01-02T21:23:03.000Z</time>
      </trkpt>
      <trkpt lat="46.04904" lon="6.73954">
        <ele>1449</ele>
        <time>2000-01-02T21:23:13.000Z</time>
      </trkpt>
      <trkpt lat="46.04909" lon="6.73958">
        <ele>1443.2</ele>
        <time>2000-01-02T21:23:23.000Z</time>
      </trkpt>
      <trkpt lat="46.04914" lon="6.7396">
        <ele>1441.2</ele>
        <time>2000-01-02T21:23:33.000Z</time>
      </trkpt>
      <trkpt lat="46.04918" lon="6.73961">
        <ele>1439.9</ele>
        <time>2000-01-02T21:23:43.000Z</time>
      </trkpt>
      <trkpt lat="46.04922" lon="6.7396">
        <ele>1445</ele>
        <time>2000-01-02T21:23:53.000Z</time>
      </trkpt>
      <trkpt lat="46.04928" lon="6.73956">
        <ele>1439.7</ele>
        <time>2000-01-02T21:24:03.000Z</time>
      </trkpt>
      <trkpt lat="46.04936" lon="6.7395">
        <ele>1440.1</ele>
        <time>2000-01-02T21:24:13.000Z</time>
      </trkpt>
      <trkpt lat="46.04941" lon="6.73941">
        <ele>1447</ele>
        <time>2000-01-02T21:24:23.000Z</time>
      </trkpt>
      <trkpt lat="46.04944" lon="6.73935">
        <ele>1442.2</ele>
        <time>2000-01-02T21:24:33.000Z</time>
      </trkpt>
      <trkpt lat="46.04946" lon="6.73929">
        <ele>1442.6</ele>
        <time>2000-01-02T21:24:43.000Z</time>
      </trkpt>
      <trkpt lat="46.04948" lon="6.73922">
        <ele>1443.1</ele>
        <time>2000-01-02T21:24:53.000Z</time>
      </trkpt>
      <trkpt lat="46.04948" lon="6.73913">
        <ele>1445</ele>
        <time>2000-01-02T21:25:03.000Z</time>
      </trkpt>
      <trkpt lat="46.04948" lon="6.73907">
        <ele>1444.5</ele>
        <time>2000-01-02T21:25:13.000Z</time>
      </trkpt>
      <trkpt lat="46.0495" lon="6.739">
        <ele>1443.7</ele>
        <time>2000-01-02T21:25:23.000Z</time>
      </trkpt>
      <trkpt lat="46.04952" lon="6.73895">
        <ele>1442.8</ele>
        <time>2000-01-02T21:25:33.000Z</time>
      </trkpt>
      <trkpt lat="46.04955" lon="6.73886">
        <ele>1443</ele>
        <time>2000-01-02T21:25:43.000Z</time>
      </trkpt>
      <trkpt lat="46.04956" lon="6.73877">
        <ele>1440.3</ele>
        <time>2000-01-02T21:25:53.000Z</time>
      </trkpt>
      <trkpt lat="46.04958" lon="6.73862">
        <ele>1438.7</ele>
        <time>2000-01-02T21:26:03.000Z</time>
      </trkpt>
      <trkpt lat="46.04959" lon="6.73853">
        <ele>1441</ele>
        <time>2000-01-02T21:26:13.000Z</time>
      </trkpt>
      <trkpt lat="46.0496" lon="6.73845">
        <ele>1435.3</ele>
        <time>2000-01-02T21:26:23.000Z</time>
      </trkpt>
      <trkpt lat="46.04962" lon="6.73834">
        <ele>1432.6</ele>
        <time>2000-01-02T21:26:33.000Z</time>
      </trkpt>
      <trkpt lat="46.04963" lon="6.73822">
        <ele>1432</ele>
        <time>2000-01-02T21:26:43.000Z</time>
      </trkpt>
      <trkpt lat="46.04963" lon="6.73814">
        <ele>1429</ele>
        <time>2000-01-02T21:26:53.000Z</time>
      </trkpt>
      <trkpt lat="46.0496" lon="6.73804">
        <ele>1428.8</ele>
        <time>2000-01-02T21:27:03.000Z</time>
      </trkpt>
      <trkpt lat="46.04956" lon="6.73793">
        <ele>1430</ele>
        <time>2000-01-02T21:27:13.000Z</time>
      </trkpt>
      <trkpt lat="46.04953" lon="6.73782">
        <ele>1427.6</ele>
        <time>2000-01-02T21:27:23.000Z</time>
      </trkpt>
      <trkpt lat="46.04951" lon="6.73771">
        <ele>1426.4</ele>
        <time>2000-01-02T21:27:33.000Z</time>
      </trkpt>
      <trkpt lat="46.0495" lon="6.73761">
        <ele>1424</ele>
        <time>2000-01-02T21:27:43.000Z</time>
      </trkpt>
      <trkpt lat="46.04949" lon="6.73749">
        <ele>1423.4</ele>
        <time>2000-01-02T21:27:53.000Z</time>
      </trkpt>
      <trkpt lat="46.04948" lon="6.73736">
        <ele>1421.6</ele>
        <time>2000-01-02T21:28:03.000Z</time>
      </trkpt>
      <trkpt lat="46.04948" lon="6.73725">
        <ele>1423</ele>
        <time>2000-01-02T21:28:13.000Z</time>
      </trkpt>
      <trkpt lat="46.04948" lon="6.73711">
        <ele>1417.9</ele>
        <time>2000-01-02T21:28:23.000Z</time>
      </trkpt>
      <trkpt lat="46.04947" lon="6.73694">
        <ele>1420</ele>
        <time>2000-01-02T21:28:33.000Z</time>
      </trkpt>
      <trkpt lat="46.04945" lon="6.73678">
        <ele>1415.9</ele>
        <time>2000-01-02T21:28:43.000Z</time>
      </trkpt>
      <trkpt lat="46.04945" lon="6.73666">
        <ele>1417</ele>
        <time>2000-01-02T21:28:53.000Z</time>
      </trkpt>
      <trkpt lat="46.04946" lon="6.7364">
        <ele>1412.3</ele>
        <time>2000-01-02T21:29:03.000Z</time>
      </trkpt>
      <trkpt lat="46.04946" lon="6.73625">
        <ele>1413</ele>
        <time>2000-01-02T21:29:13.000Z</time>
      </trkpt>
      <trkpt lat="46.04945" lon="6.73615">
        <ele>1411</ele>
        <time>2000-01-02T21:29:23.000Z</time>
      </trkpt>
      <trkpt lat="46.04943" lon="6.736">
        <ele>1410.5</ele>
        <time>2000-01-02T21:29:33.000Z</time>
      </trkpt>
      <trkpt lat="46.0494" lon="6.73588">
        <ele>1410</ele>
        <time>2000-01-02T21:29:43.000Z</time>
      </trkpt>
      <trkpt lat="46.04938" lon="6.73577">
        <ele>1410.3</ele>
        <time>2000-01-02T21:29:53.000Z</time>
      </trkpt>
      <trkpt lat="46.04936" lon="6.73566">
        <ele>1409.8</ele>
        <time>2000-01-02T21:30:03.000Z</time>
      </trkpt>
      <trkpt lat="46.04933" lon="6.73552">
        <ele>1410</ele>
        <time>2000-01-02T21:30:13.000Z</time>
      </trkpt>
      <trkpt lat="46.04932" lon="6.73534">
        <ele>1406.8</ele>
        <time>2000-01-02T21:30:23.000Z</time>
      </trkpt>
      <trkpt lat="46.0493" lon="6.73509">
        <ele>1406</ele>
        <time>2000-01-02T21:30:33.000Z</time>
      </trkpt>
      <trkpt lat="46.04927" lon="6.73491">
        <ele>1402.2</ele>
        <time>2000-01-02T21:30:43.000Z</time>
      </trkpt>
      <trkpt lat="46.04922" lon="6.7347">
        <ele>1399</ele>
        <time>2000-01-02T21:30:53.000Z</time>
      </trkpt>
      <trkpt lat="46.04919" lon="6.73457">
        <ele>1400.3</ele>
        <time>2000-01-02T21:31:03.000Z</time>
      </trkpt>
      <trkpt lat="46.04916" lon="6.73445">
        <ele>1399.3</ele>
        <time>2000-01-02T21:31:13.000Z</time>
      </trkpt>
      <trkpt lat="46.04914" lon="6.73437">
        <ele>1399</ele>
        <time>2000-01-02T21:31:23.000Z</time>
      </trkpt>
      <trkpt lat="46.04911" lon="6.73426">
        <ele>1397.6</ele>
        <time>2000-01-02T21:31:33.000Z</time>
      </trkpt>
      <trkpt lat="46.04909" lon="6.7342">
        <ele>1397.1</ele>
        <time>2000-01-02T21:31:43.000Z</time>
      </trkpt>
      <trkpt lat="46.04905" lon="6.7341">
        <ele>1396</ele>
        <time>2000-01-02T21:31:53.000Z</time>
      </trkpt>
      <trkpt lat="46.04902" lon="6.73401">
        <ele>1395.1</ele>
        <time>2000-01-02T21:32:03.000Z</time>
      </trkpt>
      <trkpt lat="46.04902" lon="6.73394">
        <ele>1393.4</ele>
        <time>2000-01-02T21:32:13.000Z</time>
      </trkpt>
      <trkpt lat="46.04902" lon="6.73387">
        <ele>1391.5</ele>
        <time>2000-01-02T21:32:23.000Z</time>
      </trkpt>
      <trkpt lat="46.04904" lon="6.7338">
        <ele>1386</ele>
        <time>2000-01-02T21:32:33.000Z</time>
      </trkpt>
      <trkpt lat="46.04904" lon="6.73376">
        <ele>1387</ele>
        <time>2000-01-02T21:32:43.000Z</time>
      </trkpt>
      <trkpt lat="46.04902" lon="6.7337">
        <ele>1385.4</ele>
        <time>2000-01-02T21:32:53.000Z</time>
      </trkpt>
      <trkpt lat="46.04901" lon="6.73368">
        <ele>1385</ele>
        <time>2000-01-02T21:33:03.000Z</time>
      </trkpt>
      <trkpt lat="46.04899" lon="6.73366">
        <ele>1384.8</ele>
        <time>2000-01-02T21:33:13.000Z</time>
      </trkpt>
      <trkpt lat="46.04896" lon="6.73364">
        <ele>1385</ele>
        <time>2000-01-02T21:33:23.000Z</time>
      </trkpt>
      <trkpt lat="46.04891" lon="6.73361">
        <ele>1386</ele>
        <time>2000-01-02T21:33:33.000Z</time>
      </trkpt>
      <trkpt lat="46.04884" lon="6.73358">
        <ele>1386.4</ele>
        <time>2000-01-02T21:33:43.000Z</time>
      </trkpt>
      <trkpt lat="46.04878" lon="6.73355">
        <ele>1387.1</ele>
        <time>2000-01-02T21:33:53.000Z</time>
      </trkpt>
      <trkpt lat="46.0487" lon="6.73349">
        <ele>1386</ele>
        <time>2000-01-02T21:34:03.000Z</time>
      </trkpt>
      <trkpt lat="46.04863" lon="6.73343">
        <ele>1387.2</ele>
        <time>2000-01-02T21:34:13.000Z</time>
      </trkpt>
      <trkpt lat="46.04856" lon="6.73336">
        <ele>1387.2</ele>
        <time>2000-01-02T21:34:23.000Z</time>
      </trkpt>
      <trkpt lat="46.0485" lon="6.73329">
        <ele>1388</ele>
        <time>2000-01-02T21:34:33.000Z</time>
      </trkpt>
      <trkpt lat="46.04844" lon="6.73323">
        <ele>1388.8</ele>
        <time>2000-01-02T21:34:43.000Z</time>
      </trkpt>
      <trkpt lat="46.04837" lon="6.73312">
        <ele>1389</ele>
        <time>2000-01-02T21:34:53.000Z</time>
      </trkpt>
      <trkpt lat="46.04835" lon="6.73309">
        <ele>1386</ele>
        <time>2000-01-02T21:35:03.000Z</time>
      </trkpt>
      <trkpt lat="46.04835" lon="6.73303">
        <ele>1388.5</ele>
        <time>2000-01-02T21:35:13.000Z</time>
      </trkpt>
      <trkpt lat="46.04836" lon="6.73301">
        <ele>1388.2</ele>
        <time>2000-01-02T21:35:23.000Z</time>
      </trkpt>
      <trkpt lat="46.04847" lon="6.73294">
        <ele>1383.9</ele>
        <time>2000-01-02T21:35:33.000Z</time>
      </trkpt>
      <trkpt lat="46.04859" lon="6.73287">
        <ele>1384</ele>
        <time>2000-01-02T21:35:43.000Z</time>
      </trkpt>
      <trkpt lat="46.04869" lon="6.73282">
        <ele>1375.3</ele>
        <time>2000-01-02T21:35:53.000Z</time>
      </trkpt>
      <trkpt lat="46.04876" lon="6.73279">
        <ele>1372.5</ele>
        <time>2000-01-02T21:36:03.000Z</time>
      </trkpt>
      <trkpt lat="46.04882" lon="6.73275">
        <ele>1380</ele>
        <time>2000-01-02T21:36:13.000Z</time>
      </trkpt>
      <trkpt lat="46.04891" lon="6.73266">
        <ele>1370.4</ele>
        <time>2000-01-02T21:36:23.000Z</time>
      </trkpt>
      <trkpt lat="46.04896" lon="6.73258">
        <ele>1371.2</ele>
        <time>2000-01-02T21:36:33.000Z</time>
      </trkpt>
      <trkpt lat="46.049" lon="6.7325">
        <ele>1379</ele>
        <time>2000-01-02T21:36:43.000Z</time>
      </trkpt>
      <trkpt lat="46.04903" lon="6.73247">
        <ele>1372.7</ele>
        <time>2000-01-02T21:36:53.000Z</time>
      </trkpt>
      <trkpt lat="46.04906" lon="6.73244">
        <ele>1372.9</ele>
        <time>2000-01-02T21:37:03.000Z</time>
      </trkpt>
      <trkpt lat="46.04911" lon="6.73242">
        <ele>1371.9</ele>
        <time>2000-01-02T21:37:13.000Z</time>
      </trkpt>
      <trkpt lat="46.0492" lon="6.73238">
        <ele>1378</ele>
        <time>2000-01-02T21:37:23.000Z</time>
      </trkpt>
      <trkpt lat="46.0493" lon="6.73234">
        <ele>1369.4</ele>
        <time>2000-01-02T21:37:33.000Z</time>
      </trkpt>
      <trkpt lat="46.0494" lon="6.73232">
        <ele>1371</ele>
        <time>2000-01-02T21:37:43.000Z</time>
      </trkpt>
      <trkpt lat="46.0495" lon="6.73229">
        <ele>1366.2</ele>
        <time>2000-01-02T21:37:53.000Z</time>
      </trkpt>
      <trkpt lat="46.04959" lon="6.73226">
        <ele>1370</ele>
        <time>2000-01-02T21:38:03.000Z</time>
      </trkpt>
      <trkpt lat="46.04969" lon="6.7322">
        <ele>1365.7</ele>
        <time>2000-01-02T21:38:13.000Z</time>
      </trkpt>
      <trkpt lat="46.04979" lon="6.7321">
        <ele>1369</ele>
        <time>2000-01-02T21:38:23.000Z</time>
      </trkpt>
      <trkpt lat="46.04985" lon="6.73203">
        <ele>1367.9</ele>
        <time>2000-01-02T21:38:33.000Z</time>
      </trkpt>
      <trkpt lat="46.04992" lon="6.73198">
        <ele>1367.9</ele>
        <time>2000-01-02T21:38:43.000Z</time>
      </trkpt>
      <trkpt lat="46.05001" lon="6.73195">
        <ele>1369</ele>
        <time>2000-01-02T21:38:53.000Z</time>
      </trkpt>
      <trkpt lat="46.05011" lon="6.73192">
        <ele>1364.4</ele>
        <time>2000-01-02T21:39:03.000Z</time>
      </trkpt>
      <trkpt lat="46.05019" lon="6.73188">
        <ele>1368</ele>
        <time>2000-01-02T21:39:13.000Z</time>
      </trkpt>
      <trkpt lat="46.05026" lon="6.73184">
        <ele>1362.7</ele>
        <time>2000-01-02T21:39:23.000Z</time>
      </trkpt>
      <trkpt lat="46.05037" lon="6.73174">
        <ele>1368</ele>
        <time>2000-01-02T21:39:33.000Z</time>
      </trkpt>
      <trkpt lat="46.05042" lon="6.73171">
        <ele>1363.6</ele>
        <time>2000-01-02T21:39:43.000Z</time>
      </trkpt>
      <trkpt lat="46.05051" lon="6.73168">
        <ele>1362.6</ele>
        <time>2000-01-02T21:39:53.000Z</time>
      </trkpt>
      <trkpt lat="46.0506" lon="6.73164">
        <ele>1366</ele>
        <time>2000-01-02T21:40:03.000Z</time>
      </trkpt>
      <trkpt lat="46.0507" lon="6.73162">
        <ele>1363.3</ele>
        <time>2000-01-02T21:40:13.000Z</time>
      </trkpt>
      <trkpt lat="46.05079" lon="6.73162">
        <ele>1364</ele>
        <time>2000-01-02T21:40:23.000Z</time>
      </trkpt>
      <trkpt lat="46.05099" lon="6.73164">
        <ele>1364</ele>
        <time>2000-01-02T21:40:33.000Z</time>
      </trkpt>
      <trkpt lat="46.051" lon="6.73164">
        <ele>1362</ele>
        <time>2000-01-02T21:40:43.000Z</time>
      </trkpt>
      <trkpt lat="46.0511" lon="6.73166">
        <ele>1361.3</ele>
        <time>2000-01-02T21:40:53.000Z</time>
      </trkpt>
      <trkpt lat="46.05125" lon="6.73165">
        <ele>1364</ele>
        <time>2000-01-02T21:41:03.000Z</time>
      </trkpt>
      <trkpt lat="46.05137" lon="6.73165">
        <ele>1361.8</ele>
        <time>2000-01-02T21:41:13.000Z</time>
      </trkpt>
      <trkpt lat="46.05148" lon="6.73166">
        <ele>1362</ele>
        <time>2000-01-02T21:41:23.000Z</time>
      </trkpt>
      <trkpt lat="46.05153" lon="6.73167">
        <ele>1360.3</ele>
        <time>2000-01-02T21:41:33.000Z</time>
      </trkpt>
      <trkpt lat="46.05157" lon="6.73168">
        <ele>1359.8</ele>
        <time>2000-01-02T21:41:43.000Z</time>
      </trkpt>
      <trkpt lat="46.05164" lon="6.7317">
        <ele>1358.6</ele>
        <time>2000-01-02T21:41:53.000Z</time>
      </trkpt>
      <trkpt lat="46.05168" lon="6.73171">
        <ele>1362</ele>
        <time>2000-01-02T21:42:03.000Z</time>
      </trkpt>
      <trkpt lat="46.05171" lon="6.7317">
        <ele>1357.7</ele>
        <time>2000-01-02T21:42:13.000Z</time>
      </trkpt>
      <trkpt lat="46.05174" lon="6.73168">
        <ele>1357.9</ele>
        <time>2000-01-02T21:42:23.000Z</time>
      </trkpt>
      <trkpt lat="46.0518" lon="6.7316">
        <ele>1359.4</ele>
        <time>2000-01-02T21:42:33.000Z</time>
      </trkpt>
      <trkpt lat="46.05187" lon="6.7315">
        <ele>1362</ele>
        <time>2000-01-02T21:42:43.000Z</time>
      </trkpt>
      <trkpt lat="46.05191" lon="6.73147">
        <ele>1360.7</ele>
        <time>2000-01-02T21:42:53.000Z</time>
      </trkpt>
      <trkpt lat="46.05203" lon="6.73132">
        <ele>1362</ele>
        <time>2000-01-02T21:43:03.000Z</time>
      </trkpt>
      <trkpt lat="46.05205" lon="6.73128">
        <ele>1361.3</ele>
        <time>2000-01-02T21:43:13.000Z</time>
      </trkpt>
      <trkpt lat="46.05209" lon="6.73119">
        <ele>1362.5</ele>
        <time>2000-01-02T21:43:23.000Z</time>
      </trkpt>
      <trkpt lat="46.05218" lon="6.73102">
        <ele>1364</ele>
        <time>2000-01-02T21:43:33.000Z</time>
      </trkpt>
      <trkpt lat="46.05224" lon="6.73093">
        <ele>1365.3</ele>
        <time>2000-01-02T21:43:43.000Z</time>
      </trkpt>
      <trkpt lat="46.05228" lon="6.73087">
        <ele>1366.1</ele>
        <time>2000-01-02T21:43:53.000Z</time>
      </trkpt>
      <trkpt lat="46.05232" lon="6.73083">
        <ele>1362</ele>
        <time>2000-01-02T21:44:03.000Z</time>
      </trkpt>
      <trkpt lat="46.05236" lon="6.73081">
        <ele>1365.9</ele>
        <time>2000-01-02T21:44:13.000Z</time>
      </trkpt>
      <trkpt lat="46.05241" lon="6.73081">
        <ele>1364.5</ele>
        <time>2000-01-02T21:44:23.000Z</time>
      </trkpt>
      <trkpt lat="46.05247" lon="6.73083">
        <ele>1362</ele>
        <time>2000-01-02T21:44:33.000Z</time>
      </trkpt>
      <trkpt lat="46.05255" lon="6.73084">
        <ele>1362</ele>
        <time>2000-01-02T21:44:43.000Z</time>
      </trkpt>
      <trkpt lat="46.0526" lon="6.73084">
        <ele>1358.6</ele>
        <time>2000-01-02T21:44:53.000Z</time>
      </trkpt>
      <trkpt lat="46.05266" lon="6.73083">
        <ele>1357.7</ele>
        <time>2000-01-02T21:45:03.000Z</time>
      </trkpt>
      <trkpt lat="46.05273" lon="6.73078">
        <ele>1358.3</ele>
        <time>2000-01-02T21:45:13.000Z</time>
      </trkpt>
      <trkpt lat="46.05277" lon="6.73076">
        <ele>1362</ele>
        <time>2000-01-02T21:45:23.000Z</time>
      </trkpt>
      <trkpt lat="46.05281" lon="6.73074">
        <ele>1358.6</ele>
        <time>2000-01-02T21:45:33.000Z</time>
      </trkpt>
      <trkpt lat="46.05285" lon="6.73074">
        <ele>1358.2</ele>
        <time>2000-01-02T21:45:43.000Z</time>
      </trkpt>
      <trkpt lat="46.05291" lon="6.73076">
        <ele>1356.6</ele>
        <time>2000-01-02T21:45:53.000Z</time>
      </trkpt>
      <trkpt lat="46.05296" lon="6.73078">
        <ele>1359</ele>
        <time>2000-01-02T21:46:03.000Z</time>
      </trkpt>
      <trkpt lat="46.05303" lon="6.73081">
        <ele>1353.2</ele>
        <time>2000-01-02T21:46:13.000Z</time>
      </trkpt>
      <trkpt lat="46.05309" lon="6.73083">
        <ele>1352</ele>
        <time>2000-01-02T21:46:23.000Z</time>
      </trkpt>
      <trkpt lat="46.05314" lon="6.73086">
        <ele>1350.4</ele>
        <time>2000-01-02T21:46:33.000Z</time>
      </trkpt>
      <trkpt lat="46.05322" lon="6.73089">
        <ele>1351</ele>
        <time>2000-01-02T21:46:43.000Z</time>
      </trkpt>
      <trkpt lat="46.0533" lon="6.73091">
        <ele>1347.5</ele>
        <time>2000-01-02T21:46:53.000Z</time>
      </trkpt>
      <trkpt lat="46.05337" lon="6.7309">
        <ele>1347.6</ele>
        <time>2000-01-02T21:47:03.000Z</time>
      </trkpt>
      <trkpt lat="46.05343" lon="6.73089">
        <ele>1351</ele>
        <time>2000-01-02T21:47:13.000Z</time>
      </trkpt>
      <trkpt lat="46.05348" lon="6.73087">
        <ele>1348.2</ele>
        <time>2000-01-02T21:47:23.000Z</time>
      </trkpt>
      <trkpt lat="46.05352" lon="6.73086">
        <ele>1348.3</ele>
        <time>2000-01-02T21:47:33.000Z</time>
      </trkpt>
      <trkpt lat="46.05359" lon="6.73086">
        <ele>1347.8</ele>
        <time>2000-01-02T21:47:43.000Z</time>
      </trkpt>
      <trkpt lat="46.05368" lon="6.73085">
        <ele>1349</ele>
        <time>2000-01-02T21:47:53.000Z</time>
      </trkpt>
      <trkpt lat="46.05377" lon="6.73084">
        <ele>1345.2</ele>
        <time>2000-01-02T21:48:03.000Z</time>
      </trkpt>
      <trkpt lat="46.05387" lon="6.73083">
        <ele>1343.5</ele>
        <time>2000-01-02T21:48:13.000Z</time>
      </trkpt>
      <trkpt lat="46.05396" lon="6.73081">
        <ele>1343</ele>
        <time>2000-01-02T21:48:23.000Z</time>
      </trkpt>
      <trkpt lat="46.05407" lon="6.73079">
        <ele>1339.6</ele>
        <time>2000-01-02T21:48:33.000Z</time>
      </trkpt>
      <trkpt lat="46.05416" lon="6.73075">
        <ele>1341</ele>
        <time>2000-01-02T21:48:43.000Z</time>
      </trkpt>
      <trkpt lat="46.05422" lon="6.73071">
        <ele>1337.8</ele>
        <time>2000-01-02T21:48:53.000Z</time>
      </trkpt>
      <trkpt lat="46.05431" lon="6.73066">
        <ele>1336.6</ele>
        <time>2000-01-02T21:49:03.000Z</time>
      </trkpt>
      <trkpt lat="46.05436" lon="6.73061">
        <ele>1338</ele>
        <time>2000-01-02T21:49:13.000Z</time>
      </trkpt>
      <trkpt lat="46.05439" lon="6.73057">
        <ele>1336.3</ele>
        <time>2000-01-02T21:49:23.000Z</time>
      </trkpt>
      <trkpt lat="46.05443" lon="6.7305">
        <ele>1335.6</ele>
        <time>2000-01-02T21:49:33.000Z</time>
      </trkpt>
      <trkpt lat="46.05446" lon="6.73042">
        <ele>1335</ele>
        <time>2000-01-02T21:49:43.000Z</time>
      </trkpt>
      <trkpt lat="46.05447" lon="6.73036">
        <ele>1337</ele>
        <time>2000-01-02T21:49:53.000Z</time>
      </trkpt>
      <trkpt lat="46.05448" lon="6.73028">
        <ele>1334.8</ele>
        <time>2000-01-02T21:50:03.000Z</time>
      </trkpt>
      <trkpt lat="46.05449" lon="6.73019">
        <ele>1334.1</ele>
        <time>2000-01-02T21:50:13.000Z</time>
      </trkpt>
      <trkpt lat="46.05449" lon="6.73">
        <ele>1335</ele>
        <time>2000-01-02T21:50:23.000Z</time>
      </trkpt>
      <trkpt lat="46.05462" lon="6.72998">
        <ele>1327.7</ele>
        <time>2000-01-02T21:50:33.000Z</time>
      </trkpt>
      <trkpt lat="46.05493" lon="6.7299">
        <ele>1312</ele>
        <time>2000-01-02T21:50:43.000Z</time>
      </trkpt>
      <trkpt lat="46.05495" lon="6.72989">
        <ele>1311.6</ele>
        <time>2000-01-02T21:50:53.000Z</time>
      </trkpt>
      <trkpt lat="46.05516" lon="6.72982">
        <ele>1302</ele>
        <time>2000-01-02T21:51:03.000Z</time>
      </trkpt>
      <trkpt lat="46.05534" lon="6.7298">
        <ele>1294.6</ele>
        <time>2000-01-02T21:51:13.000Z</time>
      </trkpt>
      <trkpt lat="46.05555" lon="6.72982">
        <ele>1290</ele>
        <time>2000-01-02T21:51:23.000Z</time>
      </trkpt>
      <trkpt lat="46.05566" lon="6.72981">
        <ele>1288.4</ele>
        <time>2000-01-02T21:51:33.000Z</time>
      </trkpt>
      <trkpt lat="46.05588" lon="6.72969">
        <ele>1277</ele>
        <time>2000-01-02T21:51:43.000Z</time>
      </trkpt>
      <trkpt lat="46.05604" lon="6.7296">
        <ele>1273.2</ele>
        <time>2000-01-02T21:51:53.000Z</time>
      </trkpt>
      <trkpt lat="46.05631" lon="6.72948">
        <ele>1259</ele>
        <time>2000-01-02T21:52:03.000Z</time>
      </trkpt>
      <trkpt lat="46.05648" lon="6.72944">
        <ele>1257.2</ele>
        <time>2000-01-02T21:52:13.000Z</time>
      </trkpt>
      <trkpt lat="46.05661" lon="6.72946">
        <ele>1252</ele>
        <time>2000-01-02T21:52:23.000Z</time>
      </trkpt>
      <trkpt lat="46.05678" lon="6.72951">
        <ele>1249.3</ele>
        <time>2000-01-02T21:52:33.000Z</time>
      </trkpt>
      <trkpt lat="46.05692" lon="6.72962">
        <ele>1247</ele>
        <time>2000-01-02T21:52:43.000Z</time>
      </trkpt>
      <trkpt lat="46.05703" lon="6.72974">
        <ele>1243</ele>
        <time>2000-01-02T21:52:53.000Z</time>
      </trkpt>
      <trkpt lat="46.05716" lon="6.72991">
        <ele>1243</ele>
        <time>2000-01-02T21:53:03.000Z</time>
      </trkpt>
      <trkpt lat="46.05731" lon="6.73017">
        <ele>1237</ele>
        <time>2000-01-02T21:53:13.000Z</time>
      </trkpt>
      <trkpt lat="46.05752" lon="6.73047">
        <ele>1234</ele>
        <time>2000-01-02T21:53:23.000Z</time>
      </trkpt>
      <trkpt lat="46.05765" lon="6.73066">
        <ele>1232</ele>
        <time>2000-01-02T21:53:33.000Z</time>
      </trkpt>
      <trkpt lat="46.05785" lon="6.73086">
        <ele>1224</ele>
        <time>2000-01-02T21:53:43.000Z</time>
      </trkpt>
      <trkpt lat="46.05801" lon="6.73096">
        <ele>1219.1</ele>
        <time>2000-01-02T21:53:53.000Z</time>
      </trkpt>
      <trkpt lat="46.05824" lon="6.73106">
        <ele>1213</ele>
        <time>2000-01-02T21:54:03.000Z</time>
      </trkpt>
      <trkpt lat="46.05866" lon="6.73115">
        <ele>1207</ele>
        <time>2000-01-02T21:54:13.000Z</time>
      </trkpt>
      <trkpt lat="46.059" lon="6.7312">
        <ele>1197</ele>
        <time>2000-01-02T21:54:23.000Z</time>
      </trkpt>
      <trkpt lat="46.05908" lon="6.73117">
        <ele>1191.5</ele>
        <time>2000-01-02T21:54:33.000Z</time>
      </trkpt>
      <trkpt lat="46.05911" lon="6.73112">
        <ele>1190.2</ele>
        <time>2000-01-02T21:54:43.000Z</time>
      </trkpt>
      <trkpt lat="46.05915" lon="6.73102">
        <ele>1188</ele>
        <time>2000-01-02T21:54:53.000Z</time>
      </trkpt>
      <trkpt lat="46.05914" lon="6.73095">
        <ele>1183.7</ele>
        <time>2000-01-02T21:55:03.000Z</time>
      </trkpt>
      <trkpt lat="46.05909" lon="6.7309">
        <ele>1183.8</ele>
        <time>2000-01-02T21:55:13.000Z</time>
      </trkpt>
      <trkpt lat="46.05896" lon="6.73079">
        <ele>1180</ele>
        <time>2000-01-02T21:55:23.000Z</time>
      </trkpt>
      <trkpt lat="46.05897" lon="6.73074">
        <ele>1180.5</ele>
        <time>2000-01-02T21:55:33.000Z</time>
      </trkpt>
      <trkpt lat="46.05899" lon="6.73072">
        <ele>1178.9</ele>
        <time>2000-01-02T21:55:43.000Z</time>
      </trkpt>
      <trkpt lat="46.05907" lon="6.73073">
        <ele>1177</ele>
        <time>2000-01-02T21:55:53.000Z</time>
      </trkpt>
      <trkpt lat="46.05951" lon="6.73087">
        <ele>1163</ele>
        <time>2000-01-02T21:56:03.000Z</time>
      </trkpt>
      <trkpt lat="46.05954" lon="6.73085">
        <ele>1162</ele>
        <time>2000-01-02T21:56:13.000Z</time>
      </trkpt>
      <trkpt lat="46.05955" lon="6.73081">
        <ele>1160.3</ele>
        <time>2000-01-02T21:56:23.000Z</time>
      </trkpt>
      <trkpt lat="46.05952" lon="6.73065">
        <ele>1156.4</ele>
        <time>2000-01-02T21:56:33.000Z</time>
      </trkpt>
      <trkpt lat="46.05945" lon="6.73051">
        <ele>1157</ele>
        <time>2000-01-02T21:56:43.000Z</time>
      </trkpt>
      <trkpt lat="46.05936" lon="6.73039">
        <ele>1151.6</ele>
        <time>2000-01-02T21:56:53.000Z</time>
      </trkpt>
      <trkpt lat="46.05924" lon="6.73028">
        <ele>1147</ele>
        <time>2000-01-02T21:57:03.000Z</time>
      </trkpt>
      <trkpt lat="46.05902" lon="6.73008">
        <ele>1141</ele>
        <time>2000-01-02T21:57:13.000Z</time>
      </trkpt>
      <trkpt lat="46.05903" lon="6.73006">
        <ele>1143.5</ele>
        <time>2000-01-02T21:57:23.000Z</time>
      </trkpt>
      <trkpt lat="46.05905" lon="6.73005">
        <ele>1142.5</ele>
        <time>2000-01-02T21:57:33.000Z</time>
      </trkpt>
      <trkpt lat="46.05933" lon="6.73012">
        <ele>1138</ele>
        <time>2000-01-02T21:57:43.000Z</time>
      </trkpt>
      <trkpt lat="46.05954" lon="6.73021">
        <ele>1138</ele>
        <time>2000-01-02T21:57:53.000Z</time>
      </trkpt>
      <trkpt lat="46.05992" lon="6.73028">
        <ele>1119</ele>
        <time>2000-01-02T21:58:03.000Z</time>
      </trkpt>
      <trkpt lat="46.06003" lon="6.73031">
        <ele>1114.8</ele>
        <time>2000-01-02T21:58:13.000Z</time>
      </trkpt>
      <trkpt lat="46.06007" lon="6.73025">
        <ele>1111</ele>
        <time>2000-01-02T21:58:23.000Z</time>
      </trkpt>
      <trkpt lat="46.06008" lon="6.73016">
        <ele>1111</ele>
        <time>2000-01-02T21:58:33.000Z</time>
      </trkpt>
      <trkpt lat="46.06004" lon="6.72994">
        <ele>1104.1</ele>
        <time>2000-01-02T21:58:43.000Z</time>
      </trkpt>
      <trkpt lat="46.06005" lon="6.72991">
        <ele>1102.7</ele>
        <time>2000-01-02T21:58:53.000Z</time>
      </trkpt>
      <trkpt lat="46.06006" lon="6.7299">
        <ele>1102</ele>
        <time>2000-01-02T21:59:03.000Z</time>
      </trkpt>
      <trkpt lat="46.06041" lon="6.73016">
        <ele>1089</ele>
        <time>2000-01-02T21:59:13.000Z</time>
      </trkpt>
      <trkpt lat="46.0604" lon="6.73">
        <ele>1088.3</ele>
        <time>2000-01-02T21:59:23.000Z</time>
      </trkpt>
      <trkpt lat="46.06057" lon="6.73012">
        <ele>1084</ele>
        <time>2000-01-02T21:59:33.000Z</time>
      </trkpt>
      <trkpt lat="46.0607" lon="6.73024">
        <ele>1078.3</ele>
        <time>2000-01-02T21:59:43.000Z</time>
      </trkpt>
      <trkpt lat="46.06086" lon="6.73037">
        <ele>1074</ele>
        <time>2000-01-02T21:59:53.000Z</time>
      </trkpt>
      <trkpt lat="46.06093" lon="6.73043">
        <ele>1071.2</ele>
        <time>2000-01-02T22:00:03.000Z</time>
      </trkpt>
      <trkpt lat="46.06099" lon="6.73042">
        <ele>1068.6</ele>
        <time>2000-01-02T22:00:13.000Z</time>
      </trkpt>
      <trkpt lat="46.06103" lon="6.73039">
        <ele>1066.5</ele>
        <time>2000-01-02T22:00:23.000Z</time>
      </trkpt>
      <trkpt lat="46.0611" lon="6.73031">
        <ele>1066</ele>
        <time>2000-01-02T22:00:33.000Z</time>
      </trkpt>
      <trkpt lat="46.06115" lon="6.73022">
        <ele>1059.9</ele>
        <time>2000-01-02T22:00:43.000Z</time>
      </trkpt>
      <trkpt lat="46.06123" lon="6.73014">
        <ele>1056</ele>
        <time>2000-01-02T22:00:53.000Z</time>
      </trkpt>
      <trkpt lat="46.06169" lon="6.72967">
        <ele>1037</ele>
        <time>2000-01-02T22:01:03.000Z</time>
      </trkpt>
      <trkpt lat="46.06172" lon="6.72963">
        <ele>1034.5</ele>
        <time>2000-01-02T22:01:13.000Z</time>
      </trkpt>
      <trkpt lat="46.06181" lon="6.72957">
        <ele>1031.2</ele>
        <time>2000-01-02T22:01:23.000Z</time>
      </trkpt>
      <trkpt lat="46.0619" lon="6.72953">
        <ele>1030</ele>
        <time>2000-01-02T22:01:33.000Z</time>
      </trkpt>
      <trkpt lat="46.06196" lon="6.72952">
        <ele>1026.5</ele>
        <time>2000-01-02T22:01:43.000Z</time>
      </trkpt>
      <trkpt lat="46.06203" lon="6.7295">
        <ele>1025</ele>
        <time>2000-01-02T22:01:53.000Z</time>
      </trkpt>
      <trkpt lat="46.06206" lon="6.72948">
        <ele>1024.3</ele>
        <time>2000-01-02T22:02:03.000Z</time>
      </trkpt>
      <trkpt lat="46.06217" lon="6.7294">
        <ele>1022</ele>
        <time>2000-01-02T22:02:13.000Z</time>
      </trkpt>
      <trkpt lat="46.06227" lon="6.72933">
        <ele>1018.8</ele>
        <time>2000-01-02T22:02:23.000Z</time>
      </trkpt>
      <trkpt lat="46.06235" lon="6.72928">
        <ele>1016</ele>
        <time>2000-01-02T22:02:33.000Z</time>
      </trkpt>
      <trkpt lat="46.06241" lon="6.72926">
        <ele>1016.5</ele>
        <time>2000-01-02T22:02:43.000Z</time>
      </trkpt>
      <trkpt lat="46.06247" lon="6.72926">
        <ele>1016</ele>
        <time>2000-01-02T22:02:53.000Z</time>
      </trkpt>
      <trkpt lat="46.0625" lon="6.72928">
        <ele>1015.8</ele>
        <time>2000-01-02T22:03:03.000Z</time>
      </trkpt>
      <trkpt lat="46.06255" lon="6.72931">
        <ele>1016</ele>
        <time>2000-01-02T22:03:13.000Z</time>
      </trkpt>
      <trkpt lat="46.06261" lon="6.72935">
        <ele>1014.7</ele>
        <time>2000-01-02T22:03:23.000Z</time>
      </trkpt>
      <trkpt lat="46.06269" lon="6.72941">
        <ele>1014</ele>
        <time>2000-01-02T22:03:33.000Z</time>
      </trkpt>
      <trkpt lat="46.06279" lon="6.72947">
        <ele>1014</ele>
        <time>2000-01-02T22:03:43.000Z</time>
      </trkpt>
      <trkpt lat="46.06302" lon="6.72959">
        <ele>1012</ele>
        <time>2000-01-02T22:03:53.000Z</time>
      </trkpt>
      <trkpt lat="46.06302" lon="6.72959">
        <ele>1010.1</ele>
        <time>2000-01-02T22:04:03.000Z</time>
      </trkpt>
      <trkpt lat="46.06302" lon="6.72959">
        <ele>1010.1</ele>
        <time>2000-01-02T22:04:13.000Z</time>
      </trkpt>
      <trkpt lat="46.06306" lon="6.72962">
        <ele>1009.8</ele>
        <time>2000-01-02T22:04:23.000Z</time>
      </trkpt>
      <trkpt lat="46.06309" lon="6.72965">
        <ele>1009.7</ele>
        <time>2000-01-02T22:04:33.000Z</time>
      </trkpt>
      <trkpt lat="46.06312" lon="6.72969">
        <ele>1009.7</ele>
        <time>2000-01-02T22:04:43.000Z</time>
      </trkpt>
      <trkpt lat="46.06318" lon="6.72972">
        <ele>1010</ele>
        <time>2000-01-02T22:04:53.000Z</time>
      </trkpt>
      <trkpt lat="46.06354" lon="6.72987">
        <ele>1005</ele>
        <time>2000-01-02T22:05:03.000Z</time>
      </trkpt>
      <trkpt lat="46.06357" lon="6.72989">
        <ele>1005.6</ele>
        <time>2000-01-02T22:05:13.000Z</time>
      </trkpt>
      <trkpt lat="46.06361" lon="6.72992">
        <ele>1005.3</ele>
        <time>2000-01-02T22:05:23.000Z</time>
      </trkpt>
      <trkpt lat="46.06365" lon="6.72996">
        <ele>1005.2</ele>
        <time>2000-01-02T22:05:33.000Z</time>
      </trkpt>
      <trkpt lat="46.0637" lon="6.73">
        <ele>1004</ele>
        <time>2000-01-02T22:05:43.000Z</time>
      </trkpt>
      <trkpt lat="46.06375" lon="6.73003">
        <ele>1004</ele>
        <time>2000-01-02T22:05:53.000Z</time>
      </trkpt>
      <trkpt lat="46.0638" lon="6.73003">
        <ele>1002.7</ele>
        <time>2000-01-02T22:06:03.000Z</time>
      </trkpt>
      <trkpt lat="46.06383" lon="6.73003">
        <ele>1001.9</ele>
        <time>2000-01-02T22:06:13.000Z</time>
      </trkpt>
      <trkpt lat="46.06388" lon="6.73">
        <ele>1000.2</ele>
        <time>2000-01-02T22:06:23.000Z</time>
      </trkpt>
      <trkpt lat="46.06395" lon="6.72995">
        <ele>999</ele>
        <time>2000-01-02T22:06:33.000Z</time>
      </trkpt>
      <trkpt lat="46.064" lon="6.72993">
        <ele>995.9</ele>
        <time>2000-01-02T22:06:43.000Z</time>
      </trkpt>
      <trkpt lat="46.06405" lon="6.72993">
        <ele>994.7</ele>
        <time>2000-01-02T22:06:53.000Z</time>
      </trkpt>
      <trkpt lat="46.06409" lon="6.72995">
        <ele>994</ele>
        <time>2000-01-02T22:07:03.000Z</time>
      </trkpt>
      <trkpt lat="46.06412" lon="6.72998">
        <ele>993.8</ele>
        <time>2000-01-02T22:07:13.000Z</time>
      </trkpt>
      <trkpt lat="46.06414" lon="6.73001">
        <ele>997</ele>
        <time>2000-01-02T22:07:23.000Z</time>
      </trkpt>
      <trkpt lat="46.06416" lon="6.73009">
        <ele>993.8</ele>
        <time>2000-01-02T22:07:33.000Z</time>
      </trkpt>
      <trkpt lat="46.06417" lon="6.73017">
        <ele>994.1</ele>
        <time>2000-01-02T22:07:43.000Z</time>
      </trkpt>
      <trkpt lat="46.06419" lon="6.73026">
        <ele>993.9</ele>
        <time>2000-01-02T22:07:53.000Z</time>
      </trkpt>
      <trkpt lat="46.06424" lon="6.73041">
        <ele>995</ele>
        <time>2000-01-02T22:08:03.000Z</time>
      </trkpt>
      <trkpt lat="46.06426" lon="6.73048">
        <ele>994</ele>
        <time>2000-01-02T22:08:13.000Z</time>
      </trkpt>
      <trkpt lat="46.06429" lon="6.73055">
        <ele>993.9</ele>
        <time>2000-01-02T22:08:23.000Z</time>
      </trkpt>
      <trkpt lat="46.06432" lon="6.73058">
        <ele>993.3</ele>
        <time>2000-01-02T22:08:33.000Z</time>
      </trkpt>
      <trkpt lat="46.0644" lon="6.73065">
        <ele>993</ele>
        <time>2000-01-02T22:08:43.000Z</time>
      </trkpt>
      <trkpt lat="46.06448" lon="6.73073">
        <ele>991.6</ele>
        <time>2000-01-02T22:08:53.000Z</time>
      </trkpt>
      <trkpt lat="46.06452" lon="6.73076">
        <ele>992.1</ele>
        <time>2000-01-02T22:09:03.000Z</time>
      </trkpt>
      <trkpt lat="46.06456" lon="6.73076">
        <ele>992.2</ele>
        <time>2000-01-02T22:09:13.000Z</time>
      </trkpt>
      <trkpt lat="46.06458" lon="6.73075">
        <ele>991</ele>
        <time>2000-01-02T22:09:23.000Z</time>
      </trkpt>
      <trkpt lat="46.06462" lon="6.73071">
        <ele>991.8</ele>
        <time>2000-01-02T22:09:33.000Z</time>
      </trkpt>
      <trkpt lat="46.06466" lon="6.73065">
        <ele>991.4</ele>
        <time>2000-01-02T22:09:43.000Z</time>
      </trkpt>
      <trkpt lat="46.06469" lon="6.73058">
        <ele>991</ele>
        <time>2000-01-02T22:09:53.000Z</time>
      </trkpt>
      <trkpt lat="46.06472" lon="6.73052">
        <ele>990</ele>
        <time>2000-01-02T22:10:03.000Z</time>
      </trkpt>
      <trkpt lat="46.06486" lon="6.73037">
        <ele>992</ele>
        <time>2000-01-02T22:10:13.000Z</time>
      </trkpt>
      <trkpt lat="46.06495" lon="6.73023">
        <ele>990</ele>
        <time>2000-01-02T22:10:23.000Z</time>
      </trkpt>
      <trkpt lat="46.06507" lon="6.73001">
        <ele>990</ele>
        <time>2000-01-02T22:10:33.000Z</time>
      </trkpt>
      <trkpt lat="46.06512" lon="6.72983">
        <ele>992.8</ele>
        <time>2000-01-02T22:10:43.000Z</time>
      </trkpt>
      <trkpt lat="46.06519" lon="6.72967">
        <ele>989</ele>
        <time>2000-01-02T22:10:53.000Z</time>
      </trkpt>
      <trkpt lat="46.06532" lon="6.72943">
        <ele>988</ele>
        <time>2000-01-02T22:11:03.000Z</time>
      </trkpt>
      <trkpt lat="46.06545" lon="6.72924">
        <ele>984.6</ele>
        <time>2000-01-02T22:11:13.000Z</time>
      </trkpt>
      <trkpt lat="46.06562" lon="6.72905">
        <ele>979</ele>
        <time>2000-01-02T22:11:23.000Z</time>
      </trkpt>
      <trkpt lat="46.06585" lon="6.72886">
        <ele>973</ele>
        <time>2000-01-02T22:11:33.000Z</time>
      </trkpt>
      <trkpt lat="46.066" lon="6.72876">
        <ele>974.3</ele>
        <time>2000-01-02T22:11:43.000Z</time>
      </trkpt>
      <trkpt lat="46.0661" lon="6.72875">
        <ele>972</ele>
        <time>2000-01-02T22:11:53.000Z</time>
      </trkpt>
      <trkpt lat="46.06622" lon="6.72874">
        <ele>973.1</ele>
        <time>2000-01-02T22:12:03.000Z</time>
      </trkpt>
      <trkpt lat="46.06631" lon="6.72875">
        <ele>972</ele>
        <time>2000-01-02T22:12:13.000Z</time>
      </trkpt>
      <trkpt lat="46.06641" lon="6.72879">
        <ele>973</ele>
        <time>2000-01-02T22:12:23.000Z</time>
      </trkpt>
      <trkpt lat="46.06649" lon="6.72883">
        <ele>970</ele>
        <time>2000-01-02T22:12:33.000Z</time>
      </trkpt>
      <trkpt lat="46.06659" lon="6.72885">
        <ele>971.5</ele>
        <time>2000-01-02T22:12:43.000Z</time>
      </trkpt>
      <trkpt lat="46.06667" lon="6.72885">
        <ele>969.8</ele>
        <time>2000-01-02T22:12:53.000Z</time>
      </trkpt>
      <trkpt lat="46.06676" lon="6.72881">
        <ele>968</ele>
        <time>2000-01-02T22:13:03.000Z</time>
      </trkpt>
      <trkpt lat="46.06683" lon="6.72877">
        <ele>963.8</ele>
        <time>2000-01-02T22:13:13.000Z</time>
      </trkpt>
      <trkpt lat="46.06689" lon="6.72869">
        <ele>961.5</ele>
        <time>2000-01-02T22:13:23.000Z</time>
      </trkpt>
      <trkpt lat="46.06694" lon="6.7286">
        <ele>958</ele>
        <time>2000-01-02T22:13:33.000Z</time>
      </trkpt>
      <trkpt lat="46.06702" lon="6.72854">
        <ele>957</ele>
        <time>2000-01-02T22:13:43.000Z</time>
      </trkpt>
      <trkpt lat="46.06713" lon="6.72853">
        <ele>956</ele>
        <time>2000-01-02T22:13:53.000Z</time>
      </trkpt>
      <trkpt lat="46.06719" lon="6.72849">
        <ele>954</ele>
        <time>2000-01-02T22:14:03.000Z</time>
      </trkpt>
      <trkpt lat="46.06727" lon="6.72845">
        <ele>952.2</ele>
        <time>2000-01-02T22:14:13.000Z</time>
      </trkpt>
      <trkpt lat="46.06732" lon="6.72841">
        <ele>953</ele>
        <time>2000-01-02T22:14:23.000Z</time>
      </trkpt>
      <trkpt lat="46.06736" lon="6.72834">
        <ele>950.5</ele>
        <time>2000-01-02T22:14:33.000Z</time>
      </trkpt>
      <trkpt lat="46.06742" lon="6.72824">
        <ele>948.6</ele>
        <time>2000-01-02T22:14:43.000Z</time>
      </trkpt>
      <trkpt lat="46.06749" lon="6.72813">
        <ele>949</ele>
        <time>2000-01-02T22:14:53.000Z</time>
      </trkpt>
      <trkpt lat="46.06756" lon="6.72801">
        <ele>945.6</ele>
        <time>2000-01-02T22:15:03.000Z</time>
      </trkpt>
      <trkpt lat="46.06763" lon="6.72786">
        <ele>945</ele>
        <time>2000-01-02T22:15:13.000Z</time>
      </trkpt>
      <trkpt lat="46.0677" lon="6.72776">
        <ele>944.2</ele>
        <time>2000-01-02T22:15:23.000Z</time>
      </trkpt>
      <trkpt lat="46.06777" lon="6.72768">
        <ele>944</ele>
        <time>2000-01-02T22:15:33.000Z</time>
      </trkpt>
      <trkpt lat="46.06785" lon="6.72765">
        <ele>944</ele>
        <time>2000-01-02T22:15:43.000Z</time>
      </trkpt>
      <trkpt lat="46.06799" lon="6.72754">
        <ele>943.7</ele>
        <time>2000-01-02T22:15:53.000Z</time>
      </trkpt>
      <trkpt lat="46.06811" lon="6.72752">
        <ele>943</ele>
        <time>2000-01-02T22:16:03.000Z</time>
      </trkpt>
      <trkpt lat="46.06824" lon="6.72752">
        <ele>941.7</ele>
        <time>2000-01-02T22:16:13.000Z</time>
      </trkpt>
      <trkpt lat="46.06838" lon="6.72753">
        <ele>941</ele>
        <time>2000-01-02T22:16:23.000Z</time>
      </trkpt>
      <trkpt lat="46.06853" lon="6.72752">
        <ele>935.6</ele>
        <time>2000-01-02T22:16:33.000Z</time>
      </trkpt>
      <trkpt lat="46.06867" lon="6.72742">
        <ele>935</ele>
        <time>2000-01-02T22:16:43.000Z</time>
      </trkpt>
      <trkpt lat="46.0688" lon="6.72736">
        <ele>930.2</ele>
        <time>2000-01-02T22:16:53.000Z</time>
      </trkpt>
      <trkpt lat="46.06889" lon="6.72725">
        <ele>933</ele>
        <time>2000-01-02T22:17:03.000Z</time>
      </trkpt>
      <trkpt lat="46.069" lon="6.72716">
        <ele>927.6</ele>
        <time>2000-01-02T22:17:13.000Z</time>
      </trkpt>
      <trkpt lat="46.06906" lon="6.72709">
        <ele>930</ele>
        <time>2000-01-02T22:17:23.000Z</time>
      </trkpt>
      <trkpt lat="46.06916" lon="6.72702">
        <ele>924.4</ele>
        <time>2000-01-02T22:17:33.000Z</time>
      </trkpt>
      <trkpt lat="46.06927" lon="6.72703">
        <ele>922</ele>
        <time>2000-01-02T22:17:43.000Z</time>
      </trkpt>
      <trkpt lat="46.06939" lon="6.72704">
        <ele>915.4</ele>
        <time>2000-01-02T22:17:53.000Z</time>
      </trkpt>
      <trkpt lat="46.06944" lon="6.72698">
        <ele>913.9</ele>
        <time>2000-01-02T22:18:03.000Z</time>
      </trkpt>
      <trkpt lat="46.06947" lon="6.72689">
        <ele>916</ele>
        <time>2000-01-02T22:18:13.000Z</time>
      </trkpt>
      <trkpt lat="46.06949" lon="6.72674">
        <ele>910.2</ele>
        <time>2000-01-02T22:18:23.000Z</time>
      </trkpt>
      <trkpt lat="46.06949" lon="6.72658">
        <ele>911</ele>
        <time>2000-01-02T22:18:33.000Z</time>
      </trkpt>
      <trkpt lat="46.06948" lon="6.72646">
        <ele>905.8</ele>
        <time>2000-01-02T22:18:43.000Z</time>
      </trkpt>
      <trkpt lat="46.06942" lon="6.72635">
        <ele>906</ele>
        <time>2000-01-02T22:18:53.000Z</time>
      </trkpt>
      <trkpt lat="46.06939" lon="6.72625">
        <ele>905</ele>
        <time>2000-01-02T22:19:03.000Z</time>
      </trkpt>
      <trkpt lat="46.06936" lon="6.72618">
        <ele>903.6</ele>
        <time>2000-01-02T22:19:13.000Z</time>
      </trkpt>
      <trkpt lat="46.06937" lon="6.72611">
        <ele>901.6</ele>
        <time>2000-01-02T22:19:23.000Z</time>
      </trkpt>
      <trkpt lat="46.06943" lon="6.72608">
        <ele>899.9</ele>
        <time>2000-01-02T22:19:33.000Z</time>
      </trkpt>
      <trkpt lat="46.06952" lon="6.7261">
        <ele>895</ele>
        <time>2000-01-02T22:19:43.000Z</time>
      </trkpt>
      <trkpt lat="46.06961" lon="6.72613">
        <ele>894.3</ele>
        <time>2000-01-02T22:19:53.000Z</time>
      </trkpt>
      <trkpt lat="46.06969" lon="6.72617">
        <ele>891.9</ele>
        <time>2000-01-02T22:20:03.000Z</time>
      </trkpt>
      <trkpt lat="46.06969" lon="6.72615">
        <ele>894</ele>
        <time>2000-01-02T22:20:13.000Z</time>
      </trkpt>
      <trkpt lat="46.06971" lon="6.72613">
        <ele>890.7</ele>
        <time>2000-01-02T22:20:23.000Z</time>
      </trkpt>
      <trkpt lat="46.0698" lon="6.72607">
        <ele>888</ele>
        <time>2000-01-02T22:20:33.000Z</time>
      </trkpt>
      <trkpt lat="46.06982" lon="6.72607">
        <ele>887.5</ele>
        <time>2000-01-02T22:20:43.000Z</time>
      </trkpt>
      <trkpt lat="46.06991" lon="6.72602">
        <ele>885</ele>
        <time>2000-01-02T22:20:53.000Z</time>
      </trkpt>
      <trkpt lat="46.06995" lon="6.72602">
        <ele>885.1</ele>
        <time>2000-01-02T22:21:03.000Z</time>
      </trkpt>
      <trkpt lat="46.06998" lon="6.72603">
        <ele>884.2</ele>
        <time>2000-01-02T22:21:13.000Z</time>
      </trkpt>
      <trkpt lat="46.07002" lon="6.72606">
        <ele>883</ele>
        <time>2000-01-02T22:21:23.000Z</time>
      </trkpt>
      <trkpt lat="46.07012" lon="6.7261">
        <ele>884</ele>
        <time>2000-01-02T22:21:33.000Z</time>
      </trkpt>
      <trkpt lat="46.07019" lon="6.72611">
        <ele>880</ele>
        <time>2000-01-02T22:21:43.000Z</time>
      </trkpt>
      <trkpt lat="46.07024" lon="6.7261">
        <ele>879.8</ele>
        <time>2000-01-02T22:21:53.000Z</time>
      </trkpt>
      <trkpt lat="46.07032" lon="6.72606">
        <ele>886</ele>
        <time>2000-01-02T22:22:03.000Z</time>
      </trkpt>
      <trkpt lat="46.0704" lon="6.726">
        <ele>881.1</ele>
        <time>2000-01-02T22:22:13.000Z</time>
      </trkpt>
      <trkpt lat="46.07046" lon="6.72596">
        <ele>881.8</ele>
        <time>2000-01-02T22:22:23.000Z</time>
      </trkpt>
      <trkpt lat="46.07057" lon="6.72584">
        <ele>886</ele>
        <time>2000-01-02T22:22:33.000Z</time>
      </trkpt>
      <trkpt lat="46.07068" lon="6.72569">
        <ele>883.8</ele>
        <time>2000-01-02T22:22:43.000Z</time>
      </trkpt>
      <trkpt lat="46.07076" lon="6.72556">
        <ele>887</ele>
        <time>2000-01-02T22:22:53.000Z</time>
      </trkpt>
      <trkpt lat="46.07084" lon="6.7254">
        <ele>884.1</ele>
        <time>2000-01-02T22:23:03.000Z</time>
      </trkpt>
      <trkpt lat="46.07088" lon="6.72531">
        <ele>885</ele>
        <time>2000-01-02T22:23:13.000Z</time>
      </trkpt>
      <trkpt lat="46.07092" lon="6.72518">
        <ele>883</ele>
        <time>2000-01-02T22:23:23.000Z</time>
      </trkpt>
      <trkpt lat="46.07096" lon="6.72508">
        <ele>880.8</ele>
        <time>2000-01-02T22:23:33.000Z</time>
      </trkpt>
      <trkpt lat="46.07097" lon="6.72502">
        <ele>884</ele>
        <time>2000-01-02T22:23:43.000Z</time>
      </trkpt>
      <trkpt lat="46.07096" lon="6.72497">
        <ele>880</ele>
        <time>2000-01-02T22:23:53.000Z</time>
      </trkpt>
      <trkpt lat="46.07094" lon="6.72487">
        <ele>879</ele>
        <time>2000-01-02T22:24:03.000Z</time>
      </trkpt>
      <trkpt lat="46.07091" lon="6.72462">
        <ele>875</ele>
        <time>2000-01-02T22:24:13.000Z</time>
      </trkpt>
      <trkpt lat="46.07088" lon="6.72442">
        <ele>869.5</ele>
        <time>2000-01-02T22:24:23.000Z</time>
      </trkpt>
      <trkpt lat="46.07083" lon="6.7242">
        <ele>861</ele>
        <time>2000-01-02T22:24:33.000Z</time>
      </trkpt>
      <trkpt lat="46.07078" lon="6.72402">
        <ele>861.5</ele>
        <time>2000-01-02T22:24:43.000Z</time>
      </trkpt>
      <trkpt lat="46.07074" lon="6.72384">
        <ele>857</ele>
        <time>2000-01-02T22:24:53.000Z</time>
      </trkpt>
      <trkpt lat="46.07072" lon="6.72367">
        <ele>854.6</ele>
        <time>2000-01-02T22:25:03.000Z</time>
      </trkpt>
      <trkpt lat="46.07071" lon="6.72349">
        <ele>847</ele>
        <time>2000-01-02T22:25:13.000Z</time>
      </trkpt>
      <trkpt lat="46.07074" lon="6.72325">
        <ele>843.9</ele>
        <time>2000-01-02T22:25:23.000Z</time>
      </trkpt>
      <trkpt lat="46.07076" lon="6.72305">
        <ele>840</ele>
        <time>2000-01-02T22:25:33.000Z</time>
      </trkpt>
      <trkpt lat="46.07079" lon="6.72281">
        <ele>834.2</ele>
        <time>2000-01-02T22:25:43.000Z</time>
      </trkpt>
      <trkpt lat="46.07079" lon="6.72267">
        <ele>833</ele>
        <time>2000-01-02T22:25:53.000Z</time>
      </trkpt>
      <trkpt lat="46.07078" lon="6.7225">
        <ele>830.7</ele>
        <time>2000-01-02T22:26:03.000Z</time>
      </trkpt>
      <trkpt lat="46.07079" lon="6.72228">
        <ele>826</ele>
        <time>2000-01-02T22:26:13.000Z</time>
      </trkpt>
      <trkpt lat="46.0708" lon="6.72212">
        <ele>826.3</ele>
        <time>2000-01-02T22:26:23.000Z</time>
      </trkpt>
      <trkpt lat="46.0708" lon="6.72188">
        <ele>824</ele>
        <time>2000-01-02T22:26:33.000Z</time>
      </trkpt>
      <trkpt lat="46.0708" lon="6.72165">
        <ele>824.7</ele>
        <time>2000-01-02T22:26:43.000Z</time>
      </trkpt>
      <trkpt lat="46.07082" lon="6.72145">
        <ele>824</ele>
        <time>2000-01-02T22:26:53.000Z</time>
      </trkpt>
      <trkpt lat="46.07085" lon="6.7213">
        <ele>824.9</ele>
        <time>2000-01-02T22:27:03.000Z</time>
      </trkpt>
      <trkpt lat="46.07089" lon="6.72114">
        <ele>824</ele>
        <time>2000-01-02T22:27:13.000Z</time>
      </trkpt>
      <trkpt lat="46.07095" lon="6.72101">
        <ele>824</ele>
        <time>2000-01-02T22:27:23.000Z</time>
      </trkpt>
      <trkpt lat="46.07103" lon="6.72088">
        <ele>822</ele>
        <time>2000-01-02T22:27:33.000Z</time>
      </trkpt>
      <trkpt lat="46.07114" lon="6.72072">
        <ele>822.4</ele>
        <time>2000-01-02T22:27:43.000Z</time>
      </trkpt>
      <trkpt lat="46.0711" lon="6.72065">
        <ele>821</ele>
        <time>2000-01-02T22:27:53.000Z</time>
      </trkpt>
      <trkpt lat="46.07109" lon="6.72062">
        <ele>822.2</ele>
        <time>2000-01-02T22:28:03.000Z</time>
      </trkpt>
      <trkpt lat="46.0711" lon="6.72052">
        <ele>822</ele>
        <time>2000-01-02T22:28:13.000Z</time>
      </trkpt>
      <trkpt lat="46.07109" lon="6.72035">
        <ele>821</ele>
        <time>2000-01-02T22:28:23.000Z</time>
      </trkpt>
      <trkpt lat="46.0711" lon="6.72028">
        <ele>821.2</ele>
        <time>2000-01-02T22:28:33.000Z</time>
      </trkpt>
      <trkpt lat="46.07111" lon="6.72026">
        <ele>821</ele>
        <time>2000-01-02T22:28:43.000Z</time>
      </trkpt>
      <trkpt lat="46.07113" lon="6.7202">
        <ele>820.9</ele>
        <time>2000-01-02T22:28:53.000Z</time>
      </trkpt>
      <trkpt lat="46.07115" lon="6.72009">
        <ele>820</ele>
        <time>2000-01-02T22:29:03.000Z</time>
      </trkpt>
      <trkpt lat="46.07116" lon="6.71997">
        <ele>820.3</ele>
        <time>2000-01-02T22:29:13.000Z</time>
      </trkpt>
      <trkpt lat="46.07116" lon="6.71983">
        <ele>820.2</ele>
        <time>2000-01-02T22:29:23.000Z</time>
      </trkpt>
      <trkpt lat="46.07118" lon="6.71973">
        <ele>819</ele>
        <time>2000-01-02T22:29:33.000Z</time>
      </trkpt>
      <trkpt lat="46.07123" lon="6.71957">
        <ele>819.4</ele>
        <time>2000-01-02T22:29:43.000Z</time>
      </trkpt>
      <trkpt lat="46.07129" lon="6.71945">
        <ele>817</ele>
        <time>2000-01-02T22:29:53.000Z</time>
      </trkpt>
      <trkpt lat="46.07131" lon="6.7194">
        <ele>818</ele>
        <time>2000-01-02T22:30:03.000Z</time>
      </trkpt>
      <trkpt lat="46.07131" lon="6.71939">
        <ele>817.9</ele>
        <time>2000-01-02T22:30:13.000Z</time>
      </trkpt>
      <trkpt lat="46.07135" lon="6.71939">
        <ele>817.8</ele>
        <time>2000-01-02T22:30:23.000Z</time>
      </trkpt>
      <trkpt lat="46.0714" lon="6.71938">
        <ele>817.6</ele>
        <time>2000-01-02T22:30:33.000Z</time>
      </trkpt>
      <trkpt lat="46.0715" lon="6.71935">
        <ele>817</ele>
        <time>2000-01-02T22:30:43.000Z</time>
      </trkpt>
      <trkpt lat="46.07167" lon="6.71927">
        <ele>817.1</ele>
        <time>2000-01-02T22:30:53.000Z</time>
      </trkpt>
      <trkpt lat="46.07173" lon="6.71924">
        <ele>816</ele>
        <time>2000-01-02T22:31:03.000Z</time>
      </trkpt>
      <trkpt lat="46.07178" lon="6.71923">
        <ele>816.8</ele>
        <time>2000-01-02T22:31:13.000Z</time>
      </trkpt>
      <trkpt lat="46.07182" lon="6.71923">
        <ele>816.8</ele>
        <time>2000-01-02T22:31:23.000Z</time>
      </trkpt>
      <trkpt lat="46.07188" lon="6.71924">
        <ele>817</ele>
        <time>2000-01-02T22:31:33.000Z</time>
      </trkpt>
      <trkpt lat="46.07195" lon="6.71926">
        <ele>816</ele>
        <time>2000-01-02T22:31:43.000Z</time>
      </trkpt>
      <trkpt lat="46.072" lon="6.71928">
        <ele>817.4</ele>
        <time>2000-01-02T22:31:53.000Z</time>
      </trkpt>
      <trkpt lat="46.07203" lon="6.71928">
        <ele>817.3</ele>
        <time>2000-01-02T22:32:03.000Z</time>
      </trkpt>
      <trkpt lat="46.07207" lon="6.71929">
        <ele>817.3</ele>
        <time>2000-01-02T22:32:13.000Z</time>
      </trkpt>
      <trkpt lat="46.07211" lon="6.7193">
        <ele>817.3</ele>
        <time>2000-01-02T22:32:23.000Z</time>
      </trkpt>
      <trkpt lat="46.07215" lon="6.71929">
        <ele>816</ele>
        <time>2000-01-02T22:32:33.000Z</time>
      </trkpt>
      <trkpt lat="46.07219" lon="6.71927">
        <ele>816.6</ele>
        <time>2000-01-02T22:32:43.000Z</time>
      </trkpt>
      <trkpt lat="46.07223" lon="6.71924">
        <ele>815.9</ele>
        <time>2000-01-02T22:32:53.000Z</time>
      </trkpt>
      <trkpt lat="46.07225" lon="6.71923">
        <ele>815.4</ele>
        <time>2000-01-02T22:33:03.000Z</time>
      </trkpt>
      <trkpt lat="46.07228" lon="6.71922">
        <ele>814.8</ele>
        <time>2000-01-02T22:33:13.000Z</time>
      </trkpt>
      <trkpt lat="46.07232" lon="6.71921">
        <ele>813.9</ele>
        <time>2000-01-02T22:33:23.000Z</time>
      </trkpt>
      <trkpt lat="46.07243" lon="6.71924">
        <ele>813</ele>
        <time>2000-01-02T22:33:33.000Z</time>
      </trkpt>
      <trkpt lat="46.07254" lon="6.71929">
        <ele>810.9</ele>
        <time>2000-01-02T22:33:43.000Z</time>
      </trkpt>
      <trkpt lat="46.07265" lon="6.71932">
        <ele>809</ele>
        <time>2000-01-02T22:33:53.000Z</time>
      </trkpt>
      <trkpt lat="46.07276" lon="6.71934">
        <ele>804.5</ele>
        <time>2000-01-02T22:34:03.000Z</time>
      </trkpt>
      <trkpt lat="46.07281" lon="6.71936">
        <ele>802.9</ele>
        <time>2000-01-02T22:34:13.000Z</time>
      </trkpt>
      <trkpt lat="46.07286" lon="6.71939">
        <ele>802</ele>
        <time>2000-01-02T22:34:23.000Z</time>
      </trkpt>
      <trkpt lat="46.0729" lon="6.7194">
        <ele>799.8</ele>
        <time>2000-01-02T22:34:33.000Z</time>
      </trkpt>
      <trkpt lat="46.07294" lon="6.71941">
        <ele>798.3</ele>
        <time>2000-01-02T22:34:43.000Z</time>
      </trkpt>
      <trkpt lat="46.07303" lon="6.71942">
        <ele>794.9</ele>
        <time>2000-01-02T22:34:53.000Z</time>
      </trkpt>
      <trkpt lat="46.07312" lon="6.71941">
        <ele>791</ele>
        <time>2000-01-02T22:35:03.000Z</time>
      </trkpt>
      <trkpt lat="46.07322" lon="6.71936">
        <ele>788.7</ele>
        <time>2000-01-02T22:35:13.000Z</time>
      </trkpt>
      <trkpt lat="46.07329" lon="6.71932">
        <ele>786.7</ele>
        <time>2000-01-02T22:35:23.000Z</time>
      </trkpt>
      <trkpt lat="46.0734" lon="6.71924">
        <ele>783</ele>
        <time>2000-01-02T22:35:33.000Z</time>
      </trkpt>
      <trkpt lat="46.07341" lon="6.71926">
        <ele>784.1</ele>
        <time>2000-01-02T22:35:43.000Z</time>
      </trkpt>
      <trkpt lat="46.07345" lon="6.71929">
        <ele>783.2</ele>
        <time>2000-01-02T22:35:53.000Z</time>
      </trkpt>
      <trkpt lat="46.0735" lon="6.71928">
        <ele>782.2</ele>
        <time>2000-01-02T22:36:03.000Z</time>
      </trkpt>
      <trkpt lat="46.07354" lon="6.71924">
        <ele>781.5</ele>
        <time>2000-01-02T22:36:13.000Z</time>
      </trkpt>
      <trkpt lat="46.07355" lon="6.71922">
        <ele>781.3</ele>
        <time>2000-01-02T22:36:23.000Z</time>
      </trkpt>
      <trkpt lat="46.07356" lon="6.71925">
        <ele>781</ele>
        <time>2000-01-02T22:36:33.000Z</time>
      </trkpt>
      <trkpt lat="46.0736" lon="6.71931">
        <ele>780.2</ele>
        <time>2000-01-02T22:36:43.000Z</time>
      </trkpt>
      <trkpt lat="46.07367" lon="6.71945">
        <ele>779.5</ele>
        <time>2000-01-02T22:36:53.000Z</time>
      </trkpt>
      <trkpt lat="46.07372" lon="6.71953">
        <ele>778</ele>
        <time>2000-01-02T22:37:03.000Z</time>
      </trkpt>
      <trkpt lat="46.07374" lon="6.7196">
        <ele>777.7</ele>
        <time>2000-01-02T22:37:13.000Z</time>
      </trkpt>
      <trkpt lat="46.07375" lon="6.71966">
        <ele>777.1</ele>
        <time>2000-01-02T22:37:23.000Z</time>
      </trkpt>
      <trkpt lat="46.07375" lon="6.71973">
        <ele>776.4</ele>
        <time>2000-01-02T22:37:33.000Z</time>
      </trkpt>
      <trkpt lat="46.07356" lon="6.72062">
        <ele>773</ele>
        <time>2000-01-02T22:37:43.000Z</time>
      </trkpt>
      <trkpt lat="46.07355" lon="6.72082">
        <ele>769</ele>
        <time>2000-01-02T22:37:53.000Z</time>
      </trkpt>
      <trkpt lat="46.07354" lon="6.72124">
        <ele>764</ele>
        <time>2000-01-02T22:38:03.000Z</time>
      </trkpt>
      <trkpt lat="46.07355" lon="6.72151">
        <ele>757.7</ele>
        <time>2000-01-02T22:38:13.000Z</time>
      </trkpt>
      <trkpt lat="46.07358" lon="6.72165">
        <ele>757</ele>
        <time>2000-01-02T22:38:23.000Z</time>
      </trkpt>
      <trkpt lat="46.0736" lon="6.7218">
        <ele>749.1</ele>
        <time>2000-01-02T22:38:33.000Z</time>
      </trkpt>
      <trkpt lat="46.07362" lon="6.7218">
        <ele>748.3</ele>
        <time>2000-01-02T22:38:43.000Z</time>
      </trkpt>
      <trkpt lat="46.07363" lon="6.72179">
        <ele>748.2</ele>
        <time>2000-01-02T22:38:53.000Z</time>
      </trkpt>
      <trkpt lat="46.07371" lon="6.72169">
        <ele>748</ele>
        <time>2000-01-02T22:39:03.000Z</time>
      </trkpt>
      <trkpt lat="46.07379" lon="6.7216">
        <ele>746.1</ele>
        <time>2000-01-02T22:39:13.000Z</time>
      </trkpt>
      <trkpt lat="46.07386" lon="6.72156">
        <ele>744.1</ele>
        <time>2000-01-02T22:39:23.000Z</time>
      </trkpt>
      <trkpt lat="46.07391" lon="6.72155">
        <ele>744</ele>
        <time>2000-01-02T22:39:33.000Z</time>
      </trkpt>
      <trkpt lat="46.07396" lon="6.72156">
        <ele>741</ele>
        <time>2000-01-02T22:39:43.000Z</time>
      </trkpt>
      <trkpt lat="46.07403" lon="6.7216">
        <ele>738.3</ele>
        <time>2000-01-02T22:39:53.000Z</time>
      </trkpt>
      <trkpt lat="46.07407" lon="6.72165">
        <ele>736.1</ele>
        <time>2000-01-02T22:40:03.000Z</time>
      </trkpt>
      <trkpt lat="46.07413" lon="6.72172">
        <ele>734</ele>
        <time>2000-01-02T22:40:13.000Z</time>
      </trkpt>
      <trkpt lat="46.07418" lon="6.72181">
        <ele>729.5</ele>
        <time>2000-01-02T22:40:23.000Z</time>
      </trkpt>
      <trkpt lat="46.0742" lon="6.72189">
        <ele>727.3</ele>
        <time>2000-01-02T22:40:33.000Z</time>
      </trkpt>
      <trkpt lat="46.07421" lon="6.72201">
        <ele>725</ele>
        <time>2000-01-02T22:40:43.000Z</time>
      </trkpt>
      <trkpt lat="46.0742" lon="6.72214">
        <ele>722.6</ele>
        <time>2000-01-02T22:40:53.000Z</time>
      </trkpt>
      <trkpt lat="46.07416" lon="6.72228">
        <ele>724</ele>
        <time>2000-01-02T22:41:03.000Z</time>
      </trkpt>
      <trkpt lat="46.0741" lon="6.72251">
        <ele>718.5</ele>
        <time>2000-01-02T22:41:13.000Z</time>
      </trkpt>
      <trkpt lat="46.07412" lon="6.72249">
        <ele>721</ele>
        <time>2000-01-02T22:41:23.000Z</time>
      </trkpt>
      <trkpt lat="46.07415" lon="6.72243">
        <ele>718.7</ele>
        <time>2000-01-02T22:41:33.000Z</time>
      </trkpt>
      <trkpt lat="46.07418" lon="6.7224">
        <ele>718.4</ele>
        <time>2000-01-02T22:41:43.000Z</time>
      </trkpt>
      <trkpt lat="46.07422" lon="6.72236">
        <ele>717.8</ele>
        <time>2000-01-02T22:41:53.000Z</time>
      </trkpt>
      <trkpt lat="46.07435" lon="6.72221">
        <ele>720</ele>
        <time>2000-01-02T22:42:03.000Z</time>
      </trkpt>
      <trkpt lat="46.07444" lon="6.7221">
        <ele>716.8</ele>
        <time>2000-01-02T22:42:13.000Z</time>
      </trkpt>
      <trkpt lat="46.07454" lon="6.72198">
        <ele>719</ele>
        <time>2000-01-02T22:42:23.000Z</time>
      </trkpt>
      <trkpt lat="46.07459" lon="6.72193">
        <ele>717.1</ele>
        <time>2000-01-02T22:42:33.000Z</time>
      </trkpt>
      <trkpt lat="46.07464" lon="6.72191">
        <ele>716.3</ele>
        <time>2000-01-02T22:42:43.000Z</time>
      </trkpt>
      <trkpt lat="46.07467" lon="6.7219">
        <ele>715.8</ele>
        <time>2000-01-02T22:42:53.000Z</time>
      </trkpt>
      <trkpt lat="46.07473" lon="6.72186">
        <ele>717</ele>
        <time>2000-01-02T22:43:03.000Z</time>
      </trkpt>
      <trkpt lat="46.07478" lon="6.72182">
        <ele>712.9</ele>
        <time>2000-01-02T22:43:13.000Z</time>
      </trkpt>
      <trkpt lat="46.07483" lon="6.72175">
        <ele>711.5</ele>
        <time>2000-01-02T22:43:23.000Z</time>
      </trkpt>
      <trkpt lat="46.07487" lon="6.72168">
        <ele>716</ele>
        <time>2000-01-02T22:43:33.000Z</time>
      </trkpt>
      <trkpt lat="46.0749" lon="6.72162">
        <ele>711.2</ele>
        <time>2000-01-02T22:43:43.000Z</time>
      </trkpt>
      <trkpt lat="46.07493" lon="6.72155">
        <ele>712.2</ele>
        <time>2000-01-02T22:43:53.000Z</time>
      </trkpt>
      <trkpt lat="46.07502" lon="6.72144">
        <ele>715</ele>
        <time>2000-01-02T22:44:03.000Z</time>
      </trkpt>
      <trkpt lat="46.07508" lon="6.72139">
        <ele>710.9</ele>
        <time>2000-01-02T22:44:13.000Z</time>
      </trkpt>
      <trkpt lat="46.07515" lon="6.72132">
        <ele>709.9</ele>
        <time>2000-01-02T22:44:23.000Z</time>
      </trkpt>
      <trkpt lat="46.07522" lon="6.72122">
        <ele>714</ele>
        <time>2000-01-02T22:44:33.000Z</time>
      </trkpt>
      <trkpt lat="46.07529" lon="6.72109">
        <ele>709.6</ele>
        <time>2000-01-02T22:44:43.000Z</time>
      </trkpt>
      <trkpt lat="46.07533" lon="6.72098">
        <ele>711</ele>
        <time>2000-01-02T22:44:53.000Z</time>
      </trkpt>
      <trkpt lat="46.07537" lon="6.72086">
        <ele>707.4</ele>
        <time>2000-01-02T22:45:03.000Z</time>
      </trkpt>
      <trkpt lat="46.07543" lon="6.72067">
        <ele>707</ele>
        <time>2000-01-02T22:45:13.000Z</time>
      </trkpt>
      <trkpt lat="46.07548" lon="6.7205">
        <ele>702.8</ele>
        <time>2000-01-02T22:45:23.000Z</time>
      </trkpt>
      <trkpt lat="46.07561" lon="6.72012">
        <ele>704</ele>
        <time>2000-01-02T22:45:33.000Z</time>
      </trkpt>
      <trkpt lat="46.0757" lon="6.71983">
        <ele>705</ele>
        <time>2000-01-02T22:45:43.000Z</time>
      </trkpt>
      <trkpt lat="46.07579" lon="6.71954">
        <ele>704</ele>
        <time>2000-01-02T22:45:53.000Z</time>
      </trkpt>
      <trkpt lat="46.07582" lon="6.71943">
        <ele>700.4</ele>
        <time>2000-01-02T22:46:03.000Z</time>
      </trkpt>
      <trkpt lat="46.07585" lon="6.71928">
        <ele>704</ele>
        <time>2000-01-02T22:46:13.000Z</time>
      </trkpt>
      <trkpt lat="46.07586" lon="6.71914">
        <ele>700.3</ele>
        <time>2000-01-02T22:46:23.000Z</time>
      </trkpt>
      <trkpt lat="46.07586" lon="6.71894">
        <ele>706</ele>
        <time>2000-01-02T22:46:33.000Z</time>
      </trkpt>
      <trkpt lat="46.07586" lon="6.7188">
        <ele>701.6</ele>
        <time>2000-01-02T22:46:43.000Z</time>
      </trkpt>
      <trkpt lat="46.07588" lon="6.71862">
        <ele>701</ele>
        <time>2000-01-02T22:46:53.000Z</time>
      </trkpt>
      <trkpt lat="46.07592" lon="6.71852">
        <ele>700.9</ele>
        <time>2000-01-02T22:47:03.000Z</time>
      </trkpt>
      <trkpt lat="46.07596" lon="6.71844">
        <ele>699.5</ele>
        <time>2000-01-02T22:47:13.000Z</time>
      </trkpt>
      <trkpt lat="46.07601" lon="6.71836">
        <ele>696</ele>
        <time>2000-01-02T22:47:23.000Z</time>
      </trkpt>
      <trkpt lat="46.07603" lon="6.71842">
        <ele>696.1</ele>
        <time>2000-01-02T22:47:33.000Z</time>
      </trkpt>
      <trkpt lat="46.07609" lon="6.71849">
        <ele>693</ele>
        <time>2000-01-02T22:47:43.000Z</time>
      </trkpt>
      <trkpt lat="46.07612" lon="6.71852">
        <ele>692.1</ele>
        <time>2000-01-02T22:47:53.000Z</time>
      </trkpt>
      <trkpt lat="46.07621" lon="6.71858">
        <ele>696</ele>
        <time>2000-01-02T22:48:03.000Z</time>
      </trkpt>
      <trkpt lat="46.07627" lon="6.71864">
        <ele>693.8</ele>
        <time>2000-01-02T22:48:13.000Z</time>
      </trkpt>
      <trkpt lat="46.07635" lon="6.71872">
        <ele>695.3</ele>
        <time>2000-01-02T22:48:23.000Z</time>
      </trkpt>
      <trkpt lat="46.07644" lon="6.71877">
        <ele>694</ele>
        <time>2000-01-02T22:48:33.000Z</time>
      </trkpt>
      <trkpt lat="46.07649" lon="6.71871">
        <ele>695.8</ele>
        <time>2000-01-02T22:48:43.000Z</time>
      </trkpt>
      <trkpt lat="46.07642" lon="6.71858">
        <ele>695</ele>
        <time>2000-01-02T22:48:53.000Z</time>
      </trkpt>
      <trkpt lat="46.07643" lon="6.71848">
        <ele>693</ele>
        <time>2000-01-02T22:49:03.000Z</time>
      </trkpt>
      <trkpt lat="46.07643" lon="6.71844">
        <ele>694.5</ele>
        <time>2000-01-02T22:49:13.000Z</time>
      </trkpt>
      <trkpt lat="46.07645" lon="6.71835">
        <ele>694.3</ele>
        <time>2000-01-02T22:49:23.000Z</time>
      </trkpt>
      <trkpt lat="46.07647" lon="6.71824">
        <ele>693.6</ele>
        <time>2000-01-02T22:49:33.000Z</time>
      </trkpt>
      <trkpt lat="46.07648" lon="6.71815">
        <ele>693</ele>
        <time>2000-01-02T22:49:43.000Z</time>
      </trkpt>
      <trkpt lat="46.07648" lon="6.71803">
        <ele>692.3</ele>
        <time>2000-01-02T22:49:53.000Z</time>
      </trkpt>
      <trkpt lat="46.07648" lon="6.71797">
        <ele>692.1</ele>
        <time>2000-01-02T22:50:03.000Z</time>
      </trkpt>
      <trkpt lat="46.0765" lon="6.71789">
        <ele>692</ele>
        <time>2000-01-02T22:50:13.000Z</time>
      </trkpt>
      <trkpt lat="46.07653" lon="6.71777">
        <ele>693</ele>
        <time>2000-01-02T22:50:23.000Z</time>
      </trkpt>
      <trkpt lat="46.07654" lon="6.71767">
        <ele>692.1</ele>
        <time>2000-01-02T22:50:33.000Z</time>
      </trkpt>
      <trkpt lat="46.07656" lon="6.71753">
        <ele>692.2</ele>
        <time>2000-01-02T22:50:43.000Z</time>
      </trkpt>
      <trkpt lat="46.07657" lon="6.71747">
        <ele>692</ele>
        <time>2000-01-02T22:50:53.000Z</time>
      </trkpt>
      <trkpt lat="46.07658" lon="6.71734">
        <ele>692.4</ele>
        <time>2000-01-02T22:51:03.000Z</time>
      </trkpt>
      <trkpt lat="46.0766" lon="6.71719">
        <ele>692</ele>
        <time>2000-01-02T22:51:13.000Z</time>
      </trkpt>
      <trkpt lat="46.07661" lon="6.71705">
        <ele>692.6</ele>
        <time>2000-01-02T22:51:23.000Z</time>
      </trkpt>
      <trkpt lat="46.07663" lon="6.71692">
        <ele>692</ele>
        <time>2000-01-02T22:51:33.000Z</time>
      </trkpt>
      <trkpt lat="46.07664" lon="6.71683">
        <ele>692.8</ele>
        <time>2000-01-02T22:51:43.000Z</time>
      </trkpt>
      <trkpt lat="46.07665" lon="6.7167">
        <ele>692.9</ele>
        <time>2000-01-02T22:51:53.000Z</time>
      </trkpt>
      <trkpt lat="46.07668" lon="6.71653">
        <ele>691</ele>
        <time>2000-01-02T22:52:03.000Z</time>
      </trkpt>
      <trkpt lat="46.07668" lon="6.7164">
        <ele>692</ele>
        <time>2000-01-02T22:52:13.000Z</time>
      </trkpt>
      <trkpt lat="46.07671" lon="6.71629">
        <ele>691.7</ele>
        <time>2000-01-02T22:52:23.000Z</time>
      </trkpt>
      <trkpt lat="46.07673" lon="6.71616">
        <ele>691</ele>
        <time>2000-01-02T22:52:33.000Z</time>
      </trkpt>
      <trkpt lat="46.07676" lon="6.71604">
        <ele>691.2</ele>
        <time>2000-01-02T22:52:43.000Z</time>
      </trkpt>
      <trkpt lat="46.07679" lon="6.71594">
        <ele>691.1</ele>
        <time>2000-01-02T22:52:53.000Z</time>
      </trkpt>
      <trkpt lat="46.07682" lon="6.71583">
        <ele>692</ele>
        <time>2000-01-02T22:53:03.000Z</time>
      </trkpt>
      <trkpt lat="46.07686" lon="6.71569">
        <ele>691.4</ele>
        <time>2000-01-02T22:53:13.000Z</time>
      </trkpt>
      <trkpt lat="46.07691" lon="6.71553">
        <ele>692</ele>
        <time>2000-01-02T22:53:23.000Z</time>
      </trkpt>
      <trkpt lat="46.07694" lon="6.71542">
        <ele>691.5</ele>
        <time>2000-01-02T22:53:33.000Z</time>
      </trkpt>
      <trkpt lat="46.07697" lon="6.71528">
        <ele>689</ele>
        <time>2000-01-02T22:53:43.000Z</time>
      </trkpt>
      <trkpt lat="46.077" lon="6.71517">
        <ele>690.7</ele>
        <time>2000-01-02T22:53:53.000Z</time>
      </trkpt>
      <trkpt lat="46.07701" lon="6.71515">
        <ele>690.6</ele>
        <time>2000-01-02T22:54:03.000Z</time>
      </trkpt>
      <trkpt lat="46.07702" lon="6.71511">
        <ele>690.6</ele>
        <time>2000-01-02T22:54:13.000Z</time>
      </trkpt>
      <trkpt lat="46.07704" lon="6.71505">
        <ele>690.5</ele>
        <time>2000-01-02T22:54:23.000Z</time>
      </trkpt>
      <trkpt lat="46.07708" lon="6.71499">
        <ele>689</ele>
        <time>2000-01-02T22:54:33.000Z</time>
      </trkpt>
      <trkpt lat="46.07715" lon="6.71492">
        <ele>690.5</ele>
        <time>2000-01-02T22:54:43.000Z</time>
      </trkpt>
      <trkpt lat="46.07722" lon="6.71483">
        <ele>690.4</ele>
        <time>2000-01-02T22:54:53.000Z</time>
      </trkpt>
      <trkpt lat="46.07727" lon="6.71476">
        <ele>688</ele>
        <time>2000-01-02T22:55:03.000Z</time>
      </trkpt>
      <trkpt lat="46.07735" lon="6.71467">
        <ele>689.7</ele>
        <time>2000-01-02T22:55:13.000Z</time>
      </trkpt>
      <trkpt lat="46.07738" lon="6.71463">
        <ele>689.5</ele>
        <time>2000-01-02T22:55:23.000Z</time>
      </trkpt>
      <trkpt lat="46.07739" lon="6.71456">
        <ele>688</ele>
        <time>2000-01-02T22:55:33.000Z</time>
      </trkpt>
      <trkpt lat="46.07739" lon="6.71452">
        <ele>689</ele>
        <time>2000-01-02T22:55:43.000Z</time>
      </trkpt>
      <trkpt lat="46.07736" lon="6.71445">
        <ele>688.5</ele>
        <time>2000-01-02T22:55:53.000Z</time>
      </trkpt>
      <trkpt lat="46.07735" lon="6.71442">
        <ele>688.5</ele>
        <time>2000-01-02T22:56:03.000Z</time>
      </trkpt>
      <trkpt lat="46.07735" lon="6.71438">
        <ele>688.6</ele>
        <time>2000-01-02T22:56:13.000Z</time>
      </trkpt>
      <trkpt lat="46.0774" lon="6.71435">
        <ele>688</ele>
        <time>2000-01-02T22:56:23.000Z</time>
      </trkpt>
      <trkpt lat="46.07755" lon="6.71428">
        <ele>689.7</ele>
        <time>2000-01-02T22:56:33.000Z</time>
      </trkpt>
      <trkpt lat="46.07761" lon="6.71424">
        <ele>690</ele>
        <time>2000-01-02T22:56:43.000Z</time>
      </trkpt>
      <trkpt lat="46.07769" lon="6.71423">
        <ele>689.7</ele>
        <time>2000-01-02T22:56:53.000Z</time>
      </trkpt>
      <trkpt lat="46.07768" lon="6.71421">
        <ele>689.6</ele>
        <time>2000-01-02T22:57:03.000Z</time>
      </trkpt>
      <trkpt lat="46.07763" lon="6.71411">
        <ele>689.7</ele>
        <time>2000-01-02T22:57:13.000Z</time>
      </trkpt>
      <trkpt lat="46.0776" lon="6.71394">
        <ele>690</ele>
        <time>2000-01-02T22:57:23.000Z</time>
      </trkpt>
      <trkpt lat="46.07763" lon="6.71394">
        <ele>690.3</ele>
        <time>2000-01-02T22:57:33.000Z</time>
      </trkpt>
      <trkpt lat="46.07768" lon="6.71392">
        <ele>690.2</ele>
        <time>2000-01-02T22:57:43.000Z</time>
      </trkpt>
      <trkpt lat="46.07775" lon="6.7139">
        <ele>690.1</ele>
        <time>2000-01-02T22:57:53.000Z</time>
      </trkpt>
      <trkpt lat="46.0778" lon="6.7139">
        <ele>690</ele>
        <time>2000-01-02T22:58:03.000Z</time>
      </trkpt>
      <trkpt lat="46.07781" lon="6.7138">
        <ele>689.9</ele>
        <time>2000-01-02T22:58:13.000Z</time>
      </trkpt>
      <trkpt lat="46.07784" lon="6.71376">
        <ele>689.8</ele>
        <time>2000-01-02T22:58:23.000Z</time>
      </trkpt>
      <trkpt lat="46.07787" lon="6.71368">
        <ele>689.7</ele>
        <time>2000-01-02T22:58:33.000Z</time>
      </trkpt>
      <trkpt lat="46.07789" lon="6.7136">
        <ele>689</ele>
        <time>2000-01-02T22:58:43.000Z</time>
      </trkpt>
      <trkpt lat="46.07791" lon="6.71347">
        <ele>689.5</ele>
        <time>2000-01-02T22:58:53.000Z</time>
      </trkpt>
      <trkpt lat="46.07795" lon="6.71339">
        <ele>689.4</ele>
        <time>2000-01-02T22:59:03.000Z</time>
      </trkpt>
      <trkpt lat="46.07798" lon="6.71331">
        <ele>689</ele>
        <time>2000-01-02T22:59:13.000Z</time>
      </trkpt>
      <trkpt lat="46.07801" lon="6.71321">
        <ele>689.2</ele>
        <time>2000-01-02T22:59:23.000Z</time>
      </trkpt>
      <trkpt lat="46.07803" lon="6.71314">
        <ele>689.1</ele>
        <time>2000-01-02T22:59:33.000Z</time>
      </trkpt>
      <trkpt lat="46.07805" lon="6.71307">
        <ele>689</ele>
        <time>2000-01-02T22:59:43.000Z</time>
      </trkpt>
      <trkpt lat="46.07808" lon="6.71297">
        <ele>688.9</ele>
        <time>2000-01-02T22:59:53.000Z</time>
      </trkpt>
      <trkpt lat="46.07811" lon="6.71288">
        <ele>688.9</ele>
        <time>2000-01-02T23:00:03.000Z</time>
      </trkpt>
      <trkpt lat="46.07813" lon="6.71281">
        <ele>689</ele>
        <time>2000-01-02T23:00:13.000Z</time>
      </trkpt>
      <trkpt lat="46.07814" lon="6.71271">
        <ele>688.9</ele>
        <time>2000-01-02T23:00:23.000Z</time>
      </trkpt>
      <trkpt lat="46.07818" lon="6.71259">
        <ele>688.7</ele>
        <time>2000-01-02T23:00:33.000Z</time>
      </trkpt>
      <trkpt lat="46.07821" lon="6.7125">
        <ele>689</ele>
        <time>2000-01-02T23:00:43.000Z</time>
      </trkpt>
      <trkpt lat="46.07826" lon="6.71237">
        <ele>688.6</ele>
        <time>2000-01-02T23:00:53.000Z</time>
      </trkpt>
      <trkpt lat="46.07831" lon="6.71229">
        <ele>688.8</ele>
        <time>2000-01-02T23:01:03.000Z</time>
      </trkpt>
      <trkpt lat="46.07839" lon="6.71224">
        <ele>688</ele>
        <time>2000-01-02T23:01:13.000Z</time>
      </trkpt>
      <trkpt lat="46.07845" lon="6.71215">
        <ele>688.6</ele>
        <time>2000-01-02T23:01:23.000Z</time>
      </trkpt>
      <trkpt lat="46.0785" lon="6.71191">
        <ele>688</ele>
        <time>2000-01-02T23:01:33.000Z</time>
      </trkpt>
      <trkpt lat="46.07857" lon="6.7118">
        <ele>688.1</ele>
        <time>2000-01-02T23:01:43.000Z</time>
      </trkpt>
      <trkpt lat="46.07864" lon="6.71169">
        <ele>688</ele>
        <time>2000-01-02T23:01:53.000Z</time>
      </trkpt>
      <trkpt lat="46.07868" lon="6.71161">
        <ele>688</ele>
        <time>2000-01-02T23:02:03.000Z</time>
      </trkpt>
      <trkpt lat="46.07869" lon="6.7115">
        <ele>688</ele>
        <time>2000-01-02T23:02:13.000Z</time>
      </trkpt>
      <trkpt lat="46.07872" lon="6.71136">
        <ele>687</ele>
        <time>2000-01-02T23:02:23.000Z</time>
      </trkpt>
      <trkpt lat="46.07874" lon="6.71124">
        <ele>687.8</ele>
        <time>2000-01-02T23:02:33.000Z</time>
      </trkpt>
      <trkpt lat="46.07875" lon="6.7111">
        <ele>687.5</ele>
        <time>2000-01-02T23:02:43.000Z</time>
      </trkpt>
      <trkpt lat="46.07876" lon="6.71096">
        <ele>687</ele>
        <time>2000-01-02T23:02:53.000Z</time>
      </trkpt>
      <trkpt lat="46.0788" lon="6.71086">
        <ele>687.3</ele>
        <time>2000-01-02T23:03:03.000Z</time>
      </trkpt>
      <trkpt lat="46.07884" lon="6.71067">
        <ele>687</ele>
        <time>2000-01-02T23:03:13.000Z</time>
      </trkpt>
      <trkpt lat="46.07888" lon="6.71049">
        <ele>687</ele>
        <time>2000-01-02T23:03:23.000Z</time>
      </trkpt>
      <trkpt lat="46.07891" lon="6.71039">
        <ele>687</ele>
        <time>2000-01-02T23:03:33.000Z</time>
      </trkpt>
      <trkpt lat="46.07896" lon="6.71027">
        <ele>686.8</ele>
        <time>2000-01-02T23:03:43.000Z</time>
      </trkpt>
      <trkpt lat="46.07901" lon="6.71023">
        <ele>686.6</ele>
        <time>2000-01-02T23:03:53.000Z</time>
      </trkpt>
      <trkpt lat="46.07909" lon="6.71015">
        <ele>686</ele>
        <time>2000-01-02T23:04:03.000Z</time>
      </trkpt>
      <trkpt lat="46.07916" lon="6.71012">
        <ele>686.6</ele>
        <time>2000-01-02T23:04:13.000Z</time>
      </trkpt>
      <trkpt lat="46.07922" lon="6.71012">
        <ele>686.5</ele>
        <time>2000-01-02T23:04:23.000Z</time>
      </trkpt>
      <trkpt lat="46.07928" lon="6.71012">
        <ele>686</ele>
        <time>2000-01-02T23:04:33.000Z</time>
      </trkpt>
      <trkpt lat="46.07935" lon="6.71009">
        <ele>686.5</ele>
        <time>2000-01-02T23:04:43.000Z</time>
      </trkpt>
      <trkpt lat="46.07942" lon="6.71006">
        <ele>686.6</ele>
        <time>2000-01-02T23:04:53.000Z</time>
      </trkpt>
      <trkpt lat="46.07946" lon="6.71002">
        <ele>686</ele>
        <time>2000-01-02T23:05:03.000Z</time>
      </trkpt>
      <trkpt lat="46.07949" lon="6.70994">
        <ele>686.5</ele>
        <time>2000-01-02T23:05:13.000Z</time>
      </trkpt>
      <trkpt lat="46.07954" lon="6.70987">
        <ele>686.2</ele>
        <time>2000-01-02T23:05:23.000Z</time>
      </trkpt>
      <trkpt lat="46.0796" lon="6.70978">
        <ele>686</ele>
        <time>2000-01-02T23:05:33.000Z</time>
      </trkpt>
      <trkpt lat="46.07962" lon="6.70965">
        <ele>685.8</ele>
        <time>2000-01-02T23:05:43.000Z</time>
      </trkpt>
      <trkpt lat="46.07967" lon="6.70949">
        <ele>686</ele>
        <time>2000-01-02T23:05:53.000Z</time>
      </trkpt>
      <trkpt lat="46.07972" lon="6.7094">
        <ele>685.2</ele>
        <time>2000-01-02T23:06:03.000Z</time>
      </trkpt>
      <trkpt lat="46.07975" lon="6.7093">
        <ele>685.4</ele>
        <time>2000-01-02T23:06:13.000Z</time>
      </trkpt>
      <trkpt lat="46.0798" lon="6.70919">
        <ele>685</ele>
        <time>2000-01-02T23:06:23.000Z</time>
      </trkpt>
      <trkpt lat="46.07983" lon="6.70907">
        <ele>685.6</ele>
        <time>2000-01-02T23:06:33.000Z</time>
      </trkpt>
      <trkpt lat="46.07989" lon="6.70897">
        <ele>685.4</ele>
        <time>2000-01-02T23:06:43.000Z</time>
      </trkpt>
      <trkpt lat="46.07995" lon="6.70891">
        <ele>685</ele>
        <time>2000-01-02T23:06:53.000Z</time>
      </trkpt>
      <trkpt lat="46.07999" lon="6.70889">
        <ele>685</ele>
        <time>2000-01-02T23:07:03.000Z</time>
      </trkpt>
      <trkpt lat="46.08003" lon="6.70887">
        <ele>685</ele>
        <time>2000-01-02T23:07:13.000Z</time>
      </trkpt>
      <trkpt lat="46.08009" lon="6.70881">
        <ele>685</ele>
        <time>2000-01-02T23:07:23.000Z</time>
      </trkpt>
      <trkpt lat="46.08016" lon="6.7088">
        <ele>685</ele>
        <time>2000-01-02T23:07:33.000Z</time>
      </trkpt>
      <trkpt lat="46.08022" lon="6.7088">
        <ele>684.5</ele>
        <time>2000-01-02T23:07:43.000Z</time>
      </trkpt>
      <trkpt lat="46.08029" lon="6.70882">
        <ele>684.3</ele>
        <time>2000-01-02T23:07:53.000Z</time>
      </trkpt>
      <trkpt lat="46.08037" lon="6.70882">
        <ele>685</ele>
        <time>2000-01-02T23:08:03.000Z</time>
      </trkpt>
      <trkpt lat="46.08044" lon="6.70882">
        <ele>684.7</ele>
        <time>2000-01-02T23:08:13.000Z</time>
      </trkpt>
      <trkpt lat="46.08052" lon="6.70883">
        <ele>684.9</ele>
        <time>2000-01-02T23:08:23.000Z</time>
      </trkpt>
      <trkpt lat="46.08059" lon="6.7088">
        <ele>684</ele>
        <time>2000-01-02T23:08:33.000Z</time>
      </trkpt>
      <trkpt lat="46.08066" lon="6.70878">
        <ele>684.9</ele>
        <time>2000-01-02T23:08:43.000Z</time>
      </trkpt>
      <trkpt lat="46.08075" lon="6.70877">
        <ele>684.7</ele>
        <time>2000-01-02T23:08:53.000Z</time>
      </trkpt>
      <trkpt lat="46.08076" lon="6.70892">
        <ele>684</ele>
        <time>2000-01-02T23:09:03.000Z</time>
      </trkpt>
      <trkpt lat="46.08082" lon="6.70895">
        <ele>684.8</ele>
        <time>2000-01-02T23:09:13.000Z</time>
      </trkpt>
      <trkpt lat="46.08083" lon="6.70896">
        <ele>684.7</ele>
        <time>2000-01-02T23:09:23.000Z</time>
      </trkpt>
      <trkpt lat="46.08086" lon="6.70898">
        <ele>684.6</ele>
        <time>2000-01-02T23:09:33.000Z</time>
      </trkpt>
      <trkpt lat="46.0809" lon="6.70903">
        <ele>684.5</ele>
        <time>2000-01-02T23:09:43.000Z</time>
      </trkpt>
      <trkpt lat="46.08092" lon="6.70906">
        <ele>684</ele>
        <time>2000-01-02T23:09:53.000Z</time>
      </trkpt>
      <trkpt lat="46.08095" lon="6.70913">
        <ele>684.4</ele>
        <time>2000-01-02T23:10:03.000Z</time>
      </trkpt>
      <trkpt lat="46.08096" lon="6.70915">
        <ele>684.5</ele>
        <time>2000-01-02T23:10:13.000Z</time>
      </trkpt>
      <trkpt lat="46.081" lon="6.70925">
        <ele>684.6</ele>
        <time>2000-01-02T23:10:23.000Z</time>
      </trkpt>
      <trkpt lat="46.08109" lon="6.70937">
        <ele>684</ele>
        <time>2000-01-02T23:10:33.000Z</time>
      </trkpt>
      <trkpt lat="46.08117" lon="6.70946">
        <ele>685</ele>
        <time>2000-01-02T23:10:43.000Z</time>
      </trkpt>
      <trkpt lat="46.08128" lon="6.70956">
        <ele>684</ele>
        <time>2000-01-02T23:10:53.000Z</time>
      </trkpt>
      <trkpt lat="46.0813" lon="6.7096">
        <ele>685</ele>
        <time>2000-01-02T23:11:03.000Z</time>
      </trkpt>
      <trkpt lat="46.08133" lon="6.70969">
        <ele>685</ele>
        <time>2000-01-02T23:11:13.000Z</time>
      </trkpt>
      <trkpt lat="46.08138" lon="6.70983">
        <ele>685</ele>
        <time>2000-01-02T23:11:23.000Z</time>
      </trkpt>
      <trkpt lat="46.08136" lon="6.70992">
        <ele>685</ele>
        <time>2000-01-02T23:11:33.000Z</time>
      </trkpt>
      <trkpt lat="46.08137" lon="6.71006">
        <ele>685.2</ele>
        <time>2000-01-02T23:11:43.000Z</time>
      </trkpt>
      <trkpt lat="46.08139" lon="6.71021">
        <ele>685</ele>
        <time>2000-01-02T23:11:53.000Z</time>
      </trkpt>
      <trkpt lat="46.08139" lon="6.71033">
        <ele>686</ele>
        <time>2000-01-02T23:12:03.000Z</time>
      </trkpt>
      <trkpt lat="46.08137" lon="6.71044">
        <ele>686</ele>
        <time>2000-01-02T23:12:13.000Z</time>
      </trkpt>
      <trkpt lat="46.08132" lon="6.71058">
        <ele>685</ele>
        <time>2000-01-02T23:12:23.000Z</time>
      </trkpt>
      <trkpt lat="46.08127" lon="6.71067">
        <ele>686</ele>
        <time>2000-01-02T23:12:33.000Z</time>
      </trkpt>
      <trkpt lat="46.08119" lon="6.71078">
        <ele>685</ele>
        <time>2000-01-02T23:12:43.000Z</time>
      </trkpt>
      <trkpt lat="46.08111" lon="6.71093">
        <ele>686</ele>
        <time>2000-01-02T23:12:53.000Z</time>
      </trkpt>
      <trkpt lat="46.08107" lon="6.711">
        <ele>685</ele>
        <time>2000-01-02T23:13:03.000Z</time>
      </trkpt>
      <trkpt lat="46.08103" lon="6.71103">
        <ele>686</ele>
        <time>2000-01-02T23:13:13.000Z</time>
      </trkpt>
      <trkpt lat="46.08092" lon="6.71111">
        <ele>686</ele>
        <time>2000-01-02T23:13:23.000Z</time>
      </trkpt>
      <trkpt lat="46.08086" lon="6.71118">
        <ele>685</ele>
        <time>2000-01-02T23:13:33.000Z</time>
      </trkpt>
      <trkpt lat="46.08083" lon="6.71125">
        <ele>686</ele>
        <time>2000-01-02T23:13:43.000Z</time>
      </trkpt>
      <trkpt lat="46.08078" lon="6.71137">
        <ele>686.2</ele>
        <time>2000-01-02T23:13:53.000Z</time>
      </trkpt>
      <trkpt lat="46.08074" lon="6.7115">
        <ele>686</ele>
        <time>2000-01-02T23:14:03.000Z</time>
      </trkpt>
      <trkpt lat="46.08066" lon="6.71167">
        <ele>687</ele>
        <time>2000-01-02T23:14:13.000Z</time>
      </trkpt>
      <trkpt lat="46.08056" lon="6.71182">
        <ele>686</ele>
        <time>2000-01-02T23:14:23.000Z</time>
      </trkpt>
      <trkpt lat="46.08047" lon="6.71193">
        <ele>687</ele>
        <time>2000-01-02T23:14:33.000Z</time>
      </trkpt>
      <trkpt lat="46.08036" lon="6.712">
        <ele>686</ele>
        <time>2000-01-02T23:14:43.000Z</time>
      </trkpt>
      <trkpt lat="46.0803" lon="6.71203">
        <ele>687</ele>
        <time>2000-01-02T23:14:53.000Z</time>
      </trkpt>
      <trkpt lat="46.08026" lon="6.71204">
        <ele>687</ele>
        <time>2000-01-02T23:15:03.000Z</time>
      </trkpt>
      <trkpt lat="46.08021" lon="6.71206">
        <ele>687.1</ele>
        <time>2000-01-02T23:15:13.000Z</time>
      </trkpt>
      <trkpt lat="46.08016" lon="6.71209">
        <ele>687</ele>
        <time>2000-01-02T23:15:23.000Z</time>
      </trkpt>
      <trkpt lat="46.08011" lon="6.71211">
        <ele>687.2</ele>
        <time>2000-01-02T23:15:33.000Z</time>
      </trkpt>
      <trkpt lat="46.08003" lon="6.71216">
        <ele>687.2</ele>
        <time>2000-01-02T23:15:43.000Z</time>
      </trkpt>
      <trkpt lat="46.07996" lon="6.71219">
        <ele>687</ele>
        <time>2000-01-02T23:15:53.000Z</time>
      </trkpt>
      <trkpt lat="46.07985" lon="6.71227">
        <ele>687.2</ele>
        <time>2000-01-02T23:16:03.000Z</time>
      </trkpt>
      <trkpt lat="46.07976" lon="6.71234">
        <ele>687</ele>
        <time>2000-01-02T23:16:13.000Z</time>
      </trkpt>
      <trkpt lat="46.07967" lon="6.71243">
        <ele>687.7</ele>
        <time>2000-01-02T23:16:23.000Z</time>
      </trkpt>
      <trkpt lat="46.0796" lon="6.71253">
        <ele>688</ele>
        <time>2000-01-02T23:16:33.000Z</time>
      </trkpt>
      <trkpt lat="46.07953" lon="6.71267">
        <ele>688</ele>
        <time>2000-01-02T23:16:43.000Z</time>
      </trkpt>
      <trkpt lat="46.07949" lon="6.7128">
        <ele>688</ele>
        <time>2000-01-02T23:16:53.000Z</time>
      </trkpt>
      <trkpt lat="46.07945" lon="6.71292">
        <ele>688</ele>
        <time>2000-01-02T23:17:03.000Z</time>
      </trkpt>
      <trkpt lat="46.07944" lon="6.71301">
        <ele>688</ele>
        <time>2000-01-02T23:17:13.000Z</time>
      </trkpt>
      <trkpt lat="46.0794" lon="6.71316">
        <ele>688</ele>
        <time>2000-01-02T23:17:23.000Z</time>
      </trkpt>
      <trkpt lat="46.07937" lon="6.71332">
        <ele>688.7</ele>
        <time>2000-01-02T23:17:33.000Z</time>
      </trkpt>
      <trkpt lat="46.07935" lon="6.71348">
        <ele>688</ele>
        <time>2000-01-02T23:17:43.000Z</time>
      </trkpt>
    </trkseg>
  </trk>
</gpx>